<?xml version='1.0' encoding='UTF-8'?><gpx version="1.1" creator="JPX - https://github.com/jenetics/jpx" xmlns="http://www.topografix.com/GPX/1/1"><trk><trkseg><trkpt lat="43.9661636" lon="12.7634411"><ele>2.0</ele><time>2026-04-26T07:00:28.414Z</time></trkpt><trkpt lat="43.9661368" lon="12.7633593"><ele>2.0</ele><time>2026-04-26T07:00:38.415Z</time></trkpt><trkpt lat="43.966157" lon="12.7631822"><ele>2.0</ele><time>2026-04-26T07:00:51.414Z</time></trkpt><trkpt lat="43.9661719" lon="12.7630914"><ele>2.0</ele><time>2026-04-26T07:00:59.414Z</time></trkpt><trkpt lat="43.9661494" lon="12.7629399"><ele>2.0</ele><time>2026-04-26T07:09:07.416Z</time></trkpt><trkpt lat="43.9662051" lon="12.7626706"><ele>2.1666666666666665</ele><time>2026-04-26T07:09:37.42Z</time></trkpt><trkpt lat="43.9662016" lon="12.7625624"><ele>2.333333333333333</ele><time>2026-04-26T07:09:40.413Z</time></trkpt><trkpt lat="43.9661757" lon="12.7624272"><ele>2.5</ele><time>2026-04-26T07:09:42.413Z</time></trkpt><trkpt lat="43.9661416" lon="12.7623389"><ele>2.6666666666666665</ele><time>2026-04-26T07:09:43.428Z</time></trkpt><trkpt lat="43.9660963" lon="12.7622511"><ele>2.8333333333333335</ele><time>2026-04-26T07:09:44.417Z</time></trkpt><trkpt lat="43.9660422" lon="12.7621658"><ele>3.0</ele><time>2026-04-26T07:09:45.417Z</time></trkpt><trkpt lat="43.9660116" lon="12.7620723"><ele>3.0</ele><time>2026-04-26T07:09:46.415Z</time></trkpt><trkpt lat="43.9659957" lon="12.761918"><ele>3.0</ele><time>2026-04-26T07:09:48.415Z</time></trkpt><trkpt lat="43.9659996" lon="12.7618007"><ele>3.0</ele><time>2026-04-26T07:09:50.414Z</time></trkpt><trkpt lat="43.9659925" lon="12.7616885"><ele>3.0</ele><time>2026-04-26T07:09:52.417Z</time></trkpt><trkpt lat="43.9659189" lon="12.7616605"><ele>3.0</ele><time>2026-04-26T07:10:00.415Z</time></trkpt><trkpt lat="43.9658794" lon="12.7617946"><ele>5.8</ele><time>2026-04-26T07:10:02.419Z</time></trkpt><trkpt lat="43.9658315" lon="12.7619256"><ele>8.6</ele><time>2026-04-26T07:10:04.416Z</time></trkpt><trkpt lat="43.9658003" lon="12.7620441"><ele>11.399999999999999</ele><time>2026-04-26T07:10:06.416Z</time></trkpt><trkpt lat="43.9657713" lon="12.7621727"><ele>14.2</ele><time>2026-04-26T07:10:08.414Z</time></trkpt><trkpt lat="43.9657303" lon="12.7623143"><ele>17.0</ele><time>2026-04-26T07:10:10.413Z</time></trkpt><trkpt lat="43.965706" lon="12.7623999"><ele>17.0</ele><time>2026-04-26T07:10:11.415Z</time></trkpt><trkpt lat="43.9656843" lon="12.7624864"><ele>17.0</ele><time>2026-04-26T07:10:12.413Z</time></trkpt><trkpt lat="43.9656618" lon="12.7625778"><ele>17.0</ele><time>2026-04-26T07:10:13.415Z</time></trkpt><trkpt lat="43.9656207" lon="12.7627643"><ele>17.0</ele><time>2026-04-26T07:10:15.418Z</time></trkpt><trkpt lat="43.965568" lon="12.7629096"><ele>17.0</ele><time>2026-04-26T07:10:17.414Z</time></trkpt><trkpt lat="43.9654849" lon="12.7629427"><ele>17.0</ele><time>2026-04-26T07:10:19.413Z</time></trkpt><trkpt lat="43.965383" lon="12.7628731"><ele>17.0</ele><time>2026-04-26T07:10:21.413Z</time></trkpt><trkpt lat="43.9652835" lon="12.7628456"><ele>17.0</ele><time>2026-04-26T07:10:23.415Z</time></trkpt><trkpt lat="43.9652057" lon="12.7628188"><ele>17.0</ele><time>2026-04-26T07:10:25.415Z</time></trkpt><trkpt lat="43.9651284" lon="12.7628795"><ele>17.0</ele><time>2026-04-26T07:10:29.415Z</time></trkpt><trkpt lat="43.9650736" lon="12.7630927"><ele>17.0</ele><time>2026-04-26T07:10:31.415Z</time></trkpt><trkpt lat="43.9650433" lon="12.7632349"><ele>17.0</ele><time>2026-04-26T07:10:32.415Z</time></trkpt><trkpt lat="43.965007" lon="12.7633827"><ele>17.0</ele><time>2026-04-26T07:10:33.414Z</time></trkpt><trkpt lat="43.9649669" lon="12.7635411"><ele>17.0</ele><time>2026-04-26T07:10:34.417Z</time></trkpt><trkpt lat="43.9648827" lon="12.7638697"><ele>20.25</ele><time>2026-04-26T07:10:36.415Z</time></trkpt><trkpt lat="43.9648446" lon="12.7640312"><ele>23.5</ele><time>2026-04-26T07:10:37.413Z</time></trkpt><trkpt lat="43.9648234" lon="12.7641881"><ele>26.75</ele><time>2026-04-26T07:10:38.416Z</time></trkpt><trkpt lat="43.9648223" lon="12.7643493"><ele>30.0</ele><time>2026-04-26T07:10:39.409Z</time></trkpt><trkpt lat="43.9648311" lon="12.7645219"><ele>31.0</ele><time>2026-04-26T07:10:40.411Z</time></trkpt><trkpt lat="43.9648446" lon="12.7646945"><ele>32.0</ele><time>2026-04-26T07:10:41.411Z</time></trkpt><trkpt lat="43.9648538" lon="12.7648652"><ele>33.0</ele><time>2026-04-26T07:10:42.412Z</time></trkpt><trkpt lat="43.9648525" lon="12.7650344"><ele>34.0</ele><time>2026-04-26T07:10:43.413Z</time></trkpt><trkpt lat="43.9648404" lon="12.7651983"><ele>34.5</ele><time>2026-04-26T07:10:44.415Z</time></trkpt><trkpt lat="43.9648176" lon="12.7653557"><ele>35.0</ele><time>2026-04-26T07:10:45.418Z</time></trkpt><trkpt lat="43.9648003" lon="12.7655108"><ele>35.5</ele><time>2026-04-26T07:10:46.412Z</time></trkpt><trkpt lat="43.9648027" lon="12.7656681"><ele>36.0</ele><time>2026-04-26T07:10:47.412Z</time></trkpt><trkpt lat="43.9648346" lon="12.7658123"><ele>36.0</ele><time>2026-04-26T07:10:48.416Z</time></trkpt><trkpt lat="43.9648802" lon="12.7659445"><ele>36.0</ele><time>2026-04-26T07:10:49.414Z</time></trkpt><trkpt lat="43.9649349" lon="12.7660678"><ele>36.0</ele><time>2026-04-26T07:10:50.416Z</time></trkpt><trkpt lat="43.9649755" lon="12.7661775"><ele>36.0</ele><time>2026-04-26T07:10:51.42Z</time></trkpt><trkpt lat="43.9650014" lon="12.7662741"><ele>36.0</ele><time>2026-04-26T07:10:52.415Z</time></trkpt><trkpt lat="43.9650187" lon="12.7663681"><ele>36.0</ele><time>2026-04-26T07:10:53.416Z</time></trkpt><trkpt lat="43.9650261" lon="12.7664632"><ele>37.4</ele><time>2026-04-26T07:10:54.42Z</time></trkpt><trkpt lat="43.9650125" lon="12.766549"><ele>38.8</ele><time>2026-04-26T07:10:55.418Z</time></trkpt><trkpt lat="43.9648793" lon="12.7666452"><ele>40.199999999999996</ele><time>2026-04-26T07:10:57.413Z</time></trkpt><trkpt lat="43.9647973" lon="12.7666179"><ele>41.6</ele><time>2026-04-26T07:10:58.414Z</time></trkpt><trkpt lat="43.9647348" lon="12.7665378"><ele>43.0</ele><time>2026-04-26T07:10:59.41Z</time></trkpt><trkpt lat="43.9647001" lon="12.766421"><ele>43.0</ele><time>2026-04-26T07:11:00.417Z</time></trkpt><trkpt lat="43.9646712" lon="12.7663137"><ele>43.0</ele><time>2026-04-26T07:11:01.415Z</time></trkpt><trkpt lat="43.9646188" lon="12.7661857"><ele>43.0</ele><time>2026-04-26T07:11:02.42Z</time></trkpt><trkpt lat="43.9645468" lon="12.7660248"><ele>43.0</ele><time>2026-04-26T07:11:03.414Z</time></trkpt><trkpt lat="43.9644637" lon="12.7658572"><ele>41.25</ele><time>2026-04-26T07:11:04.416Z</time></trkpt><trkpt lat="43.9643702" lon="12.765708"><ele>39.5</ele><time>2026-04-26T07:11:05.42Z</time></trkpt><trkpt lat="43.9642903" lon="12.7655741"><ele>37.75</ele><time>2026-04-26T07:11:06.42Z</time></trkpt><trkpt lat="43.9642261" lon="12.7654482"><ele>36.0</ele><time>2026-04-26T07:11:07.412Z</time></trkpt><trkpt lat="43.9641729" lon="12.7653383"><ele>40.0</ele><time>2026-04-26T07:11:08.414Z</time></trkpt><trkpt lat="43.9641436" lon="12.7652134"><ele>44.0</ele><time>2026-04-26T07:11:09.414Z</time></trkpt><trkpt lat="43.9641121" lon="12.7650826"><ele>47.99999999999999</ele><time>2026-04-26T07:11:10.416Z</time></trkpt><trkpt lat="43.9641016" lon="12.7649582"><ele>52.0</ele><time>2026-04-26T07:11:11.413Z</time></trkpt><trkpt lat="43.9640753" lon="12.7648322"><ele>56.0</ele><time>2026-04-26T07:11:12.419Z</time></trkpt><trkpt lat="43.9640655" lon="12.7647095"><ele>56.0</ele><time>2026-04-26T07:11:13.414Z</time></trkpt><trkpt lat="43.9640403" lon="12.7645913"><ele>56.0</ele><time>2026-04-26T07:11:14.414Z</time></trkpt><trkpt lat="43.9639956" lon="12.7644678"><ele>56.0</ele><time>2026-04-26T07:11:15.413Z</time></trkpt><trkpt lat="43.9639266" lon="12.7643131"><ele>56.0</ele><time>2026-04-26T07:11:16.414Z</time></trkpt><trkpt lat="43.9638095" lon="12.7640009"><ele>54.25</ele><time>2026-04-26T07:11:18.419Z</time></trkpt><trkpt lat="43.9637802" lon="12.7638421"><ele>52.5</ele><time>2026-04-26T07:11:19.413Z</time></trkpt><trkpt lat="43.9637686" lon="12.7636822"><ele>50.75</ele><time>2026-04-26T07:11:20.418Z</time></trkpt><trkpt lat="43.9637812" lon="12.7635185"><ele>49.0</ele><time>2026-04-26T07:11:21.412Z</time></trkpt><trkpt lat="43.9637787" lon="12.7633508"><ele>49.25</ele><time>2026-04-26T07:11:22.415Z</time></trkpt><trkpt lat="43.9637713" lon="12.7631768"><ele>49.5</ele><time>2026-04-26T07:11:23.414Z</time></trkpt><trkpt lat="43.9637492" lon="12.7630018"><ele>49.75</ele><time>2026-04-26T07:11:24.413Z</time></trkpt><trkpt lat="43.9637246" lon="12.7628181"><ele>50.0</ele><time>2026-04-26T07:11:25.415Z</time></trkpt><trkpt lat="43.9637109" lon="12.7626418"><ele>50.0</ele><time>2026-04-26T07:11:26.413Z</time></trkpt><trkpt lat="43.9637127" lon="12.7624746"><ele>50.0</ele><time>2026-04-26T07:11:27.414Z</time></trkpt><trkpt lat="43.9637289" lon="12.7623238"><ele>50.0</ele><time>2026-04-26T07:11:28.415Z</time></trkpt><trkpt lat="43.9637524" lon="12.7621724"><ele>50.0</ele><time>2026-04-26T07:11:29.414Z</time></trkpt><trkpt lat="43.9637804" lon="12.762034"><ele>50.0</ele><time>2026-04-26T07:11:30.421Z</time></trkpt><trkpt lat="43.9638186" lon="12.7619048"><ele>50.6</ele><time>2026-04-26T07:11:31.414Z</time></trkpt><trkpt lat="43.9638684" lon="12.7617781"><ele>51.2</ele><time>2026-04-26T07:11:32.423Z</time></trkpt><trkpt lat="43.9638913" lon="12.761642"><ele>51.8</ele><time>2026-04-26T07:11:33.413Z</time></trkpt><trkpt lat="43.9638847" lon="12.7614942"><ele>52.4</ele><time>2026-04-26T07:11:34.423Z</time></trkpt><trkpt lat="43.9638406" lon="12.7613545"><ele>53.0</ele><time>2026-04-26T07:11:35.415Z</time></trkpt><trkpt lat="43.9637838" lon="12.7612399"><ele>53.0</ele><time>2026-04-26T07:11:36.418Z</time></trkpt><trkpt lat="43.9637282" lon="12.7611639"><ele>53.0</ele><time>2026-04-26T07:11:37.413Z</time></trkpt><trkpt lat="43.9635738" lon="12.7609892"><ele>53.0</ele><time>2026-04-26T07:11:40.412Z</time></trkpt><trkpt lat="43.9635065" lon="12.7609212"><ele>53.0</ele><time>2026-04-26T07:11:41.412Z</time></trkpt><trkpt lat="43.9634327" lon="12.7608431"><ele>55.2</ele><time>2026-04-26T07:11:42.413Z</time></trkpt><trkpt lat="43.9633493" lon="12.7607639"><ele>57.4</ele><time>2026-04-26T07:11:43.418Z</time></trkpt><trkpt lat="43.963246" lon="12.7606989"><ele>59.60000000000001</ele><time>2026-04-26T07:11:44.416Z</time></trkpt><trkpt lat="43.9631367" lon="12.7606789"><ele>61.800000000000004</ele><time>2026-04-26T07:11:45.416Z</time></trkpt><trkpt lat="43.9630345" lon="12.7606986"><ele>64.0</ele><time>2026-04-26T07:11:46.416Z</time></trkpt><trkpt lat="43.9629278" lon="12.7607622"><ele>64.0</ele><time>2026-04-26T07:11:47.418Z</time></trkpt><trkpt lat="43.9628158" lon="12.7608145"><ele>64.0</ele><time>2026-04-26T07:11:48.414Z</time></trkpt><trkpt lat="43.9627277" lon="12.7609823"><ele>64.0</ele><time>2026-04-26T07:11:49.417Z</time></trkpt><trkpt lat="43.9626473" lon="12.761126"><ele>64.0</ele><time>2026-04-26T07:11:50.421Z</time></trkpt><trkpt lat="43.9625632" lon="12.7612565"><ele>62.0</ele><time>2026-04-26T07:11:51.416Z</time></trkpt><trkpt lat="43.9624751" lon="12.7613902"><ele>60.0</ele><time>2026-04-26T07:11:52.416Z</time></trkpt><trkpt lat="43.9623617" lon="12.7615647"><ele>58.0</ele><time>2026-04-26T07:11:53.413Z</time></trkpt><trkpt lat="43.9622402" lon="12.7617521"><ele>60.666666666666664</ele><time>2026-04-26T07:11:54.415Z</time></trkpt><trkpt lat="43.9621064" lon="12.7619716"><ele>63.33333333333333</ele><time>2026-04-26T07:11:55.417Z</time></trkpt><trkpt lat="43.9619746" lon="12.7621727"><ele>66.0</ele><time>2026-04-26T07:11:56.414Z</time></trkpt><trkpt lat="43.9618528" lon="12.7623702"><ele>66.0</ele><time>2026-04-26T07:11:57.414Z</time></trkpt><trkpt lat="43.9617382" lon="12.7625651"><ele>66.0</ele><time>2026-04-26T07:11:58.414Z</time></trkpt><trkpt lat="43.9615132" lon="12.7629155"><ele>62.75</ele><time>2026-04-26T07:12:00.414Z</time></trkpt><trkpt lat="43.9614097" lon="12.7630756"><ele>59.5</ele><time>2026-04-26T07:12:01.417Z</time></trkpt><trkpt lat="43.9613112" lon="12.7632263"><ele>56.25</ele><time>2026-04-26T07:12:02.413Z</time></trkpt><trkpt lat="43.9612166" lon="12.7633701"><ele>53.0</ele><time>2026-04-26T07:12:03.413Z</time></trkpt><trkpt lat="43.9611276" lon="12.7635119"><ele>53.0</ele><time>2026-04-26T07:12:04.418Z</time></trkpt><trkpt lat="43.9610352" lon="12.7636575"><ele>53.0</ele><time>2026-04-26T07:12:05.418Z</time></trkpt><trkpt lat="43.9609423" lon="12.763802"><ele>53.0</ele><time>2026-04-26T07:12:06.418Z</time></trkpt><trkpt lat="43.960852" lon="12.7639439"><ele>53.0</ele><time>2026-04-26T07:12:07.418Z</time></trkpt><trkpt lat="43.9607621" lon="12.7640849"><ele>51.75</ele><time>2026-04-26T07:12:08.415Z</time></trkpt><trkpt lat="43.9606638" lon="12.7642089"><ele>50.5</ele><time>2026-04-26T07:12:09.414Z</time></trkpt><trkpt lat="43.9605611" lon="12.7643276"><ele>49.25</ele><time>2026-04-26T07:12:10.412Z</time></trkpt><trkpt lat="43.960448" lon="12.7644323"><ele>48.0</ele><time>2026-04-26T07:12:11.418Z</time></trkpt><trkpt lat="43.9603232" lon="12.7645248"><ele>48.0</ele><time>2026-04-26T07:12:12.414Z</time></trkpt><trkpt lat="43.9601811" lon="12.764603"><ele>48.0</ele><time>2026-04-26T07:12:13.414Z</time></trkpt><trkpt lat="43.960027" lon="12.7646757"><ele>48.0</ele><time>2026-04-26T07:12:14.417Z</time></trkpt><trkpt lat="43.9598645" lon="12.7647489"><ele>44.666666666666664</ele><time>2026-04-26T07:12:15.42Z</time></trkpt><trkpt lat="43.9596965" lon="12.7648299"><ele>41.33333333333333</ele><time>2026-04-26T07:12:16.415Z</time></trkpt><trkpt lat="43.9595369" lon="12.7648968"><ele>38.0</ele><time>2026-04-26T07:12:17.412Z</time></trkpt><trkpt lat="43.9593832" lon="12.7649625"><ele>38.0</ele><time>2026-04-26T07:12:18.414Z</time></trkpt><trkpt lat="43.9592316" lon="12.7650216"><ele>38.0</ele><time>2026-04-26T07:12:19.412Z</time></trkpt><trkpt lat="43.9589464" lon="12.765149"><ele>36.75</ele><time>2026-04-26T07:12:21.413Z</time></trkpt><trkpt lat="43.9588077" lon="12.7652094"><ele>35.5</ele><time>2026-04-26T07:12:22.413Z</time></trkpt><trkpt lat="43.9586697" lon="12.7652719"><ele>34.25</ele><time>2026-04-26T07:12:23.416Z</time></trkpt><trkpt lat="43.9585338" lon="12.7653355"><ele>33.0</ele><time>2026-04-26T07:12:24.41Z</time></trkpt><trkpt lat="43.9583995" lon="12.7654007"><ele>31.0</ele><time>2026-04-26T07:12:25.418Z</time></trkpt><trkpt lat="43.9582554" lon="12.7654627"><ele>29.0</ele><time>2026-04-26T07:12:26.414Z</time></trkpt><trkpt lat="43.9581151" lon="12.7655129"><ele>27.0</ele><time>2026-04-26T07:12:27.413Z</time></trkpt><trkpt lat="43.9579811" lon="12.7655679"><ele>25.0</ele><time>2026-04-26T07:12:28.414Z</time></trkpt><trkpt lat="43.9578599" lon="12.7656234"><ele>25.0</ele><time>2026-04-26T07:12:29.417Z</time></trkpt><trkpt lat="43.9577423" lon="12.7656536"><ele>25.0</ele><time>2026-04-26T07:12:30.413Z</time></trkpt><trkpt lat="43.9576331" lon="12.7656573"><ele>25.0</ele><time>2026-04-26T07:12:31.419Z</time></trkpt><trkpt lat="43.9575344" lon="12.7656387"><ele>25.0</ele><time>2026-04-26T07:12:32.413Z</time></trkpt><trkpt lat="43.9574372" lon="12.7656093"><ele>25.0</ele><time>2026-04-26T07:12:33.414Z</time></trkpt><trkpt lat="43.957362" lon="12.7655848"><ele>23.833333333333336</ele><time>2026-04-26T07:12:34.414Z</time></trkpt><trkpt lat="43.9572507" lon="12.7655914"><ele>22.666666666666668</ele><time>2026-04-26T07:12:36.413Z</time></trkpt><trkpt lat="43.9571973" lon="12.7656432"><ele>21.5</ele><time>2026-04-26T07:12:37.417Z</time></trkpt><trkpt lat="43.9571564" lon="12.7657236"><ele>20.333333333333336</ele><time>2026-04-26T07:12:38.413Z</time></trkpt><trkpt lat="43.9571229" lon="12.7658197"><ele>19.166666666666668</ele><time>2026-04-26T07:12:39.418Z</time></trkpt><trkpt lat="43.9570709" lon="12.7658956"><ele>18.0</ele><time>2026-04-26T07:12:40.414Z</time></trkpt><trkpt lat="43.9569061" lon="12.76598"><ele>18.0</ele><time>2026-04-26T07:12:42.41Z</time></trkpt><trkpt lat="43.9568239" lon="12.7659632"><ele>18.0</ele><time>2026-04-26T07:12:43.413Z</time></trkpt><trkpt lat="43.9567575" lon="12.7659172"><ele>18.0</ele><time>2026-04-26T07:12:44.416Z</time></trkpt><trkpt lat="43.9567062" lon="12.7658617"><ele>18.0</ele><time>2026-04-26T07:12:45.415Z</time></trkpt><trkpt lat="43.9566614" lon="12.7657605"><ele>18.0</ele><time>2026-04-26T07:12:47.416Z</time></trkpt><trkpt lat="43.9566471" lon="12.7656085"><ele>18.0</ele><time>2026-04-26T07:12:49.421Z</time></trkpt><trkpt lat="43.9566554" lon="12.7654978"><ele>17.0</ele><time>2026-04-26T07:12:50.412Z</time></trkpt><trkpt lat="43.9566666" lon="12.7653716"><ele>16.0</ele><time>2026-04-26T07:12:51.41Z</time></trkpt><trkpt lat="43.9566741" lon="12.7652231"><ele>15.0</ele><time>2026-04-26T07:12:52.413Z</time></trkpt><trkpt lat="43.9566772" lon="12.7650509"><ele>14.0</ele><time>2026-04-26T07:12:53.415Z</time></trkpt><trkpt lat="43.9566637" lon="12.7648638"><ele>13.666666666666668</ele><time>2026-04-26T07:12:54.417Z</time></trkpt><trkpt lat="43.95664" lon="12.7646618"><ele>13.333333333333332</ele><time>2026-04-26T07:12:55.417Z</time></trkpt><trkpt lat="43.9566032" lon="12.7644437"><ele>13.0</ele><time>2026-04-26T07:12:56.415Z</time></trkpt><trkpt lat="43.9565474" lon="12.7642287"><ele>14.0</ele><time>2026-04-26T07:12:57.417Z</time></trkpt><trkpt lat="43.9564802" lon="12.7640197"><ele>15.0</ele><time>2026-04-26T07:12:58.418Z</time></trkpt><trkpt lat="43.956405" lon="12.7638298"><ele>16.0</ele><time>2026-04-26T07:12:59.413Z</time></trkpt><trkpt lat="43.9563202" lon="12.7636556"><ele>15.5</ele><time>2026-04-26T07:13:00.412Z</time></trkpt><trkpt lat="43.9562219" lon="12.7635001"><ele>15.0</ele><time>2026-04-26T07:13:01.414Z</time></trkpt><trkpt lat="43.9559941" lon="12.7632127"><ele>13.666666666666666</ele><time>2026-04-26T07:13:03.415Z</time></trkpt><trkpt lat="43.9558676" lon="12.7630772"><ele>12.333333333333332</ele><time>2026-04-26T07:13:04.41Z</time></trkpt><trkpt lat="43.9557343" lon="12.7629396"><ele>11.0</ele><time>2026-04-26T07:13:05.417Z</time></trkpt><trkpt lat="43.9555953" lon="12.7628012"><ele>11.0</ele><time>2026-04-26T07:13:06.417Z</time></trkpt><trkpt lat="43.9554506" lon="12.7626588"><ele>11.0</ele><time>2026-04-26T07:13:07.418Z</time></trkpt><trkpt lat="43.9553057" lon="12.7625124"><ele>11.0</ele><time>2026-04-26T07:13:08.411Z</time></trkpt><trkpt lat="43.9551561" lon="12.7623637"><ele>11.0</ele><time>2026-04-26T07:13:09.415Z</time></trkpt><trkpt lat="43.9550064" lon="12.7622083"><ele>11.0</ele><time>2026-04-26T07:13:10.412Z</time></trkpt><trkpt lat="43.9548599" lon="12.7620497"><ele>11.0</ele><time>2026-04-26T07:13:11.411Z</time></trkpt><trkpt lat="43.9547215" lon="12.7618819"><ele>10.333333333333332</ele><time>2026-04-26T07:13:12.41Z</time></trkpt><trkpt lat="43.9545853" lon="12.7617084"><ele>9.666666666666666</ele><time>2026-04-26T07:13:13.413Z</time></trkpt><trkpt lat="43.9544554" lon="12.7615105"><ele>9.0</ele><time>2026-04-26T07:13:14.413Z</time></trkpt><trkpt lat="43.9543385" lon="12.761292"><ele>9.0</ele><time>2026-04-26T07:13:15.414Z</time></trkpt><trkpt lat="43.9542322" lon="12.76106"><ele>9.0</ele><time>2026-04-26T07:13:16.414Z</time></trkpt><trkpt lat="43.9541432" lon="12.7608303"><ele>9.0</ele><time>2026-04-26T07:13:17.414Z</time></trkpt><trkpt lat="43.9540775" lon="12.7606015"><ele>9.0</ele><time>2026-04-26T07:13:18.413Z</time></trkpt><trkpt lat="43.954022" lon="12.7603761"><ele>9.0</ele><time>2026-04-26T07:13:19.419Z</time></trkpt><trkpt lat="43.9539712" lon="12.7601404"><ele>9.0</ele><time>2026-04-26T07:13:20.412Z</time></trkpt><trkpt lat="43.9539299" lon="12.7599031"><ele>9.0</ele><time>2026-04-26T07:13:21.412Z</time></trkpt><trkpt lat="43.9538928" lon="12.7596646"><ele>9.0</ele><time>2026-04-26T07:13:22.412Z</time></trkpt><trkpt lat="43.9538184" lon="12.7591785"><ele>9.0</ele><time>2026-04-26T07:13:24.418Z</time></trkpt><trkpt lat="43.9537817" lon="12.7589352"><ele>9.0</ele><time>2026-04-26T07:13:25.412Z</time></trkpt><trkpt lat="43.9537476" lon="12.7586848"><ele>9.0</ele><time>2026-04-26T07:13:26.418Z</time></trkpt><trkpt lat="43.9537094" lon="12.7584187"><ele>9.0</ele><time>2026-04-26T07:13:27.411Z</time></trkpt><trkpt lat="43.9536707" lon="12.7581414"><ele>9.0</ele><time>2026-04-26T07:13:28.414Z</time></trkpt><trkpt lat="43.9536318" lon="12.7578547"><ele>9.0</ele><time>2026-04-26T07:13:29.414Z</time></trkpt><trkpt lat="43.9535944" lon="12.7575657"><ele>9.0</ele><time>2026-04-26T07:13:30.412Z</time></trkpt><trkpt lat="43.9535569" lon="12.7572782"><ele>9.0</ele><time>2026-04-26T07:13:31.416Z</time></trkpt><trkpt lat="43.9535185" lon="12.7569901"><ele>9.0</ele><time>2026-04-26T07:13:32.417Z</time></trkpt><trkpt lat="43.9534795" lon="12.7567007"><ele>8.666666666666666</ele><time>2026-04-26T07:13:33.417Z</time></trkpt><trkpt lat="43.9534446" lon="12.756414"><ele>8.333333333333332</ele><time>2026-04-26T07:13:34.413Z</time></trkpt><trkpt lat="43.9534175" lon="12.7561277"><ele>8.0</ele><time>2026-04-26T07:13:35.416Z</time></trkpt><trkpt lat="43.9533933" lon="12.75584"><ele>8.0</ele><time>2026-04-26T07:13:36.412Z</time></trkpt><trkpt lat="43.9533726" lon="12.7555602"><ele>8.0</ele><time>2026-04-26T07:13:37.412Z</time></trkpt><trkpt lat="43.9533493" lon="12.7552947"><ele>8.0</ele><time>2026-04-26T07:13:38.413Z</time></trkpt><trkpt lat="43.9533278" lon="12.7550337"><ele>8.333333333333332</ele><time>2026-04-26T07:13:39.415Z</time></trkpt><trkpt lat="43.9533108" lon="12.7547799"><ele>8.666666666666666</ele><time>2026-04-26T07:13:40.415Z</time></trkpt><trkpt lat="43.9532953" lon="12.7545291"><ele>9.0</ele><time>2026-04-26T07:13:41.419Z</time></trkpt><trkpt lat="43.9532795" lon="12.7542802"><ele>9.5</ele><time>2026-04-26T07:13:42.412Z</time></trkpt><trkpt lat="43.9532689" lon="12.7540311"><ele>10.0</ele><time>2026-04-26T07:13:43.416Z</time></trkpt><trkpt lat="43.9532461" lon="12.753563"><ele>11.0</ele><time>2026-04-26T07:13:45.417Z</time></trkpt><trkpt lat="43.953237" lon="12.7533468"><ele>12.0</ele><time>2026-04-26T07:13:46.414Z</time></trkpt><trkpt lat="43.9532314" lon="12.7531297"><ele>13.0</ele><time>2026-04-26T07:13:47.415Z</time></trkpt><trkpt lat="43.9532274" lon="12.7529066"><ele>13.0</ele><time>2026-04-26T07:13:48.416Z</time></trkpt><trkpt lat="43.9532245" lon="12.7526824"><ele>13.0</ele><time>2026-04-26T07:13:49.411Z</time></trkpt><trkpt lat="43.9532213" lon="12.7524638"><ele>13.0</ele><time>2026-04-26T07:13:50.412Z</time></trkpt><trkpt lat="43.9532211" lon="12.7522565"><ele>13.0</ele><time>2026-04-26T07:13:51.412Z</time></trkpt><trkpt lat="43.9532215" lon="12.7520637"><ele>13.0</ele><time>2026-04-26T07:13:52.417Z</time></trkpt><trkpt lat="43.9532236" lon="12.7518759"><ele>13.0</ele><time>2026-04-26T07:13:53.416Z</time></trkpt><trkpt lat="43.9532243" lon="12.7517088"><ele>13.0</ele><time>2026-04-26T07:13:54.415Z</time></trkpt><trkpt lat="43.9532287" lon="12.7515537"><ele>12.8</ele><time>2026-04-26T07:13:55.422Z</time></trkpt><trkpt lat="43.953229" lon="12.7514021"><ele>12.600000000000001</ele><time>2026-04-26T07:13:56.419Z</time></trkpt><trkpt lat="43.953231" lon="12.7512608"><ele>12.399999999999999</ele><time>2026-04-26T07:13:57.414Z</time></trkpt><trkpt lat="43.9532343" lon="12.7511323"><ele>12.2</ele><time>2026-04-26T07:13:58.414Z</time></trkpt><trkpt lat="43.9532376" lon="12.751017"><ele>12.0</ele><time>2026-04-26T07:13:59.417Z</time></trkpt><trkpt lat="43.9532405" lon="12.7509195"><ele>12.0</ele><time>2026-04-26T07:14:00.421Z</time></trkpt><trkpt lat="43.9532616" lon="12.7507702"><ele>12.0</ele><time>2026-04-26T07:14:02.422Z</time></trkpt><trkpt lat="43.9533118" lon="12.7506889"><ele>12.0</ele><time>2026-04-26T07:14:04.413Z</time></trkpt><trkpt lat="43.9534611" lon="12.7506395"><ele>12.0</ele><time>2026-04-26T07:14:11.411Z</time></trkpt><trkpt lat="43.9535502" lon="12.750633"><ele>12.0</ele><time>2026-04-26T07:14:14.416Z</time></trkpt><trkpt lat="43.9536229" lon="12.7506382"><ele>11.5</ele><time>2026-04-26T07:14:17.414Z</time></trkpt><trkpt lat="43.9536967" lon="12.7506567"><ele>11.0</ele><time>2026-04-26T07:14:21.411Z</time></trkpt><trkpt lat="43.9537759" lon="12.7506615"><ele>10.5</ele><time>2026-04-26T07:14:25.413Z</time></trkpt><trkpt lat="43.9537046" lon="12.7508268"><ele>10.0</ele><time>2026-04-26T07:14:36.413Z</time></trkpt><trkpt lat="43.9537361" lon="12.7509102"><ele>9.5</ele><time>2026-04-26T07:17:57.412Z</time></trkpt><trkpt lat="43.9537952" lon="12.7508493"><ele>9.0</ele><time>2026-04-26T07:18:03.414Z</time></trkpt><trkpt lat="43.9538056" lon="12.7507454"><ele>9.0</ele><time>2026-04-26T07:18:05.414Z</time></trkpt><trkpt lat="43.9537534" lon="12.7506144"><ele>9.0</ele><time>2026-04-26T07:18:07.422Z</time></trkpt><trkpt lat="43.9536523" lon="12.7505646"><ele>9.0</ele><time>2026-04-26T07:18:09.411Z</time></trkpt><trkpt lat="43.9535863" lon="12.7504999"><ele>9.0</ele><time>2026-04-26T07:18:11.414Z</time></trkpt><trkpt lat="43.9535149" lon="12.7504559"><ele>9.0</ele><time>2026-04-26T07:18:14.418Z</time></trkpt><trkpt lat="43.9534578" lon="12.7503837"><ele>9.25</ele><time>2026-04-26T07:18:18.417Z</time></trkpt><trkpt lat="43.9533305" lon="12.7500934"><ele>9.5</ele><time>2026-04-26T07:19:50.416Z</time></trkpt><trkpt lat="43.9532915" lon="12.7500218"><ele>9.75</ele><time>2026-04-26T07:19:52.419Z</time></trkpt><trkpt lat="43.9532562" lon="12.7498804"><ele>10.0</ele><time>2026-04-26T07:19:54.41Z</time></trkpt><trkpt lat="43.9532516" lon="12.7497632"><ele>10.0</ele><time>2026-04-26T07:19:55.411Z</time></trkpt><trkpt lat="43.9532541" lon="12.7496178"><ele>10.0</ele><time>2026-04-26T07:19:56.411Z</time></trkpt><trkpt lat="43.9532537" lon="12.7494636"><ele>10.0</ele><time>2026-04-26T07:19:57.412Z</time></trkpt><trkpt lat="43.9532553" lon="12.7492898"><ele>10.0</ele><time>2026-04-26T07:19:58.412Z</time></trkpt><trkpt lat="43.9532571" lon="12.7491115"><ele>10.0</ele><time>2026-04-26T07:19:59.414Z</time></trkpt><trkpt lat="43.9532585" lon="12.7489278"><ele>10.0</ele><time>2026-04-26T07:20:00.412Z</time></trkpt><trkpt lat="43.9532616" lon="12.7487367"><ele>10.0</ele><time>2026-04-26T07:20:01.415Z</time></trkpt><trkpt lat="43.9532616" lon="12.7485346"><ele>10.0</ele><time>2026-04-26T07:20:02.412Z</time></trkpt><trkpt lat="43.9532575" lon="12.7483281"><ele>10.0</ele><time>2026-04-26T07:20:03.414Z</time></trkpt><trkpt lat="43.9532514" lon="12.7481219"><ele>10.0</ele><time>2026-04-26T07:20:04.415Z</time></trkpt><trkpt lat="43.9532426" lon="12.7479167"><ele>10.0</ele><time>2026-04-26T07:20:05.414Z</time></trkpt><trkpt lat="43.9532317" lon="12.747713"><ele>10.0</ele><time>2026-04-26T07:20:06.416Z</time></trkpt><trkpt lat="43.9531989" lon="12.7473176"><ele>10.25</ele><time>2026-04-26T07:20:08.412Z</time></trkpt><trkpt lat="43.9531809" lon="12.7471138"><ele>10.5</ele><time>2026-04-26T07:20:09.411Z</time></trkpt><trkpt lat="43.9531634" lon="12.7469073"><ele>10.75</ele><time>2026-04-26T07:20:10.412Z</time></trkpt><trkpt lat="43.9531399" lon="12.7467008"><ele>11.0</ele><time>2026-04-26T07:20:11.416Z</time></trkpt><trkpt lat="43.9531114" lon="12.746491"><ele>11.666666666666666</ele><time>2026-04-26T07:20:12.415Z</time></trkpt><trkpt lat="43.9530824" lon="12.7462712"><ele>12.333333333333332</ele><time>2026-04-26T07:20:13.413Z</time></trkpt><trkpt lat="43.9530501" lon="12.7460566"><ele>13.0</ele><time>2026-04-26T07:20:14.411Z</time></trkpt><trkpt lat="43.9530154" lon="12.7458408"><ele>13.333333333333332</ele><time>2026-04-26T07:20:15.408Z</time></trkpt><trkpt lat="43.9529737" lon="12.7456261"><ele>13.666666666666668</ele><time>2026-04-26T07:20:16.411Z</time></trkpt><trkpt lat="43.9529303" lon="12.7454129"><ele>14.0</ele><time>2026-04-26T07:20:17.409Z</time></trkpt><trkpt lat="43.9528851" lon="12.7452039"><ele>14.0</ele><time>2026-04-26T07:20:18.415Z</time></trkpt><trkpt lat="43.9528346" lon="12.7449929"><ele>14.0</ele><time>2026-04-26T07:20:19.416Z</time></trkpt><trkpt lat="43.9527828" lon="12.7447917"><ele>14.0</ele><time>2026-04-26T07:20:20.414Z</time></trkpt><trkpt lat="43.9527313" lon="12.7445897"><ele>14.0</ele><time>2026-04-26T07:20:21.417Z</time></trkpt><trkpt lat="43.9526764" lon="12.7443887"><ele>14.0</ele><time>2026-04-26T07:20:22.412Z</time></trkpt><trkpt lat="43.9526224" lon="12.7441909"><ele>14.0</ele><time>2026-04-26T07:20:23.422Z</time></trkpt><trkpt lat="43.9525657" lon="12.7439913"><ele>13.333333333333334</ele><time>2026-04-26T07:20:24.418Z</time></trkpt><trkpt lat="43.9525077" lon="12.7437913"><ele>12.666666666666668</ele><time>2026-04-26T07:20:25.417Z</time></trkpt><trkpt lat="43.9524518" lon="12.7435948"><ele>12.0</ele><time>2026-04-26T07:20:26.416Z</time></trkpt><trkpt lat="43.9523945" lon="12.7434001"><ele>12.0</ele><time>2026-04-26T07:20:27.414Z</time></trkpt><trkpt lat="43.9522773" lon="12.7430079"><ele>12.0</ele><time>2026-04-26T07:20:29.412Z</time></trkpt><trkpt lat="43.952217" lon="12.7428089"><ele>12.666666666666668</ele><time>2026-04-26T07:20:30.418Z</time></trkpt><trkpt lat="43.9521556" lon="12.7426102"><ele>13.333333333333334</ele><time>2026-04-26T07:20:31.413Z</time></trkpt><trkpt lat="43.952097" lon="12.7424118"><ele>14.0</ele><time>2026-04-26T07:20:32.414Z</time></trkpt><trkpt lat="43.9520389" lon="12.742224"><ele>14.0</ele><time>2026-04-26T07:20:33.414Z</time></trkpt><trkpt lat="43.9519848" lon="12.7420344"><ele>14.0</ele><time>2026-04-26T07:20:34.415Z</time></trkpt><trkpt lat="43.9519301" lon="12.7418419"><ele>14.0</ele><time>2026-04-26T07:20:35.413Z</time></trkpt><trkpt lat="43.9518745" lon="12.7416493"><ele>14.0</ele><time>2026-04-26T07:20:36.417Z</time></trkpt><trkpt lat="43.9518171" lon="12.7414584"><ele>14.0</ele><time>2026-04-26T07:20:37.415Z</time></trkpt><trkpt lat="43.9517614" lon="12.7412716"><ele>14.0</ele><time>2026-04-26T07:20:38.416Z</time></trkpt><trkpt lat="43.9517068" lon="12.7410981"><ele>14.0</ele><time>2026-04-26T07:20:39.412Z</time></trkpt><trkpt lat="43.9516595" lon="12.7409281"><ele>14.0</ele><time>2026-04-26T07:20:40.419Z</time></trkpt><trkpt lat="43.9516093" lon="12.7407586"><ele>14.0</ele><time>2026-04-26T07:20:41.411Z</time></trkpt><trkpt lat="43.9515621" lon="12.7405939"><ele>14.0</ele><time>2026-04-26T07:20:42.415Z</time></trkpt><trkpt lat="43.9515186" lon="12.7404256"><ele>14.0</ele><time>2026-04-26T07:20:43.416Z</time></trkpt><trkpt lat="43.951469" lon="12.7402497"><ele>14.0</ele><time>2026-04-26T07:20:44.413Z</time></trkpt><trkpt lat="43.9514138" lon="12.7400442"><ele>14.0</ele><time>2026-04-26T07:20:45.411Z</time></trkpt><trkpt lat="43.9513525" lon="12.7398218"><ele>14.0</ele><time>2026-04-26T07:20:46.413Z</time></trkpt><trkpt lat="43.9512899" lon="12.7395779"><ele>14.0</ele><time>2026-04-26T07:20:47.411Z</time></trkpt><trkpt lat="43.9512269" lon="12.7393131"><ele>14.0</ele><time>2026-04-26T07:20:48.415Z</time></trkpt><trkpt lat="43.9511273" lon="12.7387613"><ele>14.0</ele><time>2026-04-26T07:20:50.417Z</time></trkpt><trkpt lat="43.9510795" lon="12.7384675"><ele>14.0</ele><time>2026-04-26T07:20:51.415Z</time></trkpt><trkpt lat="43.9510397" lon="12.7381776"><ele>14.0</ele><time>2026-04-26T07:20:52.417Z</time></trkpt><trkpt lat="43.9510093" lon="12.7379002"><ele>14.0</ele><time>2026-04-26T07:20:53.419Z</time></trkpt><trkpt lat="43.9509883" lon="12.7376288"><ele>14.0</ele><time>2026-04-26T07:20:54.417Z</time></trkpt><trkpt lat="43.9509719" lon="12.7373548"><ele>14.0</ele><time>2026-04-26T07:20:55.418Z</time></trkpt><trkpt lat="43.95096" lon="12.7370722"><ele>14.0</ele><time>2026-04-26T07:20:56.413Z</time></trkpt><trkpt lat="43.9509578" lon="12.7367766"><ele>13.666666666666668</ele><time>2026-04-26T07:20:57.416Z</time></trkpt><trkpt lat="43.950965" lon="12.736474"><ele>13.333333333333332</ele><time>2026-04-26T07:20:58.412Z</time></trkpt><trkpt lat="43.9509757" lon="12.7361749"><ele>13.0</ele><time>2026-04-26T07:20:59.414Z</time></trkpt><trkpt lat="43.9509943" lon="12.7358816"><ele>12.666666666666666</ele><time>2026-04-26T07:21:00.415Z</time></trkpt><trkpt lat="43.9510235" lon="12.7355986"><ele>12.333333333333332</ele><time>2026-04-26T07:21:01.414Z</time></trkpt><trkpt lat="43.9510612" lon="12.7353316"><ele>12.0</ele><time>2026-04-26T07:21:02.411Z</time></trkpt><trkpt lat="43.9511022" lon="12.7350727"><ele>12.0</ele><time>2026-04-26T07:21:03.415Z</time></trkpt><trkpt lat="43.9511476" lon="12.7348178"><ele>12.0</ele><time>2026-04-26T07:21:04.414Z</time></trkpt><trkpt lat="43.9511981" lon="12.7345564"><ele>12.0</ele><time>2026-04-26T07:21:05.411Z</time></trkpt><trkpt lat="43.951263" lon="12.7342898"><ele>12.666666666666668</ele><time>2026-04-26T07:21:06.415Z</time></trkpt><trkpt lat="43.9513427" lon="12.7340202"><ele>13.333333333333334</ele><time>2026-04-26T07:21:07.417Z</time></trkpt><trkpt lat="43.9514311" lon="12.7337442"><ele>14.0</ele><time>2026-04-26T07:21:08.417Z</time></trkpt><trkpt lat="43.9515435" lon="12.7334729"><ele>14.0</ele><time>2026-04-26T07:21:09.415Z</time></trkpt><trkpt lat="43.9518272" lon="12.7329507"><ele>13.333333333333334</ele><time>2026-04-26T07:21:11.411Z</time></trkpt><trkpt lat="43.9519727" lon="12.7327057"><ele>12.666666666666668</ele><time>2026-04-26T07:21:12.412Z</time></trkpt><trkpt lat="43.9521171" lon="12.7324758"><ele>12.0</ele><time>2026-04-26T07:21:13.411Z</time></trkpt><trkpt lat="43.9522623" lon="12.7322626"><ele>12.0</ele><time>2026-04-26T07:21:14.419Z</time></trkpt><trkpt lat="43.9524054" lon="12.7320687"><ele>12.0</ele><time>2026-04-26T07:21:15.413Z</time></trkpt><trkpt lat="43.9525479" lon="12.7318792"><ele>12.0</ele><time>2026-04-26T07:21:16.409Z</time></trkpt><trkpt lat="43.952686" lon="12.7317034"><ele>13.333333333333332</ele><time>2026-04-26T07:21:17.412Z</time></trkpt><trkpt lat="43.9528208" lon="12.7315294"><ele>14.666666666666666</ele><time>2026-04-26T07:21:18.413Z</time></trkpt><trkpt lat="43.9529578" lon="12.731361"><ele>16.0</ele><time>2026-04-26T07:21:19.418Z</time></trkpt><trkpt lat="43.9530903" lon="12.731205"><ele>16.0</ele><time>2026-04-26T07:21:20.414Z</time></trkpt><trkpt lat="43.9532274" lon="12.7310513"><ele>16.0</ele><time>2026-04-26T07:21:21.413Z</time></trkpt><trkpt lat="43.9533599" lon="12.730901"><ele>16.0</ele><time>2026-04-26T07:21:22.414Z</time></trkpt><trkpt lat="43.9534916" lon="12.7307529"><ele>16.0</ele><time>2026-04-26T07:21:23.417Z</time></trkpt><trkpt lat="43.9536214" lon="12.7306096"><ele>16.0</ele><time>2026-04-26T07:21:24.413Z</time></trkpt><trkpt lat="43.9537466" lon="12.7304695"><ele>16.0</ele><time>2026-04-26T07:21:25.414Z</time></trkpt><trkpt lat="43.9538717" lon="12.7303358"><ele>15.75</ele><time>2026-04-26T07:21:26.411Z</time></trkpt><trkpt lat="43.9539929" lon="12.7302067"><ele>15.5</ele><time>2026-04-26T07:21:27.412Z</time></trkpt><trkpt lat="43.9541096" lon="12.7300824"><ele>15.25</ele><time>2026-04-26T07:21:28.414Z</time></trkpt><trkpt lat="43.954221" lon="12.7299615"><ele>15.0</ele><time>2026-04-26T07:21:29.41Z</time></trkpt><trkpt lat="43.9544288" lon="12.7297455"><ele>15.4</ele><time>2026-04-26T07:21:31.412Z</time></trkpt><trkpt lat="43.9545231" lon="12.7296497"><ele>15.8</ele><time>2026-04-26T07:21:32.415Z</time></trkpt><trkpt lat="43.9546065" lon="12.7295645"><ele>16.2</ele><time>2026-04-26T07:21:33.412Z</time></trkpt><trkpt lat="43.9546817" lon="12.7294976"><ele>16.6</ele><time>2026-04-26T07:21:34.412Z</time></trkpt><trkpt lat="43.9547556" lon="12.7294555"><ele>17.0</ele><time>2026-04-26T07:21:35.412Z</time></trkpt><trkpt lat="43.954838" lon="12.7294575"><ele>17.0</ele><time>2026-04-26T07:21:36.412Z</time></trkpt><trkpt lat="43.9549313" lon="12.7294681"><ele>17.0</ele><time>2026-04-26T07:21:37.411Z</time></trkpt><trkpt lat="43.9550241" lon="12.7294948"><ele>17.0</ele><time>2026-04-26T07:21:38.412Z</time></trkpt><trkpt lat="43.9551034" lon="12.7295693"><ele>17.0</ele><time>2026-04-26T07:21:39.415Z</time></trkpt><trkpt lat="43.9551839" lon="12.7296874"><ele>17.0</ele><time>2026-04-26T07:21:40.418Z</time></trkpt><trkpt lat="43.9552751" lon="12.7298182"><ele>16.8</ele><time>2026-04-26T07:21:41.411Z</time></trkpt><trkpt lat="43.9553579" lon="12.7299462"><ele>16.6</ele><time>2026-04-26T07:21:42.413Z</time></trkpt><trkpt lat="43.9554238" lon="12.7300794"><ele>16.400000000000002</ele><time>2026-04-26T07:21:43.415Z</time></trkpt><trkpt lat="43.955469" lon="12.7302141"><ele>16.2</ele><time>2026-04-26T07:21:44.42Z</time></trkpt><trkpt lat="43.9554857" lon="12.73035"><ele>16.0</ele><time>2026-04-26T07:21:45.416Z</time></trkpt><trkpt lat="43.9555002" lon="12.7304738"><ele>15.8</ele><time>2026-04-26T07:21:46.414Z</time></trkpt><trkpt lat="43.9555392" lon="12.7305783"><ele>15.600000000000001</ele><time>2026-04-26T07:21:47.417Z</time></trkpt><trkpt lat="43.955607" lon="12.7306574"><ele>15.4</ele><time>2026-04-26T07:21:48.418Z</time></trkpt><trkpt lat="43.9556942" lon="12.7306905"><ele>15.2</ele><time>2026-04-26T07:21:49.412Z</time></trkpt><trkpt lat="43.9558065" lon="12.7306929"><ele>15.0</ele><time>2026-04-26T07:21:50.424Z</time></trkpt><trkpt lat="43.9560604" lon="12.7307909"><ele>14.5</ele><time>2026-04-26T07:21:52.415Z</time></trkpt><trkpt lat="43.9561833" lon="12.7308055"><ele>14.0</ele><time>2026-04-26T07:21:53.415Z</time></trkpt><trkpt lat="43.9562965" lon="12.7307875"><ele>13.5</ele><time>2026-04-26T07:21:54.413Z</time></trkpt><trkpt lat="43.956409" lon="12.7307485"><ele>13.0</ele><time>2026-04-26T07:21:55.416Z</time></trkpt><trkpt lat="43.9565064" lon="12.730695"><ele>12.999999999999998</ele><time>2026-04-26T07:21:56.415Z</time></trkpt><trkpt lat="43.9565936" lon="12.7306331"><ele>13.0</ele><time>2026-04-26T07:21:57.419Z</time></trkpt><trkpt lat="43.9566689" lon="12.7305657"><ele>13.0</ele><time>2026-04-26T07:21:58.415Z</time></trkpt><trkpt lat="43.9567374" lon="12.7304988"><ele>13.0</ele><time>2026-04-26T07:21:59.411Z</time></trkpt><trkpt lat="43.9568006" lon="12.7304396"><ele>12.999999999999998</ele><time>2026-04-26T07:22:00.41Z</time></trkpt><trkpt lat="43.9568789" lon="12.7303594"><ele>13.0</ele><time>2026-04-26T07:22:02.412Z</time></trkpt><trkpt lat="43.9569362" lon="12.7303089"><ele>13.0</ele><time>2026-04-26T07:22:05.415Z</time></trkpt><trkpt lat="43.9570013" lon="12.7302554"><ele>13.0</ele><time>2026-04-26T07:22:10.412Z</time></trkpt><trkpt lat="43.9570821" lon="12.7301994"><ele>13.0</ele><time>2026-04-26T07:22:12.41Z</time></trkpt><trkpt lat="43.9572131" lon="12.7301375"><ele>13.0</ele><time>2026-04-26T07:22:14.413Z</time></trkpt><trkpt lat="43.9572401" lon="12.729976"><ele>13.0</ele><time>2026-04-26T07:22:16.415Z</time></trkpt><trkpt lat="43.9571421" lon="12.7298618"><ele>13.4</ele><time>2026-04-26T07:22:18.413Z</time></trkpt><trkpt lat="43.9570811" lon="12.7298005"><ele>13.8</ele><time>2026-04-26T07:22:19.42Z</time></trkpt><trkpt lat="43.9570196" lon="12.7296793"><ele>14.2</ele><time>2026-04-26T07:22:20.411Z</time></trkpt><trkpt lat="43.9569469" lon="12.7295487"><ele>14.6</ele><time>2026-04-26T07:22:21.41Z</time></trkpt><trkpt lat="43.9568814" lon="12.7294131"><ele>15.0</ele><time>2026-04-26T07:22:22.412Z</time></trkpt><trkpt lat="43.9568109" lon="12.7292768"><ele>15.0</ele><time>2026-04-26T07:22:23.413Z</time></trkpt><trkpt lat="43.9567393" lon="12.7291451"><ele>15.0</ele><time>2026-04-26T07:22:24.415Z</time></trkpt><trkpt lat="43.9566629" lon="12.7290101"><ele>15.0</ele><time>2026-04-26T07:22:25.418Z</time></trkpt><trkpt lat="43.9565893" lon="12.7288758"><ele>15.0</ele><time>2026-04-26T07:22:26.414Z</time></trkpt><trkpt lat="43.9565151" lon="12.7287487"><ele>15.0</ele><time>2026-04-26T07:22:27.415Z</time></trkpt><trkpt lat="43.9564365" lon="12.7286253"><ele>15.0</ele><time>2026-04-26T07:22:28.413Z</time></trkpt><trkpt lat="43.9563521" lon="12.7284864"><ele>15.0</ele><time>2026-04-26T07:22:29.411Z</time></trkpt><trkpt lat="43.9562578" lon="12.7283445"><ele>15.0</ele><time>2026-04-26T07:22:30.411Z</time></trkpt><trkpt lat="43.9561583" lon="12.728204"><ele>15.0</ele><time>2026-04-26T07:22:31.41Z</time></trkpt><trkpt lat="43.9560557" lon="12.7280629"><ele>15.0</ele><time>2026-04-26T07:22:32.417Z</time></trkpt><trkpt lat="43.9559545" lon="12.7279147"><ele>15.0</ele><time>2026-04-26T07:22:33.419Z</time></trkpt><trkpt lat="43.9557402" lon="12.7276267"><ele>15.333333333333332</ele><time>2026-04-26T07:22:35.416Z</time></trkpt><trkpt lat="43.9556302" lon="12.7274787"><ele>15.666666666666666</ele><time>2026-04-26T07:22:36.42Z</time></trkpt><trkpt lat="43.955514" lon="12.7273327"><ele>16.0</ele><time>2026-04-26T07:22:37.417Z</time></trkpt><trkpt lat="43.9553933" lon="12.7271811"><ele>16.0</ele><time>2026-04-26T07:22:38.412Z</time></trkpt><trkpt lat="43.9552702" lon="12.7270324"><ele>16.0</ele><time>2026-04-26T07:22:39.411Z</time></trkpt><trkpt lat="43.9551449" lon="12.7268967"><ele>16.0</ele><time>2026-04-26T07:22:40.413Z</time></trkpt><trkpt lat="43.955018" lon="12.7267727"><ele>16.0</ele><time>2026-04-26T07:22:41.412Z</time></trkpt><trkpt lat="43.9548906" lon="12.7266666"><ele>16.0</ele><time>2026-04-26T07:22:42.414Z</time></trkpt><trkpt lat="43.9547673" lon="12.7265821"><ele>16.0</ele><time>2026-04-26T07:22:43.416Z</time></trkpt><trkpt lat="43.9546519" lon="12.7265022"><ele>16.0</ele><time>2026-04-26T07:22:44.417Z</time></trkpt><trkpt lat="43.9545525" lon="12.7264227"><ele>16.0</ele><time>2026-04-26T07:22:45.417Z</time></trkpt><trkpt lat="43.9544599" lon="12.726357"><ele>16.0</ele><time>2026-04-26T07:22:46.412Z</time></trkpt><trkpt lat="43.9543873" lon="12.7262582"><ele>16.0</ele><time>2026-04-26T07:22:47.413Z</time></trkpt><trkpt lat="43.9543515" lon="12.7261336"><ele>16.0</ele><time>2026-04-26T07:22:48.414Z</time></trkpt><trkpt lat="43.9543463" lon="12.7260066"><ele>16.0</ele><time>2026-04-26T07:22:49.41Z</time></trkpt><trkpt lat="43.9543314" lon="12.7258895"><ele>15.8</ele><time>2026-04-26T07:22:50.413Z</time></trkpt><trkpt lat="43.954279" lon="12.7257972"><ele>15.600000000000001</ele><time>2026-04-26T07:22:51.412Z</time></trkpt><trkpt lat="43.954198" lon="12.725749"><ele>15.4</ele><time>2026-04-26T07:22:52.415Z</time></trkpt><trkpt lat="43.9541041" lon="12.7257566"><ele>15.2</ele><time>2026-04-26T07:22:53.413Z</time></trkpt><trkpt lat="43.9540034" lon="12.7258006"><ele>15.0</ele><time>2026-04-26T07:22:54.42Z</time></trkpt><trkpt lat="43.9537718" lon="12.7257829"><ele>15.75</ele><time>2026-04-26T07:22:56.419Z</time></trkpt><trkpt lat="43.9536534" lon="12.7257418"><ele>16.5</ele><time>2026-04-26T07:22:57.414Z</time></trkpt><trkpt lat="43.9535336" lon="12.725693"><ele>17.25</ele><time>2026-04-26T07:22:58.413Z</time></trkpt><trkpt lat="43.9534079" lon="12.7256394"><ele>18.0</ele><time>2026-04-26T07:22:59.412Z</time></trkpt><trkpt lat="43.9532786" lon="12.7255889"><ele>18.5</ele><time>2026-04-26T07:23:00.411Z</time></trkpt><trkpt lat="43.9531585" lon="12.7255325"><ele>19.0</ele><time>2026-04-26T07:23:01.413Z</time></trkpt><trkpt lat="43.9530437" lon="12.7254843"><ele>19.5</ele><time>2026-04-26T07:23:02.408Z</time></trkpt><trkpt lat="43.9529356" lon="12.7254421"><ele>20.0</ele><time>2026-04-26T07:23:03.418Z</time></trkpt><trkpt lat="43.9528344" lon="12.7254006"><ele>20.0</ele><time>2026-04-26T07:23:04.412Z</time></trkpt><trkpt lat="43.952739" lon="12.7253618"><ele>20.0</ele><time>2026-04-26T07:23:05.417Z</time></trkpt><trkpt lat="43.9526462" lon="12.7253278"><ele>20.0</ele><time>2026-04-26T07:23:06.411Z</time></trkpt><trkpt lat="43.9525506" lon="12.7252915"><ele>20.0</ele><time>2026-04-26T07:23:07.413Z</time></trkpt><trkpt lat="43.9524507" lon="12.7252512"><ele>20.0</ele><time>2026-04-26T07:23:08.414Z</time></trkpt><trkpt lat="43.9523456" lon="12.7252139"><ele>19.5</ele><time>2026-04-26T07:23:09.415Z</time></trkpt><trkpt lat="43.9522362" lon="12.7251734"><ele>19.0</ele><time>2026-04-26T07:23:10.412Z</time></trkpt><trkpt lat="43.9521203" lon="12.7251298"><ele>18.5</ele><time>2026-04-26T07:23:11.411Z</time></trkpt><trkpt lat="43.9520053" lon="12.7250802"><ele>18.0</ele><time>2026-04-26T07:23:12.411Z</time></trkpt><trkpt lat="43.9518899" lon="12.725025"><ele>18.0</ele><time>2026-04-26T07:23:13.415Z</time></trkpt><trkpt lat="43.951768" lon="12.7249737"><ele>18.0</ele><time>2026-04-26T07:23:14.411Z</time></trkpt><trkpt lat="43.9516449" lon="12.7249205"><ele>18.0</ele><time>2026-04-26T07:23:15.412Z</time></trkpt><trkpt lat="43.9514074" lon="12.7248209"><ele>18.6</ele><time>2026-04-26T07:23:17.411Z</time></trkpt><trkpt lat="43.9512988" lon="12.7247728"><ele>19.200000000000003</ele><time>2026-04-26T07:23:18.42Z</time></trkpt><trkpt lat="43.9511979" lon="12.7247318"><ele>19.8</ele><time>2026-04-26T07:23:19.412Z</time></trkpt><trkpt lat="43.9511083" lon="12.7246974"><ele>20.400000000000002</ele><time>2026-04-26T07:23:20.416Z</time></trkpt><trkpt lat="43.951032" lon="12.7246659"><ele>21.0</ele><time>2026-04-26T07:23:21.41Z</time></trkpt><trkpt lat="43.9509522" lon="12.7246349"><ele>21.0</ele><time>2026-04-26T07:23:22.408Z</time></trkpt><trkpt lat="43.9508774" lon="12.7246095"><ele>21.0</ele><time>2026-04-26T07:23:23.41Z</time></trkpt><trkpt lat="43.9508152" lon="12.724587"><ele>21.0</ele><time>2026-04-26T07:23:24.414Z</time></trkpt><trkpt lat="43.9507076" lon="12.7245398"><ele>21.0</ele><time>2026-04-26T07:23:26.412Z</time></trkpt><trkpt lat="43.950614" lon="12.7244735"><ele>21.0</ele><time>2026-04-26T07:23:28.415Z</time></trkpt><trkpt lat="43.9505333" lon="12.7243394"><ele>20.5</ele><time>2026-04-26T07:23:30.418Z</time></trkpt><trkpt lat="43.9504921" lon="12.7242552"><ele>20.0</ele><time>2026-04-26T07:23:31.411Z</time></trkpt><trkpt lat="43.9504352" lon="12.7241883"><ele>19.5</ele><time>2026-04-26T07:23:32.414Z</time></trkpt><trkpt lat="43.9503626" lon="12.7241365"><ele>19.0</ele><time>2026-04-26T07:23:33.41Z</time></trkpt><trkpt lat="43.9502829" lon="12.7241101"><ele>18.5</ele><time>2026-04-26T07:23:34.412Z</time></trkpt><trkpt lat="43.9502026" lon="12.7241039"><ele>18.0</ele><time>2026-04-26T07:23:35.41Z</time></trkpt><trkpt lat="43.9501179" lon="12.7240889"><ele>18.5</ele><time>2026-04-26T07:23:36.412Z</time></trkpt><trkpt lat="43.9499536" lon="12.7239492"><ele>19.0</ele><time>2026-04-26T07:23:38.416Z</time></trkpt><trkpt lat="43.9498693" lon="12.7238565"><ele>19.5</ele><time>2026-04-26T07:23:39.415Z</time></trkpt><trkpt lat="43.9497779" lon="12.7237493"><ele>20.0</ele><time>2026-04-26T07:23:40.415Z</time></trkpt><trkpt lat="43.9496836" lon="12.7236367"><ele>19.75</ele><time>2026-04-26T07:23:41.408Z</time></trkpt><trkpt lat="43.9495845" lon="12.7235142"><ele>19.5</ele><time>2026-04-26T07:23:42.409Z</time></trkpt><trkpt lat="43.9494874" lon="12.7233902"><ele>19.25</ele><time>2026-04-26T07:23:43.411Z</time></trkpt><trkpt lat="43.949384" lon="12.7232591"><ele>19.0</ele><time>2026-04-26T07:23:44.413Z</time></trkpt><trkpt lat="43.9492742" lon="12.7231246"><ele>19.25</ele><time>2026-04-26T07:23:45.413Z</time></trkpt><trkpt lat="43.9491642" lon="12.7229898"><ele>19.5</ele><time>2026-04-26T07:23:46.414Z</time></trkpt><trkpt lat="43.9490552" lon="12.7228611"><ele>19.75</ele><time>2026-04-26T07:23:47.413Z</time></trkpt><trkpt lat="43.9489503" lon="12.7227259"><ele>20.0</ele><time>2026-04-26T07:23:48.417Z</time></trkpt><trkpt lat="43.9488425" lon="12.7225919"><ele>20.0</ele><time>2026-04-26T07:23:49.412Z</time></trkpt><trkpt lat="43.9487357" lon="12.7224569"><ele>20.0</ele><time>2026-04-26T07:23:50.417Z</time></trkpt><trkpt lat="43.9486249" lon="12.7223284"><ele>20.0</ele><time>2026-04-26T07:23:51.416Z</time></trkpt><trkpt lat="43.9485181" lon="12.7221964"><ele>20.0</ele><time>2026-04-26T07:23:52.421Z</time></trkpt><trkpt lat="43.9484117" lon="12.7220709"><ele>20.25</ele><time>2026-04-26T07:23:53.411Z</time></trkpt><trkpt lat="43.9483102" lon="12.7219545"><ele>20.5</ele><time>2026-04-26T07:23:54.412Z</time></trkpt><trkpt lat="43.9482143" lon="12.7218397"><ele>20.75</ele><time>2026-04-26T07:23:55.414Z</time></trkpt><trkpt lat="43.9481276" lon="12.7217325"><ele>21.0</ele><time>2026-04-26T07:23:56.412Z</time></trkpt><trkpt lat="43.9480491" lon="12.7216293"><ele>21.5</ele><time>2026-04-26T07:23:57.413Z</time></trkpt><trkpt lat="43.9479483" lon="12.7213898"><ele>22.0</ele><time>2026-04-26T07:23:59.419Z</time></trkpt><trkpt lat="43.9478956" lon="12.7212768"><ele>22.5</ele><time>2026-04-26T07:24:00.416Z</time></trkpt><trkpt lat="43.9478178" lon="12.7211857"><ele>23.0</ele><time>2026-04-26T07:24:01.408Z</time></trkpt><trkpt lat="43.9477228" lon="12.7211261"><ele>23.0</ele><time>2026-04-26T07:24:02.407Z</time></trkpt><trkpt lat="43.9476188" lon="12.7210807"><ele>23.0</ele><time>2026-04-26T07:24:03.41Z</time></trkpt><trkpt lat="43.9475129" lon="12.7210146"><ele>23.0</ele><time>2026-04-26T07:24:04.412Z</time></trkpt><trkpt lat="43.947408" lon="12.7209196"><ele>23.0</ele><time>2026-04-26T07:24:05.423Z</time></trkpt><trkpt lat="43.9472999" lon="12.7208069"><ele>23.25</ele><time>2026-04-26T07:24:06.412Z</time></trkpt><trkpt lat="43.9471972" lon="12.7206993"><ele>23.5</ele><time>2026-04-26T07:24:07.42Z</time></trkpt><trkpt lat="43.9471028" lon="12.7205981"><ele>23.75</ele><time>2026-04-26T07:24:08.413Z</time></trkpt><trkpt lat="43.9470064" lon="12.7205035"><ele>24.0</ele><time>2026-04-26T07:24:09.42Z</time></trkpt><trkpt lat="43.9469105" lon="12.7204132"><ele>24.0</ele><time>2026-04-26T07:24:10.412Z</time></trkpt><trkpt lat="43.9468228" lon="12.7203224"><ele>24.0</ele><time>2026-04-26T07:24:11.42Z</time></trkpt><trkpt lat="43.9467339" lon="12.720235"><ele>24.0</ele><time>2026-04-26T07:24:12.414Z</time></trkpt><trkpt lat="43.94664" lon="12.7201363"><ele>24.0</ele><time>2026-04-26T07:24:13.416Z</time></trkpt><trkpt lat="43.946532" lon="12.7200335"><ele>24.0</ele><time>2026-04-26T07:24:14.417Z</time></trkpt><trkpt lat="43.9464241" lon="12.719927"><ele>24.0</ele><time>2026-04-26T07:24:15.419Z</time></trkpt><trkpt lat="43.9463109" lon="12.7198179"><ele>24.0</ele><time>2026-04-26T07:24:16.411Z</time></trkpt><trkpt lat="43.9461971" lon="12.7197064"><ele>24.0</ele><time>2026-04-26T07:24:17.417Z</time></trkpt><trkpt lat="43.9460853" lon="12.7195968"><ele>24.666666666666664</ele><time>2026-04-26T07:24:18.421Z</time></trkpt><trkpt lat="43.9458663" lon="12.719381"><ele>25.333333333333332</ele><time>2026-04-26T07:24:20.413Z</time></trkpt><trkpt lat="43.9457581" lon="12.7192714"><ele>26.0</ele><time>2026-04-26T07:24:21.414Z</time></trkpt><trkpt lat="43.9456483" lon="12.7191638"><ele>26.0</ele><time>2026-04-26T07:24:22.413Z</time></trkpt><trkpt lat="43.9455394" lon="12.7190539"><ele>26.0</ele><time>2026-04-26T07:24:23.411Z</time></trkpt><trkpt lat="43.9454284" lon="12.7189421"><ele>26.0</ele><time>2026-04-26T07:24:24.415Z</time></trkpt><trkpt lat="43.9453152" lon="12.7188215"><ele>26.0</ele><time>2026-04-26T07:24:25.415Z</time></trkpt><trkpt lat="43.945199" lon="12.7187042"><ele>26.0</ele><time>2026-04-26T07:24:26.412Z</time></trkpt><trkpt lat="43.9450756" lon="12.7185858"><ele>26.0</ele><time>2026-04-26T07:24:27.418Z</time></trkpt><trkpt lat="43.9449522" lon="12.7184666"><ele>26.0</ele><time>2026-04-26T07:24:28.413Z</time></trkpt><trkpt lat="43.9448296" lon="12.7183466"><ele>25.75</ele><time>2026-04-26T07:24:29.414Z</time></trkpt><trkpt lat="43.9447131" lon="12.7182266"><ele>25.5</ele><time>2026-04-26T07:24:30.414Z</time></trkpt><trkpt lat="43.9446116" lon="12.718096"><ele>25.25</ele><time>2026-04-26T07:24:31.409Z</time></trkpt><trkpt lat="43.9445239" lon="12.7179586"><ele>25.0</ele><time>2026-04-26T07:24:32.409Z</time></trkpt><trkpt lat="43.9444463" lon="12.7178119"><ele>25.0</ele><time>2026-04-26T07:24:33.411Z</time></trkpt><trkpt lat="43.9443777" lon="12.7176533"><ele>25.0</ele><time>2026-04-26T07:24:34.413Z</time></trkpt><trkpt lat="43.9443163" lon="12.7175029"><ele>25.0</ele><time>2026-04-26T07:24:35.418Z</time></trkpt><trkpt lat="43.9442442" lon="12.7173735"><ele>25.0</ele><time>2026-04-26T07:24:36.412Z</time></trkpt><trkpt lat="43.944149" lon="12.7172887"><ele>24.5</ele><time>2026-04-26T07:24:37.411Z</time></trkpt><trkpt lat="43.9440489" lon="12.7172332"><ele>24.0</ele><time>2026-04-26T07:24:38.41Z</time></trkpt><trkpt lat="43.9439481" lon="12.7172248"><ele>23.5</ele><time>2026-04-26T07:24:39.417Z</time></trkpt><trkpt lat="43.9437635" lon="12.7173266"><ele>23.0</ele><time>2026-04-26T07:24:41.418Z</time></trkpt><trkpt lat="43.943674" lon="12.7174093"><ele>23.0</ele><time>2026-04-26T07:24:42.414Z</time></trkpt><trkpt lat="43.9435731" lon="12.7174711"><ele>23.0</ele><time>2026-04-26T07:24:43.412Z</time></trkpt><trkpt lat="43.9434607" lon="12.7175003"><ele>23.0</ele><time>2026-04-26T07:24:44.42Z</time></trkpt><trkpt lat="43.9433483" lon="12.7174896"><ele>23.0</ele><time>2026-04-26T07:24:45.41Z</time></trkpt><trkpt lat="43.9432381" lon="12.7174435"><ele>23.25</ele><time>2026-04-26T07:24:46.411Z</time></trkpt><trkpt lat="43.9431301" lon="12.7173769"><ele>23.5</ele><time>2026-04-26T07:24:47.412Z</time></trkpt><trkpt lat="43.9430192" lon="12.7172961"><ele>23.75</ele><time>2026-04-26T07:24:48.415Z</time></trkpt><trkpt lat="43.9429039" lon="12.7172164"><ele>24.0</ele><time>2026-04-26T07:24:49.419Z</time></trkpt><trkpt lat="43.9427911" lon="12.7171223"><ele>24.0</ele><time>2026-04-26T07:24:50.418Z</time></trkpt><trkpt lat="43.9426848" lon="12.7170359"><ele>24.0</ele><time>2026-04-26T07:24:51.41Z</time></trkpt><trkpt lat="43.9425819" lon="12.7169639"><ele>24.0</ele><time>2026-04-26T07:24:52.413Z</time></trkpt><trkpt lat="43.9424864" lon="12.7169"><ele>24.0</ele><time>2026-04-26T07:24:53.411Z</time></trkpt><trkpt lat="43.9423921" lon="12.7168337"><ele>24.75</ele><time>2026-04-26T07:24:54.412Z</time></trkpt><trkpt lat="43.9422958" lon="12.7167584"><ele>25.5</ele><time>2026-04-26T07:24:55.412Z</time></trkpt><trkpt lat="43.9421948" lon="12.7166842"><ele>26.25</ele><time>2026-04-26T07:24:56.412Z</time></trkpt><trkpt lat="43.9420935" lon="12.7166114"><ele>27.0</ele><time>2026-04-26T07:24:57.413Z</time></trkpt><trkpt lat="43.941984" lon="12.7165332"><ele>27.0</ele><time>2026-04-26T07:24:58.413Z</time></trkpt><trkpt lat="43.9418694" lon="12.7164498"><ele>27.0</ele><time>2026-04-26T07:24:59.417Z</time></trkpt><trkpt lat="43.9417541" lon="12.7163582"><ele>27.0</ele><time>2026-04-26T07:25:00.413Z</time></trkpt><trkpt lat="43.941513" lon="12.716186"><ele>27.0</ele><time>2026-04-26T07:25:02.409Z</time></trkpt><trkpt lat="43.9413889" lon="12.7161013"><ele>27.0</ele><time>2026-04-26T07:25:03.409Z</time></trkpt><trkpt lat="43.9412658" lon="12.716013"><ele>27.0</ele><time>2026-04-26T07:25:04.41Z</time></trkpt><trkpt lat="43.9411393" lon="12.7159165"><ele>27.0</ele><time>2026-04-26T07:25:05.413Z</time></trkpt><trkpt lat="43.9410105" lon="12.715825"><ele>27.0</ele><time>2026-04-26T07:25:06.414Z</time></trkpt><trkpt lat="43.9408766" lon="12.7157364"><ele>27.0</ele><time>2026-04-26T07:25:07.411Z</time></trkpt><trkpt lat="43.940745" lon="12.7156366"><ele>27.0</ele><time>2026-04-26T07:25:08.416Z</time></trkpt><trkpt lat="43.940623" lon="12.7155424"><ele>27.0</ele><time>2026-04-26T07:25:09.414Z</time></trkpt><trkpt lat="43.9404983" lon="12.7154286"><ele>27.0</ele><time>2026-04-26T07:25:10.414Z</time></trkpt><trkpt lat="43.9403632" lon="12.715322"><ele>27.0</ele><time>2026-04-26T07:25:11.42Z</time></trkpt><trkpt lat="43.9402506" lon="12.7152062"><ele>27.0</ele><time>2026-04-26T07:25:12.411Z</time></trkpt><trkpt lat="43.9401497" lon="12.7150937"><ele>27.0</ele><time>2026-04-26T07:25:13.41Z</time></trkpt><trkpt lat="43.9400539" lon="12.7149944"><ele>27.25</ele><time>2026-04-26T07:25:14.413Z</time></trkpt><trkpt lat="43.9399673" lon="12.7148968"><ele>27.5</ele><time>2026-04-26T07:25:15.412Z</time></trkpt><trkpt lat="43.939882" lon="12.7148049"><ele>27.75</ele><time>2026-04-26T07:25:16.411Z</time></trkpt><trkpt lat="43.9397946" lon="12.7146909"><ele>28.0</ele><time>2026-04-26T07:25:17.414Z</time></trkpt><trkpt lat="43.9397191" lon="12.7145786"><ele>28.0</ele><time>2026-04-26T07:25:18.416Z</time></trkpt><trkpt lat="43.9396493" lon="12.7144795"><ele>28.0</ele><time>2026-04-26T07:25:19.417Z</time></trkpt><trkpt lat="43.9395823" lon="12.7143975"><ele>28.0</ele><time>2026-04-26T07:25:20.415Z</time></trkpt><trkpt lat="43.9395107" lon="12.7142974"><ele>28.0</ele><time>2026-04-26T07:25:21.411Z</time></trkpt><trkpt lat="43.9393783" lon="12.7141144"><ele>28.166666666666668</ele><time>2026-04-26T07:25:23.411Z</time></trkpt><trkpt lat="43.9393216" lon="12.7140242"><ele>28.333333333333336</ele><time>2026-04-26T07:25:24.41Z</time></trkpt><trkpt lat="43.939262" lon="12.71394"><ele>28.5</ele><time>2026-04-26T07:25:25.411Z</time></trkpt><trkpt lat="43.9392114" lon="12.7138641"><ele>28.666666666666664</ele><time>2026-04-26T07:25:26.411Z</time></trkpt><trkpt lat="43.9391607" lon="12.7137881"><ele>28.833333333333332</ele><time>2026-04-26T07:25:27.411Z</time></trkpt><trkpt lat="43.9391154" lon="12.7137222"><ele>29.0</ele><time>2026-04-26T07:25:28.418Z</time></trkpt><trkpt lat="43.9390461" lon="12.7136269"><ele>28.999999999999996</ele><time>2026-04-26T07:25:30.414Z</time></trkpt><trkpt lat="43.9389809" lon="12.7135367"><ele>29.0</ele><time>2026-04-26T07:25:32.412Z</time></trkpt><trkpt lat="43.9388981" lon="12.713407"><ele>29.0</ele><time>2026-04-26T07:25:34.415Z</time></trkpt><trkpt lat="43.9388525" lon="12.7133442"><ele>29.0</ele><time>2026-04-26T07:25:35.412Z</time></trkpt><trkpt lat="43.9388057" lon="12.7132852"><ele>28.999999999999996</ele><time>2026-04-26T07:25:36.416Z</time></trkpt><trkpt lat="43.9387423" lon="12.7131938"><ele>29.0</ele><time>2026-04-26T07:25:38.412Z</time></trkpt><trkpt lat="43.938681" lon="12.7131102"><ele>29.0</ele><time>2026-04-26T07:25:40.415Z</time></trkpt><trkpt lat="43.9386252" lon="12.7130354"><ele>29.0</ele><time>2026-04-26T07:25:42.411Z</time></trkpt><trkpt lat="43.9384544" lon="12.7130552"><ele>29.0</ele><time>2026-04-26T07:25:46.41Z</time></trkpt><trkpt lat="43.938378" lon="12.7131302"><ele>29.0</ele><time>2026-04-26T07:25:48.419Z</time></trkpt><trkpt lat="43.9382823" lon="12.7132211"><ele>29.4</ele><time>2026-04-26T07:25:50.41Z</time></trkpt><trkpt lat="43.9381816" lon="12.7133133"><ele>29.799999999999997</ele><time>2026-04-26T07:25:52.413Z</time></trkpt><trkpt lat="43.9380524" lon="12.7133192"><ele>30.200000000000003</ele><time>2026-04-26T07:25:54.417Z</time></trkpt><trkpt lat="43.9379865" lon="12.7132731"><ele>30.6</ele><time>2026-04-26T07:25:55.415Z</time></trkpt><trkpt lat="43.9379204" lon="12.7132329"><ele>31.0</ele><time>2026-04-26T07:25:56.421Z</time></trkpt><trkpt lat="43.93781" lon="12.7133141"><ele>31.0</ele><time>2026-04-26T07:25:58.415Z</time></trkpt><trkpt lat="43.9377617" lon="12.7134287"><ele>31.0</ele><time>2026-04-26T07:25:59.411Z</time></trkpt><trkpt lat="43.9376867" lon="12.7135379"><ele>31.0</ele><time>2026-04-26T07:26:00.407Z</time></trkpt><trkpt lat="43.9375797" lon="12.7136475"><ele>31.0</ele><time>2026-04-26T07:26:01.406Z</time></trkpt><trkpt lat="43.9374812" lon="12.7137663"><ele>30.666666666666668</ele><time>2026-04-26T07:26:02.416Z</time></trkpt><trkpt lat="43.9373969" lon="12.713881"><ele>30.333333333333336</ele><time>2026-04-26T07:26:03.411Z</time></trkpt><trkpt lat="43.9372223" lon="12.7140818"><ele>30.0</ele><time>2026-04-26T07:26:05.413Z</time></trkpt><trkpt lat="43.9371299" lon="12.7141829"><ele>30.0</ele><time>2026-04-26T07:26:06.414Z</time></trkpt><trkpt lat="43.9370393" lon="12.7142962"><ele>30.0</ele><time>2026-04-26T07:26:07.415Z</time></trkpt><trkpt lat="43.9369444" lon="12.7144102"><ele>30.0</ele><time>2026-04-26T07:26:08.415Z</time></trkpt><trkpt lat="43.9368462" lon="12.7145294"><ele>30.0</ele><time>2026-04-26T07:26:09.419Z</time></trkpt><trkpt lat="43.9367447" lon="12.7146511"><ele>30.0</ele><time>2026-04-26T07:26:10.411Z</time></trkpt><trkpt lat="43.9366406" lon="12.7147732"><ele>30.0</ele><time>2026-04-26T07:26:11.413Z</time></trkpt><trkpt lat="43.9365341" lon="12.7149014"><ele>30.0</ele><time>2026-04-26T07:26:12.413Z</time></trkpt><trkpt lat="43.9364229" lon="12.7150317"><ele>30.0</ele><time>2026-04-26T07:26:13.411Z</time></trkpt><trkpt lat="43.93631" lon="12.7151707"><ele>30.0</ele><time>2026-04-26T07:26:14.412Z</time></trkpt><trkpt lat="43.9361938" lon="12.7153142"><ele>30.0</ele><time>2026-04-26T07:26:15.413Z</time></trkpt><trkpt lat="43.9360764" lon="12.7154558"><ele>30.0</ele><time>2026-04-26T07:26:16.414Z</time></trkpt><trkpt lat="43.9359632" lon="12.7155964"><ele>30.25</ele><time>2026-04-26T07:26:17.416Z</time></trkpt><trkpt lat="43.9358565" lon="12.7157349"><ele>30.5</ele><time>2026-04-26T07:26:18.417Z</time></trkpt><trkpt lat="43.9357479" lon="12.7158782"><ele>30.75</ele><time>2026-04-26T07:26:19.407Z</time></trkpt><trkpt lat="43.9356418" lon="12.7160133"><ele>31.0</ele><time>2026-04-26T07:26:20.411Z</time></trkpt><trkpt lat="43.9355372" lon="12.7161516"><ele>31.0</ele><time>2026-04-26T07:26:21.41Z</time></trkpt><trkpt lat="43.9354333" lon="12.7162922"><ele>31.0</ele><time>2026-04-26T07:26:22.412Z</time></trkpt><trkpt lat="43.9353226" lon="12.716436"><ele>31.0</ele><time>2026-04-26T07:26:23.414Z</time></trkpt><trkpt lat="43.9352154" lon="12.7165751"><ele>31.0</ele><time>2026-04-26T07:26:24.413Z</time></trkpt><trkpt lat="43.9349976" lon="12.7168708"><ele>30.666666666666668</ele><time>2026-04-26T07:26:26.42Z</time></trkpt><trkpt lat="43.9348877" lon="12.7170316"><ele>30.333333333333336</ele><time>2026-04-26T07:26:27.411Z</time></trkpt><trkpt lat="43.9347757" lon="12.7171982"><ele>30.0</ele><time>2026-04-26T07:26:28.414Z</time></trkpt><trkpt lat="43.9346651" lon="12.7173768"><ele>30.0</ele><time>2026-04-26T07:26:29.412Z</time></trkpt><trkpt lat="43.934554" lon="12.7175516"><ele>30.0</ele><time>2026-04-26T07:26:30.41Z</time></trkpt><trkpt lat="43.934443" lon="12.717727"><ele>30.0</ele><time>2026-04-26T07:26:31.415Z</time></trkpt><trkpt lat="43.9343348" lon="12.7178959"><ele>29.666666666666664</ele><time>2026-04-26T07:26:32.415Z</time></trkpt><trkpt lat="43.9342242" lon="12.718072"><ele>29.333333333333332</ele><time>2026-04-26T07:26:33.408Z</time></trkpt><trkpt lat="43.9341161" lon="12.7182439"><ele>29.0</ele><time>2026-04-26T07:26:34.411Z</time></trkpt><trkpt lat="43.9340061" lon="12.718422"><ele>28.666666666666664</ele><time>2026-04-26T07:26:35.412Z</time></trkpt><trkpt lat="43.9338886" lon="12.7186149"><ele>28.333333333333336</ele><time>2026-04-26T07:26:36.427Z</time></trkpt><trkpt lat="43.9337637" lon="12.7188137"><ele>28.0</ele><time>2026-04-26T07:26:37.411Z</time></trkpt><trkpt lat="43.9336363" lon="12.7190063"><ele>28.0</ele><time>2026-04-26T07:26:38.412Z</time></trkpt><trkpt lat="43.9335141" lon="12.7191812"><ele>28.0</ele><time>2026-04-26T07:26:39.41Z</time></trkpt><trkpt lat="43.9333982" lon="12.7193549"><ele>28.0</ele><time>2026-04-26T07:26:40.411Z</time></trkpt><trkpt lat="43.9332787" lon="12.7195166"><ele>28.0</ele><time>2026-04-26T07:26:41.411Z</time></trkpt><trkpt lat="43.9331531" lon="12.7196705"><ele>28.0</ele><time>2026-04-26T07:26:42.414Z</time></trkpt><trkpt lat="43.9330228" lon="12.7198074"><ele>28.0</ele><time>2026-04-26T07:26:43.41Z</time></trkpt><trkpt lat="43.9328808" lon="12.7199287"><ele>28.0</ele><time>2026-04-26T07:26:44.411Z</time></trkpt><trkpt lat="43.9327359" lon="12.7200324"><ele>28.0</ele><time>2026-04-26T07:26:45.409Z</time></trkpt><trkpt lat="43.9324399" lon="12.7201983"><ele>27.333333333333336</ele><time>2026-04-26T07:26:47.415Z</time></trkpt><trkpt lat="43.9322858" lon="12.7202633"><ele>26.666666666666664</ele><time>2026-04-26T07:26:48.419Z</time></trkpt><trkpt lat="43.9321287" lon="12.7203147"><ele>26.0</ele><time>2026-04-26T07:26:49.409Z</time></trkpt><trkpt lat="43.9319653" lon="12.7203592"><ele>26.0</ele><time>2026-04-26T07:26:50.411Z</time></trkpt><trkpt lat="43.9317994" lon="12.7204104"><ele>26.0</ele><time>2026-04-26T07:26:51.407Z</time></trkpt><trkpt lat="43.9316245" lon="12.7204641"><ele>26.0</ele><time>2026-04-26T07:26:52.422Z</time></trkpt><trkpt lat="43.9314313" lon="12.720524"><ele>25.666666666666664</ele><time>2026-04-26T07:26:53.419Z</time></trkpt><trkpt lat="43.9312241" lon="12.7205833"><ele>25.333333333333336</ele><time>2026-04-26T07:26:54.418Z</time></trkpt><trkpt lat="43.9310226" lon="12.7206416"><ele>25.0</ele><time>2026-04-26T07:26:55.414Z</time></trkpt><trkpt lat="43.9308297" lon="12.7206905"><ele>26.0</ele><time>2026-04-26T07:26:56.414Z</time></trkpt><trkpt lat="43.9306486" lon="12.7207358"><ele>27.0</ele><time>2026-04-26T07:26:57.413Z</time></trkpt><trkpt lat="43.9304759" lon="12.72077"><ele>28.0</ele><time>2026-04-26T07:26:58.412Z</time></trkpt><trkpt lat="43.9303057" lon="12.7208072"><ele>28.0</ele><time>2026-04-26T07:26:59.415Z</time></trkpt><trkpt lat="43.9301361" lon="12.7208396"><ele>28.0</ele><time>2026-04-26T07:27:00.412Z</time></trkpt><trkpt lat="43.9299632" lon="12.7208714"><ele>28.0</ele><time>2026-04-26T07:27:01.412Z</time></trkpt><trkpt lat="43.9297895" lon="12.7208984"><ele>28.333333333333336</ele><time>2026-04-26T07:27:02.418Z</time></trkpt><trkpt lat="43.929616" lon="12.7209327"><ele>28.666666666666664</ele><time>2026-04-26T07:27:03.412Z</time></trkpt><trkpt lat="43.9294402" lon="12.7209673"><ele>29.0</ele><time>2026-04-26T07:27:04.414Z</time></trkpt><trkpt lat="43.9292652" lon="12.7210022"><ele>29.5</ele><time>2026-04-26T07:27:05.41Z</time></trkpt><trkpt lat="43.9290901" lon="12.7210418"><ele>30.0</ele><time>2026-04-26T07:27:06.411Z</time></trkpt><trkpt lat="43.9287381" lon="12.7211232"><ele>30.0</ele><time>2026-04-26T07:27:08.411Z</time></trkpt><trkpt lat="43.9285735" lon="12.7211678"><ele>30.0</ele><time>2026-04-26T07:27:09.411Z</time></trkpt><trkpt lat="43.9284171" lon="12.7212213"><ele>30.0</ele><time>2026-04-26T07:27:10.411Z</time></trkpt><trkpt lat="43.9282649" lon="12.7212726"><ele>30.0</ele><time>2026-04-26T07:27:11.416Z</time></trkpt><trkpt lat="43.9281264" lon="12.7213288"><ele>30.0</ele><time>2026-04-26T07:27:12.416Z</time></trkpt><trkpt lat="43.927998" lon="12.7213901"><ele>30.0</ele><time>2026-04-26T07:27:13.411Z</time></trkpt><trkpt lat="43.9278783" lon="12.7214481"><ele>30.0</ele><time>2026-04-26T07:27:14.416Z</time></trkpt><trkpt lat="43.9277725" lon="12.7215016"><ele>30.0</ele><time>2026-04-26T07:27:15.411Z</time></trkpt><trkpt lat="43.9276732" lon="12.7215549"><ele>30.0</ele><time>2026-04-26T07:27:16.411Z</time></trkpt><trkpt lat="43.927576" lon="12.721612"><ele>30.0</ele><time>2026-04-26T07:27:17.412Z</time></trkpt><trkpt lat="43.9274833" lon="12.7216653"><ele>30.0</ele><time>2026-04-26T07:27:18.41Z</time></trkpt><trkpt lat="43.9273838" lon="12.7217201"><ele>30.0</ele><time>2026-04-26T07:27:19.41Z</time></trkpt><trkpt lat="43.9272816" lon="12.7217787"><ele>30.0</ele><time>2026-04-26T07:27:20.409Z</time></trkpt><trkpt lat="43.9271776" lon="12.7218346"><ele>30.0</ele><time>2026-04-26T07:27:21.408Z</time></trkpt><trkpt lat="43.9270692" lon="12.7218889"><ele>30.0</ele><time>2026-04-26T07:27:22.41Z</time></trkpt><trkpt lat="43.9269581" lon="12.721944"><ele>30.0</ele><time>2026-04-26T07:27:23.413Z</time></trkpt><trkpt lat="43.9268476" lon="12.7220032"><ele>30.0</ele><time>2026-04-26T07:27:24.41Z</time></trkpt><trkpt lat="43.9267343" lon="12.7220643"><ele>30.0</ele><time>2026-04-26T07:27:25.41Z</time></trkpt><trkpt lat="43.9266162" lon="12.7221252"><ele>30.0</ele><time>2026-04-26T07:27:26.411Z</time></trkpt><trkpt lat="43.9265007" lon="12.7221878"><ele>30.0</ele><time>2026-04-26T07:27:27.415Z</time></trkpt><trkpt lat="43.9262777" lon="12.7223089"><ele>29.5</ele><time>2026-04-26T07:27:29.412Z</time></trkpt><trkpt lat="43.9261679" lon="12.7223653"><ele>29.0</ele><time>2026-04-26T07:27:30.414Z</time></trkpt><trkpt lat="43.9260649" lon="12.7224171"><ele>28.5</ele><time>2026-04-26T07:27:31.41Z</time></trkpt><trkpt lat="43.9259601" lon="12.7224717"><ele>28.0</ele><time>2026-04-26T07:27:32.412Z</time></trkpt><trkpt lat="43.9258534" lon="12.7225258"><ele>28.0</ele><time>2026-04-26T07:27:33.413Z</time></trkpt><trkpt lat="43.9257448" lon="12.7225824"><ele>28.0</ele><time>2026-04-26T07:27:34.412Z</time></trkpt><trkpt lat="43.9256347" lon="12.7226442"><ele>28.0</ele><time>2026-04-26T07:27:35.413Z</time></trkpt><trkpt lat="43.9255238" lon="12.7227004"><ele>28.0</ele><time>2026-04-26T07:27:36.41Z</time></trkpt><trkpt lat="43.9254104" lon="12.7227573"><ele>28.25</ele><time>2026-04-26T07:27:37.412Z</time></trkpt><trkpt lat="43.9252921" lon="12.7228119"><ele>28.5</ele><time>2026-04-26T07:27:38.412Z</time></trkpt><trkpt lat="43.9251741" lon="12.7228823"><ele>28.75</ele><time>2026-04-26T07:27:39.414Z</time></trkpt><trkpt lat="43.925044" lon="12.7229534"><ele>29.0</ele><time>2026-04-26T07:27:40.413Z</time></trkpt><trkpt lat="43.9249034" lon="12.7230284"><ele>29.0</ele><time>2026-04-26T07:27:41.41Z</time></trkpt><trkpt lat="43.9247558" lon="12.7231085"><ele>29.0</ele><time>2026-04-26T07:27:42.41Z</time></trkpt><trkpt lat="43.9245986" lon="12.7231795"><ele>29.0</ele><time>2026-04-26T07:27:43.416Z</time></trkpt><trkpt lat="43.9244405" lon="12.7232544"><ele>29.0</ele><time>2026-04-26T07:27:44.412Z</time></trkpt><trkpt lat="43.9242891" lon="12.7233254"><ele>29.0</ele><time>2026-04-26T07:27:45.419Z</time></trkpt><trkpt lat="43.924137" lon="12.7234008"><ele>29.0</ele><time>2026-04-26T07:27:46.41Z</time></trkpt><trkpt lat="43.9239852" lon="12.7234711"><ele>30.5</ele><time>2026-04-26T07:27:47.415Z</time></trkpt><trkpt lat="43.9238402" lon="12.7235393"><ele>32.0</ele><time>2026-04-26T07:27:48.413Z</time></trkpt><trkpt lat="43.9235564" lon="12.7236724"><ele>32.0</ele><time>2026-04-26T07:27:50.413Z</time></trkpt><trkpt lat="43.9234174" lon="12.7237378"><ele>32.0</ele><time>2026-04-26T07:27:51.409Z</time></trkpt><trkpt lat="43.9232815" lon="12.7237966"><ele>32.0</ele><time>2026-04-26T07:27:52.412Z</time></trkpt><trkpt lat="43.9231528" lon="12.7238557"><ele>32.0</ele><time>2026-04-26T07:27:53.411Z</time></trkpt><trkpt lat="43.9230258" lon="12.7239096"><ele>32.25</ele><time>2026-04-26T07:27:54.422Z</time></trkpt><trkpt lat="43.9228956" lon="12.7239609"><ele>32.5</ele><time>2026-04-26T07:27:55.41Z</time></trkpt><trkpt lat="43.9227565" lon="12.7239809"><ele>32.75</ele><time>2026-04-26T07:27:56.414Z</time></trkpt><trkpt lat="43.92262" lon="12.7239636"><ele>33.0</ele><time>2026-04-26T07:27:57.409Z</time></trkpt><trkpt lat="43.9224865" lon="12.7239279"><ele>33.666666666666664</ele><time>2026-04-26T07:27:58.417Z</time></trkpt><trkpt lat="43.9223529" lon="12.7238837"><ele>34.33333333333333</ele><time>2026-04-26T07:27:59.412Z</time></trkpt><trkpt lat="43.9222089" lon="12.7238143"><ele>35.0</ele><time>2026-04-26T07:28:00.41Z</time></trkpt><trkpt lat="43.9220528" lon="12.7237263"><ele>35.0</ele><time>2026-04-26T07:28:01.414Z</time></trkpt><trkpt lat="43.9218914" lon="12.7236398"><ele>35.0</ele><time>2026-04-26T07:28:02.411Z</time></trkpt><trkpt lat="43.9217312" lon="12.7235713"><ele>35.0</ele><time>2026-04-26T07:28:03.413Z</time></trkpt><trkpt lat="43.921579" lon="12.7234933"><ele>37.0</ele><time>2026-04-26T07:28:04.414Z</time></trkpt><trkpt lat="43.9214361" lon="12.7233912"><ele>39.0</ele><time>2026-04-26T07:28:05.409Z</time></trkpt><trkpt lat="43.9212984" lon="12.7232718"><ele>41.0</ele><time>2026-04-26T07:28:06.41Z</time></trkpt><trkpt lat="43.9211648" lon="12.723142"><ele>41.0</ele><time>2026-04-26T07:28:07.412Z</time></trkpt><trkpt lat="43.9210209" lon="12.7230073"><ele>41.0</ele><time>2026-04-26T07:28:08.411Z</time></trkpt><trkpt lat="43.9208593" lon="12.7228821"><ele>41.0</ele><time>2026-04-26T07:28:09.411Z</time></trkpt><trkpt lat="43.9204978" lon="12.7227258"><ele>41.666666666666664</ele><time>2026-04-26T07:28:11.41Z</time></trkpt><trkpt lat="43.9203107" lon="12.7226887"><ele>42.333333333333336</ele><time>2026-04-26T07:28:12.412Z</time></trkpt><trkpt lat="43.9201281" lon="12.7226792"><ele>43.0</ele><time>2026-04-26T07:28:13.41Z</time></trkpt><trkpt lat="43.9199504" lon="12.72266"><ele>47.333333333333336</ele><time>2026-04-26T07:28:14.414Z</time></trkpt><trkpt lat="43.9197815" lon="12.722594"><ele>51.66666666666667</ele><time>2026-04-26T07:28:15.417Z</time></trkpt><trkpt lat="43.9196115" lon="12.7224888"><ele>56.0</ele><time>2026-04-26T07:28:16.419Z</time></trkpt><trkpt lat="43.9194389" lon="12.7223553"><ele>56.0</ele><time>2026-04-26T07:28:17.418Z</time></trkpt><trkpt lat="43.9192615" lon="12.722212"><ele>56.0</ele><time>2026-04-26T07:28:18.414Z</time></trkpt><trkpt lat="43.9190713" lon="12.7220652"><ele>56.0</ele><time>2026-04-26T07:28:19.413Z</time></trkpt><trkpt lat="43.9188686" lon="12.7219198"><ele>57.5</ele><time>2026-04-26T07:28:20.409Z</time></trkpt><trkpt lat="43.9186598" lon="12.721779"><ele>59.0</ele><time>2026-04-26T07:28:21.41Z</time></trkpt><trkpt lat="43.9184519" lon="12.7216502"><ele>61.66666666666667</ele><time>2026-04-26T07:28:22.413Z</time></trkpt><trkpt lat="43.9182568" lon="12.721544"><ele>64.33333333333333</ele><time>2026-04-26T07:28:23.414Z</time></trkpt><trkpt lat="43.918069" lon="12.7214503"><ele>67.0</ele><time>2026-04-26T07:28:24.413Z</time></trkpt><trkpt lat="43.917881" lon="12.7213366"><ele>67.0</ele><time>2026-04-26T07:28:25.418Z</time></trkpt><trkpt lat="43.9177019" lon="12.7212047"><ele>67.0</ele><time>2026-04-26T07:28:26.41Z</time></trkpt><trkpt lat="43.9175317" lon="12.7210755"><ele>67.0</ele><time>2026-04-26T07:28:27.415Z</time></trkpt><trkpt lat="43.9173737" lon="12.7209526"><ele>70.33333333333333</ele><time>2026-04-26T07:28:28.418Z</time></trkpt><trkpt lat="43.9172267" lon="12.7208233"><ele>73.66666666666667</ele><time>2026-04-26T07:28:29.409Z</time></trkpt><trkpt lat="43.9170838" lon="12.7206938"><ele>77.0</ele><time>2026-04-26T07:28:30.411Z</time></trkpt><trkpt lat="43.9168017" lon="12.7204414"><ele>78.66666666666667</ele><time>2026-04-26T07:28:32.41Z</time></trkpt><trkpt lat="43.9166684" lon="12.7203092"><ele>80.33333333333333</ele><time>2026-04-26T07:28:33.412Z</time></trkpt><trkpt lat="43.9165368" lon="12.7201772"><ele>82.0</ele><time>2026-04-26T07:28:34.412Z</time></trkpt><trkpt lat="43.9164036" lon="12.720042"><ele>83.66666666666666</ele><time>2026-04-26T07:28:35.414Z</time></trkpt><trkpt lat="43.9162828" lon="12.7198816"><ele>85.33333333333333</ele><time>2026-04-26T07:28:36.411Z</time></trkpt><trkpt lat="43.9161715" lon="12.7196914"><ele>87.0</ele><time>2026-04-26T07:28:37.421Z</time></trkpt><trkpt lat="43.9160736" lon="12.7194824"><ele>87.0</ele><time>2026-04-26T07:28:38.417Z</time></trkpt><trkpt lat="43.9159723" lon="12.7192706"><ele>87.0</ele><time>2026-04-26T07:28:39.418Z</time></trkpt><trkpt lat="43.9158632" lon="12.719062"><ele>87.0</ele><time>2026-04-26T07:28:40.413Z</time></trkpt><trkpt lat="43.9157531" lon="12.7188502"><ele>87.0</ele><time>2026-04-26T07:28:41.411Z</time></trkpt><trkpt lat="43.915644" lon="12.7186362"><ele>87.0</ele><time>2026-04-26T07:28:42.413Z</time></trkpt><trkpt lat="43.9155335" lon="12.7184224"><ele>87.0</ele><time>2026-04-26T07:28:43.413Z</time></trkpt><trkpt lat="43.9154237" lon="12.7182133"><ele>86.33333333333333</ele><time>2026-04-26T07:28:44.412Z</time></trkpt><trkpt lat="43.9153204" lon="12.7180161"><ele>85.66666666666666</ele><time>2026-04-26T07:28:45.413Z</time></trkpt><trkpt lat="43.9152244" lon="12.7178276"><ele>85.0</ele><time>2026-04-26T07:28:46.411Z</time></trkpt><trkpt lat="43.9151329" lon="12.7176517"><ele>85.5</ele><time>2026-04-26T07:28:47.412Z</time></trkpt><trkpt lat="43.9150428" lon="12.7174884"><ele>86.0</ele><time>2026-04-26T07:28:48.413Z</time></trkpt><trkpt lat="43.9149566" lon="12.7173356"><ele>86.5</ele><time>2026-04-26T07:28:49.412Z</time></trkpt><trkpt lat="43.9148703" lon="12.7172067"><ele>87.0</ele><time>2026-04-26T07:28:50.41Z</time></trkpt><trkpt lat="43.914786" lon="12.7170877"><ele>87.0</ele><time>2026-04-26T07:28:51.408Z</time></trkpt><trkpt lat="43.9146211" lon="12.7168685"><ele>87.0</ele><time>2026-04-26T07:28:53.411Z</time></trkpt><trkpt lat="43.9145404" lon="12.7167691"><ele>87.0</ele><time>2026-04-26T07:28:54.412Z</time></trkpt><trkpt lat="43.9144665" lon="12.7166717"><ele>87.0</ele><time>2026-04-26T07:28:55.41Z</time></trkpt><trkpt lat="43.9143945" lon="12.7165802"><ele>87.0</ele><time>2026-04-26T07:28:56.411Z</time></trkpt><trkpt lat="43.914331" lon="12.7164908"><ele>87.0</ele><time>2026-04-26T07:28:57.412Z</time></trkpt><trkpt lat="43.9142678" lon="12.7164083"><ele>87.0</ele><time>2026-04-26T07:28:58.412Z</time></trkpt><trkpt lat="43.9142089" lon="12.716331"><ele>87.0</ele><time>2026-04-26T07:28:59.415Z</time></trkpt><trkpt lat="43.914151" lon="12.7162552"><ele>87.0</ele><time>2026-04-26T07:29:00.415Z</time></trkpt><trkpt lat="43.9140963" lon="12.7161873"><ele>87.0</ele><time>2026-04-26T07:29:01.414Z</time></trkpt><trkpt lat="43.9140433" lon="12.7161219"><ele>87.39999999999999</ele><time>2026-04-26T07:29:02.412Z</time></trkpt><trkpt lat="43.9139917" lon="12.7160619"><ele>87.8</ele><time>2026-04-26T07:29:03.415Z</time></trkpt><trkpt lat="43.913898" lon="12.7159463"><ele>88.2</ele><time>2026-04-26T07:29:05.41Z</time></trkpt><trkpt lat="43.913851" lon="12.7158874"><ele>88.6</ele><time>2026-04-26T07:29:06.41Z</time></trkpt><trkpt lat="43.9137665" lon="12.7157793"><ele>89.0</ele><time>2026-04-26T07:29:08.41Z</time></trkpt><trkpt lat="43.9136918" lon="12.7156975"><ele>89.0</ele><time>2026-04-26T07:29:10.412Z</time></trkpt><trkpt lat="43.9136462" lon="12.715637"><ele>89.0</ele><time>2026-04-26T07:29:14.414Z</time></trkpt><trkpt lat="43.9134383" lon="12.7153851"><ele>89.0</ele><time>2026-04-26T07:31:58.417Z</time></trkpt><trkpt lat="43.9134785" lon="12.7152908"><ele>89.0</ele><time>2026-04-26T07:32:03.412Z</time></trkpt><trkpt lat="43.9135629" lon="12.7152688"><ele>89.0</ele><time>2026-04-26T07:32:06.413Z</time></trkpt><trkpt lat="43.9136341" lon="12.7152586"><ele>89.0</ele><time>2026-04-26T07:32:08.412Z</time></trkpt><trkpt lat="43.9137151" lon="12.7152287"><ele>89.0</ele><time>2026-04-26T07:32:10.412Z</time></trkpt><trkpt lat="43.9137938" lon="12.7151957"><ele>89.0</ele><time>2026-04-26T07:32:12.412Z</time></trkpt><trkpt lat="43.91386" lon="12.7151721"><ele>89.0</ele><time>2026-04-26T07:32:14.414Z</time></trkpt><trkpt lat="43.9139924" lon="12.7151229"><ele>89.0</ele><time>2026-04-26T07:32:18.413Z</time></trkpt><trkpt lat="43.9140806" lon="12.7150673"><ele>88.5</ele><time>2026-04-26T07:32:20.412Z</time></trkpt><trkpt lat="43.914138" lon="12.7149788"><ele>88.0</ele><time>2026-04-26T07:32:22.416Z</time></trkpt><trkpt lat="43.9141597" lon="12.7148646"><ele>87.5</ele><time>2026-04-26T07:32:24.415Z</time></trkpt><trkpt lat="43.9141585" lon="12.7147549"><ele>87.0</ele><time>2026-04-26T07:32:26.414Z</time></trkpt><trkpt lat="43.914149" lon="12.7146625"><ele>86.5</ele><time>2026-04-26T07:32:28.411Z</time></trkpt><trkpt lat="43.9141432" lon="12.7145461"><ele>86.0</ele><time>2026-04-26T07:32:31.413Z</time></trkpt><trkpt lat="43.9141332" lon="12.7144592"><ele>86.0</ele><time>2026-04-26T07:32:33.413Z</time></trkpt><trkpt lat="43.9141199" lon="12.714365"><ele>86.0</ele><time>2026-04-26T07:32:36.41Z</time></trkpt><trkpt lat="43.914188" lon="12.7143156"><ele>86.0</ele><time>2026-04-26T07:33:01.41Z</time></trkpt><trkpt lat="43.9142034" lon="12.7145008"><ele>86.0</ele><time>2026-04-26T07:33:05.414Z</time></trkpt><trkpt lat="43.9142209" lon="12.7146014"><ele>86.0</ele><time>2026-04-26T07:33:07.412Z</time></trkpt><trkpt lat="43.9142527" lon="12.7147014"><ele>86.0</ele><time>2026-04-26T07:33:09.413Z</time></trkpt><trkpt lat="43.9143174" lon="12.7147536"><ele>84.0</ele><time>2026-04-26T07:33:11.415Z</time></trkpt><trkpt lat="43.9143915" lon="12.7147602"><ele>82.0</ele><time>2026-04-26T07:33:13.418Z</time></trkpt><trkpt lat="43.9144795" lon="12.7147083"><ele>80.0</ele><time>2026-04-26T07:33:15.413Z</time></trkpt><trkpt lat="43.9146062" lon="12.7146666"><ele>78.0</ele><time>2026-04-26T07:33:17.413Z</time></trkpt><trkpt lat="43.9146709" lon="12.7146512"><ele>76.0</ele><time>2026-04-26T07:33:18.413Z</time></trkpt><trkpt lat="43.9147337" lon="12.7146303"><ele>74.0</ele><time>2026-04-26T07:33:19.419Z</time></trkpt><trkpt lat="43.9148465" lon="12.7145941"><ele>74.0</ele><time>2026-04-26T07:33:21.413Z</time></trkpt><trkpt lat="43.9149297" lon="12.7145366"><ele>74.0</ele><time>2026-04-26T07:33:23.414Z</time></trkpt><trkpt lat="43.9150036" lon="12.7142642"><ele>74.0</ele><time>2026-04-26T07:33:27.413Z</time></trkpt><trkpt lat="43.9150126" lon="12.7141431"><ele>74.0</ele><time>2026-04-26T07:33:29.418Z</time></trkpt><trkpt lat="43.9150333" lon="12.7140358"><ele>73.60000000000001</ele><time>2026-04-26T07:33:31.413Z</time></trkpt><trkpt lat="43.915067" lon="12.7139251"><ele>73.2</ele><time>2026-04-26T07:33:33.41Z</time></trkpt><trkpt lat="43.9151271" lon="12.7138289"><ele>72.80000000000001</ele><time>2026-04-26T07:33:35.424Z</time></trkpt><trkpt lat="43.9152197" lon="12.7137323"><ele>72.4</ele><time>2026-04-26T07:33:37.413Z</time></trkpt><trkpt lat="43.9153183" lon="12.7136361"><ele>72.0</ele><time>2026-04-26T07:33:39.418Z</time></trkpt><trkpt lat="43.9154176" lon="12.7135422"><ele>68.25</ele><time>2026-04-26T07:33:41.418Z</time></trkpt><trkpt lat="43.9155178" lon="12.7134415"><ele>64.5</ele><time>2026-04-26T07:33:43.411Z</time></trkpt><trkpt lat="43.9155756" lon="12.7133893"><ele>60.75</ele><time>2026-04-26T07:33:44.413Z</time></trkpt><trkpt lat="43.915751" lon="12.7132489"><ele>57.0</ele><time>2026-04-26T07:33:47.411Z</time></trkpt><trkpt lat="43.9158247" lon="12.7132069"><ele>57.0</ele><time>2026-04-26T07:33:48.411Z</time></trkpt><trkpt lat="43.9158907" lon="12.7131647"><ele>56.99999999999999</ele><time>2026-04-26T07:33:49.413Z</time></trkpt><trkpt lat="43.9159536" lon="12.7131221"><ele>57.0</ele><time>2026-04-26T07:33:50.412Z</time></trkpt><trkpt lat="43.9160157" lon="12.7130758"><ele>57.0</ele><time>2026-04-26T07:33:51.409Z</time></trkpt><trkpt lat="43.9160734" lon="12.7130358"><ele>56.99999999999999</ele><time>2026-04-26T07:33:52.412Z</time></trkpt><trkpt lat="43.9161305" lon="12.7129928"><ele>57.0</ele><time>2026-04-26T07:33:53.413Z</time></trkpt><trkpt lat="43.9161899" lon="12.7129471"><ele>57.0</ele><time>2026-04-26T07:33:54.412Z</time></trkpt><trkpt lat="43.9162939" lon="12.7128753"><ele>54.5</ele><time>2026-04-26T07:33:56.409Z</time></trkpt><trkpt lat="43.9163744" lon="12.7127788"><ele>52.0</ele><time>2026-04-26T07:33:58.418Z</time></trkpt><trkpt lat="43.9163892" lon="12.7126291"><ele>49.5</ele><time>2026-04-26T07:34:00.41Z</time></trkpt><trkpt lat="43.916357" lon="12.7125139"><ele>47.0</ele><time>2026-04-26T07:34:13.414Z</time></trkpt><trkpt lat="43.9162909" lon="12.7122493"><ele>46.33333333333333</ele><time>2026-04-26T07:34:16.418Z</time></trkpt><trkpt lat="43.9162624" lon="12.7121488"><ele>45.666666666666664</ele><time>2026-04-26T07:34:17.417Z</time></trkpt><trkpt lat="43.9162241" lon="12.712038"><ele>45.0</ele><time>2026-04-26T07:34:18.414Z</time></trkpt><trkpt lat="43.9161817" lon="12.7119193"><ele>44.333333333333336</ele><time>2026-04-26T07:34:19.413Z</time></trkpt><trkpt lat="43.9161373" lon="12.7118097"><ele>43.66666666666667</ele><time>2026-04-26T07:34:20.413Z</time></trkpt><trkpt lat="43.9160939" lon="12.7117165"><ele>43.0</ele><time>2026-04-26T07:34:21.414Z</time></trkpt><trkpt lat="43.9160519" lon="12.7116396"><ele>43.142857142857146</ele><time>2026-04-26T07:34:22.416Z</time></trkpt><trkpt lat="43.9160052" lon="12.7115695"><ele>43.285714285714285</ele><time>2026-04-26T07:34:23.413Z</time></trkpt><trkpt lat="43.9159552" lon="12.7114997"><ele>43.42857142857143</ele><time>2026-04-26T07:34:24.414Z</time></trkpt><trkpt lat="43.9159113" lon="12.7114246"><ele>43.57142857142857</ele><time>2026-04-26T07:34:25.412Z</time></trkpt><trkpt lat="43.9158786" lon="12.7113345"><ele>43.714285714285715</ele><time>2026-04-26T07:34:26.41Z</time></trkpt><trkpt lat="43.9158526" lon="12.7112374"><ele>43.85714285714286</ele><time>2026-04-26T07:34:27.41Z</time></trkpt><trkpt lat="43.9158235" lon="12.7111379"><ele>44.0</ele><time>2026-04-26T07:34:28.411Z</time></trkpt><trkpt lat="43.9157933" lon="12.7110394"><ele>44.0</ele><time>2026-04-26T07:34:29.41Z</time></trkpt><trkpt lat="43.9157627" lon="12.7109473"><ele>44.0</ele><time>2026-04-26T07:34:30.413Z</time></trkpt><trkpt lat="43.915708" lon="12.7108271"><ele>44.0</ele><time>2026-04-26T07:34:32.413Z</time></trkpt><trkpt lat="43.9156256" lon="12.7108101"><ele>44.0</ele><time>2026-04-26T07:34:34.417Z</time></trkpt><trkpt lat="43.915495" lon="12.7106971"><ele>44.0</ele><time>2026-04-26T07:34:37.417Z</time></trkpt><trkpt lat="43.9154833" lon="12.7105924"><ele>44.0</ele><time>2026-04-26T07:34:38.412Z</time></trkpt><trkpt lat="43.9154857" lon="12.7104543"><ele>44.0</ele><time>2026-04-26T07:34:39.411Z</time></trkpt><trkpt lat="43.9154866" lon="12.7103181"><ele>44.0</ele><time>2026-04-26T07:34:40.414Z</time></trkpt><trkpt lat="43.9154897" lon="12.7102069"><ele>44.0</ele><time>2026-04-26T07:34:41.412Z</time></trkpt><trkpt lat="43.9154902" lon="12.7101043"><ele>44.0</ele><time>2026-04-26T07:34:42.414Z</time></trkpt><trkpt lat="43.9154877" lon="12.7099951"><ele>44.0</ele><time>2026-04-26T07:34:43.41Z</time></trkpt><trkpt lat="43.9154848" lon="12.7098764"><ele>43.83333333333333</ele><time>2026-04-26T07:34:44.418Z</time></trkpt><trkpt lat="43.9154781" lon="12.7097579"><ele>43.666666666666664</ele><time>2026-04-26T07:34:45.42Z</time></trkpt><trkpt lat="43.915472" lon="12.7096449"><ele>43.5</ele><time>2026-04-26T07:34:46.413Z</time></trkpt><trkpt lat="43.9154713" lon="12.7095274"><ele>43.333333333333336</ele><time>2026-04-26T07:34:47.412Z</time></trkpt><trkpt lat="43.915469" lon="12.7094215"><ele>43.16666666666667</ele><time>2026-04-26T07:34:48.413Z</time></trkpt><trkpt lat="43.9154631" lon="12.7093132"><ele>43.0</ele><time>2026-04-26T07:34:49.412Z</time></trkpt><trkpt lat="43.9154535" lon="12.7091963"><ele>42.833333333333336</ele><time>2026-04-26T07:34:50.412Z</time></trkpt><trkpt lat="43.9154458" lon="12.7090822"><ele>42.66666666666667</ele><time>2026-04-26T07:34:51.415Z</time></trkpt><trkpt lat="43.9154421" lon="12.7089665"><ele>42.5</ele><time>2026-04-26T07:34:52.414Z</time></trkpt><trkpt lat="43.9154336" lon="12.708852"><ele>42.333333333333336</ele><time>2026-04-26T07:34:53.411Z</time></trkpt><trkpt lat="43.9154191" lon="12.7087316"><ele>42.166666666666664</ele><time>2026-04-26T07:34:54.413Z</time></trkpt><trkpt lat="43.9154134" lon="12.7086201"><ele>42.0</ele><time>2026-04-26T07:34:55.411Z</time></trkpt><trkpt lat="43.9154048" lon="12.7084055"><ele>41.8</ele><time>2026-04-26T07:34:57.412Z</time></trkpt><trkpt lat="43.9154008" lon="12.7083015"><ele>41.6</ele><time>2026-04-26T07:34:58.412Z</time></trkpt><trkpt lat="43.9154093" lon="12.7082077"><ele>41.4</ele><time>2026-04-26T07:34:59.412Z</time></trkpt><trkpt lat="43.9154575" lon="12.7080481"><ele>41.199999999999996</ele><time>2026-04-26T07:35:01.415Z</time></trkpt><trkpt lat="43.9155282" lon="12.7079143"><ele>41.0</ele><time>2026-04-26T07:35:03.411Z</time></trkpt><trkpt lat="43.915586" lon="12.7077864"><ele>41.199999999999996</ele><time>2026-04-26T07:35:05.409Z</time></trkpt><trkpt lat="43.9156295" lon="12.7076661"><ele>41.4</ele><time>2026-04-26T07:35:07.413Z</time></trkpt><trkpt lat="43.9156675" lon="12.7075719"><ele>41.6</ele><time>2026-04-26T07:35:09.418Z</time></trkpt><trkpt lat="43.9157178" lon="12.7074902"><ele>41.8</ele><time>2026-04-26T07:35:12.413Z</time></trkpt><trkpt lat="43.91563" lon="12.7074509"><ele>42.0</ele><time>2026-04-26T07:35:56.41Z</time></trkpt><trkpt lat="43.9154545" lon="12.7073803"><ele>42.0</ele><time>2026-04-26T07:35:59.41Z</time></trkpt><trkpt lat="43.9153831" lon="12.7073478"><ele>42.0</ele><time>2026-04-26T07:36:00.41Z</time></trkpt><trkpt lat="43.915308" lon="12.7073084"><ele>42.0</ele><time>2026-04-26T07:36:01.41Z</time></trkpt><trkpt lat="43.915234" lon="12.7072627"><ele>42.0</ele><time>2026-04-26T07:36:02.412Z</time></trkpt><trkpt lat="43.915158" lon="12.7072046"><ele>42.0</ele><time>2026-04-26T07:36:03.411Z</time></trkpt><trkpt lat="43.915075" lon="12.7071301"><ele>42.0</ele><time>2026-04-26T07:36:04.416Z</time></trkpt><trkpt lat="43.9149907" lon="12.7070409"><ele>42.5</ele><time>2026-04-26T07:36:05.416Z</time></trkpt><trkpt lat="43.9149172" lon="12.7069661"><ele>43.0</ele><time>2026-04-26T07:36:06.411Z</time></trkpt><trkpt lat="43.9148431" lon="12.7069009"><ele>43.5</ele><time>2026-04-26T07:36:07.415Z</time></trkpt><trkpt lat="43.9147716" lon="12.7068468"><ele>44.0</ele><time>2026-04-26T07:36:08.414Z</time></trkpt><trkpt lat="43.9147118" lon="12.7068097"><ele>44.5</ele><time>2026-04-26T07:36:09.412Z</time></trkpt><trkpt lat="43.9146185" lon="12.706773"><ele>45.0</ele><time>2026-04-26T07:36:11.416Z</time></trkpt><trkpt lat="43.9145535" lon="12.7067576"><ele>45.4</ele><time>2026-04-26T07:36:13.412Z</time></trkpt><trkpt lat="43.9144957" lon="12.7066936"><ele>45.8</ele><time>2026-04-26T07:36:15.412Z</time></trkpt><trkpt lat="43.914432" lon="12.706601"><ele>46.2</ele><time>2026-04-26T07:36:17.411Z</time></trkpt><trkpt lat="43.9143476" lon="12.7063623"><ele>46.6</ele><time>2026-04-26T07:36:20.408Z</time></trkpt><trkpt lat="43.9143278" lon="12.7062676"><ele>47.0</ele><time>2026-04-26T07:36:21.431Z</time></trkpt><trkpt lat="43.914326" lon="12.7061732"><ele>47.6</ele><time>2026-04-26T07:36:22.416Z</time></trkpt><trkpt lat="43.9143324" lon="12.7060572"><ele>48.2</ele><time>2026-04-26T07:36:23.414Z</time></trkpt><trkpt lat="43.9143378" lon="12.7059331"><ele>48.8</ele><time>2026-04-26T07:36:24.412Z</time></trkpt><trkpt lat="43.914346" lon="12.7057986"><ele>49.4</ele><time>2026-04-26T07:36:25.411Z</time></trkpt><trkpt lat="43.9143547" lon="12.7056569"><ele>50.0</ele><time>2026-04-26T07:36:26.415Z</time></trkpt><trkpt lat="43.9143625" lon="12.7055185"><ele>50.00000000000001</ele><time>2026-04-26T07:36:27.413Z</time></trkpt><trkpt lat="43.9143714" lon="12.7053901"><ele>50.0</ele><time>2026-04-26T07:36:28.414Z</time></trkpt><trkpt lat="43.9143854" lon="12.705274"><ele>50.0</ele><time>2026-04-26T07:36:29.413Z</time></trkpt><trkpt lat="43.9143912" lon="12.7051702"><ele>50.0</ele><time>2026-04-26T07:36:30.415Z</time></trkpt><trkpt lat="43.9143841" lon="12.7050661"><ele>50.00000000000001</ele><time>2026-04-26T07:36:31.416Z</time></trkpt><trkpt lat="43.9143552" lon="12.7049796"><ele>50.0</ele><time>2026-04-26T07:36:32.411Z</time></trkpt><trkpt lat="43.9143055" lon="12.7048943"><ele>50.2</ele><time>2026-04-26T07:36:33.414Z</time></trkpt><trkpt lat="43.9142407" lon="12.7048122"><ele>50.4</ele><time>2026-04-26T07:36:34.411Z</time></trkpt><trkpt lat="43.9141649" lon="12.704716"><ele>50.599999999999994</ele><time>2026-04-26T07:36:35.412Z</time></trkpt><trkpt lat="43.9140874" lon="12.7046202"><ele>50.8</ele><time>2026-04-26T07:36:36.41Z</time></trkpt><trkpt lat="43.914009" lon="12.7045279"><ele>51.0</ele><time>2026-04-26T07:36:37.41Z</time></trkpt><trkpt lat="43.9139253" lon="12.704438"><ele>53.75</ele><time>2026-04-26T07:36:38.408Z</time></trkpt><trkpt lat="43.9137547" lon="12.7042668"><ele>56.5</ele><time>2026-04-26T07:36:40.409Z</time></trkpt><trkpt lat="43.9136628" lon="12.7041811"><ele>59.25</ele><time>2026-04-26T07:36:41.412Z</time></trkpt><trkpt lat="43.9135733" lon="12.7040954"><ele>62.0</ele><time>2026-04-26T07:36:42.413Z</time></trkpt><trkpt lat="43.9134815" lon="12.7040145"><ele>63.400000000000006</ele><time>2026-04-26T07:36:43.416Z</time></trkpt><trkpt lat="43.9133921" lon="12.7039416"><ele>64.80000000000001</ele><time>2026-04-26T07:36:44.409Z</time></trkpt><trkpt lat="43.9133003" lon="12.7038688"><ele>66.2</ele><time>2026-04-26T07:36:45.422Z</time></trkpt><trkpt lat="43.9132198" lon="12.7038093"><ele>67.60000000000001</ele><time>2026-04-26T07:36:46.411Z</time></trkpt><trkpt lat="43.913134" lon="12.7037509"><ele>69.0</ele><time>2026-04-26T07:36:47.41Z</time></trkpt><trkpt lat="43.9130497" lon="12.703696"><ele>69.0</ele><time>2026-04-26T07:36:48.41Z</time></trkpt><trkpt lat="43.9129687" lon="12.7036345"><ele>69.0</ele><time>2026-04-26T07:36:49.41Z</time></trkpt><trkpt lat="43.9128881" lon="12.7035777"><ele>69.0</ele><time>2026-04-26T07:36:50.411Z</time></trkpt><trkpt lat="43.9128008" lon="12.7035153"><ele>69.0</ele><time>2026-04-26T07:36:51.413Z</time></trkpt><trkpt lat="43.9127125" lon="12.7034537"><ele>69.0</ele><time>2026-04-26T07:36:52.415Z</time></trkpt><trkpt lat="43.9126214" lon="12.7033911"><ele>71.6</ele><time>2026-04-26T07:36:53.42Z</time></trkpt><trkpt lat="43.9125279" lon="12.7033228"><ele>74.2</ele><time>2026-04-26T07:36:54.411Z</time></trkpt><trkpt lat="43.91243" lon="12.7032625"><ele>76.8</ele><time>2026-04-26T07:36:55.41Z</time></trkpt><trkpt lat="43.9123282" lon="12.7031945"><ele>79.39999999999999</ele><time>2026-04-26T07:36:56.411Z</time></trkpt><trkpt lat="43.9122286" lon="12.703124"><ele>82.0</ele><time>2026-04-26T07:36:57.41Z</time></trkpt><trkpt lat="43.9121335" lon="12.7030634"><ele>82.0</ele><time>2026-04-26T07:36:58.408Z</time></trkpt><trkpt lat="43.9120412" lon="12.7030013"><ele>82.0</ele><time>2026-04-26T07:36:59.412Z</time></trkpt><trkpt lat="43.9118493" lon="12.7028808"><ele>82.0</ele><time>2026-04-26T07:37:01.414Z</time></trkpt><trkpt lat="43.9117615" lon="12.702816"><ele>82.0</ele><time>2026-04-26T07:37:02.41Z</time></trkpt><trkpt lat="43.9116743" lon="12.702746"><ele>84.8</ele><time>2026-04-26T07:37:03.415Z</time></trkpt><trkpt lat="43.9115955" lon="12.7026554"><ele>87.6</ele><time>2026-04-26T07:37:04.413Z</time></trkpt><trkpt lat="43.9115412" lon="12.702538"><ele>90.39999999999999</ele><time>2026-04-26T07:37:05.409Z</time></trkpt><trkpt lat="43.9114859" lon="12.7024188"><ele>93.19999999999999</ele><time>2026-04-26T07:37:06.408Z</time></trkpt><trkpt lat="43.9114327" lon="12.702306"><ele>96.0</ele><time>2026-04-26T07:37:07.41Z</time></trkpt><trkpt lat="43.9113739" lon="12.7021908"><ele>96.0</ele><time>2026-04-26T07:37:08.406Z</time></trkpt><trkpt lat="43.9113107" lon="12.7020636"><ele>96.0</ele><time>2026-04-26T07:37:09.412Z</time></trkpt><trkpt lat="43.9112453" lon="12.701928"><ele>96.0</ele><time>2026-04-26T07:37:10.413Z</time></trkpt><trkpt lat="43.9111746" lon="12.7017846"><ele>96.0</ele><time>2026-04-26T07:37:11.418Z</time></trkpt><trkpt lat="43.9111042" lon="12.7016477"><ele>97.4</ele><time>2026-04-26T07:37:12.409Z</time></trkpt><trkpt lat="43.9110339" lon="12.7015367"><ele>98.8</ele><time>2026-04-26T07:37:13.41Z</time></trkpt><trkpt lat="43.9109774" lon="12.7014574"><ele>100.2</ele><time>2026-04-26T07:37:14.41Z</time></trkpt><trkpt lat="43.9109113" lon="12.7013486"><ele>101.60000000000001</ele><time>2026-04-26T07:37:16.411Z</time></trkpt><trkpt lat="43.9109041" lon="12.7012452"><ele>103.0</ele><time>2026-04-26T07:37:18.41Z</time></trkpt><trkpt lat="43.9109807" lon="12.7011149"><ele>103.5</ele><time>2026-04-26T07:37:20.41Z</time></trkpt><trkpt lat="43.9111095" lon="12.700906"><ele>104.0</ele><time>2026-04-26T07:37:22.419Z</time></trkpt><trkpt lat="43.9111866" lon="12.7007907"><ele>104.5</ele><time>2026-04-26T07:37:23.416Z</time></trkpt><trkpt lat="43.9112714" lon="12.7006738"><ele>105.0</ele><time>2026-04-26T07:37:24.417Z</time></trkpt><trkpt lat="43.9113546" lon="12.7005605"><ele>105.0</ele><time>2026-04-26T07:37:25.41Z</time></trkpt><trkpt lat="43.9114374" lon="12.7004546"><ele>105.0</ele><time>2026-04-26T07:37:26.41Z</time></trkpt><trkpt lat="43.9115161" lon="12.7003522"><ele>105.0</ele><time>2026-04-26T07:37:27.415Z</time></trkpt><trkpt lat="43.9115878" lon="12.7002568"><ele>105.0</ele><time>2026-04-26T07:37:28.411Z</time></trkpt><trkpt lat="43.9116532" lon="12.7001755"><ele>105.0</ele><time>2026-04-26T07:37:29.412Z</time></trkpt><trkpt lat="43.9117114" lon="12.7001065"><ele>103.6</ele><time>2026-04-26T07:37:30.412Z</time></trkpt><trkpt lat="43.9118031" lon="12.6999942"><ele>102.2</ele><time>2026-04-26T07:37:32.411Z</time></trkpt><trkpt lat="43.9118888" lon="12.6998754"><ele>100.80000000000001</ele><time>2026-04-26T07:37:34.411Z</time></trkpt><trkpt lat="43.9119308" lon="12.699809"><ele>99.4</ele><time>2026-04-26T07:37:35.41Z</time></trkpt><trkpt lat="43.9119863" lon="12.6997405"><ele>98.0</ele><time>2026-04-26T07:37:36.412Z</time></trkpt><trkpt lat="43.9120456" lon="12.6996743"><ele>98.0</ele><time>2026-04-26T07:37:37.411Z</time></trkpt><trkpt lat="43.9121011" lon="12.6996172"><ele>98.0</ele><time>2026-04-26T07:37:38.411Z</time></trkpt><trkpt lat="43.9121467" lon="12.6995482"><ele>98.0</ele><time>2026-04-26T07:37:39.414Z</time></trkpt><trkpt lat="43.9122003" lon="12.699476"><ele>98.0</ele><time>2026-04-26T07:37:40.411Z</time></trkpt><trkpt lat="43.9122542" lon="12.6994011"><ele>98.0</ele><time>2026-04-26T07:37:41.413Z</time></trkpt><trkpt lat="43.912377" lon="12.6992143"><ele>97.0</ele><time>2026-04-26T07:37:44.412Z</time></trkpt><trkpt lat="43.9124366" lon="12.6991139"><ele>96.0</ele><time>2026-04-26T07:37:46.411Z</time></trkpt><trkpt lat="43.9124964" lon="12.6990062"><ele>95.0</ele><time>2026-04-26T07:37:48.414Z</time></trkpt><trkpt lat="43.912569" lon="12.6988572"><ele>94.0</ele><time>2026-04-26T07:37:50.417Z</time></trkpt><trkpt lat="43.9126042" lon="12.6987756"><ele>93.0</ele><time>2026-04-26T07:37:51.412Z</time></trkpt><trkpt lat="43.9126419" lon="12.6986899"><ele>93.0</ele><time>2026-04-26T07:37:52.412Z</time></trkpt><trkpt lat="43.9126864" lon="12.6985994"><ele>93.0</ele><time>2026-04-26T07:37:53.409Z</time></trkpt><trkpt lat="43.9127455" lon="12.698517"><ele>93.0</ele><time>2026-04-26T07:37:54.412Z</time></trkpt><trkpt lat="43.9128101" lon="12.6984454"><ele>93.0</ele><time>2026-04-26T07:37:55.417Z</time></trkpt><trkpt lat="43.9128753" lon="12.6983823"><ele>93.0</ele><time>2026-04-26T07:37:56.408Z</time></trkpt><trkpt lat="43.9129383" lon="12.6983212"><ele>93.0</ele><time>2026-04-26T07:37:57.409Z</time></trkpt><trkpt lat="43.9130013" lon="12.6982668"><ele>94.33333333333333</ele><time>2026-04-26T07:37:58.411Z</time></trkpt><trkpt lat="43.9130664" lon="12.6982217"><ele>95.66666666666666</ele><time>2026-04-26T07:37:59.413Z</time></trkpt><trkpt lat="43.9131261" lon="12.6981728"><ele>97.0</ele><time>2026-04-26T07:38:00.413Z</time></trkpt><trkpt lat="43.9131826" lon="12.698119"><ele>98.33333333333333</ele><time>2026-04-26T07:38:01.416Z</time></trkpt><trkpt lat="43.9132421" lon="12.6980629"><ele>99.66666666666666</ele><time>2026-04-26T07:38:02.413Z</time></trkpt><trkpt lat="43.9133719" lon="12.6979598"><ele>101.0</ele><time>2026-04-26T07:38:04.413Z</time></trkpt><trkpt lat="43.9134413" lon="12.6979091"><ele>100.99999999999999</ele><time>2026-04-26T07:38:05.408Z</time></trkpt><trkpt lat="43.9135048" lon="12.69786"><ele>101.0</ele><time>2026-04-26T07:38:06.415Z</time></trkpt><trkpt lat="43.913575" lon="12.6978183"><ele>101.0</ele><time>2026-04-26T07:38:07.414Z</time></trkpt><trkpt lat="43.9136594" lon="12.6977731"><ele>101.0</ele><time>2026-04-26T07:38:08.41Z</time></trkpt><trkpt lat="43.9137372" lon="12.6977215"><ele>100.99999999999999</ele><time>2026-04-26T07:38:09.41Z</time></trkpt><trkpt lat="43.9138056" lon="12.6976668"><ele>101.0</ele><time>2026-04-26T07:38:10.409Z</time></trkpt><trkpt lat="43.9138723" lon="12.6976101"><ele>102.49999999999999</ele><time>2026-04-26T07:38:11.408Z</time></trkpt><trkpt lat="43.9139347" lon="12.6975464"><ele>104.0</ele><time>2026-04-26T07:38:12.409Z</time></trkpt><trkpt lat="43.9139974" lon="12.6974795"><ele>105.5</ele><time>2026-04-26T07:38:13.412Z</time></trkpt><trkpt lat="43.9140509" lon="12.6974011"><ele>107.0</ele><time>2026-04-26T07:38:14.41Z</time></trkpt><trkpt lat="43.9140972" lon="12.6973063"><ele>108.49999999999999</ele><time>2026-04-26T07:38:15.417Z</time></trkpt><trkpt lat="43.9141443" lon="12.6972043"><ele>110.0</ele><time>2026-04-26T07:38:16.416Z</time></trkpt><trkpt lat="43.9142008" lon="12.6971185"><ele>109.66666666666666</ele><time>2026-04-26T07:38:17.413Z</time></trkpt><trkpt lat="43.9142632" lon="12.6970376"><ele>109.33333333333333</ele><time>2026-04-26T07:38:18.416Z</time></trkpt><trkpt lat="43.9143276" lon="12.69697"><ele>109.0</ele><time>2026-04-26T07:38:19.411Z</time></trkpt><trkpt lat="43.9143908" lon="12.6969101"><ele>108.66666666666666</ele><time>2026-04-26T07:38:20.409Z</time></trkpt><trkpt lat="43.9144583" lon="12.6968531"><ele>108.33333333333333</ele><time>2026-04-26T07:38:21.41Z</time></trkpt><trkpt lat="43.9145244" lon="12.6967874"><ele>108.0</ele><time>2026-04-26T07:38:22.41Z</time></trkpt><trkpt lat="43.9145894" lon="12.6967303"><ele>108.0</ele><time>2026-04-26T07:38:23.414Z</time></trkpt><trkpt lat="43.9147203" lon="12.6966431"><ele>108.00000000000001</ele><time>2026-04-26T07:38:25.416Z</time></trkpt><trkpt lat="43.9147928" lon="12.6966054"><ele>108.00000000000001</ele><time>2026-04-26T07:38:26.418Z</time></trkpt><trkpt lat="43.9148604" lon="12.6965748"><ele>108.0</ele><time>2026-04-26T07:38:27.42Z</time></trkpt><trkpt lat="43.9149708" lon="12.696541"><ele>108.0</ele><time>2026-04-26T07:38:29.413Z</time></trkpt><trkpt lat="43.9150644" lon="12.6965193"><ele>106.80000000000001</ele><time>2026-04-26T07:38:31.412Z</time></trkpt><trkpt lat="43.915138" lon="12.6964654"><ele>105.60000000000001</ele><time>2026-04-26T07:38:33.41Z</time></trkpt><trkpt lat="43.9151715" lon="12.6963786"><ele>104.4</ele><time>2026-04-26T07:38:35.419Z</time></trkpt><trkpt lat="43.9151618" lon="12.6962412"><ele>103.19999999999999</ele><time>2026-04-26T07:38:37.421Z</time></trkpt><trkpt lat="43.9151121" lon="12.6960656"><ele>102.0</ele><time>2026-04-26T07:38:39.413Z</time></trkpt><trkpt lat="43.915076" lon="12.6959546"><ele>103.8</ele><time>2026-04-26T07:38:40.408Z</time></trkpt><trkpt lat="43.9150363" lon="12.6958386"><ele>105.6</ele><time>2026-04-26T07:38:41.411Z</time></trkpt><trkpt lat="43.9150052" lon="12.6957181"><ele>107.39999999999999</ele><time>2026-04-26T07:38:42.411Z</time></trkpt><trkpt lat="43.9149727" lon="12.6956031"><ele>109.19999999999999</ele><time>2026-04-26T07:38:43.413Z</time></trkpt><trkpt lat="43.9149439" lon="12.6954934"><ele>111.0</ele><time>2026-04-26T07:38:44.411Z</time></trkpt><trkpt lat="43.9148883" lon="12.6952968"><ele>112.5</ele><time>2026-04-26T07:38:46.41Z</time></trkpt><trkpt lat="43.9148638" lon="12.6952098"><ele>114.0</ele><time>2026-04-26T07:38:47.409Z</time></trkpt><trkpt lat="43.9148377" lon="12.6951238"><ele>115.5</ele><time>2026-04-26T07:38:48.411Z</time></trkpt><trkpt lat="43.9147994" lon="12.694962"><ele>117.0</ele><time>2026-04-26T07:38:50.412Z</time></trkpt><trkpt lat="43.9147753" lon="12.6948774"><ele>118.5</ele><time>2026-04-26T07:38:51.41Z</time></trkpt><trkpt lat="43.9147517" lon="12.694795"><ele>120.0</ele><time>2026-04-26T07:38:52.41Z</time></trkpt><trkpt lat="43.9147135" lon="12.6946615"><ele>120.0</ele><time>2026-04-26T07:38:54.412Z</time></trkpt><trkpt lat="43.9146777" lon="12.6945433"><ele>120.0</ele><time>2026-04-26T07:38:56.416Z</time></trkpt><trkpt lat="43.9146525" lon="12.6944556"><ele>120.0</ele><time>2026-04-26T07:38:58.412Z</time></trkpt><trkpt lat="43.91468" lon="12.6943509"><ele>120.0</ele><time>2026-04-26T07:39:01.41Z</time></trkpt><trkpt lat="43.9147392" lon="12.6943165"><ele>120.0</ele><time>2026-04-26T07:39:02.416Z</time></trkpt><trkpt lat="43.9148047" lon="12.6942805"><ele>120.0</ele><time>2026-04-26T07:39:03.414Z</time></trkpt><trkpt lat="43.9148705" lon="12.694244"><ele>120.0</ele><time>2026-04-26T07:39:04.415Z</time></trkpt><trkpt lat="43.9149435" lon="12.6942032"><ele>119.6</ele><time>2026-04-26T07:39:05.41Z</time></trkpt><trkpt lat="43.9150884" lon="12.6941187"><ele>119.2</ele><time>2026-04-26T07:39:07.408Z</time></trkpt><trkpt lat="43.9151572" lon="12.6940752"><ele>118.80000000000001</ele><time>2026-04-26T07:39:08.411Z</time></trkpt><trkpt lat="43.9152277" lon="12.6940326"><ele>118.4</ele><time>2026-04-26T07:39:09.408Z</time></trkpt><trkpt lat="43.9153018" lon="12.6939873"><ele>118.0</ele><time>2026-04-26T07:39:10.412Z</time></trkpt><trkpt lat="43.9153681" lon="12.6939496"><ele>118.0</ele><time>2026-04-26T07:39:11.413Z</time></trkpt><trkpt lat="43.9154311" lon="12.6939178"><ele>118.00000000000001</ele><time>2026-04-26T07:39:12.41Z</time></trkpt><trkpt lat="43.9154912" lon="12.6938817"><ele>118.00000000000001</ele><time>2026-04-26T07:39:13.412Z</time></trkpt><trkpt lat="43.9155871" lon="12.6938222"><ele>118.0</ele><time>2026-04-26T07:39:15.413Z</time></trkpt><trkpt lat="43.9156395" lon="12.6937646"><ele>118.0</ele><time>2026-04-26T07:39:28.417Z</time></trkpt><trkpt lat="43.9156058" lon="12.6935374"><ele>118.83333333333334</ele><time>2026-04-26T07:39:33.41Z</time></trkpt><trkpt lat="43.9155395" lon="12.6934519"><ele>119.66666666666667</ele><time>2026-04-26T07:39:35.412Z</time></trkpt><trkpt lat="43.9154414" lon="12.6933293"><ele>120.5</ele><time>2026-04-26T07:39:37.418Z</time></trkpt><trkpt lat="43.9153951" lon="12.6932679"><ele>121.33333333333334</ele><time>2026-04-26T07:39:38.413Z</time></trkpt><trkpt lat="43.9153417" lon="12.6931977"><ele>122.16666666666667</ele><time>2026-04-26T07:39:39.412Z</time></trkpt><trkpt lat="43.9152861" lon="12.6931237"><ele>123.0</ele><time>2026-04-26T07:39:40.411Z</time></trkpt><trkpt lat="43.9152256" lon="12.6930411"><ele>123.00000000000001</ele><time>2026-04-26T07:39:41.421Z</time></trkpt><trkpt lat="43.9151724" lon="12.6929668"><ele>123.0</ele><time>2026-04-26T07:39:42.412Z</time></trkpt><trkpt lat="43.9151201" lon="12.6929029"><ele>123.00000000000001</ele><time>2026-04-26T07:39:43.414Z</time></trkpt><trkpt lat="43.9150711" lon="12.6928427"><ele>123.00000000000001</ele><time>2026-04-26T07:39:44.409Z</time></trkpt><trkpt lat="43.915025" lon="12.6927794"><ele>123.0</ele><time>2026-04-26T07:39:45.412Z</time></trkpt><trkpt lat="43.9149756" lon="12.6927208"><ele>123.00000000000001</ele><time>2026-04-26T07:39:46.415Z</time></trkpt><trkpt lat="43.9149216" lon="12.6926593"><ele>123.00000000000001</ele><time>2026-04-26T07:39:47.41Z</time></trkpt><trkpt lat="43.9148596" lon="12.6925994"><ele>123.5</ele><time>2026-04-26T07:39:48.418Z</time></trkpt><trkpt lat="43.9148019" lon="12.6925385"><ele>124.0</ele><time>2026-04-26T07:39:49.414Z</time></trkpt><trkpt lat="43.9146984" lon="12.6924097"><ele>124.5</ele><time>2026-04-26T07:39:51.412Z</time></trkpt><trkpt lat="43.9146481" lon="12.6923521"><ele>125.0</ele><time>2026-04-26T07:39:52.411Z</time></trkpt><trkpt lat="43.9145928" lon="12.6922977"><ele>125.5</ele><time>2026-04-26T07:39:53.415Z</time></trkpt><trkpt lat="43.9145361" lon="12.6922459"><ele>126.0</ele><time>2026-04-26T07:39:54.412Z</time></trkpt><trkpt lat="43.9144689" lon="12.692194"><ele>126.0</ele><time>2026-04-26T07:39:55.417Z</time></trkpt><trkpt lat="43.9143967" lon="12.6921397"><ele>126.0</ele><time>2026-04-26T07:39:56.409Z</time></trkpt><trkpt lat="43.9143213" lon="12.692095"><ele>126.0</ele><time>2026-04-26T07:39:57.407Z</time></trkpt><trkpt lat="43.9142377" lon="12.6920582"><ele>126.0</ele><time>2026-04-26T07:39:58.413Z</time></trkpt><trkpt lat="43.9141557" lon="12.6920325"><ele>126.0</ele><time>2026-04-26T07:39:59.41Z</time></trkpt><trkpt lat="43.9140685" lon="12.6920116"><ele>126.0</ele><time>2026-04-26T07:40:00.416Z</time></trkpt><trkpt lat="43.9139813" lon="12.6919907"><ele>127.83333333333333</ele><time>2026-04-26T07:40:01.41Z</time></trkpt><trkpt lat="43.9138939" lon="12.6919795"><ele>129.66666666666666</ele><time>2026-04-26T07:40:02.409Z</time></trkpt><trkpt lat="43.9138062" lon="12.6919753"><ele>131.5</ele><time>2026-04-26T07:40:03.412Z</time></trkpt><trkpt lat="43.9137296" lon="12.6919779"><ele>133.33333333333331</ele><time>2026-04-26T07:40:04.409Z</time></trkpt><trkpt lat="43.9136658" lon="12.6919735"><ele>135.16666666666666</ele><time>2026-04-26T07:40:05.415Z</time></trkpt><trkpt lat="43.9136001" lon="12.6919595"><ele>137.0</ele><time>2026-04-26T07:40:06.415Z</time></trkpt><trkpt lat="43.9135356" lon="12.6919311"><ele>137.0</ele><time>2026-04-26T07:40:07.409Z</time></trkpt><trkpt lat="43.9134334" lon="12.6918341"><ele>137.0</ele><time>2026-04-26T07:40:09.412Z</time></trkpt><trkpt lat="43.9133988" lon="12.6917527"><ele>137.0</ele><time>2026-04-26T07:40:10.412Z</time></trkpt><trkpt lat="43.9133761" lon="12.691553"><ele>137.0</ele><time>2026-04-26T07:40:12.413Z</time></trkpt><trkpt lat="43.9133821" lon="12.6914251"><ele>137.0</ele><time>2026-04-26T07:40:13.417Z</time></trkpt><trkpt lat="43.9133843" lon="12.6912905"><ele>137.0</ele><time>2026-04-26T07:40:14.412Z</time></trkpt><trkpt lat="43.9133876" lon="12.6911393"><ele>137.0</ele><time>2026-04-26T07:40:15.408Z</time></trkpt><trkpt lat="43.9133807" lon="12.6909977"><ele>137.0</ele><time>2026-04-26T07:40:16.419Z</time></trkpt><trkpt lat="43.9133721" lon="12.6908796"><ele>137.0</ele><time>2026-04-26T07:40:17.413Z</time></trkpt><trkpt lat="43.9133629" lon="12.6907587"><ele>137.0</ele><time>2026-04-26T07:40:18.411Z</time></trkpt><trkpt lat="43.9133569" lon="12.690641"><ele>137.0</ele><time>2026-04-26T07:40:19.411Z</time></trkpt><trkpt lat="43.9133551" lon="12.6905126"><ele>137.0</ele><time>2026-04-26T07:40:20.411Z</time></trkpt><trkpt lat="43.9133509" lon="12.6903717"><ele>137.0</ele><time>2026-04-26T07:40:21.415Z</time></trkpt><trkpt lat="43.9133427" lon="12.6902423"><ele>137.0</ele><time>2026-04-26T07:40:22.411Z</time></trkpt><trkpt lat="43.9133319" lon="12.6901023"><ele>137.0</ele><time>2026-04-26T07:40:23.416Z</time></trkpt><trkpt lat="43.913319" lon="12.6899706"><ele>137.2</ele><time>2026-04-26T07:40:24.411Z</time></trkpt><trkpt lat="43.913305" lon="12.6898424"><ele>137.39999999999998</ele><time>2026-04-26T07:40:25.412Z</time></trkpt><trkpt lat="43.9132898" lon="12.6897061"><ele>137.60000000000002</ele><time>2026-04-26T07:40:26.41Z</time></trkpt><trkpt lat="43.9132831" lon="12.6895632"><ele>137.8</ele><time>2026-04-26T07:40:27.417Z</time></trkpt><trkpt lat="43.9132797" lon="12.6894209"><ele>138.0</ele><time>2026-04-26T07:40:28.411Z</time></trkpt><trkpt lat="43.9132801" lon="12.6892879"><ele>137.25</ele><time>2026-04-26T07:40:29.414Z</time></trkpt><trkpt lat="43.9132849" lon="12.6891804"><ele>136.5</ele><time>2026-04-26T07:40:30.41Z</time></trkpt><trkpt lat="43.9133093" lon="12.689046"><ele>135.75</ele><time>2026-04-26T07:40:32.414Z</time></trkpt><trkpt lat="43.9134077" lon="12.6888223"><ele>135.0</ele><time>2026-04-26T07:40:35.417Z</time></trkpt><trkpt lat="43.9134295" lon="12.6886946"><ele>133.0</ele><time>2026-04-26T07:40:36.414Z</time></trkpt><trkpt lat="43.913462" lon="12.6885527"><ele>131.0</ele><time>2026-04-26T07:40:37.409Z</time></trkpt><trkpt lat="43.9134895" lon="12.6883981"><ele>129.0</ele><time>2026-04-26T07:40:38.413Z</time></trkpt><trkpt lat="43.9135223" lon="12.6882462"><ele>127.0</ele><time>2026-04-26T07:40:39.41Z</time></trkpt><trkpt lat="43.9135511" lon="12.6880957"><ele>125.0</ele><time>2026-04-26T07:40:40.41Z</time></trkpt><trkpt lat="43.9135693" lon="12.6879557"><ele>125.0</ele><time>2026-04-26T07:40:41.41Z</time></trkpt><trkpt lat="43.9135959" lon="12.6878173"><ele>125.0</ele><time>2026-04-26T07:40:42.414Z</time></trkpt><trkpt lat="43.9136289" lon="12.6876827"><ele>125.0</ele><time>2026-04-26T07:40:43.413Z</time></trkpt><trkpt lat="43.9136761" lon="12.6875558"><ele>125.0</ele><time>2026-04-26T07:40:44.409Z</time></trkpt><trkpt lat="43.9137288" lon="12.6874266"><ele>125.0</ele><time>2026-04-26T07:40:45.414Z</time></trkpt><trkpt lat="43.9137784" lon="12.6872984"><ele>125.2</ele><time>2026-04-26T07:40:46.409Z</time></trkpt><trkpt lat="43.9138258" lon="12.6871655"><ele>125.4</ele><time>2026-04-26T07:40:47.411Z</time></trkpt><trkpt lat="43.9138715" lon="12.6870375"><ele>125.6</ele><time>2026-04-26T07:40:48.41Z</time></trkpt><trkpt lat="43.9139097" lon="12.6869161"><ele>125.8</ele><time>2026-04-26T07:40:49.415Z</time></trkpt><trkpt lat="43.9139456" lon="12.6867988"><ele>126.0</ele><time>2026-04-26T07:40:50.411Z</time></trkpt><trkpt lat="43.9139725" lon="12.6866852"><ele>126.0</ele><time>2026-04-26T07:40:51.414Z</time></trkpt><trkpt lat="43.9139985" lon="12.6865811"><ele>126.0</ele><time>2026-04-26T07:40:52.409Z</time></trkpt><trkpt lat="43.9140215" lon="12.6864781"><ele>126.0</ele><time>2026-04-26T07:40:53.407Z</time></trkpt><trkpt lat="43.9140673" lon="12.6862525"><ele>126.0</ele><time>2026-04-26T07:40:55.407Z</time></trkpt><trkpt lat="43.9140838" lon="12.6861316"><ele>126.0</ele><time>2026-04-26T07:40:56.412Z</time></trkpt><trkpt lat="43.914097" lon="12.6860078"><ele>126.0</ele><time>2026-04-26T07:40:57.41Z</time></trkpt><trkpt lat="43.9141089" lon="12.6858896"><ele>126.0</ele><time>2026-04-26T07:40:58.414Z</time></trkpt><trkpt lat="43.9141197" lon="12.6857647"><ele>126.0</ele><time>2026-04-26T07:40:59.417Z</time></trkpt><trkpt lat="43.9141297" lon="12.6856386"><ele>126.0</ele><time>2026-04-26T07:41:00.412Z</time></trkpt><trkpt lat="43.9141379" lon="12.6855027"><ele>126.0</ele><time>2026-04-26T07:41:01.411Z</time></trkpt><trkpt lat="43.9141503" lon="12.6853628"><ele>126.33333333333333</ele><time>2026-04-26T07:41:02.413Z</time></trkpt><trkpt lat="43.9141604" lon="12.6852242"><ele>126.66666666666666</ele><time>2026-04-26T07:41:03.411Z</time></trkpt><trkpt lat="43.9141721" lon="12.6850884"><ele>127.0</ele><time>2026-04-26T07:41:04.409Z</time></trkpt><trkpt lat="43.9141801" lon="12.6849593"><ele>127.33333333333333</ele><time>2026-04-26T07:41:05.411Z</time></trkpt><trkpt lat="43.9141874" lon="12.6848419"><ele>127.66666666666666</ele><time>2026-04-26T07:41:06.411Z</time></trkpt><trkpt lat="43.9141972" lon="12.6847434"><ele>128.0</ele><time>2026-04-26T07:41:07.411Z</time></trkpt><trkpt lat="43.9142138" lon="12.6846539"><ele>125.80000000000001</ele><time>2026-04-26T07:41:08.413Z</time></trkpt><trkpt lat="43.9142864" lon="12.6845122"><ele>123.60000000000001</ele><time>2026-04-26T07:41:10.411Z</time></trkpt><trkpt lat="43.9143595" lon="12.6844548"><ele>121.39999999999999</ele><time>2026-04-26T07:41:11.41Z</time></trkpt><trkpt lat="43.9144537" lon="12.6844013"><ele>119.19999999999999</ele><time>2026-04-26T07:41:12.409Z</time></trkpt><trkpt lat="43.9145611" lon="12.6843235"><ele>117.0</ele><time>2026-04-26T07:41:13.415Z</time></trkpt><trkpt lat="43.9146709" lon="12.6842302"><ele>117.0</ele><time>2026-04-26T07:41:14.414Z</time></trkpt><trkpt lat="43.9148963" lon="12.6840621"><ele>117.0</ele><time>2026-04-26T07:41:16.41Z</time></trkpt><trkpt lat="43.9150097" lon="12.6839865"><ele>117.0</ele><time>2026-04-26T07:41:17.41Z</time></trkpt><trkpt lat="43.9151285" lon="12.6839243"><ele>113.5</ele><time>2026-04-26T07:41:18.41Z</time></trkpt><trkpt lat="43.9152447" lon="12.6838733"><ele>110.0</ele><time>2026-04-26T07:41:19.412Z</time></trkpt><trkpt lat="43.9153675" lon="12.6838478"><ele>106.5</ele><time>2026-04-26T07:41:20.412Z</time></trkpt><trkpt lat="43.9154877" lon="12.6838407"><ele>103.0</ele><time>2026-04-26T07:41:21.414Z</time></trkpt><trkpt lat="43.9156099" lon="12.6838563"><ele>103.0</ele><time>2026-04-26T07:41:22.408Z</time></trkpt><trkpt lat="43.9157346" lon="12.6838834"><ele>103.0</ele><time>2026-04-26T07:41:23.406Z</time></trkpt><trkpt lat="43.9158608" lon="12.683915"><ele>103.0</ele><time>2026-04-26T07:41:24.41Z</time></trkpt><trkpt lat="43.9159887" lon="12.6839446"><ele>103.0</ele><time>2026-04-26T07:41:25.411Z</time></trkpt><trkpt lat="43.9161147" lon="12.6839736"><ele>100.75</ele><time>2026-04-26T07:41:26.411Z</time></trkpt><trkpt lat="43.9162395" lon="12.6840056"><ele>98.5</ele><time>2026-04-26T07:41:27.41Z</time></trkpt><trkpt lat="43.9163572" lon="12.6840327"><ele>96.25</ele><time>2026-04-26T07:41:28.409Z</time></trkpt><trkpt lat="43.9164747" lon="12.6840617"><ele>94.0</ele><time>2026-04-26T07:41:29.409Z</time></trkpt><trkpt lat="43.9165909" lon="12.6840836"><ele>94.0</ele><time>2026-04-26T07:41:30.41Z</time></trkpt><trkpt lat="43.916708" lon="12.6841086"><ele>94.0</ele><time>2026-04-26T07:41:31.411Z</time></trkpt><trkpt lat="43.9168207" lon="12.6841297"><ele>94.0</ele><time>2026-04-26T07:41:32.414Z</time></trkpt><trkpt lat="43.9169342" lon="12.684157"><ele>94.0</ele><time>2026-04-26T07:41:33.416Z</time></trkpt><trkpt lat="43.9170434" lon="12.6841887"><ele>91.5</ele><time>2026-04-26T07:41:34.413Z</time></trkpt><trkpt lat="43.9171486" lon="12.6842254"><ele>89.0</ele><time>2026-04-26T07:41:35.413Z</time></trkpt><trkpt lat="43.9173604" lon="12.6842681"><ele>86.5</ele><time>2026-04-26T07:41:37.411Z</time></trkpt><trkpt lat="43.9174673" lon="12.684293"><ele>84.0</ele><time>2026-04-26T07:41:38.409Z</time></trkpt><trkpt lat="43.9175721" lon="12.6843163"><ele>82.0</ele><time>2026-04-26T07:41:39.41Z</time></trkpt><trkpt lat="43.9176782" lon="12.6843478"><ele>80.0</ele><time>2026-04-26T07:41:40.41Z</time></trkpt><trkpt lat="43.9177887" lon="12.6843816"><ele>78.0</ele><time>2026-04-26T07:41:41.411Z</time></trkpt><trkpt lat="43.9178975" lon="12.6844194"><ele>76.0</ele><time>2026-04-26T07:41:42.415Z</time></trkpt><trkpt lat="43.9180019" lon="12.6844451"><ele>74.0</ele><time>2026-04-26T07:41:43.415Z</time></trkpt><trkpt lat="43.9181076" lon="12.6844565"><ele>73.0</ele><time>2026-04-26T07:41:44.413Z</time></trkpt><trkpt lat="43.9182156" lon="12.6844596"><ele>72.0</ele><time>2026-04-26T07:41:45.411Z</time></trkpt><trkpt lat="43.9183308" lon="12.684474"><ele>71.0</ele><time>2026-04-26T07:41:46.409Z</time></trkpt><trkpt lat="43.9184439" lon="12.6845096"><ele>70.0</ele><time>2026-04-26T07:41:47.41Z</time></trkpt><trkpt lat="43.9185586" lon="12.6845643"><ele>67.5</ele><time>2026-04-26T07:41:48.41Z</time></trkpt><trkpt lat="43.9186714" lon="12.6846331"><ele>65.0</ele><time>2026-04-26T07:41:49.411Z</time></trkpt><trkpt lat="43.9187798" lon="12.6847046"><ele>62.5</ele><time>2026-04-26T07:41:50.41Z</time></trkpt><trkpt lat="43.9188872" lon="12.6847697"><ele>60.0</ele><time>2026-04-26T07:41:51.408Z</time></trkpt><trkpt lat="43.9189926" lon="12.6848325"><ele>60.0</ele><time>2026-04-26T07:41:52.407Z</time></trkpt><trkpt lat="43.9191004" lon="12.6848856"><ele>60.0</ele><time>2026-04-26T07:41:53.406Z</time></trkpt><trkpt lat="43.9192044" lon="12.68493"><ele>60.0</ele><time>2026-04-26T07:41:54.412Z</time></trkpt><trkpt lat="43.9193045" lon="12.6849703"><ele>60.0</ele><time>2026-04-26T07:41:55.41Z</time></trkpt><trkpt lat="43.9193961" lon="12.6849987"><ele>60.0</ele><time>2026-04-26T07:41:56.412Z</time></trkpt><trkpt lat="43.9195557" lon="12.684959"><ele>58.6</ele><time>2026-04-26T07:41:59.411Z</time></trkpt><trkpt lat="43.9196239" lon="12.6848328"><ele>57.2</ele><time>2026-04-26T07:42:01.415Z</time></trkpt><trkpt lat="43.9196605" lon="12.684743"><ele>55.8</ele><time>2026-04-26T07:42:02.412Z</time></trkpt><trkpt lat="43.919698" lon="12.6846356"><ele>54.4</ele><time>2026-04-26T07:42:03.413Z</time></trkpt><trkpt lat="43.9197384" lon="12.684517"><ele>53.0</ele><time>2026-04-26T07:42:04.411Z</time></trkpt><trkpt lat="43.9197787" lon="12.68438"><ele>52.0</ele><time>2026-04-26T07:42:05.409Z</time></trkpt><trkpt lat="43.9198223" lon="12.6842232"><ele>51.0</ele><time>2026-04-26T07:42:06.41Z</time></trkpt><trkpt lat="43.9198699" lon="12.6840657"><ele>50.0</ele><time>2026-04-26T07:42:07.415Z</time></trkpt><trkpt lat="43.9199156" lon="12.6839097"><ele>49.0</ele><time>2026-04-26T07:42:08.416Z</time></trkpt><trkpt lat="43.9199716" lon="12.6837702"><ele>49.0</ele><time>2026-04-26T07:42:09.41Z</time></trkpt><trkpt lat="43.9200519" lon="12.6836644"><ele>49.0</ele><time>2026-04-26T07:42:10.414Z</time></trkpt><trkpt lat="43.9201442" lon="12.6835859"><ele>49.0</ele><time>2026-04-26T07:42:11.41Z</time></trkpt><trkpt lat="43.9202386" lon="12.6835352"><ele>49.0</ele><time>2026-04-26T07:42:12.408Z</time></trkpt><trkpt lat="43.9203267" lon="12.6834913"><ele>49.0</ele><time>2026-04-26T07:42:13.411Z</time></trkpt><trkpt lat="43.9204064" lon="12.6834485"><ele>48.6</ele><time>2026-04-26T07:42:14.41Z</time></trkpt><trkpt lat="43.9204696" lon="12.6834028"><ele>48.2</ele><time>2026-04-26T07:42:15.411Z</time></trkpt><trkpt lat="43.9205168" lon="12.6832575"><ele>47.800000000000004</ele><time>2026-04-26T07:42:17.414Z</time></trkpt><trkpt lat="43.9205401" lon="12.6830496"><ele>47.400000000000006</ele><time>2026-04-26T07:42:19.414Z</time></trkpt><trkpt lat="43.9205524" lon="12.6829408"><ele>47.0</ele><time>2026-04-26T07:42:20.41Z</time></trkpt><trkpt lat="43.920565" lon="12.682832"><ele>47.666666666666664</ele><time>2026-04-26T07:42:21.407Z</time></trkpt><trkpt lat="43.9205582" lon="12.6827262"><ele>48.33333333333333</ele><time>2026-04-26T07:42:22.407Z</time></trkpt><trkpt lat="43.9205573" lon="12.6826316"><ele>49.0</ele><time>2026-04-26T07:42:23.41Z</time></trkpt><trkpt lat="43.9206509" lon="12.6825205"><ele>49.666666666666664</ele><time>2026-04-26T07:42:25.414Z</time></trkpt><trkpt lat="43.9207183" lon="12.6824679"><ele>50.333333333333336</ele><time>2026-04-26T07:42:26.415Z</time></trkpt><trkpt lat="43.920795" lon="12.6824147"><ele>51.0</ele><time>2026-04-26T07:42:27.417Z</time></trkpt><trkpt lat="43.9208803" lon="12.6823701"><ele>51.0</ele><time>2026-04-26T07:42:28.413Z</time></trkpt><trkpt lat="43.9209677" lon="12.6823165"><ele>51.0</ele><time>2026-04-26T07:42:29.415Z</time></trkpt><trkpt lat="43.9210631" lon="12.6822621"><ele>51.0</ele><time>2026-04-26T07:42:30.409Z</time></trkpt><trkpt lat="43.9211607" lon="12.6822033"><ele>51.0</ele><time>2026-04-26T07:42:31.409Z</time></trkpt><trkpt lat="43.9212602" lon="12.6821502"><ele>51.0</ele><time>2026-04-26T07:42:32.413Z</time></trkpt><trkpt lat="43.9213442" lon="12.6821004"><ele>51.0</ele><time>2026-04-26T07:42:33.41Z</time></trkpt><trkpt lat="43.9214232" lon="12.6820515"><ele>51.0</ele><time>2026-04-26T07:42:34.411Z</time></trkpt><trkpt lat="43.9215008" lon="12.6820014"><ele>51.0</ele><time>2026-04-26T07:42:35.41Z</time></trkpt><trkpt lat="43.9215813" lon="12.6819545"><ele>51.0</ele><time>2026-04-26T07:42:36.412Z</time></trkpt><trkpt lat="43.9216643" lon="12.6818995"><ele>51.0</ele><time>2026-04-26T07:42:37.412Z</time></trkpt><trkpt lat="43.9217642" lon="12.6818484"><ele>51.25</ele><time>2026-04-26T07:42:38.41Z</time></trkpt><trkpt lat="43.9219735" lon="12.6817365"><ele>51.5</ele><time>2026-04-26T07:42:40.414Z</time></trkpt><trkpt lat="43.9220716" lon="12.6816768"><ele>51.75</ele><time>2026-04-26T07:42:41.407Z</time></trkpt><trkpt lat="43.9221655" lon="12.681622"><ele>52.0</ele><time>2026-04-26T07:42:42.408Z</time></trkpt><trkpt lat="43.9222617" lon="12.6815693"><ele>52.0</ele><time>2026-04-26T07:42:43.408Z</time></trkpt><trkpt lat="43.9223535" lon="12.6815098"><ele>52.0</ele><time>2026-04-26T07:42:44.413Z</time></trkpt><trkpt lat="43.9224504" lon="12.6814534"><ele>52.0</ele><time>2026-04-26T07:42:45.412Z</time></trkpt><trkpt lat="43.9225456" lon="12.6813925"><ele>52.0</ele><time>2026-04-26T07:42:46.412Z</time></trkpt><trkpt lat="43.9226469" lon="12.6813304"><ele>52.0</ele><time>2026-04-26T07:42:47.411Z</time></trkpt><trkpt lat="43.9227522" lon="12.6812687"><ele>52.2</ele><time>2026-04-26T07:42:48.416Z</time></trkpt><trkpt lat="43.9228556" lon="12.6812054"><ele>52.400000000000006</ele><time>2026-04-26T07:42:49.411Z</time></trkpt><trkpt lat="43.9229524" lon="12.6811427"><ele>52.599999999999994</ele><time>2026-04-26T07:42:50.41Z</time></trkpt><trkpt lat="43.9230409" lon="12.6810953"><ele>52.8</ele><time>2026-04-26T07:42:51.41Z</time></trkpt><trkpt lat="43.9231259" lon="12.6810542"><ele>53.0</ele><time>2026-04-26T07:42:52.409Z</time></trkpt><trkpt lat="43.9232002" lon="12.6810177"><ele>53.0</ele><time>2026-04-26T07:42:53.411Z</time></trkpt><trkpt lat="43.9232682" lon="12.6809822"><ele>53.0</ele><time>2026-04-26T07:42:54.411Z</time></trkpt><trkpt lat="43.9233637" lon="12.6809278"><ele>53.0</ele><time>2026-04-26T07:42:56.414Z</time></trkpt><trkpt lat="43.9234346" lon="12.6809099"><ele>53.0</ele><time>2026-04-26T07:42:59.408Z</time></trkpt><trkpt lat="43.9234522" lon="12.6806936"><ele>53.0</ele><time>2026-04-26T07:43:06.412Z</time></trkpt><trkpt lat="43.92342" lon="12.6805935"><ele>53.2</ele><time>2026-04-26T07:43:07.414Z</time></trkpt><trkpt lat="43.9233811" lon="12.6804758"><ele>53.4</ele><time>2026-04-26T07:43:08.411Z</time></trkpt><trkpt lat="43.9233491" lon="12.6803336"><ele>53.60000000000001</ele><time>2026-04-26T07:43:09.41Z</time></trkpt><trkpt lat="43.9233108" lon="12.6801763"><ele>53.800000000000004</ele><time>2026-04-26T07:43:10.408Z</time></trkpt><trkpt lat="43.9232664" lon="12.6800107"><ele>54.0</ele><time>2026-04-26T07:43:11.408Z</time></trkpt><trkpt lat="43.9232248" lon="12.6798403"><ele>54.5</ele><time>2026-04-26T07:43:12.407Z</time></trkpt><trkpt lat="43.923188" lon="12.6796625"><ele>55.0</ele><time>2026-04-26T07:43:13.411Z</time></trkpt><trkpt lat="43.9231461" lon="12.6794818"><ele>55.5</ele><time>2026-04-26T07:43:14.411Z</time></trkpt><trkpt lat="43.9230978" lon="12.6792938"><ele>56.0</ele><time>2026-04-26T07:43:15.41Z</time></trkpt><trkpt lat="43.9230471" lon="12.679099"><ele>56.0</ele><time>2026-04-26T07:43:16.417Z</time></trkpt><trkpt lat="43.9229951" lon="12.6789052"><ele>56.0</ele><time>2026-04-26T07:43:17.411Z</time></trkpt><trkpt lat="43.9229422" lon="12.6787108"><ele>56.0</ele><time>2026-04-26T07:43:18.417Z</time></trkpt><trkpt lat="43.9228906" lon="12.6785214"><ele>56.0</ele><time>2026-04-26T07:43:19.413Z</time></trkpt><trkpt lat="43.9228434" lon="12.6783467"><ele>56.0</ele><time>2026-04-26T07:43:20.41Z</time></trkpt><trkpt lat="43.9227607" lon="12.6780203"><ele>56.0</ele><time>2026-04-26T07:43:22.413Z</time></trkpt><trkpt lat="43.9227182" lon="12.6778579"><ele>56.0</ele><time>2026-04-26T07:43:23.408Z</time></trkpt><trkpt lat="43.9226768" lon="12.6776917"><ele>56.0</ele><time>2026-04-26T07:43:24.412Z</time></trkpt><trkpt lat="43.9226371" lon="12.6775225"><ele>56.0</ele><time>2026-04-26T07:43:25.412Z</time></trkpt><trkpt lat="43.9225967" lon="12.6773547"><ele>56.0</ele><time>2026-04-26T07:43:26.408Z</time></trkpt><trkpt lat="43.9225593" lon="12.6772023"><ele>56.0</ele><time>2026-04-26T07:43:27.41Z</time></trkpt><trkpt lat="43.9225245" lon="12.6770669"><ele>56.00000000000001</ele><time>2026-04-26T07:43:28.411Z</time></trkpt><trkpt lat="43.9224934" lon="12.6769503"><ele>56.0</ele><time>2026-04-26T07:43:29.412Z</time></trkpt><trkpt lat="43.9224666" lon="12.6768486"><ele>56.0</ele><time>2026-04-26T07:43:30.41Z</time></trkpt><trkpt lat="43.9224391" lon="12.6767527"><ele>56.0</ele><time>2026-04-26T07:43:31.408Z</time></trkpt><trkpt lat="43.9224097" lon="12.6766673"><ele>56.00000000000001</ele><time>2026-04-26T07:43:32.406Z</time></trkpt><trkpt lat="43.9223878" lon="12.6765808"><ele>56.0</ele><time>2026-04-26T07:43:33.41Z</time></trkpt><trkpt lat="43.9223324" lon="12.6764384"><ele>56.0</ele><time>2026-04-26T07:43:35.416Z</time></trkpt><trkpt lat="43.9222255" lon="12.6763965"><ele>55.99999999999999</ele><time>2026-04-26T07:43:37.413Z</time></trkpt><trkpt lat="43.9220919" lon="12.676434"><ele>55.99999999999999</ele><time>2026-04-26T07:43:39.411Z</time></trkpt><trkpt lat="43.9220041" lon="12.6764305"><ele>56.0</ele><time>2026-04-26T07:43:40.412Z</time></trkpt><trkpt lat="43.921909" lon="12.6764037"><ele>56.0</ele><time>2026-04-26T07:43:41.412Z</time></trkpt><trkpt lat="43.92167" lon="12.6763487"><ele>56.25</ele><time>2026-04-26T07:43:43.409Z</time></trkpt><trkpt lat="43.9215234" lon="12.6763092"><ele>56.5</ele><time>2026-04-26T07:43:44.412Z</time></trkpt><trkpt lat="43.9213841" lon="12.6762816"><ele>56.75</ele><time>2026-04-26T07:43:45.411Z</time></trkpt><trkpt lat="43.9212282" lon="12.67625"><ele>57.0</ele><time>2026-04-26T07:43:46.416Z</time></trkpt><trkpt lat="43.9210635" lon="12.6762045"><ele>57.0</ele><time>2026-04-26T07:43:47.412Z</time></trkpt><trkpt lat="43.9209148" lon="12.6761598"><ele>57.0</ele><time>2026-04-26T07:43:48.417Z</time></trkpt><trkpt lat="43.9207758" lon="12.6761018"><ele>57.0</ele><time>2026-04-26T07:43:49.408Z</time></trkpt><trkpt lat="43.9206445" lon="12.676032"><ele>57.0</ele><time>2026-04-26T07:43:50.413Z</time></trkpt><trkpt lat="43.9205128" lon="12.6759491"><ele>57.25</ele><time>2026-04-26T07:43:51.409Z</time></trkpt><trkpt lat="43.9203856" lon="12.6758517"><ele>57.5</ele><time>2026-04-26T07:43:52.41Z</time></trkpt><trkpt lat="43.9202595" lon="12.6757461"><ele>57.75</ele><time>2026-04-26T07:43:53.405Z</time></trkpt><trkpt lat="43.920133" lon="12.675637"><ele>58.0</ele><time>2026-04-26T07:43:54.41Z</time></trkpt><trkpt lat="43.9200053" lon="12.6755298"><ele>58.0</ele><time>2026-04-26T07:43:55.41Z</time></trkpt><trkpt lat="43.919883" lon="12.6754175"><ele>58.0</ele><time>2026-04-26T07:43:56.41Z</time></trkpt><trkpt lat="43.9197659" lon="12.6753025"><ele>58.0</ele><time>2026-04-26T07:43:57.411Z</time></trkpt><trkpt lat="43.9196492" lon="12.6751915"><ele>58.0</ele><time>2026-04-26T07:43:58.411Z</time></trkpt><trkpt lat="43.919532" lon="12.6750817"><ele>58.25</ele><time>2026-04-26T07:43:59.415Z</time></trkpt><trkpt lat="43.9194151" lon="12.6749778"><ele>58.5</ele><time>2026-04-26T07:44:00.41Z</time></trkpt><trkpt lat="43.9193046" lon="12.6748758"><ele>58.75</ele><time>2026-04-26T07:44:01.409Z</time></trkpt><trkpt lat="43.9192019" lon="12.6747807"><ele>59.0</ele><time>2026-04-26T07:44:02.408Z</time></trkpt><trkpt lat="43.9190108" lon="12.6745886"><ele>59.2</ele><time>2026-04-26T07:44:04.412Z</time></trkpt><trkpt lat="43.9189181" lon="12.6745091"><ele>59.400000000000006</ele><time>2026-04-26T07:44:05.41Z</time></trkpt><trkpt lat="43.9188303" lon="12.6744288"><ele>59.6</ele><time>2026-04-26T07:44:06.418Z</time></trkpt><trkpt lat="43.9187463" lon="12.674359"><ele>59.8</ele><time>2026-04-26T07:44:07.409Z</time></trkpt><trkpt lat="43.9186673" lon="12.674286"><ele>60.0</ele><time>2026-04-26T07:44:08.42Z</time></trkpt><trkpt lat="43.9185947" lon="12.6742252"><ele>60.0</ele><time>2026-04-26T07:44:09.409Z</time></trkpt><trkpt lat="43.9185232" lon="12.6741685"><ele>60.0</ele><time>2026-04-26T07:44:10.409Z</time></trkpt><trkpt lat="43.918452" lon="12.6741067"><ele>60.0</ele><time>2026-04-26T07:44:11.408Z</time></trkpt><trkpt lat="43.9183823" lon="12.6740424"><ele>60.0</ele><time>2026-04-26T07:44:12.41Z</time></trkpt><trkpt lat="43.9183153" lon="12.6739828"><ele>60.0</ele><time>2026-04-26T07:44:13.408Z</time></trkpt><trkpt lat="43.9182572" lon="12.6739306"><ele>60.0</ele><time>2026-04-26T07:44:14.411Z</time></trkpt><trkpt lat="43.9182035" lon="12.6738797"><ele>60.2</ele><time>2026-04-26T07:44:15.411Z</time></trkpt><trkpt lat="43.9181508" lon="12.6738274"><ele>60.4</ele><time>2026-04-26T07:44:16.416Z</time></trkpt><trkpt lat="43.9180693" lon="12.6737541"><ele>60.599999999999994</ele><time>2026-04-26T07:44:18.409Z</time></trkpt><trkpt lat="43.9180063" lon="12.6736955"><ele>60.8</ele><time>2026-04-26T07:44:21.409Z</time></trkpt><trkpt lat="43.9179312" lon="12.6736769"><ele>61.0</ele><time>2026-04-26T07:49:02.41Z</time></trkpt><trkpt lat="43.9177465" lon="12.6734933"><ele>61.5</ele><time>2026-04-26T07:49:05.409Z</time></trkpt><trkpt lat="43.917654" lon="12.6734018"><ele>62.0</ele><time>2026-04-26T07:49:06.412Z</time></trkpt><trkpt lat="43.9175435" lon="12.6733077"><ele>62.5</ele><time>2026-04-26T07:49:07.406Z</time></trkpt><trkpt lat="43.9174197" lon="12.673205"><ele>63.0</ele><time>2026-04-26T07:49:08.415Z</time></trkpt><trkpt lat="43.9172912" lon="12.673095"><ele>63.0</ele><time>2026-04-26T07:49:09.406Z</time></trkpt><trkpt lat="43.9171673" lon="12.6729822"><ele>63.0</ele><time>2026-04-26T07:49:10.41Z</time></trkpt><trkpt lat="43.9170429" lon="12.6728669"><ele>63.0</ele><time>2026-04-26T07:49:11.406Z</time></trkpt><trkpt lat="43.9169177" lon="12.6727742"><ele>63.0</ele><time>2026-04-26T07:49:12.409Z</time></trkpt><trkpt lat="43.9167898" lon="12.6726873"><ele>63.33333333333333</ele><time>2026-04-26T07:49:13.411Z</time></trkpt><trkpt lat="43.9166533" lon="12.6726255"><ele>63.666666666666664</ele><time>2026-04-26T07:49:14.409Z</time></trkpt><trkpt lat="43.9164994" lon="12.6726166"><ele>64.0</ele><time>2026-04-26T07:49:15.413Z</time></trkpt><trkpt lat="43.9163355" lon="12.6726503"><ele>64.0</ele><time>2026-04-26T07:49:16.41Z</time></trkpt><trkpt lat="43.9161748" lon="12.6726871"><ele>64.0</ele><time>2026-04-26T07:49:17.411Z</time></trkpt><trkpt lat="43.9160129" lon="12.6727231"><ele>64.0</ele><time>2026-04-26T07:49:18.408Z</time></trkpt><trkpt lat="43.9158458" lon="12.6727659"><ele>63.0</ele><time>2026-04-26T07:49:19.413Z</time></trkpt><trkpt lat="43.9156811" lon="12.6727996"><ele>62.0</ele><time>2026-04-26T07:49:20.409Z</time></trkpt><trkpt lat="43.9155119" lon="12.6728265"><ele>61.0</ele><time>2026-04-26T07:49:21.413Z</time></trkpt><trkpt lat="43.9153383" lon="12.6728634"><ele>61.0</ele><time>2026-04-26T07:49:22.408Z</time></trkpt><trkpt lat="43.9151515" lon="12.6729034"><ele>61.0</ele><time>2026-04-26T07:49:23.408Z</time></trkpt><trkpt lat="43.9147492" lon="12.672995"><ele>60.666666666666664</ele><time>2026-04-26T07:49:25.409Z</time></trkpt><trkpt lat="43.9145375" lon="12.6730478"><ele>60.33333333333333</ele><time>2026-04-26T07:49:26.403Z</time></trkpt><trkpt lat="43.9143257" lon="12.6730965"><ele>60.0</ele><time>2026-04-26T07:49:27.406Z</time></trkpt><trkpt lat="43.9141205" lon="12.6731445"><ele>58.33333333333333</ele><time>2026-04-26T07:49:28.408Z</time></trkpt><trkpt lat="43.9139298" lon="12.673186"><ele>56.666666666666664</ele><time>2026-04-26T07:49:29.408Z</time></trkpt><trkpt lat="43.9137434" lon="12.673224"><ele>55.0</ele><time>2026-04-26T07:49:30.411Z</time></trkpt><trkpt lat="43.91356" lon="12.6732724"><ele>55.0</ele><time>2026-04-26T07:49:31.411Z</time></trkpt><trkpt lat="43.9133857" lon="12.6733375"><ele>55.0</ele><time>2026-04-26T07:49:32.409Z</time></trkpt><trkpt lat="43.9132169" lon="12.6734344"><ele>55.0</ele><time>2026-04-26T07:49:33.41Z</time></trkpt><trkpt lat="43.9130495" lon="12.6735206"><ele>55.0</ele><time>2026-04-26T07:49:34.41Z</time></trkpt><trkpt lat="43.9128776" lon="12.6735612"><ele>55.0</ele><time>2026-04-26T07:49:35.41Z</time></trkpt><trkpt lat="43.9126951" lon="12.6735515"><ele>55.0</ele><time>2026-04-26T07:49:36.416Z</time></trkpt><trkpt lat="43.9125059" lon="12.6735039"><ele>55.0</ele><time>2026-04-26T07:49:37.417Z</time></trkpt><trkpt lat="43.9123137" lon="12.6734433"><ele>55.0</ele><time>2026-04-26T07:49:38.41Z</time></trkpt><trkpt lat="43.9121078" lon="12.6733868"><ele>55.0</ele><time>2026-04-26T07:49:39.418Z</time></trkpt><trkpt lat="43.9118986" lon="12.6733396"><ele>56.0</ele><time>2026-04-26T07:49:40.409Z</time></trkpt><trkpt lat="43.9116986" lon="12.673314"><ele>57.0</ele><time>2026-04-26T07:49:41.412Z</time></trkpt><trkpt lat="43.9115003" lon="12.6733075"><ele>58.0</ele><time>2026-04-26T07:49:42.408Z</time></trkpt><trkpt lat="43.9113055" lon="12.6733207"><ele>58.0</ele><time>2026-04-26T07:49:43.414Z</time></trkpt><trkpt lat="43.9111161" lon="12.6733322"><ele>58.0</ele><time>2026-04-26T07:49:44.409Z</time></trkpt><trkpt lat="43.9107322" lon="12.6733581"><ele>58.0</ele><time>2026-04-26T07:49:46.404Z</time></trkpt><trkpt lat="43.9105387" lon="12.6733773"><ele>58.0</ele><time>2026-04-26T07:49:47.406Z</time></trkpt><trkpt lat="43.9103331" lon="12.6734082"><ele>58.0</ele><time>2026-04-26T07:49:48.411Z</time></trkpt><trkpt lat="43.9101265" lon="12.6734364"><ele>59.666666666666664</ele><time>2026-04-26T07:49:49.412Z</time></trkpt><trkpt lat="43.9099372" lon="12.6734437"><ele>61.33333333333333</ele><time>2026-04-26T07:49:50.413Z</time></trkpt><trkpt lat="43.9097651" lon="12.6734551"><ele>63.0</ele><time>2026-04-26T07:49:51.409Z</time></trkpt><trkpt lat="43.9096134" lon="12.673487"><ele>63.0</ele><time>2026-04-26T07:49:52.41Z</time></trkpt><trkpt lat="43.9094754" lon="12.6735398"><ele>63.0</ele><time>2026-04-26T07:49:53.411Z</time></trkpt><trkpt lat="43.9093662" lon="12.6736734"><ele>63.0</ele><time>2026-04-26T07:49:54.411Z</time></trkpt><trkpt lat="43.9092699" lon="12.6738448"><ele>63.0</ele><time>2026-04-26T07:49:55.413Z</time></trkpt><trkpt lat="43.9091836" lon="12.6740495"><ele>63.33333333333333</ele><time>2026-04-26T07:49:56.411Z</time></trkpt><trkpt lat="43.9090648" lon="12.6742355"><ele>63.666666666666664</ele><time>2026-04-26T07:49:57.41Z</time></trkpt><trkpt lat="43.9089221" lon="12.6743982"><ele>64.0</ele><time>2026-04-26T07:49:58.41Z</time></trkpt><trkpt lat="43.9087685" lon="12.6745342"><ele>64.0</ele><time>2026-04-26T07:49:59.413Z</time></trkpt><trkpt lat="43.9085947" lon="12.6746501"><ele>64.0</ele><time>2026-04-26T07:50:00.412Z</time></trkpt><trkpt lat="43.9084182" lon="12.6747759"><ele>64.0</ele><time>2026-04-26T07:50:01.418Z</time></trkpt><trkpt lat="43.9082366" lon="12.6749229"><ele>67.33333333333333</ele><time>2026-04-26T07:50:02.412Z</time></trkpt><trkpt lat="43.9080571" lon="12.6750823"><ele>70.66666666666667</ele><time>2026-04-26T07:50:03.417Z</time></trkpt><trkpt lat="43.9078846" lon="12.6752616"><ele>74.0</ele><time>2026-04-26T07:50:04.408Z</time></trkpt><trkpt lat="43.9077068" lon="12.6754244"><ele>77.5</ele><time>2026-04-26T07:50:05.409Z</time></trkpt><trkpt lat="43.9073127" lon="12.6756485"><ele>81.0</ele><time>2026-04-26T07:50:07.41Z</time></trkpt><trkpt lat="43.9070952" lon="12.6757247"><ele>81.0</ele><time>2026-04-26T07:50:08.413Z</time></trkpt><trkpt lat="43.9068782" lon="12.6757682"><ele>81.0</ele><time>2026-04-26T07:50:09.414Z</time></trkpt><trkpt lat="43.906667" lon="12.6757898"><ele>81.0</ele><time>2026-04-26T07:50:10.41Z</time></trkpt><trkpt lat="43.9064701" lon="12.6757883"><ele>84.33333333333333</ele><time>2026-04-26T07:50:11.409Z</time></trkpt><trkpt lat="43.906281" lon="12.6757428"><ele>87.66666666666666</ele><time>2026-04-26T07:50:12.414Z</time></trkpt><trkpt lat="43.9060874" lon="12.6756494"><ele>91.0</ele><time>2026-04-26T07:50:13.408Z</time></trkpt><trkpt lat="43.9058921" lon="12.675537"><ele>92.0</ele><time>2026-04-26T07:50:14.417Z</time></trkpt><trkpt lat="43.9057085" lon="12.6754143"><ele>93.0</ele><time>2026-04-26T07:50:15.408Z</time></trkpt><trkpt lat="43.9055391" lon="12.6752886"><ele>94.0</ele><time>2026-04-26T07:50:16.406Z</time></trkpt><trkpt lat="43.9053728" lon="12.675137"><ele>96.66666666666666</ele><time>2026-04-26T07:50:17.408Z</time></trkpt><trkpt lat="43.9052149" lon="12.6749504"><ele>99.33333333333333</ele><time>2026-04-26T07:50:18.408Z</time></trkpt><trkpt lat="43.9050746" lon="12.6747532"><ele>102.0</ele><time>2026-04-26T07:50:19.408Z</time></trkpt><trkpt lat="43.9049363" lon="12.6745813"><ele>102.0</ele><time>2026-04-26T07:50:20.41Z</time></trkpt><trkpt lat="43.9047875" lon="12.6744529"><ele>102.0</ele><time>2026-04-26T07:50:21.415Z</time></trkpt><trkpt lat="43.9046271" lon="12.6743743"><ele>102.0</ele><time>2026-04-26T07:50:22.411Z</time></trkpt><trkpt lat="43.904446" lon="12.6743419"><ele>104.33333333333334</ele><time>2026-04-26T07:50:23.406Z</time></trkpt><trkpt lat="43.9042674" lon="12.6743328"><ele>106.66666666666667</ele><time>2026-04-26T07:50:24.409Z</time></trkpt><trkpt lat="43.9040907" lon="12.6743026"><ele>109.0</ele><time>2026-04-26T07:50:25.409Z</time></trkpt><trkpt lat="43.9039068" lon="12.6742307"><ele>110.0</ele><time>2026-04-26T07:50:26.408Z</time></trkpt><trkpt lat="43.9035458" lon="12.6740369"><ele>111.0</ele><time>2026-04-26T07:50:28.41Z</time></trkpt><trkpt lat="43.9033691" lon="12.6739315"><ele>111.66666666666666</ele><time>2026-04-26T07:50:29.408Z</time></trkpt><trkpt lat="43.9031911" lon="12.6738234"><ele>112.33333333333333</ele><time>2026-04-26T07:50:30.412Z</time></trkpt><trkpt lat="43.9030153" lon="12.6737161"><ele>113.0</ele><time>2026-04-26T07:50:31.412Z</time></trkpt><trkpt lat="43.9028425" lon="12.6736333"><ele>114.33333333333333</ele><time>2026-04-26T07:50:32.416Z</time></trkpt><trkpt lat="43.9026675" lon="12.6735798"><ele>115.66666666666666</ele><time>2026-04-26T07:50:33.407Z</time></trkpt><trkpt lat="43.9024759" lon="12.6735587"><ele>117.0</ele><time>2026-04-26T07:50:34.411Z</time></trkpt><trkpt lat="43.9022728" lon="12.6735687"><ele>116.0</ele><time>2026-04-26T07:50:35.414Z</time></trkpt><trkpt lat="43.902068" lon="12.6736083"><ele>115.0</ele><time>2026-04-26T07:50:36.409Z</time></trkpt><trkpt lat="43.901857" lon="12.6736661"><ele>114.0</ele><time>2026-04-26T07:50:37.409Z</time></trkpt><trkpt lat="43.9016449" lon="12.6737413"><ele>116.66666666666666</ele><time>2026-04-26T07:50:38.412Z</time></trkpt><trkpt lat="43.9014476" lon="12.6738257"><ele>119.33333333333333</ele><time>2026-04-26T07:50:39.41Z</time></trkpt><trkpt lat="43.9012718" lon="12.6739309"><ele>122.0</ele><time>2026-04-26T07:50:40.41Z</time></trkpt><trkpt lat="43.9011071" lon="12.674083"><ele>122.0</ele><time>2026-04-26T07:50:41.406Z</time></trkpt><trkpt lat="43.9009502" lon="12.6742609"><ele>122.0</ele><time>2026-04-26T07:50:42.408Z</time></trkpt><trkpt lat="43.9008073" lon="12.6744206"><ele>122.0</ele><time>2026-04-26T07:50:43.41Z</time></trkpt><trkpt lat="43.9006592" lon="12.6745317"><ele>124.0</ele><time>2026-04-26T07:50:44.407Z</time></trkpt><trkpt lat="43.9005056" lon="12.67459"><ele>126.0</ele><time>2026-04-26T07:50:45.409Z</time></trkpt><trkpt lat="43.9003537" lon="12.674599"><ele>128.0</ele><time>2026-04-26T07:50:46.406Z</time></trkpt><trkpt lat="43.9002057" lon="12.6745828"><ele>130.66666666666666</ele><time>2026-04-26T07:50:47.405Z</time></trkpt><trkpt lat="43.8999263" lon="12.6746242"><ele>133.33333333333334</ele><time>2026-04-26T07:50:49.41Z</time></trkpt><trkpt lat="43.8998046" lon="12.6746917"><ele>136.0</ele><time>2026-04-26T07:50:50.411Z</time></trkpt><trkpt lat="43.8997013" lon="12.674794"><ele>136.0</ele><time>2026-04-26T07:50:51.411Z</time></trkpt><trkpt lat="43.8996128" lon="12.6749113"><ele>136.0</ele><time>2026-04-26T07:50:52.41Z</time></trkpt><trkpt lat="43.8995264" lon="12.6750314"><ele>136.0</ele><time>2026-04-26T07:50:53.411Z</time></trkpt><trkpt lat="43.8994354" lon="12.6751689"><ele>136.0</ele><time>2026-04-26T07:50:54.409Z</time></trkpt><trkpt lat="43.8993439" lon="12.6753095"><ele>137.75</ele><time>2026-04-26T07:50:55.409Z</time></trkpt><trkpt lat="43.8992498" lon="12.6754559"><ele>139.5</ele><time>2026-04-26T07:50:56.412Z</time></trkpt><trkpt lat="43.8991599" lon="12.6755929"><ele>141.25</ele><time>2026-04-26T07:50:57.411Z</time></trkpt><trkpt lat="43.8990772" lon="12.6757354"><ele>143.0</ele><time>2026-04-26T07:50:58.413Z</time></trkpt><trkpt lat="43.8990202" lon="12.6758795"><ele>143.0</ele><time>2026-04-26T07:50:59.409Z</time></trkpt><trkpt lat="43.8989925" lon="12.6760332"><ele>143.0</ele><time>2026-04-26T07:51:00.41Z</time></trkpt><trkpt lat="43.8989937" lon="12.6761991"><ele>143.0</ele><time>2026-04-26T07:51:01.406Z</time></trkpt><trkpt lat="43.8990178" lon="12.6763672"><ele>143.0</ele><time>2026-04-26T07:51:02.411Z</time></trkpt><trkpt lat="43.8990499" lon="12.6765314"><ele>143.5</ele><time>2026-04-26T07:51:03.408Z</time></trkpt><trkpt lat="43.8990883" lon="12.6767058"><ele>144.0</ele><time>2026-04-26T07:51:04.414Z</time></trkpt><trkpt lat="43.8991208" lon="12.6768806"><ele>144.5</ele><time>2026-04-26T07:51:05.406Z</time></trkpt><trkpt lat="43.8991346" lon="12.6770566"><ele>145.0</ele><time>2026-04-26T07:51:06.406Z</time></trkpt><trkpt lat="43.8991356" lon="12.6772296"><ele>145.33333333333334</ele><time>2026-04-26T07:51:07.408Z</time></trkpt><trkpt lat="43.8991276" lon="12.6773968"><ele>145.66666666666666</ele><time>2026-04-26T07:51:08.408Z</time></trkpt><trkpt lat="43.8990808" lon="12.6777178"><ele>146.0</ele><time>2026-04-26T07:51:10.41Z</time></trkpt><trkpt lat="43.8990461" lon="12.6778765"><ele>146.0</ele><time>2026-04-26T07:51:11.411Z</time></trkpt><trkpt lat="43.8990151" lon="12.6780407"><ele>146.0</ele><time>2026-04-26T07:51:12.411Z</time></trkpt><trkpt lat="43.8989921" lon="12.6782108"><ele>146.0</ele><time>2026-04-26T07:51:13.409Z</time></trkpt><trkpt lat="43.8989703" lon="12.6783923"><ele>146.0</ele><time>2026-04-26T07:51:14.408Z</time></trkpt><trkpt lat="43.8989575" lon="12.6785676"><ele>146.4</ele><time>2026-04-26T07:51:15.409Z</time></trkpt><trkpt lat="43.8989461" lon="12.6787283"><ele>146.8</ele><time>2026-04-26T07:51:16.41Z</time></trkpt><trkpt lat="43.8989277" lon="12.6788571"><ele>147.20000000000002</ele><time>2026-04-26T07:51:17.411Z</time></trkpt><trkpt lat="43.8988978" lon="12.678963"><ele>147.6</ele><time>2026-04-26T07:51:18.407Z</time></trkpt><trkpt lat="43.898866" lon="12.6790636"><ele>148.0</ele><time>2026-04-26T07:51:19.407Z</time></trkpt><trkpt lat="43.898846" lon="12.6791878"><ele>148.0</ele><time>2026-04-26T07:51:20.411Z</time></trkpt><trkpt lat="43.8988355" lon="12.6793146"><ele>148.0</ele><time>2026-04-26T07:51:21.409Z</time></trkpt><trkpt lat="43.8988282" lon="12.6794422"><ele>148.0</ele><time>2026-04-26T07:51:22.411Z</time></trkpt><trkpt lat="43.8988234" lon="12.6795643"><ele>148.0</ele><time>2026-04-26T07:51:23.409Z</time></trkpt><trkpt lat="43.8988125" lon="12.6796741"><ele>148.0</ele><time>2026-04-26T07:51:24.416Z</time></trkpt><trkpt lat="43.8988007" lon="12.6797821"><ele>148.0</ele><time>2026-04-26T07:51:25.41Z</time></trkpt><trkpt lat="43.8987929" lon="12.6798853"><ele>148.6</ele><time>2026-04-26T07:51:26.407Z</time></trkpt><trkpt lat="43.8987828" lon="12.6799858"><ele>149.20000000000002</ele><time>2026-04-26T07:51:27.409Z</time></trkpt><trkpt lat="43.8987673" lon="12.6800932"><ele>149.8</ele><time>2026-04-26T07:51:28.409Z</time></trkpt><trkpt lat="43.8987599" lon="12.6802039"><ele>150.4</ele><time>2026-04-26T07:51:29.408Z</time></trkpt><trkpt lat="43.8987747" lon="12.680438"><ele>151.0</ele><time>2026-04-26T07:51:31.412Z</time></trkpt><trkpt lat="43.898811" lon="12.6805414"><ele>151.0</ele><time>2026-04-26T07:51:32.406Z</time></trkpt><trkpt lat="43.8988918" lon="12.6806283"><ele>151.0</ele><time>2026-04-26T07:51:34.407Z</time></trkpt><trkpt lat="43.898947" lon="12.6805286"><ele>151.0</ele><time>2026-04-26T07:51:37.413Z</time></trkpt><trkpt lat="43.8989431" lon="12.6804121"><ele>151.0</ele><time>2026-04-26T07:51:38.407Z</time></trkpt><trkpt lat="43.8989409" lon="12.6802721"><ele>151.0</ele><time>2026-04-26T07:51:39.408Z</time></trkpt><trkpt lat="43.898944" lon="12.6801202"><ele>151.0</ele><time>2026-04-26T07:51:40.409Z</time></trkpt><trkpt lat="43.8989511" lon="12.6799899"><ele>151.0</ele><time>2026-04-26T07:51:41.408Z</time></trkpt><trkpt lat="43.8989599" lon="12.6798881"><ele>151.0</ele><time>2026-04-26T07:51:42.411Z</time></trkpt><trkpt lat="43.8989615" lon="12.6797817"><ele>151.0</ele><time>2026-04-26T07:51:45.414Z</time></trkpt><trkpt lat="43.898894" lon="12.6798049"><ele>151.0</ele><time>2026-04-26T07:52:43.406Z</time></trkpt><trkpt lat="43.8989012" lon="12.6800801"><ele>151.0</ele><time>2026-04-26T07:52:45.408Z</time></trkpt><trkpt lat="43.8989036" lon="12.6802596"><ele>151.0</ele><time>2026-04-26T07:52:46.409Z</time></trkpt><trkpt lat="43.8989096" lon="12.6804632"><ele>151.0</ele><time>2026-04-26T07:52:47.41Z</time></trkpt><trkpt lat="43.8989259" lon="12.6806651"><ele>151.0</ele><time>2026-04-26T07:52:48.409Z</time></trkpt><trkpt lat="43.8989875" lon="12.6808576"><ele>152.25</ele><time>2026-04-26T07:52:49.413Z</time></trkpt><trkpt lat="43.8990747" lon="12.681032"><ele>153.5</ele><time>2026-04-26T07:52:50.411Z</time></trkpt><trkpt lat="43.8991479" lon="12.6811902"><ele>154.75</ele><time>2026-04-26T07:52:51.409Z</time></trkpt><trkpt lat="43.8991799" lon="12.6813387"><ele>156.0</ele><time>2026-04-26T07:52:52.406Z</time></trkpt><trkpt lat="43.8991679" lon="12.6814693"><ele>157.75</ele><time>2026-04-26T07:52:53.405Z</time></trkpt><trkpt lat="43.8991048" lon="12.6815548"><ele>159.5</ele><time>2026-04-26T07:52:54.406Z</time></trkpt><trkpt lat="43.8990069" lon="12.6816017"><ele>161.25</ele><time>2026-04-26T07:52:55.407Z</time></trkpt><trkpt lat="43.8988781" lon="12.6816223"><ele>163.0</ele><time>2026-04-26T07:52:56.408Z</time></trkpt><trkpt lat="43.8987454" lon="12.6816358"><ele>163.0</ele><time>2026-04-26T07:52:57.412Z</time></trkpt><trkpt lat="43.8986061" lon="12.6816464"><ele>163.0</ele><time>2026-04-26T07:52:58.41Z</time></trkpt><trkpt lat="43.8984467" lon="12.6816535"><ele>163.0</ele><time>2026-04-26T07:52:59.414Z</time></trkpt><trkpt lat="43.898293" lon="12.6816552"><ele>163.5</ele><time>2026-04-26T07:53:00.407Z</time></trkpt><trkpt lat="43.8981539" lon="12.6816679"><ele>164.0</ele><time>2026-04-26T07:53:01.406Z</time></trkpt><trkpt lat="43.8980152" lon="12.6816945"><ele>164.5</ele><time>2026-04-26T07:53:02.407Z</time></trkpt><trkpt lat="43.8978874" lon="12.6817696"><ele>165.0</ele><time>2026-04-26T07:53:03.41Z</time></trkpt><trkpt lat="43.8977483" lon="12.6818922"><ele>167.66666666666666</ele><time>2026-04-26T07:53:04.41Z</time></trkpt><trkpt lat="43.8975077" lon="12.6821025"><ele>170.33333333333331</ele><time>2026-04-26T07:53:06.414Z</time></trkpt><trkpt lat="43.8973947" lon="12.6821689"><ele>173.0</ele><time>2026-04-26T07:53:07.409Z</time></trkpt><trkpt lat="43.8972772" lon="12.6822224"><ele>173.0</ele><time>2026-04-26T07:53:08.406Z</time></trkpt><trkpt lat="43.8971619" lon="12.6822746"><ele>173.0</ele><time>2026-04-26T07:53:09.41Z</time></trkpt><trkpt lat="43.8970538" lon="12.682315"><ele>173.0</ele><time>2026-04-26T07:53:10.411Z</time></trkpt><trkpt lat="43.8969499" lon="12.6823449"><ele>173.0</ele><time>2026-04-26T07:53:11.408Z</time></trkpt><trkpt lat="43.8968622" lon="12.6823622"><ele>173.0</ele><time>2026-04-26T07:53:12.41Z</time></trkpt><trkpt lat="43.8967869" lon="12.6823752"><ele>173.0</ele><time>2026-04-26T07:53:13.407Z</time></trkpt><trkpt lat="43.8966766" lon="12.6824213"><ele>173.0</ele><time>2026-04-26T07:53:15.411Z</time></trkpt><trkpt lat="43.896654" lon="12.6825316"><ele>173.0</ele><time>2026-04-26T07:53:17.406Z</time></trkpt><trkpt lat="43.8967171" lon="12.6826079"><ele>173.0</ele><time>2026-04-26T07:53:19.415Z</time></trkpt><trkpt lat="43.8968059" lon="12.6826886"><ele>173.0</ele><time>2026-04-26T07:53:21.412Z</time></trkpt><trkpt lat="43.896859" lon="12.6827368"><ele>173.0</ele><time>2026-04-26T07:53:22.408Z</time></trkpt><trkpt lat="43.8969269" lon="12.6828067"><ele>173.0</ele><time>2026-04-26T07:53:23.408Z</time></trkpt><trkpt lat="43.8970098" lon="12.6828875"><ele>173.0</ele><time>2026-04-26T07:53:24.411Z</time></trkpt><trkpt lat="43.8971081" lon="12.6829793"><ele>173.0</ele><time>2026-04-26T07:53:25.412Z</time></trkpt><trkpt lat="43.8972932" lon="12.6832247"><ele>173.0</ele><time>2026-04-26T07:53:27.418Z</time></trkpt><trkpt lat="43.8973716" lon="12.6833658"><ele>173.0</ele><time>2026-04-26T07:53:28.411Z</time></trkpt><trkpt lat="43.897447" lon="12.6835129"><ele>173.0</ele><time>2026-04-26T07:53:29.417Z</time></trkpt><trkpt lat="43.8975182" lon="12.6836646"><ele>173.0</ele><time>2026-04-26T07:53:30.407Z</time></trkpt><trkpt lat="43.8975864" lon="12.6838174"><ele>169.66666666666666</ele><time>2026-04-26T07:53:31.41Z</time></trkpt><trkpt lat="43.8976562" lon="12.6839897"><ele>166.33333333333334</ele><time>2026-04-26T07:53:32.408Z</time></trkpt><trkpt lat="43.8977249" lon="12.684176"><ele>163.0</ele><time>2026-04-26T07:53:33.408Z</time></trkpt><trkpt lat="43.897795" lon="12.6843766"><ele>162.33333333333334</ele><time>2026-04-26T07:53:34.41Z</time></trkpt><trkpt lat="43.8978613" lon="12.6845839"><ele>161.66666666666666</ele><time>2026-04-26T07:53:35.408Z</time></trkpt><trkpt lat="43.8979122" lon="12.6847971"><ele>161.0</ele><time>2026-04-26T07:53:36.413Z</time></trkpt><trkpt lat="43.8979446" lon="12.6850167"><ele>161.0</ele><time>2026-04-26T07:53:37.406Z</time></trkpt><trkpt lat="43.8979567" lon="12.6852482"><ele>161.0</ele><time>2026-04-26T07:53:38.414Z</time></trkpt><trkpt lat="43.8979633" lon="12.6854947"><ele>161.0</ele><time>2026-04-26T07:53:39.408Z</time></trkpt><trkpt lat="43.8979852" lon="12.6857489"><ele>160.0</ele><time>2026-04-26T07:53:40.412Z</time></trkpt><trkpt lat="43.8980173" lon="12.6860109"><ele>159.0</ele><time>2026-04-26T07:53:41.416Z</time></trkpt><trkpt lat="43.8980529" lon="12.6862783"><ele>158.0</ele><time>2026-04-26T07:53:42.412Z</time></trkpt><trkpt lat="43.8980814" lon="12.6865428"><ele>156.66666666666666</ele><time>2026-04-26T07:53:43.415Z</time></trkpt><trkpt lat="43.8981041" lon="12.6868054"><ele>155.33333333333334</ele><time>2026-04-26T07:53:44.408Z</time></trkpt><trkpt lat="43.8981219" lon="12.6870633"><ele>154.0</ele><time>2026-04-26T07:53:45.408Z</time></trkpt><trkpt lat="43.8981385" lon="12.6873216"><ele>151.0</ele><time>2026-04-26T07:53:46.407Z</time></trkpt><trkpt lat="43.8981358" lon="12.6878865"><ele>148.0</ele><time>2026-04-26T07:53:48.412Z</time></trkpt><trkpt lat="43.8980999" lon="12.6881772"><ele>148.0</ele><time>2026-04-26T07:53:49.411Z</time></trkpt><trkpt lat="43.8980404" lon="12.6884752"><ele>148.0</ele><time>2026-04-26T07:53:50.409Z</time></trkpt><trkpt lat="43.8979679" lon="12.6887769"><ele>147.33333333333334</ele><time>2026-04-26T07:53:51.41Z</time></trkpt><trkpt lat="43.8978999" lon="12.6890757"><ele>146.66666666666666</ele><time>2026-04-26T07:53:52.414Z</time></trkpt><trkpt lat="43.8978461" lon="12.6893739"><ele>146.0</ele><time>2026-04-26T07:53:53.411Z</time></trkpt><trkpt lat="43.897802" lon="12.6896712"><ele>145.0</ele><time>2026-04-26T07:53:54.408Z</time></trkpt><trkpt lat="43.8977581" lon="12.6899703"><ele>144.0</ele><time>2026-04-26T07:53:55.414Z</time></trkpt><trkpt lat="43.8977295" lon="12.6902761"><ele>143.0</ele><time>2026-04-26T07:53:56.407Z</time></trkpt><trkpt lat="43.8977041" lon="12.6905843"><ele>143.0</ele><time>2026-04-26T07:53:57.407Z</time></trkpt><trkpt lat="43.8976748" lon="12.6908912"><ele>143.0</ele><time>2026-04-26T07:53:58.409Z</time></trkpt><trkpt lat="43.8976313" lon="12.6912002"><ele>148.0</ele><time>2026-04-26T07:53:59.415Z</time></trkpt><trkpt lat="43.8975792" lon="12.6915023"><ele>153.0</ele><time>2026-04-26T07:54:00.41Z</time></trkpt><trkpt lat="43.8975192" lon="12.6918114"><ele>154.0</ele><time>2026-04-26T07:54:01.408Z</time></trkpt><trkpt lat="43.8974452" lon="12.6921215"><ele>155.0</ele><time>2026-04-26T07:54:02.409Z</time></trkpt><trkpt lat="43.8973625" lon="12.6924197"><ele>155.0</ele><time>2026-04-26T07:54:03.407Z</time></trkpt><trkpt lat="43.8972707" lon="12.6927001"><ele>155.0</ele><time>2026-04-26T07:54:04.412Z</time></trkpt><trkpt lat="43.8971903" lon="12.692978"><ele>155.0</ele><time>2026-04-26T07:54:05.41Z</time></trkpt><trkpt lat="43.8971268" lon="12.6932449"><ele>154.5</ele><time>2026-04-26T07:54:06.411Z</time></trkpt><trkpt lat="43.8970989" lon="12.6935061"><ele>154.0</ele><time>2026-04-26T07:54:07.409Z</time></trkpt><trkpt lat="43.8971605" lon="12.6939769"><ele>153.66666666666669</ele><time>2026-04-26T07:54:09.406Z</time></trkpt><trkpt lat="43.8972251" lon="12.6941946"><ele>153.33333333333334</ele><time>2026-04-26T07:54:10.409Z</time></trkpt><trkpt lat="43.8973097" lon="12.6943951"><ele>153.0</ele><time>2026-04-26T07:54:11.409Z</time></trkpt><trkpt lat="43.8974113" lon="12.6945841"><ele>154.66666666666666</ele><time>2026-04-26T07:54:12.411Z</time></trkpt><trkpt lat="43.8975223" lon="12.6947669"><ele>156.33333333333331</ele><time>2026-04-26T07:54:13.41Z</time></trkpt><trkpt lat="43.8976457" lon="12.6949521"><ele>158.0</ele><time>2026-04-26T07:54:14.412Z</time></trkpt><trkpt lat="43.8977773" lon="12.6951538"><ele>157.33333333333331</ele><time>2026-04-26T07:54:15.408Z</time></trkpt><trkpt lat="43.8979124" lon="12.6953519"><ele>156.66666666666666</ele><time>2026-04-26T07:54:16.405Z</time></trkpt><trkpt lat="43.8980553" lon="12.6955347"><ele>156.0</ele><time>2026-04-26T07:54:17.405Z</time></trkpt><trkpt lat="43.8982241" lon="12.6957089"><ele>156.0</ele><time>2026-04-26T07:54:18.408Z</time></trkpt><trkpt lat="43.8984061" lon="12.6958779"><ele>156.0</ele><time>2026-04-26T07:54:19.408Z</time></trkpt><trkpt lat="43.8985865" lon="12.6960292"><ele>156.0</ele><time>2026-04-26T07:54:20.407Z</time></trkpt><trkpt lat="43.8987605" lon="12.6961612"><ele>155.0</ele><time>2026-04-26T07:54:21.408Z</time></trkpt><trkpt lat="43.8989388" lon="12.6962762"><ele>154.0</ele><time>2026-04-26T07:54:22.409Z</time></trkpt><trkpt lat="43.8991126" lon="12.6963784"><ele>153.0</ele><time>2026-04-26T07:54:23.409Z</time></trkpt><trkpt lat="43.8992639" lon="12.69647"><ele>153.0</ele><time>2026-04-26T07:54:24.411Z</time></trkpt><trkpt lat="43.8993933" lon="12.6965503"><ele>153.0</ele><time>2026-04-26T07:54:25.408Z</time></trkpt><trkpt lat="43.8995096" lon="12.6966228"><ele>153.0</ele><time>2026-04-26T07:54:26.415Z</time></trkpt><trkpt lat="43.8995575" lon="12.6967242"><ele>153.0</ele><time>2026-04-26T07:54:27.41Z</time></trkpt><trkpt lat="43.8995892" lon="12.6968378"><ele>153.0</ele><time>2026-04-26T07:54:28.406Z</time></trkpt><trkpt lat="43.899555" lon="12.697103"><ele>152.66666666666666</ele><time>2026-04-26T07:54:30.409Z</time></trkpt><trkpt lat="43.8994956" lon="12.6972862"><ele>152.33333333333331</ele><time>2026-04-26T07:54:31.408Z</time></trkpt><trkpt lat="43.8994192" lon="12.6974819"><ele>152.0</ele><time>2026-04-26T07:54:32.41Z</time></trkpt><trkpt lat="43.8993282" lon="12.6976911"><ele>153.0</ele><time>2026-04-26T07:54:33.409Z</time></trkpt><trkpt lat="43.8992318" lon="12.6979048"><ele>154.0</ele><time>2026-04-26T07:54:34.415Z</time></trkpt><trkpt lat="43.8991267" lon="12.6981278"><ele>155.0</ele><time>2026-04-26T07:54:35.41Z</time></trkpt><trkpt lat="43.8990311" lon="12.6983548"><ele>152.66666666666666</ele><time>2026-04-26T07:54:36.41Z</time></trkpt><trkpt lat="43.8989421" lon="12.6985928"><ele>150.33333333333334</ele><time>2026-04-26T07:54:37.408Z</time></trkpt><trkpt lat="43.8988586" lon="12.6988339"><ele>148.0</ele><time>2026-04-26T07:54:38.41Z</time></trkpt><trkpt lat="43.898761" lon="12.6990647"><ele>148.0</ele><time>2026-04-26T07:54:39.409Z</time></trkpt><trkpt lat="43.8986504" lon="12.6992877"><ele>148.0</ele><time>2026-04-26T07:54:40.407Z</time></trkpt><trkpt lat="43.8985399" lon="12.6994997"><ele>148.0</ele><time>2026-04-26T07:54:41.411Z</time></trkpt><trkpt lat="43.8984318" lon="12.6997061"><ele>148.33333333333334</ele><time>2026-04-26T07:54:42.41Z</time></trkpt><trkpt lat="43.8983369" lon="12.6999048"><ele>148.66666666666666</ele><time>2026-04-26T07:54:43.407Z</time></trkpt><trkpt lat="43.8982519" lon="12.7001018"><ele>149.0</ele><time>2026-04-26T07:54:44.407Z</time></trkpt><trkpt lat="43.8981797" lon="12.7003082"><ele>149.0</ele><time>2026-04-26T07:54:45.412Z</time></trkpt><trkpt lat="43.8981155" lon="12.7005269"><ele>149.0</ele><time>2026-04-26T07:54:46.408Z</time></trkpt><trkpt lat="43.8980548" lon="12.7007428"><ele>149.0</ele><time>2026-04-26T07:54:47.431Z</time></trkpt><trkpt lat="43.8979896" lon="12.7009653"><ele>146.0</ele><time>2026-04-26T07:54:48.41Z</time></trkpt><trkpt lat="43.897924" lon="12.7011943"><ele>143.0</ele><time>2026-04-26T07:54:49.409Z</time></trkpt><trkpt lat="43.8978209" lon="12.7017184"><ele>142.0</ele><time>2026-04-26T07:54:51.412Z</time></trkpt><trkpt lat="43.8977841" lon="12.7019988"><ele>141.0</ele><time>2026-04-26T07:54:52.412Z</time></trkpt><trkpt lat="43.897748" lon="12.7022697"><ele>140.0</ele><time>2026-04-26T07:54:53.406Z</time></trkpt><trkpt lat="43.8977111" lon="12.7025342"><ele>139.33333333333331</ele><time>2026-04-26T07:54:54.41Z</time></trkpt><trkpt lat="43.8976754" lon="12.7027865"><ele>138.66666666666666</ele><time>2026-04-26T07:54:55.412Z</time></trkpt><trkpt lat="43.8976378" lon="12.7030264"><ele>138.0</ele><time>2026-04-26T07:54:56.408Z</time></trkpt><trkpt lat="43.8976052" lon="12.7032586"><ele>139.33333333333334</ele><time>2026-04-26T07:54:57.408Z</time></trkpt><trkpt lat="43.8975752" lon="12.7034842"><ele>140.66666666666669</ele><time>2026-04-26T07:54:58.409Z</time></trkpt><trkpt lat="43.8975424" lon="12.7037006"><ele>142.0</ele><time>2026-04-26T07:54:59.408Z</time></trkpt><trkpt lat="43.8975165" lon="12.7038941"><ele>142.0</ele><time>2026-04-26T07:55:00.409Z</time></trkpt><trkpt lat="43.8974892" lon="12.7040517"><ele>142.0</ele><time>2026-04-26T07:55:01.41Z</time></trkpt><trkpt lat="43.8974651" lon="12.7041549"><ele>142.0</ele><time>2026-04-26T07:55:02.412Z</time></trkpt><trkpt lat="43.897516" lon="12.7039986"><ele>142.0</ele><time>2026-04-26T07:55:10.411Z</time></trkpt><trkpt lat="43.8975574" lon="12.7036413"><ele>142.25</ele><time>2026-04-26T07:55:12.406Z</time></trkpt><trkpt lat="43.8975833" lon="12.7034384"><ele>142.5</ele><time>2026-04-26T07:55:13.406Z</time></trkpt><trkpt lat="43.8976066" lon="12.7032493"><ele>142.75</ele><time>2026-04-26T07:55:14.406Z</time></trkpt><trkpt lat="43.8976344" lon="12.7030579"><ele>143.0</ele><time>2026-04-26T07:55:15.405Z</time></trkpt><trkpt lat="43.8976629" lon="12.7028463"><ele>142.0</ele><time>2026-04-26T07:55:16.407Z</time></trkpt><trkpt lat="43.8976988" lon="12.7026009"><ele>141.0</ele><time>2026-04-26T07:55:17.411Z</time></trkpt><trkpt lat="43.8977386" lon="12.7023266"><ele>140.0</ele><time>2026-04-26T07:55:18.41Z</time></trkpt><trkpt lat="43.8977753" lon="12.7020606"><ele>141.0</ele><time>2026-04-26T07:55:19.412Z</time></trkpt><trkpt lat="43.8978167" lon="12.7017943"><ele>142.0</ele><time>2026-04-26T07:55:20.409Z</time></trkpt><trkpt lat="43.8978583" lon="12.7015272"><ele>143.0</ele><time>2026-04-26T07:55:21.407Z</time></trkpt><trkpt lat="43.8979111" lon="12.70126"><ele>145.0</ele><time>2026-04-26T07:55:22.407Z</time></trkpt><trkpt lat="43.8979794" lon="12.7009845"><ele>147.0</ele><time>2026-04-26T07:55:23.413Z</time></trkpt><trkpt lat="43.8980621" lon="12.7007124"><ele>149.0</ele><time>2026-04-26T07:55:24.408Z</time></trkpt><trkpt lat="43.8981376" lon="12.7004466"><ele>150.66666666666666</ele><time>2026-04-26T07:55:25.408Z</time></trkpt><trkpt lat="43.8982272" lon="12.7001768"><ele>152.33333333333334</ele><time>2026-04-26T07:55:26.407Z</time></trkpt><trkpt lat="43.8983403" lon="12.6999103"><ele>154.0</ele><time>2026-04-26T07:55:27.412Z</time></trkpt><trkpt lat="43.8984716" lon="12.6996499"><ele>151.0</ele><time>2026-04-26T07:55:28.409Z</time></trkpt><trkpt lat="43.8986032" lon="12.6993918"><ele>148.0</ele><time>2026-04-26T07:55:29.411Z</time></trkpt><trkpt lat="43.898727" lon="12.6991345"><ele>148.0</ele><time>2026-04-26T07:55:30.415Z</time></trkpt><trkpt lat="43.8988342" lon="12.69889"><ele>148.0</ele><time>2026-04-26T07:55:31.414Z</time></trkpt><trkpt lat="43.8990053" lon="12.6984148"><ele>147.0</ele><time>2026-04-26T07:55:33.409Z</time></trkpt><trkpt lat="43.8990916" lon="12.6981935"><ele>146.0</ele><time>2026-04-26T07:55:34.411Z</time></trkpt><trkpt lat="43.8991903" lon="12.697983"><ele>145.0</ele><time>2026-04-26T07:55:35.409Z</time></trkpt><trkpt lat="43.8992856" lon="12.6977686"><ele>147.33333333333334</ele><time>2026-04-26T07:55:36.413Z</time></trkpt><trkpt lat="43.8993708" lon="12.697571"><ele>149.66666666666666</ele><time>2026-04-26T07:55:37.41Z</time></trkpt><trkpt lat="43.8994493" lon="12.6973853"><ele>152.0</ele><time>2026-04-26T07:55:38.408Z</time></trkpt><trkpt lat="43.8995081" lon="12.6972081"><ele>152.0</ele><time>2026-04-26T07:55:39.412Z</time></trkpt><trkpt lat="43.8995526" lon="12.6970598"><ele>152.0</ele><time>2026-04-26T07:55:40.412Z</time></trkpt><trkpt lat="43.8995936" lon="12.6969455"><ele>152.0</ele><time>2026-04-26T07:55:41.409Z</time></trkpt><trkpt lat="43.8996438" lon="12.6968824"><ele>152.0</ele><time>2026-04-26T07:55:42.405Z</time></trkpt><trkpt lat="43.8997824" lon="12.6968607"><ele>152.0</ele><time>2026-04-26T07:55:44.407Z</time></trkpt><trkpt lat="43.8998982" lon="12.6968704"><ele>152.33333333333331</ele><time>2026-04-26T07:55:45.412Z</time></trkpt><trkpt lat="43.9000406" lon="12.6968666"><ele>152.66666666666666</ele><time>2026-04-26T07:55:46.411Z</time></trkpt><trkpt lat="43.9002036" lon="12.6968681"><ele>153.0</ele><time>2026-04-26T07:55:47.411Z</time></trkpt><trkpt lat="43.900371" lon="12.6968719"><ele>151.33333333333334</ele><time>2026-04-26T07:55:48.412Z</time></trkpt><trkpt lat="43.9005332" lon="12.6968698"><ele>149.66666666666669</ele><time>2026-04-26T07:55:49.413Z</time></trkpt><trkpt lat="43.9006888" lon="12.6968767"><ele>148.0</ele><time>2026-04-26T07:55:50.412Z</time></trkpt><trkpt lat="43.9008463" lon="12.6968887"><ele>145.5</ele><time>2026-04-26T07:55:51.415Z</time></trkpt><trkpt lat="43.9010067" lon="12.696907"><ele>143.0</ele><time>2026-04-26T07:55:52.409Z</time></trkpt><trkpt lat="43.901332" lon="12.6969984"><ele>143.0</ele><time>2026-04-26T07:55:54.408Z</time></trkpt><trkpt lat="43.9014982" lon="12.6970505"><ele>143.0</ele><time>2026-04-26T07:55:55.407Z</time></trkpt><trkpt lat="43.9016617" lon="12.6971034"><ele>143.0</ele><time>2026-04-26T07:55:56.408Z</time></trkpt><trkpt lat="43.9018271" lon="12.6971475"><ele>141.66666666666666</ele><time>2026-04-26T07:55:57.408Z</time></trkpt><trkpt lat="43.9019918" lon="12.6971903"><ele>140.33333333333334</ele><time>2026-04-26T07:55:58.409Z</time></trkpt><trkpt lat="43.9021501" lon="12.6972158"><ele>139.0</ele><time>2026-04-26T07:55:59.409Z</time></trkpt><trkpt lat="43.9023068" lon="12.6972069"><ele>139.0</ele><time>2026-04-26T07:56:00.409Z</time></trkpt><trkpt lat="43.9024528" lon="12.6971653"><ele>139.0</ele><time>2026-04-26T07:56:01.412Z</time></trkpt><trkpt lat="43.9026" lon="12.697103"><ele>139.0</ele><time>2026-04-26T07:56:02.407Z</time></trkpt><trkpt lat="43.9027608" lon="12.6970265"><ele>140.0</ele><time>2026-04-26T07:56:03.415Z</time></trkpt><trkpt lat="43.9029274" lon="12.6969545"><ele>141.0</ele><time>2026-04-26T07:56:04.408Z</time></trkpt><trkpt lat="43.9030944" lon="12.696894"><ele>142.0</ele><time>2026-04-26T07:56:05.406Z</time></trkpt><trkpt lat="43.9032546" lon="12.6968632"><ele>142.33333333333334</ele><time>2026-04-26T07:56:06.411Z</time></trkpt><trkpt lat="43.903413" lon="12.6968479"><ele>142.66666666666666</ele><time>2026-04-26T07:56:07.408Z</time></trkpt><trkpt lat="43.9035625" lon="12.6968231"><ele>143.0</ele><time>2026-04-26T07:56:08.409Z</time></trkpt><trkpt lat="43.9037119" lon="12.6967947"><ele>144.25</ele><time>2026-04-26T07:56:09.41Z</time></trkpt><trkpt lat="43.9038547" lon="12.6967644"><ele>145.5</ele><time>2026-04-26T07:56:10.411Z</time></trkpt><trkpt lat="43.9039894" lon="12.6967348"><ele>146.75</ele><time>2026-04-26T07:56:11.407Z</time></trkpt><trkpt lat="43.9041052" lon="12.6967274"><ele>148.0</ele><time>2026-04-26T07:56:12.41Z</time></trkpt><trkpt lat="43.9042203" lon="12.6967601"><ele>148.0</ele><time>2026-04-26T07:56:13.41Z</time></trkpt><trkpt lat="43.9044302" lon="12.6968927"><ele>148.0</ele><time>2026-04-26T07:56:15.404Z</time></trkpt><trkpt lat="43.9045415" lon="12.696989"><ele>148.0</ele><time>2026-04-26T07:56:16.409Z</time></trkpt><trkpt lat="43.9046526" lon="12.6971062"><ele>149.33333333333334</ele><time>2026-04-26T07:56:17.407Z</time></trkpt><trkpt lat="43.9047717" lon="12.697233"><ele>150.66666666666666</ele><time>2026-04-26T07:56:18.411Z</time></trkpt><trkpt lat="43.9048949" lon="12.6973592"><ele>152.0</ele><time>2026-04-26T07:56:19.407Z</time></trkpt><trkpt lat="43.9050237" lon="12.6974781"><ele>152.33333333333331</ele><time>2026-04-26T07:56:20.409Z</time></trkpt><trkpt lat="43.9051573" lon="12.6975954"><ele>152.66666666666666</ele><time>2026-04-26T07:56:21.412Z</time></trkpt><trkpt lat="43.9052908" lon="12.6977114"><ele>153.0</ele><time>2026-04-26T07:56:22.41Z</time></trkpt><trkpt lat="43.9054262" lon="12.6978267"><ele>153.0</ele><time>2026-04-26T07:56:23.416Z</time></trkpt><trkpt lat="43.9055697" lon="12.6979512"><ele>153.0</ele><time>2026-04-26T07:56:24.408Z</time></trkpt><trkpt lat="43.9057212" lon="12.6980805"><ele>153.0</ele><time>2026-04-26T07:56:25.407Z</time></trkpt><trkpt lat="43.9058765" lon="12.6982134"><ele>152.66666666666666</ele><time>2026-04-26T07:56:26.408Z</time></trkpt><trkpt lat="43.906034" lon="12.6983516"><ele>152.33333333333331</ele><time>2026-04-26T07:56:27.408Z</time></trkpt><trkpt lat="43.9061938" lon="12.6984911"><ele>152.0</ele><time>2026-04-26T07:56:28.411Z</time></trkpt><trkpt lat="43.90636" lon="12.6986315"><ele>152.0</ele><time>2026-04-26T07:56:29.411Z</time></trkpt><trkpt lat="43.9065286" lon="12.6987717"><ele>152.0</ele><time>2026-04-26T07:56:30.41Z</time></trkpt><trkpt lat="43.9067035" lon="12.6989249"><ele>152.0</ele><time>2026-04-26T07:56:31.41Z</time></trkpt><trkpt lat="43.9068795" lon="12.6990856"><ele>150.33333333333331</ele><time>2026-04-26T07:56:32.41Z</time></trkpt><trkpt lat="43.9070477" lon="12.6992312"><ele>148.66666666666666</ele><time>2026-04-26T07:56:33.41Z</time></trkpt><trkpt lat="43.9072112" lon="12.6993747"><ele>147.0</ele><time>2026-04-26T07:56:34.407Z</time></trkpt><trkpt lat="43.9075123" lon="12.6996443"><ele>147.66666666666666</ele><time>2026-04-26T07:56:36.407Z</time></trkpt><trkpt lat="43.9076532" lon="12.6997844"><ele>148.33333333333331</ele><time>2026-04-26T07:56:37.411Z</time></trkpt><trkpt lat="43.9077811" lon="12.6999417"><ele>149.0</ele><time>2026-04-26T07:56:38.415Z</time></trkpt><trkpt lat="43.9078946" lon="12.7001114"><ele>147.75</ele><time>2026-04-26T07:56:39.413Z</time></trkpt><trkpt lat="43.9079946" lon="12.7002786"><ele>146.5</ele><time>2026-04-26T07:56:40.412Z</time></trkpt><trkpt lat="43.9080915" lon="12.7004258"><ele>145.25</ele><time>2026-04-26T07:56:41.407Z</time></trkpt><trkpt lat="43.908193" lon="12.7005448"><ele>144.0</ele><time>2026-04-26T07:56:42.411Z</time></trkpt><trkpt lat="43.9083035" lon="12.7006331"><ele>143.0</ele><time>2026-04-26T07:56:43.41Z</time></trkpt><trkpt lat="43.9084214" lon="12.7006761"><ele>142.0</ele><time>2026-04-26T07:56:44.407Z</time></trkpt><trkpt lat="43.9085328" lon="12.7006726"><ele>141.0</ele><time>2026-04-26T07:56:45.405Z</time></trkpt><trkpt lat="43.9086354" lon="12.7006362"><ele>140.0</ele><time>2026-04-26T07:56:46.41Z</time></trkpt><trkpt lat="43.9087171" lon="12.7006028"><ele>139.0</ele><time>2026-04-26T07:56:47.411Z</time></trkpt><trkpt lat="43.9087823" lon="12.7006032"><ele>139.0</ele><time>2026-04-26T07:56:48.41Z</time></trkpt><trkpt lat="43.9088545" lon="12.7007445"><ele>139.0</ele><time>2026-04-26T07:56:50.413Z</time></trkpt><trkpt lat="43.9088413" lon="12.7008754"><ele>139.0</ele><time>2026-04-26T07:56:51.409Z</time></trkpt><trkpt lat="43.9088164" lon="12.7010221"><ele>139.0</ele><time>2026-04-26T07:56:52.408Z</time></trkpt><trkpt lat="43.9087866" lon="12.7011936"><ele>136.66666666666669</ele><time>2026-04-26T07:56:53.411Z</time></trkpt><trkpt lat="43.9087505" lon="12.7013865"><ele>134.33333333333334</ele><time>2026-04-26T07:56:54.411Z</time></trkpt><trkpt lat="43.9087124" lon="12.7015893"><ele>132.0</ele><time>2026-04-26T07:56:55.41Z</time></trkpt><trkpt lat="43.9086751" lon="12.7019763"><ele>130.5</ele><time>2026-04-26T07:56:57.407Z</time></trkpt><trkpt lat="43.9086976" lon="12.702166"><ele>129.0</ele><time>2026-04-26T07:56:58.412Z</time></trkpt><trkpt lat="43.9087481" lon="12.7023564"><ele>127.5</ele><time>2026-04-26T07:56:59.407Z</time></trkpt><trkpt lat="43.9088193" lon="12.7025408"><ele>126.0</ele><time>2026-04-26T07:57:00.407Z</time></trkpt><trkpt lat="43.9088761" lon="12.7027327"><ele>124.66666666666666</ele><time>2026-04-26T07:57:01.415Z</time></trkpt><trkpt lat="43.9089142" lon="12.7029454"><ele>123.33333333333333</ele><time>2026-04-26T07:57:02.407Z</time></trkpt><trkpt lat="43.9089339" lon="12.7031794"><ele>122.0</ele><time>2026-04-26T07:57:03.409Z</time></trkpt><trkpt lat="43.9089487" lon="12.70341"><ele>120.0</ele><time>2026-04-26T07:57:04.409Z</time></trkpt><trkpt lat="43.9089623" lon="12.7036389"><ele>118.0</ele><time>2026-04-26T07:57:05.413Z</time></trkpt><trkpt lat="43.9089699" lon="12.7038653"><ele>116.0</ele><time>2026-04-26T07:57:06.41Z</time></trkpt><trkpt lat="43.9089798" lon="12.7040953"><ele>116.0</ele><time>2026-04-26T07:57:07.408Z</time></trkpt><trkpt lat="43.9089904" lon="12.7043368"><ele>116.0</ele><time>2026-04-26T07:57:08.409Z</time></trkpt><trkpt lat="43.9089975" lon="12.7045956"><ele>116.0</ele><time>2026-04-26T07:57:09.408Z</time></trkpt><trkpt lat="43.9089853" lon="12.7048843"><ele>115.66666666666666</ele><time>2026-04-26T07:57:10.412Z</time></trkpt><trkpt lat="43.9089539" lon="12.7051865"><ele>115.33333333333334</ele><time>2026-04-26T07:57:11.409Z</time></trkpt><trkpt lat="43.9089237" lon="12.7054765"><ele>115.0</ele><time>2026-04-26T07:57:12.405Z</time></trkpt><trkpt lat="43.9089009" lon="12.7057499"><ele>114.0</ele><time>2026-04-26T07:57:13.408Z</time></trkpt><trkpt lat="43.9088803" lon="12.7060073"><ele>113.0</ele><time>2026-04-26T07:57:14.404Z</time></trkpt><trkpt lat="43.9088634" lon="12.7062426"><ele>112.0</ele><time>2026-04-26T07:57:15.405Z</time></trkpt><trkpt lat="43.9088633" lon="12.7064654"><ele>111.0</ele><time>2026-04-26T07:57:16.411Z</time></trkpt><trkpt lat="43.9089395" lon="12.706942"><ele>110.0</ele><time>2026-04-26T07:57:18.414Z</time></trkpt><trkpt lat="43.9089961" lon="12.707186"><ele>110.0</ele><time>2026-04-26T07:57:19.408Z</time></trkpt><trkpt lat="43.9090619" lon="12.7074405"><ele>110.0</ele><time>2026-04-26T07:57:20.408Z</time></trkpt><trkpt lat="43.9091307" lon="12.7076901"><ele>110.0</ele><time>2026-04-26T07:57:21.409Z</time></trkpt><trkpt lat="43.9092011" lon="12.7079224"><ele>109.66666666666666</ele><time>2026-04-26T07:57:22.409Z</time></trkpt><trkpt lat="43.9092876" lon="12.7081468"><ele>109.33333333333334</ele><time>2026-04-26T07:57:23.409Z</time></trkpt><trkpt lat="43.9093831" lon="12.7083696"><ele>109.0</ele><time>2026-04-26T07:57:24.411Z</time></trkpt><trkpt lat="43.9094798" lon="12.7085903"><ele>109.0</ele><time>2026-04-26T07:57:25.41Z</time></trkpt><trkpt lat="43.9095676" lon="12.708796"><ele>109.0</ele><time>2026-04-26T07:57:26.409Z</time></trkpt><trkpt lat="43.909639" lon="12.7089899"><ele>109.0</ele><time>2026-04-26T07:57:27.41Z</time></trkpt><trkpt lat="43.9096798" lon="12.7091918"><ele>111.0</ele><time>2026-04-26T07:57:28.411Z</time></trkpt><trkpt lat="43.9097191" lon="12.709412"><ele>113.0</ele><time>2026-04-26T07:57:29.409Z</time></trkpt><trkpt lat="43.9097864" lon="12.7096482"><ele>115.0</ele><time>2026-04-26T07:57:30.407Z</time></trkpt><trkpt lat="43.9098734" lon="12.7098896"><ele>115.0</ele><time>2026-04-26T07:57:31.414Z</time></trkpt><trkpt lat="43.9099715" lon="12.7101288"><ele>115.0</ele><time>2026-04-26T07:57:32.41Z</time></trkpt><trkpt lat="43.9100625" lon="12.7103612"><ele>115.0</ele><time>2026-04-26T07:57:33.407Z</time></trkpt><trkpt lat="43.9101528" lon="12.7105714"><ele>114.33333333333334</ele><time>2026-04-26T07:57:34.409Z</time></trkpt><trkpt lat="43.9102477" lon="12.7107687"><ele>113.66666666666666</ele><time>2026-04-26T07:57:35.408Z</time></trkpt><trkpt lat="43.9103423" lon="12.7109563"><ele>113.0</ele><time>2026-04-26T07:57:36.413Z</time></trkpt><trkpt lat="43.9104264" lon="12.7111208"><ele>113.0</ele><time>2026-04-26T07:57:37.409Z</time></trkpt><trkpt lat="43.9105701" lon="12.7114841"><ele>113.0</ele><time>2026-04-26T07:57:39.41Z</time></trkpt><trkpt lat="43.9106404" lon="12.7116937"><ele>112.66666666666666</ele><time>2026-04-26T07:57:40.408Z</time></trkpt><trkpt lat="43.9107135" lon="12.7119102"><ele>112.33333333333334</ele><time>2026-04-26T07:57:41.409Z</time></trkpt><trkpt lat="43.9107886" lon="12.7121331"><ele>112.0</ele><time>2026-04-26T07:57:42.41Z</time></trkpt><trkpt lat="43.9108645" lon="12.7123623"><ele>109.66666666666667</ele><time>2026-04-26T07:57:43.407Z</time></trkpt><trkpt lat="43.9109397" lon="12.7125823"><ele>107.33333333333334</ele><time>2026-04-26T07:57:44.408Z</time></trkpt><trkpt lat="43.9110149" lon="12.7127881"><ele>105.0</ele><time>2026-04-26T07:57:45.414Z</time></trkpt><trkpt lat="43.9110847" lon="12.7129711"><ele>105.0</ele><time>2026-04-26T07:57:46.409Z</time></trkpt><trkpt lat="43.9111577" lon="12.7131367"><ele>105.0</ele><time>2026-04-26T07:57:47.41Z</time></trkpt><trkpt lat="43.9112344" lon="12.7132868"><ele>105.0</ele><time>2026-04-26T07:57:48.406Z</time></trkpt><trkpt lat="43.911318" lon="12.7134274"><ele>105.0</ele><time>2026-04-26T07:57:49.408Z</time></trkpt><trkpt lat="43.9114054" lon="12.7135668"><ele>105.25</ele><time>2026-04-26T07:57:50.412Z</time></trkpt><trkpt lat="43.9115041" lon="12.7136954"><ele>105.5</ele><time>2026-04-26T07:57:51.408Z</time></trkpt><trkpt lat="43.9116163" lon="12.7138054"><ele>105.75</ele><time>2026-04-26T07:57:52.408Z</time></trkpt><trkpt lat="43.9117302" lon="12.7139063"><ele>106.0</ele><time>2026-04-26T07:57:53.408Z</time></trkpt><trkpt lat="43.9118479" lon="12.7139987"><ele>106.0</ele><time>2026-04-26T07:57:54.409Z</time></trkpt><trkpt lat="43.9119667" lon="12.7140854"><ele>106.0</ele><time>2026-04-26T07:57:55.411Z</time></trkpt><trkpt lat="43.9120778" lon="12.7141691"><ele>106.0</ele><time>2026-04-26T07:57:56.41Z</time></trkpt><trkpt lat="43.9121746" lon="12.7142529"><ele>106.0</ele><time>2026-04-26T07:57:57.411Z</time></trkpt><trkpt lat="43.9122896" lon="12.7143977"><ele>106.4</ele><time>2026-04-26T07:57:59.41Z</time></trkpt><trkpt lat="43.9122889" lon="12.7145196"><ele>106.8</ele><time>2026-04-26T07:58:01.415Z</time></trkpt><trkpt lat="43.9121982" lon="12.7146494"><ele>107.20000000000002</ele><time>2026-04-26T07:58:03.41Z</time></trkpt><trkpt lat="43.9121202" lon="12.7147464"><ele>107.60000000000001</ele><time>2026-04-26T07:58:04.406Z</time></trkpt><trkpt lat="43.9120371" lon="12.7148579"><ele>108.0</ele><time>2026-04-26T07:58:05.412Z</time></trkpt><trkpt lat="43.9119269" lon="12.7150123"><ele>108.0</ele><time>2026-04-26T07:58:06.407Z</time></trkpt><trkpt lat="43.9118179" lon="12.7151647"><ele>108.0</ele><time>2026-04-26T07:58:07.411Z</time></trkpt><trkpt lat="43.9117019" lon="12.7153102"><ele>108.0</ele><time>2026-04-26T07:58:08.409Z</time></trkpt><trkpt lat="43.9115919" lon="12.7154549"><ele>108.0</ele><time>2026-04-26T07:58:09.411Z</time></trkpt><trkpt lat="43.9114794" lon="12.7156024"><ele>108.0</ele><time>2026-04-26T07:58:10.409Z</time></trkpt><trkpt lat="43.9113678" lon="12.7157495"><ele>108.0</ele><time>2026-04-26T07:58:11.408Z</time></trkpt><trkpt lat="43.9112605" lon="12.7158953"><ele>108.0</ele><time>2026-04-26T07:58:12.407Z</time></trkpt><trkpt lat="43.9111478" lon="12.7160455"><ele>108.0</ele><time>2026-04-26T07:58:13.413Z</time></trkpt><trkpt lat="43.9110403" lon="12.7162009"><ele>108.0</ele><time>2026-04-26T07:58:14.409Z</time></trkpt><trkpt lat="43.9109211" lon="12.7163708"><ele>107.33333333333334</ele><time>2026-04-26T07:58:15.41Z</time></trkpt><trkpt lat="43.9107934" lon="12.7165482"><ele>106.66666666666667</ele><time>2026-04-26T07:58:16.412Z</time></trkpt><trkpt lat="43.9106659" lon="12.7167162"><ele>106.0</ele><time>2026-04-26T07:58:17.413Z</time></trkpt><trkpt lat="43.910533" lon="12.7168862"><ele>101.5</ele><time>2026-04-26T07:58:18.408Z</time></trkpt><trkpt lat="43.9102797" lon="12.7172385"><ele>97.0</ele><time>2026-04-26T07:58:20.414Z</time></trkpt><trkpt lat="43.9101453" lon="12.717412"><ele>97.0</ele><time>2026-04-26T07:58:21.411Z</time></trkpt><trkpt lat="43.9100029" lon="12.7175948"><ele>97.0</ele><time>2026-04-26T07:58:22.408Z</time></trkpt><trkpt lat="43.9098543" lon="12.7177956"><ele>97.0</ele><time>2026-04-26T07:58:23.407Z</time></trkpt><trkpt lat="43.9097004" lon="12.7179978"><ele>97.0</ele><time>2026-04-26T07:58:24.411Z</time></trkpt><trkpt lat="43.9095467" lon="12.7182016"><ele>97.0</ele><time>2026-04-26T07:58:25.409Z</time></trkpt><trkpt lat="43.9094032" lon="12.7184042"><ele>97.0</ele><time>2026-04-26T07:58:26.408Z</time></trkpt><trkpt lat="43.9092626" lon="12.7185978"><ele>97.33333333333334</ele><time>2026-04-26T07:58:27.411Z</time></trkpt><trkpt lat="43.9091199" lon="12.7188001"><ele>97.66666666666666</ele><time>2026-04-26T07:58:28.409Z</time></trkpt><trkpt lat="43.9089767" lon="12.7190006"><ele>98.0</ele><time>2026-04-26T07:58:29.412Z</time></trkpt><trkpt lat="43.9088335" lon="12.7191928"><ele>98.0</ele><time>2026-04-26T07:58:30.41Z</time></trkpt><trkpt lat="43.9086947" lon="12.719379"><ele>98.0</ele><time>2026-04-26T07:58:31.411Z</time></trkpt><trkpt lat="43.9085672" lon="12.7195556"><ele>98.0</ele><time>2026-04-26T07:58:32.412Z</time></trkpt><trkpt lat="43.9084525" lon="12.7197142"><ele>98.5</ele><time>2026-04-26T07:58:33.409Z</time></trkpt><trkpt lat="43.9083504" lon="12.7198524"><ele>99.0</ele><time>2026-04-26T07:58:34.408Z</time></trkpt><trkpt lat="43.908262" lon="12.7199724"><ele>99.5</ele><time>2026-04-26T07:58:35.41Z</time></trkpt><trkpt lat="43.9081868" lon="12.7200768"><ele>100.0</ele><time>2026-04-26T07:58:36.408Z</time></trkpt><trkpt lat="43.9081278" lon="12.7201577"><ele>100.0</ele><time>2026-04-26T07:58:37.412Z</time></trkpt><trkpt lat="43.9080775" lon="12.7202179"><ele>100.0</ele><time>2026-04-26T07:58:38.411Z</time></trkpt><trkpt lat="43.907984" lon="12.7202613"><ele>100.0</ele><time>2026-04-26T07:58:40.412Z</time></trkpt><trkpt lat="43.9077963" lon="12.7201924"><ele>100.0</ele><time>2026-04-26T07:58:43.409Z</time></trkpt><trkpt lat="43.9077092" lon="12.7201474"><ele>100.0</ele><time>2026-04-26T07:58:44.409Z</time></trkpt><trkpt lat="43.9076121" lon="12.7201028"><ele>100.0</ele><time>2026-04-26T07:58:45.41Z</time></trkpt><trkpt lat="43.9075152" lon="12.7200576"><ele>100.0</ele><time>2026-04-26T07:58:46.407Z</time></trkpt><trkpt lat="43.9074203" lon="12.720014"><ele>100.0</ele><time>2026-04-26T07:58:47.416Z</time></trkpt><trkpt lat="43.9073238" lon="12.7199671"><ele>100.0</ele><time>2026-04-26T07:58:48.407Z</time></trkpt><trkpt lat="43.9072286" lon="12.719921"><ele>100.2</ele><time>2026-04-26T07:58:49.407Z</time></trkpt><trkpt lat="43.9071292" lon="12.7198743"><ele>100.4</ele><time>2026-04-26T07:58:50.412Z</time></trkpt><trkpt lat="43.9070309" lon="12.719827"><ele>100.6</ele><time>2026-04-26T07:58:51.409Z</time></trkpt><trkpt lat="43.906935" lon="12.7197758"><ele>100.8</ele><time>2026-04-26T07:58:52.409Z</time></trkpt><trkpt lat="43.9068419" lon="12.7197287"><ele>101.0</ele><time>2026-04-26T07:58:53.414Z</time></trkpt><trkpt lat="43.906746" lon="12.7196813"><ele>99.6</ele><time>2026-04-26T07:58:54.407Z</time></trkpt><trkpt lat="43.9066539" lon="12.7196349"><ele>98.19999999999999</ele><time>2026-04-26T07:58:55.411Z</time></trkpt><trkpt lat="43.9065616" lon="12.7195862"><ele>96.80000000000001</ele><time>2026-04-26T07:58:56.407Z</time></trkpt><trkpt lat="43.9064753" lon="12.7195393"><ele>95.4</ele><time>2026-04-26T07:58:57.407Z</time></trkpt><trkpt lat="43.9063891" lon="12.7194982"><ele>94.0</ele><time>2026-04-26T07:58:58.41Z</time></trkpt><trkpt lat="43.9063053" lon="12.7194574"><ele>94.0</ele><time>2026-04-26T07:58:59.408Z</time></trkpt><trkpt lat="43.9062273" lon="12.7194199"><ele>94.0</ele><time>2026-04-26T07:59:00.408Z</time></trkpt><trkpt lat="43.9061501" lon="12.7193883"><ele>94.0</ele><time>2026-04-26T07:59:01.407Z</time></trkpt><trkpt lat="43.9059552" lon="12.719296"><ele>94.0</ele><time>2026-04-26T07:59:03.413Z</time></trkpt><trkpt lat="43.9058639" lon="12.7192502"><ele>92.6</ele><time>2026-04-26T07:59:04.41Z</time></trkpt><trkpt lat="43.9057678" lon="12.7191991"><ele>91.2</ele><time>2026-04-26T07:59:05.411Z</time></trkpt><trkpt lat="43.9056689" lon="12.7191481"><ele>89.8</ele><time>2026-04-26T07:59:06.41Z</time></trkpt><trkpt lat="43.9055801" lon="12.7190922"><ele>88.39999999999999</ele><time>2026-04-26T07:59:07.413Z</time></trkpt><trkpt lat="43.905499" lon="12.7190515"><ele>87.0</ele><time>2026-04-26T07:59:08.407Z</time></trkpt><trkpt lat="43.9054273" lon="12.7190297"><ele>87.0</ele><time>2026-04-26T07:59:09.407Z</time></trkpt><trkpt lat="43.9053647" lon="12.7190164"><ele>87.0</ele><time>2026-04-26T07:59:10.406Z</time></trkpt><trkpt lat="43.9052925" lon="12.7190015"><ele>87.0</ele><time>2026-04-26T07:59:11.408Z</time></trkpt><trkpt lat="43.9052091" lon="12.7189862"><ele>87.0</ele><time>2026-04-26T07:59:12.41Z</time></trkpt><trkpt lat="43.9051306" lon="12.7189631"><ele>87.0</ele><time>2026-04-26T07:59:13.408Z</time></trkpt><trkpt lat="43.9050478" lon="12.7189451"><ele>87.0</ele><time>2026-04-26T07:59:14.407Z</time></trkpt><trkpt lat="43.9049656" lon="12.7189146"><ele>86.16666666666667</ele><time>2026-04-26T07:59:15.408Z</time></trkpt><trkpt lat="43.9048795" lon="12.7188841"><ele>85.33333333333333</ele><time>2026-04-26T07:59:16.41Z</time></trkpt><trkpt lat="43.9047994" lon="12.7188558"><ele>84.5</ele><time>2026-04-26T07:59:17.408Z</time></trkpt><trkpt lat="43.9047197" lon="12.7188361"><ele>83.66666666666666</ele><time>2026-04-26T07:59:18.407Z</time></trkpt><trkpt lat="43.9046392" lon="12.7188128"><ele>82.83333333333333</ele><time>2026-04-26T07:59:19.41Z</time></trkpt><trkpt lat="43.9045637" lon="12.7187853"><ele>82.0</ele><time>2026-04-26T07:59:20.408Z</time></trkpt><trkpt lat="43.9044847" lon="12.7187541"><ele>82.0</ele><time>2026-04-26T07:59:21.41Z</time></trkpt><trkpt lat="43.9044097" lon="12.7187095"><ele>82.0</ele><time>2026-04-26T07:59:22.408Z</time></trkpt><trkpt lat="43.904268" lon="12.7186126"><ele>82.0</ele><time>2026-04-26T07:59:24.412Z</time></trkpt><trkpt lat="43.9042008" lon="12.7185677"><ele>82.0</ele><time>2026-04-26T07:59:25.414Z</time></trkpt><trkpt lat="43.9041355" lon="12.7185214"><ele>82.0</ele><time>2026-04-26T07:59:26.412Z</time></trkpt><trkpt lat="43.9040709" lon="12.7184739"><ele>79.71428571428571</ele><time>2026-04-26T07:59:27.417Z</time></trkpt><trkpt lat="43.9040089" lon="12.7184294"><ele>77.42857142857143</ele><time>2026-04-26T07:59:28.412Z</time></trkpt><trkpt lat="43.9039552" lon="12.7183784"><ele>75.14285714285714</ele><time>2026-04-26T07:59:29.409Z</time></trkpt><trkpt lat="43.9039025" lon="12.718315"><ele>72.85714285714286</ele><time>2026-04-26T07:59:30.415Z</time></trkpt><trkpt lat="43.9038584" lon="12.7182492"><ele>70.57142857142857</ele><time>2026-04-26T07:59:31.41Z</time></trkpt><trkpt lat="43.9038131" lon="12.7181805"><ele>68.28571428571428</ele><time>2026-04-26T07:59:32.411Z</time></trkpt><trkpt lat="43.9037752" lon="12.7181057"><ele>66.0</ele><time>2026-04-26T07:59:33.407Z</time></trkpt><trkpt lat="43.903741" lon="12.7180232"><ele>66.0</ele><time>2026-04-26T07:59:34.407Z</time></trkpt><trkpt lat="43.9037085" lon="12.7179361"><ele>66.0</ele><time>2026-04-26T07:59:35.41Z</time></trkpt><trkpt lat="43.9036792" lon="12.7178504"><ele>66.0</ele><time>2026-04-26T07:59:36.411Z</time></trkpt><trkpt lat="43.9036411" lon="12.7177587"><ele>66.0</ele><time>2026-04-26T07:59:37.411Z</time></trkpt><trkpt lat="43.9036067" lon="12.7176718"><ele>66.0</ele><time>2026-04-26T07:59:38.409Z</time></trkpt><trkpt lat="43.9035679" lon="12.7175972"><ele>66.0</ele><time>2026-04-26T07:59:39.405Z</time></trkpt><trkpt lat="43.9035279" lon="12.717528"><ele>66.0</ele><time>2026-04-26T07:59:40.405Z</time></trkpt><trkpt lat="43.9034729" lon="12.7174838"><ele>62.666666666666664</ele><time>2026-04-26T07:59:41.41Z</time></trkpt><trkpt lat="43.9034035" lon="12.7174458"><ele>59.333333333333336</ele><time>2026-04-26T07:59:42.407Z</time></trkpt><trkpt lat="43.9033302" lon="12.717424"><ele>56.0</ele><time>2026-04-26T07:59:43.407Z</time></trkpt><trkpt lat="43.9031916" lon="12.7173749"><ele>52.66666666666667</ele><time>2026-04-26T07:59:45.413Z</time></trkpt><trkpt lat="43.9031202" lon="12.7173431"><ele>49.333333333333336</ele><time>2026-04-26T07:59:46.408Z</time></trkpt><trkpt lat="43.9030504" lon="12.7173075"><ele>46.0</ele><time>2026-04-26T07:59:47.412Z</time></trkpt><trkpt lat="43.9029818" lon="12.7172679"><ele>46.0</ele><time>2026-04-26T07:59:48.414Z</time></trkpt><trkpt lat="43.9029203" lon="12.7172216"><ele>46.0</ele><time>2026-04-26T07:59:49.414Z</time></trkpt><trkpt lat="43.9028691" lon="12.7171618"><ele>46.0</ele><time>2026-04-26T07:59:50.408Z</time></trkpt><trkpt lat="43.9027659" lon="12.7170545"><ele>46.0</ele><time>2026-04-26T07:59:52.408Z</time></trkpt><trkpt lat="43.9027047" lon="12.7170141"><ele>46.0</ele><time>2026-04-26T07:59:53.406Z</time></trkpt><trkpt lat="43.9025911" lon="12.7169549"><ele>45.599999999999994</ele><time>2026-04-26T07:59:55.41Z</time></trkpt><trkpt lat="43.9025009" lon="12.7169293"><ele>45.2</ele><time>2026-04-26T07:59:57.406Z</time></trkpt><trkpt lat="43.9024137" lon="12.7169085"><ele>44.8</ele><time>2026-04-26T07:59:59.411Z</time></trkpt><trkpt lat="43.9023516" lon="12.7168937"><ele>44.400000000000006</ele><time>2026-04-26T08:00:07.41Z</time></trkpt><trkpt lat="43.9022301" lon="12.7169415"><ele>44.0</ele><time>2026-04-26T08:01:00.407Z</time></trkpt><trkpt lat="43.902107" lon="12.7167958"><ele>44.0</ele><time>2026-04-26T08:01:05.409Z</time></trkpt><trkpt lat="43.9020527" lon="12.7166726"><ele>44.0</ele><time>2026-04-26T08:01:07.406Z</time></trkpt><trkpt lat="43.9019813" lon="12.716566"><ele>44.0</ele><time>2026-04-26T08:01:09.405Z</time></trkpt><trkpt lat="43.9019027" lon="12.7164193"><ele>44.0</ele><time>2026-04-26T08:01:11.414Z</time></trkpt><trkpt lat="43.9018627" lon="12.7163438"><ele>44.0</ele><time>2026-04-26T08:01:12.407Z</time></trkpt><trkpt lat="43.9018171" lon="12.7162421"><ele>44.0</ele><time>2026-04-26T08:01:14.41Z</time></trkpt><trkpt lat="43.901763" lon="12.7161685"><ele>44.0</ele><time>2026-04-26T08:01:17.409Z</time></trkpt><trkpt lat="43.9016921" lon="12.7161047"><ele>44.0</ele><time>2026-04-26T08:01:19.408Z</time></trkpt><trkpt lat="43.9016168" lon="12.716075"><ele>44.0</ele><time>2026-04-26T08:01:21.413Z</time></trkpt><trkpt lat="43.9014053" lon="12.7160082"><ele>45.400000000000006</ele><time>2026-04-26T08:01:25.409Z</time></trkpt><trkpt lat="43.9012994" lon="12.7159648"><ele>46.8</ele><time>2026-04-26T08:01:27.41Z</time></trkpt><trkpt lat="43.9011812" lon="12.7159115"><ele>48.2</ele><time>2026-04-26T08:01:29.409Z</time></trkpt><trkpt lat="43.9011144" lon="12.7158771"><ele>49.599999999999994</ele><time>2026-04-26T08:01:30.414Z</time></trkpt><trkpt lat="43.9010405" lon="12.7158358"><ele>51.0</ele><time>2026-04-26T08:01:31.41Z</time></trkpt><trkpt lat="43.9009714" lon="12.7157957"><ele>52.0</ele><time>2026-04-26T08:01:32.411Z</time></trkpt><trkpt lat="43.9009064" lon="12.7157598"><ele>53.0</ele><time>2026-04-26T08:01:33.41Z</time></trkpt><trkpt lat="43.900848" lon="12.7157203"><ele>54.0</ele><time>2026-04-26T08:01:34.41Z</time></trkpt><trkpt lat="43.9007829" lon="12.7156762"><ele>55.0</ele><time>2026-04-26T08:01:35.417Z</time></trkpt><trkpt lat="43.9007214" lon="12.7156284"><ele>56.0</ele><time>2026-04-26T08:01:36.413Z</time></trkpt><trkpt lat="43.9006506" lon="12.7155913"><ele>57.00000000000001</ele><time>2026-04-26T08:01:37.408Z</time></trkpt><trkpt lat="43.9005724" lon="12.7155549"><ele>58.00000000000001</ele><time>2026-04-26T08:01:38.413Z</time></trkpt><trkpt lat="43.9005062" lon="12.7155073"><ele>58.0</ele><time>2026-04-26T08:01:39.412Z</time></trkpt><trkpt lat="43.9004386" lon="12.715467"><ele>58.0</ele><time>2026-04-26T08:01:40.407Z</time></trkpt><trkpt lat="43.9003757" lon="12.7154198"><ele>58.0</ele><time>2026-04-26T08:01:41.409Z</time></trkpt><trkpt lat="43.9003201" lon="12.7153693"><ele>58.0</ele><time>2026-04-26T08:01:42.413Z</time></trkpt><trkpt lat="43.9001448" lon="12.7151553"><ele>58.0</ele><time>2026-04-26T08:01:46.411Z</time></trkpt><trkpt lat="43.9000657" lon="12.7150327"><ele>60.4</ele><time>2026-04-26T08:01:48.409Z</time></trkpt><trkpt lat="43.8999929" lon="12.7149286"><ele>62.8</ele><time>2026-04-26T08:01:50.409Z</time></trkpt><trkpt lat="43.8999275" lon="12.7148278"><ele>65.2</ele><time>2026-04-26T08:01:52.412Z</time></trkpt><trkpt lat="43.8998773" lon="12.7147456"><ele>67.6</ele><time>2026-04-26T08:02:00.408Z</time></trkpt><trkpt lat="43.8998353" lon="12.7146773"><ele>70.0</ele><time>2026-04-26T08:02:04.416Z</time></trkpt><trkpt lat="43.8997847" lon="12.714436"><ele>72.0</ele><time>2026-04-26T08:02:09.413Z</time></trkpt><trkpt lat="43.899791" lon="12.7143068"><ele>74.0</ele><time>2026-04-26T08:02:11.411Z</time></trkpt><trkpt lat="43.8997998" lon="12.7141445"><ele>76.0</ele><time>2026-04-26T08:02:13.408Z</time></trkpt><trkpt lat="43.8998055" lon="12.714018"><ele>78.0</ele><time>2026-04-26T08:02:15.413Z</time></trkpt><trkpt lat="43.8997852" lon="12.7139051"><ele>80.0</ele><time>2026-04-26T08:02:17.419Z</time></trkpt><trkpt lat="43.899738" lon="12.7137853"><ele>80.0</ele><time>2026-04-26T08:02:19.41Z</time></trkpt><trkpt lat="43.8996978" lon="12.7136638"><ele>80.0</ele><time>2026-04-26T08:02:21.411Z</time></trkpt><trkpt lat="43.8996397" lon="12.7135304"><ele>80.0</ele><time>2026-04-26T08:02:23.408Z</time></trkpt><trkpt lat="43.8996023" lon="12.7134557"><ele>80.0</ele><time>2026-04-26T08:02:24.412Z</time></trkpt><trkpt lat="43.8995614" lon="12.7133668"><ele>80.0</ele><time>2026-04-26T08:02:25.413Z</time></trkpt><trkpt lat="43.8994736" lon="12.7131789"><ele>80.83333333333334</ele><time>2026-04-26T08:02:27.408Z</time></trkpt><trkpt lat="43.8994267" lon="12.7130903"><ele>81.66666666666667</ele><time>2026-04-26T08:02:28.407Z</time></trkpt><trkpt lat="43.8993714" lon="12.7130091"><ele>82.5</ele><time>2026-04-26T08:02:29.407Z</time></trkpt><trkpt lat="43.8993137" lon="12.7129266"><ele>83.33333333333333</ele><time>2026-04-26T08:02:30.406Z</time></trkpt><trkpt lat="43.8992466" lon="12.7128477"><ele>84.16666666666666</ele><time>2026-04-26T08:02:31.409Z</time></trkpt><trkpt lat="43.8991647" lon="12.7127612"><ele>85.0</ele><time>2026-04-26T08:02:32.409Z</time></trkpt><trkpt lat="43.8990763" lon="12.7126748"><ele>87.5</ele><time>2026-04-26T08:02:33.41Z</time></trkpt><trkpt lat="43.8989807" lon="12.7125981"><ele>90.0</ele><time>2026-04-26T08:02:34.414Z</time></trkpt><trkpt lat="43.8988808" lon="12.7125256"><ele>92.5</ele><time>2026-04-26T08:02:35.415Z</time></trkpt><trkpt lat="43.8987787" lon="12.7124565"><ele>95.0</ele><time>2026-04-26T08:02:36.412Z</time></trkpt><trkpt lat="43.8986624" lon="12.7123821"><ele>95.0</ele><time>2026-04-26T08:02:37.407Z</time></trkpt><trkpt lat="43.8985435" lon="12.7123097"><ele>95.0</ele><time>2026-04-26T08:02:38.41Z</time></trkpt><trkpt lat="43.8984211" lon="12.7122411"><ele>95.0</ele><time>2026-04-26T08:02:39.41Z</time></trkpt><trkpt lat="43.8982986" lon="12.7121779"><ele>95.0</ele><time>2026-04-26T08:02:40.411Z</time></trkpt><trkpt lat="43.8981733" lon="12.7121173"><ele>97.75</ele><time>2026-04-26T08:02:41.41Z</time></trkpt><trkpt lat="43.8980427" lon="12.7120525"><ele>100.5</ele><time>2026-04-26T08:02:42.41Z</time></trkpt><trkpt lat="43.897917" lon="12.7119799"><ele>103.25</ele><time>2026-04-26T08:02:43.409Z</time></trkpt><trkpt lat="43.897798" lon="12.7119096"><ele>106.0</ele><time>2026-04-26T08:02:44.411Z</time></trkpt><trkpt lat="43.8976769" lon="12.7118451"><ele>109.5</ele><time>2026-04-26T08:02:45.415Z</time></trkpt><trkpt lat="43.8975638" lon="12.7117821"><ele>113.0</ele><time>2026-04-26T08:02:46.407Z</time></trkpt><trkpt lat="43.8973609" lon="12.7116513"><ele>116.5</ele><time>2026-04-26T08:02:48.412Z</time></trkpt><trkpt lat="43.8972747" lon="12.7115785"><ele>120.0</ele><time>2026-04-26T08:02:49.409Z</time></trkpt><trkpt lat="43.8971895" lon="12.7114984"><ele>120.0</ele><time>2026-04-26T08:02:50.41Z</time></trkpt><trkpt lat="43.8971073" lon="12.7114113"><ele>120.0</ele><time>2026-04-26T08:02:51.411Z</time></trkpt><trkpt lat="43.8970178" lon="12.7113074"><ele>120.0</ele><time>2026-04-26T08:02:52.409Z</time></trkpt><trkpt lat="43.8969347" lon="12.7111985"><ele>120.0</ele><time>2026-04-26T08:02:53.413Z</time></trkpt><trkpt lat="43.8968668" lon="12.7110987"><ele>120.0</ele><time>2026-04-26T08:02:54.418Z</time></trkpt><trkpt lat="43.8968092" lon="12.7110065"><ele>119.33333333333333</ele><time>2026-04-26T08:02:55.416Z</time></trkpt><trkpt lat="43.8967599" lon="12.7109317"><ele>118.66666666666666</ele><time>2026-04-26T08:02:56.411Z</time></trkpt><trkpt lat="43.8967041" lon="12.7108556"><ele>118.0</ele><time>2026-04-26T08:02:58.407Z</time></trkpt><trkpt lat="43.8966453" lon="12.7108155"><ele>117.33333333333333</ele><time>2026-04-26T08:03:03.41Z</time></trkpt><trkpt lat="43.8965923" lon="12.7107616"><ele>116.66666666666666</ele><time>2026-04-26T08:03:04.415Z</time></trkpt><trkpt lat="43.8965275" lon="12.7106931"><ele>116.0</ele><time>2026-04-26T08:03:05.41Z</time></trkpt><trkpt lat="43.8964522" lon="12.7106258"><ele>120.0</ele><time>2026-04-26T08:03:06.408Z</time></trkpt><trkpt lat="43.8963646" lon="12.7105754"><ele>124.0</ele><time>2026-04-26T08:03:07.407Z</time></trkpt><trkpt lat="43.896149" lon="12.7105633"><ele>128.0</ele><time>2026-04-26T08:03:09.406Z</time></trkpt><trkpt lat="43.8960218" lon="12.7106083"><ele>132.0</ele><time>2026-04-26T08:03:10.409Z</time></trkpt><trkpt lat="43.8958861" lon="12.7106615"><ele>133.75</ele><time>2026-04-26T08:03:11.408Z</time></trkpt><trkpt lat="43.8957436" lon="12.7107017"><ele>135.5</ele><time>2026-04-26T08:03:12.41Z</time></trkpt><trkpt lat="43.8955993" lon="12.710735"><ele>137.25</ele><time>2026-04-26T08:03:13.412Z</time></trkpt><trkpt lat="43.8954529" lon="12.7107682"><ele>139.0</ele><time>2026-04-26T08:03:14.414Z</time></trkpt><trkpt lat="43.8953069" lon="12.7108071"><ele>139.0</ele><time>2026-04-26T08:03:15.413Z</time></trkpt><trkpt lat="43.8951647" lon="12.7108458"><ele>139.0</ele><time>2026-04-26T08:03:16.414Z</time></trkpt><trkpt lat="43.8950265" lon="12.7108856"><ele>139.0</ele><time>2026-04-26T08:03:17.406Z</time></trkpt><trkpt lat="43.8948939" lon="12.7109366"><ele>139.0</ele><time>2026-04-26T08:03:18.405Z</time></trkpt><trkpt lat="43.8947615" lon="12.7110036"><ele>140.0</ele><time>2026-04-26T08:03:19.407Z</time></trkpt><trkpt lat="43.8946294" lon="12.7110824"><ele>141.0</ele><time>2026-04-26T08:03:20.411Z</time></trkpt><trkpt lat="43.8944998" lon="12.7111718"><ele>142.0</ele><time>2026-04-26T08:03:21.409Z</time></trkpt><trkpt lat="43.8943704" lon="12.7112656"><ele>143.0</ele><time>2026-04-26T08:03:22.41Z</time></trkpt><trkpt lat="43.8942418" lon="12.7113589"><ele>143.0</ele><time>2026-04-26T08:03:23.412Z</time></trkpt><trkpt lat="43.894112" lon="12.7114524"><ele>143.0</ele><time>2026-04-26T08:03:24.411Z</time></trkpt><trkpt lat="43.8939841" lon="12.7115473"><ele>143.0</ele><time>2026-04-26T08:03:25.415Z</time></trkpt><trkpt lat="43.893866" lon="12.711647"><ele>143.0</ele><time>2026-04-26T08:03:26.415Z</time></trkpt><trkpt lat="43.8937566" lon="12.711748"><ele>143.0</ele><time>2026-04-26T08:03:27.408Z</time></trkpt><trkpt lat="43.8936582" lon="12.7118385"><ele>143.0</ele><time>2026-04-26T08:03:28.405Z</time></trkpt><trkpt lat="43.8934774" lon="12.7120035"><ele>143.0</ele><time>2026-04-26T08:03:30.407Z</time></trkpt><trkpt lat="43.893386" lon="12.7120773"><ele>143.0</ele><time>2026-04-26T08:03:31.409Z</time></trkpt><trkpt lat="43.8932948" lon="12.7121567"><ele>141.6</ele><time>2026-04-26T08:03:32.41Z</time></trkpt><trkpt lat="43.8932086" lon="12.7122531"><ele>140.20000000000002</ele><time>2026-04-26T08:03:33.413Z</time></trkpt><trkpt lat="43.8931229" lon="12.7123537"><ele>138.8</ele><time>2026-04-26T08:03:34.419Z</time></trkpt><trkpt lat="43.8930399" lon="12.712458"><ele>137.4</ele><time>2026-04-26T08:03:35.404Z</time></trkpt><trkpt lat="43.892957" lon="12.7125578"><ele>136.0</ele><time>2026-04-26T08:03:36.411Z</time></trkpt><trkpt lat="43.8928688" lon="12.7126409"><ele>136.0</ele><time>2026-04-26T08:03:37.407Z</time></trkpt><trkpt lat="43.8927765" lon="12.7127002"><ele>136.0</ele><time>2026-04-26T08:03:38.406Z</time></trkpt><trkpt lat="43.8926806" lon="12.7127384"><ele>136.0</ele><time>2026-04-26T08:03:39.41Z</time></trkpt><trkpt lat="43.8925778" lon="12.7127548"><ele>136.0</ele><time>2026-04-26T08:03:40.408Z</time></trkpt><trkpt lat="43.8924643" lon="12.7127554"><ele>136.0</ele><time>2026-04-26T08:03:41.411Z</time></trkpt><trkpt lat="43.892342" lon="12.7127499"><ele>134.5</ele><time>2026-04-26T08:03:42.406Z</time></trkpt><trkpt lat="43.8922139" lon="12.7127249"><ele>133.0</ele><time>2026-04-26T08:03:43.413Z</time></trkpt><trkpt lat="43.892082" lon="12.7126944"><ele>131.5</ele><time>2026-04-26T08:03:44.411Z</time></trkpt><trkpt lat="43.8919476" lon="12.7126653"><ele>130.0</ele><time>2026-04-26T08:03:45.414Z</time></trkpt><trkpt lat="43.8918163" lon="12.7126441"><ele>129.75</ele><time>2026-04-26T08:03:46.405Z</time></trkpt><trkpt lat="43.8916954" lon="12.7126257"><ele>129.5</ele><time>2026-04-26T08:03:47.41Z</time></trkpt><trkpt lat="43.8915797" lon="12.7126032"><ele>129.25</ele><time>2026-04-26T08:03:48.417Z</time></trkpt><trkpt lat="43.8914679" lon="12.712562"><ele>129.0</ele><time>2026-04-26T08:03:49.406Z</time></trkpt><trkpt lat="43.8912857" lon="12.712423"><ele>129.0</ele><time>2026-04-26T08:03:51.41Z</time></trkpt><trkpt lat="43.8912112" lon="12.7123293"><ele>129.0</ele><time>2026-04-26T08:03:52.419Z</time></trkpt><trkpt lat="43.8911535" lon="12.7122203"><ele>129.0</ele><time>2026-04-26T08:03:53.408Z</time></trkpt><trkpt lat="43.8911065" lon="12.7121125"><ele>129.0</ele><time>2026-04-26T08:03:54.415Z</time></trkpt><trkpt lat="43.8910644" lon="12.7120143"><ele>129.0</ele><time>2026-04-26T08:03:55.404Z</time></trkpt><trkpt lat="43.8910259" lon="12.7119207"><ele>129.0</ele><time>2026-04-26T08:03:56.406Z</time></trkpt><trkpt lat="43.8909869" lon="12.7118314"><ele>127.66666666666667</ele><time>2026-04-26T08:03:57.408Z</time></trkpt><trkpt lat="43.8909455" lon="12.7117446"><ele>126.33333333333334</ele><time>2026-04-26T08:03:58.411Z</time></trkpt><trkpt lat="43.8909002" lon="12.711661"><ele>125.0</ele><time>2026-04-26T08:03:59.408Z</time></trkpt><trkpt lat="43.8908532" lon="12.7115671"><ele>123.66666666666667</ele><time>2026-04-26T08:04:00.412Z</time></trkpt><trkpt lat="43.890808" lon="12.7114696"><ele>122.33333333333334</ele><time>2026-04-26T08:04:01.41Z</time></trkpt><trkpt lat="43.8907615" lon="12.711375"><ele>121.0</ele><time>2026-04-26T08:04:02.409Z</time></trkpt><trkpt lat="43.8907112" lon="12.7112847"><ele>120.33333333333334</ele><time>2026-04-26T08:04:03.407Z</time></trkpt><trkpt lat="43.890658" lon="12.7112061"><ele>119.66666666666667</ele><time>2026-04-26T08:04:04.407Z</time></trkpt><trkpt lat="43.8905968" lon="12.7111474"><ele>119.0</ele><time>2026-04-26T08:04:05.405Z</time></trkpt><trkpt lat="43.8905289" lon="12.7111084"><ele>118.33333333333334</ele><time>2026-04-26T08:04:06.406Z</time></trkpt><trkpt lat="43.8904514" lon="12.711086"><ele>117.66666666666667</ele><time>2026-04-26T08:04:07.408Z</time></trkpt><trkpt lat="43.8903663" lon="12.7110787"><ele>117.0</ele><time>2026-04-26T08:04:08.411Z</time></trkpt><trkpt lat="43.8902842" lon="12.7110749"><ele>115.0</ele><time>2026-04-26T08:04:09.411Z</time></trkpt><trkpt lat="43.8902085" lon="12.7110653"><ele>112.99999999999999</ele><time>2026-04-26T08:04:10.416Z</time></trkpt><trkpt lat="43.8900537" lon="12.7110568"><ele>110.99999999999999</ele><time>2026-04-26T08:04:12.407Z</time></trkpt><trkpt lat="43.8899741" lon="12.711058"><ele>109.0</ele><time>2026-04-26T08:04:13.415Z</time></trkpt><trkpt lat="43.8898856" lon="12.7110718"><ele>107.0</ele><time>2026-04-26T08:04:14.407Z</time></trkpt><trkpt lat="43.8897958" lon="12.7110925"><ele>106.66666666666666</ele><time>2026-04-26T08:04:15.405Z</time></trkpt><trkpt lat="43.8897082" lon="12.7111161"><ele>106.33333333333333</ele><time>2026-04-26T08:04:16.408Z</time></trkpt><trkpt lat="43.889618" lon="12.7111479"><ele>106.0</ele><time>2026-04-26T08:04:17.409Z</time></trkpt><trkpt lat="43.8895314" lon="12.7111875"><ele>105.66666666666666</ele><time>2026-04-26T08:04:18.41Z</time></trkpt><trkpt lat="43.8894503" lon="12.7112427"><ele>105.33333333333333</ele><time>2026-04-26T08:04:19.412Z</time></trkpt><trkpt lat="43.8893754" lon="12.7112904"><ele>105.0</ele><time>2026-04-26T08:04:20.405Z</time></trkpt><trkpt lat="43.8892932" lon="12.7113342"><ele>103.0</ele><time>2026-04-26T08:04:21.407Z</time></trkpt><trkpt lat="43.8892023" lon="12.7113617"><ele>101.0</ele><time>2026-04-26T08:04:22.413Z</time></trkpt><trkpt lat="43.8891054" lon="12.7113641"><ele>99.0</ele><time>2026-04-26T08:04:23.407Z</time></trkpt><trkpt lat="43.8889982" lon="12.7113454"><ele>97.0</ele><time>2026-04-26T08:04:24.408Z</time></trkpt><trkpt lat="43.8888868" lon="12.7113091"><ele>95.0</ele><time>2026-04-26T08:04:25.408Z</time></trkpt><trkpt lat="43.8887787" lon="12.7112624"><ele>95.0</ele><time>2026-04-26T08:04:26.408Z</time></trkpt><trkpt lat="43.8886654" lon="12.7112285"><ele>95.0</ele><time>2026-04-26T08:04:27.412Z</time></trkpt><trkpt lat="43.8885555" lon="12.7111977"><ele>95.0</ele><time>2026-04-26T08:04:28.411Z</time></trkpt><trkpt lat="43.8884508" lon="12.711171"><ele>95.0</ele><time>2026-04-26T08:04:29.409Z</time></trkpt><trkpt lat="43.8883491" lon="12.7111409"><ele>95.0</ele><time>2026-04-26T08:04:30.408Z</time></trkpt><trkpt lat="43.8882506" lon="12.7111156"><ele>92.0</ele><time>2026-04-26T08:04:31.409Z</time></trkpt><trkpt lat="43.8880625" lon="12.7110725"><ele>89.0</ele><time>2026-04-26T08:04:33.407Z</time></trkpt><trkpt lat="43.8879655" lon="12.7110635"><ele>86.0</ele><time>2026-04-26T08:04:34.408Z</time></trkpt><trkpt lat="43.8878766" lon="12.7110748"><ele>83.0</ele><time>2026-04-26T08:04:35.409Z</time></trkpt><trkpt lat="43.8877932" lon="12.7111029"><ele>83.0</ele><time>2026-04-26T08:04:36.411Z</time></trkpt><trkpt lat="43.8877117" lon="12.7111523"><ele>83.0</ele><time>2026-04-26T08:04:37.409Z</time></trkpt><trkpt lat="43.8876295" lon="12.7112154"><ele>83.0</ele><time>2026-04-26T08:04:38.411Z</time></trkpt><trkpt lat="43.8875472" lon="12.7112752"><ele>83.0</ele><time>2026-04-26T08:04:39.409Z</time></trkpt><trkpt lat="43.8874641" lon="12.7113409"><ele>83.0</ele><time>2026-04-26T08:04:40.408Z</time></trkpt><trkpt lat="43.8873887" lon="12.7113899"><ele>82.0</ele><time>2026-04-26T08:04:41.41Z</time></trkpt><trkpt lat="43.8873209" lon="12.7114318"><ele>81.0</ele><time>2026-04-26T08:04:42.408Z</time></trkpt><trkpt lat="43.8872306" lon="12.7115143"><ele>80.0</ele><time>2026-04-26T08:04:44.408Z</time></trkpt><trkpt lat="43.8871932" lon="12.7116385"><ele>79.0</ele><time>2026-04-26T08:04:46.412Z</time></trkpt><trkpt lat="43.887202" lon="12.7118134"><ele>78.0</ele><time>2026-04-26T08:04:48.407Z</time></trkpt><trkpt lat="43.8872116" lon="12.7119277"><ele>78.0</ele><time>2026-04-26T08:04:49.408Z</time></trkpt><trkpt lat="43.887211" lon="12.7120506"><ele>78.0</ele><time>2026-04-26T08:04:50.405Z</time></trkpt><trkpt lat="43.8871892" lon="12.7121748"><ele>78.0</ele><time>2026-04-26T08:04:51.409Z</time></trkpt><trkpt lat="43.8871468" lon="12.712317"><ele>78.0</ele><time>2026-04-26T08:04:52.409Z</time></trkpt><trkpt lat="43.8870673" lon="12.7126662"><ele>79.0</ele><time>2026-04-26T08:04:54.413Z</time></trkpt><trkpt lat="43.8870357" lon="12.7128583"><ele>80.0</ele><time>2026-04-26T08:04:55.407Z</time></trkpt><trkpt lat="43.8870026" lon="12.7130473"><ele>81.0</ele><time>2026-04-26T08:04:56.413Z</time></trkpt><trkpt lat="43.8869712" lon="12.7132343"><ele>82.0</ele><time>2026-04-26T08:04:57.405Z</time></trkpt><trkpt lat="43.8869579" lon="12.7134246"><ele>80.5</ele><time>2026-04-26T08:04:58.407Z</time></trkpt><trkpt lat="43.8869485" lon="12.7136102"><ele>79.0</ele><time>2026-04-26T08:04:59.409Z</time></trkpt><trkpt lat="43.8869454" lon="12.7137941"><ele>77.5</ele><time>2026-04-26T08:05:00.411Z</time></trkpt><trkpt lat="43.8869475" lon="12.7139663"><ele>76.0</ele><time>2026-04-26T08:05:01.406Z</time></trkpt><trkpt lat="43.8869531" lon="12.7141331"><ele>76.0</ele><time>2026-04-26T08:05:02.407Z</time></trkpt><trkpt lat="43.8869765" lon="12.7143045"><ele>76.0</ele><time>2026-04-26T08:05:03.41Z</time></trkpt><trkpt lat="43.8870052" lon="12.7144866"><ele>76.0</ele><time>2026-04-26T08:05:04.404Z</time></trkpt><trkpt lat="43.8870384" lon="12.7146561"><ele>76.0</ele><time>2026-04-26T08:05:05.408Z</time></trkpt><trkpt lat="43.8870766" lon="12.7148245"><ele>74.0</ele><time>2026-04-26T08:05:06.409Z</time></trkpt><trkpt lat="43.8871146" lon="12.7149976"><ele>72.0</ele><time>2026-04-26T08:05:07.406Z</time></trkpt><trkpt lat="43.8871481" lon="12.7151626"><ele>70.0</ele><time>2026-04-26T08:05:08.408Z</time></trkpt><trkpt lat="43.8871734" lon="12.7153227"><ele>68.0</ele><time>2026-04-26T08:05:09.407Z</time></trkpt><trkpt lat="43.8871829" lon="12.715485"><ele>68.5</ele><time>2026-04-26T08:05:10.406Z</time></trkpt><trkpt lat="43.8871822" lon="12.7156473"><ele>69.0</ele><time>2026-04-26T08:05:11.409Z</time></trkpt><trkpt lat="43.8871616" lon="12.7158079"><ele>69.5</ele><time>2026-04-26T08:05:12.407Z</time></trkpt><trkpt lat="43.8871237" lon="12.7159875"><ele>70.0</ele><time>2026-04-26T08:05:13.424Z</time></trkpt><trkpt lat="43.8870347" lon="12.7163849"><ele>70.0</ele><time>2026-04-26T08:05:15.412Z</time></trkpt><trkpt lat="43.8869882" lon="12.7165743"><ele>70.0</ele><time>2026-04-26T08:05:16.411Z</time></trkpt><trkpt lat="43.8869425" lon="12.7167426"><ele>70.0</ele><time>2026-04-26T08:05:17.409Z</time></trkpt><trkpt lat="43.8869043" lon="12.7169047"><ele>70.0</ele><time>2026-04-26T08:05:18.41Z</time></trkpt><trkpt lat="43.8868745" lon="12.7170617"><ele>69.33333333333333</ele><time>2026-04-26T08:05:19.412Z</time></trkpt><trkpt lat="43.8868456" lon="12.7172033"><ele>68.66666666666666</ele><time>2026-04-26T08:05:20.403Z</time></trkpt><trkpt lat="43.8868231" lon="12.7173279"><ele>68.0</ele><time>2026-04-26T08:05:21.404Z</time></trkpt><trkpt lat="43.8867981" lon="12.7174256"><ele>67.33333333333333</ele><time>2026-04-26T08:05:22.406Z</time></trkpt><trkpt lat="43.886755" lon="12.7174951"><ele>66.66666666666667</ele><time>2026-04-26T08:05:23.407Z</time></trkpt><trkpt lat="43.8866947" lon="12.7175316"><ele>66.0</ele><time>2026-04-26T08:05:24.407Z</time></trkpt><trkpt lat="43.8866258" lon="12.7175299"><ele>66.0</ele><time>2026-04-26T08:05:25.409Z</time></trkpt><trkpt lat="43.8865533" lon="12.7174967"><ele>66.0</ele><time>2026-04-26T08:05:26.41Z</time></trkpt><trkpt lat="43.886469" lon="12.7174522"><ele>66.0</ele><time>2026-04-26T08:05:27.41Z</time></trkpt><trkpt lat="43.8863885" lon="12.7173981"><ele>66.0</ele><time>2026-04-26T08:05:28.417Z</time></trkpt><trkpt lat="43.8863142" lon="12.7173485"><ele>66.0</ele><time>2026-04-26T08:05:29.407Z</time></trkpt><trkpt lat="43.8862433" lon="12.7173207"><ele>66.0</ele><time>2026-04-26T08:05:30.405Z</time></trkpt><trkpt lat="43.886173" lon="12.7172966"><ele>66.0</ele><time>2026-04-26T08:05:31.407Z</time></trkpt><trkpt lat="43.8861072" lon="12.7172774"><ele>66.0</ele><time>2026-04-26T08:05:32.408Z</time></trkpt><trkpt lat="43.8860358" lon="12.7172654"><ele>66.0</ele><time>2026-04-26T08:05:33.409Z</time></trkpt><trkpt lat="43.8859727" lon="12.7172786"><ele>66.0</ele><time>2026-04-26T08:05:34.408Z</time></trkpt><trkpt lat="43.8857569" lon="12.7174277"><ele>66.0</ele><time>2026-04-26T08:05:38.406Z</time></trkpt><trkpt lat="43.8856861" lon="12.7174726"><ele>64.33333333333333</ele><time>2026-04-26T08:05:39.406Z</time></trkpt><trkpt lat="43.8856203" lon="12.7175198"><ele>62.66666666666667</ele><time>2026-04-26T08:05:40.406Z</time></trkpt><trkpt lat="43.885558" lon="12.7175691"><ele>61.0</ele><time>2026-04-26T08:05:41.408Z</time></trkpt><trkpt lat="43.8854526" lon="12.7176231"><ele>59.333333333333336</ele><time>2026-04-26T08:05:43.41Z</time></trkpt><trkpt lat="43.8853826" lon="12.7176375"><ele>57.66666666666667</ele><time>2026-04-26T08:05:44.41Z</time></trkpt><trkpt lat="43.8853098" lon="12.7176341"><ele>56.0</ele><time>2026-04-26T08:05:45.413Z</time></trkpt><trkpt lat="43.8852325" lon="12.7176328"><ele>56.00000000000001</ele><time>2026-04-26T08:05:46.406Z</time></trkpt><trkpt lat="43.8851589" lon="12.7176337"><ele>56.0</ele><time>2026-04-26T08:05:47.406Z</time></trkpt><trkpt lat="43.8850777" lon="12.7176177"><ele>56.0</ele><time>2026-04-26T08:05:48.406Z</time></trkpt><trkpt lat="43.8849954" lon="12.7176001"><ele>56.0</ele><time>2026-04-26T08:05:49.406Z</time></trkpt><trkpt lat="43.8849149" lon="12.7175575"><ele>56.00000000000001</ele><time>2026-04-26T08:05:50.408Z</time></trkpt><trkpt lat="43.88483" lon="12.7175124"><ele>56.0</ele><time>2026-04-26T08:05:51.405Z</time></trkpt><trkpt lat="43.884759" lon="12.7174772"><ele>56.0</ele><time>2026-04-26T08:05:52.407Z</time></trkpt><trkpt lat="43.8846984" lon="12.7174381"><ele>55.99999999999999</ele><time>2026-04-26T08:05:53.41Z</time></trkpt><trkpt lat="43.8846329" lon="12.717402"><ele>55.99999999999999</ele><time>2026-04-26T08:05:54.41Z</time></trkpt><trkpt lat="43.8845607" lon="12.7173525"><ele>56.0</ele><time>2026-04-26T08:05:55.409Z</time></trkpt><trkpt lat="43.8844146" lon="12.717268"><ele>56.0</ele><time>2026-04-26T08:05:57.405Z</time></trkpt><trkpt lat="43.8843404" lon="12.7172467"><ele>56.00000000000001</ele><time>2026-04-26T08:05:58.41Z</time></trkpt><trkpt lat="43.8842638" lon="12.7172207"><ele>56.0</ele><time>2026-04-26T08:05:59.405Z</time></trkpt><trkpt lat="43.8841838" lon="12.7171996"><ele>56.0</ele><time>2026-04-26T08:06:00.412Z</time></trkpt><trkpt lat="43.8841044" lon="12.717171"><ele>56.0</ele><time>2026-04-26T08:06:01.408Z</time></trkpt><trkpt lat="43.884038" lon="12.7171272"><ele>56.00000000000001</ele><time>2026-04-26T08:06:02.411Z</time></trkpt><trkpt lat="43.883968" lon="12.7170882"><ele>56.0</ele><time>2026-04-26T08:06:03.408Z</time></trkpt><trkpt lat="43.8839003" lon="12.7170489"><ele>56.833333333333336</ele><time>2026-04-26T08:06:04.406Z</time></trkpt><trkpt lat="43.8838315" lon="12.7170148"><ele>57.66666666666667</ele><time>2026-04-26T08:06:05.408Z</time></trkpt><trkpt lat="43.8837606" lon="12.7169829"><ele>58.5</ele><time>2026-04-26T08:06:06.407Z</time></trkpt><trkpt lat="43.8836852" lon="12.7169434"><ele>59.33333333333333</ele><time>2026-04-26T08:06:08.409Z</time></trkpt><trkpt lat="43.8836048" lon="12.7168917"><ele>60.166666666666664</ele><time>2026-04-26T08:06:13.417Z</time></trkpt><trkpt lat="43.8835233" lon="12.716867"><ele>61.0</ele><time>2026-04-26T08:06:15.427Z</time></trkpt><trkpt lat="43.8834536" lon="12.7168412"><ele>63.199999999999996</ele><time>2026-04-26T08:06:16.411Z</time></trkpt><trkpt lat="43.8832723" lon="12.7167462"><ele>65.39999999999999</ele><time>2026-04-26T08:06:19.408Z</time></trkpt><trkpt lat="43.8832066" lon="12.7167222"><ele>67.6</ele><time>2026-04-26T08:06:20.412Z</time></trkpt><trkpt lat="43.8831419" lon="12.7167002"><ele>69.8</ele><time>2026-04-26T08:06:21.405Z</time></trkpt><trkpt lat="43.8830277" lon="12.7166812"><ele>72.0</ele><time>2026-04-26T08:06:23.415Z</time></trkpt><trkpt lat="43.8829232" lon="12.7167335"><ele>72.0</ele><time>2026-04-26T08:06:25.413Z</time></trkpt><trkpt lat="43.8828659" lon="12.7167972"><ele>72.0</ele><time>2026-04-26T08:06:26.411Z</time></trkpt><trkpt lat="43.882808" lon="12.7168802"><ele>72.0</ele><time>2026-04-26T08:06:27.409Z</time></trkpt><trkpt lat="43.8827466" lon="12.7169736"><ele>72.0</ele><time>2026-04-26T08:06:28.409Z</time></trkpt><trkpt lat="43.8826781" lon="12.7170769"><ele>72.0</ele><time>2026-04-26T08:06:29.409Z</time></trkpt><trkpt lat="43.8826015" lon="12.717189"><ele>73.25</ele><time>2026-04-26T08:06:30.411Z</time></trkpt><trkpt lat="43.8825186" lon="12.7172979"><ele>74.5</ele><time>2026-04-26T08:06:31.41Z</time></trkpt><trkpt lat="43.8824332" lon="12.7174116"><ele>75.75</ele><time>2026-04-26T08:06:32.408Z</time></trkpt><trkpt lat="43.8823458" lon="12.7175295"><ele>77.0</ele><time>2026-04-26T08:06:33.405Z</time></trkpt><trkpt lat="43.8822556" lon="12.7176516"><ele>76.0</ele><time>2026-04-26T08:06:34.405Z</time></trkpt><trkpt lat="43.8821665" lon="12.7177741"><ele>75.0</ele><time>2026-04-26T08:06:35.407Z</time></trkpt><trkpt lat="43.8820807" lon="12.7178946"><ele>74.0</ele><time>2026-04-26T08:06:36.409Z</time></trkpt><trkpt lat="43.8819979" lon="12.7180087"><ele>73.0</ele><time>2026-04-26T08:06:37.411Z</time></trkpt><trkpt lat="43.881837" lon="12.7181999"><ele>74.71428571428571</ele><time>2026-04-26T08:06:39.41Z</time></trkpt><trkpt lat="43.8817618" lon="12.7182591"><ele>76.42857142857143</ele><time>2026-04-26T08:06:40.409Z</time></trkpt><trkpt lat="43.8816928" lon="12.7182861"><ele>78.14285714285714</ele><time>2026-04-26T08:06:41.409Z</time></trkpt><trkpt lat="43.8816281" lon="12.7182817"><ele>79.85714285714286</ele><time>2026-04-26T08:06:42.412Z</time></trkpt><trkpt lat="43.8815676" lon="12.7182506"><ele>81.57142857142857</ele><time>2026-04-26T08:06:43.408Z</time></trkpt><trkpt lat="43.8815053" lon="12.7181896"><ele>83.28571428571429</ele><time>2026-04-26T08:06:44.409Z</time></trkpt><trkpt lat="43.8814451" lon="12.7181124"><ele>85.0</ele><time>2026-04-26T08:06:45.411Z</time></trkpt><trkpt lat="43.8813981" lon="12.718008"><ele>85.0</ele><time>2026-04-26T08:06:46.41Z</time></trkpt><trkpt lat="43.8813655" lon="12.7178734"><ele>85.0</ele><time>2026-04-26T08:06:47.409Z</time></trkpt><trkpt lat="43.8813504" lon="12.7177453"><ele>85.0</ele><time>2026-04-26T08:06:48.407Z</time></trkpt><trkpt lat="43.881356" lon="12.7176492"><ele>85.0</ele><time>2026-04-26T08:06:49.409Z</time></trkpt><trkpt lat="43.8813626" lon="12.7175392"><ele>85.0</ele><time>2026-04-26T08:06:51.404Z</time></trkpt><trkpt lat="43.8812958" lon="12.7176247"><ele>85.0</ele><time>2026-04-26T08:06:55.409Z</time></trkpt><trkpt lat="43.8812906" lon="12.7177128"><ele>85.0</ele><time>2026-04-26T08:06:56.416Z</time></trkpt><trkpt lat="43.8813009" lon="12.717812"><ele>85.0</ele><time>2026-04-26T08:06:57.409Z</time></trkpt><trkpt lat="43.8813044" lon="12.7179179"><ele>85.0</ele><time>2026-04-26T08:06:58.411Z</time></trkpt><trkpt lat="43.8813503" lon="12.718131"><ele>85.0</ele><time>2026-04-26T08:07:00.41Z</time></trkpt><trkpt lat="43.8813928" lon="12.7182338"><ele>85.0</ele><time>2026-04-26T08:07:01.413Z</time></trkpt><trkpt lat="43.8814297" lon="12.7183349"><ele>85.0</ele><time>2026-04-26T08:07:02.405Z</time></trkpt><trkpt lat="43.8814559" lon="12.7184392"><ele>85.0</ele><time>2026-04-26T08:07:03.411Z</time></trkpt><trkpt lat="43.8814702" lon="12.7185459"><ele>85.0</ele><time>2026-04-26T08:07:04.405Z</time></trkpt><trkpt lat="43.8814684" lon="12.718659"><ele>85.0</ele><time>2026-04-26T08:07:05.408Z</time></trkpt><trkpt lat="43.8814539" lon="12.7187756"><ele>85.0</ele><time>2026-04-26T08:07:06.411Z</time></trkpt><trkpt lat="43.8814366" lon="12.7188975"><ele>85.0</ele><time>2026-04-26T08:07:07.408Z</time></trkpt><trkpt lat="43.881418" lon="12.7190257"><ele>83.5</ele><time>2026-04-26T08:07:08.409Z</time></trkpt><trkpt lat="43.8813975" lon="12.7191381"><ele>82.0</ele><time>2026-04-26T08:07:09.415Z</time></trkpt><trkpt lat="43.8813754" lon="12.7192575"><ele>80.5</ele><time>2026-04-26T08:07:10.406Z</time></trkpt><trkpt lat="43.881345" lon="12.7193767"><ele>79.0</ele><time>2026-04-26T08:07:11.409Z</time></trkpt><trkpt lat="43.8813146" lon="12.719496"><ele>77.5</ele><time>2026-04-26T08:07:12.416Z</time></trkpt><trkpt lat="43.8812796" lon="12.7195883"><ele>76.0</ele><time>2026-04-26T08:07:13.406Z</time></trkpt><trkpt lat="43.8812249" lon="12.7196544"><ele>73.8</ele><time>2026-04-26T08:07:14.411Z</time></trkpt><trkpt lat="43.8811619" lon="12.7196811"><ele>71.6</ele><time>2026-04-26T08:07:15.407Z</time></trkpt><trkpt lat="43.8810818" lon="12.719681"><ele>69.4</ele><time>2026-04-26T08:07:16.407Z</time></trkpt><trkpt lat="43.8809669" lon="12.7196668"><ele>67.2</ele><time>2026-04-26T08:07:17.407Z</time></trkpt><trkpt lat="43.8808425" lon="12.7196526"><ele>65.0</ele><time>2026-04-26T08:07:18.411Z</time></trkpt><trkpt lat="43.8806983" lon="12.7196418"><ele>64.0</ele><time>2026-04-26T08:07:19.411Z</time></trkpt><trkpt lat="43.8803932" lon="12.7195754"><ele>63.0</ele><time>2026-04-26T08:07:21.403Z</time></trkpt><trkpt lat="43.8802719" lon="12.7195331"><ele>62.0</ele><time>2026-04-26T08:07:22.409Z</time></trkpt><trkpt lat="43.8801658" lon="12.7194778"><ele>61.0</ele><time>2026-04-26T08:07:23.406Z</time></trkpt><trkpt lat="43.8800694" lon="12.7194014"><ele>60.0</ele><time>2026-04-26T08:07:24.407Z</time></trkpt><trkpt lat="43.8799751" lon="12.7192986"><ele>59.0</ele><time>2026-04-26T08:07:25.407Z</time></trkpt><trkpt lat="43.8798826" lon="12.7191818"><ele>58.0</ele><time>2026-04-26T08:07:26.408Z</time></trkpt><trkpt lat="43.8798009" lon="12.719071"><ele>60.2</ele><time>2026-04-26T08:07:27.409Z</time></trkpt><trkpt lat="43.8797257" lon="12.718955"><ele>62.4</ele><time>2026-04-26T08:07:28.41Z</time></trkpt><trkpt lat="43.8796538" lon="12.7188428"><ele>64.60000000000001</ele><time>2026-04-26T08:07:29.41Z</time></trkpt><trkpt lat="43.8795888" lon="12.7187346"><ele>66.8</ele><time>2026-04-26T08:07:30.416Z</time></trkpt><trkpt lat="43.8795287" lon="12.7186388"><ele>69.0</ele><time>2026-04-26T08:07:31.409Z</time></trkpt><trkpt lat="43.8794681" lon="12.7185422"><ele>70.4</ele><time>2026-04-26T08:07:32.406Z</time></trkpt><trkpt lat="43.8793972" lon="12.718469"><ele>71.80000000000001</ele><time>2026-04-26T08:07:33.405Z</time></trkpt><trkpt lat="43.8793191" lon="12.7184154"><ele>73.19999999999999</ele><time>2026-04-26T08:07:34.411Z</time></trkpt><trkpt lat="43.8792242" lon="12.7183887"><ele>74.6</ele><time>2026-04-26T08:07:35.407Z</time></trkpt><trkpt lat="43.8791265" lon="12.7183942"><ele>76.0</ele><time>2026-04-26T08:07:36.411Z</time></trkpt><trkpt lat="43.8790165" lon="12.7184415"><ele>72.5</ele><time>2026-04-26T08:07:37.413Z</time></trkpt><trkpt lat="43.8789086" lon="12.7185082"><ele>69.0</ele><time>2026-04-26T08:07:38.412Z</time></trkpt><trkpt lat="43.8787991" lon="12.7185703"><ele>65.5</ele><time>2026-04-26T08:07:39.405Z</time></trkpt><trkpt lat="43.8786844" lon="12.7186109"><ele>62.0</ele><time>2026-04-26T08:07:40.413Z</time></trkpt><trkpt lat="43.8784597" lon="12.7186504"><ele>60.5</ele><time>2026-04-26T08:07:42.405Z</time></trkpt><trkpt lat="43.8783533" lon="12.7186448"><ele>59.0</ele><time>2026-04-26T08:07:43.407Z</time></trkpt><trkpt lat="43.8782414" lon="12.7186289"><ele>57.5</ele><time>2026-04-26T08:07:44.408Z</time></trkpt><trkpt lat="43.8781258" lon="12.7186119"><ele>56.0</ele><time>2026-04-26T08:07:45.409Z</time></trkpt><trkpt lat="43.8780115" lon="12.7185861"><ele>56.0</ele><time>2026-04-26T08:07:46.409Z</time></trkpt><trkpt lat="43.8778957" lon="12.7185568"><ele>56.0</ele><time>2026-04-26T08:07:47.411Z</time></trkpt><trkpt lat="43.8777752" lon="12.7185238"><ele>56.0</ele><time>2026-04-26T08:07:48.407Z</time></trkpt><trkpt lat="43.8776476" lon="12.7185029"><ele>56.0</ele><time>2026-04-26T08:07:49.411Z</time></trkpt><trkpt lat="43.877523" lon="12.7184819"><ele>56.0</ele><time>2026-04-26T08:07:50.407Z</time></trkpt><trkpt lat="43.8773901" lon="12.7184655"><ele>56.0</ele><time>2026-04-26T08:07:51.404Z</time></trkpt><trkpt lat="43.8772671" lon="12.7184409"><ele>56.0</ele><time>2026-04-26T08:07:52.405Z</time></trkpt><trkpt lat="43.8771524" lon="12.718399"><ele>56.0</ele><time>2026-04-26T08:07:53.405Z</time></trkpt><trkpt lat="43.8770342" lon="12.7183468"><ele>56.0</ele><time>2026-04-26T08:07:54.406Z</time></trkpt><trkpt lat="43.8769165" lon="12.7182839"><ele>56.0</ele><time>2026-04-26T08:07:55.409Z</time></trkpt><trkpt lat="43.876798" lon="12.7182113"><ele>56.0</ele><time>2026-04-26T08:07:56.407Z</time></trkpt><trkpt lat="43.8766754" lon="12.7181348"><ele>56.0</ele><time>2026-04-26T08:07:57.408Z</time></trkpt><trkpt lat="43.8765567" lon="12.7180679"><ele>56.0</ele><time>2026-04-26T08:07:58.407Z</time></trkpt><trkpt lat="43.8764434" lon="12.7180148"><ele>56.0</ele><time>2026-04-26T08:07:59.413Z</time></trkpt><trkpt lat="43.8763182" lon="12.7179713"><ele>56.0</ele><time>2026-04-26T08:08:00.409Z</time></trkpt><trkpt lat="43.8761944" lon="12.7179371"><ele>56.0</ele><time>2026-04-26T08:08:01.406Z</time></trkpt><trkpt lat="43.8759104" lon="12.7178997"><ele>56.5</ele><time>2026-04-26T08:08:03.414Z</time></trkpt><trkpt lat="43.8757782" lon="12.7178889"><ele>57.0</ele><time>2026-04-26T08:08:04.407Z</time></trkpt><trkpt lat="43.8756522" lon="12.7178748"><ele>57.5</ele><time>2026-04-26T08:08:05.407Z</time></trkpt><trkpt lat="43.8755044" lon="12.7178654"><ele>58.0</ele><time>2026-04-26T08:08:06.408Z</time></trkpt><trkpt lat="43.8753278" lon="12.7178707"><ele>58.0</ele><time>2026-04-26T08:08:07.41Z</time></trkpt><trkpt lat="43.8751688" lon="12.7178862"><ele>58.0</ele><time>2026-04-26T08:08:08.411Z</time></trkpt><trkpt lat="43.8750132" lon="12.7179179"><ele>58.0</ele><time>2026-04-26T08:08:09.413Z</time></trkpt><trkpt lat="43.8748553" lon="12.7179628"><ele>59.0</ele><time>2026-04-26T08:08:10.408Z</time></trkpt><trkpt lat="43.8746975" lon="12.7180078"><ele>60.0</ele><time>2026-04-26T08:08:11.412Z</time></trkpt><trkpt lat="43.8745413" lon="12.7180634"><ele>61.0</ele><time>2026-04-26T08:08:12.408Z</time></trkpt><trkpt lat="43.8743862" lon="12.7181272"><ele>61.25</ele><time>2026-04-26T08:08:13.406Z</time></trkpt><trkpt lat="43.8742422" lon="12.7181843"><ele>61.5</ele><time>2026-04-26T08:08:14.408Z</time></trkpt><trkpt lat="43.874099" lon="12.718246"><ele>61.75</ele><time>2026-04-26T08:08:15.406Z</time></trkpt><trkpt lat="43.873958" lon="12.7182764"><ele>62.0</ele><time>2026-04-26T08:08:16.41Z</time></trkpt><trkpt lat="43.8738073" lon="12.7182978"><ele>62.0</ele><time>2026-04-26T08:08:17.408Z</time></trkpt><trkpt lat="43.8736474" lon="12.7183069"><ele>62.0</ele><time>2026-04-26T08:08:18.408Z</time></trkpt><trkpt lat="43.8734735" lon="12.7183059"><ele>62.0</ele><time>2026-04-26T08:08:19.409Z</time></trkpt><trkpt lat="43.8732852" lon="12.7183066"><ele>62.333333333333336</ele><time>2026-04-26T08:08:20.406Z</time></trkpt><trkpt lat="43.8730902" lon="12.7183086"><ele>62.66666666666667</ele><time>2026-04-26T08:08:21.402Z</time></trkpt><trkpt lat="43.8729021" lon="12.7183086"><ele>63.0</ele><time>2026-04-26T08:08:22.404Z</time></trkpt><trkpt lat="43.8725653" lon="12.7183096"><ele>63.0</ele><time>2026-04-26T08:08:24.411Z</time></trkpt><trkpt lat="43.87241" lon="12.7183081"><ele>63.0</ele><time>2026-04-26T08:08:25.41Z</time></trkpt><trkpt lat="43.8722638" lon="12.7183005"><ele>63.0</ele><time>2026-04-26T08:08:26.41Z</time></trkpt><trkpt lat="43.8721373" lon="12.718286"><ele>63.0</ele><time>2026-04-26T08:08:27.409Z</time></trkpt><trkpt lat="43.872022" lon="12.7182591"><ele>63.0</ele><time>2026-04-26T08:08:28.408Z</time></trkpt><trkpt lat="43.8719057" lon="12.7182171"><ele>63.0</ele><time>2026-04-26T08:08:29.409Z</time></trkpt><trkpt lat="43.8717873" lon="12.718161"><ele>63.0</ele><time>2026-04-26T08:08:30.405Z</time></trkpt><trkpt lat="43.8716706" lon="12.7180996"><ele>63.0</ele><time>2026-04-26T08:08:31.407Z</time></trkpt><trkpt lat="43.8715516" lon="12.7180295"><ele>62.5</ele><time>2026-04-26T08:08:32.407Z</time></trkpt><trkpt lat="43.8714335" lon="12.7179527"><ele>62.0</ele><time>2026-04-26T08:08:33.407Z</time></trkpt><trkpt lat="43.8713216" lon="12.7178775"><ele>61.5</ele><time>2026-04-26T08:08:34.408Z</time></trkpt><trkpt lat="43.8712205" lon="12.7178099"><ele>61.0</ele><time>2026-04-26T08:08:35.408Z</time></trkpt><trkpt lat="43.8711329" lon="12.717748"><ele>60.99999999999999</ele><time>2026-04-26T08:08:36.409Z</time></trkpt><trkpt lat="43.871053" lon="12.7176887"><ele>61.0</ele><time>2026-04-26T08:08:37.408Z</time></trkpt><trkpt lat="43.870972" lon="12.7176511"><ele>61.0</ele><time>2026-04-26T08:08:38.409Z</time></trkpt><trkpt lat="43.8708889" lon="12.717642"><ele>61.0</ele><time>2026-04-26T08:08:39.418Z</time></trkpt><trkpt lat="43.8708069" lon="12.7176639"><ele>60.99999999999999</ele><time>2026-04-26T08:08:40.407Z</time></trkpt><trkpt lat="43.8707247" lon="12.7177063"><ele>61.0</ele><time>2026-04-26T08:08:41.405Z</time></trkpt><trkpt lat="43.87064" lon="12.7177596"><ele>61.0</ele><time>2026-04-26T08:08:42.407Z</time></trkpt><trkpt lat="43.8705456" lon="12.7178051"><ele>61.0</ele><time>2026-04-26T08:08:43.409Z</time></trkpt><trkpt lat="43.8703031" lon="12.7178644"><ele>61.0</ele><time>2026-04-26T08:08:45.412Z</time></trkpt><trkpt lat="43.8701899" lon="12.7178833"><ele>61.599999999999994</ele><time>2026-04-26T08:08:46.413Z</time></trkpt><trkpt lat="43.8700979" lon="12.7179005"><ele>62.199999999999996</ele><time>2026-04-26T08:08:47.409Z</time></trkpt><trkpt lat="43.8700247" lon="12.7179118"><ele>62.800000000000004</ele><time>2026-04-26T08:08:48.409Z</time></trkpt><trkpt lat="43.8699587" lon="12.7179269"><ele>63.400000000000006</ele><time>2026-04-26T08:08:50.406Z</time></trkpt><trkpt lat="43.8698753" lon="12.7180433"><ele>64.0</ele><time>2026-04-26T08:08:52.407Z</time></trkpt><trkpt lat="43.8698206" lon="12.7181726"><ele>64.0</ele><time>2026-04-26T08:08:53.405Z</time></trkpt><trkpt lat="43.8697737" lon="12.71832"><ele>64.0</ele><time>2026-04-26T08:08:54.409Z</time></trkpt><trkpt lat="43.8697444" lon="12.7184582"><ele>64.0</ele><time>2026-04-26T08:08:55.412Z</time></trkpt><trkpt lat="43.8697061" lon="12.7185653"><ele>64.0</ele><time>2026-04-26T08:08:56.407Z</time></trkpt><trkpt lat="43.8696376" lon="12.7186404"><ele>64.0</ele><time>2026-04-26T08:08:57.41Z</time></trkpt><trkpt lat="43.8695299" lon="12.7186916"><ele>64.0</ele><time>2026-04-26T08:08:58.407Z</time></trkpt><trkpt lat="43.8693962" lon="12.7187307"><ele>64.0</ele><time>2026-04-26T08:08:59.408Z</time></trkpt><trkpt lat="43.8692416" lon="12.7187654"><ele>64.0</ele><time>2026-04-26T08:09:00.407Z</time></trkpt><trkpt lat="43.8690813" lon="12.7187912"><ele>66.33333333333333</ele><time>2026-04-26T08:09:01.408Z</time></trkpt><trkpt lat="43.8689134" lon="12.7187667"><ele>68.66666666666667</ele><time>2026-04-26T08:09:02.41Z</time></trkpt><trkpt lat="43.8687334" lon="12.7187071"><ele>71.0</ele><time>2026-04-26T08:09:03.409Z</time></trkpt><trkpt lat="43.868548" lon="12.718635"><ele>75.5</ele><time>2026-04-26T08:09:04.411Z</time></trkpt><trkpt lat="43.8681927" lon="12.7184714"><ele>80.0</ele><time>2026-04-26T08:09:06.413Z</time></trkpt><trkpt lat="43.8680361" lon="12.7184038"><ele>80.0</ele><time>2026-04-26T08:09:07.415Z</time></trkpt><trkpt lat="43.8678822" lon="12.7183667"><ele>80.0</ele><time>2026-04-26T08:09:08.408Z</time></trkpt><trkpt lat="43.8677219" lon="12.7183638"><ele>80.0</ele><time>2026-04-26T08:09:09.414Z</time></trkpt><trkpt lat="43.867541" lon="12.7184208"><ele>82.0</ele><time>2026-04-26T08:09:10.408Z</time></trkpt><trkpt lat="43.8673505" lon="12.7184931"><ele>84.0</ele><time>2026-04-26T08:09:11.409Z</time></trkpt><trkpt lat="43.8671543" lon="12.7185589"><ele>86.0</ele><time>2026-04-26T08:09:12.413Z</time></trkpt><trkpt lat="43.8669527" lon="12.7186228"><ele>88.66666666666667</ele><time>2026-04-26T08:09:13.404Z</time></trkpt><trkpt lat="43.866761" lon="12.7186922"><ele>91.33333333333333</ele><time>2026-04-26T08:09:14.416Z</time></trkpt><trkpt lat="43.8665789" lon="12.7187686"><ele>94.0</ele><time>2026-04-26T08:09:15.413Z</time></trkpt><trkpt lat="43.8664117" lon="12.7188336"><ele>94.0</ele><time>2026-04-26T08:09:16.406Z</time></trkpt><trkpt lat="43.8662528" lon="12.7188929"><ele>94.0</ele><time>2026-04-26T08:09:17.406Z</time></trkpt><trkpt lat="43.8660939" lon="12.7189544"><ele>94.0</ele><time>2026-04-26T08:09:18.406Z</time></trkpt><trkpt lat="43.8659369" lon="12.7190258"><ele>97.0</ele><time>2026-04-26T08:09:19.414Z</time></trkpt><trkpt lat="43.8657825" lon="12.7190954"><ele>100.0</ele><time>2026-04-26T08:09:20.41Z</time></trkpt><trkpt lat="43.8656217" lon="12.7191618"><ele>103.0</ele><time>2026-04-26T08:09:21.407Z</time></trkpt><trkpt lat="43.865459" lon="12.7192269"><ele>103.0</ele><time>2026-04-26T08:09:22.41Z</time></trkpt><trkpt lat="43.8652998" lon="12.7192918"><ele>103.0</ele><time>2026-04-26T08:09:23.411Z</time></trkpt><trkpt lat="43.8651346" lon="12.71936"><ele>103.0</ele><time>2026-04-26T08:09:24.408Z</time></trkpt><trkpt lat="43.8649719" lon="12.7194251"><ele>102.5</ele><time>2026-04-26T08:09:25.411Z</time></trkpt><trkpt lat="43.8646541" lon="12.7195315"><ele>102.0</ele><time>2026-04-26T08:09:27.409Z</time></trkpt><trkpt lat="43.8645156" lon="12.7195699"><ele>102.0</ele><time>2026-04-26T08:09:28.41Z</time></trkpt><trkpt lat="43.8643891" lon="12.7196224"><ele>102.0</ele><time>2026-04-26T08:09:29.41Z</time></trkpt><trkpt lat="43.8642736" lon="12.7197001"><ele>102.0</ele><time>2026-04-26T08:09:30.413Z</time></trkpt><trkpt lat="43.8641655" lon="12.7197922"><ele>102.0</ele><time>2026-04-26T08:09:31.406Z</time></trkpt><trkpt lat="43.8640558" lon="12.7198806"><ele>104.25</ele><time>2026-04-26T08:09:32.408Z</time></trkpt><trkpt lat="43.8639445" lon="12.7199605"><ele>106.5</ele><time>2026-04-26T08:09:33.408Z</time></trkpt><trkpt lat="43.8638302" lon="12.7200291"><ele>108.75</ele><time>2026-04-26T08:09:34.406Z</time></trkpt><trkpt lat="43.8637035" lon="12.7200921"><ele>111.0</ele><time>2026-04-26T08:09:35.41Z</time></trkpt><trkpt lat="43.8635748" lon="12.7201411"><ele>112.0</ele><time>2026-04-26T08:09:36.409Z</time></trkpt><trkpt lat="43.8634382" lon="12.7201741"><ele>113.0</ele><time>2026-04-26T08:09:37.407Z</time></trkpt><trkpt lat="43.8632983" lon="12.7201955"><ele>114.0</ele><time>2026-04-26T08:09:38.409Z</time></trkpt><trkpt lat="43.8631574" lon="12.7202059"><ele>115.0</ele><time>2026-04-26T08:09:39.414Z</time></trkpt><trkpt lat="43.8630189" lon="12.7202248"><ele>114.75</ele><time>2026-04-26T08:09:40.405Z</time></trkpt><trkpt lat="43.8628755" lon="12.7202456"><ele>114.5</ele><time>2026-04-26T08:09:41.406Z</time></trkpt><trkpt lat="43.8627331" lon="12.7202726"><ele>114.25</ele><time>2026-04-26T08:09:42.409Z</time></trkpt><trkpt lat="43.8625831" lon="12.7202979"><ele>114.0</ele><time>2026-04-26T08:09:43.414Z</time></trkpt><trkpt lat="43.862429" lon="12.720322"><ele>114.0</ele><time>2026-04-26T08:09:44.408Z</time></trkpt><trkpt lat="43.8622735" lon="12.7203431"><ele>114.0</ele><time>2026-04-26T08:09:45.406Z</time></trkpt><trkpt lat="43.8621211" lon="12.7203671"><ele>114.0</ele><time>2026-04-26T08:09:46.41Z</time></trkpt><trkpt lat="43.8618517" lon="12.7204201"><ele>115.0</ele><time>2026-04-26T08:09:48.405Z</time></trkpt><trkpt lat="43.8617193" lon="12.720471"><ele>116.0</ele><time>2026-04-26T08:09:49.408Z</time></trkpt><trkpt lat="43.8616088" lon="12.7205228"><ele>117.0</ele><time>2026-04-26T08:09:50.408Z</time></trkpt><trkpt lat="43.8615197" lon="12.7205635"><ele>118.0</ele><time>2026-04-26T08:09:51.406Z</time></trkpt><trkpt lat="43.8614523" lon="12.7205982"><ele>119.0</ele><time>2026-04-26T08:09:52.406Z</time></trkpt><trkpt lat="43.8613609" lon="12.7206228"><ele>118.99999999999999</ele><time>2026-04-26T08:09:54.416Z</time></trkpt><trkpt lat="43.8613058" lon="12.7206679"><ele>119.0</ele><time>2026-04-26T08:09:56.409Z</time></trkpt><trkpt lat="43.861269" lon="12.7207433"><ele>119.0</ele><time>2026-04-26T08:09:57.422Z</time></trkpt><trkpt lat="43.8612131" lon="12.7208383"><ele>119.0</ele><time>2026-04-26T08:09:58.405Z</time></trkpt><trkpt lat="43.8611471" lon="12.7209264"><ele>118.99999999999999</ele><time>2026-04-26T08:09:59.411Z</time></trkpt><trkpt lat="43.8610859" lon="12.7210169"><ele>119.0</ele><time>2026-04-26T08:10:00.409Z</time></trkpt><trkpt lat="43.8610279" lon="12.7211175"><ele>118.2</ele><time>2026-04-26T08:10:01.411Z</time></trkpt><trkpt lat="43.8609676" lon="12.7212199"><ele>117.4</ele><time>2026-04-26T08:10:02.413Z</time></trkpt><trkpt lat="43.8609105" lon="12.7213213"><ele>116.6</ele><time>2026-04-26T08:10:03.412Z</time></trkpt><trkpt lat="43.8608518" lon="12.7214192"><ele>115.8</ele><time>2026-04-26T08:10:04.408Z</time></trkpt><trkpt lat="43.8607886" lon="12.7215158"><ele>115.0</ele><time>2026-04-26T08:10:05.41Z</time></trkpt><trkpt lat="43.8607263" lon="12.7216118"><ele>117.0</ele><time>2026-04-26T08:10:06.408Z</time></trkpt><trkpt lat="43.8606691" lon="12.7216999"><ele>119.0</ele><time>2026-04-26T08:10:07.409Z</time></trkpt><trkpt lat="43.8605559" lon="12.7219213"><ele>121.0</ele><time>2026-04-26T08:10:09.41Z</time></trkpt><trkpt lat="43.8604985" lon="12.7220696"><ele>123.0</ele><time>2026-04-26T08:10:10.408Z</time></trkpt><trkpt lat="43.8604387" lon="12.7222037"><ele>123.0</ele><time>2026-04-26T08:10:11.412Z</time></trkpt><trkpt lat="43.8603758" lon="12.7223229"><ele>123.00000000000001</ele><time>2026-04-26T08:10:12.406Z</time></trkpt><trkpt lat="43.8603252" lon="12.7224066"><ele>123.00000000000001</ele><time>2026-04-26T08:10:13.412Z</time></trkpt><trkpt lat="43.8602818" lon="12.7225139"><ele>123.0</ele><time>2026-04-26T08:10:14.41Z</time></trkpt><trkpt lat="43.8602434" lon="12.7226518"><ele>123.0</ele><time>2026-04-26T08:10:15.409Z</time></trkpt><trkpt lat="43.8602091" lon="12.7227921"><ele>123.25</ele><time>2026-04-26T08:10:16.409Z</time></trkpt><trkpt lat="43.86017" lon="12.7229338"><ele>123.5</ele><time>2026-04-26T08:10:17.405Z</time></trkpt><trkpt lat="43.8601184" lon="12.7230844"><ele>123.75</ele><time>2026-04-26T08:10:18.408Z</time></trkpt><trkpt lat="43.8600686" lon="12.7232305"><ele>124.0</ele><time>2026-04-26T08:10:19.406Z</time></trkpt><trkpt lat="43.8600088" lon="12.7233766"><ele>124.0</ele><time>2026-04-26T08:10:20.409Z</time></trkpt><trkpt lat="43.8599292" lon="12.7235341"><ele>124.0</ele><time>2026-04-26T08:10:21.412Z</time></trkpt><trkpt lat="43.859844" lon="12.7236959"><ele>124.0</ele><time>2026-04-26T08:10:22.41Z</time></trkpt><trkpt lat="43.8597497" lon="12.7238595"><ele>124.0</ele><time>2026-04-26T08:10:23.411Z</time></trkpt><trkpt lat="43.8596593" lon="12.7240243"><ele>122.5</ele><time>2026-04-26T08:10:24.406Z</time></trkpt><trkpt lat="43.8595822" lon="12.7241934"><ele>121.0</ele><time>2026-04-26T08:10:25.412Z</time></trkpt><trkpt lat="43.8595087" lon="12.7243562"><ele>119.5</ele><time>2026-04-26T08:10:26.413Z</time></trkpt><trkpt lat="43.8594376" lon="12.7244948"><ele>118.0</ele><time>2026-04-26T08:10:27.405Z</time></trkpt><trkpt lat="43.8593641" lon="12.7246311"><ele>118.0</ele><time>2026-04-26T08:10:28.412Z</time></trkpt><trkpt lat="43.8592328" lon="12.7249097"><ele>118.0</ele><time>2026-04-26T08:10:30.408Z</time></trkpt><trkpt lat="43.8591797" lon="12.725052"><ele>118.0</ele><time>2026-04-26T08:10:31.411Z</time></trkpt><trkpt lat="43.8591331" lon="12.7252044"><ele>118.0</ele><time>2026-04-26T08:10:32.41Z</time></trkpt><trkpt lat="43.8590958" lon="12.7253585"><ele>118.0</ele><time>2026-04-26T08:10:33.415Z</time></trkpt><trkpt lat="43.8590671" lon="12.7255133"><ele>118.0</ele><time>2026-04-26T08:10:34.413Z</time></trkpt><trkpt lat="43.8590442" lon="12.7256739"><ele>118.0</ele><time>2026-04-26T08:10:35.408Z</time></trkpt><trkpt lat="43.85901" lon="12.7258735"><ele>118.66666666666667</ele><time>2026-04-26T08:10:36.41Z</time></trkpt><trkpt lat="43.8589657" lon="12.7260945"><ele>119.33333333333334</ele><time>2026-04-26T08:10:37.41Z</time></trkpt><trkpt lat="43.8589224" lon="12.7262989"><ele>120.0</ele><time>2026-04-26T08:10:38.419Z</time></trkpt><trkpt lat="43.8588775" lon="12.7264921"><ele>120.0</ele><time>2026-04-26T08:10:39.411Z</time></trkpt><trkpt lat="43.8588168" lon="12.7266741"><ele>120.0</ele><time>2026-04-26T08:10:40.404Z</time></trkpt><trkpt lat="43.8587557" lon="12.7268472"><ele>120.0</ele><time>2026-04-26T08:10:41.406Z</time></trkpt><trkpt lat="43.8586695" lon="12.7270077"><ele>120.0</ele><time>2026-04-26T08:10:42.41Z</time></trkpt><trkpt lat="43.8585901" lon="12.7271641"><ele>119.25</ele><time>2026-04-26T08:10:43.408Z</time></trkpt><trkpt lat="43.8585093" lon="12.7273275"><ele>118.5</ele><time>2026-04-26T08:10:44.413Z</time></trkpt><trkpt lat="43.8584301" lon="12.7274859"><ele>117.75</ele><time>2026-04-26T08:10:45.41Z</time></trkpt><trkpt lat="43.858353" lon="12.7276408"><ele>117.0</ele><time>2026-04-26T08:10:46.41Z</time></trkpt><trkpt lat="43.8582795" lon="12.727795"><ele>119.33333333333334</ele><time>2026-04-26T08:10:47.406Z</time></trkpt><trkpt lat="43.8582136" lon="12.7279417"><ele>121.66666666666667</ele><time>2026-04-26T08:10:48.411Z</time></trkpt><trkpt lat="43.8581565" lon="12.7280845"><ele>124.0</ele><time>2026-04-26T08:10:49.412Z</time></trkpt><trkpt lat="43.8580675" lon="12.7283662"><ele>124.0</ele><time>2026-04-26T08:10:51.413Z</time></trkpt><trkpt lat="43.8580331" lon="12.7284866"><ele>124.0</ele><time>2026-04-26T08:10:52.409Z</time></trkpt><trkpt lat="43.8580005" lon="12.7285798"><ele>124.0</ele><time>2026-04-26T08:10:53.417Z</time></trkpt><trkpt lat="43.857888" lon="12.7286739"><ele>124.0</ele><time>2026-04-26T08:10:55.41Z</time></trkpt><trkpt lat="43.8577895" lon="12.7286954"><ele>124.0</ele><time>2026-04-26T08:10:56.407Z</time></trkpt><trkpt lat="43.8576958" lon="12.7287032"><ele>123.80000000000001</ele><time>2026-04-26T08:10:57.411Z</time></trkpt><trkpt lat="43.8575988" lon="12.7287031"><ele>123.60000000000001</ele><time>2026-04-26T08:10:58.409Z</time></trkpt><trkpt lat="43.8574948" lon="12.7287029"><ele>123.4</ele><time>2026-04-26T08:10:59.408Z</time></trkpt><trkpt lat="43.8573891" lon="12.7287093"><ele>123.2</ele><time>2026-04-26T08:11:00.411Z</time></trkpt><trkpt lat="43.8572813" lon="12.728709"><ele>123.0</ele><time>2026-04-26T08:11:01.407Z</time></trkpt><trkpt lat="43.8571679" lon="12.7287122"><ele>123.0</ele><time>2026-04-26T08:11:02.407Z</time></trkpt><trkpt lat="43.8570606" lon="12.7287154"><ele>123.0</ele><time>2026-04-26T08:11:03.406Z</time></trkpt><trkpt lat="43.8569368" lon="12.7287185"><ele>123.0</ele><time>2026-04-26T08:11:04.409Z</time></trkpt><trkpt lat="43.8568244" lon="12.7287114"><ele>123.0</ele><time>2026-04-26T08:11:05.407Z</time></trkpt><trkpt lat="43.8567068" lon="12.7287071"><ele>122.60000000000001</ele><time>2026-04-26T08:11:06.417Z</time></trkpt><trkpt lat="43.8565964" lon="12.728696"><ele>122.20000000000002</ele><time>2026-04-26T08:11:07.406Z</time></trkpt><trkpt lat="43.8564935" lon="12.7286725"><ele>121.8</ele><time>2026-04-26T08:11:08.409Z</time></trkpt><trkpt lat="43.8563972" lon="12.7286429"><ele>121.4</ele><time>2026-04-26T08:11:09.408Z</time></trkpt><trkpt lat="43.8563065" lon="12.7286173"><ele>121.0</ele><time>2026-04-26T08:11:10.412Z</time></trkpt><trkpt lat="43.8561253" lon="12.728566"><ele>120.16666666666667</ele><time>2026-04-26T08:11:12.41Z</time></trkpt><trkpt lat="43.8560364" lon="12.728547"><ele>119.33333333333334</ele><time>2026-04-26T08:11:13.412Z</time></trkpt><trkpt lat="43.8559489" lon="12.7285171"><ele>118.5</ele><time>2026-04-26T08:11:14.409Z</time></trkpt><trkpt lat="43.8558714" lon="12.7284835"><ele>117.66666666666666</ele><time>2026-04-26T08:11:15.411Z</time></trkpt><trkpt lat="43.8558022" lon="12.7284439"><ele>116.83333333333333</ele><time>2026-04-26T08:11:16.407Z</time></trkpt><trkpt lat="43.8557358" lon="12.7283795"><ele>116.0</ele><time>2026-04-26T08:11:17.409Z</time></trkpt><trkpt lat="43.8556599" lon="12.7282774"><ele>115.19999999999999</ele><time>2026-04-26T08:11:18.407Z</time></trkpt><trkpt lat="43.8555905" lon="12.7281709"><ele>114.39999999999999</ele><time>2026-04-26T08:11:19.411Z</time></trkpt><trkpt lat="43.8555357" lon="12.7280744"><ele>113.6</ele><time>2026-04-26T08:11:20.411Z</time></trkpt><trkpt lat="43.8554889" lon="12.7279938"><ele>112.8</ele><time>2026-04-26T08:11:21.411Z</time></trkpt><trkpt lat="43.8554455" lon="12.7279191"><ele>112.0</ele><time>2026-04-26T08:11:22.412Z</time></trkpt><trkpt lat="43.8553592" lon="12.7277842"><ele>111.16666666666667</ele><time>2026-04-26T08:11:24.406Z</time></trkpt><trkpt lat="43.8553206" lon="12.7277152"><ele>110.33333333333334</ele><time>2026-04-26T08:11:25.407Z</time></trkpt><trkpt lat="43.8552799" lon="12.727645"><ele>109.5</ele><time>2026-04-26T08:11:26.407Z</time></trkpt><trkpt lat="43.8552071" lon="12.7275199"><ele>108.66666666666666</ele><time>2026-04-26T08:11:28.407Z</time></trkpt><trkpt lat="43.8551444" lon="12.7274048"><ele>107.83333333333333</ele><time>2026-04-26T08:11:30.405Z</time></trkpt><trkpt lat="43.8550766" lon="12.7273021"><ele>107.0</ele><time>2026-04-26T08:11:32.405Z</time></trkpt><trkpt lat="43.8549867" lon="12.7271564"><ele>106.99999999999999</ele><time>2026-04-26T08:11:36.409Z</time></trkpt><trkpt lat="43.854932" lon="12.7270926"><ele>107.0</ele><time>2026-04-26T08:11:38.408Z</time></trkpt><trkpt lat="43.8548772" lon="12.7270382"><ele>107.0</ele><time>2026-04-26T08:11:40.411Z</time></trkpt><trkpt lat="43.8548026" lon="12.7269497"><ele>107.0</ele><time>2026-04-26T08:11:43.403Z</time></trkpt><trkpt lat="43.8547498" lon="12.7268717"><ele>106.99999999999999</ele><time>2026-04-26T08:11:45.405Z</time></trkpt><trkpt lat="43.854708" lon="12.7267821"><ele>107.0</ele><time>2026-04-26T08:11:47.408Z</time></trkpt><trkpt lat="43.8546652" lon="12.7266736"><ele>106.75</ele><time>2026-04-26T08:11:49.409Z</time></trkpt><trkpt lat="43.8546184" lon="12.7265651"><ele>106.5</ele><time>2026-04-26T08:11:51.413Z</time></trkpt><trkpt lat="43.8545754" lon="12.7264584"><ele>106.25</ele><time>2026-04-26T08:11:53.413Z</time></trkpt><trkpt lat="43.854489" lon="12.7262368"><ele>106.0</ele><time>2026-04-26T08:11:57.405Z</time></trkpt><trkpt lat="43.854434" lon="12.7261267"><ele>104.66666666666667</ele><time>2026-04-26T08:11:59.406Z</time></trkpt><trkpt lat="43.8543823" lon="12.7260112"><ele>103.33333333333334</ele><time>2026-04-26T08:12:01.406Z</time></trkpt><trkpt lat="43.854341" lon="12.7259036"><ele>102.0</ele><time>2026-04-26T08:12:03.409Z</time></trkpt><trkpt lat="43.8542998" lon="12.7257899"><ele>100.66666666666666</ele><time>2026-04-26T08:12:05.413Z</time></trkpt><trkpt lat="43.854265" lon="12.7256786"><ele>99.33333333333333</ele><time>2026-04-26T08:12:07.406Z</time></trkpt><trkpt lat="43.8542246" lon="12.7255797"><ele>98.0</ele><time>2026-04-26T08:12:09.407Z</time></trkpt><trkpt lat="43.8541891" lon="12.7254731"><ele>98.0</ele><time>2026-04-26T08:12:11.412Z</time></trkpt><trkpt lat="43.8541598" lon="12.7253664"><ele>98.0</ele><time>2026-04-26T08:12:13.406Z</time></trkpt><trkpt lat="43.8541282" lon="12.7252384"><ele>98.0</ele><time>2026-04-26T08:12:15.408Z</time></trkpt><trkpt lat="43.8540683" lon="12.7249817"><ele>98.0</ele><time>2026-04-26T08:12:19.416Z</time></trkpt><trkpt lat="43.8540353" lon="12.7248449"><ele>97.16666666666666</ele><time>2026-04-26T08:12:21.406Z</time></trkpt><trkpt lat="43.8539726" lon="12.7246948"><ele>96.33333333333333</ele><time>2026-04-26T08:12:23.405Z</time></trkpt><trkpt lat="43.8539315" lon="12.7246172"><ele>95.5</ele><time>2026-04-26T08:12:24.406Z</time></trkpt><trkpt lat="43.8538836" lon="12.7245403"><ele>94.66666666666666</ele><time>2026-04-26T08:12:25.405Z</time></trkpt><trkpt lat="43.8538362" lon="12.7244637"><ele>93.83333333333333</ele><time>2026-04-26T08:12:26.405Z</time></trkpt><trkpt lat="43.8537957" lon="12.7243907"><ele>93.0</ele><time>2026-04-26T08:12:27.406Z</time></trkpt><trkpt lat="43.8537579" lon="12.7243132"><ele>91.5</ele><time>2026-04-26T08:12:28.408Z</time></trkpt><trkpt lat="43.8537166" lon="12.7242347"><ele>90.0</ele><time>2026-04-26T08:12:29.406Z</time></trkpt><trkpt lat="43.8536819" lon="12.7241532"><ele>88.5</ele><time>2026-04-26T08:12:30.406Z</time></trkpt><trkpt lat="43.8536458" lon="12.7240609"><ele>87.0</ele><time>2026-04-26T08:12:31.406Z</time></trkpt><trkpt lat="43.8536075" lon="12.7239668"><ele>85.5</ele><time>2026-04-26T08:12:32.406Z</time></trkpt><trkpt lat="43.8535623" lon="12.7238697"><ele>84.0</ele><time>2026-04-26T08:12:33.409Z</time></trkpt><trkpt lat="43.8535129" lon="12.7237804"><ele>84.0</ele><time>2026-04-26T08:12:34.409Z</time></trkpt><trkpt lat="43.8534674" lon="12.7236954"><ele>84.0</ele><time>2026-04-26T08:12:35.406Z</time></trkpt><trkpt lat="43.85342" lon="12.7236145"><ele>84.0</ele><time>2026-04-26T08:12:36.404Z</time></trkpt><trkpt lat="43.8533196" lon="12.7234695"><ele>84.0</ele><time>2026-04-26T08:12:38.407Z</time></trkpt><trkpt lat="43.8532662" lon="12.723396"><ele>84.0</ele><time>2026-04-26T08:12:39.405Z</time></trkpt><trkpt lat="43.8532183" lon="12.7233266"><ele>84.0</ele><time>2026-04-26T08:12:40.407Z</time></trkpt><trkpt lat="43.8531674" lon="12.7232515"><ele>82.0</ele><time>2026-04-26T08:12:41.405Z</time></trkpt><trkpt lat="43.8531175" lon="12.7231731"><ele>80.0</ele><time>2026-04-26T08:12:42.409Z</time></trkpt><trkpt lat="43.8530653" lon="12.7230982"><ele>78.0</ele><time>2026-04-26T08:12:43.407Z</time></trkpt><trkpt lat="43.8530125" lon="12.7230217"><ele>76.0</ele><time>2026-04-26T08:12:44.414Z</time></trkpt><trkpt lat="43.8529591" lon="12.7229461"><ele>74.0</ele><time>2026-04-26T08:12:45.41Z</time></trkpt><trkpt lat="43.8529025" lon="12.7228742"><ele>72.0</ele><time>2026-04-26T08:12:46.407Z</time></trkpt><trkpt lat="43.8528518" lon="12.7228036"><ele>71.00000000000001</ele><time>2026-04-26T08:12:47.408Z</time></trkpt><trkpt lat="43.8527996" lon="12.7227242"><ele>70.0</ele><time>2026-04-26T08:12:48.407Z</time></trkpt><trkpt lat="43.852755" lon="12.7226455"><ele>69.0</ele><time>2026-04-26T08:12:49.407Z</time></trkpt><trkpt lat="43.8527146" lon="12.7225638"><ele>68.0</ele><time>2026-04-26T08:12:50.407Z</time></trkpt><trkpt lat="43.8526811" lon="12.7224787"><ele>67.0</ele><time>2026-04-26T08:12:51.408Z</time></trkpt><trkpt lat="43.8526441" lon="12.7223896"><ele>66.00000000000001</ele><time>2026-04-26T08:12:52.402Z</time></trkpt><trkpt lat="43.8526133" lon="12.7222925"><ele>65.0</ele><time>2026-04-26T08:12:53.403Z</time></trkpt><trkpt lat="43.8525937" lon="12.7221775"><ele>64.2</ele><time>2026-04-26T08:12:54.407Z</time></trkpt><trkpt lat="43.8525781" lon="12.7220626"><ele>63.4</ele><time>2026-04-26T08:12:55.407Z</time></trkpt><trkpt lat="43.8525661" lon="12.7219518"><ele>62.599999999999994</ele><time>2026-04-26T08:12:56.41Z</time></trkpt><trkpt lat="43.8525518" lon="12.7218418"><ele>61.8</ele><time>2026-04-26T08:12:57.407Z</time></trkpt><trkpt lat="43.8525304" lon="12.7216193"><ele>61.0</ele><time>2026-04-26T08:12:59.406Z</time></trkpt><trkpt lat="43.8525204" lon="12.7215083"><ele>60.85714285714285</ele><time>2026-04-26T08:13:00.411Z</time></trkpt><trkpt lat="43.8525049" lon="12.7214023"><ele>60.71428571428571</ele><time>2026-04-26T08:13:01.406Z</time></trkpt><trkpt lat="43.8524935" lon="12.7213005"><ele>60.57142857142857</ele><time>2026-04-26T08:13:02.42Z</time></trkpt><trkpt lat="43.8524827" lon="12.7211996"><ele>60.42857142857142</ele><time>2026-04-26T08:13:03.407Z</time></trkpt><trkpt lat="43.852471" lon="12.7211082"><ele>60.28571428571428</ele><time>2026-04-26T08:13:04.405Z</time></trkpt><trkpt lat="43.8524615" lon="12.7210189"><ele>60.142857142857146</ele><time>2026-04-26T08:13:05.409Z</time></trkpt><trkpt lat="43.8524492" lon="12.72093"><ele>60.0</ele><time>2026-04-26T08:13:06.411Z</time></trkpt><trkpt lat="43.8524379" lon="12.7208418"><ele>60.333333333333336</ele><time>2026-04-26T08:13:07.41Z</time></trkpt><trkpt lat="43.8524273" lon="12.7207447"><ele>60.66666666666667</ele><time>2026-04-26T08:13:08.408Z</time></trkpt><trkpt lat="43.8524127" lon="12.7206449"><ele>61.0</ele><time>2026-04-26T08:13:09.407Z</time></trkpt><trkpt lat="43.8524019" lon="12.7205418"><ele>61.333333333333336</ele><time>2026-04-26T08:13:10.405Z</time></trkpt><trkpt lat="43.8523896" lon="12.720434"><ele>61.66666666666667</ele><time>2026-04-26T08:13:11.406Z</time></trkpt><trkpt lat="43.8523768" lon="12.7203233"><ele>62.0</ele><time>2026-04-26T08:13:12.408Z</time></trkpt><trkpt lat="43.8523615" lon="12.7202066"><ele>62.66666666666667</ele><time>2026-04-26T08:13:13.408Z</time></trkpt><trkpt lat="43.852345" lon="12.7200875"><ele>63.333333333333336</ele><time>2026-04-26T08:13:14.409Z</time></trkpt><trkpt lat="43.8523232" lon="12.7199682"><ele>64.0</ele><time>2026-04-26T08:13:15.411Z</time></trkpt><trkpt lat="43.8523079" lon="12.7198599"><ele>64.66666666666667</ele><time>2026-04-26T08:13:16.408Z</time></trkpt><trkpt lat="43.8522958" lon="12.7197591"><ele>65.33333333333333</ele><time>2026-04-26T08:13:17.409Z</time></trkpt><trkpt lat="43.8522844" lon="12.7196683"><ele>66.0</ele><time>2026-04-26T08:13:18.406Z</time></trkpt><trkpt lat="43.8522516" lon="12.7194796"><ele>66.0</ele><time>2026-04-26T08:13:21.404Z</time></trkpt><trkpt lat="43.8521918" lon="12.7193881"><ele>66.0</ele><time>2026-04-26T08:13:28.407Z</time></trkpt><trkpt lat="43.85213" lon="12.7194177"><ele>66.0</ele><time>2026-04-26T08:13:29.411Z</time></trkpt><trkpt lat="43.8520616" lon="12.7194619"><ele>66.0</ele><time>2026-04-26T08:13:30.408Z</time></trkpt><trkpt lat="43.8519824" lon="12.7195312"><ele>66.0</ele><time>2026-04-26T08:13:31.406Z</time></trkpt><trkpt lat="43.8518728" lon="12.719617"><ele>66.0</ele><time>2026-04-26T08:13:32.408Z</time></trkpt><trkpt lat="43.85174" lon="12.7196998"><ele>65.25</ele><time>2026-04-26T08:13:33.41Z</time></trkpt><trkpt lat="43.851614" lon="12.7197704"><ele>64.5</ele><time>2026-04-26T08:13:34.415Z</time></trkpt><trkpt lat="43.8515018" lon="12.7198504"><ele>63.75</ele><time>2026-04-26T08:13:35.413Z</time></trkpt><trkpt lat="43.8513877" lon="12.7199342"><ele>63.0</ele><time>2026-04-26T08:13:36.413Z</time></trkpt><trkpt lat="43.8512766" lon="12.7200141"><ele>63.0</ele><time>2026-04-26T08:13:37.409Z</time></trkpt><trkpt lat="43.8511671" lon="12.7200923"><ele>63.0</ele><time>2026-04-26T08:13:38.405Z</time></trkpt><trkpt lat="43.8510548" lon="12.7201719"><ele>63.0</ele><time>2026-04-26T08:13:39.406Z</time></trkpt><trkpt lat="43.8508257" lon="12.7203323"><ele>62.75</ele><time>2026-04-26T08:13:41.408Z</time></trkpt><trkpt lat="43.8507105" lon="12.7204073"><ele>62.5</ele><time>2026-04-26T08:13:42.409Z</time></trkpt><trkpt lat="43.8505936" lon="12.7204873"><ele>62.25</ele><time>2026-04-26T08:13:43.403Z</time></trkpt><trkpt lat="43.8504738" lon="12.7205712"><ele>62.0</ele><time>2026-04-26T08:13:44.409Z</time></trkpt><trkpt lat="43.8503569" lon="12.7206544"><ele>62.0</ele><time>2026-04-26T08:13:45.407Z</time></trkpt><trkpt lat="43.8502445" lon="12.7207304"><ele>62.0</ele><time>2026-04-26T08:13:46.408Z</time></trkpt><trkpt lat="43.8501362" lon="12.7208075"><ele>62.0</ele><time>2026-04-26T08:13:47.407Z</time></trkpt><trkpt lat="43.850033" lon="12.720882"><ele>62.0</ele><time>2026-04-26T08:13:48.405Z</time></trkpt><trkpt lat="43.8499419" lon="12.7209459"><ele>61.6</ele><time>2026-04-26T08:13:49.41Z</time></trkpt><trkpt lat="43.8498534" lon="12.7210066"><ele>61.2</ele><time>2026-04-26T08:13:50.41Z</time></trkpt><trkpt lat="43.8497666" lon="12.7210773"><ele>60.8</ele><time>2026-04-26T08:13:51.407Z</time></trkpt><trkpt lat="43.8496998" lon="12.7211771"><ele>60.4</ele><time>2026-04-26T08:13:52.409Z</time></trkpt><trkpt lat="43.849672" lon="12.721303"><ele>60.0</ele><time>2026-04-26T08:13:53.408Z</time></trkpt><trkpt lat="43.8496828" lon="12.7214432"><ele>59.25</ele><time>2026-04-26T08:13:54.406Z</time></trkpt><trkpt lat="43.8497232" lon="12.721593"><ele>58.5</ele><time>2026-04-26T08:13:55.413Z</time></trkpt><trkpt lat="43.8497645" lon="12.7217592"><ele>57.75</ele><time>2026-04-26T08:13:56.412Z</time></trkpt><trkpt lat="43.849811" lon="12.7219399"><ele>57.0</ele><time>2026-04-26T08:13:57.411Z</time></trkpt><trkpt lat="43.8498722" lon="12.7221216"><ele>56.33333333333333</ele><time>2026-04-26T08:13:58.406Z</time></trkpt><trkpt lat="43.8499299" lon="12.7223045"><ele>55.666666666666664</ele><time>2026-04-26T08:13:59.408Z</time></trkpt><trkpt lat="43.8499811" lon="12.7224799"><ele>55.0</ele><time>2026-04-26T08:14:00.409Z</time></trkpt><trkpt lat="43.8500741" lon="12.7227951"><ele>55.0</ele><time>2026-04-26T08:14:02.409Z</time></trkpt><trkpt lat="43.8500589" lon="12.7229708"><ele>55.0</ele><time>2026-04-26T08:14:03.408Z</time></trkpt><trkpt lat="43.8500019" lon="12.7231441"><ele>55.0</ele><time>2026-04-26T08:14:04.405Z</time></trkpt><trkpt lat="43.8499029" lon="12.7233037"><ele>55.0</ele><time>2026-04-26T08:14:05.414Z</time></trkpt><trkpt lat="43.8497816" lon="12.7234493"><ele>55.25</ele><time>2026-04-26T08:14:06.412Z</time></trkpt><trkpt lat="43.8496613" lon="12.7235805"><ele>55.5</ele><time>2026-04-26T08:14:07.408Z</time></trkpt><trkpt lat="43.8495482" lon="12.7237105"><ele>55.75</ele><time>2026-04-26T08:14:08.405Z</time></trkpt><trkpt lat="43.8494448" lon="12.7238245"><ele>56.0</ele><time>2026-04-26T08:14:09.406Z</time></trkpt><trkpt lat="43.8493452" lon="12.7239152"><ele>55.25</ele><time>2026-04-26T08:14:10.408Z</time></trkpt><trkpt lat="43.8492378" lon="12.7239594"><ele>54.5</ele><time>2026-04-26T08:14:11.406Z</time></trkpt><trkpt lat="43.849123" lon="12.7239494"><ele>53.75</ele><time>2026-04-26T08:14:12.409Z</time></trkpt><trkpt lat="43.8490223" lon="12.7238838"><ele>53.0</ele><time>2026-04-26T08:14:13.409Z</time></trkpt><trkpt lat="43.8489289" lon="12.7237806"><ele>53.0</ele><time>2026-04-26T08:14:14.409Z</time></trkpt><trkpt lat="43.8488303" lon="12.7236408"><ele>53.0</ele><time>2026-04-26T08:14:15.41Z</time></trkpt><trkpt lat="43.8487168" lon="12.7234738"><ele>53.0</ele><time>2026-04-26T08:14:16.406Z</time></trkpt><trkpt lat="43.8485949" lon="12.7232893"><ele>53.0</ele><time>2026-04-26T08:14:17.405Z</time></trkpt><trkpt lat="43.8484626" lon="12.7230856"><ele>53.0</ele><time>2026-04-26T08:14:18.418Z</time></trkpt><trkpt lat="43.84833" lon="12.7228696"><ele>53.0</ele><time>2026-04-26T08:14:19.405Z</time></trkpt><trkpt lat="43.8481939" lon="12.7226518"><ele>54.5</ele><time>2026-04-26T08:14:20.409Z</time></trkpt><trkpt lat="43.8480664" lon="12.7224378"><ele>56.0</ele><time>2026-04-26T08:14:21.405Z</time></trkpt><trkpt lat="43.8478546" lon="12.7219871"><ele>55.66666666666667</ele><time>2026-04-26T08:14:23.41Z</time></trkpt><trkpt lat="43.8477805" lon="12.7217491"><ele>55.33333333333333</ele><time>2026-04-26T08:14:24.406Z</time></trkpt><trkpt lat="43.8477286" lon="12.72151"><ele>55.0</ele><time>2026-04-26T08:14:25.412Z</time></trkpt><trkpt lat="43.84768" lon="12.7212818"><ele>55.0</ele><time>2026-04-26T08:14:26.411Z</time></trkpt><trkpt lat="43.8476344" lon="12.7210786"><ele>55.0</ele><time>2026-04-26T08:14:27.408Z</time></trkpt><trkpt lat="43.8475844" lon="12.7208925"><ele>55.0</ele><time>2026-04-26T08:14:28.406Z</time></trkpt><trkpt lat="43.8475278" lon="12.7207243"><ele>55.0</ele><time>2026-04-26T08:14:29.406Z</time></trkpt><trkpt lat="43.8474794" lon="12.720569"><ele>54.8</ele><time>2026-04-26T08:14:30.406Z</time></trkpt><trkpt lat="43.8474394" lon="12.7204235"><ele>54.6</ele><time>2026-04-26T08:14:31.408Z</time></trkpt><trkpt lat="43.8473841" lon="12.7202995"><ele>54.400000000000006</ele><time>2026-04-26T08:14:32.409Z</time></trkpt><trkpt lat="43.8473076" lon="12.7202191"><ele>54.2</ele><time>2026-04-26T08:14:33.41Z</time></trkpt><trkpt lat="43.8472205" lon="12.7202009"><ele>54.0</ele><time>2026-04-26T08:14:34.409Z</time></trkpt><trkpt lat="43.8471268" lon="12.7202404"><ele>53.75</ele><time>2026-04-26T08:14:35.409Z</time></trkpt><trkpt lat="43.8470242" lon="12.7203291"><ele>53.5</ele><time>2026-04-26T08:14:36.407Z</time></trkpt><trkpt lat="43.8468978" lon="12.7204321"><ele>53.25</ele><time>2026-04-26T08:14:37.41Z</time></trkpt><trkpt lat="43.8467279" lon="12.7205083"><ele>53.0</ele><time>2026-04-26T08:14:38.41Z</time></trkpt><trkpt lat="43.8465274" lon="12.7205722"><ele>53.0</ele><time>2026-04-26T08:14:39.405Z</time></trkpt><trkpt lat="43.8463414" lon="12.7206075"><ele>53.0</ele><time>2026-04-26T08:14:40.409Z</time></trkpt><trkpt lat="43.8461658" lon="12.7206182"><ele>53.0</ele><time>2026-04-26T08:14:41.41Z</time></trkpt><trkpt lat="43.8459791" lon="12.7206045"><ele>57.0</ele><time>2026-04-26T08:14:42.407Z</time></trkpt><trkpt lat="43.8455732" lon="12.7205271"><ele>61.0</ele><time>2026-04-26T08:14:44.412Z</time></trkpt><trkpt lat="43.845358" lon="12.7204792"><ele>61.0</ele><time>2026-04-26T08:14:45.408Z</time></trkpt><trkpt lat="43.8451269" lon="12.7204164"><ele>61.0</ele><time>2026-04-26T08:14:46.415Z</time></trkpt><trkpt lat="43.8448856" lon="12.7203391"><ele>61.0</ele><time>2026-04-26T08:14:47.407Z</time></trkpt><trkpt lat="43.8446303" lon="12.7202551"><ele>61.0</ele><time>2026-04-26T08:14:48.409Z</time></trkpt><trkpt lat="43.8443628" lon="12.7201787"><ele>61.5</ele><time>2026-04-26T08:14:49.41Z</time></trkpt><trkpt lat="43.8440895" lon="12.7200954"><ele>62.0</ele><time>2026-04-26T08:14:50.409Z</time></trkpt><trkpt lat="43.8438171" lon="12.7200036"><ele>62.0</ele><time>2026-04-26T08:14:51.41Z</time></trkpt><trkpt lat="43.8435462" lon="12.7199192"><ele>62.0</ele><time>2026-04-26T08:14:52.409Z</time></trkpt><trkpt lat="43.8432867" lon="12.7198363"><ele>61.0</ele><time>2026-04-26T08:14:53.411Z</time></trkpt><trkpt lat="43.8430349" lon="12.7197579"><ele>60.0</ele><time>2026-04-26T08:14:54.41Z</time></trkpt><trkpt lat="43.8427881" lon="12.7196821"><ele>61.5</ele><time>2026-04-26T08:14:55.403Z</time></trkpt><trkpt lat="43.8425562" lon="12.7196046"><ele>63.0</ele><time>2026-04-26T08:14:56.413Z</time></trkpt><trkpt lat="43.8423323" lon="12.7195302"><ele>63.0</ele><time>2026-04-26T08:14:57.402Z</time></trkpt><trkpt lat="43.8421106" lon="12.7194617"><ele>63.0</ele><time>2026-04-26T08:14:58.407Z</time></trkpt><trkpt lat="43.8418784" lon="12.7193837"><ele>64.5</ele><time>2026-04-26T08:14:59.406Z</time></trkpt><trkpt lat="43.8416407" lon="12.7192838"><ele>66.0</ele><time>2026-04-26T08:15:00.409Z</time></trkpt><trkpt lat="43.8414016" lon="12.7191566"><ele>66.0</ele><time>2026-04-26T08:15:01.409Z</time></trkpt><trkpt lat="43.841155" lon="12.7190192"><ele>66.0</ele><time>2026-04-26T08:15:02.411Z</time></trkpt><trkpt lat="43.8409001" lon="12.7188766"><ele>67.0</ele><time>2026-04-26T08:15:03.409Z</time></trkpt><trkpt lat="43.8403837" lon="12.7185855"><ele>67.0</ele><time>2026-04-26T08:15:05.411Z</time></trkpt><trkpt lat="43.8401372" lon="12.7184488"><ele>67.0</ele><time>2026-04-26T08:15:06.412Z</time></trkpt><trkpt lat="43.8399044" lon="12.7183183"><ele>67.0</ele><time>2026-04-26T08:15:07.409Z</time></trkpt><trkpt lat="43.8396902" lon="12.7181974"><ele>67.0</ele><time>2026-04-26T08:15:08.407Z</time></trkpt><trkpt lat="43.8394834" lon="12.718078"><ele>67.0</ele><time>2026-04-26T08:15:09.41Z</time></trkpt><trkpt lat="43.8392735" lon="12.7179682"><ele>67.0</ele><time>2026-04-26T08:15:10.408Z</time></trkpt><trkpt lat="43.8390644" lon="12.7178524"><ele>67.0</ele><time>2026-04-26T08:15:11.41Z</time></trkpt><trkpt lat="43.8388519" lon="12.7177373"><ele>67.5</ele><time>2026-04-26T08:15:12.41Z</time></trkpt><trkpt lat="43.838624" lon="12.7176509"><ele>68.0</ele><time>2026-04-26T08:15:13.409Z</time></trkpt><trkpt lat="43.8383914" lon="12.7175866"><ele>68.0</ele><time>2026-04-26T08:15:14.408Z</time></trkpt><trkpt lat="43.8381639" lon="12.7175445"><ele>68.0</ele><time>2026-04-26T08:15:15.404Z</time></trkpt><trkpt lat="43.8379386" lon="12.7175202"><ele>68.0</ele><time>2026-04-26T08:15:16.405Z</time></trkpt><trkpt lat="43.8377249" lon="12.7174946"><ele>68.0</ele><time>2026-04-26T08:15:17.404Z</time></trkpt><trkpt lat="43.8375269" lon="12.7174744"><ele>68.0</ele><time>2026-04-26T08:15:18.407Z</time></trkpt><trkpt lat="43.8373569" lon="12.7174593"><ele>68.25</ele><time>2026-04-26T08:15:19.407Z</time></trkpt><trkpt lat="43.8372047" lon="12.7174423"><ele>68.5</ele><time>2026-04-26T08:15:20.409Z</time></trkpt><trkpt lat="43.8370698" lon="12.7174229"><ele>68.75</ele><time>2026-04-26T08:15:21.408Z</time></trkpt><trkpt lat="43.8369355" lon="12.7174058"><ele>69.0</ele><time>2026-04-26T08:15:22.412Z</time></trkpt><trkpt lat="43.8367879" lon="12.7174"><ele>70.5</ele><time>2026-04-26T08:15:23.407Z</time></trkpt><trkpt lat="43.8366134" lon="12.7173924"><ele>72.0</ele><time>2026-04-26T08:15:24.41Z</time></trkpt><trkpt lat="43.8362169" lon="12.717322"><ele>72.0</ele><time>2026-04-26T08:15:26.409Z</time></trkpt><trkpt lat="43.836009" lon="12.7172887"><ele>72.0</ele><time>2026-04-26T08:15:27.406Z</time></trkpt><trkpt lat="43.8357996" lon="12.7172527"><ele>72.0</ele><time>2026-04-26T08:15:28.409Z</time></trkpt><trkpt lat="43.8356207" lon="12.7171972"><ele>72.66666666666667</ele><time>2026-04-26T08:15:29.408Z</time></trkpt><trkpt lat="43.8354356" lon="12.7171381"><ele>73.33333333333334</ele><time>2026-04-26T08:15:30.411Z</time></trkpt><trkpt lat="43.8352469" lon="12.717084"><ele>74.0</ele><time>2026-04-26T08:15:31.41Z</time></trkpt><trkpt lat="43.8350606" lon="12.7170129"><ele>75.0</ele><time>2026-04-26T08:15:32.411Z</time></trkpt><trkpt lat="43.8348724" lon="12.7169235"><ele>76.0</ele><time>2026-04-26T08:15:33.412Z</time></trkpt><trkpt lat="43.834671" lon="12.7168159"><ele>77.0</ele><time>2026-04-26T08:15:34.412Z</time></trkpt><trkpt lat="43.8344703" lon="12.7167075"><ele>79.0</ele><time>2026-04-26T08:15:35.409Z</time></trkpt><trkpt lat="43.8342665" lon="12.7165942"><ele>81.0</ele><time>2026-04-26T08:15:36.412Z</time></trkpt><trkpt lat="43.8340698" lon="12.7164794"><ele>83.0</ele><time>2026-04-26T08:15:37.406Z</time></trkpt><trkpt lat="43.8338786" lon="12.7163665"><ele>83.0</ele><time>2026-04-26T08:15:38.403Z</time></trkpt><trkpt lat="43.8336848" lon="12.7162556"><ele>83.0</ele><time>2026-04-26T08:15:39.409Z</time></trkpt><trkpt lat="43.8334947" lon="12.7161492"><ele>83.0</ele><time>2026-04-26T08:15:40.408Z</time></trkpt><trkpt lat="43.8333048" lon="12.7160379"><ele>84.66666666666667</ele><time>2026-04-26T08:15:41.409Z</time></trkpt><trkpt lat="43.8331189" lon="12.7159281"><ele>86.33333333333333</ele><time>2026-04-26T08:15:42.411Z</time></trkpt><trkpt lat="43.832933" lon="12.7158141"><ele>88.0</ele><time>2026-04-26T08:15:43.416Z</time></trkpt><trkpt lat="43.8327427" lon="12.7156953"><ele>89.0</ele><time>2026-04-26T08:15:44.413Z</time></trkpt><trkpt lat="43.83254" lon="12.7155795"><ele>90.0</ele><time>2026-04-26T08:15:45.41Z</time></trkpt><trkpt lat="43.8321221" lon="12.7153543"><ele>90.0</ele><time>2026-04-26T08:15:47.411Z</time></trkpt><trkpt lat="43.8319168" lon="12.7152302"><ele>90.0</ele><time>2026-04-26T08:15:48.407Z</time></trkpt><trkpt lat="43.8317208" lon="12.7150967"><ele>90.0</ele><time>2026-04-26T08:15:49.409Z</time></trkpt><trkpt lat="43.8315443" lon="12.7149838"><ele>91.0</ele><time>2026-04-26T08:15:50.406Z</time></trkpt><trkpt lat="43.831385" lon="12.7148803"><ele>92.0</ele><time>2026-04-26T08:15:51.411Z</time></trkpt><trkpt lat="43.8312575" lon="12.714748"><ele>93.0</ele><time>2026-04-26T08:15:52.411Z</time></trkpt><trkpt lat="43.8311514" lon="12.7145732"><ele>93.0</ele><time>2026-04-26T08:15:53.41Z</time></trkpt><trkpt lat="43.8310701" lon="12.7143474"><ele>93.0</ele><time>2026-04-26T08:15:54.407Z</time></trkpt><trkpt lat="43.8309931" lon="12.7140897"><ele>93.0</ele><time>2026-04-26T08:15:55.405Z</time></trkpt><trkpt lat="43.8309192" lon="12.7138315"><ele>95.66666666666666</ele><time>2026-04-26T08:15:56.411Z</time></trkpt><trkpt lat="43.8308473" lon="12.7135739"><ele>98.33333333333333</ele><time>2026-04-26T08:15:57.417Z</time></trkpt><trkpt lat="43.830782" lon="12.7133227"><ele>101.0</ele><time>2026-04-26T08:15:58.404Z</time></trkpt><trkpt lat="43.8307169" lon="12.7130757"><ele>101.0</ele><time>2026-04-26T08:15:59.405Z</time></trkpt><trkpt lat="43.8306488" lon="12.7128377"><ele>101.0</ele><time>2026-04-26T08:16:00.407Z</time></trkpt><trkpt lat="43.8305737" lon="12.7126096"><ele>101.0</ele><time>2026-04-26T08:16:01.408Z</time></trkpt><trkpt lat="43.8304928" lon="12.7123866"><ele>101.33333333333333</ele><time>2026-04-26T08:16:02.409Z</time></trkpt><trkpt lat="43.8304104" lon="12.7121689"><ele>101.66666666666666</ele><time>2026-04-26T08:16:03.406Z</time></trkpt><trkpt lat="43.830336" lon="12.7119634"><ele>102.0</ele><time>2026-04-26T08:16:04.416Z</time></trkpt><trkpt lat="43.8302639" lon="12.7117663"><ele>105.66666666666666</ele><time>2026-04-26T08:16:05.406Z</time></trkpt><trkpt lat="43.8301276" lon="12.7113993"><ele>109.33333333333333</ele><time>2026-04-26T08:16:07.405Z</time></trkpt><trkpt lat="43.8300701" lon="12.7112298"><ele>113.0</ele><time>2026-04-26T08:16:08.403Z</time></trkpt><trkpt lat="43.8300148" lon="12.7110698"><ele>113.0</ele><time>2026-04-26T08:16:09.405Z</time></trkpt><trkpt lat="43.8299597" lon="12.7109298"><ele>113.00000000000001</ele><time>2026-04-26T08:16:10.407Z</time></trkpt><trkpt lat="43.8298964" lon="12.7108204"><ele>113.00000000000001</ele><time>2026-04-26T08:16:11.406Z</time></trkpt><trkpt lat="43.8298286" lon="12.7107449"><ele>113.0</ele><time>2026-04-26T08:16:12.41Z</time></trkpt><trkpt lat="43.8297626" lon="12.710688"><ele>113.0</ele><time>2026-04-26T08:16:13.419Z</time></trkpt><trkpt lat="43.8297042" lon="12.7106274"><ele>113.0</ele><time>2026-04-26T08:16:14.413Z</time></trkpt><trkpt lat="43.8296388" lon="12.7105543"><ele>113.00000000000001</ele><time>2026-04-26T08:16:15.414Z</time></trkpt><trkpt lat="43.8295549" lon="12.7104977"><ele>113.00000000000001</ele><time>2026-04-26T08:16:16.41Z</time></trkpt><trkpt lat="43.8294688" lon="12.7104599"><ele>113.0</ele><time>2026-04-26T08:16:17.408Z</time></trkpt><trkpt lat="43.8293681" lon="12.7104462"><ele>113.0</ele><time>2026-04-26T08:16:18.406Z</time></trkpt><trkpt lat="43.8292518" lon="12.7105276"><ele>111.60000000000001</ele><time>2026-04-26T08:16:19.409Z</time></trkpt><trkpt lat="43.8291556" lon="12.710546"><ele>110.20000000000002</ele><time>2026-04-26T08:16:20.408Z</time></trkpt><trkpt lat="43.8290746" lon="12.7104981"><ele>108.8</ele><time>2026-04-26T08:16:21.409Z</time></trkpt><trkpt lat="43.8290161" lon="12.710408"><ele>107.4</ele><time>2026-04-26T08:16:22.406Z</time></trkpt><trkpt lat="43.8289543" lon="12.7103052"><ele>106.0</ele><time>2026-04-26T08:16:23.41Z</time></trkpt><trkpt lat="43.8288876" lon="12.7102159"><ele>106.0</ele><time>2026-04-26T08:16:24.408Z</time></trkpt><trkpt lat="43.8287938" lon="12.7101207"><ele>106.0</ele><time>2026-04-26T08:16:25.407Z</time></trkpt><trkpt lat="43.8286621" lon="12.7100449"><ele>106.0</ele><time>2026-04-26T08:16:26.408Z</time></trkpt><trkpt lat="43.8284473" lon="12.7098639"><ele>108.0</ele><time>2026-04-26T08:16:28.405Z</time></trkpt><trkpt lat="43.8283537" lon="12.7097792"><ele>110.0</ele><time>2026-04-26T08:16:29.41Z</time></trkpt><trkpt lat="43.828246" lon="12.7097538"><ele>112.0</ele><time>2026-04-26T08:16:30.409Z</time></trkpt><trkpt lat="43.8281474" lon="12.7097595"><ele>114.0</ele><time>2026-04-26T08:16:31.411Z</time></trkpt><trkpt lat="43.8280024" lon="12.7098132"><ele>114.0</ele><time>2026-04-26T08:16:32.411Z</time></trkpt><trkpt lat="43.8278656" lon="12.7098742"><ele>114.0</ele><time>2026-04-26T08:16:33.409Z</time></trkpt><trkpt lat="43.8277284" lon="12.7099481"><ele>114.0</ele><time>2026-04-26T08:16:34.404Z</time></trkpt><trkpt lat="43.8275938" lon="12.710056"><ele>114.0</ele><time>2026-04-26T08:16:35.403Z</time></trkpt><trkpt lat="43.8274704" lon="12.7101516"><ele>113.80000000000001</ele><time>2026-04-26T08:16:36.409Z</time></trkpt><trkpt lat="43.8273634" lon="12.7102223"><ele>113.60000000000001</ele><time>2026-04-26T08:16:37.405Z</time></trkpt><trkpt lat="43.8272642" lon="12.7102388"><ele>113.4</ele><time>2026-04-26T08:16:38.405Z</time></trkpt><trkpt lat="43.8271927" lon="12.710191"><ele>113.2</ele><time>2026-04-26T08:16:39.406Z</time></trkpt><trkpt lat="43.8271537" lon="12.7101036"><ele>113.0</ele><time>2026-04-26T08:16:40.406Z</time></trkpt><trkpt lat="43.8271508" lon="12.709987"><ele>112.99999999999999</ele><time>2026-04-26T08:16:41.407Z</time></trkpt><trkpt lat="43.8271863" lon="12.709877"><ele>113.0</ele><time>2026-04-26T08:16:42.404Z</time></trkpt><trkpt lat="43.8272562" lon="12.709811"><ele>113.0</ele><time>2026-04-26T08:16:43.405Z</time></trkpt><trkpt lat="43.8273517" lon="12.7097541"><ele>113.0</ele><time>2026-04-26T08:16:44.406Z</time></trkpt><trkpt lat="43.8274224" lon="12.7096897"><ele>112.99999999999999</ele><time>2026-04-26T08:16:45.407Z</time></trkpt><trkpt lat="43.8274659" lon="12.7095946"><ele>113.0</ele><time>2026-04-26T08:16:46.412Z</time></trkpt><trkpt lat="43.8274512" lon="12.7094813"><ele>112.5</ele><time>2026-04-26T08:16:47.405Z</time></trkpt><trkpt lat="43.827339" lon="12.7092731"><ele>112.0</ele><time>2026-04-26T08:16:49.407Z</time></trkpt><trkpt lat="43.8272475" lon="12.7091597"><ele>111.5</ele><time>2026-04-26T08:16:50.408Z</time></trkpt><trkpt lat="43.8271508" lon="12.7090822"><ele>111.0</ele><time>2026-04-26T08:16:51.405Z</time></trkpt><trkpt lat="43.8270618" lon="12.7090324"><ele>111.0</ele><time>2026-04-26T08:16:52.411Z</time></trkpt><trkpt lat="43.8270001" lon="12.7089637"><ele>111.0</ele><time>2026-04-26T08:16:53.403Z</time></trkpt><trkpt lat="43.8269786" lon="12.7088684"><ele>111.0</ele><time>2026-04-26T08:16:54.407Z</time></trkpt><trkpt lat="43.8269494" lon="12.7087783"><ele>111.0</ele><time>2026-04-26T08:16:55.417Z</time></trkpt><trkpt lat="43.8269608" lon="12.708688"><ele>111.0</ele><time>2026-04-26T08:16:56.405Z</time></trkpt><trkpt lat="43.8270299" lon="12.7086269"><ele>111.0</ele><time>2026-04-26T08:16:57.407Z</time></trkpt><trkpt lat="43.8272225" lon="12.708744"><ele>111.0</ele><time>2026-04-26T08:16:58.407Z</time></trkpt><trkpt lat="43.8273547" lon="12.708792"><ele>111.0</ele><time>2026-04-26T08:16:59.408Z</time></trkpt><trkpt lat="43.8274675" lon="12.7088121"><ele>111.0</ele><time>2026-04-26T08:17:00.409Z</time></trkpt><trkpt lat="43.8275764" lon="12.7088091"><ele>111.0</ele><time>2026-04-26T08:17:01.411Z</time></trkpt><trkpt lat="43.8276878" lon="12.7087655"><ele>110.5</ele><time>2026-04-26T08:17:02.409Z</time></trkpt><trkpt lat="43.8278486" lon="12.7087341"><ele>110.0</ele><time>2026-04-26T08:17:03.405Z</time></trkpt><trkpt lat="43.8279757" lon="12.708743"><ele>109.5</ele><time>2026-04-26T08:17:04.407Z</time></trkpt><trkpt lat="43.8280825" lon="12.7087713"><ele>109.0</ele><time>2026-04-26T08:17:05.404Z</time></trkpt><trkpt lat="43.8281722" lon="12.7087806"><ele>109.0</ele><time>2026-04-26T08:17:06.403Z</time></trkpt><trkpt lat="43.8282696" lon="12.7087387"><ele>109.0</ele><time>2026-04-26T08:17:07.404Z</time></trkpt><trkpt lat="43.8283833" lon="12.7086316"><ele>109.0</ele><time>2026-04-26T08:17:08.41Z</time></trkpt><trkpt lat="43.8286234" lon="12.7084407"><ele>111.2</ele><time>2026-04-26T08:17:10.407Z</time></trkpt><trkpt lat="43.8287492" lon="12.7083724"><ele>113.4</ele><time>2026-04-26T08:17:11.406Z</time></trkpt><trkpt lat="43.8288577" lon="12.7083199"><ele>115.6</ele><time>2026-04-26T08:17:12.41Z</time></trkpt><trkpt lat="43.8289338" lon="12.7082513"><ele>117.8</ele><time>2026-04-26T08:17:13.407Z</time></trkpt><trkpt lat="43.8289811" lon="12.7081328"><ele>120.0</ele><time>2026-04-26T08:17:14.405Z</time></trkpt><trkpt lat="43.8290223" lon="12.7080172"><ele>120.0</ele><time>2026-04-26T08:17:15.408Z</time></trkpt><trkpt lat="43.8289926" lon="12.707814"><ele>120.0</ele><time>2026-04-26T08:17:16.404Z</time></trkpt><trkpt lat="43.8290041" lon="12.7076537"><ele>120.0</ele><time>2026-04-26T08:17:17.407Z</time></trkpt><trkpt lat="43.8290364" lon="12.7075223"><ele>120.0</ele><time>2026-04-26T08:17:18.407Z</time></trkpt><trkpt lat="43.829096" lon="12.7074131"><ele>119.0</ele><time>2026-04-26T08:17:19.408Z</time></trkpt><trkpt lat="43.8291827" lon="12.7073513"><ele>118.0</ele><time>2026-04-26T08:17:20.404Z</time></trkpt><trkpt lat="43.8292906" lon="12.7073355"><ele>117.0</ele><time>2026-04-26T08:17:21.406Z</time></trkpt><trkpt lat="43.829416" lon="12.7073418"><ele>116.0</ele><time>2026-04-26T08:17:22.408Z</time></trkpt><trkpt lat="43.829543" lon="12.7073708"><ele>116.0</ele><time>2026-04-26T08:17:23.407Z</time></trkpt><trkpt lat="43.8296719" lon="12.7073934"><ele>116.0</ele><time>2026-04-26T08:17:24.404Z</time></trkpt><trkpt lat="43.8298147" lon="12.7073857"><ele>116.0</ele><time>2026-04-26T08:17:25.411Z</time></trkpt><trkpt lat="43.8299509" lon="12.7073815"><ele>116.0</ele><time>2026-04-26T08:17:26.41Z</time></trkpt><trkpt lat="43.8300787" lon="12.7073715"><ele>114.0</ele><time>2026-04-26T08:17:27.406Z</time></trkpt><trkpt lat="43.8301937" lon="12.7073592"><ele>112.0</ele><time>2026-04-26T08:17:28.404Z</time></trkpt><trkpt lat="43.8302933" lon="12.7073466"><ele>110.0</ele><time>2026-04-26T08:17:29.406Z</time></trkpt><trkpt lat="43.8304636" lon="12.7072277"><ele>108.0</ele><time>2026-04-26T08:17:31.405Z</time></trkpt><trkpt lat="43.8305515" lon="12.7071179"><ele>108.0</ele><time>2026-04-26T08:17:32.406Z</time></trkpt><trkpt lat="43.8305549" lon="12.7068506"><ele>108.0</ele><time>2026-04-26T08:17:33.406Z</time></trkpt><trkpt lat="43.8305741" lon="12.7065493"><ele>108.0</ele><time>2026-04-26T08:17:34.408Z</time></trkpt><trkpt lat="43.8306154" lon="12.7062489"><ele>108.33333333333334</ele><time>2026-04-26T08:17:35.407Z</time></trkpt><trkpt lat="43.8306546" lon="12.7059708"><ele>108.66666666666667</ele><time>2026-04-26T08:17:36.412Z</time></trkpt><trkpt lat="43.8306904" lon="12.7057059"><ele>109.0</ele><time>2026-04-26T08:17:37.403Z</time></trkpt><trkpt lat="43.8307233" lon="12.7054625"><ele>108.0</ele><time>2026-04-26T08:17:38.411Z</time></trkpt><trkpt lat="43.8307463" lon="12.7052266"><ele>107.0</ele><time>2026-04-26T08:17:39.408Z</time></trkpt><trkpt lat="43.8307477" lon="12.7049863"><ele>106.0</ele><time>2026-04-26T08:17:40.405Z</time></trkpt><trkpt lat="43.8307468" lon="12.7047403"><ele>106.0</ele><time>2026-04-26T08:17:41.407Z</time></trkpt><trkpt lat="43.8307605" lon="12.7044895"><ele>106.0</ele><time>2026-04-26T08:17:42.407Z</time></trkpt><trkpt lat="43.8307764" lon="12.704244"><ele>106.0</ele><time>2026-04-26T08:17:43.407Z</time></trkpt><trkpt lat="43.8307938" lon="12.7040081"><ele>106.33333333333334</ele><time>2026-04-26T08:17:44.407Z</time></trkpt><trkpt lat="43.8308058" lon="12.7037821"><ele>106.66666666666666</ele><time>2026-04-26T08:17:45.408Z</time></trkpt><trkpt lat="43.8308047" lon="12.7035544"><ele>107.0</ele><time>2026-04-26T08:17:46.409Z</time></trkpt><trkpt lat="43.830801" lon="12.7033292"><ele>107.0</ele><time>2026-04-26T08:17:47.404Z</time></trkpt><trkpt lat="43.8307851" lon="12.7030965"><ele>107.0</ele><time>2026-04-26T08:17:48.407Z</time></trkpt><trkpt lat="43.8307626" lon="12.7028536"><ele>107.0</ele><time>2026-04-26T08:17:49.411Z</time></trkpt><trkpt lat="43.8307332" lon="12.702622"><ele>105.5</ele><time>2026-04-26T08:17:50.41Z</time></trkpt><trkpt lat="43.8306928" lon="12.7021883"><ele>104.0</ele><time>2026-04-26T08:17:52.402Z</time></trkpt><trkpt lat="43.8306757" lon="12.7019972"><ele>103.66666666666666</ele><time>2026-04-26T08:17:53.403Z</time></trkpt><trkpt lat="43.8306531" lon="12.7018132"><ele>103.33333333333334</ele><time>2026-04-26T08:17:54.407Z</time></trkpt><trkpt lat="43.8306257" lon="12.7016075"><ele>103.0</ele><time>2026-04-26T08:17:55.408Z</time></trkpt><trkpt lat="43.8305696" lon="12.7013883"><ele>103.0</ele><time>2026-04-26T08:17:56.408Z</time></trkpt><trkpt lat="43.8304947" lon="12.7011599"><ele>103.0</ele><time>2026-04-26T08:17:57.413Z</time></trkpt><trkpt lat="43.8304218" lon="12.7009301"><ele>103.0</ele><time>2026-04-26T08:17:58.409Z</time></trkpt><trkpt lat="43.8303376" lon="12.7007072"><ele>102.33333333333334</ele><time>2026-04-26T08:17:59.406Z</time></trkpt><trkpt lat="43.8302569" lon="12.7004853"><ele>101.66666666666666</ele><time>2026-04-26T08:18:00.403Z</time></trkpt><trkpt lat="43.8301737" lon="12.7002714"><ele>101.0</ele><time>2026-04-26T08:18:01.404Z</time></trkpt><trkpt lat="43.8300893" lon="12.7000496"><ele>101.0</ele><time>2026-04-26T08:18:02.406Z</time></trkpt><trkpt lat="43.8299997" lon="12.6998307"><ele>101.0</ele><time>2026-04-26T08:18:03.407Z</time></trkpt><trkpt lat="43.8299201" lon="12.6996063"><ele>101.0</ele><time>2026-04-26T08:18:04.409Z</time></trkpt><trkpt lat="43.8298395" lon="12.6993817"><ele>99.66666666666666</ele><time>2026-04-26T08:18:05.412Z</time></trkpt><trkpt lat="43.8297612" lon="12.6991603"><ele>98.33333333333334</ele><time>2026-04-26T08:18:06.406Z</time></trkpt><trkpt lat="43.8296827" lon="12.6989427"><ele>97.0</ele><time>2026-04-26T08:18:07.403Z</time></trkpt><trkpt lat="43.8296051" lon="12.6987113"><ele>95.66666666666667</ele><time>2026-04-26T08:18:08.404Z</time></trkpt><trkpt lat="43.8295282" lon="12.6984824"><ele>94.33333333333334</ele><time>2026-04-26T08:18:09.411Z</time></trkpt><trkpt lat="43.8294445" lon="12.6982658"><ele>93.0</ele><time>2026-04-26T08:18:10.403Z</time></trkpt><trkpt lat="43.8293598" lon="12.6980541"><ele>94.5</ele><time>2026-04-26T08:18:11.41Z</time></trkpt><trkpt lat="43.829164" lon="12.6976418"><ele>96.0</ele><time>2026-04-26T08:18:13.41Z</time></trkpt><trkpt lat="43.8290614" lon="12.6974309"><ele>96.0</ele><time>2026-04-26T08:18:14.407Z</time></trkpt><trkpt lat="43.8289641" lon="12.6972186"><ele>96.0</ele><time>2026-04-26T08:18:15.411Z</time></trkpt><trkpt lat="43.8288701" lon="12.6970081"><ele>96.0</ele><time>2026-04-26T08:18:16.406Z</time></trkpt><trkpt lat="43.8287748" lon="12.6968043"><ele>94.66666666666667</ele><time>2026-04-26T08:18:17.409Z</time></trkpt><trkpt lat="43.8286798" lon="12.6966024"><ele>93.33333333333334</ele><time>2026-04-26T08:18:18.407Z</time></trkpt><trkpt lat="43.8285872" lon="12.6963967"><ele>92.0</ele><time>2026-04-26T08:18:19.405Z</time></trkpt><trkpt lat="43.8284894" lon="12.6961723"><ele>94.33333333333334</ele><time>2026-04-26T08:18:20.406Z</time></trkpt><trkpt lat="43.8283877" lon="12.6959492"><ele>96.66666666666667</ele><time>2026-04-26T08:18:21.407Z</time></trkpt><trkpt lat="43.8282888" lon="12.6957374"><ele>99.0</ele><time>2026-04-26T08:18:22.408Z</time></trkpt><trkpt lat="43.8281947" lon="12.6955272"><ele>99.0</ele><time>2026-04-26T08:18:23.407Z</time></trkpt><trkpt lat="43.8281039" lon="12.6953294"><ele>99.0</ele><time>2026-04-26T08:18:24.404Z</time></trkpt><trkpt lat="43.8280088" lon="12.6951403"><ele>99.0</ele><time>2026-04-26T08:18:25.405Z</time></trkpt><trkpt lat="43.8278969" lon="12.6949699"><ele>98.33333333333334</ele><time>2026-04-26T08:18:26.406Z</time></trkpt><trkpt lat="43.8277709" lon="12.6947946"><ele>97.66666666666667</ele><time>2026-04-26T08:18:27.408Z</time></trkpt><trkpt lat="43.8276367" lon="12.6946237"><ele>97.0</ele><time>2026-04-26T08:18:28.408Z</time></trkpt><trkpt lat="43.8274911" lon="12.6944734"><ele>97.66666666666667</ele><time>2026-04-26T08:18:29.408Z</time></trkpt><trkpt lat="43.8273301" lon="12.6943388"><ele>98.33333333333334</ele><time>2026-04-26T08:18:30.408Z</time></trkpt><trkpt lat="43.8271734" lon="12.6942096"><ele>99.0</ele><time>2026-04-26T08:18:31.408Z</time></trkpt><trkpt lat="43.8270317" lon="12.6940873"><ele>105.5</ele><time>2026-04-26T08:18:32.405Z</time></trkpt><trkpt lat="43.8267715" lon="12.6937939"><ele>112.0</ele><time>2026-04-26T08:18:34.41Z</time></trkpt><trkpt lat="43.8266529" lon="12.6936125"><ele>109.0</ele><time>2026-04-26T08:18:35.41Z</time></trkpt><trkpt lat="43.8265489" lon="12.6934228"><ele>106.0</ele><time>2026-04-26T08:18:36.405Z</time></trkpt><trkpt lat="43.8264543" lon="12.6932446"><ele>103.0</ele><time>2026-04-26T08:18:37.406Z</time></trkpt><trkpt lat="43.826367" lon="12.6930742"><ele>103.0</ele><time>2026-04-26T08:18:38.411Z</time></trkpt><trkpt lat="43.8263277" lon="12.6928982"><ele>103.0</ele><time>2026-04-26T08:18:39.41Z</time></trkpt><trkpt lat="43.8263075" lon="12.6927361"><ele>103.0</ele><time>2026-04-26T08:18:40.407Z</time></trkpt><trkpt lat="43.8263166" lon="12.6925801"><ele>103.0</ele><time>2026-04-26T08:18:41.408Z</time></trkpt><trkpt lat="43.8263588" lon="12.6924276"><ele>102.66666666666667</ele><time>2026-04-26T08:18:42.406Z</time></trkpt><trkpt lat="43.8264339" lon="12.6922801"><ele>102.33333333333334</ele><time>2026-04-26T08:18:43.41Z</time></trkpt><trkpt lat="43.8265467" lon="12.6921239"><ele>102.0</ele><time>2026-04-26T08:18:44.404Z</time></trkpt><trkpt lat="43.826663" lon="12.6919667"><ele>101.0</ele><time>2026-04-26T08:18:45.406Z</time></trkpt><trkpt lat="43.8267733" lon="12.6918016"><ele>100.0</ele><time>2026-04-26T08:18:46.408Z</time></trkpt><trkpt lat="43.8268744" lon="12.6916383"><ele>99.0</ele><time>2026-04-26T08:18:47.408Z</time></trkpt><trkpt lat="43.8269631" lon="12.6914823"><ele>98.2</ele><time>2026-04-26T08:18:48.409Z</time></trkpt><trkpt lat="43.8270374" lon="12.6913449"><ele>97.4</ele><time>2026-04-26T08:18:49.408Z</time></trkpt><trkpt lat="43.827099" lon="12.6912125"><ele>96.6</ele><time>2026-04-26T08:18:50.404Z</time></trkpt><trkpt lat="43.8271404" lon="12.6910733"><ele>95.8</ele><time>2026-04-26T08:18:51.403Z</time></trkpt><trkpt lat="43.827152" lon="12.690944"><ele>95.0</ele><time>2026-04-26T08:18:52.405Z</time></trkpt><trkpt lat="43.8271142" lon="12.6908225"><ele>95.33333333333334</ele><time>2026-04-26T08:18:53.405Z</time></trkpt><trkpt lat="43.8269464" lon="12.6906378"><ele>95.66666666666667</ele><time>2026-04-26T08:18:55.408Z</time></trkpt><trkpt lat="43.8268167" lon="12.6905799"><ele>96.0</ele><time>2026-04-26T08:18:56.408Z</time></trkpt><trkpt lat="43.8267072" lon="12.6904918"><ele>96.0</ele><time>2026-04-26T08:18:57.41Z</time></trkpt><trkpt lat="43.8266296" lon="12.6903589"><ele>96.0</ele><time>2026-04-26T08:18:58.407Z</time></trkpt><trkpt lat="43.8265714" lon="12.6902055"><ele>96.0</ele><time>2026-04-26T08:18:59.405Z</time></trkpt><trkpt lat="43.826548" lon="12.6900253"><ele>96.0</ele><time>2026-04-26T08:19:00.405Z</time></trkpt><trkpt lat="43.8265248" lon="12.6898533"><ele>93.75</ele><time>2026-04-26T08:19:01.411Z</time></trkpt><trkpt lat="43.8264811" lon="12.689691"><ele>91.5</ele><time>2026-04-26T08:19:02.41Z</time></trkpt><trkpt lat="43.8264293" lon="12.6895236"><ele>89.25</ele><time>2026-04-26T08:19:03.404Z</time></trkpt><trkpt lat="43.8263096" lon="12.6893734"><ele>87.0</ele><time>2026-04-26T08:19:04.408Z</time></trkpt><trkpt lat="43.8261805" lon="12.6892024"><ele>89.0</ele><time>2026-04-26T08:19:05.408Z</time></trkpt><trkpt lat="43.826057" lon="12.6890352"><ele>91.0</ele><time>2026-04-26T08:19:06.41Z</time></trkpt><trkpt lat="43.825936" lon="12.6888788"><ele>93.0</ele><time>2026-04-26T08:19:07.405Z</time></trkpt><trkpt lat="43.825823" lon="12.6887045"><ele>86.66666666666667</ele><time>2026-04-26T08:19:08.41Z</time></trkpt><trkpt lat="43.8257222" lon="12.6884858"><ele>80.33333333333334</ele><time>2026-04-26T08:19:09.404Z</time></trkpt><trkpt lat="43.8256226" lon="12.6882589"><ele>74.0</ele><time>2026-04-26T08:19:10.403Z</time></trkpt><trkpt lat="43.8255271" lon="12.6880284"><ele>74.0</ele><time>2026-04-26T08:19:11.409Z</time></trkpt><trkpt lat="43.8254361" lon="12.6877997"><ele>74.0</ele><time>2026-04-26T08:19:12.405Z</time></trkpt><trkpt lat="43.8253419" lon="12.6875683"><ele>74.0</ele><time>2026-04-26T08:19:13.404Z</time></trkpt><trkpt lat="43.8252389" lon="12.6873343"><ele>75.5</ele><time>2026-04-26T08:19:14.411Z</time></trkpt><trkpt lat="43.8250088" lon="12.6868598"><ele>77.0</ele><time>2026-04-26T08:19:16.405Z</time></trkpt><trkpt lat="43.8248867" lon="12.6866286"><ele>77.0</ele><time>2026-04-26T08:19:17.406Z</time></trkpt><trkpt lat="43.8247642" lon="12.686379"><ele>77.0</ele><time>2026-04-26T08:19:18.405Z</time></trkpt><trkpt lat="43.8246362" lon="12.6861249"><ele>77.0</ele><time>2026-04-26T08:19:19.406Z</time></trkpt><trkpt lat="43.824512" lon="12.6858651"><ele>77.33333333333334</ele><time>2026-04-26T08:19:20.409Z</time></trkpt><trkpt lat="43.8243935" lon="12.6856182"><ele>77.66666666666667</ele><time>2026-04-26T08:19:21.405Z</time></trkpt><trkpt lat="43.8242719" lon="12.6853817"><ele>78.0</ele><time>2026-04-26T08:19:22.405Z</time></trkpt><trkpt lat="43.8241624" lon="12.6851593"><ele>78.0</ele><time>2026-04-26T08:19:23.403Z</time></trkpt><trkpt lat="43.8240592" lon="12.6849564"><ele>78.0</ele><time>2026-04-26T08:19:24.407Z</time></trkpt><trkpt lat="43.8239456" lon="12.6847787"><ele>78.0</ele><time>2026-04-26T08:19:25.405Z</time></trkpt><trkpt lat="43.8238387" lon="12.6846043"><ele>78.0</ele><time>2026-04-26T08:19:26.404Z</time></trkpt><trkpt lat="43.8237371" lon="12.6844471"><ele>78.0</ele><time>2026-04-26T08:19:27.407Z</time></trkpt><trkpt lat="43.8236615" lon="12.6843372"><ele>78.0</ele><time>2026-04-26T08:19:28.407Z</time></trkpt><trkpt lat="43.8236083" lon="12.6842612"><ele>78.0</ele><time>2026-04-26T08:19:29.408Z</time></trkpt><trkpt lat="43.8235456" lon="12.6841707"><ele>78.0</ele><time>2026-04-26T08:19:30.405Z</time></trkpt><trkpt lat="43.8234684" lon="12.6840734"><ele>78.75</ele><time>2026-04-26T08:19:31.41Z</time></trkpt><trkpt lat="43.8233896" lon="12.6839291"><ele>79.5</ele><time>2026-04-26T08:19:32.403Z</time></trkpt><trkpt lat="43.823314" lon="12.6837696"><ele>80.25</ele><time>2026-04-26T08:19:33.409Z</time></trkpt><trkpt lat="43.8232342" lon="12.6835991"><ele>81.0</ele><time>2026-04-26T08:19:34.41Z</time></trkpt><trkpt lat="43.8231669" lon="12.6834384"><ele>78.0</ele><time>2026-04-26T08:19:35.405Z</time></trkpt><trkpt lat="43.8230509" lon="12.6831329"><ele>75.0</ele><time>2026-04-26T08:19:37.404Z</time></trkpt><trkpt lat="43.8230005" lon="12.6829887"><ele>72.0</ele><time>2026-04-26T08:19:38.406Z</time></trkpt><trkpt lat="43.8229532" lon="12.6828546"><ele>72.0</ele><time>2026-04-26T08:19:39.403Z</time></trkpt><trkpt lat="43.8228886" lon="12.6827379"><ele>72.0</ele><time>2026-04-26T08:19:40.406Z</time></trkpt><trkpt lat="43.8228122" lon="12.6826428"><ele>72.0</ele><time>2026-04-26T08:19:41.403Z</time></trkpt><trkpt lat="43.8227413" lon="12.6825872"><ele>72.0</ele><time>2026-04-26T08:19:42.406Z</time></trkpt><trkpt lat="43.8226803" lon="12.6825469"><ele>72.0</ele><time>2026-04-26T08:19:43.402Z</time></trkpt><trkpt lat="43.8226009" lon="12.6825574"><ele>72.0</ele><time>2026-04-26T08:19:45.405Z</time></trkpt><trkpt lat="43.8225317" lon="12.6827011"><ele>74.5</ele><time>2026-04-26T08:19:47.407Z</time></trkpt><trkpt lat="43.8224963" lon="12.6828114"><ele>77.0</ele><time>2026-04-26T08:19:48.407Z</time></trkpt><trkpt lat="43.8224517" lon="12.6829567"><ele>79.5</ele><time>2026-04-26T08:19:49.413Z</time></trkpt><trkpt lat="43.822397" lon="12.6831442"><ele>82.0</ele><time>2026-04-26T08:19:50.41Z</time></trkpt><trkpt lat="43.8223302" lon="12.6833689"><ele>84.66666666666666</ele><time>2026-04-26T08:19:51.408Z</time></trkpt><trkpt lat="43.8222627" lon="12.6836099"><ele>87.33333333333333</ele><time>2026-04-26T08:19:52.408Z</time></trkpt><trkpt lat="43.8221992" lon="12.6838736"><ele>90.0</ele><time>2026-04-26T08:19:53.41Z</time></trkpt><trkpt lat="43.8221443" lon="12.6841264"><ele>90.0</ele><time>2026-04-26T08:19:54.415Z</time></trkpt><trkpt lat="43.8220958" lon="12.6843646"><ele>90.0</ele><time>2026-04-26T08:19:55.411Z</time></trkpt><trkpt lat="43.822044" lon="12.6845775"><ele>90.0</ele><time>2026-04-26T08:19:56.406Z</time></trkpt><trkpt lat="43.8219437" lon="12.6849728"><ele>92.5</ele><time>2026-04-26T08:19:58.408Z</time></trkpt><trkpt lat="43.8219088" lon="12.6851662"><ele>95.0</ele><time>2026-04-26T08:19:59.408Z</time></trkpt><trkpt lat="43.8218883" lon="12.685378"><ele>97.5</ele><time>2026-04-26T08:20:00.408Z</time></trkpt><trkpt lat="43.8218714" lon="12.6855766"><ele>100.0</ele><time>2026-04-26T08:20:01.409Z</time></trkpt><trkpt lat="43.8218704" lon="12.6857764"><ele>101.75</ele><time>2026-04-26T08:20:02.406Z</time></trkpt><trkpt lat="43.821881" lon="12.6859698"><ele>103.5</ele><time>2026-04-26T08:20:03.411Z</time></trkpt><trkpt lat="43.8219108" lon="12.6861804"><ele>105.25</ele><time>2026-04-26T08:20:04.408Z</time></trkpt><trkpt lat="43.82194" lon="12.6863904"><ele>107.0</ele><time>2026-04-26T08:20:05.408Z</time></trkpt><trkpt lat="43.8219594" lon="12.6865733"><ele>111.5</ele><time>2026-04-26T08:20:06.405Z</time></trkpt><trkpt lat="43.8219568" lon="12.6867505"><ele>116.0</ele><time>2026-04-26T08:20:07.411Z</time></trkpt><trkpt lat="43.821933" lon="12.6869359"><ele>120.5</ele><time>2026-04-26T08:20:08.407Z</time></trkpt><trkpt lat="43.8218971" lon="12.6871311"><ele>125.0</ele><time>2026-04-26T08:20:09.407Z</time></trkpt><trkpt lat="43.8218594" lon="12.6873421"><ele>131.0</ele><time>2026-04-26T08:20:10.409Z</time></trkpt><trkpt lat="43.8218161" lon="12.6875566"><ele>137.0</ele><time>2026-04-26T08:20:11.409Z</time></trkpt><trkpt lat="43.821779" lon="12.6877648"><ele>143.0</ele><time>2026-04-26T08:20:12.406Z</time></trkpt><trkpt lat="43.8217288" lon="12.6879801"><ele>143.0</ele><time>2026-04-26T08:20:13.405Z</time></trkpt><trkpt lat="43.8216639" lon="12.6882049"><ele>143.0</ele><time>2026-04-26T08:20:14.411Z</time></trkpt><trkpt lat="43.8215951" lon="12.6884111"><ele>143.0</ele><time>2026-04-26T08:20:15.409Z</time></trkpt><trkpt lat="43.8215295" lon="12.6885885"><ele>144.0</ele><time>2026-04-26T08:20:16.406Z</time></trkpt><trkpt lat="43.82147" lon="12.6887517"><ele>145.0</ele><time>2026-04-26T08:20:17.411Z</time></trkpt><trkpt lat="43.8213371" lon="12.6890663"><ele>146.0</ele><time>2026-04-26T08:20:19.405Z</time></trkpt><trkpt lat="43.8212766" lon="12.6892039"><ele>146.0</ele><time>2026-04-26T08:20:20.408Z</time></trkpt><trkpt lat="43.8212208" lon="12.6893225"><ele>146.0</ele><time>2026-04-26T08:20:21.411Z</time></trkpt><trkpt lat="43.8211697" lon="12.68942"><ele>146.0</ele><time>2026-04-26T08:20:22.409Z</time></trkpt><trkpt lat="43.8211117" lon="12.689499"><ele>146.0</ele><time>2026-04-26T08:20:23.411Z</time></trkpt><trkpt lat="43.8210376" lon="12.6895515"><ele>146.0</ele><time>2026-04-26T08:20:24.407Z</time></trkpt><trkpt lat="43.8209558" lon="12.6895639"><ele>146.0</ele><time>2026-04-26T08:20:25.406Z</time></trkpt><trkpt lat="43.8208724" lon="12.6895135"><ele>147.25</ele><time>2026-04-26T08:20:26.405Z</time></trkpt><trkpt lat="43.8207778" lon="12.6894232"><ele>148.5</ele><time>2026-04-26T08:20:27.404Z</time></trkpt><trkpt lat="43.8206822" lon="12.6892965"><ele>149.75</ele><time>2026-04-26T08:20:28.407Z</time></trkpt><trkpt lat="43.8205768" lon="12.6891493"><ele>151.0</ele><time>2026-04-26T08:20:29.408Z</time></trkpt><trkpt lat="43.8204639" lon="12.6889887"><ele>151.0</ele><time>2026-04-26T08:20:30.409Z</time></trkpt><trkpt lat="43.8203471" lon="12.6888242"><ele>151.0</ele><time>2026-04-26T08:20:31.412Z</time></trkpt><trkpt lat="43.8202381" lon="12.6886606"><ele>151.0</ele><time>2026-04-26T08:20:32.403Z</time></trkpt><trkpt lat="43.8201418" lon="12.6885084"><ele>153.75</ele><time>2026-04-26T08:20:33.403Z</time></trkpt><trkpt lat="43.8200461" lon="12.6883714"><ele>156.5</ele><time>2026-04-26T08:20:34.403Z</time></trkpt><trkpt lat="43.8199548" lon="12.6882363"><ele>159.25</ele><time>2026-04-26T08:20:35.403Z</time></trkpt><trkpt lat="43.819871" lon="12.6881078"><ele>162.0</ele><time>2026-04-26T08:20:36.405Z</time></trkpt><trkpt lat="43.8197997" lon="12.687993"><ele>162.0</ele><time>2026-04-26T08:20:37.404Z</time></trkpt><trkpt lat="43.8197357" lon="12.6878909"><ele>162.0</ele><time>2026-04-26T08:20:38.411Z</time></trkpt><trkpt lat="43.819614" lon="12.6877556"><ele>162.0</ele><time>2026-04-26T08:20:40.409Z</time></trkpt><trkpt lat="43.8195496" lon="12.6877421"><ele>162.0</ele><time>2026-04-26T08:20:41.413Z</time></trkpt><trkpt lat="43.8194812" lon="12.6877894"><ele>162.0</ele><time>2026-04-26T08:20:42.413Z</time></trkpt><trkpt lat="43.8194172" lon="12.6878828"><ele>162.0</ele><time>2026-04-26T08:20:43.408Z</time></trkpt><trkpt lat="43.8193462" lon="12.6880104"><ele>162.0</ele><time>2026-04-26T08:20:44.418Z</time></trkpt><trkpt lat="43.8192587" lon="12.6881668"><ele>162.0</ele><time>2026-04-26T08:20:45.417Z</time></trkpt><trkpt lat="43.8191589" lon="12.6883505"><ele>162.0</ele><time>2026-04-26T08:20:46.406Z</time></trkpt><trkpt lat="43.8190703" lon="12.6885176"><ele>164.0</ele><time>2026-04-26T08:20:47.408Z</time></trkpt><trkpt lat="43.8189943" lon="12.6886603"><ele>166.0</ele><time>2026-04-26T08:20:48.406Z</time></trkpt><trkpt lat="43.8189293" lon="12.6887799"><ele>168.0</ele><time>2026-04-26T08:20:49.408Z</time></trkpt><trkpt lat="43.8188696" lon="12.6888865"><ele>170.0</ele><time>2026-04-26T08:20:50.412Z</time></trkpt><trkpt lat="43.8188077" lon="12.6889921"><ele>172.0</ele><time>2026-04-26T08:20:51.409Z</time></trkpt><trkpt lat="43.8187353" lon="12.6891149"><ele>172.0</ele><time>2026-04-26T08:20:52.405Z</time></trkpt><trkpt lat="43.8186605" lon="12.6892642"><ele>172.0</ele><time>2026-04-26T08:20:53.403Z</time></trkpt><trkpt lat="43.818574" lon="12.6893956"><ele>172.0</ele><time>2026-04-26T08:20:54.403Z</time></trkpt><trkpt lat="43.8184938" lon="12.6895076"><ele>172.0</ele><time>2026-04-26T08:20:55.402Z</time></trkpt><trkpt lat="43.8184343" lon="12.6896002"><ele>176.5</ele><time>2026-04-26T08:20:56.404Z</time></trkpt><trkpt lat="43.8183996" lon="12.6897073"><ele>181.0</ele><time>2026-04-26T08:20:57.407Z</time></trkpt><trkpt lat="43.8183491" lon="12.6897909"><ele>185.5</ele><time>2026-04-26T08:20:58.412Z</time></trkpt><trkpt lat="43.8182861" lon="12.6898833"><ele>190.0</ele><time>2026-04-26T08:20:59.408Z</time></trkpt><trkpt lat="43.8181249" lon="12.6900931"><ele>190.0</ele><time>2026-04-26T08:21:01.407Z</time></trkpt><trkpt lat="43.8180275" lon="12.6901757"><ele>190.0</ele><time>2026-04-26T08:21:02.41Z</time></trkpt><trkpt lat="43.8179309" lon="12.6902463"><ele>190.0</ele><time>2026-04-26T08:21:03.403Z</time></trkpt><trkpt lat="43.8178392" lon="12.6903023"><ele>190.0</ele><time>2026-04-26T08:21:04.405Z</time></trkpt><trkpt lat="43.8177364" lon="12.6903533"><ele>190.0</ele><time>2026-04-26T08:21:05.404Z</time></trkpt><trkpt lat="43.8176224" lon="12.6903832"><ele>193.4</ele><time>2026-04-26T08:21:06.406Z</time></trkpt><trkpt lat="43.8175035" lon="12.6903984"><ele>196.8</ele><time>2026-04-26T08:21:07.404Z</time></trkpt><trkpt lat="43.8173788" lon="12.6904094"><ele>200.2</ele><time>2026-04-26T08:21:08.408Z</time></trkpt><trkpt lat="43.8172736" lon="12.6904075"><ele>203.6</ele><time>2026-04-26T08:21:09.407Z</time></trkpt><trkpt lat="43.8171787" lon="12.6904045"><ele>207.0</ele><time>2026-04-26T08:21:10.408Z</time></trkpt><trkpt lat="43.817093" lon="12.6903905"><ele>207.0</ele><time>2026-04-26T08:21:11.409Z</time></trkpt><trkpt lat="43.8170158" lon="12.6903384"><ele>207.0</ele><time>2026-04-26T08:21:12.406Z</time></trkpt><trkpt lat="43.816948" lon="12.6902372"><ele>207.0</ele><time>2026-04-26T08:21:13.406Z</time></trkpt><trkpt lat="43.816878" lon="12.6901077"><ele>207.0</ele><time>2026-04-26T08:21:14.402Z</time></trkpt><trkpt lat="43.816816" lon="12.6899707"><ele>207.0</ele><time>2026-04-26T08:21:15.403Z</time></trkpt><trkpt lat="43.8167725" lon="12.6898377"><ele>205.25</ele><time>2026-04-26T08:21:16.405Z</time></trkpt><trkpt lat="43.8167339" lon="12.6896956"><ele>203.5</ele><time>2026-04-26T08:21:17.408Z</time></trkpt><trkpt lat="43.8166913" lon="12.6895817"><ele>201.75</ele><time>2026-04-26T08:21:18.41Z</time></trkpt><trkpt lat="43.8166239" lon="12.6894794"><ele>200.0</ele><time>2026-04-26T08:21:19.408Z</time></trkpt><trkpt lat="43.8165109" lon="12.6893447"><ele>197.33333333333334</ele><time>2026-04-26T08:21:20.408Z</time></trkpt><trkpt lat="43.8163191" lon="12.6891199"><ele>194.66666666666669</ele><time>2026-04-26T08:21:22.404Z</time></trkpt><trkpt lat="43.8162134" lon="12.6890073"><ele>192.0</ele><time>2026-04-26T08:21:23.403Z</time></trkpt><trkpt lat="43.8161101" lon="12.6888811"><ele>192.0</ele><time>2026-04-26T08:21:24.404Z</time></trkpt><trkpt lat="43.8160013" lon="12.6887628"><ele>192.0</ele><time>2026-04-26T08:21:25.405Z</time></trkpt><trkpt lat="43.8158963" lon="12.6886367"><ele>192.0</ele><time>2026-04-26T08:21:26.408Z</time></trkpt><trkpt lat="43.8158019" lon="12.6885097"><ele>192.0</ele><time>2026-04-26T08:21:27.404Z</time></trkpt><trkpt lat="43.8157079" lon="12.6883968"><ele>193.0</ele><time>2026-04-26T08:21:28.407Z</time></trkpt><trkpt lat="43.8156198" lon="12.6882997"><ele>194.0</ele><time>2026-04-26T08:21:29.409Z</time></trkpt><trkpt lat="43.8155517" lon="12.6882214"><ele>195.0</ele><time>2026-04-26T08:21:30.411Z</time></trkpt><trkpt lat="43.8154883" lon="12.6881669"><ele>196.0</ele><time>2026-04-26T08:21:31.405Z</time></trkpt><trkpt lat="43.8154282" lon="12.6881267"><ele>197.0</ele><time>2026-04-26T08:21:32.41Z</time></trkpt><trkpt lat="43.8153513" lon="12.6880497"><ele>198.0</ele><time>2026-04-26T08:21:34.406Z</time></trkpt><trkpt lat="43.8152994" lon="12.6879282"><ele>198.0</ele><time>2026-04-26T08:21:36.403Z</time></trkpt><trkpt lat="43.8152321" lon="12.6878997"><ele>198.0</ele><time>2026-04-26T08:21:37.406Z</time></trkpt><trkpt lat="43.8151639" lon="12.6879018"><ele>198.0</ele><time>2026-04-26T08:21:38.405Z</time></trkpt><trkpt lat="43.8150885" lon="12.6879324"><ele>198.0</ele><time>2026-04-26T08:21:39.407Z</time></trkpt><trkpt lat="43.8150005" lon="12.6879784"><ele>198.0</ele><time>2026-04-26T08:21:40.407Z</time></trkpt><trkpt lat="43.8149078" lon="12.6880338"><ele>198.0</ele><time>2026-04-26T08:21:41.407Z</time></trkpt><trkpt lat="43.8147099" lon="12.6881468"><ele>198.5</ele><time>2026-04-26T08:21:43.405Z</time></trkpt><trkpt lat="43.8146082" lon="12.6882048"><ele>199.0</ele><time>2026-04-26T08:21:44.405Z</time></trkpt><trkpt lat="43.8145007" lon="12.6882647"><ele>199.5</ele><time>2026-04-26T08:21:45.407Z</time></trkpt><trkpt lat="43.8143919" lon="12.688327"><ele>200.0</ele><time>2026-04-26T08:21:46.403Z</time></trkpt><trkpt lat="43.8142946" lon="12.6883961"><ele>199.0</ele><time>2026-04-26T08:21:47.407Z</time></trkpt><trkpt lat="43.814199" lon="12.68848"><ele>198.0</ele><time>2026-04-26T08:21:48.409Z</time></trkpt><trkpt lat="43.814109" lon="12.6885512"><ele>197.0</ele><time>2026-04-26T08:21:49.409Z</time></trkpt><trkpt lat="43.8140268" lon="12.6886125"><ele>196.0</ele><time>2026-04-26T08:21:50.408Z</time></trkpt><trkpt lat="43.8139663" lon="12.6886376"><ele>195.0</ele><time>2026-04-26T08:21:51.406Z</time></trkpt><trkpt lat="43.8138725" lon="12.6886483"><ele>195.0</ele><time>2026-04-26T08:21:54.405Z</time></trkpt><trkpt lat="43.8137781" lon="12.6887551"><ele>195.0</ele><time>2026-04-26T08:21:56.407Z</time></trkpt><trkpt lat="43.8137136" lon="12.6888401"><ele>195.0</ele><time>2026-04-26T08:21:57.408Z</time></trkpt><trkpt lat="43.8136321" lon="12.6889287"><ele>195.0</ele><time>2026-04-26T08:21:58.41Z</time></trkpt><trkpt lat="43.813527" lon="12.6890234"><ele>195.0</ele><time>2026-04-26T08:21:59.41Z</time></trkpt><trkpt lat="43.8134194" lon="12.6891471"><ele>196.0</ele><time>2026-04-26T08:22:00.409Z</time></trkpt><trkpt lat="43.8133193" lon="12.6892839"><ele>197.0</ele><time>2026-04-26T08:22:01.408Z</time></trkpt><trkpt lat="43.813247" lon="12.6894803"><ele>198.0</ele><time>2026-04-26T08:22:02.407Z</time></trkpt><trkpt lat="43.8131554" lon="12.6898881"><ele>198.0</ele><time>2026-04-26T08:22:04.412Z</time></trkpt><trkpt lat="43.8131216" lon="12.6901326"><ele>198.0</ele><time>2026-04-26T08:22:05.404Z</time></trkpt><trkpt lat="43.8130844" lon="12.6903667"><ele>198.0</ele><time>2026-04-26T08:22:06.411Z</time></trkpt><trkpt lat="43.8130499" lon="12.6905873"><ele>200.66666666666669</ele><time>2026-04-26T08:22:07.405Z</time></trkpt><trkpt lat="43.8130006" lon="12.6907872"><ele>203.33333333333334</ele><time>2026-04-26T08:22:08.406Z</time></trkpt><trkpt lat="43.8129203" lon="12.6909699"><ele>206.0</ele><time>2026-04-26T08:22:09.409Z</time></trkpt><trkpt lat="43.8128233" lon="12.6911429"><ele>205.25</ele><time>2026-04-26T08:22:10.406Z</time></trkpt><trkpt lat="43.8127282" lon="12.6912857"><ele>204.5</ele><time>2026-04-26T08:22:11.406Z</time></trkpt><trkpt lat="43.8126281" lon="12.6914019"><ele>203.75</ele><time>2026-04-26T08:22:12.405Z</time></trkpt><trkpt lat="43.8125245" lon="12.6914929"><ele>203.0</ele><time>2026-04-26T08:22:13.403Z</time></trkpt><trkpt lat="43.8124039" lon="12.6915406"><ele>203.0</ele><time>2026-04-26T08:22:14.405Z</time></trkpt><trkpt lat="43.8122687" lon="12.6915345"><ele>203.0</ele><time>2026-04-26T08:22:15.403Z</time></trkpt><trkpt lat="43.8121279" lon="12.691505"><ele>203.0</ele><time>2026-04-26T08:22:16.409Z</time></trkpt><trkpt lat="43.8119932" lon="12.6915231"><ele>203.0</ele><time>2026-04-26T08:22:17.404Z</time></trkpt><trkpt lat="43.8118575" lon="12.6916039"><ele>204.33333333333334</ele><time>2026-04-26T08:22:18.406Z</time></trkpt><trkpt lat="43.8117066" lon="12.6917223"><ele>205.66666666666669</ele><time>2026-04-26T08:22:19.405Z</time></trkpt><trkpt lat="43.8115561" lon="12.6918223"><ele>207.0</ele><time>2026-04-26T08:22:20.404Z</time></trkpt><trkpt lat="43.811411" lon="12.6918998"><ele>209.5</ele><time>2026-04-26T08:22:21.407Z</time></trkpt><trkpt lat="43.8112648" lon="12.6919361"><ele>212.0</ele><time>2026-04-26T08:22:22.404Z</time></trkpt><trkpt lat="43.8109095" lon="12.6918858"><ele>212.0</ele><time>2026-04-26T08:22:24.409Z</time></trkpt><trkpt lat="43.8107077" lon="12.6918255"><ele>212.0</ele><time>2026-04-26T08:22:25.408Z</time></trkpt><trkpt lat="43.8105128" lon="12.6917614"><ele>212.0</ele><time>2026-04-26T08:22:26.408Z</time></trkpt><trkpt lat="43.8103433" lon="12.6916992"><ele>212.0</ele><time>2026-04-26T08:22:27.405Z</time></trkpt><trkpt lat="43.8102044" lon="12.6916232"><ele>212.0</ele><time>2026-04-26T08:22:28.407Z</time></trkpt><trkpt lat="43.8100914" lon="12.6915067"><ele>212.0</ele><time>2026-04-26T08:22:29.411Z</time></trkpt><trkpt lat="43.8100004" lon="12.6913486"><ele>212.0</ele><time>2026-04-26T08:22:30.41Z</time></trkpt><trkpt lat="43.8099418" lon="12.6911675"><ele>213.5</ele><time>2026-04-26T08:22:31.406Z</time></trkpt><trkpt lat="43.8099125" lon="12.6909836"><ele>215.0</ele><time>2026-04-26T08:22:32.418Z</time></trkpt><trkpt lat="43.8098568" lon="12.690841"><ele>216.5</ele><time>2026-04-26T08:22:33.405Z</time></trkpt><trkpt lat="43.8097726" lon="12.6907397"><ele>218.0</ele><time>2026-04-26T08:22:34.405Z</time></trkpt><trkpt lat="43.8096591" lon="12.6906971"><ele>218.0</ele><time>2026-04-26T08:22:35.408Z</time></trkpt><trkpt lat="43.8095182" lon="12.6906945"><ele>218.0</ele><time>2026-04-26T08:22:36.411Z</time></trkpt><trkpt lat="43.8093702" lon="12.6907023"><ele>218.0</ele><time>2026-04-26T08:22:37.411Z</time></trkpt><trkpt lat="43.8092361" lon="12.6907062"><ele>218.0</ele><time>2026-04-26T08:22:38.412Z</time></trkpt><trkpt lat="43.8091163" lon="12.6907072"><ele>219.8</ele><time>2026-04-26T08:22:39.405Z</time></trkpt><trkpt lat="43.8090197" lon="12.6907053"><ele>221.60000000000002</ele><time>2026-04-26T08:22:40.404Z</time></trkpt><trkpt lat="43.8089423" lon="12.6906984"><ele>223.39999999999998</ele><time>2026-04-26T08:22:41.404Z</time></trkpt><trkpt lat="43.8088752" lon="12.6906851"><ele>225.2</ele><time>2026-04-26T08:22:42.405Z</time></trkpt><trkpt lat="43.8087959" lon="12.6905168"><ele>227.0</ele><time>2026-04-26T08:22:44.408Z</time></trkpt><trkpt lat="43.8087335" lon="12.6901339"><ele>227.0</ele><time>2026-04-26T08:22:46.412Z</time></trkpt><trkpt lat="43.8086889" lon="12.6899015"><ele>227.0</ele><time>2026-04-26T08:22:47.405Z</time></trkpt><trkpt lat="43.8086349" lon="12.6896448"><ele>227.0</ele><time>2026-04-26T08:22:48.401Z</time></trkpt><trkpt lat="43.8085718" lon="12.6893801"><ele>228.33333333333334</ele><time>2026-04-26T08:22:49.403Z</time></trkpt><trkpt lat="43.8084976" lon="12.6891098"><ele>229.66666666666669</ele><time>2026-04-26T08:22:50.405Z</time></trkpt><trkpt lat="43.8084153" lon="12.688857"><ele>231.0</ele><time>2026-04-26T08:22:51.407Z</time></trkpt><trkpt lat="43.8083367" lon="12.6886146"><ele>231.0</ele><time>2026-04-26T08:22:52.404Z</time></trkpt><trkpt lat="43.8082584" lon="12.6883896"><ele>231.0</ele><time>2026-04-26T08:22:53.41Z</time></trkpt><trkpt lat="43.8081833" lon="12.688168"><ele>231.0</ele><time>2026-04-26T08:22:54.409Z</time></trkpt><trkpt lat="43.8081128" lon="12.6879503"><ele>230.0</ele><time>2026-04-26T08:22:55.406Z</time></trkpt><trkpt lat="43.8080485" lon="12.6877334"><ele>229.0</ele><time>2026-04-26T08:22:56.406Z</time></trkpt><trkpt lat="43.8079884" lon="12.6875113"><ele>228.0</ele><time>2026-04-26T08:22:57.407Z</time></trkpt><trkpt lat="43.8079352" lon="12.6872864"><ele>228.0</ele><time>2026-04-26T08:22:58.406Z</time></trkpt><trkpt lat="43.8078853" lon="12.6870617"><ele>228.0</ele><time>2026-04-26T08:22:59.409Z</time></trkpt><trkpt lat="43.8078363" lon="12.6868403"><ele>228.0</ele><time>2026-04-26T08:23:00.406Z</time></trkpt><trkpt lat="43.8077849" lon="12.686632"><ele>227.66666666666669</ele><time>2026-04-26T08:23:01.404Z</time></trkpt><trkpt lat="43.8077254" lon="12.6864296"><ele>227.33333333333334</ele><time>2026-04-26T08:23:02.404Z</time></trkpt><trkpt lat="43.807648" lon="12.6862455"><ele>227.0</ele><time>2026-04-26T08:23:03.409Z</time></trkpt><trkpt lat="43.8075436" lon="12.6860722"><ele>229.5</ele><time>2026-04-26T08:23:04.407Z</time></trkpt><trkpt lat="43.8074235" lon="12.6859035"><ele>232.0</ele><time>2026-04-26T08:23:05.407Z</time></trkpt><trkpt lat="43.8071635" lon="12.685603"><ele>232.0</ele><time>2026-04-26T08:23:07.413Z</time></trkpt><trkpt lat="43.80703" lon="12.6854542"><ele>232.0</ele><time>2026-04-26T08:23:08.417Z</time></trkpt><trkpt lat="43.8069047" lon="12.6852908"><ele>232.0</ele><time>2026-04-26T08:23:09.41Z</time></trkpt><trkpt lat="43.8067553" lon="12.6851258"><ele>228.0</ele><time>2026-04-26T08:23:10.409Z</time></trkpt><trkpt lat="43.8066107" lon="12.68496"><ele>224.0</ele><time>2026-04-26T08:23:11.41Z</time></trkpt><trkpt lat="43.8064587" lon="12.6848004"><ele>220.0</ele><time>2026-04-26T08:23:12.405Z</time></trkpt><trkpt lat="43.8063116" lon="12.6846414"><ele>220.0</ele><time>2026-04-26T08:23:13.41Z</time></trkpt><trkpt lat="43.8061657" lon="12.6844855"><ele>220.0</ele><time>2026-04-26T08:23:14.409Z</time></trkpt><trkpt lat="43.8060147" lon="12.6843284"><ele>220.0</ele><time>2026-04-26T08:23:15.409Z</time></trkpt><trkpt lat="43.8058719" lon="12.6841673"><ele>216.66666666666666</ele><time>2026-04-26T08:23:16.409Z</time></trkpt><trkpt lat="43.8057356" lon="12.6839907"><ele>213.33333333333331</ele><time>2026-04-26T08:23:17.406Z</time></trkpt><trkpt lat="43.8056093" lon="12.6838027"><ele>210.0</ele><time>2026-04-26T08:23:18.408Z</time></trkpt><trkpt lat="43.8054833" lon="12.6836168"><ele>210.0</ele><time>2026-04-26T08:23:19.407Z</time></trkpt><trkpt lat="43.8053514" lon="12.6834325"><ele>210.0</ele><time>2026-04-26T08:23:20.412Z</time></trkpt><trkpt lat="43.8052105" lon="12.6832488"><ele>210.0</ele><time>2026-04-26T08:23:21.405Z</time></trkpt><trkpt lat="43.8050615" lon="12.6830606"><ele>210.0</ele><time>2026-04-26T08:23:22.408Z</time></trkpt><trkpt lat="43.8049093" lon="12.6828777"><ele>210.0</ele><time>2026-04-26T08:23:23.41Z</time></trkpt><trkpt lat="43.8047492" lon="12.6826902"><ele>210.0</ele><time>2026-04-26T08:23:24.407Z</time></trkpt><trkpt lat="43.8045888" lon="12.6824999"><ele>210.0</ele><time>2026-04-26T08:23:25.408Z</time></trkpt><trkpt lat="43.8044225" lon="12.6823249"><ele>210.0</ele><time>2026-04-26T08:23:26.418Z</time></trkpt><trkpt lat="43.8040988" lon="12.6820079"><ele>211.66666666666669</ele><time>2026-04-26T08:23:28.406Z</time></trkpt><trkpt lat="43.8039431" lon="12.681863"><ele>213.33333333333334</ele><time>2026-04-26T08:23:29.407Z</time></trkpt><trkpt lat="43.8037923" lon="12.6817219"><ele>215.0</ele><time>2026-04-26T08:23:30.409Z</time></trkpt><trkpt lat="43.8036284" lon="12.6815924"><ele>214.66666666666669</ele><time>2026-04-26T08:23:31.41Z</time></trkpt><trkpt lat="43.8034462" lon="12.6814744"><ele>214.33333333333331</ele><time>2026-04-26T08:23:32.409Z</time></trkpt><trkpt lat="43.8032444" lon="12.6813714"><ele>214.0</ele><time>2026-04-26T08:23:33.407Z</time></trkpt><trkpt lat="43.803041" lon="12.6812824"><ele>214.0</ele><time>2026-04-26T08:23:34.409Z</time></trkpt><trkpt lat="43.8028496" lon="12.6811966"><ele>214.0</ele><time>2026-04-26T08:23:35.41Z</time></trkpt><trkpt lat="43.8026606" lon="12.6811183"><ele>214.0</ele><time>2026-04-26T08:23:36.414Z</time></trkpt><trkpt lat="43.8024729" lon="12.6810314"><ele>215.0</ele><time>2026-04-26T08:23:37.408Z</time></trkpt><trkpt lat="43.8022979" lon="12.6809361"><ele>216.0</ele><time>2026-04-26T08:23:38.407Z</time></trkpt><trkpt lat="43.8021386" lon="12.6808273"><ele>217.0</ele><time>2026-04-26T08:23:39.407Z</time></trkpt><trkpt lat="43.8019849" lon="12.6807195"><ele>217.0</ele><time>2026-04-26T08:23:40.407Z</time></trkpt><trkpt lat="43.8018365" lon="12.6806168"><ele>217.0</ele><time>2026-04-26T08:23:41.414Z</time></trkpt><trkpt lat="43.8016914" lon="12.6805238"><ele>217.0</ele><time>2026-04-26T08:23:42.409Z</time></trkpt><trkpt lat="43.8015516" lon="12.6804541"><ele>219.25</ele><time>2026-04-26T08:23:43.407Z</time></trkpt><trkpt lat="43.8014164" lon="12.6804062"><ele>221.5</ele><time>2026-04-26T08:23:44.404Z</time></trkpt><trkpt lat="43.801283" lon="12.6803766"><ele>223.75</ele><time>2026-04-26T08:23:45.406Z</time></trkpt><trkpt lat="43.8011571" lon="12.6803523"><ele>226.0</ele><time>2026-04-26T08:23:46.407Z</time></trkpt><trkpt lat="43.8010406" lon="12.6803345"><ele>228.33333333333331</ele><time>2026-04-26T08:23:47.402Z</time></trkpt><trkpt lat="43.8008052" lon="12.6803102"><ele>230.66666666666669</ele><time>2026-04-26T08:23:49.404Z</time></trkpt><trkpt lat="43.800687" lon="12.6802918"><ele>233.0</ele><time>2026-04-26T08:23:50.405Z</time></trkpt><trkpt lat="43.8005692" lon="12.6802821"><ele>233.0</ele><time>2026-04-26T08:23:51.406Z</time></trkpt><trkpt lat="43.8004479" lon="12.6802912"><ele>233.0</ele><time>2026-04-26T08:23:52.409Z</time></trkpt><trkpt lat="43.8003362" lon="12.6803264"><ele>233.0</ele><time>2026-04-26T08:23:53.405Z</time></trkpt><trkpt lat="43.8002311" lon="12.6803928"><ele>233.0</ele><time>2026-04-26T08:23:54.406Z</time></trkpt><trkpt lat="43.8001249" lon="12.6804672"><ele>236.25</ele><time>2026-04-26T08:23:55.405Z</time></trkpt><trkpt lat="43.8000189" lon="12.6805423"><ele>239.5</ele><time>2026-04-26T08:23:56.407Z</time></trkpt><trkpt lat="43.7999151" lon="12.6806175"><ele>242.75</ele><time>2026-04-26T08:23:57.406Z</time></trkpt><trkpt lat="43.7998148" lon="12.6806963"><ele>246.0</ele><time>2026-04-26T08:23:58.407Z</time></trkpt><trkpt lat="43.799712" lon="12.680766"><ele>246.0</ele><time>2026-04-26T08:23:59.411Z</time></trkpt><trkpt lat="43.7996092" lon="12.6808269"><ele>246.00000000000003</ele><time>2026-04-26T08:24:00.407Z</time></trkpt><trkpt lat="43.799506" lon="12.6808876"><ele>246.00000000000003</ele><time>2026-04-26T08:24:01.404Z</time></trkpt><trkpt lat="43.7994073" lon="12.6809468"><ele>246.0</ele><time>2026-04-26T08:24:02.42Z</time></trkpt><trkpt lat="43.799326" lon="12.6809937"><ele>246.0</ele><time>2026-04-26T08:24:03.404Z</time></trkpt><trkpt lat="43.7992498" lon="12.6810141"><ele>246.0</ele><time>2026-04-26T08:24:04.404Z</time></trkpt><trkpt lat="43.7991873" lon="12.6810292"><ele>246.0</ele><time>2026-04-26T08:24:05.403Z</time></trkpt><trkpt lat="43.7991132" lon="12.6811078"><ele>246.0</ele><time>2026-04-26T08:24:07.408Z</time></trkpt><trkpt lat="43.799181" lon="12.681066"><ele>246.0</ele><time>2026-04-26T08:24:18.403Z</time></trkpt><trkpt lat="43.799307" lon="12.6810028"><ele>246.0</ele><time>2026-04-26T08:24:20.404Z</time></trkpt><trkpt lat="43.7993675" lon="12.6809782"><ele>246.0</ele><time>2026-04-26T08:24:21.412Z</time></trkpt><trkpt lat="43.7994508" lon="12.6810111"><ele>246.20000000000002</ele><time>2026-04-26T08:24:23.405Z</time></trkpt><trkpt lat="43.7994772" lon="12.6811435"><ele>246.40000000000003</ele><time>2026-04-26T08:24:25.41Z</time></trkpt><trkpt lat="43.7994757" lon="12.6812787"><ele>246.6</ele><time>2026-04-26T08:24:26.409Z</time></trkpt><trkpt lat="43.7994765" lon="12.6814162"><ele>246.8</ele><time>2026-04-26T08:24:27.403Z</time></trkpt><trkpt lat="43.7994755" lon="12.6815666"><ele>247.0</ele><time>2026-04-26T08:24:28.405Z</time></trkpt><trkpt lat="43.7994748" lon="12.6817162"><ele>247.0</ele><time>2026-04-26T08:24:29.405Z</time></trkpt><trkpt lat="43.7994805" lon="12.681852"><ele>247.0</ele><time>2026-04-26T08:24:30.404Z</time></trkpt><trkpt lat="43.7994732" lon="12.6819828"><ele>247.0</ele><time>2026-04-26T08:24:31.405Z</time></trkpt><trkpt lat="43.7994881" lon="12.6821225"><ele>247.0</ele><time>2026-04-26T08:24:32.402Z</time></trkpt><trkpt lat="43.7994809" lon="12.6822493"><ele>247.0</ele><time>2026-04-26T08:24:33.406Z</time></trkpt><trkpt lat="43.7994888" lon="12.6823797"><ele>248.0</ele><time>2026-04-26T08:24:34.407Z</time></trkpt><trkpt lat="43.7995066" lon="12.6825124"><ele>249.0</ele><time>2026-04-26T08:24:35.41Z</time></trkpt><trkpt lat="43.7995123" lon="12.6826476"><ele>250.0</ele><time>2026-04-26T08:24:36.404Z</time></trkpt><trkpt lat="43.7995164" lon="12.6827738"><ele>251.0</ele><time>2026-04-26T08:24:37.405Z</time></trkpt><trkpt lat="43.7995049" lon="12.6829046"><ele>252.0</ele><time>2026-04-26T08:24:38.406Z</time></trkpt><trkpt lat="43.7994965" lon="12.6830763"><ele>253.66666666666669</ele><time>2026-04-26T08:24:39.407Z</time></trkpt><trkpt lat="43.7995235" lon="12.6834555"><ele>255.33333333333334</ele><time>2026-04-26T08:24:41.408Z</time></trkpt><trkpt lat="43.7995353" lon="12.6836183"><ele>257.0</ele><time>2026-04-26T08:24:42.404Z</time></trkpt><trkpt lat="43.799544" lon="12.6837911"><ele>257.0</ele><time>2026-04-26T08:24:43.405Z</time></trkpt><trkpt lat="43.7995551" lon="12.6839687"><ele>257.0</ele><time>2026-04-26T08:24:44.407Z</time></trkpt><trkpt lat="43.7995661" lon="12.6841545"><ele>257.0</ele><time>2026-04-26T08:24:45.409Z</time></trkpt><trkpt lat="43.7995766" lon="12.6843513"><ele>257.0</ele><time>2026-04-26T08:24:46.409Z</time></trkpt><trkpt lat="43.7995935" lon="12.6845613"><ele>257.5</ele><time>2026-04-26T08:24:47.409Z</time></trkpt><trkpt lat="43.7996147" lon="12.6847696"><ele>258.0</ele><time>2026-04-26T08:24:48.407Z</time></trkpt><trkpt lat="43.799636" lon="12.6849577"><ele>258.5</ele><time>2026-04-26T08:24:49.408Z</time></trkpt><trkpt lat="43.7996541" lon="12.6851448"><ele>259.0</ele><time>2026-04-26T08:24:50.41Z</time></trkpt><trkpt lat="43.7996768" lon="12.6853295"><ele>260.0</ele><time>2026-04-26T08:24:51.41Z</time></trkpt><trkpt lat="43.7996936" lon="12.6855137"><ele>261.0</ele><time>2026-04-26T08:24:52.407Z</time></trkpt><trkpt lat="43.7997177" lon="12.6857058"><ele>262.0</ele><time>2026-04-26T08:24:53.407Z</time></trkpt><trkpt lat="43.7997417" lon="12.6859043"><ele>263.0</ele><time>2026-04-26T08:24:54.405Z</time></trkpt><trkpt lat="43.7997635" lon="12.6860925"><ele>263.25</ele><time>2026-04-26T08:24:55.41Z</time></trkpt><trkpt lat="43.7997763" lon="12.6862655"><ele>263.5</ele><time>2026-04-26T08:24:56.408Z</time></trkpt><trkpt lat="43.7997833" lon="12.6864391"><ele>263.75</ele><time>2026-04-26T08:24:57.407Z</time></trkpt><trkpt lat="43.7998007" lon="12.6866112"><ele>264.0</ele><time>2026-04-26T08:24:58.405Z</time></trkpt><trkpt lat="43.7998142" lon="12.6867848"><ele>263.6666666666667</ele><time>2026-04-26T08:24:59.406Z</time></trkpt><trkpt lat="43.7998181" lon="12.6869577"><ele>263.33333333333337</ele><time>2026-04-26T08:25:00.407Z</time></trkpt><trkpt lat="43.7998604" lon="12.6873161"><ele>263.0</ele><time>2026-04-26T08:25:02.407Z</time></trkpt><trkpt lat="43.7998524" lon="12.6874909"><ele>263.0</ele><time>2026-04-26T08:25:03.404Z</time></trkpt><trkpt lat="43.7998452" lon="12.687662"><ele>263.0</ele><time>2026-04-26T08:25:04.409Z</time></trkpt><trkpt lat="43.79983" lon="12.6878257"><ele>263.0</ele><time>2026-04-26T08:25:05.405Z</time></trkpt><trkpt lat="43.7998228" lon="12.6879652"><ele>263.0</ele><time>2026-04-26T08:25:06.405Z</time></trkpt><trkpt lat="43.799806" lon="12.6880797"><ele>263.0</ele><time>2026-04-26T08:25:07.407Z</time></trkpt><trkpt lat="43.79981" lon="12.6881871"><ele>262.85714285714283</ele><time>2026-04-26T08:25:08.406Z</time></trkpt><trkpt lat="43.7998" lon="12.6882863"><ele>262.71428571428567</ele><time>2026-04-26T08:25:09.407Z</time></trkpt><trkpt lat="43.7997667" lon="12.6883816"><ele>262.57142857142856</ele><time>2026-04-26T08:25:10.407Z</time></trkpt><trkpt lat="43.7997029" lon="12.6884323"><ele>262.42857142857144</ele><time>2026-04-26T08:25:11.414Z</time></trkpt><trkpt lat="43.7996387" lon="12.6884431"><ele>262.28571428571433</ele><time>2026-04-26T08:25:12.406Z</time></trkpt><trkpt lat="43.7995774" lon="12.6884131"><ele>262.14285714285717</ele><time>2026-04-26T08:25:13.408Z</time></trkpt><trkpt lat="43.7995166" lon="12.6883615"><ele>262.0</ele><time>2026-04-26T08:25:14.408Z</time></trkpt><trkpt lat="43.7994559" lon="12.6883035"><ele>262.0</ele><time>2026-04-26T08:25:15.41Z</time></trkpt><trkpt lat="43.7993729" lon="12.68823"><ele>262.0</ele><time>2026-04-26T08:25:16.406Z</time></trkpt><trkpt lat="43.7992769" lon="12.6881516"><ele>262.0</ele><time>2026-04-26T08:25:17.407Z</time></trkpt><trkpt lat="43.7991469" lon="12.6880521"><ele>262.0</ele><time>2026-04-26T08:25:18.404Z</time></trkpt><trkpt lat="43.7990102" lon="12.6879412"><ele>262.3333333333333</ele><time>2026-04-26T08:25:19.409Z</time></trkpt><trkpt lat="43.7988707" lon="12.6878246"><ele>262.6666666666667</ele><time>2026-04-26T08:25:20.406Z</time></trkpt><trkpt lat="43.7987278" lon="12.6877048"><ele>263.0</ele><time>2026-04-26T08:25:21.407Z</time></trkpt><trkpt lat="43.7984425" lon="12.6874656"><ele>264.6666666666667</ele><time>2026-04-26T08:25:23.41Z</time></trkpt><trkpt lat="43.7983074" lon="12.6873524"><ele>266.3333333333333</ele><time>2026-04-26T08:25:24.409Z</time></trkpt><trkpt lat="43.7981721" lon="12.6872349"><ele>268.0</ele><time>2026-04-26T08:25:25.408Z</time></trkpt><trkpt lat="43.7980427" lon="12.6871153"><ele>268.0</ele><time>2026-04-26T08:25:26.408Z</time></trkpt><trkpt lat="43.7979217" lon="12.6870118"><ele>268.0</ele><time>2026-04-26T08:25:27.401Z</time></trkpt><trkpt lat="43.7978118" lon="12.6869156"><ele>268.0</ele><time>2026-04-26T08:25:28.402Z</time></trkpt><trkpt lat="43.7977042" lon="12.6868198"><ele>268.0</ele><time>2026-04-26T08:25:29.403Z</time></trkpt><trkpt lat="43.7975924" lon="12.686741"><ele>271.0</ele><time>2026-04-26T08:25:30.407Z</time></trkpt><trkpt lat="43.7974752" lon="12.6866761"><ele>274.0</ele><time>2026-04-26T08:25:31.406Z</time></trkpt><trkpt lat="43.7973428" lon="12.6866476"><ele>277.0</ele><time>2026-04-26T08:25:32.408Z</time></trkpt><trkpt lat="43.7971894" lon="12.6866402"><ele>280.0</ele><time>2026-04-26T08:25:33.408Z</time></trkpt><trkpt lat="43.7970198" lon="12.6866517"><ele>280.0</ele><time>2026-04-26T08:25:34.412Z</time></trkpt><trkpt lat="43.7968446" lon="12.686667"><ele>280.0</ele><time>2026-04-26T08:25:35.409Z</time></trkpt><trkpt lat="43.7966473" lon="12.6866894"><ele>280.0</ele><time>2026-04-26T08:25:36.412Z</time></trkpt><trkpt lat="43.796461" lon="12.6867132"><ele>280.66666666666663</ele><time>2026-04-26T08:25:37.409Z</time></trkpt><trkpt lat="43.7962726" lon="12.6867406"><ele>281.3333333333333</ele><time>2026-04-26T08:25:38.405Z</time></trkpt><trkpt lat="43.7960952" lon="12.686769"><ele>282.0</ele><time>2026-04-26T08:25:39.405Z</time></trkpt><trkpt lat="43.7959295" lon="12.6867944"><ele>283.0</ele><time>2026-04-26T08:25:40.406Z</time></trkpt><trkpt lat="43.7957667" lon="12.6868177"><ele>284.0</ele><time>2026-04-26T08:25:41.413Z</time></trkpt><trkpt lat="43.7956081" lon="12.686849"><ele>285.0</ele><time>2026-04-26T08:25:42.408Z</time></trkpt><trkpt lat="43.7953145" lon="12.6869026"><ele>283.25</ele><time>2026-04-26T08:25:44.412Z</time></trkpt><trkpt lat="43.7951817" lon="12.6869479"><ele>281.5</ele><time>2026-04-26T08:25:45.413Z</time></trkpt><trkpt lat="43.7950588" lon="12.6870207"><ele>279.75</ele><time>2026-04-26T08:25:46.413Z</time></trkpt><trkpt lat="43.7949329" lon="12.6871365"><ele>278.0</ele><time>2026-04-26T08:25:47.411Z</time></trkpt><trkpt lat="43.7948307" lon="12.6872649"><ele>278.0</ele><time>2026-04-26T08:25:48.406Z</time></trkpt><trkpt lat="43.7947536" lon="12.6874067"><ele>278.0</ele><time>2026-04-26T08:25:49.424Z</time></trkpt><trkpt lat="43.7946833" lon="12.6875837"><ele>278.0</ele><time>2026-04-26T08:25:50.408Z</time></trkpt><trkpt lat="43.7946249" lon="12.6877765"><ele>278.0</ele><time>2026-04-26T08:25:51.407Z</time></trkpt><trkpt lat="43.794573" lon="12.6879696"><ele>274.0</ele><time>2026-04-26T08:25:52.412Z</time></trkpt><trkpt lat="43.7945111" lon="12.6881591"><ele>270.0</ele><time>2026-04-26T08:25:53.412Z</time></trkpt><trkpt lat="43.7944416" lon="12.6883573"><ele>266.0</ele><time>2026-04-26T08:25:54.405Z</time></trkpt><trkpt lat="43.794366" lon="12.6885432"><ele>266.5</ele><time>2026-04-26T08:25:55.405Z</time></trkpt><trkpt lat="43.7942854" lon="12.6887175"><ele>267.0</ele><time>2026-04-26T08:25:56.408Z</time></trkpt><trkpt lat="43.7942069" lon="12.6888818"><ele>267.5</ele><time>2026-04-26T08:25:57.404Z</time></trkpt><trkpt lat="43.7941384" lon="12.6890506"><ele>268.0</ele><time>2026-04-26T08:25:58.404Z</time></trkpt><trkpt lat="43.794094" lon="12.6892362"><ele>264.3333333333333</ele><time>2026-04-26T08:25:59.406Z</time></trkpt><trkpt lat="43.7940672" lon="12.6894452"><ele>260.6666666666667</ele><time>2026-04-26T08:26:00.407Z</time></trkpt><trkpt lat="43.7940506" lon="12.6896729"><ele>257.0</ele><time>2026-04-26T08:26:01.408Z</time></trkpt><trkpt lat="43.7940391" lon="12.689899"><ele>257.0</ele><time>2026-04-26T08:26:02.406Z</time></trkpt><trkpt lat="43.7940282" lon="12.690124"><ele>257.0</ele><time>2026-04-26T08:26:03.411Z</time></trkpt><trkpt lat="43.7939928" lon="12.6905576"><ele>255.33333333333334</ele><time>2026-04-26T08:26:05.416Z</time></trkpt><trkpt lat="43.7939638" lon="12.6907599"><ele>253.66666666666669</ele><time>2026-04-26T08:26:06.412Z</time></trkpt><trkpt lat="43.7939247" lon="12.6909628"><ele>252.0</ele><time>2026-04-26T08:26:07.405Z</time></trkpt><trkpt lat="43.7938685" lon="12.6911613"><ele>251.25</ele><time>2026-04-26T08:26:08.414Z</time></trkpt><trkpt lat="43.7937979" lon="12.6913377"><ele>250.5</ele><time>2026-04-26T08:26:09.404Z</time></trkpt><trkpt lat="43.7937324" lon="12.6914966"><ele>249.75</ele><time>2026-04-26T08:26:10.406Z</time></trkpt><trkpt lat="43.7936826" lon="12.6916356"><ele>249.0</ele><time>2026-04-26T08:26:11.406Z</time></trkpt><trkpt lat="43.7936531" lon="12.6917724"><ele>247.5</ele><time>2026-04-26T08:26:12.407Z</time></trkpt><trkpt lat="43.7936478" lon="12.6919306"><ele>246.0</ele><time>2026-04-26T08:26:13.409Z</time></trkpt><trkpt lat="43.7936625" lon="12.6921301"><ele>244.5</ele><time>2026-04-26T08:26:14.408Z</time></trkpt><trkpt lat="43.7936892" lon="12.6923573"><ele>243.0</ele><time>2026-04-26T08:26:15.405Z</time></trkpt><trkpt lat="43.7937178" lon="12.6925868"><ele>241.0</ele><time>2026-04-26T08:26:16.416Z</time></trkpt><trkpt lat="43.7937432" lon="12.6928165"><ele>239.0</ele><time>2026-04-26T08:26:17.404Z</time></trkpt><trkpt lat="43.7937716" lon="12.693034"><ele>237.0</ele><time>2026-04-26T08:26:18.407Z</time></trkpt><trkpt lat="43.7937955" lon="12.6932556"><ele>237.0</ele><time>2026-04-26T08:26:19.409Z</time></trkpt><trkpt lat="43.793802" lon="12.693463"><ele>237.0</ele><time>2026-04-26T08:26:20.409Z</time></trkpt><trkpt lat="43.7937763" lon="12.6936917"><ele>237.0</ele><time>2026-04-26T08:26:21.408Z</time></trkpt><trkpt lat="43.7937291" lon="12.6939299"><ele>237.0</ele><time>2026-04-26T08:26:22.414Z</time></trkpt><trkpt lat="43.7936812" lon="12.6941536"><ele>237.0</ele><time>2026-04-26T08:26:23.408Z</time></trkpt><trkpt lat="43.7936384" lon="12.6943582"><ele>237.0</ele><time>2026-04-26T08:26:24.406Z</time></trkpt><trkpt lat="43.7935856" lon="12.6947431"><ele>237.25</ele><time>2026-04-26T08:26:26.406Z</time></trkpt><trkpt lat="43.7935801" lon="12.6949189"><ele>237.5</ele><time>2026-04-26T08:26:27.405Z</time></trkpt><trkpt lat="43.7936009" lon="12.6951075"><ele>237.75</ele><time>2026-04-26T08:26:28.408Z</time></trkpt><trkpt lat="43.7936345" lon="12.6953043"><ele>238.0</ele><time>2026-04-26T08:26:29.409Z</time></trkpt><trkpt lat="43.7936861" lon="12.6954945"><ele>238.5</ele><time>2026-04-26T08:26:30.41Z</time></trkpt><trkpt lat="43.79376" lon="12.695689"><ele>239.0</ele><time>2026-04-26T08:26:31.409Z</time></trkpt><trkpt lat="43.793834" lon="12.6958736"><ele>239.5</ele><time>2026-04-26T08:26:32.408Z</time></trkpt><trkpt lat="43.7939157" lon="12.6960284"><ele>240.0</ele><time>2026-04-26T08:26:33.407Z</time></trkpt><trkpt lat="43.7939751" lon="12.6961765"><ele>242.5</ele><time>2026-04-26T08:26:34.408Z</time></trkpt><trkpt lat="43.7940143" lon="12.6963344"><ele>245.0</ele><time>2026-04-26T08:26:35.407Z</time></trkpt><trkpt lat="43.7940215" lon="12.6965201"><ele>247.5</ele><time>2026-04-26T08:26:36.407Z</time></trkpt><trkpt lat="43.7939958" lon="12.6967103"><ele>250.0</ele><time>2026-04-26T08:26:37.407Z</time></trkpt><trkpt lat="43.7939469" lon="12.6969236"><ele>251.4</ele><time>2026-04-26T08:26:38.407Z</time></trkpt><trkpt lat="43.7938884" lon="12.6970992"><ele>252.8</ele><time>2026-04-26T08:26:39.409Z</time></trkpt><trkpt lat="43.7938321" lon="12.6972371"><ele>254.2</ele><time>2026-04-26T08:26:40.407Z</time></trkpt><trkpt lat="43.7937771" lon="12.6973605"><ele>255.6</ele><time>2026-04-26T08:26:41.41Z</time></trkpt><trkpt lat="43.7937335" lon="12.6974679"><ele>257.0</ele><time>2026-04-26T08:26:42.407Z</time></trkpt><trkpt lat="43.7937036" lon="12.6975705"><ele>257.0</ele><time>2026-04-26T08:26:43.409Z</time></trkpt><trkpt lat="43.79369" lon="12.6976746"><ele>257.0</ele><time>2026-04-26T08:26:44.405Z</time></trkpt><trkpt lat="43.7936986" lon="12.6977773"><ele>257.0</ele><time>2026-04-26T08:26:45.41Z</time></trkpt><trkpt lat="43.793715" lon="12.6979626"><ele>257.0</ele><time>2026-04-26T08:26:47.404Z</time></trkpt><trkpt lat="43.7936629" lon="12.6980227"><ele>257.0</ele><time>2026-04-26T08:26:49.409Z</time></trkpt><trkpt lat="43.7935868" lon="12.6979542"><ele>257.0</ele><time>2026-04-26T08:26:51.411Z</time></trkpt><trkpt lat="43.7935196" lon="12.6978612"><ele>256.5</ele><time>2026-04-26T08:26:52.412Z</time></trkpt><trkpt lat="43.7934324" lon="12.697756"><ele>256.0</ele><time>2026-04-26T08:26:53.409Z</time></trkpt><trkpt lat="43.7933151" lon="12.6976395"><ele>255.5</ele><time>2026-04-26T08:26:54.417Z</time></trkpt><trkpt lat="43.793179" lon="12.6975143"><ele>255.0</ele><time>2026-04-26T08:26:55.403Z</time></trkpt><trkpt lat="43.7930421" lon="12.6973795"><ele>255.0</ele><time>2026-04-26T08:26:56.408Z</time></trkpt><trkpt lat="43.7929153" lon="12.6972534"><ele>255.0</ele><time>2026-04-26T08:26:57.41Z</time></trkpt><trkpt lat="43.7927895" lon="12.697131"><ele>255.0</ele><time>2026-04-26T08:26:58.405Z</time></trkpt><trkpt lat="43.7926643" lon="12.6970156"><ele>253.75</ele><time>2026-04-26T08:26:59.408Z</time></trkpt><trkpt lat="43.7925428" lon="12.6969149"><ele>252.5</ele><time>2026-04-26T08:27:00.408Z</time></trkpt><trkpt lat="43.792417" lon="12.696825"><ele>251.25</ele><time>2026-04-26T08:27:01.41Z</time></trkpt><trkpt lat="43.7922943" lon="12.6967352"><ele>250.0</ele><time>2026-04-26T08:27:02.41Z</time></trkpt><trkpt lat="43.79218" lon="12.6966549"><ele>250.0</ele><time>2026-04-26T08:27:03.404Z</time></trkpt><trkpt lat="43.7920718" lon="12.6965872"><ele>250.0</ele><time>2026-04-26T08:27:04.405Z</time></trkpt><trkpt lat="43.7919517" lon="12.6965326"><ele>250.0</ele><time>2026-04-26T08:27:05.406Z</time></trkpt><trkpt lat="43.7918212" lon="12.696501"><ele>250.0</ele><time>2026-04-26T08:27:06.408Z</time></trkpt><trkpt lat="43.7915607" lon="12.6965269"><ele>247.75</ele><time>2026-04-26T08:27:08.405Z</time></trkpt><trkpt lat="43.7914411" lon="12.6965711"><ele>245.5</ele><time>2026-04-26T08:27:09.408Z</time></trkpt><trkpt lat="43.7913313" lon="12.6966111"><ele>243.25</ele><time>2026-04-26T08:27:10.409Z</time></trkpt><trkpt lat="43.7912191" lon="12.6966492"><ele>241.0</ele><time>2026-04-26T08:27:11.407Z</time></trkpt><trkpt lat="43.7911103" lon="12.6967008"><ele>239.25</ele><time>2026-04-26T08:27:12.403Z</time></trkpt><trkpt lat="43.7909985" lon="12.6967772"><ele>237.5</ele><time>2026-04-26T08:27:13.41Z</time></trkpt><trkpt lat="43.7908884" lon="12.696875"><ele>235.75</ele><time>2026-04-26T08:27:14.405Z</time></trkpt><trkpt lat="43.7907842" lon="12.6969674"><ele>234.0</ele><time>2026-04-26T08:27:15.404Z</time></trkpt><trkpt lat="43.7906747" lon="12.6970657"><ele>232.0</ele><time>2026-04-26T08:27:16.404Z</time></trkpt><trkpt lat="43.7905494" lon="12.6971828"><ele>230.0</ele><time>2026-04-26T08:27:17.408Z</time></trkpt><trkpt lat="43.7904181" lon="12.6973114"><ele>228.0</ele><time>2026-04-26T08:27:18.407Z</time></trkpt><trkpt lat="43.7902868" lon="12.6974498"><ele>229.66666666666669</ele><time>2026-04-26T08:27:19.409Z</time></trkpt><trkpt lat="43.7901513" lon="12.6975901"><ele>231.33333333333334</ele><time>2026-04-26T08:27:20.41Z</time></trkpt><trkpt lat="43.7900249" lon="12.6977435"><ele>233.0</ele><time>2026-04-26T08:27:21.406Z</time></trkpt><trkpt lat="43.7898966" lon="12.6978947"><ele>229.0</ele><time>2026-04-26T08:27:22.414Z</time></trkpt><trkpt lat="43.7897688" lon="12.6980401"><ele>225.0</ele><time>2026-04-26T08:27:23.407Z</time></trkpt><trkpt lat="43.7896419" lon="12.6981822"><ele>221.0</ele><time>2026-04-26T08:27:24.404Z</time></trkpt><trkpt lat="43.7895207" lon="12.6983129"><ele>221.0</ele><time>2026-04-26T08:27:25.411Z</time></trkpt><trkpt lat="43.789394" lon="12.6984387"><ele>221.0</ele><time>2026-04-26T08:27:26.415Z</time></trkpt><trkpt lat="43.7892649" lon="12.6985608"><ele>221.0</ele><time>2026-04-26T08:27:27.406Z</time></trkpt><trkpt lat="43.7890191" lon="12.6987951"><ele>220.0</ele><time>2026-04-26T08:27:29.408Z</time></trkpt><trkpt lat="43.7888977" lon="12.698902"><ele>219.0</ele><time>2026-04-26T08:27:30.406Z</time></trkpt><trkpt lat="43.7887758" lon="12.6990097"><ele>218.0</ele><time>2026-04-26T08:27:31.411Z</time></trkpt><trkpt lat="43.7886522" lon="12.6991113"><ele>217.0</ele><time>2026-04-26T08:27:32.408Z</time></trkpt><trkpt lat="43.7885284" lon="12.6992135"><ele>216.0</ele><time>2026-04-26T08:27:33.406Z</time></trkpt><trkpt lat="43.7884091" lon="12.6993187"><ele>215.0</ele><time>2026-04-26T08:27:34.407Z</time></trkpt><trkpt lat="43.7882903" lon="12.6994229"><ele>214.0</ele><time>2026-04-26T08:27:35.406Z</time></trkpt><trkpt lat="43.7881698" lon="12.6995268"><ele>213.0</ele><time>2026-04-26T08:27:36.404Z</time></trkpt><trkpt lat="43.7880475" lon="12.6996362"><ele>212.75</ele><time>2026-04-26T08:27:37.406Z</time></trkpt><trkpt lat="43.7879245" lon="12.6997403"><ele>212.5</ele><time>2026-04-26T08:27:38.407Z</time></trkpt><trkpt lat="43.7877956" lon="12.6998393"><ele>212.25</ele><time>2026-04-26T08:27:39.405Z</time></trkpt><trkpt lat="43.7876574" lon="12.6999424"><ele>212.0</ele><time>2026-04-26T08:27:40.409Z</time></trkpt><trkpt lat="43.7875294" lon="12.7000378"><ele>210.25</ele><time>2026-04-26T08:27:41.406Z</time></trkpt><trkpt lat="43.7874016" lon="12.7001215"><ele>208.5</ele><time>2026-04-26T08:27:42.412Z</time></trkpt><trkpt lat="43.78727" lon="12.7001965"><ele>206.75</ele><time>2026-04-26T08:27:43.409Z</time></trkpt><trkpt lat="43.7871319" lon="12.7002566"><ele>205.0</ele><time>2026-04-26T08:27:44.406Z</time></trkpt><trkpt lat="43.7869881" lon="12.7002947"><ele>204.5</ele><time>2026-04-26T08:27:45.406Z</time></trkpt><trkpt lat="43.7868488" lon="12.7003179"><ele>204.0</ele><time>2026-04-26T08:27:46.409Z</time></trkpt><trkpt lat="43.7867194" lon="12.7003309"><ele>203.5</ele><time>2026-04-26T08:27:47.408Z</time></trkpt><trkpt lat="43.7865964" lon="12.7003459"><ele>203.0</ele><time>2026-04-26T08:27:48.407Z</time></trkpt><trkpt lat="43.7863559" lon="12.7004024"><ele>203.0</ele><time>2026-04-26T08:27:50.412Z</time></trkpt><trkpt lat="43.7862422" lon="12.7004464"><ele>203.0</ele><time>2026-04-26T08:27:51.407Z</time></trkpt><trkpt lat="43.7861281" lon="12.700509"><ele>203.0</ele><time>2026-04-26T08:27:52.406Z</time></trkpt><trkpt lat="43.7860176" lon="12.7005883"><ele>203.0</ele><time>2026-04-26T08:27:53.406Z</time></trkpt><trkpt lat="43.7859135" lon="12.7006869"><ele>202.2</ele><time>2026-04-26T08:27:54.406Z</time></trkpt><trkpt lat="43.7858201" lon="12.7007888"><ele>201.4</ele><time>2026-04-26T08:27:55.406Z</time></trkpt><trkpt lat="43.7857355" lon="12.7008834"><ele>200.6</ele><time>2026-04-26T08:27:56.405Z</time></trkpt><trkpt lat="43.7856488" lon="12.700968"><ele>199.79999999999998</ele><time>2026-04-26T08:27:57.408Z</time></trkpt><trkpt lat="43.7855564" lon="12.701037"><ele>199.0</ele><time>2026-04-26T08:27:58.403Z</time></trkpt><trkpt lat="43.785457" lon="12.7010911"><ele>196.5</ele><time>2026-04-26T08:27:59.403Z</time></trkpt><trkpt lat="43.78536" lon="12.7011565"><ele>194.0</ele><time>2026-04-26T08:28:00.401Z</time></trkpt><trkpt lat="43.7852734" lon="12.7012444"><ele>191.5</ele><time>2026-04-26T08:28:01.404Z</time></trkpt><trkpt lat="43.7851974" lon="12.701363"><ele>189.0</ele><time>2026-04-26T08:28:02.403Z</time></trkpt><trkpt lat="43.7851322" lon="12.7015065"><ele>189.0</ele><time>2026-04-26T08:28:03.408Z</time></trkpt><trkpt lat="43.7850845" lon="12.7016827"><ele>189.0</ele><time>2026-04-26T08:28:04.403Z</time></trkpt><trkpt lat="43.7850466" lon="12.7019005"><ele>189.0</ele><time>2026-04-26T08:28:05.406Z</time></trkpt><trkpt lat="43.7850067" lon="12.7021093"><ele>187.5</ele><time>2026-04-26T08:28:06.407Z</time></trkpt><trkpt lat="43.7849652" lon="12.7022936"><ele>186.0</ele><time>2026-04-26T08:28:07.409Z</time></trkpt><trkpt lat="43.78493" lon="12.7024698"><ele>184.5</ele><time>2026-04-26T08:28:08.407Z</time></trkpt><trkpt lat="43.7848884" lon="12.7026486"><ele>183.0</ele><time>2026-04-26T08:28:09.405Z</time></trkpt><trkpt lat="43.7847881" lon="12.7030083"><ele>181.5</ele><time>2026-04-26T08:28:11.407Z</time></trkpt><trkpt lat="43.78473" lon="12.7031879"><ele>180.0</ele><time>2026-04-26T08:28:12.404Z</time></trkpt><trkpt lat="43.7846625" lon="12.7033765"><ele>178.5</ele><time>2026-04-26T08:28:13.405Z</time></trkpt><trkpt lat="43.7845936" lon="12.703563"><ele>177.0</ele><time>2026-04-26T08:28:14.406Z</time></trkpt><trkpt lat="43.7845229" lon="12.7037316"><ele>175.0</ele><time>2026-04-26T08:28:15.408Z</time></trkpt><trkpt lat="43.78445" lon="12.7038901"><ele>173.0</ele><time>2026-04-26T08:28:16.406Z</time></trkpt><trkpt lat="43.784388" lon="12.704036"><ele>171.0</ele><time>2026-04-26T08:28:17.408Z</time></trkpt><trkpt lat="43.784335" lon="12.7041742"><ele>169.0</ele><time>2026-04-26T08:28:18.407Z</time></trkpt><trkpt lat="43.7842906" lon="12.7043145"><ele>168.0</ele><time>2026-04-26T08:28:19.408Z</time></trkpt><trkpt lat="43.7842575" lon="12.7044715"><ele>167.0</ele><time>2026-04-26T08:28:20.417Z</time></trkpt><trkpt lat="43.7842349" lon="12.7046277"><ele>166.0</ele><time>2026-04-26T08:28:21.405Z</time></trkpt><trkpt lat="43.7842138" lon="12.7047919"><ele>165.0</ele><time>2026-04-26T08:28:22.409Z</time></trkpt><trkpt lat="43.7841955" lon="12.7049537"><ele>165.0</ele><time>2026-04-26T08:28:23.408Z</time></trkpt><trkpt lat="43.7841764" lon="12.7051094"><ele>165.0</ele><time>2026-04-26T08:28:24.408Z</time></trkpt><trkpt lat="43.7841666" lon="12.7052618"><ele>165.0</ele><time>2026-04-26T08:28:25.409Z</time></trkpt><trkpt lat="43.7841636" lon="12.7054051"><ele>165.0</ele><time>2026-04-26T08:28:26.41Z</time></trkpt><trkpt lat="43.7841627" lon="12.705552"><ele>165.0</ele><time>2026-04-26T08:28:27.409Z</time></trkpt><trkpt lat="43.7841614" lon="12.7056991"><ele>162.75</ele><time>2026-04-26T08:28:28.403Z</time></trkpt><trkpt lat="43.7841716" lon="12.7058443"><ele>160.5</ele><time>2026-04-26T08:28:29.402Z</time></trkpt><trkpt lat="43.7841794" lon="12.7059894"><ele>158.25</ele><time>2026-04-26T08:28:30.404Z</time></trkpt><trkpt lat="43.7842011" lon="12.706272"><ele>156.0</ele><time>2026-04-26T08:28:32.407Z</time></trkpt><trkpt lat="43.7842274" lon="12.7063964"><ele>154.0</ele><time>2026-04-26T08:28:33.409Z</time></trkpt><trkpt lat="43.7842714" lon="12.706498"><ele>152.0</ele><time>2026-04-26T08:28:34.406Z</time></trkpt><trkpt lat="43.7843124" lon="12.7065856"><ele>150.0</ele><time>2026-04-26T08:28:35.408Z</time></trkpt><trkpt lat="43.7843296" lon="12.7066823"><ele>148.0</ele><time>2026-04-26T08:28:36.41Z</time></trkpt><trkpt lat="43.7843143" lon="12.7067841"><ele>146.0</ele><time>2026-04-26T08:28:37.405Z</time></trkpt><trkpt lat="43.7842594" lon="12.7068643"><ele>144.0</ele><time>2026-04-26T08:28:38.406Z</time></trkpt><trkpt lat="43.7841879" lon="12.7069171"><ele>144.0</ele><time>2026-04-26T08:28:39.408Z</time></trkpt><trkpt lat="43.7840981" lon="12.7069279"><ele>144.0</ele><time>2026-04-26T08:28:40.407Z</time></trkpt><trkpt lat="43.7840079" lon="12.7069097"><ele>144.0</ele><time>2026-04-26T08:28:41.404Z</time></trkpt><trkpt lat="43.7839281" lon="12.7068864"><ele>144.0</ele><time>2026-04-26T08:28:42.404Z</time></trkpt><trkpt lat="43.7838519" lon="12.7068744"><ele>144.0</ele><time>2026-04-26T08:28:43.405Z</time></trkpt><trkpt lat="43.7837862" lon="12.7068965"><ele>144.0</ele><time>2026-04-26T08:28:44.406Z</time></trkpt><trkpt lat="43.7837414" lon="12.7069601"><ele>140.66666666666666</ele><time>2026-04-26T08:28:45.405Z</time></trkpt><trkpt lat="43.7837264" lon="12.7070505"><ele>137.33333333333334</ele><time>2026-04-26T08:28:46.407Z</time></trkpt><trkpt lat="43.7837527" lon="12.7071617"><ele>134.0</ele><time>2026-04-26T08:28:47.406Z</time></trkpt><trkpt lat="43.7837801" lon="12.7072817"><ele>130.66666666666669</ele><time>2026-04-26T08:28:48.407Z</time></trkpt><trkpt lat="43.7837946" lon="12.7074075"><ele>127.33333333333334</ele><time>2026-04-26T08:28:49.409Z</time></trkpt><trkpt lat="43.7837911" lon="12.7075465"><ele>124.0</ele><time>2026-04-26T08:28:50.406Z</time></trkpt><trkpt lat="43.7837818" lon="12.7076988"><ele>121.0</ele><time>2026-04-26T08:28:51.406Z</time></trkpt><trkpt lat="43.7837765" lon="12.7080235"><ele>118.0</ele><time>2026-04-26T08:28:53.405Z</time></trkpt><trkpt lat="43.7837718" lon="12.708183"><ele>115.0</ele><time>2026-04-26T08:28:54.407Z</time></trkpt><trkpt lat="43.783764" lon="12.7083323"><ele>115.00000000000001</ele><time>2026-04-26T08:28:55.406Z</time></trkpt><trkpt lat="43.7837515" lon="12.708475"><ele>115.0</ele><time>2026-04-26T08:28:56.409Z</time></trkpt><trkpt lat="43.7837422" lon="12.7086099"><ele>115.0</ele><time>2026-04-26T08:28:57.405Z</time></trkpt><trkpt lat="43.7837426" lon="12.7087157"><ele>115.0</ele><time>2026-04-26T08:28:58.404Z</time></trkpt><trkpt lat="43.7837589" lon="12.7088007"><ele>115.00000000000001</ele><time>2026-04-26T08:28:59.406Z</time></trkpt><trkpt lat="43.7837503" lon="12.708904"><ele>115.0</ele><time>2026-04-26T08:29:01.406Z</time></trkpt><trkpt lat="43.7836866" lon="12.7088855"><ele>115.25</ele><time>2026-04-26T08:29:03.407Z</time></trkpt><trkpt lat="43.7836335" lon="12.7088118"><ele>115.5</ele><time>2026-04-26T08:29:04.414Z</time></trkpt><trkpt lat="43.783563" lon="12.7087114"><ele>115.75</ele><time>2026-04-26T08:29:05.409Z</time></trkpt><trkpt lat="43.7834682" lon="12.7085795"><ele>116.0</ele><time>2026-04-26T08:29:06.406Z</time></trkpt><trkpt lat="43.7833491" lon="12.7084211"><ele>115.0</ele><time>2026-04-26T08:29:07.406Z</time></trkpt><trkpt lat="43.7832248" lon="12.7082577"><ele>114.0</ele><time>2026-04-26T08:29:08.405Z</time></trkpt><trkpt lat="43.783105" lon="12.7080868"><ele>113.0</ele><time>2026-04-26T08:29:09.405Z</time></trkpt><trkpt lat="43.7829885" lon="12.7079149"><ele>112.66666666666666</ele><time>2026-04-26T08:29:10.407Z</time></trkpt><trkpt lat="43.7828788" lon="12.70774"><ele>112.33333333333334</ele><time>2026-04-26T08:29:11.408Z</time></trkpt><trkpt lat="43.782771" lon="12.7075629"><ele>112.0</ele><time>2026-04-26T08:29:12.405Z</time></trkpt><trkpt lat="43.7825581" lon="12.7071997"><ele>112.0</ele><time>2026-04-26T08:29:14.408Z</time></trkpt><trkpt lat="43.7824502" lon="12.7070206"><ele>112.0</ele><time>2026-04-26T08:29:15.404Z</time></trkpt><trkpt lat="43.7823438" lon="12.7068388"><ele>112.0</ele><time>2026-04-26T08:29:16.405Z</time></trkpt><trkpt lat="43.7822363" lon="12.7066573"><ele>112.66666666666667</ele><time>2026-04-26T08:29:17.409Z</time></trkpt><trkpt lat="43.7821334" lon="12.70649"><ele>113.33333333333334</ele><time>2026-04-26T08:29:18.402Z</time></trkpt><trkpt lat="43.7820337" lon="12.7063226"><ele>114.0</ele><time>2026-04-26T08:29:19.404Z</time></trkpt><trkpt lat="43.7819491" lon="12.7061621"><ele>114.0</ele><time>2026-04-26T08:29:20.404Z</time></trkpt><trkpt lat="43.7818727" lon="12.7060048"><ele>114.0</ele><time>2026-04-26T08:29:21.408Z</time></trkpt><trkpt lat="43.7817972" lon="12.7058652"><ele>114.0</ele><time>2026-04-26T08:29:22.409Z</time></trkpt><trkpt lat="43.7817081" lon="12.7057158"><ele>114.0</ele><time>2026-04-26T08:29:23.411Z</time></trkpt><trkpt lat="43.7816311" lon="12.7055699"><ele>114.0</ele><time>2026-04-26T08:29:24.409Z</time></trkpt><trkpt lat="43.7815738" lon="12.7054394"><ele>114.0</ele><time>2026-04-26T08:29:25.407Z</time></trkpt><trkpt lat="43.7815367" lon="12.7053423"><ele>114.0</ele><time>2026-04-26T08:29:26.405Z</time></trkpt><trkpt lat="43.781494" lon="12.7052449"><ele>114.0</ele><time>2026-04-26T08:29:28.404Z</time></trkpt><trkpt lat="43.7814526" lon="12.7051595"><ele>114.0</ele><time>2026-04-26T08:31:13.403Z</time></trkpt><trkpt lat="43.7813645" lon="12.704988"><ele>115.75</ele><time>2026-04-26T08:31:18.414Z</time></trkpt><trkpt lat="43.7813165" lon="12.7048865"><ele>117.5</ele><time>2026-04-26T08:31:19.404Z</time></trkpt><trkpt lat="43.7812467" lon="12.7047383"><ele>119.25</ele><time>2026-04-26T08:31:20.402Z</time></trkpt><trkpt lat="43.7811668" lon="12.7045639"><ele>121.0</ele><time>2026-04-26T08:31:21.412Z</time></trkpt><trkpt lat="43.7810938" lon="12.7043875"><ele>120.0</ele><time>2026-04-26T08:31:22.406Z</time></trkpt><trkpt lat="43.7810338" lon="12.7042176"><ele>119.0</ele><time>2026-04-26T08:31:23.404Z</time></trkpt><trkpt lat="43.7809835" lon="12.7040605"><ele>118.0</ele><time>2026-04-26T08:31:24.403Z</time></trkpt><trkpt lat="43.7809383" lon="12.7039084"><ele>117.0</ele><time>2026-04-26T08:31:25.406Z</time></trkpt><trkpt lat="43.7808934" lon="12.7037475"><ele>117.75</ele><time>2026-04-26T08:31:26.408Z</time></trkpt><trkpt lat="43.7808456" lon="12.7035659"><ele>118.5</ele><time>2026-04-26T08:31:27.407Z</time></trkpt><trkpt lat="43.7807921" lon="12.7033711"><ele>119.25</ele><time>2026-04-26T08:31:28.408Z</time></trkpt><trkpt lat="43.78074" lon="12.7031657"><ele>120.0</ele><time>2026-04-26T08:31:29.406Z</time></trkpt><trkpt lat="43.7806924" lon="12.7029556"><ele>120.33333333333334</ele><time>2026-04-26T08:31:30.409Z</time></trkpt><trkpt lat="43.7806467" lon="12.7027414"><ele>120.66666666666667</ele><time>2026-04-26T08:31:31.404Z</time></trkpt><trkpt lat="43.7806105" lon="12.7025178"><ele>121.0</ele><time>2026-04-26T08:31:32.406Z</time></trkpt><trkpt lat="43.780583" lon="12.7022813"><ele>121.0</ele><time>2026-04-26T08:31:33.405Z</time></trkpt><trkpt lat="43.7805635" lon="12.7020517"><ele>121.0</ele><time>2026-04-26T08:31:34.408Z</time></trkpt><trkpt lat="43.7805423" lon="12.7015913"><ele>121.0</ele><time>2026-04-26T08:31:36.404Z</time></trkpt><trkpt lat="43.7805377" lon="12.7013733"><ele>121.0</ele><time>2026-04-26T08:31:37.406Z</time></trkpt><trkpt lat="43.7805407" lon="12.7011665"><ele>121.0</ele><time>2026-04-26T08:31:38.411Z</time></trkpt><trkpt lat="43.78055" lon="12.7009698"><ele>121.0</ele><time>2026-04-26T08:31:39.407Z</time></trkpt><trkpt lat="43.7805687" lon="12.7007768"><ele>121.33333333333334</ele><time>2026-04-26T08:31:40.405Z</time></trkpt><trkpt lat="43.7805902" lon="12.7005757"><ele>121.66666666666666</ele><time>2026-04-26T08:31:41.409Z</time></trkpt><trkpt lat="43.7806182" lon="12.7003643"><ele>122.0</ele><time>2026-04-26T08:31:42.408Z</time></trkpt><trkpt lat="43.7806522" lon="12.7001444"><ele>122.0</ele><time>2026-04-26T08:31:43.405Z</time></trkpt><trkpt lat="43.7806914" lon="12.6999103"><ele>122.0</ele><time>2026-04-26T08:31:44.409Z</time></trkpt><trkpt lat="43.7807315" lon="12.6996697"><ele>122.0</ele><time>2026-04-26T08:31:45.408Z</time></trkpt><trkpt lat="43.7807765" lon="12.699426"><ele>122.33333333333333</ele><time>2026-04-26T08:31:46.407Z</time></trkpt><trkpt lat="43.7808234" lon="12.6991809"><ele>122.66666666666666</ele><time>2026-04-26T08:31:47.407Z</time></trkpt><trkpt lat="43.7808693" lon="12.6989339"><ele>123.0</ele><time>2026-04-26T08:31:48.407Z</time></trkpt><trkpt lat="43.7809163" lon="12.6986923"><ele>122.66666666666666</ele><time>2026-04-26T08:31:49.408Z</time></trkpt><trkpt lat="43.7809622" lon="12.6984551"><ele>122.33333333333333</ele><time>2026-04-26T08:31:50.403Z</time></trkpt><trkpt lat="43.7810093" lon="12.6982231"><ele>122.0</ele><time>2026-04-26T08:31:51.409Z</time></trkpt><trkpt lat="43.7810562" lon="12.697993"><ele>122.66666666666666</ele><time>2026-04-26T08:31:52.41Z</time></trkpt><trkpt lat="43.7810979" lon="12.697759"><ele>123.33333333333334</ele><time>2026-04-26T08:31:53.409Z</time></trkpt><trkpt lat="43.781143" lon="12.6975208"><ele>124.0</ele><time>2026-04-26T08:31:54.404Z</time></trkpt><trkpt lat="43.781192" lon="12.6972778"><ele>123.0</ele><time>2026-04-26T08:31:55.407Z</time></trkpt><trkpt lat="43.7812912" lon="12.6967759"><ele>122.0</ele><time>2026-04-26T08:31:57.407Z</time></trkpt><trkpt lat="43.7813392" lon="12.6965093"><ele>122.0</ele><time>2026-04-26T08:31:58.408Z</time></trkpt><trkpt lat="43.7813956" lon="12.6962256"><ele>122.0</ele><time>2026-04-26T08:31:59.411Z</time></trkpt><trkpt lat="43.7814529" lon="12.6959407"><ele>122.0</ele><time>2026-04-26T08:32:00.405Z</time></trkpt><trkpt lat="43.7815075" lon="12.6956735"><ele>122.66666666666666</ele><time>2026-04-26T08:32:01.408Z</time></trkpt><trkpt lat="43.7815592" lon="12.6954113"><ele>123.33333333333334</ele><time>2026-04-26T08:32:02.409Z</time></trkpt><trkpt lat="43.7816124" lon="12.6951539"><ele>124.0</ele><time>2026-04-26T08:32:03.408Z</time></trkpt><trkpt lat="43.7816602" lon="12.6949025"><ele>124.0</ele><time>2026-04-26T08:32:04.407Z</time></trkpt><trkpt lat="43.7817095" lon="12.6946512"><ele>124.0</ele><time>2026-04-26T08:32:05.412Z</time></trkpt><trkpt lat="43.7817586" lon="12.6944047"><ele>124.0</ele><time>2026-04-26T08:32:06.411Z</time></trkpt><trkpt lat="43.7818063" lon="12.6941569"><ele>126.66666666666667</ele><time>2026-04-26T08:32:07.408Z</time></trkpt><trkpt lat="43.7818548" lon="12.6939034"><ele>129.33333333333334</ele><time>2026-04-26T08:32:08.408Z</time></trkpt><trkpt lat="43.7819024" lon="12.6936484"><ele>132.0</ele><time>2026-04-26T08:32:09.405Z</time></trkpt><trkpt lat="43.7819509" lon="12.6933874"><ele>132.0</ele><time>2026-04-26T08:32:10.407Z</time></trkpt><trkpt lat="43.7820005" lon="12.6931293"><ele>132.0</ele><time>2026-04-26T08:32:11.407Z</time></trkpt><trkpt lat="43.78204" lon="12.6928705"><ele>132.0</ele><time>2026-04-26T08:32:12.407Z</time></trkpt><trkpt lat="43.7820727" lon="12.6926138"><ele>132.0</ele><time>2026-04-26T08:32:13.409Z</time></trkpt><trkpt lat="43.782089" lon="12.6923585"><ele>132.0</ele><time>2026-04-26T08:32:14.408Z</time></trkpt><trkpt lat="43.7820893" lon="12.6921017"><ele>132.0</ele><time>2026-04-26T08:32:15.409Z</time></trkpt><trkpt lat="43.7820778" lon="12.6918467"><ele>134.5</ele><time>2026-04-26T08:32:16.405Z</time></trkpt><trkpt lat="43.7820255" lon="12.6913526"><ele>137.0</ele><time>2026-04-26T08:32:18.407Z</time></trkpt><trkpt lat="43.7819832" lon="12.6911147"><ele>137.0</ele><time>2026-04-26T08:32:19.405Z</time></trkpt><trkpt lat="43.7819347" lon="12.6908885"><ele>137.0</ele><time>2026-04-26T08:32:20.411Z</time></trkpt><trkpt lat="43.7818785" lon="12.6906613"><ele>137.0</ele><time>2026-04-26T08:32:21.407Z</time></trkpt><trkpt lat="43.7818245" lon="12.6904404"><ele>133.33333333333331</ele><time>2026-04-26T08:32:22.406Z</time></trkpt><trkpt lat="43.7817738" lon="12.6902274"><ele>129.66666666666666</ele><time>2026-04-26T08:32:23.412Z</time></trkpt><trkpt lat="43.7817249" lon="12.6900214"><ele>126.0</ele><time>2026-04-26T08:32:24.404Z</time></trkpt><trkpt lat="43.7816695" lon="12.6898076"><ele>126.0</ele><time>2026-04-26T08:32:25.405Z</time></trkpt><trkpt lat="43.7816098" lon="12.6895825"><ele>126.0</ele><time>2026-04-26T08:32:26.405Z</time></trkpt><trkpt lat="43.7815458" lon="12.6893635"><ele>126.0</ele><time>2026-04-26T08:32:27.409Z</time></trkpt><trkpt lat="43.7814645" lon="12.6891407"><ele>127.33333333333334</ele><time>2026-04-26T08:32:28.408Z</time></trkpt><trkpt lat="43.7813701" lon="12.6889284"><ele>128.66666666666669</ele><time>2026-04-26T08:32:29.407Z</time></trkpt><trkpt lat="43.7812709" lon="12.6887328"><ele>130.0</ele><time>2026-04-26T08:32:30.407Z</time></trkpt><trkpt lat="43.7811623" lon="12.6885497"><ele>129.33333333333334</ele><time>2026-04-26T08:32:31.411Z</time></trkpt><trkpt lat="43.7810579" lon="12.6883794"><ele>128.66666666666666</ele><time>2026-04-26T08:32:32.405Z</time></trkpt><trkpt lat="43.7809562" lon="12.6882005"><ele>128.0</ele><time>2026-04-26T08:32:33.407Z</time></trkpt><trkpt lat="43.7808533" lon="12.6880294"><ele>128.0</ele><time>2026-04-26T08:32:34.404Z</time></trkpt><trkpt lat="43.7807405" lon="12.6878708"><ele>128.0</ele><time>2026-04-26T08:32:35.406Z</time></trkpt><trkpt lat="43.780623" lon="12.6877293"><ele>128.0</ele><time>2026-04-26T08:32:36.405Z</time></trkpt><trkpt lat="43.7805031" lon="12.6875992"><ele>128.33333333333331</ele><time>2026-04-26T08:32:37.408Z</time></trkpt><trkpt lat="43.7802534" lon="12.6873892"><ele>128.66666666666666</ele><time>2026-04-26T08:32:39.412Z</time></trkpt><trkpt lat="43.7801295" lon="12.6873137"><ele>129.0</ele><time>2026-04-26T08:32:40.409Z</time></trkpt><trkpt lat="43.7800207" lon="12.6872416"><ele>129.0</ele><time>2026-04-26T08:32:41.41Z</time></trkpt><trkpt lat="43.7799276" lon="12.6871902"><ele>129.0</ele><time>2026-04-26T08:32:42.409Z</time></trkpt><trkpt lat="43.7798477" lon="12.6871685"><ele>129.0</ele><time>2026-04-26T08:32:43.406Z</time></trkpt><trkpt lat="43.7797755" lon="12.687199"><ele>129.0</ele><time>2026-04-26T08:32:44.419Z</time></trkpt><trkpt lat="43.7797198" lon="12.6872633"><ele>129.0</ele><time>2026-04-26T08:32:45.408Z</time></trkpt><trkpt lat="43.7796854" lon="12.6873484"><ele>129.0</ele><time>2026-04-26T08:32:46.411Z</time></trkpt><trkpt lat="43.7796467" lon="12.6874641"><ele>129.0</ele><time>2026-04-26T08:32:47.41Z</time></trkpt><trkpt lat="43.779609" lon="12.6875841"><ele>129.0</ele><time>2026-04-26T08:32:48.408Z</time></trkpt><trkpt lat="43.7795732" lon="12.6876955"><ele>129.0</ele><time>2026-04-26T08:32:49.41Z</time></trkpt><trkpt lat="43.7795374" lon="12.6877916"><ele>129.0</ele><time>2026-04-26T08:32:50.413Z</time></trkpt><trkpt lat="43.7794858" lon="12.6879326"><ele>129.0</ele><time>2026-04-26T08:32:52.407Z</time></trkpt><trkpt lat="43.7794763" lon="12.6880582"><ele>129.75</ele><time>2026-04-26T08:32:54.408Z</time></trkpt><trkpt lat="43.7795633" lon="12.6881656"><ele>130.5</ele><time>2026-04-26T08:32:56.407Z</time></trkpt><trkpt lat="43.7796517" lon="12.6881902"><ele>131.25</ele><time>2026-04-26T08:32:57.407Z</time></trkpt><trkpt lat="43.7797729" lon="12.6882051"><ele>132.0</ele><time>2026-04-26T08:32:58.408Z</time></trkpt><trkpt lat="43.7799734" lon="12.6882582"><ele>132.0</ele><time>2026-04-26T08:33:00.411Z</time></trkpt><trkpt lat="43.7800381" lon="12.6883044"><ele>132.0</ele><time>2026-04-26T08:33:01.407Z</time></trkpt><trkpt lat="43.7800781" lon="12.6883752"><ele>132.0</ele><time>2026-04-26T08:33:02.407Z</time></trkpt><trkpt lat="43.7800875" lon="12.6885081"><ele>132.0</ele><time>2026-04-26T08:33:04.411Z</time></trkpt><trkpt lat="43.7800088" lon="12.6885868"><ele>132.0</ele><time>2026-04-26T08:33:06.412Z</time></trkpt><trkpt lat="43.7799309" lon="12.6885874"><ele>132.0</ele><time>2026-04-26T08:33:07.405Z</time></trkpt><trkpt lat="43.7798362" lon="12.6885513"><ele>132.0</ele><time>2026-04-26T08:33:08.411Z</time></trkpt><trkpt lat="43.7797625" lon="12.6885202"><ele>132.0</ele><time>2026-04-26T08:33:09.409Z</time></trkpt><trkpt lat="43.7796938" lon="12.688494"><ele>132.0</ele><time>2026-04-26T08:33:10.415Z</time></trkpt><trkpt lat="43.7796229" lon="12.6884883"><ele>132.0</ele><time>2026-04-26T08:33:11.405Z</time></trkpt><trkpt lat="43.7795535" lon="12.6884828"><ele>132.0</ele><time>2026-04-26T08:33:12.407Z</time></trkpt><trkpt lat="43.7794794" lon="12.6884861"><ele>132.0</ele><time>2026-04-26T08:33:13.405Z</time></trkpt><trkpt lat="43.779371" lon="12.6885023"><ele>133.0</ele><time>2026-04-26T08:33:15.412Z</time></trkpt><trkpt lat="43.7792738" lon="12.6885288"><ele>134.0</ele><time>2026-04-26T08:33:17.407Z</time></trkpt><trkpt lat="43.7791835" lon="12.6885833"><ele>135.0</ele><time>2026-04-26T08:33:19.415Z</time></trkpt><trkpt lat="43.779068" lon="12.6888664"><ele>136.0</ele><time>2026-04-26T08:33:22.409Z</time></trkpt><trkpt lat="43.7790632" lon="12.6889812"><ele>138.2</ele><time>2026-04-26T08:33:23.406Z</time></trkpt><trkpt lat="43.7790814" lon="12.689091"><ele>140.39999999999998</ele><time>2026-04-26T08:33:24.41Z</time></trkpt><trkpt lat="43.7791293" lon="12.6892233"><ele>142.6</ele><time>2026-04-26T08:33:25.407Z</time></trkpt><trkpt lat="43.779168" lon="12.6893588"><ele>144.79999999999998</ele><time>2026-04-26T08:33:26.408Z</time></trkpt><trkpt lat="43.7792425" lon="12.6895185"><ele>147.0</ele><time>2026-04-26T08:33:27.411Z</time></trkpt><trkpt lat="43.7793035" lon="12.6896497"><ele>147.2</ele><time>2026-04-26T08:33:28.404Z</time></trkpt><trkpt lat="43.779362" lon="12.6897886"><ele>147.39999999999998</ele><time>2026-04-26T08:33:29.404Z</time></trkpt><trkpt lat="43.7794159" lon="12.689917"><ele>147.60000000000002</ele><time>2026-04-26T08:33:30.405Z</time></trkpt><trkpt lat="43.7794711" lon="12.6900383"><ele>147.8</ele><time>2026-04-26T08:33:31.406Z</time></trkpt><trkpt lat="43.7795155" lon="12.6901553"><ele>148.0</ele><time>2026-04-26T08:33:32.407Z</time></trkpt><trkpt lat="43.779572" lon="12.690273"><ele>149.6</ele><time>2026-04-26T08:33:33.407Z</time></trkpt><trkpt lat="43.7796163" lon="12.6904019"><ele>151.20000000000002</ele><time>2026-04-26T08:33:34.41Z</time></trkpt><trkpt lat="43.7796471" lon="12.690539"><ele>152.8</ele><time>2026-04-26T08:33:35.409Z</time></trkpt><trkpt lat="43.7796627" lon="12.690681"><ele>154.4</ele><time>2026-04-26T08:33:36.407Z</time></trkpt><trkpt lat="43.7796768" lon="12.6908044"><ele>156.0</ele><time>2026-04-26T08:33:37.408Z</time></trkpt><trkpt lat="43.7796973" lon="12.6909447"><ele>156.0</ele><time>2026-04-26T08:33:38.405Z</time></trkpt><trkpt lat="43.7797176" lon="12.6911013"><ele>156.0</ele><time>2026-04-26T08:33:39.407Z</time></trkpt><trkpt lat="43.7797329" lon="12.6912577"><ele>156.0</ele><time>2026-04-26T08:33:40.406Z</time></trkpt><trkpt lat="43.77973" lon="12.6915435"><ele>156.0</ele><time>2026-04-26T08:33:42.405Z</time></trkpt><trkpt lat="43.7797032" lon="12.6916837"><ele>156.0</ele><time>2026-04-26T08:33:43.408Z</time></trkpt><trkpt lat="43.7796716" lon="12.6918097"><ele>156.0</ele><time>2026-04-26T08:33:44.407Z</time></trkpt><trkpt lat="43.7796285" lon="12.6919224"><ele>156.0</ele><time>2026-04-26T08:33:45.408Z</time></trkpt><trkpt lat="43.77957" lon="12.6920265"><ele>156.0</ele><time>2026-04-26T08:33:46.412Z</time></trkpt><trkpt lat="43.779509" lon="12.6920953"><ele>156.0</ele><time>2026-04-26T08:33:47.412Z</time></trkpt><trkpt lat="43.7794466" lon="12.6921461"><ele>156.0</ele><time>2026-04-26T08:33:48.413Z</time></trkpt><trkpt lat="43.7793856" lon="12.692173"><ele>158.33333333333334</ele><time>2026-04-26T08:33:49.405Z</time></trkpt><trkpt lat="43.7793228" lon="12.6921854"><ele>160.66666666666666</ele><time>2026-04-26T08:33:50.408Z</time></trkpt><trkpt lat="43.7792569" lon="12.6921819"><ele>163.0</ele><time>2026-04-26T08:33:51.403Z</time></trkpt><trkpt lat="43.7791689" lon="12.6921539"><ele>165.33333333333331</ele><time>2026-04-26T08:33:52.41Z</time></trkpt><trkpt lat="43.7790628" lon="12.6921067"><ele>167.66666666666666</ele><time>2026-04-26T08:33:53.409Z</time></trkpt><trkpt lat="43.7789597" lon="12.6920486"><ele>170.0</ele><time>2026-04-26T08:33:54.409Z</time></trkpt><trkpt lat="43.7788612" lon="12.6920117"><ele>170.0</ele><time>2026-04-26T08:33:55.405Z</time></trkpt><trkpt lat="43.7787615" lon="12.6919664"><ele>170.0</ele><time>2026-04-26T08:33:56.411Z</time></trkpt><trkpt lat="43.7786609" lon="12.6919241"><ele>170.0</ele><time>2026-04-26T08:33:57.401Z</time></trkpt><trkpt lat="43.7785672" lon="12.691889"><ele>170.0</ele><time>2026-04-26T08:33:58.411Z</time></trkpt><trkpt lat="43.7784718" lon="12.6918592"><ele>170.0</ele><time>2026-04-26T08:33:59.409Z</time></trkpt><trkpt lat="43.7783752" lon="12.6918276"><ele>172.6</ele><time>2026-04-26T08:34:00.405Z</time></trkpt><trkpt lat="43.7782956" lon="12.6917989"><ele>175.2</ele><time>2026-04-26T08:34:01.404Z</time></trkpt><trkpt lat="43.77816" lon="12.6917478"><ele>177.8</ele><time>2026-04-26T08:34:03.406Z</time></trkpt><trkpt lat="43.7780433" lon="12.6916966"><ele>180.4</ele><time>2026-04-26T08:34:05.412Z</time></trkpt><trkpt lat="43.7779818" lon="12.6916714"><ele>183.0</ele><time>2026-04-26T08:34:06.409Z</time></trkpt><trkpt lat="43.7779172" lon="12.6916533"><ele>183.0</ele><time>2026-04-26T08:34:07.408Z</time></trkpt><trkpt lat="43.7778478" lon="12.6916273"><ele>183.0</ele><time>2026-04-26T08:34:08.406Z</time></trkpt><trkpt lat="43.7777629" lon="12.6916055"><ele>183.0</ele><time>2026-04-26T08:34:09.405Z</time></trkpt><trkpt lat="43.7776785" lon="12.6915785"><ele>183.0</ele><time>2026-04-26T08:34:10.41Z</time></trkpt><trkpt lat="43.7775819" lon="12.6915539"><ele>183.0</ele><time>2026-04-26T08:34:11.404Z</time></trkpt><trkpt lat="43.7774739" lon="12.6915148"><ele>185.75</ele><time>2026-04-26T08:34:12.406Z</time></trkpt><trkpt lat="43.7773535" lon="12.6914727"><ele>188.5</ele><time>2026-04-26T08:34:13.406Z</time></trkpt><trkpt lat="43.7772348" lon="12.6914385"><ele>191.25</ele><time>2026-04-26T08:34:14.407Z</time></trkpt><trkpt lat="43.7771204" lon="12.6914052"><ele>194.0</ele><time>2026-04-26T08:34:15.408Z</time></trkpt><trkpt lat="43.7770122" lon="12.6913687"><ele>194.0</ele><time>2026-04-26T08:34:16.411Z</time></trkpt><trkpt lat="43.7768987" lon="12.6913376"><ele>194.0</ele><time>2026-04-26T08:34:17.406Z</time></trkpt><trkpt lat="43.7767943" lon="12.6913269"><ele>194.0</ele><time>2026-04-26T08:34:18.406Z</time></trkpt><trkpt lat="43.7766854" lon="12.6913365"><ele>194.0</ele><time>2026-04-26T08:34:19.407Z</time></trkpt><trkpt lat="43.7765743" lon="12.691388"><ele>194.0</ele><time>2026-04-26T08:34:20.408Z</time></trkpt><trkpt lat="43.77645" lon="12.6914641"><ele>198.0</ele><time>2026-04-26T08:34:21.408Z</time></trkpt><trkpt lat="43.7763248" lon="12.6915511"><ele>202.0</ele><time>2026-04-26T08:34:22.411Z</time></trkpt><trkpt lat="43.7761135" lon="12.6917071"><ele>206.0</ele><time>2026-04-26T08:34:24.407Z</time></trkpt><trkpt lat="43.7760164" lon="12.6917614"><ele>207.60000000000002</ele><time>2026-04-26T08:34:25.405Z</time></trkpt><trkpt lat="43.7759083" lon="12.6918076"><ele>209.2</ele><time>2026-04-26T08:34:26.402Z</time></trkpt><trkpt lat="43.775799" lon="12.6918405"><ele>210.79999999999998</ele><time>2026-04-26T08:34:27.405Z</time></trkpt><trkpt lat="43.7756945" lon="12.6918705"><ele>212.39999999999998</ele><time>2026-04-26T08:34:28.404Z</time></trkpt><trkpt lat="43.7755935" lon="12.6919027"><ele>214.0</ele><time>2026-04-26T08:34:29.414Z</time></trkpt><trkpt lat="43.7754881" lon="12.6919245"><ele>216.0</ele><time>2026-04-26T08:34:30.409Z</time></trkpt><trkpt lat="43.7753809" lon="12.6919254"><ele>218.0</ele><time>2026-04-26T08:34:31.408Z</time></trkpt><trkpt lat="43.7752617" lon="12.691926"><ele>220.0</ele><time>2026-04-26T08:34:32.407Z</time></trkpt><trkpt lat="43.7751428" lon="12.6919372"><ele>222.0</ele><time>2026-04-26T08:34:33.405Z</time></trkpt><trkpt lat="43.775032" lon="12.6919575"><ele>223.0</ele><time>2026-04-26T08:34:34.407Z</time></trkpt><trkpt lat="43.7749364" lon="12.6920182"><ele>224.0</ele><time>2026-04-26T08:34:35.403Z</time></trkpt><trkpt lat="43.7748536" lon="12.6921033"><ele>225.0</ele><time>2026-04-26T08:34:36.407Z</time></trkpt><trkpt lat="43.7747907" lon="12.6921887"><ele>226.0</ele><time>2026-04-26T08:34:37.407Z</time></trkpt><trkpt lat="43.7747394" lon="12.6922667"><ele>227.0</ele><time>2026-04-26T08:34:38.404Z</time></trkpt><trkpt lat="43.7746606" lon="12.6923568"><ele>227.0</ele><time>2026-04-26T08:34:40.406Z</time></trkpt><trkpt lat="43.7745744" lon="12.692443"><ele>227.0</ele><time>2026-04-26T08:34:42.411Z</time></trkpt><trkpt lat="43.7744751" lon="12.692559"><ele>227.0</ele><time>2026-04-26T08:34:44.406Z</time></trkpt><trkpt lat="43.774377" lon="12.6927096"><ele>227.0</ele><time>2026-04-26T08:34:46.405Z</time></trkpt><trkpt lat="43.7743263" lon="12.6927805"><ele>227.39999999999998</ele><time>2026-04-26T08:34:47.418Z</time></trkpt><trkpt lat="43.7742224" lon="12.6928614"><ele>227.79999999999998</ele><time>2026-04-26T08:34:49.41Z</time></trkpt><trkpt lat="43.7741212" lon="12.6929116"><ele>228.2</ele><time>2026-04-26T08:34:51.408Z</time></trkpt><trkpt lat="43.7740222" lon="12.6929544"><ele>228.6</ele><time>2026-04-26T08:34:53.413Z</time></trkpt><trkpt lat="43.7739424" lon="12.692992"><ele>229.0</ele><time>2026-04-26T08:34:55.412Z</time></trkpt><trkpt lat="43.7738584" lon="12.6930426"><ele>229.0</ele><time>2026-04-26T08:34:57.409Z</time></trkpt><trkpt lat="43.7737576" lon="12.693099"><ele>228.99999999999997</ele><time>2026-04-26T08:34:59.403Z</time></trkpt><trkpt lat="43.7736623" lon="12.6931725"><ele>228.99999999999997</ele><time>2026-04-26T08:35:01.412Z</time></trkpt><trkpt lat="43.7735725" lon="12.6932722"><ele>229.0</ele><time>2026-04-26T08:35:03.408Z</time></trkpt><trkpt lat="43.7735023" lon="12.6933748"><ele>229.0</ele><time>2026-04-26T08:35:05.406Z</time></trkpt><trkpt lat="43.7732885" lon="12.6934955"><ele>228.99999999999997</ele><time>2026-04-26T08:35:09.407Z</time></trkpt><trkpt lat="43.7731732" lon="12.6935047"><ele>229.0</ele><time>2026-04-26T08:35:11.413Z</time></trkpt><trkpt lat="43.7730458" lon="12.6935106"><ele>229.0</ele><time>2026-04-26T08:35:13.407Z</time></trkpt><trkpt lat="43.7729798" lon="12.6935119"><ele>229.0</ele><time>2026-04-26T08:35:14.409Z</time></trkpt><trkpt lat="43.7729158" lon="12.6935253"><ele>228.99999999999997</ele><time>2026-04-26T08:35:15.408Z</time></trkpt><trkpt lat="43.7728489" lon="12.6935466"><ele>229.0</ele><time>2026-04-26T08:35:16.405Z</time></trkpt><trkpt lat="43.7727893" lon="12.6935804"><ele>227.79999999999998</ele><time>2026-04-26T08:35:17.41Z</time></trkpt><trkpt lat="43.7726908" lon="12.6936388"><ele>226.59999999999997</ele><time>2026-04-26T08:35:19.408Z</time></trkpt><trkpt lat="43.7726027" lon="12.6937016"><ele>225.4</ele><time>2026-04-26T08:35:21.409Z</time></trkpt><trkpt lat="43.7724898" lon="12.6937763"><ele>224.2</ele><time>2026-04-26T08:35:23.406Z</time></trkpt><trkpt lat="43.7724349" lon="12.6938235"><ele>223.0</ele><time>2026-04-26T08:35:24.41Z</time></trkpt><trkpt lat="43.7723264" lon="12.6939065"><ele>223.0</ele><time>2026-04-26T08:35:26.407Z</time></trkpt><trkpt lat="43.7721718" lon="12.6939921"><ele>223.0</ele><time>2026-04-26T08:35:29.407Z</time></trkpt><trkpt lat="43.7720944" lon="12.6940278"><ele>223.0</ele><time>2026-04-26T08:35:31.406Z</time></trkpt><trkpt lat="43.7720225" lon="12.6940447"><ele>223.0</ele><time>2026-04-26T08:35:33.405Z</time></trkpt><trkpt lat="43.7719555" lon="12.6940754"><ele>223.0</ele><time>2026-04-26T08:35:35.418Z</time></trkpt><trkpt lat="43.7718909" lon="12.6940955"><ele>223.49999999999997</ele><time>2026-04-26T08:35:36.411Z</time></trkpt><trkpt lat="43.771828" lon="12.6941176"><ele>224.0</ele><time>2026-04-26T08:35:37.411Z</time></trkpt><trkpt lat="43.7717" lon="12.6941497"><ele>224.5</ele><time>2026-04-26T08:35:39.403Z</time></trkpt><trkpt lat="43.7716326" lon="12.694161"><ele>225.0</ele><time>2026-04-26T08:35:40.404Z</time></trkpt><trkpt lat="43.7715696" lon="12.6941621"><ele>225.49999999999997</ele><time>2026-04-26T08:35:41.411Z</time></trkpt><trkpt lat="43.7714627" lon="12.6941556"><ele>226.0</ele><time>2026-04-26T08:35:43.411Z</time></trkpt><trkpt lat="43.7713501" lon="12.6941599"><ele>226.0</ele><time>2026-04-26T08:35:45.41Z</time></trkpt><trkpt lat="43.7712322" lon="12.6941686"><ele>226.0</ele><time>2026-04-26T08:35:47.41Z</time></trkpt><trkpt lat="43.7710429" lon="12.6941986"><ele>226.0</ele><time>2026-04-26T08:35:50.408Z</time></trkpt><trkpt lat="43.770976" lon="12.6942143"><ele>226.0</ele><time>2026-04-26T08:35:51.411Z</time></trkpt><trkpt lat="43.7708529" lon="12.6942475"><ele>225.85714285714286</ele><time>2026-04-26T08:35:53.412Z</time></trkpt><trkpt lat="43.7707874" lon="12.6942694"><ele>225.71428571428572</ele><time>2026-04-26T08:35:54.411Z</time></trkpt><trkpt lat="43.7707213" lon="12.6942978"><ele>225.57142857142858</ele><time>2026-04-26T08:35:55.405Z</time></trkpt><trkpt lat="43.7706573" lon="12.6943278"><ele>225.42857142857144</ele><time>2026-04-26T08:35:56.408Z</time></trkpt><trkpt lat="43.7705932" lon="12.6943485"><ele>225.28571428571428</ele><time>2026-04-26T08:35:57.405Z</time></trkpt><trkpt lat="43.7705256" lon="12.6943834"><ele>225.14285714285717</ele><time>2026-04-26T08:35:58.413Z</time></trkpt><trkpt lat="43.7704559" lon="12.6944129"><ele>225.00000000000003</ele><time>2026-04-26T08:35:59.405Z</time></trkpt><trkpt lat="43.7703884" lon="12.6944476"><ele>225.0</ele><time>2026-04-26T08:36:00.407Z</time></trkpt><trkpt lat="43.7703224" lon="12.6944772"><ele>225.0</ele><time>2026-04-26T08:36:01.408Z</time></trkpt><trkpt lat="43.7702525" lon="12.6945109"><ele>225.0</ele><time>2026-04-26T08:36:02.408Z</time></trkpt><trkpt lat="43.7701759" lon="12.6945336"><ele>225.0</ele><time>2026-04-26T08:36:03.406Z</time></trkpt><trkpt lat="43.7701006" lon="12.6945422"><ele>225.0</ele><time>2026-04-26T08:36:04.41Z</time></trkpt><trkpt lat="43.7700239" lon="12.694544"><ele>225.0</ele><time>2026-04-26T08:36:05.406Z</time></trkpt><trkpt lat="43.7699467" lon="12.6945448"><ele>225.2</ele><time>2026-04-26T08:36:06.413Z</time></trkpt><trkpt lat="43.7698783" lon="12.694545"><ele>225.4</ele><time>2026-04-26T08:36:07.411Z</time></trkpt><trkpt lat="43.7697441" lon="12.6945468"><ele>225.60000000000002</ele><time>2026-04-26T08:36:09.407Z</time></trkpt><trkpt lat="43.7696118" lon="12.694546"><ele>225.8</ele><time>2026-04-26T08:36:11.406Z</time></trkpt><trkpt lat="43.7695109" lon="12.6945453"><ele>226.0</ele><time>2026-04-26T08:36:13.407Z</time></trkpt><trkpt lat="43.7694208" lon="12.6945473"><ele>225.99999999999997</ele><time>2026-04-26T08:36:15.411Z</time></trkpt><trkpt lat="43.7693371" lon="12.6945593"><ele>226.0</ele><time>2026-04-26T08:36:17.414Z</time></trkpt><trkpt lat="43.7692298" lon="12.6945948"><ele>226.0</ele><time>2026-04-26T08:36:19.407Z</time></trkpt><trkpt lat="43.7691586" lon="12.6946254"><ele>226.0</ele><time>2026-04-26T08:36:20.414Z</time></trkpt><trkpt lat="43.7690953" lon="12.6946616"><ele>225.99999999999997</ele><time>2026-04-26T08:36:21.407Z</time></trkpt><trkpt lat="43.7690293" lon="12.6947035"><ele>226.0</ele><time>2026-04-26T08:36:22.407Z</time></trkpt><trkpt lat="43.768959" lon="12.6947526"><ele>225.99999999999997</ele><time>2026-04-26T08:36:23.407Z</time></trkpt><trkpt lat="43.7688889" lon="12.6947854"><ele>226.0</ele><time>2026-04-26T08:36:24.407Z</time></trkpt><trkpt lat="43.7688113" lon="12.6948049"><ele>226.0</ele><time>2026-04-26T08:36:25.411Z</time></trkpt><trkpt lat="43.7687279" lon="12.6948173"><ele>226.0</ele><time>2026-04-26T08:36:26.407Z</time></trkpt><trkpt lat="43.7686524" lon="12.6948316"><ele>225.99999999999997</ele><time>2026-04-26T08:36:27.412Z</time></trkpt><trkpt lat="43.768574" lon="12.6948441"><ele>226.0</ele><time>2026-04-26T08:36:28.407Z</time></trkpt><trkpt lat="43.7684911" lon="12.6948597"><ele>226.60000000000002</ele><time>2026-04-26T08:36:29.405Z</time></trkpt><trkpt lat="43.7684161" lon="12.69487"><ele>227.20000000000002</ele><time>2026-04-26T08:36:30.411Z</time></trkpt><trkpt lat="43.7682583" lon="12.6948935"><ele>227.79999999999998</ele><time>2026-04-26T08:36:32.407Z</time></trkpt><trkpt lat="43.7681807" lon="12.6948893"><ele>228.39999999999998</ele><time>2026-04-26T08:36:33.42Z</time></trkpt><trkpt lat="43.7681122" lon="12.6948725"><ele>229.0</ele><time>2026-04-26T08:36:34.409Z</time></trkpt><trkpt lat="43.7680406" lon="12.6948458"><ele>229.0</ele><time>2026-04-26T08:36:35.405Z</time></trkpt><trkpt lat="43.7679652" lon="12.6948122"><ele>229.0</ele><time>2026-04-26T08:36:36.403Z</time></trkpt><trkpt lat="43.7679011" lon="12.694773"><ele>229.0</ele><time>2026-04-26T08:36:37.403Z</time></trkpt><trkpt lat="43.7678367" lon="12.6947346"><ele>229.0</ele><time>2026-04-26T08:36:38.411Z</time></trkpt><trkpt lat="43.7677769" lon="12.6946928"><ele>229.0</ele><time>2026-04-26T08:36:39.403Z</time></trkpt><trkpt lat="43.7677168" lon="12.6946504"><ele>229.0</ele><time>2026-04-26T08:36:40.404Z</time></trkpt><trkpt lat="43.767656" lon="12.6946094"><ele>229.0</ele><time>2026-04-26T08:36:41.406Z</time></trkpt><trkpt lat="43.7675984" lon="12.6945674"><ele>228.33333333333331</ele><time>2026-04-26T08:36:42.405Z</time></trkpt><trkpt lat="43.7674936" lon="12.694524"><ele>227.66666666666666</ele><time>2026-04-26T08:36:44.412Z</time></trkpt><trkpt lat="43.7674295" lon="12.6945092"><ele>227.0</ele><time>2026-04-26T08:36:45.411Z</time></trkpt><trkpt lat="43.7673103" lon="12.6944974"><ele>226.33333333333331</ele><time>2026-04-26T08:36:47.408Z</time></trkpt><trkpt lat="43.7672454" lon="12.6944911"><ele>225.66666666666666</ele><time>2026-04-26T08:36:48.409Z</time></trkpt><trkpt lat="43.7671737" lon="12.6944816"><ele>225.0</ele><time>2026-04-26T08:36:49.41Z</time></trkpt><trkpt lat="43.767102" lon="12.6944714"><ele>225.0</ele><time>2026-04-26T08:36:50.408Z</time></trkpt><trkpt lat="43.7670345" lon="12.6944584"><ele>225.0</ele><time>2026-04-26T08:36:51.412Z</time></trkpt><trkpt lat="43.7668936" lon="12.6944305"><ele>225.0</ele><time>2026-04-26T08:36:53.41Z</time></trkpt><trkpt lat="43.7668214" lon="12.6944146"><ele>225.0</ele><time>2026-04-26T08:36:54.411Z</time></trkpt><trkpt lat="43.7667464" lon="12.6944054"><ele>225.0</ele><time>2026-04-26T08:36:55.411Z</time></trkpt><trkpt lat="43.7666728" lon="12.6943988"><ele>225.0</ele><time>2026-04-26T08:36:56.415Z</time></trkpt><trkpt lat="43.7665961" lon="12.6943966"><ele>226.83333333333334</ele><time>2026-04-26T08:36:57.405Z</time></trkpt><trkpt lat="43.7665186" lon="12.6943889"><ele>228.66666666666669</ele><time>2026-04-26T08:36:58.412Z</time></trkpt><trkpt lat="43.7664421" lon="12.6943728"><ele>230.5</ele><time>2026-04-26T08:36:59.409Z</time></trkpt><trkpt lat="43.7663651" lon="12.6943458"><ele>232.33333333333334</ele><time>2026-04-26T08:37:00.403Z</time></trkpt><trkpt lat="43.76629" lon="12.6943164"><ele>234.16666666666669</ele><time>2026-04-26T08:37:01.407Z</time></trkpt><trkpt lat="43.7662113" lon="12.6942775"><ele>236.0</ele><time>2026-04-26T08:37:02.409Z</time></trkpt><trkpt lat="43.7661411" lon="12.6942395"><ele>236.00000000000003</ele><time>2026-04-26T08:37:03.41Z</time></trkpt><trkpt lat="43.7660636" lon="12.6941986"><ele>236.0</ele><time>2026-04-26T08:37:04.403Z</time></trkpt><trkpt lat="43.7659846" lon="12.6941559"><ele>236.0</ele><time>2026-04-26T08:37:05.406Z</time></trkpt><trkpt lat="43.7659121" lon="12.6941119"><ele>236.0</ele><time>2026-04-26T08:37:06.411Z</time></trkpt><trkpt lat="43.765842" lon="12.6940579"><ele>236.00000000000003</ele><time>2026-04-26T08:37:07.407Z</time></trkpt><trkpt lat="43.7657746" lon="12.6939921"><ele>236.0</ele><time>2026-04-26T08:37:08.403Z</time></trkpt><trkpt lat="43.7657121" lon="12.6939266"><ele>235.8</ele><time>2026-04-26T08:37:09.403Z</time></trkpt><trkpt lat="43.7656493" lon="12.6938617"><ele>235.60000000000002</ele><time>2026-04-26T08:37:10.403Z</time></trkpt><trkpt lat="43.765594" lon="12.6938068"><ele>235.4</ele><time>2026-04-26T08:37:11.404Z</time></trkpt><trkpt lat="43.7655384" lon="12.6937553"><ele>235.2</ele><time>2026-04-26T08:37:12.405Z</time></trkpt><trkpt lat="43.7653469" lon="12.6936177"><ele>235.0</ele><time>2026-04-26T08:37:16.409Z</time></trkpt><trkpt lat="43.7652837" lon="12.6936097"><ele>235.0</ele><time>2026-04-26T08:37:17.409Z</time></trkpt><trkpt lat="43.7652046" lon="12.6936292"><ele>235.0</ele><time>2026-04-26T08:37:18.408Z</time></trkpt><trkpt lat="43.7651097" lon="12.6936637"><ele>235.0</ele><time>2026-04-26T08:37:19.409Z</time></trkpt><trkpt lat="43.7650127" lon="12.6937005"><ele>235.0</ele><time>2026-04-26T08:37:20.417Z</time></trkpt><trkpt lat="43.7649217" lon="12.6937354"><ele>235.0</ele><time>2026-04-26T08:37:21.405Z</time></trkpt><trkpt lat="43.7648285" lon="12.6937738"><ele>235.33333333333331</ele><time>2026-04-26T08:37:22.413Z</time></trkpt><trkpt lat="43.7647327" lon="12.6938135"><ele>235.66666666666666</ele><time>2026-04-26T08:37:23.407Z</time></trkpt><trkpt lat="43.7646479" lon="12.6938494"><ele>236.0</ele><time>2026-04-26T08:37:24.41Z</time></trkpt><trkpt lat="43.7645775" lon="12.6938786"><ele>236.33333333333331</ele><time>2026-04-26T08:37:25.407Z</time></trkpt><trkpt lat="43.7645127" lon="12.6938985"><ele>236.66666666666666</ele><time>2026-04-26T08:37:26.415Z</time></trkpt><trkpt lat="43.7644518" lon="12.6939244"><ele>237.0</ele><time>2026-04-26T08:37:27.406Z</time></trkpt><trkpt lat="43.7643904" lon="12.6939476"><ele>240.5</ele><time>2026-04-26T08:37:28.406Z</time></trkpt><trkpt lat="43.7642824" lon="12.6939921"><ele>244.0</ele><time>2026-04-26T08:37:30.407Z</time></trkpt><trkpt lat="43.7641933" lon="12.6940321"><ele>247.5</ele><time>2026-04-26T08:37:32.406Z</time></trkpt><trkpt lat="43.7640998" lon="12.6940749"><ele>251.0</ele><time>2026-04-26T08:37:34.407Z</time></trkpt><trkpt lat="43.7639229" lon="12.6941457"><ele>251.00000000000003</ele><time>2026-04-26T08:37:37.407Z</time></trkpt><trkpt lat="43.7638638" lon="12.6941769"><ele>251.0</ele><time>2026-04-26T08:37:38.406Z</time></trkpt><trkpt lat="43.7638023" lon="12.6942039"><ele>251.0</ele><time>2026-04-26T08:37:39.401Z</time></trkpt><trkpt lat="43.7637024" lon="12.6942187"><ele>251.0</ele><time>2026-04-26T08:37:41.405Z</time></trkpt><trkpt lat="43.763612" lon="12.6941686"><ele>251.00000000000003</ele><time>2026-04-26T08:37:43.41Z</time></trkpt><trkpt lat="43.7635626" lon="12.6941033"><ele>251.0</ele><time>2026-04-26T08:37:44.408Z</time></trkpt><trkpt lat="43.7635188" lon="12.6940097"><ele>250.99999999999997</ele><time>2026-04-26T08:37:45.411Z</time></trkpt><trkpt lat="43.7634837" lon="12.6939278"><ele>251.0</ele><time>2026-04-26T08:37:46.406Z</time></trkpt><trkpt lat="43.7634537" lon="12.6938387"><ele>250.99999999999997</ele><time>2026-04-26T08:37:47.41Z</time></trkpt><trkpt lat="43.763433" lon="12.6937377"><ele>250.99999999999997</ele><time>2026-04-26T08:37:48.405Z</time></trkpt><trkpt lat="43.7634172" lon="12.6936422"><ele>251.0</ele><time>2026-04-26T08:37:49.406Z</time></trkpt><trkpt lat="43.7634042" lon="12.6935298"><ele>250.99999999999997</ele><time>2026-04-26T08:37:50.405Z</time></trkpt><trkpt lat="43.7633921" lon="12.6934349"><ele>250.99999999999997</ele><time>2026-04-26T08:37:51.407Z</time></trkpt><trkpt lat="43.7633794" lon="12.6933401"><ele>252.0</ele><time>2026-04-26T08:37:52.405Z</time></trkpt><trkpt lat="43.763365" lon="12.6932477"><ele>253.00000000000003</ele><time>2026-04-26T08:37:53.409Z</time></trkpt><trkpt lat="43.7633592" lon="12.6931604"><ele>254.00000000000003</ele><time>2026-04-26T08:37:54.411Z</time></trkpt><trkpt lat="43.7633546" lon="12.6930611"><ele>255.0</ele><time>2026-04-26T08:37:55.413Z</time></trkpt><trkpt lat="43.7633598" lon="12.692878"><ele>256.0</ele><time>2026-04-26T08:37:57.41Z</time></trkpt><trkpt lat="43.7633629" lon="12.6927105"><ele>256.0</ele><time>2026-04-26T08:37:59.405Z</time></trkpt><trkpt lat="43.7633026" lon="12.6925671"><ele>256.0</ele><time>2026-04-26T08:38:01.406Z</time></trkpt><trkpt lat="43.7632375" lon="12.692517"><ele>256.0</ele><time>2026-04-26T08:38:02.406Z</time></trkpt><trkpt lat="43.7631485" lon="12.6924737"><ele>256.0</ele><time>2026-04-26T08:38:03.407Z</time></trkpt><trkpt lat="43.7630526" lon="12.6924395"><ele>256.0</ele><time>2026-04-26T08:38:04.406Z</time></trkpt><trkpt lat="43.7629571" lon="12.6924058"><ele>256.0</ele><time>2026-04-26T08:38:05.405Z</time></trkpt><trkpt lat="43.7628726" lon="12.692363"><ele>255.99999999999997</ele><time>2026-04-26T08:38:06.412Z</time></trkpt><trkpt lat="43.7628041" lon="12.6923268"><ele>256.0</ele><time>2026-04-26T08:38:07.415Z</time></trkpt><trkpt lat="43.7627445" lon="12.692297"><ele>256.0</ele><time>2026-04-26T08:38:08.402Z</time></trkpt><trkpt lat="43.7626864" lon="12.6922595"><ele>255.99999999999997</ele><time>2026-04-26T08:38:09.403Z</time></trkpt><trkpt lat="43.7626262" lon="12.6922211"><ele>256.0</ele><time>2026-04-26T08:38:10.408Z</time></trkpt><trkpt lat="43.7625652" lon="12.6921816"><ele>256.0</ele><time>2026-04-26T08:38:11.404Z</time></trkpt><trkpt lat="43.7624936" lon="12.6921337"><ele>257.40000000000003</ele><time>2026-04-26T08:38:12.41Z</time></trkpt><trkpt lat="43.7623942" lon="12.6920662"><ele>258.8</ele><time>2026-04-26T08:38:13.41Z</time></trkpt><trkpt lat="43.7623074" lon="12.6920064"><ele>260.20000000000005</ele><time>2026-04-26T08:38:14.408Z</time></trkpt><trkpt lat="43.7622207" lon="12.6919441"><ele>261.6</ele><time>2026-04-26T08:38:15.409Z</time></trkpt><trkpt lat="43.7621412" lon="12.6918824"><ele>263.0</ele><time>2026-04-26T08:38:16.407Z</time></trkpt><trkpt lat="43.7619945" lon="12.691756"><ele>263.5</ele><time>2026-04-26T08:38:18.405Z</time></trkpt><trkpt lat="43.7619186" lon="12.6916973"><ele>264.0</ele><time>2026-04-26T08:38:19.406Z</time></trkpt><trkpt lat="43.7618437" lon="12.6916307"><ele>264.5</ele><time>2026-04-26T08:38:20.41Z</time></trkpt><trkpt lat="43.7617693" lon="12.6915653"><ele>265.0</ele><time>2026-04-26T08:38:21.412Z</time></trkpt><trkpt lat="43.7616977" lon="12.6915012"><ele>265.5</ele><time>2026-04-26T08:38:22.405Z</time></trkpt><trkpt lat="43.7616318" lon="12.691439"><ele>266.0</ele><time>2026-04-26T08:38:23.408Z</time></trkpt><trkpt lat="43.7615707" lon="12.6913741"><ele>266.0</ele><time>2026-04-26T08:38:24.404Z</time></trkpt><trkpt lat="43.7614601" lon="12.6912985"><ele>266.0</ele><time>2026-04-26T08:38:26.407Z</time></trkpt><trkpt lat="43.7613881" lon="12.6913068"><ele>266.0</ele><time>2026-04-26T08:38:27.42Z</time></trkpt><trkpt lat="43.7613245" lon="12.6913332"><ele>266.0</ele><time>2026-04-26T08:38:28.406Z</time></trkpt><trkpt lat="43.7612639" lon="12.6913921"><ele>266.0</ele><time>2026-04-26T08:38:29.407Z</time></trkpt><trkpt lat="43.76118" lon="12.691495"><ele>266.0</ele><time>2026-04-26T08:38:31.411Z</time></trkpt><trkpt lat="43.7610826" lon="12.6915784"><ele>267.40000000000003</ele><time>2026-04-26T08:38:33.406Z</time></trkpt><trkpt lat="43.7610158" lon="12.6916236"><ele>268.8</ele><time>2026-04-26T08:38:34.405Z</time></trkpt><trkpt lat="43.7609302" lon="12.691666"><ele>270.20000000000005</ele><time>2026-04-26T08:38:35.407Z</time></trkpt><trkpt lat="43.7608403" lon="12.6917068"><ele>271.6</ele><time>2026-04-26T08:38:36.409Z</time></trkpt><trkpt lat="43.7607646" lon="12.6917268"><ele>273.0</ele><time>2026-04-26T08:38:37.407Z</time></trkpt><trkpt lat="43.7605709" lon="12.6916621"><ele>273.0</ele><time>2026-04-26T08:38:41.41Z</time></trkpt><trkpt lat="43.7604701" lon="12.6915617"><ele>273.0</ele><time>2026-04-26T08:38:43.405Z</time></trkpt><trkpt lat="43.7604144" lon="12.6914846"><ele>273.0</ele><time>2026-04-26T08:38:44.405Z</time></trkpt><trkpt lat="43.7603574" lon="12.6914067"><ele>273.0</ele><time>2026-04-26T08:38:45.404Z</time></trkpt><trkpt lat="43.7603008" lon="12.6913557"><ele>273.0</ele><time>2026-04-26T08:38:46.405Z</time></trkpt><trkpt lat="43.7601943" lon="12.6913196"><ele>275.6</ele><time>2026-04-26T08:38:48.411Z</time></trkpt><trkpt lat="43.7600969" lon="12.6913744"><ele>278.20000000000005</ele><time>2026-04-26T08:38:50.412Z</time></trkpt><trkpt lat="43.7600362" lon="12.6914181"><ele>280.8</ele><time>2026-04-26T08:38:51.413Z</time></trkpt><trkpt lat="43.7599392" lon="12.6914883"><ele>283.40000000000003</ele><time>2026-04-26T08:38:53.404Z</time></trkpt><trkpt lat="43.7598016" lon="12.6915931"><ele>286.0</ele><time>2026-04-26T08:38:55.407Z</time></trkpt><trkpt lat="43.7597145" lon="12.6916686"><ele>286.0</ele><time>2026-04-26T08:38:56.404Z</time></trkpt><trkpt lat="43.7596362" lon="12.6917274"><ele>286.0</ele><time>2026-04-26T08:38:57.409Z</time></trkpt><trkpt lat="43.7595522" lon="12.6917826"><ele>286.0</ele><time>2026-04-26T08:38:58.411Z</time></trkpt><trkpt lat="43.7593718" lon="12.6918688"><ele>286.0</ele><time>2026-04-26T08:39:00.403Z</time></trkpt><trkpt lat="43.7592821" lon="12.6918914"><ele>286.0</ele><time>2026-04-26T08:39:01.402Z</time></trkpt><trkpt lat="43.7591814" lon="12.6919549"><ele>286.0</ele><time>2026-04-26T08:39:02.405Z</time></trkpt><trkpt lat="43.7590938" lon="12.6919873"><ele>286.0</ele><time>2026-04-26T08:39:03.404Z</time></trkpt><trkpt lat="43.7590201" lon="12.6919967"><ele>286.0</ele><time>2026-04-26T08:39:04.404Z</time></trkpt><trkpt lat="43.7589486" lon="12.6919717"><ele>286.0</ele><time>2026-04-26T08:39:05.406Z</time></trkpt><trkpt lat="43.7588713" lon="12.6919251"><ele>286.0</ele><time>2026-04-26T08:39:06.408Z</time></trkpt><trkpt lat="43.7588008" lon="12.6918638"><ele>290.0</ele><time>2026-04-26T08:39:07.409Z</time></trkpt><trkpt lat="43.7587336" lon="12.6917869"><ele>294.0</ele><time>2026-04-26T08:39:08.405Z</time></trkpt><trkpt lat="43.7586573" lon="12.6917052"><ele>298.0</ele><time>2026-04-26T08:39:09.408Z</time></trkpt><trkpt lat="43.7585704" lon="12.6916107"><ele>302.0</ele><time>2026-04-26T08:39:10.403Z</time></trkpt><trkpt lat="43.7584786" lon="12.6915144"><ele>306.0</ele><time>2026-04-26T08:39:11.404Z</time></trkpt><trkpt lat="43.7583938" lon="12.6914267"><ele>307.8</ele><time>2026-04-26T08:39:12.403Z</time></trkpt><trkpt lat="43.7583108" lon="12.6913449"><ele>309.6</ele><time>2026-04-26T08:39:13.406Z</time></trkpt><trkpt lat="43.7582345" lon="12.691257"><ele>311.4</ele><time>2026-04-26T08:39:14.404Z</time></trkpt><trkpt lat="43.7581555" lon="12.6911682"><ele>313.2</ele><time>2026-04-26T08:39:15.406Z</time></trkpt><trkpt lat="43.758074" lon="12.6910757"><ele>315.0</ele><time>2026-04-26T08:39:16.408Z</time></trkpt><trkpt lat="43.7579851" lon="12.6909967"><ele>318.25</ele><time>2026-04-26T08:39:17.407Z</time></trkpt><trkpt lat="43.7578916" lon="12.6909266"><ele>321.5</ele><time>2026-04-26T08:39:18.408Z</time></trkpt><trkpt lat="43.7577999" lon="12.6908641"><ele>324.75</ele><time>2026-04-26T08:39:19.406Z</time></trkpt><trkpt lat="43.757615" lon="12.6907596"><ele>328.0</ele><time>2026-04-26T08:39:21.406Z</time></trkpt><trkpt lat="43.7575451" lon="12.6907167"><ele>328.0</ele><time>2026-04-26T08:39:22.405Z</time></trkpt><trkpt lat="43.7574771" lon="12.6906742"><ele>328.0</ele><time>2026-04-26T08:39:23.407Z</time></trkpt><trkpt lat="43.7574262" lon="12.6906191"><ele>328.0</ele><time>2026-04-26T08:39:25.405Z</time></trkpt><trkpt lat="43.7574479" lon="12.6905291"><ele>328.0</ele><time>2026-04-26T08:39:27.41Z</time></trkpt><trkpt lat="43.7575082" lon="12.6904469"><ele>328.0</ele><time>2026-04-26T08:39:28.404Z</time></trkpt><trkpt lat="43.7575778" lon="12.6903584"><ele>328.0</ele><time>2026-04-26T08:39:29.407Z</time></trkpt><trkpt lat="43.757648" lon="12.6902611"><ele>329.59999999999997</ele><time>2026-04-26T08:39:30.408Z</time></trkpt><trkpt lat="43.7577236" lon="12.6901623"><ele>331.2</ele><time>2026-04-26T08:39:31.409Z</time></trkpt><trkpt lat="43.7578047" lon="12.6900569"><ele>332.8</ele><time>2026-04-26T08:39:32.405Z</time></trkpt><trkpt lat="43.7578799" lon="12.6899503"><ele>334.4</ele><time>2026-04-26T08:39:33.407Z</time></trkpt><trkpt lat="43.7579419" lon="12.6898597"><ele>336.0</ele><time>2026-04-26T08:39:34.407Z</time></trkpt><trkpt lat="43.7579969" lon="12.6897769"><ele>336.0</ele><time>2026-04-26T08:39:35.405Z</time></trkpt><trkpt lat="43.7580535" lon="12.6896914"><ele>336.0</ele><time>2026-04-26T08:39:36.405Z</time></trkpt><trkpt lat="43.7581149" lon="12.6896084"><ele>336.0</ele><time>2026-04-26T08:39:37.406Z</time></trkpt><trkpt lat="43.7581716" lon="12.6895245"><ele>336.0</ele><time>2026-04-26T08:39:38.406Z</time></trkpt><trkpt lat="43.758224" lon="12.6894248"><ele>336.0</ele><time>2026-04-26T08:39:39.412Z</time></trkpt><trkpt lat="43.7582713" lon="12.68931"><ele>336.0</ele><time>2026-04-26T08:39:40.401Z</time></trkpt><trkpt lat="43.7583203" lon="12.6890601"><ele>334.25</ele><time>2026-04-26T08:39:42.404Z</time></trkpt><trkpt lat="43.7583084" lon="12.688925"><ele>332.5</ele><time>2026-04-26T08:39:43.405Z</time></trkpt><trkpt lat="43.7582713" lon="12.6887766"><ele>330.75</ele><time>2026-04-26T08:39:44.406Z</time></trkpt><trkpt lat="43.7582168" lon="12.6886158"><ele>329.0</ele><time>2026-04-26T08:39:45.409Z</time></trkpt><trkpt lat="43.758151" lon="12.6884411"><ele>327.0</ele><time>2026-04-26T08:39:46.404Z</time></trkpt><trkpt lat="43.7580875" lon="12.6882698"><ele>325.0</ele><time>2026-04-26T08:39:47.408Z</time></trkpt><trkpt lat="43.7580347" lon="12.6880958"><ele>323.0</ele><time>2026-04-26T08:39:48.408Z</time></trkpt><trkpt lat="43.757985" lon="12.687919"><ele>321.0</ele><time>2026-04-26T08:39:49.408Z</time></trkpt><trkpt lat="43.7579414" lon="12.6877437"><ele>317.25</ele><time>2026-04-26T08:39:50.408Z</time></trkpt><trkpt lat="43.7578991" lon="12.6875665"><ele>313.5</ele><time>2026-04-26T08:39:51.41Z</time></trkpt><trkpt lat="43.7578473" lon="12.6873956"><ele>309.75</ele><time>2026-04-26T08:39:52.411Z</time></trkpt><trkpt lat="43.7577799" lon="12.6872238"><ele>306.0</ele><time>2026-04-26T08:39:53.408Z</time></trkpt><trkpt lat="43.7577028" lon="12.6870435"><ele>309.3333333333333</ele><time>2026-04-26T08:39:54.409Z</time></trkpt><trkpt lat="43.7576313" lon="12.6868477"><ele>312.66666666666663</ele><time>2026-04-26T08:39:55.405Z</time></trkpt><trkpt lat="43.7575705" lon="12.6866346"><ele>316.0</ele><time>2026-04-26T08:39:56.405Z</time></trkpt><trkpt lat="43.7575269" lon="12.6864179"><ele>316.0</ele><time>2026-04-26T08:39:57.408Z</time></trkpt><trkpt lat="43.7574945" lon="12.6862028"><ele>316.0</ele><time>2026-04-26T08:39:58.404Z</time></trkpt><trkpt lat="43.7574636" lon="12.6859965"><ele>316.0</ele><time>2026-04-26T08:39:59.408Z</time></trkpt><trkpt lat="43.7574417" lon="12.6858"><ele>315.3333333333333</ele><time>2026-04-26T08:40:00.406Z</time></trkpt><trkpt lat="43.7574303" lon="12.6856084"><ele>314.6666666666667</ele><time>2026-04-26T08:40:01.403Z</time></trkpt><trkpt lat="43.7574665" lon="12.6852348"><ele>314.0</ele><time>2026-04-26T08:40:03.404Z</time></trkpt><trkpt lat="43.7575353" lon="12.6850585"><ele>315.0</ele><time>2026-04-26T08:40:04.407Z</time></trkpt><trkpt lat="43.7576154" lon="12.6848886"><ele>316.0</ele><time>2026-04-26T08:40:05.407Z</time></trkpt><trkpt lat="43.7577073" lon="12.6847304"><ele>317.0</ele><time>2026-04-26T08:40:06.407Z</time></trkpt><trkpt lat="43.7578075" lon="12.6845865"><ele>318.0</ele><time>2026-04-26T08:40:07.41Z</time></trkpt><trkpt lat="43.7579198" lon="12.6844654"><ele>318.25</ele><time>2026-04-26T08:40:08.411Z</time></trkpt><trkpt lat="43.7580311" lon="12.6843498"><ele>318.5</ele><time>2026-04-26T08:40:09.408Z</time></trkpt><trkpt lat="43.7581363" lon="12.6842515"><ele>318.75</ele><time>2026-04-26T08:40:10.403Z</time></trkpt><trkpt lat="43.7582313" lon="12.6841806"><ele>319.0</ele><time>2026-04-26T08:40:11.409Z</time></trkpt><trkpt lat="43.7583255" lon="12.6841559"><ele>319.0</ele><time>2026-04-26T08:40:12.405Z</time></trkpt><trkpt lat="43.7584241" lon="12.6841557"><ele>319.0</ele><time>2026-04-26T08:40:13.406Z</time></trkpt><trkpt lat="43.7585243" lon="12.6841718"><ele>319.0</ele><time>2026-04-26T08:40:14.407Z</time></trkpt><trkpt lat="43.7586317" lon="12.6842012"><ele>319.0</ele><time>2026-04-26T08:40:15.406Z</time></trkpt><trkpt lat="43.7587497" lon="12.6842306"><ele>319.0</ele><time>2026-04-26T08:40:16.408Z</time></trkpt><trkpt lat="43.7588742" lon="12.6842671"><ele>317.75</ele><time>2026-04-26T08:40:17.411Z</time></trkpt><trkpt lat="43.7590124" lon="12.6843252"><ele>316.5</ele><time>2026-04-26T08:40:18.41Z</time></trkpt><trkpt lat="43.7591465" lon="12.6843755"><ele>315.25</ele><time>2026-04-26T08:40:19.408Z</time></trkpt><trkpt lat="43.7592719" lon="12.6844209"><ele>314.0</ele><time>2026-04-26T08:40:20.411Z</time></trkpt><trkpt lat="43.7593888" lon="12.6844669"><ele>314.25</ele><time>2026-04-26T08:40:21.41Z</time></trkpt><trkpt lat="43.7594851" lon="12.684508"><ele>314.5</ele><time>2026-04-26T08:40:22.413Z</time></trkpt><trkpt lat="43.7596776" lon="12.6844965"><ele>314.75</ele><time>2026-04-26T08:40:24.407Z</time></trkpt><trkpt lat="43.759757" lon="12.6844334"><ele>315.0</ele><time>2026-04-26T08:40:25.405Z</time></trkpt><trkpt lat="43.7598067" lon="12.6843402"><ele>315.0</ele><time>2026-04-26T08:40:26.404Z</time></trkpt><trkpt lat="43.759817" lon="12.6842386"><ele>315.0</ele><time>2026-04-26T08:40:27.404Z</time></trkpt><trkpt lat="43.7597922" lon="12.6841264"><ele>315.0</ele><time>2026-04-26T08:40:28.405Z</time></trkpt><trkpt lat="43.7597385" lon="12.6840013"><ele>315.0</ele><time>2026-04-26T08:40:29.41Z</time></trkpt><trkpt lat="43.7596712" lon="12.6838646"><ele>315.0</ele><time>2026-04-26T08:40:30.406Z</time></trkpt><trkpt lat="43.7595939" lon="12.6837101"><ele>315.25</ele><time>2026-04-26T08:40:31.408Z</time></trkpt><trkpt lat="43.759505" lon="12.6835502"><ele>315.5</ele><time>2026-04-26T08:40:32.41Z</time></trkpt><trkpt lat="43.7594093" lon="12.683402"><ele>315.75</ele><time>2026-04-26T08:40:33.404Z</time></trkpt><trkpt lat="43.759309" lon="12.683263"><ele>316.0</ele><time>2026-04-26T08:40:34.406Z</time></trkpt><trkpt lat="43.7592108" lon="12.6831205"><ele>313.5</ele><time>2026-04-26T08:40:35.407Z</time></trkpt><trkpt lat="43.759114" lon="12.6829735"><ele>311.0</ele><time>2026-04-26T08:40:36.407Z</time></trkpt><trkpt lat="43.7590074" lon="12.6828339"><ele>308.5</ele><time>2026-04-26T08:40:37.403Z</time></trkpt><trkpt lat="43.7588992" lon="12.6826999"><ele>306.0</ele><time>2026-04-26T08:40:38.404Z</time></trkpt><trkpt lat="43.7587809" lon="12.6825557"><ele>306.0</ele><time>2026-04-26T08:40:39.407Z</time></trkpt><trkpt lat="43.7586586" lon="12.682412"><ele>306.0</ele><time>2026-04-26T08:40:40.404Z</time></trkpt><trkpt lat="43.7585388" lon="12.6822611"><ele>306.0</ele><time>2026-04-26T08:40:41.402Z</time></trkpt><trkpt lat="43.758425" lon="12.6821176"><ele>300.3333333333333</ele><time>2026-04-26T08:40:42.408Z</time></trkpt><trkpt lat="43.7583157" lon="12.6819721"><ele>294.66666666666663</ele><time>2026-04-26T08:40:43.405Z</time></trkpt><trkpt lat="43.7581063" lon="12.6816848"><ele>289.0</ele><time>2026-04-26T08:40:45.404Z</time></trkpt><trkpt lat="43.7579865" lon="12.6815586"><ele>287.0</ele><time>2026-04-26T08:40:46.406Z</time></trkpt><trkpt lat="43.7578463" lon="12.6814401"><ele>285.0</ele><time>2026-04-26T08:40:47.406Z</time></trkpt><trkpt lat="43.7576905" lon="12.6813361"><ele>283.0</ele><time>2026-04-26T08:40:48.402Z</time></trkpt><trkpt lat="43.7575121" lon="12.6812488"><ele>280.3333333333333</ele><time>2026-04-26T08:40:49.407Z</time></trkpt><trkpt lat="43.7573384" lon="12.681157"><ele>277.6666666666667</ele><time>2026-04-26T08:40:50.406Z</time></trkpt><trkpt lat="43.7571646" lon="12.6810709"><ele>275.0</ele><time>2026-04-26T08:40:51.409Z</time></trkpt><trkpt lat="43.7569933" lon="12.6809849"><ele>270.0</ele><time>2026-04-26T08:40:52.407Z</time></trkpt><trkpt lat="43.7568271" lon="12.6808848"><ele>265.0</ele><time>2026-04-26T08:40:53.409Z</time></trkpt><trkpt lat="43.7566769" lon="12.6807761"><ele>260.0</ele><time>2026-04-26T08:40:54.404Z</time></trkpt><trkpt lat="43.7565406" lon="12.6806819"><ele>260.0</ele><time>2026-04-26T08:40:55.41Z</time></trkpt><trkpt lat="43.7564194" lon="12.6805909"><ele>260.0</ele><time>2026-04-26T08:40:56.405Z</time></trkpt><trkpt lat="43.7563109" lon="12.680477"><ele>260.0</ele><time>2026-04-26T08:40:57.406Z</time></trkpt><trkpt lat="43.7562187" lon="12.6803274"><ele>260.0</ele><time>2026-04-26T08:40:58.407Z</time></trkpt><trkpt lat="43.7561402" lon="12.680134"><ele>259.33333333333337</ele><time>2026-04-26T08:40:59.406Z</time></trkpt><trkpt lat="43.7560667" lon="12.6799301"><ele>258.6666666666667</ele><time>2026-04-26T08:41:00.404Z</time></trkpt><trkpt lat="43.7559864" lon="12.6797238"><ele>258.0</ele><time>2026-04-26T08:41:01.407Z</time></trkpt><trkpt lat="43.7559009" lon="12.6795318"><ele>254.0</ele><time>2026-04-26T08:41:02.412Z</time></trkpt><trkpt lat="43.7558257" lon="12.6793463"><ele>250.0</ele><time>2026-04-26T08:41:03.409Z</time></trkpt><trkpt lat="43.7557718" lon="12.6791472"><ele>246.0</ele><time>2026-04-26T08:41:04.403Z</time></trkpt><trkpt lat="43.7556649" lon="12.6787342"><ele>245.0</ele><time>2026-04-26T08:41:06.406Z</time></trkpt><trkpt lat="43.7556267" lon="12.6785039"><ele>244.0</ele><time>2026-04-26T08:41:07.408Z</time></trkpt><trkpt lat="43.7555766" lon="12.6782789"><ele>243.0</ele><time>2026-04-26T08:41:08.405Z</time></trkpt><trkpt lat="43.7555321" lon="12.6780739"><ele>243.0</ele><time>2026-04-26T08:41:09.41Z</time></trkpt><trkpt lat="43.7554976" lon="12.6778878"><ele>243.0</ele><time>2026-04-26T08:41:10.408Z</time></trkpt><trkpt lat="43.7554771" lon="12.6776979"><ele>243.0</ele><time>2026-04-26T08:41:11.403Z</time></trkpt><trkpt lat="43.755466" lon="12.6774947"><ele>243.0</ele><time>2026-04-26T08:41:12.404Z</time></trkpt><trkpt lat="43.7554685" lon="12.6772833"><ele>241.33333333333331</ele><time>2026-04-26T08:41:13.404Z</time></trkpt><trkpt lat="43.7554818" lon="12.6770536"><ele>239.66666666666666</ele><time>2026-04-26T08:41:14.405Z</time></trkpt><trkpt lat="43.7554916" lon="12.6768133"><ele>238.0</ele><time>2026-04-26T08:41:15.411Z</time></trkpt><trkpt lat="43.7555318" lon="12.6765753"><ele>237.66666666666666</ele><time>2026-04-26T08:41:16.403Z</time></trkpt><trkpt lat="43.7555556" lon="12.6763254"><ele>237.33333333333331</ele><time>2026-04-26T08:41:17.408Z</time></trkpt><trkpt lat="43.755571" lon="12.6760765"><ele>237.0</ele><time>2026-04-26T08:41:18.408Z</time></trkpt><trkpt lat="43.7555705" lon="12.6758332"><ele>235.0</ele><time>2026-04-26T08:41:19.406Z</time></trkpt><trkpt lat="43.7555555" lon="12.6755983"><ele>233.0</ele><time>2026-04-26T08:41:20.408Z</time></trkpt><trkpt lat="43.7555313" lon="12.6753688"><ele>231.0</ele><time>2026-04-26T08:41:21.414Z</time></trkpt><trkpt lat="43.7555058" lon="12.6751446"><ele>231.0</ele><time>2026-04-26T08:41:22.412Z</time></trkpt><trkpt lat="43.7554881" lon="12.6749358"><ele>231.0</ele><time>2026-04-26T08:41:23.41Z</time></trkpt><trkpt lat="43.7554756" lon="12.6747367"><ele>231.0</ele><time>2026-04-26T08:41:24.41Z</time></trkpt><trkpt lat="43.755463" lon="12.6745421"><ele>231.0</ele><time>2026-04-26T08:41:25.408Z</time></trkpt><trkpt lat="43.7553601" lon="12.6741895"><ele>230.25</ele><time>2026-04-26T08:41:27.408Z</time></trkpt><trkpt lat="43.7552881" lon="12.6740187"><ele>229.5</ele><time>2026-04-26T08:41:28.404Z</time></trkpt><trkpt lat="43.75522" lon="12.6738432"><ele>228.75</ele><time>2026-04-26T08:41:29.409Z</time></trkpt><trkpt lat="43.7551703" lon="12.6736592"><ele>228.0</ele><time>2026-04-26T08:41:30.406Z</time></trkpt><trkpt lat="43.7551317" lon="12.673463"><ele>221.66666666666669</ele><time>2026-04-26T08:41:31.41Z</time></trkpt><trkpt lat="43.7551007" lon="12.6732578"><ele>215.33333333333334</ele><time>2026-04-26T08:41:32.411Z</time></trkpt><trkpt lat="43.7550702" lon="12.6730514"><ele>209.0</ele><time>2026-04-26T08:41:33.41Z</time></trkpt><trkpt lat="43.7550373" lon="12.6728471"><ele>208.75</ele><time>2026-04-26T08:41:34.406Z</time></trkpt><trkpt lat="43.7550053" lon="12.672649"><ele>208.5</ele><time>2026-04-26T08:41:35.405Z</time></trkpt><trkpt lat="43.7549724" lon="12.6724525"><ele>208.25</ele><time>2026-04-26T08:41:36.405Z</time></trkpt><trkpt lat="43.7549424" lon="12.6722667"><ele>208.0</ele><time>2026-04-26T08:41:37.408Z</time></trkpt><trkpt lat="43.7549172" lon="12.6720877"><ele>207.25</ele><time>2026-04-26T08:41:38.408Z</time></trkpt><trkpt lat="43.7548897" lon="12.6719131"><ele>206.5</ele><time>2026-04-26T08:41:39.401Z</time></trkpt><trkpt lat="43.7548677" lon="12.6717352"><ele>205.75</ele><time>2026-04-26T08:41:40.402Z</time></trkpt><trkpt lat="43.7548512" lon="12.671571"><ele>205.0</ele><time>2026-04-26T08:41:41.403Z</time></trkpt><trkpt lat="43.7548332" lon="12.6714118"><ele>205.0</ele><time>2026-04-26T08:41:42.409Z</time></trkpt><trkpt lat="43.754811" lon="12.6712584"><ele>205.0</ele><time>2026-04-26T08:41:43.405Z</time></trkpt><trkpt lat="43.7547721" lon="12.6711122"><ele>205.0</ele><time>2026-04-26T08:41:44.406Z</time></trkpt><trkpt lat="43.7547293" lon="12.6709755"><ele>205.0</ele><time>2026-04-26T08:41:45.41Z</time></trkpt><trkpt lat="43.7546985" lon="12.6708424"><ele>205.0</ele><time>2026-04-26T08:41:46.406Z</time></trkpt><trkpt lat="43.7546922" lon="12.6705288"><ele>205.0</ele><time>2026-04-26T08:41:48.408Z</time></trkpt><trkpt lat="43.754708" lon="12.6703698"><ele>205.0</ele><time>2026-04-26T08:41:49.406Z</time></trkpt><trkpt lat="43.7547271" lon="12.6702132"><ele>205.0</ele><time>2026-04-26T08:41:50.407Z</time></trkpt><trkpt lat="43.7547506" lon="12.6700628"><ele>205.0</ele><time>2026-04-26T08:41:51.407Z</time></trkpt><trkpt lat="43.7547706" lon="12.6699289"><ele>205.0</ele><time>2026-04-26T08:41:52.405Z</time></trkpt><trkpt lat="43.7547906" lon="12.6697931"><ele>203.99999999999997</ele><time>2026-04-26T08:41:53.403Z</time></trkpt><trkpt lat="43.7548074" lon="12.66966"><ele>203.0</ele><time>2026-04-26T08:41:54.405Z</time></trkpt><trkpt lat="43.7548135" lon="12.6695341"><ele>202.0</ele><time>2026-04-26T08:41:55.404Z</time></trkpt><trkpt lat="43.7548139" lon="12.6694165"><ele>201.0</ele><time>2026-04-26T08:41:56.403Z</time></trkpt><trkpt lat="43.7548089" lon="12.6693183"><ele>199.99999999999997</ele><time>2026-04-26T08:41:57.407Z</time></trkpt><trkpt lat="43.7547665" lon="12.6691885"><ele>199.0</ele><time>2026-04-26T08:41:59.408Z</time></trkpt><trkpt lat="43.7546903" lon="12.6691346"><ele>198.2</ele><time>2026-04-26T08:42:01.409Z</time></trkpt><trkpt lat="43.7545719" lon="12.6690421"><ele>197.39999999999998</ele><time>2026-04-26T08:42:03.404Z</time></trkpt><trkpt lat="43.7545183" lon="12.6689802"><ele>196.6</ele><time>2026-04-26T08:42:04.406Z</time></trkpt><trkpt lat="43.7544701" lon="12.6688948"><ele>195.8</ele><time>2026-04-26T08:42:05.405Z</time></trkpt><trkpt lat="43.7544408" lon="12.668781"><ele>195.0</ele><time>2026-04-26T08:42:06.407Z</time></trkpt><trkpt lat="43.7544275" lon="12.6686596"><ele>193.5</ele><time>2026-04-26T08:42:07.405Z</time></trkpt><trkpt lat="43.7544049" lon="12.668416"><ele>192.0</ele><time>2026-04-26T08:42:09.402Z</time></trkpt><trkpt lat="43.7543899" lon="12.6682854"><ele>190.5</ele><time>2026-04-26T08:42:10.4Z</time></trkpt><trkpt lat="43.7543806" lon="12.6681594"><ele>189.0</ele><time>2026-04-26T08:42:11.406Z</time></trkpt><trkpt lat="43.7543789" lon="12.6680307"><ele>189.0</ele><time>2026-04-26T08:42:12.404Z</time></trkpt><trkpt lat="43.7543975" lon="12.6679083"><ele>189.0</ele><time>2026-04-26T08:42:13.405Z</time></trkpt><trkpt lat="43.7544407" lon="12.6677952"><ele>189.0</ele><time>2026-04-26T08:42:14.409Z</time></trkpt><trkpt lat="43.7544877" lon="12.6676827"><ele>189.0</ele><time>2026-04-26T08:42:15.406Z</time></trkpt><trkpt lat="43.7545337" lon="12.6675797"><ele>189.0</ele><time>2026-04-26T08:42:16.412Z</time></trkpt><trkpt lat="43.7545756" lon="12.667473"><ele>187.16666666666666</ele><time>2026-04-26T08:42:17.405Z</time></trkpt><trkpt lat="43.7546216" lon="12.6673751"><ele>185.33333333333334</ele><time>2026-04-26T08:42:18.404Z</time></trkpt><trkpt lat="43.7546656" lon="12.6672925"><ele>183.5</ele><time>2026-04-26T08:42:19.404Z</time></trkpt><trkpt lat="43.7547304" lon="12.6671911"><ele>181.66666666666669</ele><time>2026-04-26T08:42:21.407Z</time></trkpt><trkpt lat="43.7547753" lon="12.6671226"><ele>179.83333333333334</ele><time>2026-04-26T08:42:23.405Z</time></trkpt><trkpt lat="43.7548128" lon="12.6670512"><ele>178.0</ele><time>2026-04-26T08:42:26.403Z</time></trkpt><trkpt lat="43.7548453" lon="12.6668776"><ele>177.66666666666669</ele><time>2026-04-26T08:42:46.403Z</time></trkpt><trkpt lat="43.7549104" lon="12.6666881"><ele>177.33333333333334</ele><time>2026-04-26T08:42:48.403Z</time></trkpt><trkpt lat="43.7549524" lon="12.6666155"><ele>177.0</ele><time>2026-04-26T08:42:49.407Z</time></trkpt><trkpt lat="43.755007" lon="12.6665474"><ele>176.66666666666666</ele><time>2026-04-26T08:42:50.403Z</time></trkpt><trkpt lat="43.7550744" lon="12.6664993"><ele>176.33333333333331</ele><time>2026-04-26T08:42:51.403Z</time></trkpt><trkpt lat="43.7551399" lon="12.6664546"><ele>176.0</ele><time>2026-04-26T08:42:52.403Z</time></trkpt><trkpt lat="43.7552153" lon="12.6664274"><ele>176.8</ele><time>2026-04-26T08:42:53.41Z</time></trkpt><trkpt lat="43.7553046" lon="12.6664004"><ele>177.60000000000002</ele><time>2026-04-26T08:42:54.408Z</time></trkpt><trkpt lat="43.7553781" lon="12.6663946"><ele>178.4</ele><time>2026-04-26T08:42:55.403Z</time></trkpt><trkpt lat="43.7554504" lon="12.666415"><ele>179.2</ele><time>2026-04-26T08:42:56.413Z</time></trkpt><trkpt lat="43.7555628" lon="12.6664643"><ele>180.0</ele><time>2026-04-26T08:42:58.408Z</time></trkpt><trkpt lat="43.7556569" lon="12.6664963"><ele>180.0</ele><time>2026-04-26T08:42:59.403Z</time></trkpt><trkpt lat="43.7557701" lon="12.6665505"><ele>180.0</ele><time>2026-04-26T08:43:00.411Z</time></trkpt><trkpt lat="43.7559042" lon="12.666603"><ele>180.0</ele><time>2026-04-26T08:43:01.408Z</time></trkpt><trkpt lat="43.7560436" lon="12.6666519"><ele>180.0</ele><time>2026-04-26T08:43:02.407Z</time></trkpt><trkpt lat="43.7561763" lon="12.6667008"><ele>179.75</ele><time>2026-04-26T08:43:03.412Z</time></trkpt><trkpt lat="43.7563136" lon="12.6667417"><ele>179.5</ele><time>2026-04-26T08:43:04.407Z</time></trkpt><trkpt lat="43.7564627" lon="12.6667828"><ele>179.25</ele><time>2026-04-26T08:43:05.407Z</time></trkpt><trkpt lat="43.7566165" lon="12.666826"><ele>179.0</ele><time>2026-04-26T08:43:06.403Z</time></trkpt><trkpt lat="43.7567721" lon="12.6668571"><ele>177.0</ele><time>2026-04-26T08:43:07.405Z</time></trkpt><trkpt lat="43.7570897" lon="12.6668837"><ele>175.0</ele><time>2026-04-26T08:43:09.404Z</time></trkpt><trkpt lat="43.7572367" lon="12.6668827"><ele>175.0</ele><time>2026-04-26T08:43:10.404Z</time></trkpt><trkpt lat="43.7573749" lon="12.6668735"><ele>175.0</ele><time>2026-04-26T08:43:11.407Z</time></trkpt><trkpt lat="43.7575147" lon="12.66685"><ele>175.0</ele><time>2026-04-26T08:43:12.408Z</time></trkpt><trkpt lat="43.7576438" lon="12.6668391"><ele>175.0</ele><time>2026-04-26T08:43:13.411Z</time></trkpt><trkpt lat="43.757777" lon="12.6668404"><ele>174.25</ele><time>2026-04-26T08:43:14.405Z</time></trkpt><trkpt lat="43.7579101" lon="12.6668514"><ele>173.5</ele><time>2026-04-26T08:43:15.413Z</time></trkpt><trkpt lat="43.7580411" lon="12.6668922"><ele>172.75</ele><time>2026-04-26T08:43:16.405Z</time></trkpt><trkpt lat="43.7581694" lon="12.6669653"><ele>172.0</ele><time>2026-04-26T08:43:17.403Z</time></trkpt><trkpt lat="43.758291" lon="12.6670574"><ele>172.0</ele><time>2026-04-26T08:43:18.404Z</time></trkpt><trkpt lat="43.7584029" lon="12.6671689"><ele>172.0</ele><time>2026-04-26T08:43:19.406Z</time></trkpt><trkpt lat="43.7585116" lon="12.6672799"><ele>172.0</ele><time>2026-04-26T08:43:20.407Z</time></trkpt><trkpt lat="43.758623" lon="12.6673907"><ele>172.0</ele><time>2026-04-26T08:43:21.408Z</time></trkpt><trkpt lat="43.7587419" lon="12.6674836"><ele>171.33333333333334</ele><time>2026-04-26T08:43:22.409Z</time></trkpt><trkpt lat="43.7588784" lon="12.6675508"><ele>170.66666666666666</ele><time>2026-04-26T08:43:23.407Z</time></trkpt><trkpt lat="43.7590516" lon="12.6675828"><ele>170.0</ele><time>2026-04-26T08:43:24.406Z</time></trkpt><trkpt lat="43.7592437" lon="12.667606"><ele>172.0</ele><time>2026-04-26T08:43:25.404Z</time></trkpt><trkpt lat="43.7594209" lon="12.6676313"><ele>174.0</ele><time>2026-04-26T08:43:26.404Z</time></trkpt><trkpt lat="43.7595988" lon="12.6676557"><ele>176.0</ele><time>2026-04-26T08:43:27.411Z</time></trkpt><trkpt lat="43.7597823" lon="12.6676833"><ele>176.0</ele><time>2026-04-26T08:43:28.409Z</time></trkpt><trkpt lat="43.7601535" lon="12.6677269"><ele>176.0</ele><time>2026-04-26T08:43:30.404Z</time></trkpt><trkpt lat="43.7603335" lon="12.66775"><ele>178.0</ele><time>2026-04-26T08:43:31.408Z</time></trkpt><trkpt lat="43.7605126" lon="12.6677752"><ele>180.0</ele><time>2026-04-26T08:43:32.401Z</time></trkpt><trkpt lat="43.7606901" lon="12.6678094"><ele>182.0</ele><time>2026-04-26T08:43:33.401Z</time></trkpt><trkpt lat="43.7608689" lon="12.6678628"><ele>177.66666666666666</ele><time>2026-04-26T08:43:34.402Z</time></trkpt><trkpt lat="43.761047" lon="12.667934"><ele>173.33333333333334</ele><time>2026-04-26T08:43:35.404Z</time></trkpt><trkpt lat="43.7612185" lon="12.6680241"><ele>169.0</ele><time>2026-04-26T08:43:36.404Z</time></trkpt><trkpt lat="43.7613848" lon="12.6681215"><ele>169.0</ele><time>2026-04-26T08:43:37.404Z</time></trkpt><trkpt lat="43.7615447" lon="12.668234"><ele>169.0</ele><time>2026-04-26T08:43:38.408Z</time></trkpt><trkpt lat="43.7616866" lon="12.6683728"><ele>169.0</ele><time>2026-04-26T08:43:39.404Z</time></trkpt><trkpt lat="43.7618232" lon="12.6685269"><ele>167.66666666666669</ele><time>2026-04-26T08:43:40.409Z</time></trkpt><trkpt lat="43.7619606" lon="12.6686906"><ele>166.33333333333334</ele><time>2026-04-26T08:43:41.403Z</time></trkpt><trkpt lat="43.7620997" lon="12.6688609"><ele>165.0</ele><time>2026-04-26T08:43:42.408Z</time></trkpt><trkpt lat="43.7622366" lon="12.6690291"><ele>165.0</ele><time>2026-04-26T08:43:43.405Z</time></trkpt><trkpt lat="43.7623765" lon="12.6691871"><ele>165.0</ele><time>2026-04-26T08:43:44.407Z</time></trkpt><trkpt lat="43.7625191" lon="12.6693371"><ele>165.0</ele><time>2026-04-26T08:43:45.404Z</time></trkpt><trkpt lat="43.7626589" lon="12.6694625"><ele>162.33333333333334</ele><time>2026-04-26T08:43:46.406Z</time></trkpt><trkpt lat="43.762825" lon="12.6695327"><ele>159.66666666666669</ele><time>2026-04-26T08:43:47.403Z</time></trkpt><trkpt lat="43.7629948" lon="12.6695793"><ele>157.0</ele><time>2026-04-26T08:43:48.406Z</time></trkpt><trkpt lat="43.7631695" lon="12.6696167"><ele>157.0</ele><time>2026-04-26T08:43:49.41Z</time></trkpt><trkpt lat="43.7635462" lon="12.6696742"><ele>157.0</ele><time>2026-04-26T08:43:51.411Z</time></trkpt><trkpt lat="43.763743" lon="12.6696958"><ele>157.0</ele><time>2026-04-26T08:43:52.412Z</time></trkpt><trkpt lat="43.7639332" lon="12.6697153"><ele>157.0</ele><time>2026-04-26T08:43:53.404Z</time></trkpt><trkpt lat="43.7641221" lon="12.6697054"><ele>157.0</ele><time>2026-04-26T08:43:54.404Z</time></trkpt><trkpt lat="43.7643027" lon="12.6696881"><ele>157.0</ele><time>2026-04-26T08:43:55.404Z</time></trkpt><trkpt lat="43.7644811" lon="12.6696564"><ele>157.0</ele><time>2026-04-26T08:43:56.407Z</time></trkpt><trkpt lat="43.7646568" lon="12.669603"><ele>157.0</ele><time>2026-04-26T08:43:57.406Z</time></trkpt><trkpt lat="43.7648306" lon="12.6695397"><ele>157.0</ele><time>2026-04-26T08:43:58.409Z</time></trkpt><trkpt lat="43.7650024" lon="12.6694862"><ele>157.0</ele><time>2026-04-26T08:43:59.406Z</time></trkpt><trkpt lat="43.7651652" lon="12.6694446"><ele>157.0</ele><time>2026-04-26T08:44:00.403Z</time></trkpt><trkpt lat="43.765328" lon="12.6694241"><ele>156.66666666666669</ele><time>2026-04-26T08:44:01.403Z</time></trkpt><trkpt lat="43.7654912" lon="12.6694312"><ele>156.33333333333334</ele><time>2026-04-26T08:44:02.403Z</time></trkpt><trkpt lat="43.7656576" lon="12.66947"><ele>156.0</ele><time>2026-04-26T08:44:03.404Z</time></trkpt><trkpt lat="43.7658165" lon="12.6695434"><ele>156.0</ele><time>2026-04-26T08:44:04.402Z</time></trkpt><trkpt lat="43.7659694" lon="12.6696485"><ele>156.0</ele><time>2026-04-26T08:44:05.409Z</time></trkpt><trkpt lat="43.7661137" lon="12.6697896"><ele>156.0</ele><time>2026-04-26T08:44:06.404Z</time></trkpt><trkpt lat="43.7662468" lon="12.6699405"><ele>156.66666666666666</ele><time>2026-04-26T08:44:07.406Z</time></trkpt><trkpt lat="43.7663683" lon="12.6700894"><ele>157.33333333333331</ele><time>2026-04-26T08:44:08.405Z</time></trkpt><trkpt lat="43.7664909" lon="12.6702338"><ele>158.0</ele><time>2026-04-26T08:44:09.407Z</time></trkpt><trkpt lat="43.7666151" lon="12.6703792"><ele>155.5</ele><time>2026-04-26T08:44:10.406Z</time></trkpt><trkpt lat="43.7668565" lon="12.6706788"><ele>153.0</ele><time>2026-04-26T08:44:12.404Z</time></trkpt><trkpt lat="43.7669745" lon="12.6708359"><ele>153.33333333333334</ele><time>2026-04-26T08:44:13.405Z</time></trkpt><trkpt lat="43.7670951" lon="12.6709981"><ele>153.66666666666669</ele><time>2026-04-26T08:44:14.406Z</time></trkpt><trkpt lat="43.7672195" lon="12.6711556"><ele>154.0</ele><time>2026-04-26T08:44:15.407Z</time></trkpt><trkpt lat="43.7673513" lon="12.6712971"><ele>154.0</ele><time>2026-04-26T08:44:16.403Z</time></trkpt><trkpt lat="43.7674943" lon="12.6714295"><ele>154.0</ele><time>2026-04-26T08:44:17.409Z</time></trkpt><trkpt lat="43.7676443" lon="12.6715545"><ele>154.0</ele><time>2026-04-26T08:44:18.405Z</time></trkpt><trkpt lat="43.7678047" lon="12.6716641"><ele>154.33333333333334</ele><time>2026-04-26T08:44:19.407Z</time></trkpt><trkpt lat="43.767972" lon="12.6717568"><ele>154.66666666666666</ele><time>2026-04-26T08:44:20.405Z</time></trkpt><trkpt lat="43.768143" lon="12.6718402"><ele>155.0</ele><time>2026-04-26T08:44:21.404Z</time></trkpt><trkpt lat="43.7683179" lon="12.6719202"><ele>154.33333333333331</ele><time>2026-04-26T08:44:22.405Z</time></trkpt><trkpt lat="43.7684896" lon="12.6719959"><ele>153.66666666666666</ele><time>2026-04-26T08:44:23.411Z</time></trkpt><trkpt lat="43.7686546" lon="12.67207"><ele>153.0</ele><time>2026-04-26T08:44:24.409Z</time></trkpt><trkpt lat="43.7688128" lon="12.6721402"><ele>152.66666666666666</ele><time>2026-04-26T08:44:25.407Z</time></trkpt><trkpt lat="43.7689707" lon="12.6722086"><ele>152.33333333333331</ele><time>2026-04-26T08:44:26.404Z</time></trkpt><trkpt lat="43.7691206" lon="12.6722764"><ele>152.0</ele><time>2026-04-26T08:44:27.407Z</time></trkpt><trkpt lat="43.7692732" lon="12.672344"><ele>151.33333333333331</ele><time>2026-04-26T08:44:28.405Z</time></trkpt><trkpt lat="43.7694277" lon="12.6724146"><ele>150.66666666666666</ele><time>2026-04-26T08:44:29.406Z</time></trkpt><trkpt lat="43.7695908" lon="12.6724861"><ele>150.0</ele><time>2026-04-26T08:44:30.406Z</time></trkpt><trkpt lat="43.7697529" lon="12.6725584"><ele>150.0</ele><time>2026-04-26T08:44:31.403Z</time></trkpt><trkpt lat="43.7700903" lon="12.6727119"><ele>150.0</ele><time>2026-04-26T08:44:33.404Z</time></trkpt><trkpt lat="43.7702644" lon="12.6727896"><ele>150.0</ele><time>2026-04-26T08:44:34.401Z</time></trkpt><trkpt lat="43.7704403" lon="12.6728679"><ele>150.0</ele><time>2026-04-26T08:44:35.403Z</time></trkpt><trkpt lat="43.7706167" lon="12.6729479"><ele>150.0</ele><time>2026-04-26T08:44:36.406Z</time></trkpt><trkpt lat="43.7707962" lon="12.6730227"><ele>150.0</ele><time>2026-04-26T08:44:37.405Z</time></trkpt><trkpt lat="43.7709732" lon="12.6731039"><ele>150.0</ele><time>2026-04-26T08:44:38.409Z</time></trkpt><trkpt lat="43.7711473" lon="12.6731896"><ele>150.0</ele><time>2026-04-26T08:44:39.406Z</time></trkpt><trkpt lat="43.7713196" lon="12.6732815"><ele>151.33333333333334</ele><time>2026-04-26T08:44:40.409Z</time></trkpt><trkpt lat="43.771486" lon="12.6733782"><ele>152.66666666666669</ele><time>2026-04-26T08:44:41.404Z</time></trkpt><trkpt lat="43.771653" lon="12.6734809"><ele>154.0</ele><time>2026-04-26T08:44:42.403Z</time></trkpt><trkpt lat="43.7718167" lon="12.673594"><ele>151.66666666666669</ele><time>2026-04-26T08:44:43.403Z</time></trkpt><trkpt lat="43.7719764" lon="12.6737049"><ele>149.33333333333334</ele><time>2026-04-26T08:44:44.404Z</time></trkpt><trkpt lat="43.7721322" lon="12.6738134"><ele>147.0</ele><time>2026-04-26T08:44:45.405Z</time></trkpt><trkpt lat="43.7722873" lon="12.6739264"><ele>147.0</ele><time>2026-04-26T08:44:46.407Z</time></trkpt><trkpt lat="43.7724426" lon="12.6740394"><ele>147.0</ele><time>2026-04-26T08:44:47.417Z</time></trkpt><trkpt lat="43.7726004" lon="12.6741569"><ele>147.0</ele><time>2026-04-26T08:44:48.405Z</time></trkpt><trkpt lat="43.7727576" lon="12.6742789"><ele>146.66666666666666</ele><time>2026-04-26T08:44:49.406Z</time></trkpt><trkpt lat="43.7729138" lon="12.6743971"><ele>146.33333333333331</ele><time>2026-04-26T08:44:50.403Z</time></trkpt><trkpt lat="43.7730713" lon="12.6745204"><ele>146.0</ele><time>2026-04-26T08:44:51.404Z</time></trkpt><trkpt lat="43.7732279" lon="12.6746526"><ele>146.5</ele><time>2026-04-26T08:44:52.404Z</time></trkpt><trkpt lat="43.7735312" lon="12.6749378"><ele>147.0</ele><time>2026-04-26T08:44:54.413Z</time></trkpt><trkpt lat="43.7736721" lon="12.6751072"><ele>146.33333333333334</ele><time>2026-04-26T08:44:55.406Z</time></trkpt><trkpt lat="43.7738042" lon="12.6752865"><ele>145.66666666666669</ele><time>2026-04-26T08:44:56.417Z</time></trkpt><trkpt lat="43.7739332" lon="12.6754702"><ele>145.0</ele><time>2026-04-26T08:44:57.405Z</time></trkpt><trkpt lat="43.7740574" lon="12.6756533"><ele>145.0</ele><time>2026-04-26T08:44:58.405Z</time></trkpt><trkpt lat="43.7741773" lon="12.6758356"><ele>145.0</ele><time>2026-04-26T08:44:59.404Z</time></trkpt><trkpt lat="43.7742973" lon="12.6760108"><ele>145.0</ele><time>2026-04-26T08:45:00.407Z</time></trkpt><trkpt lat="43.7744169" lon="12.6761835"><ele>148.0</ele><time>2026-04-26T08:45:01.403Z</time></trkpt><trkpt lat="43.7745426" lon="12.67636"><ele>151.0</ele><time>2026-04-26T08:45:02.402Z</time></trkpt><trkpt lat="43.7746616" lon="12.6765383"><ele>154.0</ele><time>2026-04-26T08:45:03.402Z</time></trkpt><trkpt lat="43.7747592" lon="12.6767429"><ele>150.66666666666669</ele><time>2026-04-26T08:45:04.403Z</time></trkpt><trkpt lat="43.7748384" lon="12.676963"><ele>147.33333333333334</ele><time>2026-04-26T08:45:05.403Z</time></trkpt><trkpt lat="43.774907" lon="12.6771905"><ele>144.0</ele><time>2026-04-26T08:45:06.408Z</time></trkpt><trkpt lat="43.7749687" lon="12.677412"><ele>144.0</ele><time>2026-04-26T08:45:07.409Z</time></trkpt><trkpt lat="43.7750335" lon="12.6776238"><ele>144.0</ele><time>2026-04-26T08:45:08.408Z</time></trkpt><trkpt lat="43.7751104" lon="12.6778305"><ele>144.0</ele><time>2026-04-26T08:45:09.404Z</time></trkpt><trkpt lat="43.7752042" lon="12.678033"><ele>145.0</ele><time>2026-04-26T08:45:10.405Z</time></trkpt><trkpt lat="43.7753186" lon="12.6782267"><ele>146.0</ele><time>2026-04-26T08:45:11.404Z</time></trkpt><trkpt lat="43.775442" lon="12.6784095"><ele>147.0</ele><time>2026-04-26T08:45:12.41Z</time></trkpt><trkpt lat="43.7755639" lon="12.6785883"><ele>144.0</ele><time>2026-04-26T08:45:13.405Z</time></trkpt><trkpt lat="43.7758018" lon="12.6789572"><ele>141.0</ele><time>2026-04-26T08:45:15.405Z</time></trkpt><trkpt lat="43.7759099" lon="12.679169"><ele>141.0</ele><time>2026-04-26T08:45:16.408Z</time></trkpt><trkpt lat="43.7760089" lon="12.6794109"><ele>141.0</ele><time>2026-04-26T08:45:17.411Z</time></trkpt><trkpt lat="43.7761004" lon="12.679657"><ele>141.0</ele><time>2026-04-26T08:45:18.409Z</time></trkpt><trkpt lat="43.7761841" lon="12.6799021"><ele>141.66666666666666</ele><time>2026-04-26T08:45:19.411Z</time></trkpt><trkpt lat="43.7762698" lon="12.6801369"><ele>142.33333333333331</ele><time>2026-04-26T08:45:20.402Z</time></trkpt><trkpt lat="43.7763522" lon="12.6803644"><ele>143.0</ele><time>2026-04-26T08:45:21.403Z</time></trkpt><trkpt lat="43.7764333" lon="12.6805888"><ele>143.0</ele><time>2026-04-26T08:45:22.408Z</time></trkpt><trkpt lat="43.7765073" lon="12.6808016"><ele>143.0</ele><time>2026-04-26T08:45:23.405Z</time></trkpt><trkpt lat="43.7765777" lon="12.6810185"><ele>143.0</ele><time>2026-04-26T08:45:24.404Z</time></trkpt><trkpt lat="43.7766502" lon="12.6812413"><ele>141.33333333333331</ele><time>2026-04-26T08:45:25.404Z</time></trkpt><trkpt lat="43.7767283" lon="12.6814763"><ele>139.66666666666666</ele><time>2026-04-26T08:45:26.411Z</time></trkpt><trkpt lat="43.7767936" lon="12.6817171"><ele>138.0</ele><time>2026-04-26T08:45:27.41Z</time></trkpt><trkpt lat="43.7768517" lon="12.6819644"><ele>143.33333333333334</ele><time>2026-04-26T08:45:28.408Z</time></trkpt><trkpt lat="43.7769024" lon="12.6822005"><ele>148.66666666666669</ele><time>2026-04-26T08:45:29.404Z</time></trkpt><trkpt lat="43.7769479" lon="12.6824329"><ele>154.0</ele><time>2026-04-26T08:45:30.405Z</time></trkpt><trkpt lat="43.7769757" lon="12.6826743"><ele>153.0</ele><time>2026-04-26T08:45:31.408Z</time></trkpt><trkpt lat="43.7769775" lon="12.6829179"><ele>152.0</ele><time>2026-04-26T08:45:32.405Z</time></trkpt><trkpt lat="43.7769668" lon="12.6831543"><ele>151.0</ele><time>2026-04-26T08:45:33.408Z</time></trkpt><trkpt lat="43.7769515" lon="12.6833919"><ele>147.5</ele><time>2026-04-26T08:45:34.406Z</time></trkpt><trkpt lat="43.7769282" lon="12.6838577"><ele>144.0</ele><time>2026-04-26T08:45:36.411Z</time></trkpt><trkpt lat="43.7769151" lon="12.6840905"><ele>144.0</ele><time>2026-04-26T08:45:37.417Z</time></trkpt><trkpt lat="43.7769177" lon="12.6843208"><ele>144.0</ele><time>2026-04-26T08:45:38.41Z</time></trkpt><trkpt lat="43.7769449" lon="12.684538"><ele>144.0</ele><time>2026-04-26T08:45:39.411Z</time></trkpt><trkpt lat="43.7770035" lon="12.68474"><ele>140.33333333333334</ele><time>2026-04-26T08:45:40.405Z</time></trkpt><trkpt lat="43.7770873" lon="12.6849229"><ele>136.66666666666669</ele><time>2026-04-26T08:45:41.409Z</time></trkpt><trkpt lat="43.7771909" lon="12.6850812"><ele>133.0</ele><time>2026-04-26T08:45:42.407Z</time></trkpt><trkpt lat="43.777318" lon="12.6852139"><ele>132.33333333333334</ele><time>2026-04-26T08:45:43.41Z</time></trkpt><trkpt lat="43.777466" lon="12.685341"><ele>131.66666666666666</ele><time>2026-04-26T08:45:44.405Z</time></trkpt><trkpt lat="43.7776183" lon="12.6854691"><ele>131.0</ele><time>2026-04-26T08:45:45.409Z</time></trkpt><trkpt lat="43.7777673" lon="12.6855912"><ele>131.0</ele><time>2026-04-26T08:45:46.407Z</time></trkpt><trkpt lat="43.7779112" lon="12.6857121"><ele>131.0</ele><time>2026-04-26T08:45:47.405Z</time></trkpt><trkpt lat="43.7780534" lon="12.6858361"><ele>131.0</ele><time>2026-04-26T08:45:48.403Z</time></trkpt><trkpt lat="43.7782023" lon="12.6859541"><ele>131.0</ele><time>2026-04-26T08:45:49.405Z</time></trkpt><trkpt lat="43.77834" lon="12.6860736"><ele>131.0</ele><time>2026-04-26T08:45:50.404Z</time></trkpt><trkpt lat="43.7784839" lon="12.6861952"><ele>131.0</ele><time>2026-04-26T08:45:51.406Z</time></trkpt><trkpt lat="43.7786355" lon="12.6863199"><ele>130.66666666666666</ele><time>2026-04-26T08:45:52.405Z</time></trkpt><trkpt lat="43.7787871" lon="12.686444"><ele>130.33333333333334</ele><time>2026-04-26T08:45:53.407Z</time></trkpt><trkpt lat="43.7789462" lon="12.6865724"><ele>130.0</ele><time>2026-04-26T08:45:54.407Z</time></trkpt><trkpt lat="43.7791002" lon="12.6866923"><ele>129.5</ele><time>2026-04-26T08:45:55.405Z</time></trkpt><trkpt lat="43.7794172" lon="12.6869049"><ele>129.0</ele><time>2026-04-26T08:45:57.414Z</time></trkpt><trkpt lat="43.7795651" lon="12.6870031"><ele>129.0</ele><time>2026-04-26T08:45:58.404Z</time></trkpt><trkpt lat="43.7797131" lon="12.6871062"><ele>129.0</ele><time>2026-04-26T08:45:59.404Z</time></trkpt><trkpt lat="43.7798597" lon="12.6871985"><ele>129.0</ele><time>2026-04-26T08:46:00.403Z</time></trkpt><trkpt lat="43.7800008" lon="12.6872858"><ele>129.0</ele><time>2026-04-26T08:46:01.404Z</time></trkpt><trkpt lat="43.780133" lon="12.6873722"><ele>129.0</ele><time>2026-04-26T08:46:02.404Z</time></trkpt><trkpt lat="43.7802609" lon="12.6874573"><ele>129.0</ele><time>2026-04-26T08:46:03.403Z</time></trkpt><trkpt lat="43.7803683" lon="12.6875406"><ele>129.0</ele><time>2026-04-26T08:46:04.406Z</time></trkpt><trkpt lat="43.7804681" lon="12.6876379"><ele>129.25</ele><time>2026-04-26T08:46:05.404Z</time></trkpt><trkpt lat="43.7805681" lon="12.6877404"><ele>129.5</ele><time>2026-04-26T08:46:06.408Z</time></trkpt><trkpt lat="43.7806594" lon="12.6878451"><ele>129.75</ele><time>2026-04-26T08:46:07.409Z</time></trkpt><trkpt lat="43.7807432" lon="12.687947"><ele>130.0</ele><time>2026-04-26T08:46:08.405Z</time></trkpt><trkpt lat="43.7808132" lon="12.6880443"><ele>130.0</ele><time>2026-04-26T08:46:09.405Z</time></trkpt><trkpt lat="43.7808732" lon="12.6881217"><ele>130.0</ele><time>2026-04-26T08:46:10.406Z</time></trkpt><trkpt lat="43.7809585" lon="12.6881534"><ele>130.0</ele><time>2026-04-26T08:46:12.408Z</time></trkpt><trkpt lat="43.7809255" lon="12.6880501"><ele>130.0</ele><time>2026-04-26T08:46:15.405Z</time></trkpt><trkpt lat="43.7808114" lon="12.6879637"><ele>130.0</ele><time>2026-04-26T08:46:17.41Z</time></trkpt><trkpt lat="43.7806412" lon="12.6877406"><ele>130.0</ele><time>2026-04-26T08:46:19.417Z</time></trkpt><trkpt lat="43.7805348" lon="12.6876314"><ele>130.0</ele><time>2026-04-26T08:46:20.407Z</time></trkpt><trkpt lat="43.7804239" lon="12.6875174"><ele>130.0</ele><time>2026-04-26T08:46:21.405Z</time></trkpt><trkpt lat="43.7803114" lon="12.6874174"><ele>130.0</ele><time>2026-04-26T08:46:22.406Z</time></trkpt><trkpt lat="43.7801992" lon="12.6873424"><ele>129.8</ele><time>2026-04-26T08:46:23.408Z</time></trkpt><trkpt lat="43.7800997" lon="12.6872792"><ele>129.6</ele><time>2026-04-26T08:46:24.406Z</time></trkpt><trkpt lat="43.7800165" lon="12.6872305"><ele>129.4</ele><time>2026-04-26T08:46:25.406Z</time></trkpt><trkpt lat="43.7799454" lon="12.687185"><ele>129.2</ele><time>2026-04-26T08:46:26.405Z</time></trkpt><trkpt lat="43.7798814" lon="12.6871421"><ele>129.0</ele><time>2026-04-26T08:46:27.405Z</time></trkpt><trkpt lat="43.7797753" lon="12.6871355"><ele>129.0</ele><time>2026-04-26T08:46:29.403Z</time></trkpt><trkpt lat="43.7797049" lon="12.6872834"><ele>129.0</ele><time>2026-04-26T08:46:31.408Z</time></trkpt><trkpt lat="43.7796662" lon="12.6873921"><ele>129.0</ele><time>2026-04-26T08:46:32.407Z</time></trkpt><trkpt lat="43.7796108" lon="12.6875265"><ele>129.0</ele><time>2026-04-26T08:46:33.407Z</time></trkpt><trkpt lat="43.7795658" lon="12.6876711"><ele>129.0</ele><time>2026-04-26T08:46:34.409Z</time></trkpt><trkpt lat="43.7795333" lon="12.6877838"><ele>129.6</ele><time>2026-04-26T08:46:35.406Z</time></trkpt><trkpt lat="43.7795029" lon="12.6878838"><ele>130.2</ele><time>2026-04-26T08:46:36.408Z</time></trkpt><trkpt lat="43.7794845" lon="12.6879811"><ele>130.79999999999998</ele><time>2026-04-26T08:46:37.41Z</time></trkpt><trkpt lat="43.7794991" lon="12.6880747"><ele>131.4</ele><time>2026-04-26T08:46:38.404Z</time></trkpt><trkpt lat="43.7796709" lon="12.6881994"><ele>132.0</ele><time>2026-04-26T08:46:41.406Z</time></trkpt><trkpt lat="43.779784" lon="12.6881985"><ele>132.0</ele><time>2026-04-26T08:46:42.407Z</time></trkpt><trkpt lat="43.7798831" lon="12.6882181"><ele>132.0</ele><time>2026-04-26T08:46:43.405Z</time></trkpt><trkpt lat="43.7799595" lon="12.6882413"><ele>132.0</ele><time>2026-04-26T08:46:44.402Z</time></trkpt><trkpt lat="43.7800234" lon="12.6882939"><ele>132.0</ele><time>2026-04-26T08:46:45.402Z</time></trkpt><trkpt lat="43.7800696" lon="12.6883663"><ele>132.0</ele><time>2026-04-26T08:46:46.406Z</time></trkpt><trkpt lat="43.7800778" lon="12.6885078"><ele>132.0</ele><time>2026-04-26T08:46:48.406Z</time></trkpt><trkpt lat="43.7800132" lon="12.6885799"><ele>132.0</ele><time>2026-04-26T08:46:50.405Z</time></trkpt><trkpt lat="43.7799473" lon="12.6885744"><ele>132.0</ele><time>2026-04-26T08:46:51.417Z</time></trkpt><trkpt lat="43.7798598" lon="12.6885508"><ele>132.0</ele><time>2026-04-26T08:46:52.409Z</time></trkpt><trkpt lat="43.7797793" lon="12.6885223"><ele>132.0</ele><time>2026-04-26T08:46:53.41Z</time></trkpt><trkpt lat="43.7797063" lon="12.6884942"><ele>132.0</ele><time>2026-04-26T08:46:54.413Z</time></trkpt><trkpt lat="43.7796424" lon="12.6884804"><ele>132.0</ele><time>2026-04-26T08:46:55.41Z</time></trkpt><trkpt lat="43.7795719" lon="12.6884747"><ele>132.0</ele><time>2026-04-26T08:46:56.408Z</time></trkpt><trkpt lat="43.7794777" lon="12.688482"><ele>132.0</ele><time>2026-04-26T08:46:57.406Z</time></trkpt><trkpt lat="43.7793824" lon="12.6884956"><ele>132.0</ele><time>2026-04-26T08:46:58.412Z</time></trkpt><trkpt lat="43.7792907" lon="12.6885289"><ele>132.0</ele><time>2026-04-26T08:46:59.409Z</time></trkpt><trkpt lat="43.7791459" lon="12.6886547"><ele>132.0</ele><time>2026-04-26T08:47:01.408Z</time></trkpt><trkpt lat="43.7790936" lon="12.6887412"><ele>132.0</ele><time>2026-04-26T08:47:02.408Z</time></trkpt><trkpt lat="43.7790637" lon="12.6888397"><ele>134.5</ele><time>2026-04-26T08:47:03.403Z</time></trkpt><trkpt lat="43.779059" lon="12.6889497"><ele>137.0</ele><time>2026-04-26T08:47:04.401Z</time></trkpt><trkpt lat="43.7790775" lon="12.6890605"><ele>139.5</ele><time>2026-04-26T08:47:05.401Z</time></trkpt><trkpt lat="43.7791152" lon="12.6891671"><ele>142.0</ele><time>2026-04-26T08:47:06.408Z</time></trkpt><trkpt lat="43.7791562" lon="12.68927"><ele>144.5</ele><time>2026-04-26T08:47:07.404Z</time></trkpt><trkpt lat="43.779193" lon="12.6893757"><ele>147.0</ele><time>2026-04-26T08:47:08.403Z</time></trkpt><trkpt lat="43.7792338" lon="12.6894798"><ele>147.16666666666666</ele><time>2026-04-26T08:47:09.405Z</time></trkpt><trkpt lat="43.7792812" lon="12.6895864"><ele>147.33333333333334</ele><time>2026-04-26T08:47:10.407Z</time></trkpt><trkpt lat="43.779325" lon="12.6897038"><ele>147.5</ele><time>2026-04-26T08:47:11.408Z</time></trkpt><trkpt lat="43.7793736" lon="12.6898117"><ele>147.66666666666669</ele><time>2026-04-26T08:47:12.408Z</time></trkpt><trkpt lat="43.7794216" lon="12.689903"><ele>147.83333333333334</ele><time>2026-04-26T08:47:13.409Z</time></trkpt><trkpt lat="43.7794539" lon="12.689985"><ele>148.0</ele><time>2026-04-26T08:47:14.408Z</time></trkpt><trkpt lat="43.7794995" lon="12.6900687"><ele>148.0</ele><time>2026-04-26T08:47:15.405Z</time></trkpt><trkpt lat="43.7795426" lon="12.6901611"><ele>148.0</ele><time>2026-04-26T08:47:16.403Z</time></trkpt><trkpt lat="43.7795818" lon="12.6902552"><ele>148.0</ele><time>2026-04-26T08:47:17.408Z</time></trkpt><trkpt lat="43.7796233" lon="12.6903581"><ele>148.0</ele><time>2026-04-26T08:47:18.405Z</time></trkpt><trkpt lat="43.7796621" lon="12.6904691"><ele>148.0</ele><time>2026-04-26T08:47:19.408Z</time></trkpt><trkpt lat="43.7796737" lon="12.6906186"><ele>148.0</ele><time>2026-04-26T08:47:20.406Z</time></trkpt><trkpt lat="43.7797087" lon="12.6909294"><ele>149.6</ele><time>2026-04-26T08:47:22.414Z</time></trkpt><trkpt lat="43.7797205" lon="12.6910742"><ele>151.20000000000002</ele><time>2026-04-26T08:47:23.407Z</time></trkpt><trkpt lat="43.7797384" lon="12.6912298"><ele>152.8</ele><time>2026-04-26T08:47:24.404Z</time></trkpt><trkpt lat="43.7797455" lon="12.6913621"><ele>154.4</ele><time>2026-04-26T08:47:25.405Z</time></trkpt><trkpt lat="43.7797431" lon="12.6914861"><ele>156.0</ele><time>2026-04-26T08:47:26.405Z</time></trkpt><trkpt lat="43.7797275" lon="12.6916224"><ele>156.0</ele><time>2026-04-26T08:47:27.409Z</time></trkpt><trkpt lat="43.7796989" lon="12.6917472"><ele>156.0</ele><time>2026-04-26T08:47:28.403Z</time></trkpt><trkpt lat="43.7796631" lon="12.6918552"><ele>156.0</ele><time>2026-04-26T08:47:29.405Z</time></trkpt><trkpt lat="43.7796167" lon="12.6919562"><ele>156.0</ele><time>2026-04-26T08:47:30.413Z</time></trkpt><trkpt lat="43.7795555" lon="12.6920436"><ele>156.0</ele><time>2026-04-26T08:47:31.41Z</time></trkpt><trkpt lat="43.7794935" lon="12.692104"><ele>156.0</ele><time>2026-04-26T08:47:32.407Z</time></trkpt><trkpt lat="43.7794238" lon="12.6921426"><ele>158.8</ele><time>2026-04-26T08:47:33.404Z</time></trkpt><trkpt lat="43.7793463" lon="12.6921555"><ele>161.6</ele><time>2026-04-26T08:47:34.404Z</time></trkpt><trkpt lat="43.7792701" lon="12.6921589"><ele>164.4</ele><time>2026-04-26T08:47:35.403Z</time></trkpt><trkpt lat="43.7791955" lon="12.692142"><ele>167.2</ele><time>2026-04-26T08:47:36.405Z</time></trkpt><trkpt lat="43.7790999" lon="12.6921053"><ele>170.0</ele><time>2026-04-26T08:47:37.405Z</time></trkpt><trkpt lat="43.7789838" lon="12.6920517"><ele>170.0</ele><time>2026-04-26T08:47:38.409Z</time></trkpt><trkpt lat="43.7788772" lon="12.6919968"><ele>170.0</ele><time>2026-04-26T08:47:39.407Z</time></trkpt><trkpt lat="43.7787728" lon="12.6919486"><ele>170.0</ele><time>2026-04-26T08:47:40.41Z</time></trkpt><trkpt lat="43.7786497" lon="12.6919023"><ele>170.0</ele><time>2026-04-26T08:47:41.411Z</time></trkpt><trkpt lat="43.7784104" lon="12.6918253"><ele>173.25</ele><time>2026-04-26T08:47:43.406Z</time></trkpt><trkpt lat="43.778286" lon="12.691783"><ele>176.5</ele><time>2026-04-26T08:47:44.403Z</time></trkpt><trkpt lat="43.7781658" lon="12.6917358"><ele>179.75</ele><time>2026-04-26T08:47:45.403Z</time></trkpt><trkpt lat="43.7780522" lon="12.6916877"><ele>183.0</ele><time>2026-04-26T08:47:46.407Z</time></trkpt><trkpt lat="43.7779356" lon="12.6916423"><ele>183.0</ele><time>2026-04-26T08:47:47.408Z</time></trkpt><trkpt lat="43.777829" lon="12.6916045"><ele>183.0</ele><time>2026-04-26T08:47:48.408Z</time></trkpt><trkpt lat="43.7777206" lon="12.6915757"><ele>183.0</ele><time>2026-04-26T08:47:49.411Z</time></trkpt><trkpt lat="43.7775987" lon="12.691547"><ele>183.0</ele><time>2026-04-26T08:47:50.404Z</time></trkpt><trkpt lat="43.7774819" lon="12.6915158"><ele>185.75</ele><time>2026-04-26T08:47:51.407Z</time></trkpt><trkpt lat="43.7773771" lon="12.6914806"><ele>188.5</ele><time>2026-04-26T08:47:52.405Z</time></trkpt><trkpt lat="43.7772571" lon="12.6914395"><ele>191.25</ele><time>2026-04-26T08:47:53.404Z</time></trkpt><trkpt lat="43.7771335" lon="12.6914002"><ele>194.0</ele><time>2026-04-26T08:47:54.405Z</time></trkpt><trkpt lat="43.7770234" lon="12.6913678"><ele>194.0</ele><time>2026-04-26T08:47:55.409Z</time></trkpt><trkpt lat="43.7769212" lon="12.6913358"><ele>194.0</ele><time>2026-04-26T08:47:56.411Z</time></trkpt><trkpt lat="43.7768214" lon="12.6913155"><ele>194.0</ele><time>2026-04-26T08:47:57.408Z</time></trkpt><trkpt lat="43.776727" lon="12.691318"><ele>194.0</ele><time>2026-04-26T08:47:58.412Z</time></trkpt><trkpt lat="43.7766331" lon="12.6913459"><ele>194.0</ele><time>2026-04-26T08:47:59.411Z</time></trkpt><trkpt lat="43.7765303" lon="12.6914029"><ele>198.0</ele><time>2026-04-26T08:48:00.402Z</time></trkpt><trkpt lat="43.7764099" lon="12.691482"><ele>202.0</ele><time>2026-04-26T08:48:01.407Z</time></trkpt><trkpt lat="43.7763027" lon="12.6915567"><ele>206.0</ele><time>2026-04-26T08:48:02.404Z</time></trkpt><trkpt lat="43.7761212" lon="12.6917026"><ele>206.0</ele><time>2026-04-26T08:48:04.404Z</time></trkpt><trkpt lat="43.7760331" lon="12.6917595"><ele>206.0</ele><time>2026-04-26T08:48:05.406Z</time></trkpt><trkpt lat="43.775927" lon="12.6917985"><ele>206.0</ele><time>2026-04-26T08:48:06.407Z</time></trkpt><trkpt lat="43.7758112" lon="12.6918311"><ele>206.0</ele><time>2026-04-26T08:48:07.404Z</time></trkpt><trkpt lat="43.7756984" lon="12.6918639"><ele>206.0</ele><time>2026-04-26T08:48:08.405Z</time></trkpt><trkpt lat="43.7755933" lon="12.6918996"><ele>208.0</ele><time>2026-04-26T08:48:09.404Z</time></trkpt><trkpt lat="43.7754825" lon="12.6919198"><ele>210.0</ele><time>2026-04-26T08:48:10.406Z</time></trkpt><trkpt lat="43.7753637" lon="12.6919246"><ele>212.0</ele><time>2026-04-26T08:48:11.403Z</time></trkpt><trkpt lat="43.7752452" lon="12.6919363"><ele>214.0</ele><time>2026-04-26T08:48:12.404Z</time></trkpt><trkpt lat="43.7751256" lon="12.6919512"><ele>216.6</ele><time>2026-04-26T08:48:13.405Z</time></trkpt><trkpt lat="43.7750111" lon="12.6919723"><ele>219.2</ele><time>2026-04-26T08:48:14.408Z</time></trkpt><trkpt lat="43.7749197" lon="12.6920363"><ele>221.79999999999998</ele><time>2026-04-26T08:48:15.404Z</time></trkpt><trkpt lat="43.7748461" lon="12.6921187"><ele>224.39999999999998</ele><time>2026-04-26T08:48:16.407Z</time></trkpt><trkpt lat="43.7747878" lon="12.6922009"><ele>227.0</ele><time>2026-04-26T08:48:17.408Z</time></trkpt><trkpt lat="43.7747386" lon="12.6922699"><ele>227.0</ele><time>2026-04-26T08:48:18.405Z</time></trkpt><trkpt lat="43.7746637" lon="12.6923486"><ele>227.0</ele><time>2026-04-26T08:48:20.403Z</time></trkpt><trkpt lat="43.7746038" lon="12.6924053"><ele>227.0</ele><time>2026-04-26T08:48:22.406Z</time></trkpt><trkpt lat="43.7745144" lon="12.6924973"><ele>227.0</ele><time>2026-04-26T08:48:24.408Z</time></trkpt><trkpt lat="43.7744235" lon="12.6926237"><ele>227.0</ele><time>2026-04-26T08:48:26.411Z</time></trkpt><trkpt lat="43.7743817" lon="12.6926903"><ele>227.33333333333334</ele><time>2026-04-26T08:48:27.411Z</time></trkpt><trkpt lat="43.7742947" lon="12.6927996"><ele>227.66666666666669</ele><time>2026-04-26T08:48:29.406Z</time></trkpt><trkpt lat="43.7741988" lon="12.692855"><ele>228.0</ele><time>2026-04-26T08:48:31.406Z</time></trkpt><trkpt lat="43.7741368" lon="12.6928982"><ele>228.33333333333331</ele><time>2026-04-26T08:48:33.407Z</time></trkpt><trkpt lat="43.7740672" lon="12.6929394"><ele>228.66666666666666</ele><time>2026-04-26T08:48:38.401Z</time></trkpt><trkpt lat="43.7739983" lon="12.6929636"><ele>229.0</ele><time>2026-04-26T08:48:56.406Z</time></trkpt><trkpt lat="43.7738739" lon="12.6930271"><ele>229.0</ele><time>2026-04-26T08:50:40.401Z</time></trkpt><trkpt lat="43.7737104" lon="12.6931454"><ele>229.0</ele><time>2026-04-26T08:50:44.404Z</time></trkpt><trkpt lat="43.7736377" lon="12.693202"><ele>229.0</ele><time>2026-04-26T08:50:46.412Z</time></trkpt><trkpt lat="43.7735531" lon="12.6933221"><ele>229.0</ele><time>2026-04-26T08:50:48.408Z</time></trkpt><trkpt lat="43.7734804" lon="12.6934144"><ele>229.0</ele><time>2026-04-26T08:50:50.402Z</time></trkpt><trkpt lat="43.7734235" lon="12.6934704"><ele>228.99999999999997</ele><time>2026-04-26T08:50:52.406Z</time></trkpt><trkpt lat="43.773321" lon="12.69351"><ele>228.99999999999997</ele><time>2026-04-26T08:50:55.403Z</time></trkpt><trkpt lat="43.7732223" lon="12.6935193"><ele>229.0</ele><time>2026-04-26T08:50:57.404Z</time></trkpt><trkpt lat="43.7731279" lon="12.6935226"><ele>229.0</ele><time>2026-04-26T08:50:59.402Z</time></trkpt><trkpt lat="43.7730126" lon="12.6935067"><ele>229.0</ele><time>2026-04-26T08:51:01.403Z</time></trkpt><trkpt lat="43.7727992" lon="12.6935729"><ele>229.0</ele><time>2026-04-26T08:51:05.404Z</time></trkpt><trkpt lat="43.7727157" lon="12.6936204"><ele>229.0</ele><time>2026-04-26T08:51:07.406Z</time></trkpt><trkpt lat="43.7726181" lon="12.6936858"><ele>229.0</ele><time>2026-04-26T08:51:09.407Z</time></trkpt><trkpt lat="43.7725152" lon="12.6937633"><ele>228.14285714285714</ele><time>2026-04-26T08:51:11.403Z</time></trkpt><trkpt lat="43.7724598" lon="12.6938064"><ele>227.2857142857143</ele><time>2026-04-26T08:51:12.41Z</time></trkpt><trkpt lat="43.7724028" lon="12.6938509"><ele>226.42857142857144</ele><time>2026-04-26T08:51:13.408Z</time></trkpt><trkpt lat="43.7723449" lon="12.693893"><ele>225.57142857142856</ele><time>2026-04-26T08:51:14.404Z</time></trkpt><trkpt lat="43.772281" lon="12.6939311"><ele>224.71428571428572</ele><time>2026-04-26T08:51:15.408Z</time></trkpt><trkpt lat="43.7721998" lon="12.6939799"><ele>223.85714285714286</ele><time>2026-04-26T08:51:17.403Z</time></trkpt><trkpt lat="43.7721318" lon="12.6940051"><ele>223.0</ele><time>2026-04-26T08:51:19.405Z</time></trkpt><trkpt lat="43.7720708" lon="12.6940293"><ele>223.0</ele><time>2026-04-26T08:51:22.404Z</time></trkpt><trkpt lat="43.7719036" lon="12.6940876"><ele>223.0</ele><time>2026-04-26T08:51:25.404Z</time></trkpt><trkpt lat="43.7718321" lon="12.6941095"><ele>223.0</ele><time>2026-04-26T08:51:26.409Z</time></trkpt><trkpt lat="43.7717648" lon="12.6941275"><ele>223.0</ele><time>2026-04-26T08:51:27.4Z</time></trkpt><trkpt lat="43.7716447" lon="12.694153"><ele>223.0</ele><time>2026-04-26T08:51:29.406Z</time></trkpt><trkpt lat="43.7715254" lon="12.6941483"><ele>223.28571428571428</ele><time>2026-04-26T08:51:31.404Z</time></trkpt><trkpt lat="43.771407" lon="12.6941369"><ele>223.57142857142856</ele><time>2026-04-26T08:51:33.411Z</time></trkpt><trkpt lat="43.7713426" lon="12.694141"><ele>223.8571428571429</ele><time>2026-04-26T08:51:34.405Z</time></trkpt><trkpt lat="43.7712741" lon="12.6941486"><ele>224.14285714285717</ele><time>2026-04-26T08:51:35.407Z</time></trkpt><trkpt lat="43.771209" lon="12.6941556"><ele>224.42857142857144</ele><time>2026-04-26T08:51:36.404Z</time></trkpt><trkpt lat="43.7711431" lon="12.6941648"><ele>224.71428571428575</ele><time>2026-04-26T08:51:37.407Z</time></trkpt><trkpt lat="43.7710784" lon="12.6941775"><ele>225.00000000000003</ele><time>2026-04-26T08:51:38.405Z</time></trkpt><trkpt lat="43.7710081" lon="12.6941929"><ele>225.0</ele><time>2026-04-26T08:51:39.415Z</time></trkpt><trkpt lat="43.7709411" lon="12.6942102"><ele>225.0</ele><time>2026-04-26T08:51:40.406Z</time></trkpt><trkpt lat="43.7708215" lon="12.6942433"><ele>225.0</ele><time>2026-04-26T08:51:42.402Z</time></trkpt><trkpt lat="43.7707048" lon="12.6942959"><ele>225.0</ele><time>2026-04-26T08:51:44.404Z</time></trkpt><trkpt lat="43.770585" lon="12.6943547"><ele>225.0</ele><time>2026-04-26T08:51:46.406Z</time></trkpt><trkpt lat="43.7705241" lon="12.6943819"><ele>225.0</ele><time>2026-04-26T08:51:47.403Z</time></trkpt><trkpt lat="43.7704507" lon="12.6944168"><ele>225.0</ele><time>2026-04-26T08:51:48.402Z</time></trkpt><trkpt lat="43.7703878" lon="12.694451"><ele>225.0</ele><time>2026-04-26T08:51:49.411Z</time></trkpt><trkpt lat="43.7703244" lon="12.6944868"><ele>225.0</ele><time>2026-04-26T08:51:50.41Z</time></trkpt><trkpt lat="43.7702648" lon="12.6945198"><ele>225.0</ele><time>2026-04-26T08:51:51.406Z</time></trkpt><trkpt lat="43.7701385" lon="12.6945429"><ele>225.0</ele><time>2026-04-26T08:51:53.404Z</time></trkpt><trkpt lat="43.7700683" lon="12.6945482"><ele>225.2</ele><time>2026-04-26T08:51:54.405Z</time></trkpt><trkpt lat="43.7699913" lon="12.6945443"><ele>225.4</ele><time>2026-04-26T08:51:55.404Z</time></trkpt><trkpt lat="43.7698558" lon="12.6945379"><ele>225.60000000000002</ele><time>2026-04-26T08:51:57.406Z</time></trkpt><trkpt lat="43.7697308" lon="12.6945317"><ele>225.8</ele><time>2026-04-26T08:51:59.41Z</time></trkpt><trkpt lat="43.7696646" lon="12.694533"><ele>226.0</ele><time>2026-04-26T08:52:00.411Z</time></trkpt><trkpt lat="43.7695967" lon="12.694539"><ele>226.0</ele><time>2026-04-26T08:52:01.413Z</time></trkpt><trkpt lat="43.7695321" lon="12.6945337"><ele>226.00000000000003</ele><time>2026-04-26T08:52:02.411Z</time></trkpt><trkpt lat="43.7694689" lon="12.6945313"><ele>226.00000000000003</ele><time>2026-04-26T08:52:03.406Z</time></trkpt><trkpt lat="43.7693617" lon="12.6945536"><ele>226.0</ele><time>2026-04-26T08:52:05.407Z</time></trkpt><trkpt lat="43.7691888" lon="12.6946252"><ele>226.0</ele><time>2026-04-26T08:52:08.405Z</time></trkpt><trkpt lat="43.7690837" lon="12.6946858"><ele>225.99999999999997</ele><time>2026-04-26T08:52:10.407Z</time></trkpt><trkpt lat="43.7689754" lon="12.6947542"><ele>226.0</ele><time>2026-04-26T08:52:12.408Z</time></trkpt><trkpt lat="43.7689091" lon="12.6947856"><ele>226.0</ele><time>2026-04-26T08:52:13.405Z</time></trkpt><trkpt lat="43.768823" lon="12.6948038"><ele>226.0</ele><time>2026-04-26T08:52:14.407Z</time></trkpt><trkpt lat="43.7687414" lon="12.694818"><ele>225.99999999999997</ele><time>2026-04-26T08:52:15.406Z</time></trkpt><trkpt lat="43.7686607" lon="12.6948307"><ele>226.0</ele><time>2026-04-26T08:52:16.407Z</time></trkpt><trkpt lat="43.7685817" lon="12.6948417"><ele>226.49999999999997</ele><time>2026-04-26T08:52:17.405Z</time></trkpt><trkpt lat="43.7684926" lon="12.6948518"><ele>227.0</ele><time>2026-04-26T08:52:18.409Z</time></trkpt><trkpt lat="43.7684145" lon="12.6948656"><ele>227.5</ele><time>2026-04-26T08:52:19.405Z</time></trkpt><trkpt lat="43.7683391" lon="12.6948819"><ele>228.0</ele><time>2026-04-26T08:52:20.41Z</time></trkpt><trkpt lat="43.7682593" lon="12.6948902"><ele>228.49999999999997</ele><time>2026-04-26T08:52:21.413Z</time></trkpt><trkpt lat="43.7681831" lon="12.6948864"><ele>229.0</ele><time>2026-04-26T08:52:22.401Z</time></trkpt><trkpt lat="43.7681084" lon="12.6948671"><ele>229.0</ele><time>2026-04-26T08:52:23.403Z</time></trkpt><trkpt lat="43.7680368" lon="12.6948384"><ele>228.99999999999997</ele><time>2026-04-26T08:52:24.405Z</time></trkpt><trkpt lat="43.767963" lon="12.6948019"><ele>228.99999999999997</ele><time>2026-04-26T08:52:25.402Z</time></trkpt><trkpt lat="43.7678928" lon="12.6947634"><ele>229.0</ele><time>2026-04-26T08:52:26.404Z</time></trkpt><trkpt lat="43.7677513" lon="12.6946693"><ele>229.0</ele><time>2026-04-26T08:52:28.404Z</time></trkpt><trkpt lat="43.7676805" lon="12.6946138"><ele>228.33333333333331</ele><time>2026-04-26T08:52:29.405Z</time></trkpt><trkpt lat="43.7676124" lon="12.6945736"><ele>227.66666666666666</ele><time>2026-04-26T08:52:30.408Z</time></trkpt><trkpt lat="43.7675519" lon="12.6945455"><ele>227.0</ele><time>2026-04-26T08:52:31.404Z</time></trkpt><trkpt lat="43.7674732" lon="12.694517"><ele>226.33333333333331</ele><time>2026-04-26T08:52:32.404Z</time></trkpt><trkpt lat="43.7673902" lon="12.6944999"><ele>225.66666666666666</ele><time>2026-04-26T08:52:33.404Z</time></trkpt><trkpt lat="43.7673099" lon="12.6944801"><ele>225.0</ele><time>2026-04-26T08:52:34.405Z</time></trkpt><trkpt lat="43.7672321" lon="12.6944661"><ele>225.0</ele><time>2026-04-26T08:52:35.404Z</time></trkpt><trkpt lat="43.7671454" lon="12.6944544"><ele>225.0</ele><time>2026-04-26T08:52:36.405Z</time></trkpt><trkpt lat="43.7670598" lon="12.6944391"><ele>225.0</ele><time>2026-04-26T08:52:37.404Z</time></trkpt><trkpt lat="43.7669789" lon="12.6944258"><ele>225.0</ele><time>2026-04-26T08:52:38.408Z</time></trkpt><trkpt lat="43.7669004" lon="12.6944072"><ele>225.0</ele><time>2026-04-26T08:52:39.407Z</time></trkpt><trkpt lat="43.7668198" lon="12.6943904"><ele>225.0</ele><time>2026-04-26T08:52:40.407Z</time></trkpt><trkpt lat="43.7667323" lon="12.694378"><ele>226.83333333333334</ele><time>2026-04-26T08:52:41.405Z</time></trkpt><trkpt lat="43.7666402" lon="12.6943685"><ele>228.66666666666669</ele><time>2026-04-26T08:52:42.404Z</time></trkpt><trkpt lat="43.7665503" lon="12.6943622"><ele>230.5</ele><time>2026-04-26T08:52:43.402Z</time></trkpt><trkpt lat="43.7664678" lon="12.6943454"><ele>232.33333333333334</ele><time>2026-04-26T08:52:44.407Z</time></trkpt><trkpt lat="43.7663843" lon="12.6943213"><ele>234.16666666666669</ele><time>2026-04-26T08:52:45.401Z</time></trkpt><trkpt lat="43.7662974" lon="12.6942905"><ele>236.0</ele><time>2026-04-26T08:52:46.411Z</time></trkpt><trkpt lat="43.7662141" lon="12.6942531"><ele>236.0</ele><time>2026-04-26T08:52:47.406Z</time></trkpt><trkpt lat="43.7660569" lon="12.6941713"><ele>236.00000000000003</ele><time>2026-04-26T08:52:49.409Z</time></trkpt><trkpt lat="43.7659815" lon="12.6941292"><ele>236.00000000000003</ele><time>2026-04-26T08:52:50.405Z</time></trkpt><trkpt lat="43.7659036" lon="12.6940838"><ele>236.0</ele><time>2026-04-26T08:52:51.403Z</time></trkpt><trkpt lat="43.7658334" lon="12.694026"><ele>236.0</ele><time>2026-04-26T08:52:52.402Z</time></trkpt><trkpt lat="43.7657594" lon="12.6939594"><ele>235.83333333333334</ele><time>2026-04-26T08:52:53.402Z</time></trkpt><trkpt lat="43.7656827" lon="12.6938908"><ele>235.66666666666669</ele><time>2026-04-26T08:52:54.404Z</time></trkpt><trkpt lat="43.7656096" lon="12.6938219"><ele>235.5</ele><time>2026-04-26T08:52:55.408Z</time></trkpt><trkpt lat="43.7655388" lon="12.6937566"><ele>235.33333333333331</ele><time>2026-04-26T08:52:56.405Z</time></trkpt><trkpt lat="43.7654724" lon="12.6936923"><ele>235.16666666666666</ele><time>2026-04-26T08:52:57.407Z</time></trkpt><trkpt lat="43.765409" lon="12.6936454"><ele>235.0</ele><time>2026-04-26T08:52:58.407Z</time></trkpt><trkpt lat="43.765336" lon="12.6936084"><ele>235.0</ele><time>2026-04-26T08:52:59.404Z</time></trkpt><trkpt lat="43.7652586" lon="12.6936078"><ele>235.0</ele><time>2026-04-26T08:53:00.402Z</time></trkpt><trkpt lat="43.7651687" lon="12.6936373"><ele>235.0</ele><time>2026-04-26T08:53:01.4Z</time></trkpt><trkpt lat="43.7650757" lon="12.6936722"><ele>235.0</ele><time>2026-04-26T08:53:02.402Z</time></trkpt><trkpt lat="43.7649818" lon="12.6937088"><ele>235.0</ele><time>2026-04-26T08:53:03.405Z</time></trkpt><trkpt lat="43.7648911" lon="12.6937464"><ele>235.4</ele><time>2026-04-26T08:53:04.407Z</time></trkpt><trkpt lat="43.7647959" lon="12.69378"><ele>235.8</ele><time>2026-04-26T08:53:05.408Z</time></trkpt><trkpt lat="43.7647025" lon="12.693813"><ele>236.2</ele><time>2026-04-26T08:53:06.41Z</time></trkpt><trkpt lat="43.7646224" lon="12.6938469"><ele>236.6</ele><time>2026-04-26T08:53:07.407Z</time></trkpt><trkpt lat="43.7645475" lon="12.6938744"><ele>237.0</ele><time>2026-04-26T08:53:08.41Z</time></trkpt><trkpt lat="43.764408" lon="12.693925"><ele>238.99999999999997</ele><time>2026-04-26T08:53:10.402Z</time></trkpt><trkpt lat="43.7643445" lon="12.6939526"><ele>241.0</ele><time>2026-04-26T08:53:11.404Z</time></trkpt><trkpt lat="43.7642767" lon="12.6939873"><ele>242.99999999999997</ele><time>2026-04-26T08:53:12.405Z</time></trkpt><trkpt lat="43.7642061" lon="12.6940277"><ele>244.99999999999997</ele><time>2026-04-26T08:53:13.404Z</time></trkpt><trkpt lat="43.7641343" lon="12.69406"><ele>247.0</ele><time>2026-04-26T08:53:14.407Z</time></trkpt><trkpt lat="43.7640589" lon="12.6940881"><ele>248.99999999999997</ele><time>2026-04-26T08:53:15.407Z</time></trkpt><trkpt lat="43.7639883" lon="12.6941178"><ele>250.99999999999997</ele><time>2026-04-26T08:53:16.409Z</time></trkpt><trkpt lat="43.7639131" lon="12.6941585"><ele>250.99999999999997</ele><time>2026-04-26T08:53:17.408Z</time></trkpt><trkpt lat="43.7638374" lon="12.6941921"><ele>251.0</ele><time>2026-04-26T08:53:18.403Z</time></trkpt><trkpt lat="43.763765" lon="12.6942066"><ele>250.99999999999997</ele><time>2026-04-26T08:53:19.405Z</time></trkpt><trkpt lat="43.7636953" lon="12.6942097"><ele>250.99999999999997</ele><time>2026-04-26T08:53:20.403Z</time></trkpt><trkpt lat="43.7636345" lon="12.6941733"><ele>251.0</ele><time>2026-04-26T08:53:21.405Z</time></trkpt><trkpt lat="43.76358" lon="12.6941225"><ele>250.99999999999997</ele><time>2026-04-26T08:53:22.402Z</time></trkpt><trkpt lat="43.7635372" lon="12.694016"><ele>250.99999999999997</ele><time>2026-04-26T08:53:23.407Z</time></trkpt><trkpt lat="43.7634988" lon="12.6939459"><ele>251.00000000000003</ele><time>2026-04-26T08:53:24.406Z</time></trkpt><trkpt lat="43.7634649" lon="12.6938692"><ele>251.0</ele><time>2026-04-26T08:53:25.409Z</time></trkpt><trkpt lat="43.7634396" lon="12.6937677"><ele>251.0</ele><time>2026-04-26T08:53:26.405Z</time></trkpt><trkpt lat="43.763417" lon="12.6936464"><ele>251.0</ele><time>2026-04-26T08:53:27.408Z</time></trkpt><trkpt lat="43.7634063" lon="12.6935237"><ele>251.00000000000003</ele><time>2026-04-26T08:53:28.405Z</time></trkpt><trkpt lat="43.7633946" lon="12.693412"><ele>251.0</ele><time>2026-04-26T08:53:29.403Z</time></trkpt><trkpt lat="43.7633726" lon="12.6932241"><ele>251.83333333333334</ele><time>2026-04-26T08:53:31.404Z</time></trkpt><trkpt lat="43.7633629" lon="12.6931234"><ele>252.66666666666669</ele><time>2026-04-26T08:53:32.405Z</time></trkpt><trkpt lat="43.763361" lon="12.6930122"><ele>253.5</ele><time>2026-04-26T08:53:33.405Z</time></trkpt><trkpt lat="43.7633657" lon="12.6929115"><ele>254.33333333333331</ele><time>2026-04-26T08:53:34.407Z</time></trkpt><trkpt lat="43.7633777" lon="12.692809"><ele>255.16666666666666</ele><time>2026-04-26T08:53:35.405Z</time></trkpt><trkpt lat="43.7633729" lon="12.6927213"><ele>256.0</ele><time>2026-04-26T08:53:36.405Z</time></trkpt><trkpt lat="43.7633118" lon="12.6925823"><ele>255.99999999999997</ele><time>2026-04-26T08:53:38.407Z</time></trkpt><trkpt lat="43.7632491" lon="12.6925301"><ele>256.0</ele><time>2026-04-26T08:53:39.404Z</time></trkpt><trkpt lat="43.7631721" lon="12.6924765"><ele>256.0</ele><time>2026-04-26T08:53:40.404Z</time></trkpt><trkpt lat="43.7630702" lon="12.6924481"><ele>256.0</ele><time>2026-04-26T08:53:41.406Z</time></trkpt><trkpt lat="43.7629889" lon="12.6924054"><ele>255.99999999999997</ele><time>2026-04-26T08:53:42.402Z</time></trkpt><trkpt lat="43.7629047" lon="12.6923624"><ele>256.0</ele><time>2026-04-26T08:53:43.402Z</time></trkpt><trkpt lat="43.7628224" lon="12.6923218"><ele>255.99999999999997</ele><time>2026-04-26T08:53:44.403Z</time></trkpt><trkpt lat="43.762753" lon="12.6922801"><ele>256.0</ele><time>2026-04-26T08:53:45.404Z</time></trkpt><trkpt lat="43.7626855" lon="12.6922379"><ele>256.0</ele><time>2026-04-26T08:53:46.405Z</time></trkpt><trkpt lat="43.7626178" lon="12.6921936"><ele>256.0</ele><time>2026-04-26T08:53:47.403Z</time></trkpt><trkpt lat="43.7625444" lon="12.6921488"><ele>255.99999999999997</ele><time>2026-04-26T08:53:48.403Z</time></trkpt><trkpt lat="43.7624606" lon="12.6921002"><ele>256.0</ele><time>2026-04-26T08:53:49.41Z</time></trkpt><trkpt lat="43.7623677" lon="12.6920382"><ele>258.75</ele><time>2026-04-26T08:53:50.406Z</time></trkpt><trkpt lat="43.7621817" lon="12.6919034"><ele>261.5</ele><time>2026-04-26T08:53:52.404Z</time></trkpt><trkpt lat="43.7620948" lon="12.6918339"><ele>264.25</ele><time>2026-04-26T08:53:53.404Z</time></trkpt><trkpt lat="43.7620121" lon="12.691769"><ele>267.0</ele><time>2026-04-26T08:53:54.404Z</time></trkpt><trkpt lat="43.7619307" lon="12.6917014"><ele>266.8333333333333</ele><time>2026-04-26T08:53:55.405Z</time></trkpt><trkpt lat="43.7618455" lon="12.6916277"><ele>266.6666666666667</ele><time>2026-04-26T08:53:56.407Z</time></trkpt><trkpt lat="43.7617616" lon="12.6915541"><ele>266.5</ele><time>2026-04-26T08:53:57.404Z</time></trkpt><trkpt lat="43.7616858" lon="12.6914845"><ele>266.33333333333337</ele><time>2026-04-26T08:53:58.411Z</time></trkpt><trkpt lat="43.7616165" lon="12.6914234"><ele>266.1666666666667</ele><time>2026-04-26T08:53:59.406Z</time></trkpt><trkpt lat="43.7615568" lon="12.691365"><ele>266.0</ele><time>2026-04-26T08:54:00.406Z</time></trkpt><trkpt lat="43.7615004" lon="12.6913237"><ele>266.0</ele><time>2026-04-26T08:54:01.405Z</time></trkpt><trkpt lat="43.7614302" lon="12.691307"><ele>266.0</ele><time>2026-04-26T08:54:02.403Z</time></trkpt><trkpt lat="43.7613588" lon="12.6913306"><ele>266.0</ele><time>2026-04-26T08:54:03.405Z</time></trkpt><trkpt lat="43.7612956" lon="12.6913764"><ele>266.0</ele><time>2026-04-26T08:54:04.408Z</time></trkpt><trkpt lat="43.7612062" lon="12.6914821"><ele>266.0</ele><time>2026-04-26T08:54:06.41Z</time></trkpt><trkpt lat="43.7611014" lon="12.6915733"><ele>267.40000000000003</ele><time>2026-04-26T08:54:08.41Z</time></trkpt><trkpt lat="43.7610239" lon="12.6916276"><ele>268.8</ele><time>2026-04-26T08:54:09.405Z</time></trkpt><trkpt lat="43.7609326" lon="12.6916728"><ele>270.20000000000005</ele><time>2026-04-26T08:54:10.407Z</time></trkpt><trkpt lat="43.7608464" lon="12.6917108"><ele>271.6</ele><time>2026-04-26T08:54:11.41Z</time></trkpt><trkpt lat="43.7607045" lon="12.6917341"><ele>273.0</ele><time>2026-04-26T08:54:13.406Z</time></trkpt><trkpt lat="43.7606428" lon="12.6916995"><ele>273.0</ele><time>2026-04-26T08:54:14.401Z</time></trkpt><trkpt lat="43.7605751" lon="12.6916646"><ele>273.0</ele><time>2026-04-26T08:54:15.404Z</time></trkpt><trkpt lat="43.7605117" lon="12.6916154"><ele>273.0</ele><time>2026-04-26T08:54:16.407Z</time></trkpt><trkpt lat="43.7604467" lon="12.6915313"><ele>273.0</ele><time>2026-04-26T08:54:17.402Z</time></trkpt><trkpt lat="43.7603823" lon="12.691438"><ele>273.0</ele><time>2026-04-26T08:54:18.407Z</time></trkpt><trkpt lat="43.7603232" lon="12.6913702"><ele>273.0</ele><time>2026-04-26T08:54:19.407Z</time></trkpt><trkpt lat="43.7602042" lon="12.6913278"><ele>275.1666666666667</ele><time>2026-04-26T08:54:21.416Z</time></trkpt><trkpt lat="43.76014" lon="12.6913351"><ele>277.3333333333333</ele><time>2026-04-26T08:54:22.403Z</time></trkpt><trkpt lat="43.760063" lon="12.6913751"><ele>279.5</ele><time>2026-04-26T08:54:23.404Z</time></trkpt><trkpt lat="43.7599942" lon="12.6914185"><ele>281.66666666666663</ele><time>2026-04-26T08:54:24.404Z</time></trkpt><trkpt lat="43.7599222" lon="12.6914718"><ele>283.8333333333333</ele><time>2026-04-26T08:54:25.407Z</time></trkpt><trkpt lat="43.7598486" lon="12.6915315"><ele>286.0</ele><time>2026-04-26T08:54:26.406Z</time></trkpt><trkpt lat="43.7597757" lon="12.6915966"><ele>286.0</ele><time>2026-04-26T08:54:27.405Z</time></trkpt><trkpt lat="43.7597016" lon="12.6916605"><ele>286.0</ele><time>2026-04-26T08:54:28.415Z</time></trkpt><trkpt lat="43.7596238" lon="12.6917326"><ele>286.0</ele><time>2026-04-26T08:54:29.402Z</time></trkpt><trkpt lat="43.7595371" lon="12.691781"><ele>286.0</ele><time>2026-04-26T08:54:30.407Z</time></trkpt><trkpt lat="43.7594404" lon="12.6918191"><ele>286.0</ele><time>2026-04-26T08:54:31.402Z</time></trkpt><trkpt lat="43.7593341" lon="12.6918622"><ele>286.0</ele><time>2026-04-26T08:54:32.403Z</time></trkpt><trkpt lat="43.7591367" lon="12.6919453"><ele>286.0</ele><time>2026-04-26T08:54:34.406Z</time></trkpt><trkpt lat="43.7590613" lon="12.6919566"><ele>286.0</ele><time>2026-04-26T08:54:35.403Z</time></trkpt><trkpt lat="43.7589848" lon="12.6919532"><ele>286.0</ele><time>2026-04-26T08:54:36.405Z</time></trkpt><trkpt lat="43.7589097" lon="12.6919286"><ele>286.0</ele><time>2026-04-26T08:54:37.402Z</time></trkpt><trkpt lat="43.7588506" lon="12.6918789"><ele>290.0</ele><time>2026-04-26T08:54:38.404Z</time></trkpt><trkpt lat="43.7587808" lon="12.6918047"><ele>294.0</ele><time>2026-04-26T08:54:39.405Z</time></trkpt><trkpt lat="43.7587012" lon="12.6917236"><ele>298.0</ele><time>2026-04-26T08:54:40.404Z</time></trkpt><trkpt lat="43.7586151" lon="12.6916337"><ele>302.0</ele><time>2026-04-26T08:54:41.404Z</time></trkpt><trkpt lat="43.7585254" lon="12.691544"><ele>306.0</ele><time>2026-04-26T08:54:42.405Z</time></trkpt><trkpt lat="43.7584395" lon="12.691454"><ele>307.8</ele><time>2026-04-26T08:54:43.407Z</time></trkpt><trkpt lat="43.7583426" lon="12.6913679"><ele>309.6</ele><time>2026-04-26T08:54:44.406Z</time></trkpt><trkpt lat="43.7582602" lon="12.6912878"><ele>311.4</ele><time>2026-04-26T08:54:45.404Z</time></trkpt><trkpt lat="43.758191" lon="12.691204"><ele>313.2</ele><time>2026-04-26T08:54:46.404Z</time></trkpt><trkpt lat="43.758096" lon="12.6911031"><ele>315.0</ele><time>2026-04-26T08:54:47.405Z</time></trkpt><trkpt lat="43.7580043" lon="12.6910176"><ele>317.6</ele><time>2026-04-26T08:54:48.404Z</time></trkpt><trkpt lat="43.7579203" lon="12.6909455"><ele>320.2</ele><time>2026-04-26T08:54:49.404Z</time></trkpt><trkpt lat="43.7578325" lon="12.6908729"><ele>322.79999999999995</ele><time>2026-04-26T08:54:50.407Z</time></trkpt><trkpt lat="43.7577444" lon="12.6908197"><ele>325.4</ele><time>2026-04-26T08:54:51.404Z</time></trkpt><trkpt lat="43.757642" lon="12.6907647"><ele>328.0</ele><time>2026-04-26T08:54:52.406Z</time></trkpt><trkpt lat="43.7575568" lon="12.6907201"><ele>328.0</ele><time>2026-04-26T08:54:53.405Z</time></trkpt><trkpt lat="43.7574306" lon="12.6906147"><ele>328.0</ele><time>2026-04-26T08:54:56.411Z</time></trkpt><trkpt lat="43.7574456" lon="12.6905155"><ele>328.0</ele><time>2026-04-26T08:54:59.403Z</time></trkpt><trkpt lat="43.7575034" lon="12.6904424"><ele>328.0</ele><time>2026-04-26T08:55:00.404Z</time></trkpt><trkpt lat="43.7575833" lon="12.6903461"><ele>328.0</ele><time>2026-04-26T08:55:01.403Z</time></trkpt><trkpt lat="43.7576801" lon="12.6902157"><ele>330.0</ele><time>2026-04-26T08:55:02.405Z</time></trkpt><trkpt lat="43.7577841" lon="12.6900729"><ele>332.0</ele><time>2026-04-26T08:55:03.408Z</time></trkpt><trkpt lat="43.7578797" lon="12.6899342"><ele>334.0</ele><time>2026-04-26T08:55:04.402Z</time></trkpt><trkpt lat="43.7579616" lon="12.6898142"><ele>336.0</ele><time>2026-04-26T08:55:05.407Z</time></trkpt><trkpt lat="43.7580329" lon="12.6897105"><ele>336.0</ele><time>2026-04-26T08:55:06.404Z</time></trkpt><trkpt lat="43.7580887" lon="12.6896244"><ele>336.0</ele><time>2026-04-26T08:55:07.401Z</time></trkpt><trkpt lat="43.7581279" lon="12.6895517"><ele>336.0</ele><time>2026-04-26T08:55:08.403Z</time></trkpt><trkpt lat="43.7581727" lon="12.6894882"><ele>336.0</ele><time>2026-04-26T08:55:09.403Z</time></trkpt><trkpt lat="43.7582217" lon="12.6894164"><ele>336.0</ele><time>2026-04-26T08:55:10.407Z</time></trkpt><trkpt lat="43.7582658" lon="12.6893118"><ele>336.0</ele><time>2026-04-26T08:55:11.416Z</time></trkpt><trkpt lat="43.7583012" lon="12.6891724"><ele>333.6666666666667</ele><time>2026-04-26T08:55:12.402Z</time></trkpt><trkpt lat="43.7582965" lon="12.6890151"><ele>331.33333333333337</ele><time>2026-04-26T08:55:13.404Z</time></trkpt><trkpt lat="43.7582741" lon="12.6888487"><ele>329.0</ele><time>2026-04-26T08:55:14.405Z</time></trkpt><trkpt lat="43.7581609" lon="12.6885078"><ele>327.0</ele><time>2026-04-26T08:55:16.406Z</time></trkpt><trkpt lat="43.7580905" lon="12.6883296"><ele>325.0</ele><time>2026-04-26T08:55:17.406Z</time></trkpt><trkpt lat="43.7580302" lon="12.6881464"><ele>323.0</ele><time>2026-04-26T08:55:18.405Z</time></trkpt><trkpt lat="43.757983" lon="12.6879635"><ele>321.0</ele><time>2026-04-26T08:55:19.404Z</time></trkpt><trkpt lat="43.7579395" lon="12.6877803"><ele>317.25</ele><time>2026-04-26T08:55:20.404Z</time></trkpt><trkpt lat="43.7578903" lon="12.6875909"><ele>313.5</ele><time>2026-04-26T08:55:21.403Z</time></trkpt><trkpt lat="43.7578357" lon="12.6874096"><ele>309.75</ele><time>2026-04-26T08:55:22.411Z</time></trkpt><trkpt lat="43.7577724" lon="12.687222"><ele>306.0</ele><time>2026-04-26T08:55:23.411Z</time></trkpt><trkpt lat="43.757707" lon="12.6870559"><ele>308.5</ele><time>2026-04-26T08:55:24.405Z</time></trkpt><trkpt lat="43.7576481" lon="12.6868851"><ele>311.0</ele><time>2026-04-26T08:55:25.403Z</time></trkpt><trkpt lat="43.757588" lon="12.6866946"><ele>313.5</ele><time>2026-04-26T08:55:26.402Z</time></trkpt><trkpt lat="43.7575428" lon="12.6864829"><ele>316.0</ele><time>2026-04-26T08:55:27.404Z</time></trkpt><trkpt lat="43.7575076" lon="12.6862646"><ele>315.5</ele><time>2026-04-26T08:55:28.406Z</time></trkpt><trkpt lat="43.7574767" lon="12.6860542"><ele>315.0</ele><time>2026-04-26T08:55:29.406Z</time></trkpt><trkpt lat="43.7574489" lon="12.6858591"><ele>314.5</ele><time>2026-04-26T08:55:30.404Z</time></trkpt><trkpt lat="43.7574348" lon="12.6856852"><ele>314.0</ele><time>2026-04-26T08:55:31.411Z</time></trkpt><trkpt lat="43.7574463" lon="12.6855105"><ele>314.0</ele><time>2026-04-26T08:55:32.406Z</time></trkpt><trkpt lat="43.7574773" lon="12.6853395"><ele>314.0</ele><time>2026-04-26T08:55:33.407Z</time></trkpt><trkpt lat="43.7575235" lon="12.6851698"><ele>314.0</ele><time>2026-04-26T08:55:34.409Z</time></trkpt><trkpt lat="43.7575865" lon="12.6849999"><ele>314.0</ele><time>2026-04-26T08:55:35.403Z</time></trkpt><trkpt lat="43.7577514" lon="12.6846813"><ele>315.25</ele><time>2026-04-26T08:55:37.404Z</time></trkpt><trkpt lat="43.7578576" lon="12.6845439"><ele>316.5</ele><time>2026-04-26T08:55:38.404Z</time></trkpt><trkpt lat="43.7579762" lon="12.684421"><ele>317.75</ele><time>2026-04-26T08:55:39.407Z</time></trkpt><trkpt lat="43.7580873" lon="12.6843009"><ele>319.0</ele><time>2026-04-26T08:55:40.408Z</time></trkpt><trkpt lat="43.7581881" lon="12.6842119"><ele>319.0</ele><time>2026-04-26T08:55:41.403Z</time></trkpt><trkpt lat="43.7582917" lon="12.6841519"><ele>319.0</ele><time>2026-04-26T08:55:42.408Z</time></trkpt><trkpt lat="43.7583915" lon="12.684135"><ele>319.0</ele><time>2026-04-26T08:55:43.409Z</time></trkpt><trkpt lat="43.7585033" lon="12.6841613"><ele>319.0</ele><time>2026-04-26T08:55:44.406Z</time></trkpt><trkpt lat="43.758621" lon="12.684198"><ele>319.0</ele><time>2026-04-26T08:55:45.403Z</time></trkpt><trkpt lat="43.7587508" lon="12.6842348"><ele>317.75</ele><time>2026-04-26T08:55:46.409Z</time></trkpt><trkpt lat="43.758877" lon="12.6842881"><ele>316.5</ele><time>2026-04-26T08:55:47.402Z</time></trkpt><trkpt lat="43.7590008" lon="12.6843282"><ele>315.25</ele><time>2026-04-26T08:55:48.404Z</time></trkpt><trkpt lat="43.7591156" lon="12.6843739"><ele>314.0</ele><time>2026-04-26T08:55:49.403Z</time></trkpt><trkpt lat="43.7592265" lon="12.6844252"><ele>313.4</ele><time>2026-04-26T08:55:50.408Z</time></trkpt><trkpt lat="43.7593244" lon="12.6844671"><ele>312.79999999999995</ele><time>2026-04-26T08:55:51.405Z</time></trkpt><trkpt lat="43.7594172" lon="12.6845011"><ele>312.20000000000005</ele><time>2026-04-26T08:55:52.406Z</time></trkpt><trkpt lat="43.7595027" lon="12.6845236"><ele>311.6</ele><time>2026-04-26T08:55:53.41Z</time></trkpt><trkpt lat="43.7596004" lon="12.684527"><ele>311.0</ele><time>2026-04-26T08:55:54.402Z</time></trkpt><trkpt lat="43.7596905" lon="12.6844986"><ele>311.0</ele><time>2026-04-26T08:55:55.404Z</time></trkpt><trkpt lat="43.7597669" lon="12.6844381"><ele>311.0</ele><time>2026-04-26T08:55:56.403Z</time></trkpt><trkpt lat="43.7598162" lon="12.6842261"><ele>311.0</ele><time>2026-04-26T08:55:58.405Z</time></trkpt><trkpt lat="43.7597796" lon="12.68411"><ele>311.0</ele><time>2026-04-26T08:55:59.406Z</time></trkpt><trkpt lat="43.7597225" lon="12.6839865"><ele>311.0</ele><time>2026-04-26T08:56:00.406Z</time></trkpt><trkpt lat="43.7596509" lon="12.6838347"><ele>312.0</ele><time>2026-04-26T08:56:01.411Z</time></trkpt><trkpt lat="43.7595683" lon="12.6836719"><ele>313.0</ele><time>2026-04-26T08:56:02.409Z</time></trkpt><trkpt lat="43.7594777" lon="12.6835203"><ele>314.0</ele><time>2026-04-26T08:56:03.404Z</time></trkpt><trkpt lat="43.7593868" lon="12.6833774"><ele>315.0</ele><time>2026-04-26T08:56:04.403Z</time></trkpt><trkpt lat="43.7592879" lon="12.6832267"><ele>312.75</ele><time>2026-04-26T08:56:05.402Z</time></trkpt><trkpt lat="43.7591852" lon="12.6830834"><ele>310.5</ele><time>2026-04-26T08:56:06.403Z</time></trkpt><trkpt lat="43.7590785" lon="12.6829464"><ele>308.25</ele><time>2026-04-26T08:56:07.406Z</time></trkpt><trkpt lat="43.7589631" lon="12.6828167"><ele>306.0</ele><time>2026-04-26T08:56:08.405Z</time></trkpt><trkpt lat="43.7588499" lon="12.6826885"><ele>306.0</ele><time>2026-04-26T08:56:09.407Z</time></trkpt><trkpt lat="43.7587432" lon="12.682552"><ele>306.0</ele><time>2026-04-26T08:56:10.409Z</time></trkpt><trkpt lat="43.7586376" lon="12.6824112"><ele>306.0</ele><time>2026-04-26T08:56:11.407Z</time></trkpt><trkpt lat="43.7585289" lon="12.6822658"><ele>306.0</ele><time>2026-04-26T08:56:12.406Z</time></trkpt><trkpt lat="43.7584215" lon="12.6821099"><ele>301.75</ele><time>2026-04-26T08:56:13.408Z</time></trkpt><trkpt lat="43.7583094" lon="12.6819681"><ele>297.5</ele><time>2026-04-26T08:56:14.402Z</time></trkpt><trkpt lat="43.7581961" lon="12.6818327"><ele>293.25</ele><time>2026-04-26T08:56:15.407Z</time></trkpt><trkpt lat="43.7580944" lon="12.6817003"><ele>289.0</ele><time>2026-04-26T08:56:16.406Z</time></trkpt><trkpt lat="43.7579902" lon="12.6815751"><ele>282.0</ele><time>2026-04-26T08:56:17.405Z</time></trkpt><trkpt lat="43.7577017" lon="12.6813719"><ele>275.0</ele><time>2026-04-26T08:56:19.409Z</time></trkpt><trkpt lat="43.757533" lon="12.6812702"><ele>275.0</ele><time>2026-04-26T08:56:20.403Z</time></trkpt><trkpt lat="43.7573666" lon="12.6811761"><ele>275.0</ele><time>2026-04-26T08:56:21.409Z</time></trkpt><trkpt lat="43.757198" lon="12.681093"><ele>275.0</ele><time>2026-04-26T08:56:22.401Z</time></trkpt><trkpt lat="43.7570353" lon="12.6810132"><ele>272.0</ele><time>2026-04-26T08:56:23.402Z</time></trkpt><trkpt lat="43.7568725" lon="12.6809253"><ele>269.0</ele><time>2026-04-26T08:56:24.403Z</time></trkpt><trkpt lat="43.7567245" lon="12.6808144"><ele>266.0</ele><time>2026-04-26T08:56:25.402Z</time></trkpt><trkpt lat="43.7565813" lon="12.6807082"><ele>264.5</ele><time>2026-04-26T08:56:26.402Z</time></trkpt><trkpt lat="43.7564491" lon="12.6806066"><ele>263.0</ele><time>2026-04-26T08:56:27.407Z</time></trkpt><trkpt lat="43.7563355" lon="12.6804967"><ele>261.5</ele><time>2026-04-26T08:56:28.406Z</time></trkpt><trkpt lat="43.7562393" lon="12.6803557"><ele>260.0</ele><time>2026-04-26T08:56:29.406Z</time></trkpt><trkpt lat="43.7561556" lon="12.6801675"><ele>259.33333333333337</ele><time>2026-04-26T08:56:30.414Z</time></trkpt><trkpt lat="43.7560705" lon="12.6799456"><ele>258.6666666666667</ele><time>2026-04-26T08:56:31.408Z</time></trkpt><trkpt lat="43.7559842" lon="12.6797332"><ele>258.0</ele><time>2026-04-26T08:56:32.403Z</time></trkpt><trkpt lat="43.7558985" lon="12.6795433"><ele>254.0</ele><time>2026-04-26T08:56:33.409Z</time></trkpt><trkpt lat="43.7558235" lon="12.6793527"><ele>250.0</ele><time>2026-04-26T08:56:34.405Z</time></trkpt><trkpt lat="43.7557715" lon="12.6791485"><ele>246.0</ele><time>2026-04-26T08:56:35.404Z</time></trkpt><trkpt lat="43.7557183" lon="12.6789314"><ele>246.0</ele><time>2026-04-26T08:56:36.407Z</time></trkpt><trkpt lat="43.7556596" lon="12.6787029"><ele>246.0</ele><time>2026-04-26T08:56:37.409Z</time></trkpt><trkpt lat="43.755614" lon="12.6784711"><ele>246.0</ele><time>2026-04-26T08:56:38.409Z</time></trkpt><trkpt lat="43.7555091" lon="12.6780362"><ele>245.0</ele><time>2026-04-26T08:56:40.409Z</time></trkpt><trkpt lat="43.7554791" lon="12.6778417"><ele>244.0</ele><time>2026-04-26T08:56:41.41Z</time></trkpt><trkpt lat="43.7554667" lon="12.677634"><ele>243.0</ele><time>2026-04-26T08:56:42.405Z</time></trkpt><trkpt lat="43.7554663" lon="12.6774122"><ele>241.33333333333331</ele><time>2026-04-26T08:56:43.403Z</time></trkpt><trkpt lat="43.7554722" lon="12.6771884"><ele>239.66666666666666</ele><time>2026-04-26T08:56:44.408Z</time></trkpt><trkpt lat="43.7555022" lon="12.67696"><ele>238.0</ele><time>2026-04-26T08:56:45.41Z</time></trkpt><trkpt lat="43.7555267" lon="12.6767243"><ele>237.66666666666666</ele><time>2026-04-26T08:56:46.406Z</time></trkpt><trkpt lat="43.7555491" lon="12.6765018"><ele>237.33333333333331</ele><time>2026-04-26T08:56:47.402Z</time></trkpt><trkpt lat="43.7555636" lon="12.6762783"><ele>237.0</ele><time>2026-04-26T08:56:48.411Z</time></trkpt><trkpt lat="43.7555732" lon="12.6760557"><ele>235.0</ele><time>2026-04-26T08:56:49.408Z</time></trkpt><trkpt lat="43.7555748" lon="12.6758364"><ele>233.0</ele><time>2026-04-26T08:56:50.403Z</time></trkpt><trkpt lat="43.7555597" lon="12.6756275"><ele>231.0</ele><time>2026-04-26T08:56:51.406Z</time></trkpt><trkpt lat="43.7555461" lon="12.6754255"><ele>231.0</ele><time>2026-04-26T08:56:52.404Z</time></trkpt><trkpt lat="43.7555308" lon="12.675212"><ele>231.0</ele><time>2026-04-26T08:56:53.407Z</time></trkpt><trkpt lat="43.7555049" lon="12.6750014"><ele>231.0</ele><time>2026-04-26T08:56:54.404Z</time></trkpt><trkpt lat="43.7554844" lon="12.6748041"><ele>231.0</ele><time>2026-04-26T08:56:55.408Z</time></trkpt><trkpt lat="43.7554689" lon="12.6746143"><ele>231.0</ele><time>2026-04-26T08:56:56.407Z</time></trkpt><trkpt lat="43.7554513" lon="12.6744356"><ele>231.0</ele><time>2026-04-26T08:56:57.408Z</time></trkpt><trkpt lat="43.7553867" lon="12.6742538"><ele>231.0</ele><time>2026-04-26T08:56:58.403Z</time></trkpt><trkpt lat="43.755305" lon="12.6740574"><ele>220.0</ele><time>2026-04-26T08:56:59.402Z</time></trkpt><trkpt lat="43.7551724" lon="12.6736609"><ele>209.0</ele><time>2026-04-26T08:57:01.408Z</time></trkpt><trkpt lat="43.7551315" lon="12.6734489"><ele>209.0</ele><time>2026-04-26T08:57:02.402Z</time></trkpt><trkpt lat="43.7550894" lon="12.6732237"><ele>209.0</ele><time>2026-04-26T08:57:03.402Z</time></trkpt><trkpt lat="43.75505" lon="12.6729869"><ele>209.0</ele><time>2026-04-26T08:57:04.404Z</time></trkpt><trkpt lat="43.7550094" lon="12.6727392"><ele>208.66666666666669</ele><time>2026-04-26T08:57:05.402Z</time></trkpt><trkpt lat="43.7549669" lon="12.6724879"><ele>208.33333333333331</ele><time>2026-04-26T08:57:06.403Z</time></trkpt><trkpt lat="43.7549304" lon="12.6722385"><ele>208.0</ele><time>2026-04-26T08:57:07.405Z</time></trkpt><trkpt lat="43.7548951" lon="12.6720109"><ele>207.0</ele><time>2026-04-26T08:57:08.405Z</time></trkpt><trkpt lat="43.7548629" lon="12.6717916"><ele>206.0</ele><time>2026-04-26T08:57:09.403Z</time></trkpt><trkpt lat="43.7548391" lon="12.6715807"><ele>205.0</ele><time>2026-04-26T08:57:10.403Z</time></trkpt><trkpt lat="43.754821" lon="12.6713837"><ele>205.0</ele><time>2026-04-26T08:57:11.404Z</time></trkpt><trkpt lat="43.7547876" lon="12.6712042"><ele>205.0</ele><time>2026-04-26T08:57:12.409Z</time></trkpt><trkpt lat="43.7547356" lon="12.6710412"><ele>205.0</ele><time>2026-04-26T08:57:13.407Z</time></trkpt><trkpt lat="43.7546969" lon="12.6708863"><ele>205.0</ele><time>2026-04-26T08:57:14.409Z</time></trkpt><trkpt lat="43.7546788" lon="12.6707174"><ele>205.0</ele><time>2026-04-26T08:57:15.403Z</time></trkpt><trkpt lat="43.7546798" lon="12.6705465"><ele>205.0</ele><time>2026-04-26T08:57:16.403Z</time></trkpt><trkpt lat="43.7546988" lon="12.6703665"><ele>205.0</ele><time>2026-04-26T08:57:17.408Z</time></trkpt><trkpt lat="43.7547378" lon="12.6701751"><ele>205.0</ele><time>2026-04-26T08:57:18.404Z</time></trkpt><trkpt lat="43.7547766" lon="12.6699801"><ele>203.0</ele><time>2026-04-26T08:57:19.404Z</time></trkpt><trkpt lat="43.7548079" lon="12.6697927"><ele>201.0</ele><time>2026-04-26T08:57:20.401Z</time></trkpt><trkpt lat="43.7548173" lon="12.6694523"><ele>199.0</ele><time>2026-04-26T08:57:22.403Z</time></trkpt><trkpt lat="43.7547909" lon="12.6693063"><ele>198.2</ele><time>2026-04-26T08:57:23.405Z</time></trkpt><trkpt lat="43.7547192" lon="12.6691843"><ele>197.39999999999998</ele><time>2026-04-26T08:57:24.405Z</time></trkpt><trkpt lat="43.7546407" lon="12.6690987"><ele>196.6</ele><time>2026-04-26T08:57:25.41Z</time></trkpt><trkpt lat="43.7545527" lon="12.6690169"><ele>195.8</ele><time>2026-04-26T08:57:26.402Z</time></trkpt><trkpt lat="43.7544875" lon="12.6689007"><ele>195.0</ele><time>2026-04-26T08:57:27.405Z</time></trkpt><trkpt lat="43.7544435" lon="12.6687673"><ele>193.5</ele><time>2026-04-26T08:57:28.406Z</time></trkpt><trkpt lat="43.7544191" lon="12.6686076"><ele>192.0</ele><time>2026-04-26T08:57:29.411Z</time></trkpt><trkpt lat="43.7544022" lon="12.6684437"><ele>190.5</ele><time>2026-04-26T08:57:30.411Z</time></trkpt><trkpt lat="43.7543856" lon="12.6682785"><ele>189.0</ele><time>2026-04-26T08:57:31.404Z</time></trkpt><trkpt lat="43.7543729" lon="12.6681229"><ele>189.0</ele><time>2026-04-26T08:57:32.404Z</time></trkpt><trkpt lat="43.7543792" lon="12.667982"><ele>189.0</ele><time>2026-04-26T08:57:33.404Z</time></trkpt><trkpt lat="43.7544101" lon="12.6678412"><ele>189.0</ele><time>2026-04-26T08:57:34.407Z</time></trkpt><trkpt lat="43.7544656" lon="12.6677021"><ele>189.0</ele><time>2026-04-26T08:57:35.404Z</time></trkpt><trkpt lat="43.7545294" lon="12.6675566"><ele>189.0</ele><time>2026-04-26T08:57:36.405Z</time></trkpt><trkpt lat="43.7545962" lon="12.6674184"><ele>186.79999999999998</ele><time>2026-04-26T08:57:37.401Z</time></trkpt><trkpt lat="43.7546522" lon="12.6672956"><ele>184.6</ele><time>2026-04-26T08:57:38.403Z</time></trkpt><trkpt lat="43.7547044" lon="12.6672013"><ele>182.4</ele><time>2026-04-26T08:57:39.401Z</time></trkpt><trkpt lat="43.7547541" lon="12.6671169"><ele>180.2</ele><time>2026-04-26T08:57:40.412Z</time></trkpt><trkpt lat="43.7547972" lon="12.667014"><ele>178.0</ele><time>2026-04-26T08:57:41.406Z</time></trkpt><trkpt lat="43.7548755" lon="12.6668127"><ele>177.66666666666669</ele><time>2026-04-26T08:57:43.404Z</time></trkpt><trkpt lat="43.7549077" lon="12.6667188"><ele>177.33333333333334</ele><time>2026-04-26T08:57:44.408Z</time></trkpt><trkpt lat="43.7549438" lon="12.6666365"><ele>177.0</ele><time>2026-04-26T08:57:45.41Z</time></trkpt><trkpt lat="43.754994" lon="12.6665655"><ele>176.66666666666666</ele><time>2026-04-26T08:57:46.401Z</time></trkpt><trkpt lat="43.7550523" lon="12.6665037"><ele>176.33333333333331</ele><time>2026-04-26T08:57:47.407Z</time></trkpt><trkpt lat="43.7551233" lon="12.6664519"><ele>176.0</ele><time>2026-04-26T08:57:48.403Z</time></trkpt><trkpt lat="43.7551996" lon="12.6664166"><ele>176.8</ele><time>2026-04-26T08:57:49.403Z</time></trkpt><trkpt lat="43.7552803" lon="12.6663937"><ele>177.60000000000002</ele><time>2026-04-26T08:57:50.401Z</time></trkpt><trkpt lat="43.7553639" lon="12.6663869"><ele>178.4</ele><time>2026-04-26T08:57:51.403Z</time></trkpt><trkpt lat="43.755431" lon="12.6664043"><ele>179.2</ele><time>2026-04-26T08:57:52.402Z</time></trkpt><trkpt lat="43.7555231" lon="12.6664444"><ele>180.0</ele><time>2026-04-26T08:57:54.403Z</time></trkpt><trkpt lat="43.7556468" lon="12.6664944"><ele>180.0</ele><time>2026-04-26T08:57:56.408Z</time></trkpt><trkpt lat="43.7557475" lon="12.6665335"><ele>180.0</ele><time>2026-04-26T08:57:57.408Z</time></trkpt><trkpt lat="43.7558626" lon="12.6665909"><ele>180.0</ele><time>2026-04-26T08:57:58.409Z</time></trkpt><trkpt lat="43.7559949" lon="12.6666426"><ele>180.0</ele><time>2026-04-26T08:57:59.402Z</time></trkpt><trkpt lat="43.7561342" lon="12.6666998"><ele>179.66666666666666</ele><time>2026-04-26T08:58:00.405Z</time></trkpt><trkpt lat="43.7562814" lon="12.6667443"><ele>179.33333333333331</ele><time>2026-04-26T08:58:01.404Z</time></trkpt><trkpt lat="43.7564303" lon="12.6667909"><ele>179.0</ele><time>2026-04-26T08:58:02.403Z</time></trkpt><trkpt lat="43.756768" lon="12.6668583"><ele>177.66666666666666</ele><time>2026-04-26T08:58:04.406Z</time></trkpt><trkpt lat="43.7569431" lon="12.6668743"><ele>176.33333333333334</ele><time>2026-04-26T08:58:05.406Z</time></trkpt><trkpt lat="43.7571114" lon="12.6668848"><ele>175.0</ele><time>2026-04-26T08:58:06.41Z</time></trkpt><trkpt lat="43.7572704" lon="12.6668769"><ele>175.0</ele><time>2026-04-26T08:58:07.406Z</time></trkpt><trkpt lat="43.757429" lon="12.666861"><ele>175.0</ele><time>2026-04-26T08:58:08.404Z</time></trkpt><trkpt lat="43.7575826" lon="12.6668399"><ele>175.0</ele><time>2026-04-26T08:58:09.404Z</time></trkpt><trkpt lat="43.7577303" lon="12.6668334"><ele>174.0</ele><time>2026-04-26T08:58:10.405Z</time></trkpt><trkpt lat="43.7578772" lon="12.6668334"><ele>173.0</ele><time>2026-04-26T08:58:11.402Z</time></trkpt><trkpt lat="43.7580412" lon="12.6668676"><ele>172.0</ele><time>2026-04-26T08:58:12.408Z</time></trkpt><trkpt lat="43.7582015" lon="12.6669565"><ele>172.0</ele><time>2026-04-26T08:58:13.403Z</time></trkpt><trkpt lat="43.7583542" lon="12.6670909"><ele>172.0</ele><time>2026-04-26T08:58:14.411Z</time></trkpt><trkpt lat="43.7584864" lon="12.6672519"><ele>172.0</ele><time>2026-04-26T08:58:15.407Z</time></trkpt><trkpt lat="43.7586247" lon="12.667392"><ele>171.33333333333334</ele><time>2026-04-26T08:58:16.402Z</time></trkpt><trkpt lat="43.7587926" lon="12.6674984"><ele>170.66666666666666</ele><time>2026-04-26T08:58:17.404Z</time></trkpt><trkpt lat="43.7589737" lon="12.6675629"><ele>170.0</ele><time>2026-04-26T08:58:18.402Z</time></trkpt><trkpt lat="43.7591636" lon="12.6676011"><ele>172.0</ele><time>2026-04-26T08:58:19.403Z</time></trkpt><trkpt lat="43.7593678" lon="12.6676299"><ele>174.0</ele><time>2026-04-26T08:58:20.404Z</time></trkpt><trkpt lat="43.7595831" lon="12.6676511"><ele>176.0</ele><time>2026-04-26T08:58:21.4Z</time></trkpt><trkpt lat="43.7597899" lon="12.6676766"><ele>176.0</ele><time>2026-04-26T08:58:22.402Z</time></trkpt><trkpt lat="43.7599932" lon="12.6676957"><ele>176.0</ele><time>2026-04-26T08:58:23.402Z</time></trkpt><trkpt lat="43.7604102" lon="12.6677433"><ele>173.0</ele><time>2026-04-26T08:58:25.403Z</time></trkpt><trkpt lat="43.7606288" lon="12.6677784"><ele>170.0</ele><time>2026-04-26T08:58:26.409Z</time></trkpt><trkpt lat="43.7608556" lon="12.6678415"><ele>169.66666666666666</ele><time>2026-04-26T08:58:27.403Z</time></trkpt><trkpt lat="43.7610647" lon="12.6679395"><ele>169.33333333333334</ele><time>2026-04-26T08:58:28.406Z</time></trkpt><trkpt lat="43.7612625" lon="12.6680465"><ele>169.0</ele><time>2026-04-26T08:58:29.405Z</time></trkpt><trkpt lat="43.7614537" lon="12.668176"><ele>169.0</ele><time>2026-04-26T08:58:30.404Z</time></trkpt><trkpt lat="43.7616384" lon="12.6683302"><ele>169.0</ele><time>2026-04-26T08:58:31.403Z</time></trkpt><trkpt lat="43.7618129" lon="12.6685014"><ele>169.0</ele><time>2026-04-26T08:58:32.406Z</time></trkpt><trkpt lat="43.7619735" lon="12.6686855"><ele>167.66666666666669</ele><time>2026-04-26T08:58:33.406Z</time></trkpt><trkpt lat="43.762122" lon="12.6688697"><ele>166.33333333333334</ele><time>2026-04-26T08:58:34.412Z</time></trkpt><trkpt lat="43.762259" lon="12.6690388"><ele>165.0</ele><time>2026-04-26T08:58:35.407Z</time></trkpt><trkpt lat="43.762393" lon="12.6691943"><ele>165.0</ele><time>2026-04-26T08:58:36.403Z</time></trkpt><trkpt lat="43.7625221" lon="12.6693299"><ele>165.0</ele><time>2026-04-26T08:58:37.402Z</time></trkpt><trkpt lat="43.7626512" lon="12.6694347"><ele>165.0</ele><time>2026-04-26T08:58:38.403Z</time></trkpt><trkpt lat="43.7627817" lon="12.6695046"><ele>163.4</ele><time>2026-04-26T08:58:39.404Z</time></trkpt><trkpt lat="43.762906" lon="12.669556"><ele>161.8</ele><time>2026-04-26T08:58:40.405Z</time></trkpt><trkpt lat="43.7630154" lon="12.6695905"><ele>160.2</ele><time>2026-04-26T08:58:41.405Z</time></trkpt><trkpt lat="43.7631059" lon="12.6696247"><ele>158.6</ele><time>2026-04-26T08:58:42.403Z</time></trkpt><trkpt lat="43.7631695" lon="12.6696533"><ele>157.0</ele><time>2026-04-26T08:58:43.407Z</time></trkpt><trkpt lat="43.7632394" lon="12.6697034"><ele>157.0</ele><time>2026-04-26T08:58:45.408Z</time></trkpt><trkpt lat="43.763185" lon="12.6695673"><ele>157.0</ele><time>2026-04-26T08:58:53.406Z</time></trkpt><trkpt lat="43.7630996" lon="12.6695497"><ele>157.0</ele><time>2026-04-26T08:58:54.411Z</time></trkpt><trkpt lat="43.7630004" lon="12.6695257"><ele>157.0</ele><time>2026-04-26T08:58:55.404Z</time></trkpt><trkpt lat="43.7629015" lon="12.6695013"><ele>157.0</ele><time>2026-04-26T08:58:56.41Z</time></trkpt><trkpt lat="43.7628088" lon="12.6694691"><ele>158.5</ele><time>2026-04-26T08:58:57.406Z</time></trkpt><trkpt lat="43.7627373" lon="12.6694362"><ele>160.0</ele><time>2026-04-26T08:58:58.406Z</time></trkpt><trkpt lat="43.7626872" lon="12.6693773"><ele>161.5</ele><time>2026-04-26T08:59:01.402Z</time></trkpt><trkpt lat="43.7627175" lon="12.6692623"><ele>163.0</ele><time>2026-04-26T08:59:07.4Z</time></trkpt><trkpt lat="43.7628516" lon="12.6689873"><ele>163.0</ele><time>2026-04-26T08:59:11.406Z</time></trkpt><trkpt lat="43.76288" lon="12.668909"><ele>163.0</ele><time>2026-04-26T08:59:12.407Z</time></trkpt><trkpt lat="43.7629026" lon="12.6688216"><ele>163.0</ele><time>2026-04-26T08:59:13.407Z</time></trkpt><trkpt lat="43.7629187" lon="12.6686641"><ele>163.0</ele><time>2026-04-26T08:59:15.406Z</time></trkpt><trkpt lat="43.7628555" lon="12.6685777"><ele>163.0</ele><time>2026-04-26T08:59:17.405Z</time></trkpt><trkpt lat="43.7627702" lon="12.668636"><ele>163.0</ele><time>2026-04-26T08:59:19.411Z</time></trkpt><trkpt lat="43.7627132" lon="12.668685"><ele>163.33333333333334</ele><time>2026-04-26T08:59:20.402Z</time></trkpt><trkpt lat="43.7626487" lon="12.6687293"><ele>163.66666666666669</ele><time>2026-04-26T08:59:21.406Z</time></trkpt><trkpt lat="43.7625696" lon="12.6687525"><ele>164.0</ele><time>2026-04-26T08:59:22.411Z</time></trkpt><trkpt lat="43.7625064" lon="12.6687533"><ele>164.33333333333334</ele><time>2026-04-26T08:59:23.404Z</time></trkpt><trkpt lat="43.7624468" lon="12.6687202"><ele>164.66666666666666</ele><time>2026-04-26T08:59:24.409Z</time></trkpt><trkpt lat="43.7623946" lon="12.6685581"><ele>165.0</ele><time>2026-04-26T08:59:26.404Z</time></trkpt><trkpt lat="43.7623849" lon="12.6684535"><ele>167.5</ele><time>2026-04-26T08:59:27.404Z</time></trkpt><trkpt lat="43.762377" lon="12.6683294"><ele>170.0</ele><time>2026-04-26T08:59:28.407Z</time></trkpt><trkpt lat="43.7623758" lon="12.6680425"><ele>172.5</ele><time>2026-04-26T08:59:30.403Z</time></trkpt><trkpt lat="43.7623731" lon="12.6679013"><ele>175.0</ele><time>2026-04-26T08:59:31.407Z</time></trkpt><trkpt lat="43.7623667" lon="12.6677666"><ele>177.6</ele><time>2026-04-26T08:59:32.41Z</time></trkpt><trkpt lat="43.7623603" lon="12.6676417"><ele>180.2</ele><time>2026-04-26T08:59:33.409Z</time></trkpt><trkpt lat="43.7623503" lon="12.6675202"><ele>182.8</ele><time>2026-04-26T08:59:34.407Z</time></trkpt><trkpt lat="43.7623305" lon="12.6674006"><ele>185.4</ele><time>2026-04-26T08:59:35.403Z</time></trkpt><trkpt lat="43.7623001" lon="12.6672818"><ele>188.0</ele><time>2026-04-26T08:59:36.405Z</time></trkpt><trkpt lat="43.762259" lon="12.6671663"><ele>188.0</ele><time>2026-04-26T08:59:37.404Z</time></trkpt><trkpt lat="43.7622107" lon="12.6670507"><ele>188.0</ele><time>2026-04-26T08:59:38.409Z</time></trkpt><trkpt lat="43.7621623" lon="12.6669475"><ele>188.0</ele><time>2026-04-26T08:59:39.409Z</time></trkpt><trkpt lat="43.7621074" lon="12.6668744"><ele>188.0</ele><time>2026-04-26T08:59:40.403Z</time></trkpt><trkpt lat="43.7620388" lon="12.6668196"><ele>188.0</ele><time>2026-04-26T08:59:41.404Z</time></trkpt><trkpt lat="43.7619689" lon="12.6667734"><ele>188.0</ele><time>2026-04-26T08:59:42.404Z</time></trkpt><trkpt lat="43.761865" lon="12.6667786"><ele>191.8</ele><time>2026-04-26T08:59:43.414Z</time></trkpt><trkpt lat="43.7617736" lon="12.6667878"><ele>195.60000000000002</ele><time>2026-04-26T08:59:44.407Z</time></trkpt><trkpt lat="43.761707" lon="12.6667757"><ele>199.39999999999998</ele><time>2026-04-26T08:59:45.403Z</time></trkpt><trkpt lat="43.7616596" lon="12.6666733"><ele>203.2</ele><time>2026-04-26T08:59:47.404Z</time></trkpt><trkpt lat="43.7617048" lon="12.6665535"><ele>207.0</ele><time>2026-04-26T08:59:49.41Z</time></trkpt><trkpt lat="43.7618325" lon="12.6664311"><ele>207.0</ele><time>2026-04-26T08:59:51.404Z</time></trkpt><trkpt lat="43.7618944" lon="12.6663799"><ele>207.0</ele><time>2026-04-26T08:59:52.403Z</time></trkpt><trkpt lat="43.7619196" lon="12.6662786"><ele>207.0</ele><time>2026-04-26T08:59:54.403Z</time></trkpt><trkpt lat="43.761867" lon="12.6661679"><ele>207.0</ele><time>2026-04-26T08:59:56.404Z</time></trkpt><trkpt lat="43.7617647" lon="12.6661849"><ele>207.0</ele><time>2026-04-26T08:59:58.403Z</time></trkpt><trkpt lat="43.7617067" lon="12.6662299"><ele>207.0</ele><time>2026-04-26T08:59:59.407Z</time></trkpt><trkpt lat="43.7616488" lon="12.6662928"><ele>207.0</ele><time>2026-04-26T09:00:00.399Z</time></trkpt><trkpt lat="43.7615889" lon="12.6663462"><ele>207.0</ele><time>2026-04-26T09:00:01.403Z</time></trkpt><trkpt lat="43.7615257" lon="12.6663725"><ele>207.0</ele><time>2026-04-26T09:00:02.405Z</time></trkpt><trkpt lat="43.7614529" lon="12.6663689"><ele>207.0</ele><time>2026-04-26T09:00:03.405Z</time></trkpt><trkpt lat="43.7613801" lon="12.6663359"><ele>207.0</ele><time>2026-04-26T09:00:04.406Z</time></trkpt><trkpt lat="43.7613075" lon="12.6662796"><ele>207.0</ele><time>2026-04-26T09:00:05.402Z</time></trkpt><trkpt lat="43.7612357" lon="12.666213"><ele>207.0</ele><time>2026-04-26T09:00:06.407Z</time></trkpt><trkpt lat="43.761168" lon="12.6661436"><ele>207.0</ele><time>2026-04-26T09:00:07.409Z</time></trkpt><trkpt lat="43.7610867" lon="12.6660771"><ele>207.0</ele><time>2026-04-26T09:00:08.402Z</time></trkpt><trkpt lat="43.7610016" lon="12.6660145"><ele>207.0</ele><time>2026-04-26T09:00:09.403Z</time></trkpt><trkpt lat="43.7609214" lon="12.6659432"><ele>207.0</ele><time>2026-04-26T09:00:10.402Z</time></trkpt><trkpt lat="43.7607651" lon="12.6658259"><ele>213.0</ele><time>2026-04-26T09:00:12.404Z</time></trkpt><trkpt lat="43.760683" lon="12.6657576"><ele>219.0</ele><time>2026-04-26T09:00:13.403Z</time></trkpt><trkpt lat="43.7606042" lon="12.6656845"><ele>225.0</ele><time>2026-04-26T09:00:14.403Z</time></trkpt><trkpt lat="43.760529" lon="12.6655916"><ele>231.0</ele><time>2026-04-26T09:00:15.407Z</time></trkpt><trkpt lat="43.7604554" lon="12.6654796"><ele>237.0</ele><time>2026-04-26T09:00:16.404Z</time></trkpt><trkpt lat="43.76038" lon="12.665363"><ele>238.2</ele><time>2026-04-26T09:00:17.408Z</time></trkpt><trkpt lat="43.7602999" lon="12.6652393"><ele>239.39999999999998</ele><time>2026-04-26T09:00:18.402Z</time></trkpt><trkpt lat="43.7602324" lon="12.665122"><ele>240.60000000000002</ele><time>2026-04-26T09:00:19.404Z</time></trkpt><trkpt lat="43.7601791" lon="12.6649958"><ele>241.8</ele><time>2026-04-26T09:00:20.403Z</time></trkpt><trkpt lat="43.7601343" lon="12.6648569"><ele>243.0</ele><time>2026-04-26T09:00:21.407Z</time></trkpt><trkpt lat="43.7601022" lon="12.6647154"><ele>243.0</ele><time>2026-04-26T09:00:22.41Z</time></trkpt><trkpt lat="43.7600762" lon="12.6645815"><ele>243.0</ele><time>2026-04-26T09:00:23.403Z</time></trkpt><trkpt lat="43.7600392" lon="12.6644527"><ele>243.0</ele><time>2026-04-26T09:00:24.406Z</time></trkpt><trkpt lat="43.7599884" lon="12.6643395"><ele>243.0</ele><time>2026-04-26T09:00:25.408Z</time></trkpt><trkpt lat="43.7599243" lon="12.6642338"><ele>243.0</ele><time>2026-04-26T09:00:26.407Z</time></trkpt><trkpt lat="43.7598492" lon="12.6641389"><ele>245.4</ele><time>2026-04-26T09:00:27.406Z</time></trkpt><trkpt lat="43.7597596" lon="12.6640632"><ele>247.8</ele><time>2026-04-26T09:00:28.409Z</time></trkpt><trkpt lat="43.7596546" lon="12.6640002"><ele>250.2</ele><time>2026-04-26T09:00:29.407Z</time></trkpt><trkpt lat="43.7595493" lon="12.6639448"><ele>252.6</ele><time>2026-04-26T09:00:30.402Z</time></trkpt><trkpt lat="43.7594378" lon="12.6639041"><ele>255.0</ele><time>2026-04-26T09:00:31.403Z</time></trkpt><trkpt lat="43.7592196" lon="12.6638638"><ele>255.0</ele><time>2026-04-26T09:00:33.402Z</time></trkpt><trkpt lat="43.7591184" lon="12.663855"><ele>255.0</ele><time>2026-04-26T09:00:34.403Z</time></trkpt><trkpt lat="43.7590192" lon="12.6638643"><ele>255.0</ele><time>2026-04-26T09:00:35.406Z</time></trkpt><trkpt lat="43.7589221" lon="12.6638936"><ele>255.0</ele><time>2026-04-26T09:00:36.41Z</time></trkpt><trkpt lat="43.7588204" lon="12.6639503"><ele>255.0</ele><time>2026-04-26T09:00:37.403Z</time></trkpt><trkpt lat="43.7587364" lon="12.6640032"><ele>255.0</ele><time>2026-04-26T09:00:38.403Z</time></trkpt><trkpt lat="43.7586587" lon="12.6640269"><ele>255.0</ele><time>2026-04-26T09:00:39.404Z</time></trkpt><trkpt lat="43.758587" lon="12.6640094"><ele>255.0</ele><time>2026-04-26T09:00:40.404Z</time></trkpt><trkpt lat="43.7585226" lon="12.6639577"><ele>255.0</ele><time>2026-04-26T09:00:41.402Z</time></trkpt><trkpt lat="43.7584631" lon="12.6638703"><ele>255.0</ele><time>2026-04-26T09:00:42.405Z</time></trkpt><trkpt lat="43.7584299" lon="12.6637698"><ele>255.0</ele><time>2026-04-26T09:00:43.408Z</time></trkpt><trkpt lat="43.7584281" lon="12.6636739"><ele>257.1666666666667</ele><time>2026-04-26T09:00:44.405Z</time></trkpt><trkpt lat="43.7584351" lon="12.6635799"><ele>259.3333333333333</ele><time>2026-04-26T09:00:45.403Z</time></trkpt><trkpt lat="43.7584755" lon="12.663487"><ele>261.5</ele><time>2026-04-26T09:00:46.403Z</time></trkpt><trkpt lat="43.7585057" lon="12.6634022"><ele>263.66666666666663</ele><time>2026-04-26T09:00:47.405Z</time></trkpt><trkpt lat="43.7585207" lon="12.6633071"><ele>265.8333333333333</ele><time>2026-04-26T09:00:48.404Z</time></trkpt><trkpt lat="43.7585253" lon="12.6631897"><ele>268.0</ele><time>2026-04-26T09:00:49.406Z</time></trkpt><trkpt lat="43.7585267" lon="12.6630685"><ele>269.4</ele><time>2026-04-26T09:00:50.412Z</time></trkpt><trkpt lat="43.7585449" lon="12.662959"><ele>270.8</ele><time>2026-04-26T09:00:51.405Z</time></trkpt><trkpt lat="43.7585837" lon="12.6628564"><ele>272.2</ele><time>2026-04-26T09:00:52.408Z</time></trkpt><trkpt lat="43.7586934" lon="12.6626577"><ele>273.6</ele><time>2026-04-26T09:00:54.403Z</time></trkpt><trkpt lat="43.7587549" lon="12.6625731"><ele>275.0</ele><time>2026-04-26T09:00:55.402Z</time></trkpt><trkpt lat="43.7588214" lon="12.6624881"><ele>277.0</ele><time>2026-04-26T09:00:56.412Z</time></trkpt><trkpt lat="43.7588887" lon="12.6623914"><ele>279.0</ele><time>2026-04-26T09:00:57.404Z</time></trkpt><trkpt lat="43.7589514" lon="12.6622846"><ele>281.0</ele><time>2026-04-26T09:00:58.402Z</time></trkpt><trkpt lat="43.7590041" lon="12.6621907"><ele>283.0</ele><time>2026-04-26T09:00:59.405Z</time></trkpt><trkpt lat="43.7590564" lon="12.6621376"><ele>285.0</ele><time>2026-04-26T09:01:00.404Z</time></trkpt><trkpt lat="43.7591457" lon="12.6621709"><ele>287.0</ele><time>2026-04-26T09:01:02.406Z</time></trkpt><trkpt lat="43.7591863" lon="12.6623377"><ele>287.0</ele><time>2026-04-26T09:01:04.409Z</time></trkpt><trkpt lat="43.7592161" lon="12.6624204"><ele>287.0</ele><time>2026-04-26T09:01:05.406Z</time></trkpt><trkpt lat="43.7593121" lon="12.6624693"><ele>287.0</ele><time>2026-04-26T09:01:07.409Z</time></trkpt><trkpt lat="43.7594029" lon="12.6623547"><ele>287.0</ele><time>2026-04-26T09:01:09.403Z</time></trkpt><trkpt lat="43.7594408" lon="12.662252"><ele>287.0</ele><time>2026-04-26T09:01:10.402Z</time></trkpt><trkpt lat="43.7594807" lon="12.6621358"><ele>290.25</ele><time>2026-04-26T09:01:11.409Z</time></trkpt><trkpt lat="43.7595284" lon="12.6620241"><ele>293.5</ele><time>2026-04-26T09:01:12.403Z</time></trkpt><trkpt lat="43.7595872" lon="12.6619088"><ele>296.75</ele><time>2026-04-26T09:01:13.407Z</time></trkpt><trkpt lat="43.7597298" lon="12.6617534"><ele>300.0</ele><time>2026-04-26T09:01:15.404Z</time></trkpt><trkpt lat="43.7598166" lon="12.6617183"><ele>302.0</ele><time>2026-04-26T09:01:16.409Z</time></trkpt><trkpt lat="43.7599065" lon="12.6616819"><ele>304.0</ele><time>2026-04-26T09:01:17.405Z</time></trkpt><trkpt lat="43.7599966" lon="12.661611"><ele>306.0</ele><time>2026-04-26T09:01:18.402Z</time></trkpt><trkpt lat="43.7600802" lon="12.6615207"><ele>308.0</ele><time>2026-04-26T09:01:19.403Z</time></trkpt><trkpt lat="43.7601583" lon="12.6614326"><ele>310.0</ele><time>2026-04-26T09:01:20.407Z</time></trkpt><trkpt lat="43.7602317" lon="12.6613471"><ele>310.0</ele><time>2026-04-26T09:01:21.403Z</time></trkpt><trkpt lat="43.7602997" lon="12.6612665"><ele>310.0</ele><time>2026-04-26T09:01:22.402Z</time></trkpt><trkpt lat="43.7603518" lon="12.6611869"><ele>310.0</ele><time>2026-04-26T09:01:23.407Z</time></trkpt><trkpt lat="43.7603854" lon="12.6610966"><ele>310.0</ele><time>2026-04-26T09:01:24.406Z</time></trkpt><trkpt lat="43.7603921" lon="12.6609817"><ele>310.0</ele><time>2026-04-26T09:01:25.406Z</time></trkpt><trkpt lat="43.760379" lon="12.6608531"><ele>310.0</ele><time>2026-04-26T09:01:26.41Z</time></trkpt><trkpt lat="43.7603632" lon="12.6607028"><ele>311.0</ele><time>2026-04-26T09:01:27.407Z</time></trkpt><trkpt lat="43.7603472" lon="12.660515"><ele>312.0</ele><time>2026-04-26T09:01:28.407Z</time></trkpt><trkpt lat="43.760328" lon="12.6602993"><ele>313.0</ele><time>2026-04-26T09:01:29.404Z</time></trkpt><trkpt lat="43.7603123" lon="12.6600761"><ele>313.0</ele><time>2026-04-26T09:01:30.404Z</time></trkpt><trkpt lat="43.7603" lon="12.6598577"><ele>313.0</ele><time>2026-04-26T09:01:31.402Z</time></trkpt><trkpt lat="43.7602904" lon="12.6596475"><ele>313.0</ele><time>2026-04-26T09:01:32.401Z</time></trkpt><trkpt lat="43.7602828" lon="12.6594508"><ele>314.3333333333333</ele><time>2026-04-26T09:01:33.408Z</time></trkpt><trkpt lat="43.7602694" lon="12.6592618"><ele>315.6666666666667</ele><time>2026-04-26T09:01:34.411Z</time></trkpt><trkpt lat="43.7602866" lon="12.6588868"><ele>317.0</ele><time>2026-04-26T09:01:36.402Z</time></trkpt><trkpt lat="43.760307" lon="12.6586874"><ele>319.6666666666667</ele><time>2026-04-26T09:01:37.41Z</time></trkpt><trkpt lat="43.7603237" lon="12.6584852"><ele>322.3333333333333</ele><time>2026-04-26T09:01:38.401Z</time></trkpt><trkpt lat="43.7603423" lon="12.6582743"><ele>325.0</ele><time>2026-04-26T09:01:39.402Z</time></trkpt><trkpt lat="43.7603646" lon="12.658061"><ele>325.0</ele><time>2026-04-26T09:01:40.403Z</time></trkpt><trkpt lat="43.7603894" lon="12.65785"><ele>325.0</ele><time>2026-04-26T09:01:41.403Z</time></trkpt><trkpt lat="43.7604158" lon="12.6576388"><ele>325.0</ele><time>2026-04-26T09:01:42.404Z</time></trkpt><trkpt lat="43.7604463" lon="12.6574312"><ele>327.5</ele><time>2026-04-26T09:01:43.409Z</time></trkpt><trkpt lat="43.7604767" lon="12.657228"><ele>330.0</ele><time>2026-04-26T09:01:44.406Z</time></trkpt><trkpt lat="43.7604992" lon="12.6570325"><ele>332.5</ele><time>2026-04-26T09:01:45.405Z</time></trkpt><trkpt lat="43.7605188" lon="12.6568477"><ele>335.0</ele><time>2026-04-26T09:01:46.402Z</time></trkpt><trkpt lat="43.7605344" lon="12.6566978"><ele>337.0</ele><time>2026-04-26T09:01:47.401Z</time></trkpt><trkpt lat="43.7605374" lon="12.6565819"><ele>339.0</ele><time>2026-04-26T09:01:48.401Z</time></trkpt><trkpt lat="43.7605236" lon="12.6564394"><ele>341.0</ele><time>2026-04-26T09:01:50.402Z</time></trkpt><trkpt lat="43.7604755" lon="12.6563659"><ele>343.0</ele><time>2026-04-26T09:01:52.408Z</time></trkpt><trkpt lat="43.760423" lon="12.6563133"><ele>345.0</ele><time>2026-04-26T09:01:53.411Z</time></trkpt><trkpt lat="43.7603555" lon="12.6562354"><ele>347.0</ele><time>2026-04-26T09:01:54.404Z</time></trkpt><trkpt lat="43.7602956" lon="12.6561131"><ele>351.0</ele><time>2026-04-26T09:01:55.408Z</time></trkpt><trkpt lat="43.7601913" lon="12.655746"><ele>355.0</ele><time>2026-04-26T09:01:57.411Z</time></trkpt><trkpt lat="43.7601338" lon="12.6555478"><ele>359.0</ele><time>2026-04-26T09:01:58.413Z</time></trkpt><trkpt lat="43.760089" lon="12.6553745"><ele>360.75</ele><time>2026-04-26T09:01:59.405Z</time></trkpt><trkpt lat="43.7600661" lon="12.6552101"><ele>362.5</ele><time>2026-04-26T09:02:00.402Z</time></trkpt><trkpt lat="43.7600929" lon="12.6550473"><ele>364.25</ele><time>2026-04-26T09:02:01.403Z</time></trkpt><trkpt lat="43.7601512" lon="12.654865"><ele>366.0</ele><time>2026-04-26T09:02:02.401Z</time></trkpt><trkpt lat="43.760227" lon="12.6546611"><ele>368.6666666666667</ele><time>2026-04-26T09:02:03.405Z</time></trkpt><trkpt lat="43.7603136" lon="12.654466"><ele>371.33333333333337</ele><time>2026-04-26T09:02:04.412Z</time></trkpt><trkpt lat="43.7604218" lon="12.6542842"><ele>374.0</ele><time>2026-04-26T09:02:05.403Z</time></trkpt><trkpt lat="43.7605664" lon="12.6541016"><ele>374.0</ele><time>2026-04-26T09:02:06.411Z</time></trkpt><trkpt lat="43.7607093" lon="12.6539209"><ele>374.0</ele><time>2026-04-26T09:02:07.403Z</time></trkpt><trkpt lat="43.760838" lon="12.6537549"><ele>374.0</ele><time>2026-04-26T09:02:08.403Z</time></trkpt><trkpt lat="43.7609427" lon="12.6536066"><ele>372.75</ele><time>2026-04-26T09:02:09.404Z</time></trkpt><trkpt lat="43.7610152" lon="12.6534471"><ele>371.5</ele><time>2026-04-26T09:02:10.402Z</time></trkpt><trkpt lat="43.7610496" lon="12.6532582"><ele>370.25</ele><time>2026-04-26T09:02:11.404Z</time></trkpt><trkpt lat="43.7610354" lon="12.6530454"><ele>369.0</ele><time>2026-04-26T09:02:12.405Z</time></trkpt><trkpt lat="43.7610021" lon="12.6528157"><ele>370.6666666666667</ele><time>2026-04-26T09:02:13.409Z</time></trkpt><trkpt lat="43.7609722" lon="12.6525642"><ele>372.33333333333337</ele><time>2026-04-26T09:02:14.408Z</time></trkpt><trkpt lat="43.7609523" lon="12.6522996"><ele>374.0</ele><time>2026-04-26T09:02:15.402Z</time></trkpt><trkpt lat="43.7609399" lon="12.6520369"><ele>376.0</ele><time>2026-04-26T09:02:16.401Z</time></trkpt><trkpt lat="43.7609425" lon="12.6515227"><ele>378.0</ele><time>2026-04-26T09:02:18.402Z</time></trkpt><trkpt lat="43.760946" lon="12.6512708"><ele>377.3333333333333</ele><time>2026-04-26T09:02:19.404Z</time></trkpt><trkpt lat="43.7609509" lon="12.6510327"><ele>376.66666666666663</ele><time>2026-04-26T09:02:20.404Z</time></trkpt><trkpt lat="43.7609659" lon="12.6507938"><ele>376.0</ele><time>2026-04-26T09:02:21.407Z</time></trkpt><trkpt lat="43.7610042" lon="12.6505481"><ele>372.3333333333333</ele><time>2026-04-26T09:02:22.404Z</time></trkpt><trkpt lat="43.7610705" lon="12.6503021"><ele>368.6666666666667</ele><time>2026-04-26T09:02:23.407Z</time></trkpt><trkpt lat="43.7611654" lon="12.6500665"><ele>365.0</ele><time>2026-04-26T09:02:24.408Z</time></trkpt><trkpt lat="43.7612594" lon="12.649827"><ele>365.0</ele><time>2026-04-26T09:02:25.41Z</time></trkpt><trkpt lat="43.7613464" lon="12.6495927"><ele>365.0</ele><time>2026-04-26T09:02:26.409Z</time></trkpt><trkpt lat="43.7614311" lon="12.6493605"><ele>365.0</ele><time>2026-04-26T09:02:27.403Z</time></trkpt><trkpt lat="43.7615163" lon="12.6491254"><ele>370.0</ele><time>2026-04-26T09:02:28.404Z</time></trkpt><trkpt lat="43.7615966" lon="12.6488977"><ele>375.0</ele><time>2026-04-26T09:02:29.404Z</time></trkpt><trkpt lat="43.7616647" lon="12.6486822"><ele>380.0</ele><time>2026-04-26T09:02:30.402Z</time></trkpt><trkpt lat="43.7617319" lon="12.6484862"><ele>382.5</ele><time>2026-04-26T09:02:31.402Z</time></trkpt><trkpt lat="43.7617701" lon="12.6482884"><ele>385.0</ele><time>2026-04-26T09:02:32.401Z</time></trkpt><trkpt lat="43.7617845" lon="12.6481013"><ele>387.5</ele><time>2026-04-26T09:02:33.403Z</time></trkpt><trkpt lat="43.7617794" lon="12.6479283"><ele>390.0</ele><time>2026-04-26T09:02:34.408Z</time></trkpt><trkpt lat="43.7617428" lon="12.6477642"><ele>390.0</ele><time>2026-04-26T09:02:35.411Z</time></trkpt><trkpt lat="43.7616799" lon="12.6475947"><ele>390.0</ele><time>2026-04-26T09:02:36.407Z</time></trkpt><trkpt lat="43.761604" lon="12.6474178"><ele>390.0</ele><time>2026-04-26T09:02:37.409Z</time></trkpt><trkpt lat="43.7614696" lon="12.6470929"><ele>388.0</ele><time>2026-04-26T09:02:39.403Z</time></trkpt><trkpt lat="43.7614222" lon="12.6469548"><ele>386.0</ele><time>2026-04-26T09:02:40.403Z</time></trkpt><trkpt lat="43.7613854" lon="12.6468485"><ele>384.0</ele><time>2026-04-26T09:02:41.401Z</time></trkpt><trkpt lat="43.7613808" lon="12.6467459"><ele>382.0</ele><time>2026-04-26T09:02:43.411Z</time></trkpt><trkpt lat="43.761459" lon="12.646711"><ele>380.0</ele><time>2026-04-26T09:02:45.408Z</time></trkpt><trkpt lat="43.7615725" lon="12.6466609"><ele>380.0</ele><time>2026-04-26T09:02:47.402Z</time></trkpt><trkpt lat="43.761651" lon="12.6465537"><ele>380.0</ele><time>2026-04-26T09:02:49.402Z</time></trkpt><trkpt lat="43.7616005" lon="12.646408"><ele>380.0</ele><time>2026-04-26T09:02:51.408Z</time></trkpt><trkpt lat="43.7615217" lon="12.6463559"><ele>380.0</ele><time>2026-04-26T09:02:52.407Z</time></trkpt><trkpt lat="43.7614434" lon="12.6462966"><ele>380.0</ele><time>2026-04-26T09:02:53.41Z</time></trkpt><trkpt lat="43.761384" lon="12.6462081"><ele>380.0</ele><time>2026-04-26T09:02:54.408Z</time></trkpt><trkpt lat="43.7613576" lon="12.6461125"><ele>380.0</ele><time>2026-04-26T09:02:55.408Z</time></trkpt><trkpt lat="43.7613974" lon="12.6460081"><ele>380.0</ele><time>2026-04-26T09:02:57.402Z</time></trkpt><trkpt lat="43.7615044" lon="12.6460439"><ele>380.0</ele><time>2026-04-26T09:02:59.401Z</time></trkpt><trkpt lat="43.7617557" lon="12.6461774"><ele>373.33333333333337</ele><time>2026-04-26T09:03:01.402Z</time></trkpt><trkpt lat="43.7619053" lon="12.6462479"><ele>366.6666666666667</ele><time>2026-04-26T09:03:02.403Z</time></trkpt><trkpt lat="43.7620706" lon="12.6463307"><ele>360.0</ele><time>2026-04-26T09:03:03.404Z</time></trkpt><trkpt lat="43.7622396" lon="12.6464031"><ele>360.0</ele><time>2026-04-26T09:03:04.408Z</time></trkpt><trkpt lat="43.762397" lon="12.6464675"><ele>360.0</ele><time>2026-04-26T09:03:05.402Z</time></trkpt><trkpt lat="43.7625798" lon="12.6465244"><ele>360.0</ele><time>2026-04-26T09:03:06.405Z</time></trkpt><trkpt lat="43.762749" lon="12.6465389"><ele>356.0</ele><time>2026-04-26T09:03:07.402Z</time></trkpt><trkpt lat="43.7629097" lon="12.6465559"><ele>352.0</ele><time>2026-04-26T09:03:08.401Z</time></trkpt><trkpt lat="43.7630759" lon="12.6465523"><ele>348.0</ele><time>2026-04-26T09:03:09.404Z</time></trkpt><trkpt lat="43.7632377" lon="12.6465354"><ele>348.0</ele><time>2026-04-26T09:03:10.402Z</time></trkpt><trkpt lat="43.7634" lon="12.646508"><ele>348.0</ele><time>2026-04-26T09:03:11.404Z</time></trkpt><trkpt lat="43.7635636" lon="12.64647"><ele>348.0</ele><time>2026-04-26T09:03:12.403Z</time></trkpt><trkpt lat="43.7637218" lon="12.6464313"><ele>342.6666666666667</ele><time>2026-04-26T09:03:13.417Z</time></trkpt><trkpt lat="43.7638762" lon="12.6464005"><ele>337.33333333333337</ele><time>2026-04-26T09:03:14.404Z</time></trkpt><trkpt lat="43.7640125" lon="12.6463806"><ele>332.0</ele><time>2026-04-26T09:03:15.407Z</time></trkpt><trkpt lat="43.7641567" lon="12.6462813"><ele>332.0</ele><time>2026-04-26T09:03:16.406Z</time></trkpt><trkpt lat="43.7643011" lon="12.6462486"><ele>332.0</ele><time>2026-04-26T09:03:17.403Z</time></trkpt><trkpt lat="43.7644341" lon="12.6462214"><ele>332.0</ele><time>2026-04-26T09:03:18.404Z</time></trkpt><trkpt lat="43.7645619" lon="12.6461877"><ele>332.0</ele><time>2026-04-26T09:03:19.405Z</time></trkpt><trkpt lat="43.7646801" lon="12.6461317"><ele>327.5</ele><time>2026-04-26T09:03:20.401Z</time></trkpt><trkpt lat="43.7648538" lon="12.6460661"><ele>323.0</ele><time>2026-04-26T09:03:22.404Z</time></trkpt><trkpt lat="43.76494" lon="12.646116"><ele>318.5</ele><time>2026-04-26T09:03:23.409Z</time></trkpt><trkpt lat="43.7650322" lon="12.64622"><ele>314.0</ele><time>2026-04-26T09:03:24.408Z</time></trkpt><trkpt lat="43.7651291" lon="12.6463683"><ele>307.33333333333337</ele><time>2026-04-26T09:03:25.402Z</time></trkpt><trkpt lat="43.765233" lon="12.646534"><ele>300.6666666666667</ele><time>2026-04-26T09:03:26.407Z</time></trkpt><trkpt lat="43.7653475" lon="12.6467052"><ele>294.0</ele><time>2026-04-26T09:03:27.404Z</time></trkpt><trkpt lat="43.7654638" lon="12.6468685"><ele>296.25</ele><time>2026-04-26T09:03:28.402Z</time></trkpt><trkpt lat="43.7655704" lon="12.6470315"><ele>298.5</ele><time>2026-04-26T09:03:29.403Z</time></trkpt><trkpt lat="43.7656652" lon="12.6471854"><ele>300.75</ele><time>2026-04-26T09:03:30.404Z</time></trkpt><trkpt lat="43.7657535" lon="12.6473303"><ele>303.0</ele><time>2026-04-26T09:03:31.402Z</time></trkpt><trkpt lat="43.7658267" lon="12.6474791"><ele>303.0</ele><time>2026-04-26T09:03:32.408Z</time></trkpt><trkpt lat="43.7658841" lon="12.6476446"><ele>303.0</ele><time>2026-04-26T09:03:33.403Z</time></trkpt><trkpt lat="43.7659251" lon="12.6478103"><ele>303.0</ele><time>2026-04-26T09:03:34.405Z</time></trkpt><trkpt lat="43.7659551" lon="12.6479729"><ele>303.0</ele><time>2026-04-26T09:03:35.405Z</time></trkpt><trkpt lat="43.7659684" lon="12.6481385"><ele>303.8</ele><time>2026-04-26T09:03:36.402Z</time></trkpt><trkpt lat="43.7659648" lon="12.6483078"><ele>304.6</ele><time>2026-04-26T09:03:37.405Z</time></trkpt><trkpt lat="43.7659509" lon="12.6484597"><ele>305.4</ele><time>2026-04-26T09:03:38.401Z</time></trkpt><trkpt lat="43.7659205" lon="12.6485819"><ele>306.2</ele><time>2026-04-26T09:03:39.403Z</time></trkpt><trkpt lat="43.7658772" lon="12.6487036"><ele>307.0</ele><time>2026-04-26T09:03:40.406Z</time></trkpt><trkpt lat="43.7658146" lon="12.6488359"><ele>303.75</ele><time>2026-04-26T09:03:41.403Z</time></trkpt><trkpt lat="43.7656952" lon="12.6490882"><ele>300.5</ele><time>2026-04-26T09:03:43.403Z</time></trkpt><trkpt lat="43.7656184" lon="12.6491999"><ele>297.25</ele><time>2026-04-26T09:03:44.407Z</time></trkpt><trkpt lat="43.7655428" lon="12.6492937"><ele>294.0</ele><time>2026-04-26T09:03:45.401Z</time></trkpt><trkpt lat="43.7654518" lon="12.6493818"><ele>294.0</ele><time>2026-04-26T09:03:46.404Z</time></trkpt><trkpt lat="43.7653478" lon="12.6494594"><ele>294.0</ele><time>2026-04-26T09:03:47.4Z</time></trkpt><trkpt lat="43.7652516" lon="12.649524"><ele>294.0</ele><time>2026-04-26T09:03:48.403Z</time></trkpt><trkpt lat="43.7651627" lon="12.6496148"><ele>294.0</ele><time>2026-04-26T09:03:49.403Z</time></trkpt><trkpt lat="43.765081" lon="12.6497191"><ele>294.0</ele><time>2026-04-26T09:03:50.412Z</time></trkpt><trkpt lat="43.7649972" lon="12.6498257"><ele>294.0</ele><time>2026-04-26T09:03:51.41Z</time></trkpt><trkpt lat="43.7649607" lon="12.6499429"><ele>294.0</ele><time>2026-04-26T09:03:52.407Z</time></trkpt><trkpt lat="43.7649355" lon="12.6500613"><ele>294.0</ele><time>2026-04-26T09:03:53.402Z</time></trkpt><trkpt lat="43.7649305" lon="12.6501709"><ele>294.0</ele><time>2026-04-26T09:03:54.402Z</time></trkpt><trkpt lat="43.7649593" lon="12.65026"><ele>294.0</ele><time>2026-04-26T09:03:55.404Z</time></trkpt><trkpt lat="43.7650065" lon="12.6503222"><ele>294.0</ele><time>2026-04-26T09:03:56.404Z</time></trkpt><trkpt lat="43.7650689" lon="12.6503347"><ele>290.5</ele><time>2026-04-26T09:03:57.404Z</time></trkpt><trkpt lat="43.7651616" lon="12.650315"><ele>287.0</ele><time>2026-04-26T09:03:58.402Z</time></trkpt><trkpt lat="43.7652867" lon="12.6502754"><ele>283.5</ele><time>2026-04-26T09:03:59.403Z</time></trkpt><trkpt lat="43.7654362" lon="12.6502198"><ele>280.0</ele><time>2026-04-26T09:04:00.4Z</time></trkpt><trkpt lat="43.765592" lon="12.6501496"><ele>278.0</ele><time>2026-04-26T09:04:01.404Z</time></trkpt><trkpt lat="43.7657585" lon="12.6500825"><ele>276.0</ele><time>2026-04-26T09:04:02.406Z</time></trkpt><trkpt lat="43.7660906" lon="12.6499587"><ele>271.0</ele><time>2026-04-26T09:04:04.405Z</time></trkpt><trkpt lat="43.7662589" lon="12.6498899"><ele>266.0</ele><time>2026-04-26T09:04:05.401Z</time></trkpt><trkpt lat="43.7664248" lon="12.6498268"><ele>261.0</ele><time>2026-04-26T09:04:06.404Z</time></trkpt><trkpt lat="43.766594" lon="12.6497588"><ele>261.0</ele><time>2026-04-26T09:04:07.403Z</time></trkpt><trkpt lat="43.7667568" lon="12.6497045"><ele>261.0</ele><time>2026-04-26T09:04:08.402Z</time></trkpt><trkpt lat="43.7669114" lon="12.6496458"><ele>261.0</ele><time>2026-04-26T09:04:09.404Z</time></trkpt><trkpt lat="43.7670514" lon="12.6495922"><ele>260.5</ele><time>2026-04-26T09:04:10.404Z</time></trkpt><trkpt lat="43.767184" lon="12.6495458"><ele>260.0</ele><time>2026-04-26T09:04:11.402Z</time></trkpt><trkpt lat="43.7673111" lon="12.6494836"><ele>259.5</ele><time>2026-04-26T09:04:12.404Z</time></trkpt><trkpt lat="43.7674319" lon="12.6494033"><ele>259.0</ele><time>2026-04-26T09:04:13.402Z</time></trkpt><trkpt lat="43.7675573" lon="12.6493004"><ele>259.0</ele><time>2026-04-26T09:04:14.403Z</time></trkpt><trkpt lat="43.7676745" lon="12.6491924"><ele>259.0</ele><time>2026-04-26T09:04:15.403Z</time></trkpt><trkpt lat="43.7677868" lon="12.649083"><ele>259.0</ele><time>2026-04-26T09:04:16.403Z</time></trkpt><trkpt lat="43.7678903" lon="12.6489854"><ele>259.0</ele><time>2026-04-26T09:04:17.405Z</time></trkpt><trkpt lat="43.7679832" lon="12.6488939"><ele>256.4</ele><time>2026-04-26T09:04:18.404Z</time></trkpt><trkpt lat="43.7680641" lon="12.6487963"><ele>253.79999999999998</ele><time>2026-04-26T09:04:19.404Z</time></trkpt><trkpt lat="43.7681278" lon="12.6486793"><ele>251.20000000000002</ele><time>2026-04-26T09:04:20.404Z</time></trkpt><trkpt lat="43.7681693" lon="12.6485399"><ele>248.60000000000002</ele><time>2026-04-26T09:04:21.405Z</time></trkpt><trkpt lat="43.7681955" lon="12.6483894"><ele>246.0</ele><time>2026-04-26T09:04:22.409Z</time></trkpt><trkpt lat="43.7682254" lon="12.6482551"><ele>246.0</ele><time>2026-04-26T09:04:23.407Z</time></trkpt><trkpt lat="43.7683452" lon="12.6480688"><ele>246.0</ele><time>2026-04-26T09:04:25.402Z</time></trkpt><trkpt lat="43.7684389" lon="12.6480419"><ele>246.0</ele><time>2026-04-26T09:04:26.401Z</time></trkpt><trkpt lat="43.7685372" lon="12.6480675"><ele>246.0</ele><time>2026-04-26T09:04:27.405Z</time></trkpt><trkpt lat="43.7686469" lon="12.6481467"><ele>241.5</ele><time>2026-04-26T09:04:28.403Z</time></trkpt><trkpt lat="43.7687484" lon="12.6482561"><ele>237.0</ele><time>2026-04-26T09:04:29.41Z</time></trkpt><trkpt lat="43.7688531" lon="12.6483661"><ele>232.5</ele><time>2026-04-26T09:04:30.405Z</time></trkpt><trkpt lat="43.7689723" lon="12.6484722"><ele>228.0</ele><time>2026-04-26T09:04:31.403Z</time></trkpt><trkpt lat="43.7691053" lon="12.6485635"><ele>228.33333333333331</ele><time>2026-04-26T09:04:32.401Z</time></trkpt><trkpt lat="43.7692496" lon="12.6486463"><ele>228.66666666666666</ele><time>2026-04-26T09:04:33.405Z</time></trkpt><trkpt lat="43.7693933" lon="12.6487327"><ele>229.0</ele><time>2026-04-26T09:04:34.402Z</time></trkpt><trkpt lat="43.7695368" lon="12.6488141"><ele>225.66666666666666</ele><time>2026-04-26T09:04:35.41Z</time></trkpt><trkpt lat="43.769678" lon="12.6488969"><ele>222.33333333333331</ele><time>2026-04-26T09:04:36.41Z</time></trkpt><trkpt lat="43.7698169" lon="12.6489978"><ele>219.0</ele><time>2026-04-26T09:04:37.408Z</time></trkpt><trkpt lat="43.7699477" lon="12.649106"><ele>219.0</ele><time>2026-04-26T09:04:38.403Z</time></trkpt><trkpt lat="43.7700757" lon="12.6492161"><ele>219.0</ele><time>2026-04-26T09:04:39.406Z</time></trkpt><trkpt lat="43.7701999" lon="12.649318"><ele>219.0</ele><time>2026-04-26T09:04:40.407Z</time></trkpt><trkpt lat="43.7703253" lon="12.6494156"><ele>219.0</ele><time>2026-04-26T09:04:41.408Z</time></trkpt><trkpt lat="43.7704617" lon="12.6494932"><ele>214.66666666666669</ele><time>2026-04-26T09:04:42.409Z</time></trkpt><trkpt lat="43.7706097" lon="12.6495366"><ele>210.33333333333334</ele><time>2026-04-26T09:04:43.405Z</time></trkpt><trkpt lat="43.7707677" lon="12.6495434"><ele>206.0</ele><time>2026-04-26T09:04:44.4Z</time></trkpt><trkpt lat="43.7710878" lon="12.6494772"><ele>205.75</ele><time>2026-04-26T09:04:46.403Z</time></trkpt><trkpt lat="43.7712393" lon="12.6494291"><ele>205.5</ele><time>2026-04-26T09:04:47.406Z</time></trkpt><trkpt lat="43.7713792" lon="12.6493859"><ele>205.25</ele><time>2026-04-26T09:04:48.404Z</time></trkpt><trkpt lat="43.7715209" lon="12.649352"><ele>205.0</ele><time>2026-04-26T09:04:49.408Z</time></trkpt><trkpt lat="43.7716578" lon="12.649326"><ele>205.0</ele><time>2026-04-26T09:04:50.406Z</time></trkpt><trkpt lat="43.7717923" lon="12.6493107"><ele>205.0</ele><time>2026-04-26T09:04:51.408Z</time></trkpt><trkpt lat="43.7719128" lon="12.6492952"><ele>205.0</ele><time>2026-04-26T09:04:52.408Z</time></trkpt><trkpt lat="43.7720271" lon="12.6492829"><ele>205.0</ele><time>2026-04-26T09:04:53.402Z</time></trkpt><trkpt lat="43.7721235" lon="12.6492783"><ele>203.66666666666666</ele><time>2026-04-26T09:04:54.404Z</time></trkpt><trkpt lat="43.7722141" lon="12.6492752"><ele>202.33333333333331</ele><time>2026-04-26T09:04:55.405Z</time></trkpt><trkpt lat="43.7722945" lon="12.6492639"><ele>201.0</ele><time>2026-04-26T09:04:56.404Z</time></trkpt><trkpt lat="43.7723756" lon="12.6492496"><ele>199.66666666666669</ele><time>2026-04-26T09:04:57.405Z</time></trkpt><trkpt lat="43.7724505" lon="12.6492434"><ele>198.33333333333334</ele><time>2026-04-26T09:04:58.405Z</time></trkpt><trkpt lat="43.7725365" lon="12.6492328"><ele>197.0</ele><time>2026-04-26T09:04:59.402Z</time></trkpt><trkpt lat="43.7726257" lon="12.6492202"><ele>197.00000000000003</ele><time>2026-04-26T09:05:00.407Z</time></trkpt><trkpt lat="43.7727117" lon="12.649206"><ele>197.0</ele><time>2026-04-26T09:05:01.398Z</time></trkpt><trkpt lat="43.7727968" lon="12.6491885"><ele>197.0</ele><time>2026-04-26T09:05:02.401Z</time></trkpt><trkpt lat="43.7728796" lon="12.6491774"><ele>197.0</ele><time>2026-04-26T09:05:03.401Z</time></trkpt><trkpt lat="43.7729599" lon="12.6491739"><ele>197.00000000000003</ele><time>2026-04-26T09:05:04.405Z</time></trkpt><trkpt lat="43.7730406" lon="12.6491685"><ele>197.0</ele><time>2026-04-26T09:05:05.405Z</time></trkpt><trkpt lat="43.7732141" lon="12.64915"><ele>197.0</ele><time>2026-04-26T09:05:07.405Z</time></trkpt><trkpt lat="43.7733076" lon="12.6491416"><ele>197.0</ele><time>2026-04-26T09:05:08.405Z</time></trkpt><trkpt lat="43.7734093" lon="12.6491301"><ele>197.0</ele><time>2026-04-26T09:05:09.408Z</time></trkpt><trkpt lat="43.7735317" lon="12.6491187"><ele>197.0</ele><time>2026-04-26T09:05:10.408Z</time></trkpt><trkpt lat="43.773681" lon="12.6490983"><ele>196.66666666666669</ele><time>2026-04-26T09:05:11.403Z</time></trkpt><trkpt lat="43.7738519" lon="12.6490719"><ele>196.33333333333331</ele><time>2026-04-26T09:05:12.403Z</time></trkpt><trkpt lat="43.7740343" lon="12.6490473"><ele>196.0</ele><time>2026-04-26T09:05:13.402Z</time></trkpt><trkpt lat="43.7742123" lon="12.6490243"><ele>199.0</ele><time>2026-04-26T09:05:14.406Z</time></trkpt><trkpt lat="43.7744005" lon="12.6490086"><ele>202.0</ele><time>2026-04-26T09:05:15.408Z</time></trkpt><trkpt lat="43.7745953" lon="12.6489938"><ele>205.0</ele><time>2026-04-26T09:05:16.405Z</time></trkpt><trkpt lat="43.7747929" lon="12.6489684"><ele>205.0</ele><time>2026-04-26T09:05:17.405Z</time></trkpt><trkpt lat="43.7749826" lon="12.6489404"><ele>205.0</ele><time>2026-04-26T09:05:18.405Z</time></trkpt><trkpt lat="43.775159" lon="12.6489081"><ele>205.0</ele><time>2026-04-26T09:05:19.407Z</time></trkpt><trkpt lat="43.7753191" lon="12.6488777"><ele>204.66666666666666</ele><time>2026-04-26T09:05:20.407Z</time></trkpt><trkpt lat="43.7754682" lon="12.6488453"><ele>204.33333333333331</ele><time>2026-04-26T09:05:21.404Z</time></trkpt><trkpt lat="43.7756238" lon="12.6488105"><ele>204.0</ele><time>2026-04-26T09:05:22.406Z</time></trkpt><trkpt lat="43.7757769" lon="12.6487715"><ele>204.0</ele><time>2026-04-26T09:05:23.404Z</time></trkpt><trkpt lat="43.7759274" lon="12.6487402"><ele>204.0</ele><time>2026-04-26T09:05:24.405Z</time></trkpt><trkpt lat="43.7760691" lon="12.6487121"><ele>204.0</ele><time>2026-04-26T09:05:25.405Z</time></trkpt><trkpt lat="43.7762138" lon="12.6486856"><ele>204.0</ele><time>2026-04-26T09:05:26.406Z</time></trkpt><trkpt lat="43.7765452" lon="12.6486483"><ele>200.33333333333331</ele><time>2026-04-26T09:05:28.409Z</time></trkpt><trkpt lat="43.7767191" lon="12.6486298"><ele>196.66666666666666</ele><time>2026-04-26T09:05:29.407Z</time></trkpt><trkpt lat="43.7768869" lon="12.6486137"><ele>193.0</ele><time>2026-04-26T09:05:30.405Z</time></trkpt><trkpt lat="43.7770613" lon="12.6486001"><ele>191.0</ele><time>2026-04-26T09:05:31.4Z</time></trkpt><trkpt lat="43.777244" lon="12.648589"><ele>189.0</ele><time>2026-04-26T09:05:32.404Z</time></trkpt><trkpt lat="43.7774217" lon="12.6485797"><ele>187.0</ele><time>2026-04-26T09:05:33.407Z</time></trkpt><trkpt lat="43.7775958" lon="12.6485741"><ele>187.66666666666669</ele><time>2026-04-26T09:05:34.404Z</time></trkpt><trkpt lat="43.7777584" lon="12.6485656"><ele>188.33333333333334</ele><time>2026-04-26T09:05:35.406Z</time></trkpt><trkpt lat="43.7779104" lon="12.6485469"><ele>189.0</ele><time>2026-04-26T09:05:36.407Z</time></trkpt><trkpt lat="43.7780562" lon="12.6485196"><ele>189.0</ele><time>2026-04-26T09:05:37.406Z</time></trkpt><trkpt lat="43.7782022" lon="12.6484849"><ele>189.0</ele><time>2026-04-26T09:05:38.41Z</time></trkpt><trkpt lat="43.7783404" lon="12.6484323"><ele>189.0</ele><time>2026-04-26T09:05:39.403Z</time></trkpt><trkpt lat="43.7784739" lon="12.6483621"><ele>189.0</ele><time>2026-04-26T09:05:40.405Z</time></trkpt><trkpt lat="43.7785973" lon="12.6482697"><ele>187.75</ele><time>2026-04-26T09:05:41.402Z</time></trkpt><trkpt lat="43.7787185" lon="12.6481667"><ele>186.5</ele><time>2026-04-26T09:05:42.405Z</time></trkpt><trkpt lat="43.7788406" lon="12.648051"><ele>185.25</ele><time>2026-04-26T09:05:43.402Z</time></trkpt><trkpt lat="43.7789635" lon="12.6479496"><ele>184.0</ele><time>2026-04-26T09:05:44.404Z</time></trkpt><trkpt lat="43.7790917" lon="12.6478613"><ele>179.66666666666669</ele><time>2026-04-26T09:05:45.404Z</time></trkpt><trkpt lat="43.7792195" lon="12.647788"><ele>175.33333333333334</ele><time>2026-04-26T09:05:46.403Z</time></trkpt><trkpt lat="43.7793395" lon="12.6477248"><ele>171.0</ele><time>2026-04-26T09:05:47.407Z</time></trkpt><trkpt lat="43.7795701" lon="12.6476697"><ele>170.4</ele><time>2026-04-26T09:05:49.407Z</time></trkpt><trkpt lat="43.7796771" lon="12.6476944"><ele>169.8</ele><time>2026-04-26T09:05:50.402Z</time></trkpt><trkpt lat="43.7797797" lon="12.6477268"><ele>169.20000000000002</ele><time>2026-04-26T09:05:51.401Z</time></trkpt><trkpt lat="43.7798929" lon="12.6477739"><ele>168.60000000000002</ele><time>2026-04-26T09:05:52.402Z</time></trkpt><trkpt lat="43.7799838" lon="12.6478594"><ele>168.0</ele><time>2026-04-26T09:05:53.402Z</time></trkpt><trkpt lat="43.7800777" lon="12.6479316"><ele>168.0</ele><time>2026-04-26T09:05:54.404Z</time></trkpt><trkpt lat="43.7801601" lon="12.6479726"><ele>168.0</ele><time>2026-04-26T09:05:55.402Z</time></trkpt><trkpt lat="43.7802488" lon="12.6479669"><ele>168.0</ele><time>2026-04-26T09:05:56.407Z</time></trkpt><trkpt lat="43.7803548" lon="12.6479094"><ele>168.0</ele><time>2026-04-26T09:05:57.409Z</time></trkpt><trkpt lat="43.7804662" lon="12.6478124"><ele>168.0</ele><time>2026-04-26T09:05:58.408Z</time></trkpt><trkpt lat="43.7805762" lon="12.6477008"><ele>163.0</ele><time>2026-04-26T09:05:59.409Z</time></trkpt><trkpt lat="43.7806846" lon="12.6475558"><ele>158.0</ele><time>2026-04-26T09:06:00.409Z</time></trkpt><trkpt lat="43.7807874" lon="12.6474007"><ele>153.0</ele><time>2026-04-26T09:06:01.398Z</time></trkpt><trkpt lat="43.7808877" lon="12.6472476"><ele>153.0</ele><time>2026-04-26T09:06:02.406Z</time></trkpt><trkpt lat="43.7809852" lon="12.6471004"><ele>153.0</ele><time>2026-04-26T09:06:03.402Z</time></trkpt><trkpt lat="43.7810716" lon="12.6469633"><ele>153.0</ele><time>2026-04-26T09:06:04.405Z</time></trkpt><trkpt lat="43.781159" lon="12.6468481"><ele>153.0</ele><time>2026-04-26T09:06:05.404Z</time></trkpt><trkpt lat="43.7812452" lon="12.6467674"><ele>149.25</ele><time>2026-04-26T09:06:06.407Z</time></trkpt><trkpt lat="43.7813377" lon="12.6467231"><ele>145.5</ele><time>2026-04-26T09:06:07.412Z</time></trkpt><trkpt lat="43.7814216" lon="12.6467123"><ele>141.75</ele><time>2026-04-26T09:06:08.412Z</time></trkpt><trkpt lat="43.7815817" lon="12.6468773"><ele>138.0</ele><time>2026-04-26T09:06:10.402Z</time></trkpt><trkpt lat="43.7816436" lon="12.6470335"><ele>138.0</ele><time>2026-04-26T09:06:11.403Z</time></trkpt><trkpt lat="43.7817056" lon="12.6472266"><ele>138.0</ele><time>2026-04-26T09:06:12.403Z</time></trkpt><trkpt lat="43.7817731" lon="12.6474273"><ele>138.0</ele><time>2026-04-26T09:06:13.408Z</time></trkpt><trkpt lat="43.7818346" lon="12.6476202"><ele>132.5</ele><time>2026-04-26T09:06:14.403Z</time></trkpt><trkpt lat="43.7818699" lon="12.6478082"><ele>127.0</ele><time>2026-04-26T09:06:15.409Z</time></trkpt><trkpt lat="43.7819096" lon="12.6480115"><ele>121.5</ele><time>2026-04-26T09:06:16.407Z</time></trkpt><trkpt lat="43.7819502" lon="12.6482111"><ele>116.0</ele><time>2026-04-26T09:06:17.405Z</time></trkpt><trkpt lat="43.781993" lon="12.6484018"><ele>116.0</ele><time>2026-04-26T09:06:18.41Z</time></trkpt><trkpt lat="43.7820199" lon="12.6485999"><ele>116.0</ele><time>2026-04-26T09:06:19.402Z</time></trkpt><trkpt lat="43.782028" lon="12.6487982"><ele>116.0</ele><time>2026-04-26T09:06:20.4Z</time></trkpt><trkpt lat="43.7820456" lon="12.6489877"><ele>116.0</ele><time>2026-04-26T09:06:21.403Z</time></trkpt><trkpt lat="43.7820622" lon="12.6491608"><ele>115.83333333333333</ele><time>2026-04-26T09:06:22.403Z</time></trkpt><trkpt lat="43.7820751" lon="12.649318"><ele>115.66666666666666</ele><time>2026-04-26T09:06:23.405Z</time></trkpt><trkpt lat="43.7820909" lon="12.6494483"><ele>115.5</ele><time>2026-04-26T09:06:24.405Z</time></trkpt><trkpt lat="43.7821218" lon="12.6495353"><ele>115.33333333333334</ele><time>2026-04-26T09:06:25.405Z</time></trkpt><trkpt lat="43.7822167" lon="12.6495676"><ele>115.16666666666667</ele><time>2026-04-26T09:06:27.406Z</time></trkpt><trkpt lat="43.7822651" lon="12.6495001"><ele>115.0</ele><time>2026-04-26T09:06:28.401Z</time></trkpt><trkpt lat="43.7823088" lon="12.6493893"><ele>115.0</ele><time>2026-04-26T09:06:29.402Z</time></trkpt><trkpt lat="43.7824059" lon="12.6491352"><ele>115.0</ele><time>2026-04-26T09:06:31.4Z</time></trkpt><trkpt lat="43.7824575" lon="12.6489684"><ele>115.0</ele><time>2026-04-26T09:06:32.4Z</time></trkpt><trkpt lat="43.7825159" lon="12.6487793"><ele>115.33333333333334</ele><time>2026-04-26T09:06:33.399Z</time></trkpt><trkpt lat="43.7825816" lon="12.6485683"><ele>115.66666666666666</ele><time>2026-04-26T09:06:34.404Z</time></trkpt><trkpt lat="43.7826563" lon="12.6483472"><ele>116.0</ele><time>2026-04-26T09:06:35.402Z</time></trkpt><trkpt lat="43.7827393" lon="12.6481124"><ele>111.0</ele><time>2026-04-26T09:06:36.406Z</time></trkpt><trkpt lat="43.7828205" lon="12.6478659"><ele>106.0</ele><time>2026-04-26T09:06:37.405Z</time></trkpt><trkpt lat="43.7828951" lon="12.6476279"><ele>101.0</ele><time>2026-04-26T09:06:38.405Z</time></trkpt><trkpt lat="43.7829729" lon="12.6473959"><ele>101.0</ele><time>2026-04-26T09:06:39.403Z</time></trkpt><trkpt lat="43.7830516" lon="12.647169"><ele>101.0</ele><time>2026-04-26T09:06:40.404Z</time></trkpt><trkpt lat="43.7831214" lon="12.6469552"><ele>101.0</ele><time>2026-04-26T09:06:41.401Z</time></trkpt><trkpt lat="43.7831794" lon="12.6467551"><ele>101.5</ele><time>2026-04-26T09:06:42.403Z</time></trkpt><trkpt lat="43.7832374" lon="12.6465781"><ele>102.0</ele><time>2026-04-26T09:06:43.403Z</time></trkpt><trkpt lat="43.7833062" lon="12.6464279"><ele>102.5</ele><time>2026-04-26T09:06:44.402Z</time></trkpt><trkpt lat="43.7834106" lon="12.6463129"><ele>103.0</ele><time>2026-04-26T09:06:45.408Z</time></trkpt><trkpt lat="43.78353" lon="12.6461979"><ele>100.66666666666667</ele><time>2026-04-26T09:06:46.412Z</time></trkpt><trkpt lat="43.7836531" lon="12.6460757"><ele>98.33333333333334</ele><time>2026-04-26T09:06:47.404Z</time></trkpt><trkpt lat="43.7837854" lon="12.6459359"><ele>96.0</ele><time>2026-04-26T09:06:48.408Z</time></trkpt><trkpt lat="43.7839073" lon="12.6457883"><ele>96.0</ele><time>2026-04-26T09:06:49.415Z</time></trkpt><trkpt lat="43.7840272" lon="12.6456592"><ele>96.0</ele><time>2026-04-26T09:06:50.402Z</time></trkpt><trkpt lat="43.7842081" lon="12.6454189"><ele>96.0</ele><time>2026-04-26T09:06:52.402Z</time></trkpt><trkpt lat="43.7842574" lon="12.6452629"><ele>96.25</ele><time>2026-04-26T09:06:53.403Z</time></trkpt><trkpt lat="43.7842875" lon="12.6450977"><ele>96.5</ele><time>2026-04-26T09:06:54.409Z</time></trkpt><trkpt lat="43.7843201" lon="12.644923"><ele>96.75</ele><time>2026-04-26T09:06:55.402Z</time></trkpt><trkpt lat="43.7843534" lon="12.6447259"><ele>97.0</ele><time>2026-04-26T09:06:56.402Z</time></trkpt><trkpt lat="43.7843904" lon="12.6445412"><ele>96.75</ele><time>2026-04-26T09:06:57.404Z</time></trkpt><trkpt lat="43.7844267" lon="12.644345"><ele>96.5</ele><time>2026-04-26T09:06:58.401Z</time></trkpt><trkpt lat="43.7844647" lon="12.6441589"><ele>96.25</ele><time>2026-04-26T09:06:59.405Z</time></trkpt><trkpt lat="43.7845053" lon="12.6439844"><ele>96.0</ele><time>2026-04-26T09:07:00.409Z</time></trkpt><trkpt lat="43.7845477" lon="12.6437936"><ele>97.5</ele><time>2026-04-26T09:07:01.407Z</time></trkpt><trkpt lat="43.7845824" lon="12.6436095"><ele>99.0</ele><time>2026-04-26T09:07:02.4Z</time></trkpt><trkpt lat="43.7846091" lon="12.6434372"><ele>100.5</ele><time>2026-04-26T09:07:03.408Z</time></trkpt><trkpt lat="43.7846152" lon="12.6432947"><ele>102.0</ele><time>2026-04-26T09:07:04.406Z</time></trkpt><trkpt lat="43.7845883" lon="12.6431664"><ele>102.0</ele><time>2026-04-26T09:07:05.408Z</time></trkpt><trkpt lat="43.7845315" lon="12.6430653"><ele>102.0</ele><time>2026-04-26T09:07:06.402Z</time></trkpt><trkpt lat="43.7844489" lon="12.6429817"><ele>102.0</ele><time>2026-04-26T09:07:07.41Z</time></trkpt><trkpt lat="43.7843428" lon="12.6429112"><ele>102.0</ele><time>2026-04-26T09:07:08.409Z</time></trkpt><trkpt lat="43.7842248" lon="12.6428126"><ele>101.33333333333334</ele><time>2026-04-26T09:07:09.405Z</time></trkpt><trkpt lat="43.7841099" lon="12.6426861"><ele>100.66666666666667</ele><time>2026-04-26T09:07:10.408Z</time></trkpt><trkpt lat="43.7840186" lon="12.6425594"><ele>100.0</ele><time>2026-04-26T09:07:11.403Z</time></trkpt><trkpt lat="43.7839548" lon="12.6422961"><ele>100.0</ele><time>2026-04-26T09:07:13.408Z</time></trkpt><trkpt lat="43.7839848" lon="12.6421674"><ele>100.0</ele><time>2026-04-26T09:07:14.403Z</time></trkpt><trkpt lat="43.7840503" lon="12.642028"><ele>100.0</ele><time>2026-04-26T09:07:15.403Z</time></trkpt><trkpt lat="43.7841462" lon="12.6418794"><ele>100.0</ele><time>2026-04-26T09:07:16.405Z</time></trkpt><trkpt lat="43.7842552" lon="12.6417137"><ele>103.33333333333334</ele><time>2026-04-26T09:07:17.405Z</time></trkpt><trkpt lat="43.7843633" lon="12.6415506"><ele>106.66666666666666</ele><time>2026-04-26T09:07:18.411Z</time></trkpt><trkpt lat="43.7844685" lon="12.6413866"><ele>110.0</ele><time>2026-04-26T09:07:19.403Z</time></trkpt><trkpt lat="43.7845886" lon="12.6412072"><ele>109.66666666666666</ele><time>2026-04-26T09:07:20.403Z</time></trkpt><trkpt lat="43.7847014" lon="12.6410229"><ele>109.33333333333334</ele><time>2026-04-26T09:07:21.407Z</time></trkpt><trkpt lat="43.7848005" lon="12.6408615"><ele>109.0</ele><time>2026-04-26T09:07:22.411Z</time></trkpt><trkpt lat="43.7848863" lon="12.6407284"><ele>109.0</ele><time>2026-04-26T09:07:23.411Z</time></trkpt><trkpt lat="43.7849692" lon="12.6406355"><ele>109.0</ele><time>2026-04-26T09:07:24.401Z</time></trkpt><trkpt lat="43.7850537" lon="12.6406048"><ele>109.0</ele><time>2026-04-26T09:07:25.402Z</time></trkpt><trkpt lat="43.7851281" lon="12.6406364"><ele>109.0</ele><time>2026-04-26T09:07:26.403Z</time></trkpt><trkpt lat="43.7852117" lon="12.6406942"><ele>109.0</ele><time>2026-04-26T09:07:27.404Z</time></trkpt><trkpt lat="43.7853094" lon="12.6408152"><ele>109.33333333333334</ele><time>2026-04-26T09:07:28.407Z</time></trkpt><trkpt lat="43.785415" lon="12.6409452"><ele>109.66666666666666</ele><time>2026-04-26T09:07:29.402Z</time></trkpt><trkpt lat="43.7855335" lon="12.6410836"><ele>110.0</ele><time>2026-04-26T09:07:30.409Z</time></trkpt><trkpt lat="43.7856534" lon="12.6412297"><ele>110.0</ele><time>2026-04-26T09:07:31.399Z</time></trkpt><trkpt lat="43.7857755" lon="12.6413793"><ele>110.0</ele><time>2026-04-26T09:07:32.402Z</time></trkpt><trkpt lat="43.7860119" lon="12.6416772"><ele>109.66666666666666</ele><time>2026-04-26T09:07:34.405Z</time></trkpt><trkpt lat="43.7861318" lon="12.6418304"><ele>109.33333333333334</ele><time>2026-04-26T09:07:35.402Z</time></trkpt><trkpt lat="43.7862554" lon="12.6419834"><ele>109.0</ele><time>2026-04-26T09:07:36.406Z</time></trkpt><trkpt lat="43.7863746" lon="12.6421236"><ele>109.0</ele><time>2026-04-26T09:07:37.405Z</time></trkpt><trkpt lat="43.7864769" lon="12.6422531"><ele>109.0</ele><time>2026-04-26T09:07:38.401Z</time></trkpt><trkpt lat="43.7865646" lon="12.6423728"><ele>109.0</ele><time>2026-04-26T09:07:39.404Z</time></trkpt><trkpt lat="43.7866421" lon="12.6424631"><ele>109.0</ele><time>2026-04-26T09:07:40.404Z</time></trkpt><trkpt lat="43.7867099" lon="12.6425208"><ele>109.0</ele><time>2026-04-26T09:07:41.405Z</time></trkpt><trkpt lat="43.7868307" lon="12.6424869"><ele>108.75</ele><time>2026-04-26T09:07:43.406Z</time></trkpt><trkpt lat="43.7868947" lon="12.6423761"><ele>108.5</ele><time>2026-04-26T09:07:44.403Z</time></trkpt><trkpt lat="43.7869806" lon="12.6422266"><ele>108.25</ele><time>2026-04-26T09:07:45.406Z</time></trkpt><trkpt lat="43.7870815" lon="12.6420681"><ele>108.0</ele><time>2026-04-26T09:07:46.402Z</time></trkpt><trkpt lat="43.7871901" lon="12.641899"><ele>108.0</ele><time>2026-04-26T09:07:47.4Z</time></trkpt><trkpt lat="43.7872958" lon="12.6417329"><ele>108.0</ele><time>2026-04-26T09:07:48.402Z</time></trkpt><trkpt lat="43.7873879" lon="12.6415735"><ele>108.0</ele><time>2026-04-26T09:07:49.403Z</time></trkpt><trkpt lat="43.7874806" lon="12.6414221"><ele>108.0</ele><time>2026-04-26T09:07:50.405Z</time></trkpt><trkpt lat="43.7875596" lon="12.6412956"><ele>108.0</ele><time>2026-04-26T09:07:51.407Z</time></trkpt><trkpt lat="43.7876354" lon="12.6411667"><ele>108.0</ele><time>2026-04-26T09:07:52.406Z</time></trkpt><trkpt lat="43.7877036" lon="12.6410514"><ele>108.0</ele><time>2026-04-26T09:07:53.407Z</time></trkpt><trkpt lat="43.7878871" lon="12.6409263"><ele>108.0</ele><time>2026-04-26T09:07:55.402Z</time></trkpt><trkpt lat="43.788036" lon="12.6409102"><ele>108.0</ele><time>2026-04-26T09:07:56.4Z</time></trkpt><trkpt lat="43.7882066" lon="12.6409132"><ele>108.0</ele><time>2026-04-26T09:07:57.402Z</time></trkpt><trkpt lat="43.7883968" lon="12.6409085"><ele>109.33333333333334</ele><time>2026-04-26T09:07:58.408Z</time></trkpt><trkpt lat="43.7885978" lon="12.640895"><ele>110.66666666666667</ele><time>2026-04-26T09:07:59.402Z</time></trkpt><trkpt lat="43.7887888" lon="12.6408821"><ele>112.0</ele><time>2026-04-26T09:08:00.407Z</time></trkpt><trkpt lat="43.788969" lon="12.6408659"><ele>112.0</ele><time>2026-04-26T09:08:01.405Z</time></trkpt><trkpt lat="43.7891428" lon="12.6408444"><ele>112.0</ele><time>2026-04-26T09:08:02.404Z</time></trkpt><trkpt lat="43.7893072" lon="12.6408097"><ele>112.0</ele><time>2026-04-26T09:08:03.401Z</time></trkpt><trkpt lat="43.789468" lon="12.640743"><ele>112.75</ele><time>2026-04-26T09:08:04.398Z</time></trkpt><trkpt lat="43.7896162" lon="12.6406822"><ele>113.5</ele><time>2026-04-26T09:08:05.402Z</time></trkpt><trkpt lat="43.789743" lon="12.640622"><ele>114.25</ele><time>2026-04-26T09:08:06.402Z</time></trkpt><trkpt lat="43.789849" lon="12.6405721"><ele>115.0</ele><time>2026-04-26T09:08:07.401Z</time></trkpt><trkpt lat="43.7899331" lon="12.6405265"><ele>115.0</ele><time>2026-04-26T09:08:08.402Z</time></trkpt><trkpt lat="43.7900012" lon="12.6404965"><ele>115.0</ele><time>2026-04-26T09:08:09.405Z</time></trkpt><trkpt lat="43.7901015" lon="12.640464"><ele>115.0</ele><time>2026-04-26T09:08:11.403Z</time></trkpt><trkpt lat="43.7902008" lon="12.6404401"><ele>115.0</ele><time>2026-04-26T09:08:13.408Z</time></trkpt><trkpt lat="43.7902611" lon="12.6404074"><ele>115.0</ele><time>2026-04-26T09:08:14.404Z</time></trkpt><trkpt lat="43.7903874" lon="12.6403183"><ele>114.8</ele><time>2026-04-26T09:08:16.402Z</time></trkpt><trkpt lat="43.7904504" lon="12.6402662"><ele>114.6</ele><time>2026-04-26T09:08:17.408Z</time></trkpt><trkpt lat="43.7905054" lon="12.6402154"><ele>114.4</ele><time>2026-04-26T09:08:18.403Z</time></trkpt><trkpt lat="43.7906193" lon="12.6400704"><ele>114.2</ele><time>2026-04-26T09:08:20.407Z</time></trkpt><trkpt lat="43.7907094" lon="12.6399394"><ele>114.0</ele><time>2026-04-26T09:08:21.401Z</time></trkpt><trkpt lat="43.7908056" lon="12.6397672"><ele>114.0</ele><time>2026-04-26T09:08:22.403Z</time></trkpt><trkpt lat="43.7909078" lon="12.6395668"><ele>114.0</ele><time>2026-04-26T09:08:23.403Z</time></trkpt><trkpt lat="43.7910063" lon="12.6393629"><ele>114.0</ele><time>2026-04-26T09:08:24.404Z</time></trkpt><trkpt lat="43.7911104" lon="12.6391581"><ele>114.66666666666666</ele><time>2026-04-26T09:08:25.402Z</time></trkpt><trkpt lat="43.7912008" lon="12.6389468"><ele>115.33333333333333</ele><time>2026-04-26T09:08:26.403Z</time></trkpt><trkpt lat="43.7912751" lon="12.6387117"><ele>116.0</ele><time>2026-04-26T09:08:27.408Z</time></trkpt><trkpt lat="43.7913303" lon="12.6384624"><ele>116.0</ele><time>2026-04-26T09:08:28.407Z</time></trkpt><trkpt lat="43.7913694" lon="12.6381988"><ele>116.0</ele><time>2026-04-26T09:08:29.402Z</time></trkpt><trkpt lat="43.7913919" lon="12.6379236"><ele>116.0</ele><time>2026-04-26T09:08:30.403Z</time></trkpt><trkpt lat="43.7913961" lon="12.6376369"><ele>113.33333333333333</ele><time>2026-04-26T09:08:31.404Z</time></trkpt><trkpt lat="43.791377" lon="12.6373454"><ele>110.66666666666666</ele><time>2026-04-26T09:08:32.4Z</time></trkpt><trkpt lat="43.7913471" lon="12.6370557"><ele>108.0</ele><time>2026-04-26T09:08:33.403Z</time></trkpt><trkpt lat="43.7913215" lon="12.6367591"><ele>106.0</ele><time>2026-04-26T09:08:34.405Z</time></trkpt><trkpt lat="43.7912923" lon="12.6364557"><ele>104.0</ele><time>2026-04-26T09:08:35.403Z</time></trkpt><trkpt lat="43.7912325" lon="12.6358363"><ele>103.33333333333333</ele><time>2026-04-26T09:08:37.406Z</time></trkpt><trkpt lat="43.791204" lon="12.635532"><ele>102.66666666666666</ele><time>2026-04-26T09:08:38.402Z</time></trkpt><trkpt lat="43.791173" lon="12.6352266"><ele>102.0</ele><time>2026-04-26T09:08:39.402Z</time></trkpt><trkpt lat="43.7911487" lon="12.6349222"><ele>102.0</ele><time>2026-04-26T09:08:40.402Z</time></trkpt><trkpt lat="43.7911204" lon="12.6346167"><ele>102.0</ele><time>2026-04-26T09:08:41.403Z</time></trkpt><trkpt lat="43.7910924" lon="12.6343181"><ele>102.0</ele><time>2026-04-26T09:08:42.408Z</time></trkpt><trkpt lat="43.7910597" lon="12.6340231"><ele>101.33333333333334</ele><time>2026-04-26T09:08:43.401Z</time></trkpt><trkpt lat="43.7910294" lon="12.6337287"><ele>100.66666666666667</ele><time>2026-04-26T09:08:44.407Z</time></trkpt><trkpt lat="43.7910022" lon="12.6334327"><ele>100.0</ele><time>2026-04-26T09:08:45.404Z</time></trkpt><trkpt lat="43.7909706" lon="12.6331368"><ele>99.66666666666667</ele><time>2026-04-26T09:08:46.402Z</time></trkpt><trkpt lat="43.7909442" lon="12.6328425"><ele>99.33333333333334</ele><time>2026-04-26T09:08:47.404Z</time></trkpt><trkpt lat="43.7909229" lon="12.6325479"><ele>99.0</ele><time>2026-04-26T09:08:48.402Z</time></trkpt><trkpt lat="43.7909072" lon="12.6322589"><ele>98.33333333333334</ele><time>2026-04-26T09:08:49.401Z</time></trkpt><trkpt lat="43.7908983" lon="12.6319745"><ele>97.66666666666667</ele><time>2026-04-26T09:08:50.403Z</time></trkpt><trkpt lat="43.7909073" lon="12.6316923"><ele>97.0</ele><time>2026-04-26T09:08:51.405Z</time></trkpt><trkpt lat="43.7909277" lon="12.6314123"><ele>97.66666666666667</ele><time>2026-04-26T09:08:52.406Z</time></trkpt><trkpt lat="43.7909601" lon="12.6311305"><ele>98.33333333333334</ele><time>2026-04-26T09:08:53.403Z</time></trkpt><trkpt lat="43.7910079" lon="12.6308516"><ele>99.0</ele><time>2026-04-26T09:08:54.404Z</time></trkpt><trkpt lat="43.7910677" lon="12.6305773"><ele>102.5</ele><time>2026-04-26T09:08:55.401Z</time></trkpt><trkpt lat="43.7911416" lon="12.6303002"><ele>106.0</ele><time>2026-04-26T09:08:56.403Z</time></trkpt><trkpt lat="43.7913319" lon="12.6297658"><ele>106.0</ele><time>2026-04-26T09:08:58.402Z</time></trkpt><trkpt lat="43.7914454" lon="12.6295027"><ele>106.0</ele><time>2026-04-26T09:08:59.409Z</time></trkpt><trkpt lat="43.7915698" lon="12.629242"><ele>106.0</ele><time>2026-04-26T09:09:00.402Z</time></trkpt><trkpt lat="43.7916963" lon="12.6289839"><ele>104.0</ele><time>2026-04-26T09:09:01.403Z</time></trkpt><trkpt lat="43.791819" lon="12.6287169"><ele>102.0</ele><time>2026-04-26T09:09:02.401Z</time></trkpt><trkpt lat="43.7919459" lon="12.6284461"><ele>101.0</ele><time>2026-04-26T09:09:03.401Z</time></trkpt><trkpt lat="43.792075" lon="12.6281763"><ele>100.0</ele><time>2026-04-26T09:09:04.399Z</time></trkpt><trkpt lat="43.7922051" lon="12.6279024"><ele>100.0</ele><time>2026-04-26T09:09:05.409Z</time></trkpt><trkpt lat="43.7923335" lon="12.6276288"><ele>100.0</ele><time>2026-04-26T09:09:06.403Z</time></trkpt><trkpt lat="43.7924653" lon="12.6273497"><ele>100.0</ele><time>2026-04-26T09:09:07.413Z</time></trkpt><trkpt lat="43.7926007" lon="12.6270679"><ele>100.0</ele><time>2026-04-26T09:09:08.403Z</time></trkpt><trkpt lat="43.7927385" lon="12.6267858"><ele>101.5</ele><time>2026-04-26T09:09:09.406Z</time></trkpt><trkpt lat="43.7928727" lon="12.6265053"><ele>103.0</ele><time>2026-04-26T09:09:10.405Z</time></trkpt><trkpt lat="43.7929998" lon="12.6262303"><ele>102.5</ele><time>2026-04-26T09:09:11.405Z</time></trkpt><trkpt lat="43.7931281" lon="12.6259644"><ele>102.0</ele><time>2026-04-26T09:09:12.407Z</time></trkpt><trkpt lat="43.7932453" lon="12.6257043"><ele>102.0</ele><time>2026-04-26T09:09:13.402Z</time></trkpt><trkpt lat="43.7933621" lon="12.6254562"><ele>102.0</ele><time>2026-04-26T09:09:14.406Z</time></trkpt><trkpt lat="43.7934761" lon="12.6252126"><ele>102.0</ele><time>2026-04-26T09:09:15.402Z</time></trkpt><trkpt lat="43.7935853" lon="12.624981"><ele>102.0</ele><time>2026-04-26T09:09:16.402Z</time></trkpt><trkpt lat="43.7937793" lon="12.6245358"><ele>102.0</ele><time>2026-04-26T09:09:18.4Z</time></trkpt><trkpt lat="43.7938619" lon="12.6243283"><ele>102.0</ele><time>2026-04-26T09:09:19.402Z</time></trkpt><trkpt lat="43.7939332" lon="12.6241464"><ele>102.0</ele><time>2026-04-26T09:09:20.404Z</time></trkpt><trkpt lat="43.7939921" lon="12.6239925"><ele>102.0</ele><time>2026-04-26T09:09:21.404Z</time></trkpt><trkpt lat="43.7940643" lon="12.6238625"><ele>102.0</ele><time>2026-04-26T09:09:22.406Z</time></trkpt><trkpt lat="43.7941275" lon="12.6237399"><ele>102.25</ele><time>2026-04-26T09:09:23.405Z</time></trkpt><trkpt lat="43.7941668" lon="12.6235867"><ele>102.5</ele><time>2026-04-26T09:09:24.404Z</time></trkpt><trkpt lat="43.7941817" lon="12.6233954"><ele>102.75</ele><time>2026-04-26T09:09:25.412Z</time></trkpt><trkpt lat="43.7942097" lon="12.6231968"><ele>103.0</ele><time>2026-04-26T09:09:26.402Z</time></trkpt><trkpt lat="43.7942558" lon="12.6229961"><ele>103.0</ele><time>2026-04-26T09:09:27.402Z</time></trkpt><trkpt lat="43.7943093" lon="12.6227858"><ele>103.0</ele><time>2026-04-26T09:09:28.406Z</time></trkpt><trkpt lat="43.7943648" lon="12.6225732"><ele>103.0</ele><time>2026-04-26T09:09:29.4Z</time></trkpt><trkpt lat="43.7944263" lon="12.6223554"><ele>103.0</ele><time>2026-04-26T09:09:30.401Z</time></trkpt><trkpt lat="43.7944874" lon="12.6221282"><ele>103.0</ele><time>2026-04-26T09:09:31.404Z</time></trkpt><trkpt lat="43.7945509" lon="12.6218925"><ele>103.0</ele><time>2026-04-26T09:09:32.4Z</time></trkpt><trkpt lat="43.7946145" lon="12.6216483"><ele>103.0</ele><time>2026-04-26T09:09:33.4Z</time></trkpt><trkpt lat="43.7946819" lon="12.6214014"><ele>103.0</ele><time>2026-04-26T09:09:34.403Z</time></trkpt><trkpt lat="43.7947447" lon="12.6211489"><ele>103.0</ele><time>2026-04-26T09:09:35.401Z</time></trkpt><trkpt lat="43.794816" lon="12.6208967"><ele>103.0</ele><time>2026-04-26T09:09:36.405Z</time></trkpt><trkpt lat="43.7949017" lon="12.6206458"><ele>103.0</ele><time>2026-04-26T09:09:37.404Z</time></trkpt><trkpt lat="43.7950828" lon="12.6202026"><ele>104.0</ele><time>2026-04-26T09:09:39.407Z</time></trkpt><trkpt lat="43.7951768" lon="12.6200151"><ele>105.0</ele><time>2026-04-26T09:09:40.405Z</time></trkpt><trkpt lat="43.7952774" lon="12.6198426"><ele>106.0</ele><time>2026-04-26T09:09:41.403Z</time></trkpt><trkpt lat="43.795381" lon="12.6196804"><ele>106.0</ele><time>2026-04-26T09:09:42.409Z</time></trkpt><trkpt lat="43.7954796" lon="12.6195198"><ele>106.0</ele><time>2026-04-26T09:09:43.403Z</time></trkpt><trkpt lat="43.7956303" lon="12.6194384"><ele>106.0</ele><time>2026-04-26T09:09:44.402Z</time></trkpt><trkpt lat="43.7957974" lon="12.6193716"><ele>106.25</ele><time>2026-04-26T09:09:45.41Z</time></trkpt><trkpt lat="43.7959468" lon="12.6193099"><ele>106.5</ele><time>2026-04-26T09:09:46.409Z</time></trkpt><trkpt lat="43.7960762" lon="12.6192536"><ele>106.75</ele><time>2026-04-26T09:09:47.403Z</time></trkpt><trkpt lat="43.7961805" lon="12.6191755"><ele>107.0</ele><time>2026-04-26T09:09:48.4Z</time></trkpt><trkpt lat="43.7962447" lon="12.6190723"><ele>107.0</ele><time>2026-04-26T09:09:49.402Z</time></trkpt><trkpt lat="43.7962613" lon="12.6189551"><ele>106.99999999999999</ele><time>2026-04-26T09:09:50.409Z</time></trkpt><trkpt lat="43.7962485" lon="12.6188539"><ele>106.99999999999999</ele><time>2026-04-26T09:09:51.402Z</time></trkpt><trkpt lat="43.7961984" lon="12.6187498"><ele>107.0</ele><time>2026-04-26T09:09:53.404Z</time></trkpt><trkpt lat="43.7961072" lon="12.6187041"><ele>107.0</ele><time>2026-04-26T09:09:55.411Z</time></trkpt><trkpt lat="43.7960021" lon="12.6186976"><ele>107.0</ele><time>2026-04-26T09:09:56.41Z</time></trkpt><trkpt lat="43.7958705" lon="12.6186976"><ele>107.0</ele><time>2026-04-26T09:09:57.406Z</time></trkpt><trkpt lat="43.7957218" lon="12.6187039"><ele>107.0</ele><time>2026-04-26T09:09:58.406Z</time></trkpt><trkpt lat="43.7953883" lon="12.6187202"><ele>107.0</ele><time>2026-04-26T09:10:00.404Z</time></trkpt><trkpt lat="43.7952108" lon="12.6187327"><ele>107.0</ele><time>2026-04-26T09:10:01.401Z</time></trkpt><trkpt lat="43.7950282" lon="12.6187448"><ele>107.0</ele><time>2026-04-26T09:10:02.402Z</time></trkpt><trkpt lat="43.7948472" lon="12.6187588"><ele>106.66666666666666</ele><time>2026-04-26T09:10:03.403Z</time></trkpt><trkpt lat="43.7946684" lon="12.6187707"><ele>106.33333333333334</ele><time>2026-04-26T09:10:04.402Z</time></trkpt><trkpt lat="43.7944906" lon="12.6187812"><ele>106.0</ele><time>2026-04-26T09:10:05.403Z</time></trkpt><trkpt lat="43.7943199" lon="12.6187883"><ele>105.66666666666667</ele><time>2026-04-26T09:10:06.403Z</time></trkpt><trkpt lat="43.7941577" lon="12.6188018"><ele>105.33333333333334</ele><time>2026-04-26T09:10:07.403Z</time></trkpt><trkpt lat="43.7940043" lon="12.6188124"><ele>105.0</ele><time>2026-04-26T09:10:08.406Z</time></trkpt><trkpt lat="43.7938586" lon="12.6188171"><ele>105.0</ele><time>2026-04-26T09:10:09.404Z</time></trkpt><trkpt lat="43.7937212" lon="12.6188127"><ele>105.0</ele><time>2026-04-26T09:10:10.405Z</time></trkpt><trkpt lat="43.7936003" lon="12.6187801"><ele>105.0</ele><time>2026-04-26T09:10:11.403Z</time></trkpt><trkpt lat="43.7934792" lon="12.6187123"><ele>105.0</ele><time>2026-04-26T09:10:12.405Z</time></trkpt><trkpt lat="43.7933528" lon="12.6186555"><ele>106.5</ele><time>2026-04-26T09:10:13.409Z</time></trkpt><trkpt lat="43.7932256" lon="12.6186182"><ele>108.0</ele><time>2026-04-26T09:10:14.406Z</time></trkpt><trkpt lat="43.7930952" lon="12.6186146"><ele>109.5</ele><time>2026-04-26T09:10:15.402Z</time></trkpt><trkpt lat="43.7929592" lon="12.6186678"><ele>111.0</ele><time>2026-04-26T09:10:16.401Z</time></trkpt><trkpt lat="43.7928295" lon="12.6187645"><ele>111.0</ele><time>2026-04-26T09:10:17.404Z</time></trkpt><trkpt lat="43.7927233" lon="12.6188594"><ele>111.0</ele><time>2026-04-26T09:10:18.406Z</time></trkpt><trkpt lat="43.7925427" lon="12.6189216"><ele>111.0</ele><time>2026-04-26T09:10:20.402Z</time></trkpt><trkpt lat="43.792478" lon="12.618872"><ele>111.0</ele><time>2026-04-26T09:10:21.409Z</time></trkpt><trkpt lat="43.7924562" lon="12.6187805"><ele>111.5</ele><time>2026-04-26T09:10:22.402Z</time></trkpt><trkpt lat="43.7924832" lon="12.6186793"><ele>112.0</ele><time>2026-04-26T09:10:23.406Z</time></trkpt><trkpt lat="43.7925475" lon="12.6186061"><ele>112.5</ele><time>2026-04-26T09:10:24.404Z</time></trkpt><trkpt lat="43.7926215" lon="12.6185434"><ele>113.0</ele><time>2026-04-26T09:10:25.403Z</time></trkpt><trkpt lat="43.7926922" lon="12.6184738"><ele>113.5</ele><time>2026-04-26T09:10:26.407Z</time></trkpt><trkpt lat="43.7927418" lon="12.6183915"><ele>114.0</ele><time>2026-04-26T09:10:27.402Z</time></trkpt><trkpt lat="43.7927715" lon="12.6182707"><ele>114.75</ele><time>2026-04-26T09:10:28.402Z</time></trkpt><trkpt lat="43.792761" lon="12.6181163"><ele>115.5</ele><time>2026-04-26T09:10:29.401Z</time></trkpt><trkpt lat="43.7927244" lon="12.6179603"><ele>116.25</ele><time>2026-04-26T09:10:30.406Z</time></trkpt><trkpt lat="43.7926777" lon="12.6178189"><ele>117.0</ele><time>2026-04-26T09:10:31.403Z</time></trkpt><trkpt lat="43.7926361" lon="12.6176803"><ele>118.0</ele><time>2026-04-26T09:10:32.405Z</time></trkpt><trkpt lat="43.792596" lon="12.6175597"><ele>118.99999999999999</ele><time>2026-04-26T09:10:33.401Z</time></trkpt><trkpt lat="43.7925716" lon="12.6174669"><ele>119.99999999999999</ele><time>2026-04-26T09:10:34.403Z</time></trkpt><trkpt lat="43.7926582" lon="12.61738"><ele>121.0</ele><time>2026-04-26T09:10:37.411Z</time></trkpt><trkpt lat="43.7927478" lon="12.6173534"><ele>122.0</ele><time>2026-04-26T09:10:38.403Z</time></trkpt><trkpt lat="43.7928655" lon="12.6173127"><ele>122.0</ele><time>2026-04-26T09:10:39.403Z</time></trkpt><trkpt lat="43.793089" lon="12.6172075"><ele>122.0</ele><time>2026-04-26T09:10:41.405Z</time></trkpt><trkpt lat="43.7931716" lon="12.61714"><ele>122.0</ele><time>2026-04-26T09:10:42.405Z</time></trkpt><trkpt lat="43.7932316" lon="12.6170356"><ele>122.0</ele><time>2026-04-26T09:10:43.407Z</time></trkpt><trkpt lat="43.7932613" lon="12.6168706"><ele>122.75</ele><time>2026-04-26T09:10:44.404Z</time></trkpt><trkpt lat="43.7932735" lon="12.6167022"><ele>123.5</ele><time>2026-04-26T09:10:45.403Z</time></trkpt><trkpt lat="43.7932834" lon="12.6165362"><ele>124.25</ele><time>2026-04-26T09:10:46.401Z</time></trkpt><trkpt lat="43.793295" lon="12.6163728"><ele>125.0</ele><time>2026-04-26T09:10:47.404Z</time></trkpt><trkpt lat="43.7933065" lon="12.6162127"><ele>125.8</ele><time>2026-04-26T09:10:48.402Z</time></trkpt><trkpt lat="43.7933126" lon="12.6160563"><ele>126.6</ele><time>2026-04-26T09:10:49.411Z</time></trkpt><trkpt lat="43.7933169" lon="12.6159184"><ele>127.4</ele><time>2026-04-26T09:10:50.405Z</time></trkpt><trkpt lat="43.7933237" lon="12.6157915"><ele>128.2</ele><time>2026-04-26T09:10:51.405Z</time></trkpt><trkpt lat="43.7933539" lon="12.6156793"><ele>129.0</ele><time>2026-04-26T09:10:52.405Z</time></trkpt><trkpt lat="43.7934129" lon="12.615552"><ele>129.0</ele><time>2026-04-26T09:10:53.404Z</time></trkpt><trkpt lat="43.7935018" lon="12.6153976"><ele>129.0</ele><time>2026-04-26T09:10:54.429Z</time></trkpt><trkpt lat="43.7935944" lon="12.6152124"><ele>129.0</ele><time>2026-04-26T09:10:55.401Z</time></trkpt><trkpt lat="43.7936895" lon="12.6149838"><ele>127.33333333333334</ele><time>2026-04-26T09:10:56.403Z</time></trkpt><trkpt lat="43.7937716" lon="12.6147396"><ele>125.66666666666667</ele><time>2026-04-26T09:10:57.405Z</time></trkpt><trkpt lat="43.7938466" lon="12.6144808"><ele>124.0</ele><time>2026-04-26T09:10:58.402Z</time></trkpt><trkpt lat="43.7939114" lon="12.6142376"><ele>124.0</ele><time>2026-04-26T09:10:59.403Z</time></trkpt><trkpt lat="43.7939724" lon="12.6139967"><ele>124.0</ele><time>2026-04-26T09:11:00.402Z</time></trkpt><trkpt lat="43.7940887" lon="12.6135307"><ele>126.33333333333334</ele><time>2026-04-26T09:11:02.404Z</time></trkpt><trkpt lat="43.7941478" lon="12.6133026"><ele>128.66666666666666</ele><time>2026-04-26T09:11:03.405Z</time></trkpt><trkpt lat="43.7942029" lon="12.6130934"><ele>131.0</ele><time>2026-04-26T09:11:04.406Z</time></trkpt><trkpt lat="43.7942544" lon="12.6128954"><ele>130.75</ele><time>2026-04-26T09:11:05.4Z</time></trkpt><trkpt lat="43.7942982" lon="12.612704"><ele>130.5</ele><time>2026-04-26T09:11:06.402Z</time></trkpt><trkpt lat="43.7943468" lon="12.6125227"><ele>130.25</ele><time>2026-04-26T09:11:07.405Z</time></trkpt><trkpt lat="43.7944189" lon="12.612331"><ele>130.0</ele><time>2026-04-26T09:11:08.404Z</time></trkpt><trkpt lat="43.794516" lon="12.6121345"><ele>130.66666666666669</ele><time>2026-04-26T09:11:09.403Z</time></trkpt><trkpt lat="43.7946222" lon="12.6119316"><ele>131.33333333333334</ele><time>2026-04-26T09:11:10.403Z</time></trkpt><trkpt lat="43.7947357" lon="12.6117361"><ele>132.0</ele><time>2026-04-26T09:11:11.403Z</time></trkpt><trkpt lat="43.7948409" lon="12.6115483"><ele>132.0</ele><time>2026-04-26T09:11:12.401Z</time></trkpt><trkpt lat="43.7949551" lon="12.6113723"><ele>132.0</ele><time>2026-04-26T09:11:13.407Z</time></trkpt><trkpt lat="43.7950801" lon="12.6112009"><ele>132.0</ele><time>2026-04-26T09:11:14.4Z</time></trkpt><trkpt lat="43.795211" lon="12.6110441"><ele>130.0</ele><time>2026-04-26T09:11:15.4Z</time></trkpt><trkpt lat="43.7953484" lon="12.6108983"><ele>128.0</ele><time>2026-04-26T09:11:16.405Z</time></trkpt><trkpt lat="43.7954954" lon="12.610765"><ele>126.0</ele><time>2026-04-26T09:11:17.405Z</time></trkpt><trkpt lat="43.7956305" lon="12.6106337"><ele>126.0</ele><time>2026-04-26T09:11:18.404Z</time></trkpt><trkpt lat="43.7957557" lon="12.6105066"><ele>126.0</ele><time>2026-04-26T09:11:19.403Z</time></trkpt><trkpt lat="43.7958728" lon="12.6103828"><ele>126.0</ele><time>2026-04-26T09:11:20.404Z</time></trkpt><trkpt lat="43.7959774" lon="12.6102521"><ele>126.0</ele><time>2026-04-26T09:11:21.406Z</time></trkpt><trkpt lat="43.796158" lon="12.6100191"><ele>126.66666666666667</ele><time>2026-04-26T09:11:23.401Z</time></trkpt><trkpt lat="43.7962435" lon="12.6099527"><ele>127.33333333333334</ele><time>2026-04-26T09:11:24.402Z</time></trkpt><trkpt lat="43.7963323" lon="12.6099195"><ele>128.0</ele><time>2026-04-26T09:11:25.401Z</time></trkpt><trkpt lat="43.7964228" lon="12.6099153"><ele>128.66666666666669</ele><time>2026-04-26T09:11:26.406Z</time></trkpt><trkpt lat="43.7965068" lon="12.6099211"><ele>129.33333333333334</ele><time>2026-04-26T09:11:27.406Z</time></trkpt><trkpt lat="43.796591" lon="12.6099353"><ele>130.0</ele><time>2026-04-26T09:11:28.408Z</time></trkpt><trkpt lat="43.7966728" lon="12.6099458"><ele>130.0</ele><time>2026-04-26T09:11:29.403Z</time></trkpt><trkpt lat="43.7967474" lon="12.6099433"><ele>130.0</ele><time>2026-04-26T09:11:30.408Z</time></trkpt><trkpt lat="43.7968293" lon="12.6099199"><ele>130.0</ele><time>2026-04-26T09:11:31.403Z</time></trkpt><trkpt lat="43.796909" lon="12.6098715"><ele>130.0</ele><time>2026-04-26T09:11:32.406Z</time></trkpt><trkpt lat="43.7969961" lon="12.6098382"><ele>130.0</ele><time>2026-04-26T09:11:33.4Z</time></trkpt><trkpt lat="43.7970872" lon="12.6098224"><ele>130.0</ele><time>2026-04-26T09:11:34.4Z</time></trkpt><trkpt lat="43.7971717" lon="12.6097735"><ele>129.33333333333334</ele><time>2026-04-26T09:11:35.402Z</time></trkpt><trkpt lat="43.7972499" lon="12.6097133"><ele>128.66666666666669</ele><time>2026-04-26T09:11:36.405Z</time></trkpt><trkpt lat="43.7973206" lon="12.6096355"><ele>128.0</ele><time>2026-04-26T09:11:37.412Z</time></trkpt><trkpt lat="43.7973891" lon="12.6095534"><ele>127.33333333333334</ele><time>2026-04-26T09:11:38.409Z</time></trkpt><trkpt lat="43.7974475" lon="12.6094582"><ele>126.66666666666667</ele><time>2026-04-26T09:11:39.407Z</time></trkpt><trkpt lat="43.7974957" lon="12.6093586"><ele>126.0</ele><time>2026-04-26T09:11:40.402Z</time></trkpt><trkpt lat="43.7975377" lon="12.609259"><ele>128.25</ele><time>2026-04-26T09:11:41.405Z</time></trkpt><trkpt lat="43.7975754" lon="12.6091524"><ele>130.5</ele><time>2026-04-26T09:11:42.406Z</time></trkpt><trkpt lat="43.7976499" lon="12.6088967"><ele>132.75</ele><time>2026-04-26T09:11:44.404Z</time></trkpt><trkpt lat="43.7976915" lon="12.6087523"><ele>135.0</ele><time>2026-04-26T09:11:45.401Z</time></trkpt><trkpt lat="43.7977351" lon="12.6086046"><ele>138.75</ele><time>2026-04-26T09:11:46.405Z</time></trkpt><trkpt lat="43.7977868" lon="12.6084484"><ele>142.5</ele><time>2026-04-26T09:11:47.404Z</time></trkpt><trkpt lat="43.7978407" lon="12.6082881"><ele>146.25</ele><time>2026-04-26T09:11:48.403Z</time></trkpt><trkpt lat="43.7979034" lon="12.6081312"><ele>150.0</ele><time>2026-04-26T09:11:49.405Z</time></trkpt><trkpt lat="43.7979754" lon="12.6079798"><ele>150.0</ele><time>2026-04-26T09:11:50.407Z</time></trkpt><trkpt lat="43.7980605" lon="12.6078417"><ele>150.0</ele><time>2026-04-26T09:11:51.403Z</time></trkpt><trkpt lat="43.7981504" lon="12.6077043"><ele>150.0</ele><time>2026-04-26T09:11:52.407Z</time></trkpt><trkpt lat="43.7982566" lon="12.6075629"><ele>150.0</ele><time>2026-04-26T09:11:53.399Z</time></trkpt><trkpt lat="43.7983734" lon="12.607439"><ele>150.5</ele><time>2026-04-26T09:11:54.4Z</time></trkpt><trkpt lat="43.7984926" lon="12.6073306"><ele>151.0</ele><time>2026-04-26T09:11:55.405Z</time></trkpt><trkpt lat="43.7986195" lon="12.607227"><ele>151.5</ele><time>2026-04-26T09:11:56.403Z</time></trkpt><trkpt lat="43.7987485" lon="12.6071214"><ele>152.0</ele><time>2026-04-26T09:11:57.401Z</time></trkpt><trkpt lat="43.7988703" lon="12.6070125"><ele>154.25</ele><time>2026-04-26T09:11:58.408Z</time></trkpt><trkpt lat="43.7989755" lon="12.6068941"><ele>156.5</ele><time>2026-04-26T09:11:59.407Z</time></trkpt><trkpt lat="43.7990648" lon="12.6067472"><ele>158.75</ele><time>2026-04-26T09:12:00.403Z</time></trkpt><trkpt lat="43.7991365" lon="12.6065811"><ele>161.0</ele><time>2026-04-26T09:12:01.408Z</time></trkpt><trkpt lat="43.7992011" lon="12.606378"><ele>161.0</ele><time>2026-04-26T09:12:02.405Z</time></trkpt><trkpt lat="43.7992706" lon="12.606163"><ele>161.0</ele><time>2026-04-26T09:12:03.408Z</time></trkpt><trkpt lat="43.79941" lon="12.6057414"><ele>161.25</ele><time>2026-04-26T09:12:05.405Z</time></trkpt><trkpt lat="43.7994748" lon="12.6055521"><ele>161.5</ele><time>2026-04-26T09:12:06.403Z</time></trkpt><trkpt lat="43.7995428" lon="12.6053751"><ele>161.75</ele><time>2026-04-26T09:12:07.406Z</time></trkpt><trkpt lat="43.7996192" lon="12.6052144"><ele>162.0</ele><time>2026-04-26T09:12:08.405Z</time></trkpt><trkpt lat="43.7997115" lon="12.6050669"><ele>162.0</ele><time>2026-04-26T09:12:09.408Z</time></trkpt><trkpt lat="43.7998244" lon="12.6049322"><ele>162.0</ele><time>2026-04-26T09:12:10.403Z</time></trkpt><trkpt lat="43.7999422" lon="12.6047874"><ele>162.0</ele><time>2026-04-26T09:12:11.415Z</time></trkpt><trkpt lat="43.8000661" lon="12.6046381"><ele>160.33333333333334</ele><time>2026-04-26T09:12:12.405Z</time></trkpt><trkpt lat="43.8001879" lon="12.6044795"><ele>158.66666666666669</ele><time>2026-04-26T09:12:13.404Z</time></trkpt><trkpt lat="43.800313" lon="12.6043235"><ele>157.0</ele><time>2026-04-26T09:12:14.403Z</time></trkpt><trkpt lat="43.800439" lon="12.6041556"><ele>157.0</ele><time>2026-04-26T09:12:15.402Z</time></trkpt><trkpt lat="43.8005589" lon="12.6039763"><ele>157.0</ele><time>2026-04-26T09:12:16.409Z</time></trkpt><trkpt lat="43.800679" lon="12.6037941"><ele>157.0</ele><time>2026-04-26T09:12:17.404Z</time></trkpt><trkpt lat="43.8007978" lon="12.6036185"><ele>158.25</ele><time>2026-04-26T09:12:18.408Z</time></trkpt><trkpt lat="43.8008967" lon="12.6034455"><ele>159.5</ele><time>2026-04-26T09:12:19.408Z</time></trkpt><trkpt lat="43.8009836" lon="12.6032889"><ele>160.75</ele><time>2026-04-26T09:12:20.411Z</time></trkpt><trkpt lat="43.8010581" lon="12.6031247"><ele>162.0</ele><time>2026-04-26T09:12:21.403Z</time></trkpt><trkpt lat="43.8011084" lon="12.6029652"><ele>167.33333333333334</ele><time>2026-04-26T09:12:22.408Z</time></trkpt><trkpt lat="43.8011338" lon="12.6027903"><ele>172.66666666666669</ele><time>2026-04-26T09:12:23.406Z</time></trkpt><trkpt lat="43.8011288" lon="12.6026025"><ele>178.0</ele><time>2026-04-26T09:12:24.406Z</time></trkpt><trkpt lat="43.8010552" lon="12.6022161"><ele>178.0</ele><time>2026-04-26T09:12:26.407Z</time></trkpt><trkpt lat="43.8010169" lon="12.6020542"><ele>178.0</ele><time>2026-04-26T09:12:27.406Z</time></trkpt><trkpt lat="43.8009987" lon="12.6019057"><ele>178.0</ele><time>2026-04-26T09:12:28.403Z</time></trkpt><trkpt lat="43.801011" lon="12.6017655"><ele>178.0</ele><time>2026-04-26T09:12:29.404Z</time></trkpt><trkpt lat="43.8010557" lon="12.6016492"><ele>178.0</ele><time>2026-04-26T09:12:30.403Z</time></trkpt><trkpt lat="43.801127" lon="12.6015724"><ele>180.8</ele><time>2026-04-26T09:12:31.405Z</time></trkpt><trkpt lat="43.8012189" lon="12.6015067"><ele>183.60000000000002</ele><time>2026-04-26T09:12:32.41Z</time></trkpt><trkpt lat="43.8013087" lon="12.6014283"><ele>186.39999999999998</ele><time>2026-04-26T09:12:33.403Z</time></trkpt><trkpt lat="43.8013823" lon="12.6013345"><ele>189.2</ele><time>2026-04-26T09:12:34.402Z</time></trkpt><trkpt lat="43.8014369" lon="12.6012073"><ele>192.0</ele><time>2026-04-26T09:12:35.403Z</time></trkpt><trkpt lat="43.8014827" lon="12.601043"><ele>192.39999999999998</ele><time>2026-04-26T09:12:36.403Z</time></trkpt><trkpt lat="43.8015287" lon="12.6008871"><ele>192.79999999999998</ele><time>2026-04-26T09:12:37.408Z</time></trkpt><trkpt lat="43.8015844" lon="12.6007684"><ele>193.2</ele><time>2026-04-26T09:12:38.402Z</time></trkpt><trkpt lat="43.8016667" lon="12.6006742"><ele>193.6</ele><time>2026-04-26T09:12:39.407Z</time></trkpt><trkpt lat="43.8017768" lon="12.6006123"><ele>194.0</ele><time>2026-04-26T09:12:40.403Z</time></trkpt><trkpt lat="43.8019068" lon="12.6005663"><ele>198.25</ele><time>2026-04-26T09:12:41.401Z</time></trkpt><trkpt lat="43.8020456" lon="12.600521"><ele>202.5</ele><time>2026-04-26T09:12:42.404Z</time></trkpt><trkpt lat="43.8021867" lon="12.6004735"><ele>206.75</ele><time>2026-04-26T09:12:43.409Z</time></trkpt><trkpt lat="43.8023317" lon="12.6004213"><ele>211.0</ele><time>2026-04-26T09:12:44.402Z</time></trkpt><trkpt lat="43.8024752" lon="12.6003635"><ele>212.0</ele><time>2026-04-26T09:12:45.406Z</time></trkpt><trkpt lat="43.8027439" lon="12.6002243"><ele>213.0</ele><time>2026-04-26T09:12:47.401Z</time></trkpt><trkpt lat="43.8028618" lon="12.6001329"><ele>214.0</ele><time>2026-04-26T09:12:48.404Z</time></trkpt><trkpt lat="43.8029676" lon="12.6000393"><ele>214.0</ele><time>2026-04-26T09:12:49.403Z</time></trkpt><trkpt lat="43.8030626" lon="12.59995"><ele>214.0</ele><time>2026-04-26T09:12:50.404Z</time></trkpt><trkpt lat="43.8031535" lon="12.5998656"><ele>214.0</ele><time>2026-04-26T09:12:51.404Z</time></trkpt><trkpt lat="43.8032503" lon="12.5997798"><ele>214.0</ele><time>2026-04-26T09:12:52.404Z</time></trkpt><trkpt lat="43.80336" lon="12.5996905"><ele>214.0</ele><time>2026-04-26T09:12:53.408Z</time></trkpt><trkpt lat="43.8034772" lon="12.5995912"><ele>214.0</ele><time>2026-04-26T09:12:54.407Z</time></trkpt><trkpt lat="43.80359" lon="12.5994627"><ele>214.0</ele><time>2026-04-26T09:12:55.401Z</time></trkpt><trkpt lat="43.8036944" lon="12.5993146"><ele>214.0</ele><time>2026-04-26T09:12:56.408Z</time></trkpt><trkpt lat="43.803792" lon="12.5991658"><ele>212.5</ele><time>2026-04-26T09:12:57.402Z</time></trkpt><trkpt lat="43.8038776" lon="12.599001"><ele>211.0</ele><time>2026-04-26T09:12:58.405Z</time></trkpt><trkpt lat="43.8039604" lon="12.5988326"><ele>209.5</ele><time>2026-04-26T09:12:59.404Z</time></trkpt><trkpt lat="43.8040433" lon="12.5986651"><ele>208.0</ele><time>2026-04-26T09:13:00.404Z</time></trkpt><trkpt lat="43.8041229" lon="12.5984972"><ele>207.5</ele><time>2026-04-26T09:13:01.406Z</time></trkpt><trkpt lat="43.8042013" lon="12.5983352"><ele>207.0</ele><time>2026-04-26T09:13:02.404Z</time></trkpt><trkpt lat="43.8042775" lon="12.5981761"><ele>206.5</ele><time>2026-04-26T09:13:03.406Z</time></trkpt><trkpt lat="43.8043487" lon="12.5980095"><ele>206.0</ele><time>2026-04-26T09:13:04.404Z</time></trkpt><trkpt lat="43.8044016" lon="12.5978145"><ele>198.0</ele><time>2026-04-26T09:13:05.403Z</time></trkpt><trkpt lat="43.8044307" lon="12.5975909"><ele>190.0</ele><time>2026-04-26T09:13:06.407Z</time></trkpt><trkpt lat="43.8044533" lon="12.597124"><ele>192.75</ele><time>2026-04-26T09:13:08.41Z</time></trkpt><trkpt lat="43.804455" lon="12.5969079"><ele>195.5</ele><time>2026-04-26T09:13:09.41Z</time></trkpt><trkpt lat="43.8044474" lon="12.5967109"><ele>198.25</ele><time>2026-04-26T09:13:10.411Z</time></trkpt><trkpt lat="43.8044329" lon="12.5965348"><ele>201.0</ele><time>2026-04-26T09:13:11.402Z</time></trkpt><trkpt lat="43.8044148" lon="12.5963628"><ele>201.0</ele><time>2026-04-26T09:13:12.41Z</time></trkpt><trkpt lat="43.8044037" lon="12.596191"><ele>201.0</ele><time>2026-04-26T09:13:13.405Z</time></trkpt><trkpt lat="43.8044056" lon="12.5960312"><ele>201.0</ele><time>2026-04-26T09:13:14.411Z</time></trkpt><trkpt lat="43.8044265" lon="12.5958914"><ele>201.0</ele><time>2026-04-26T09:13:15.404Z</time></trkpt><trkpt lat="43.8044671" lon="12.5957706"><ele>201.0</ele><time>2026-04-26T09:13:16.412Z</time></trkpt><trkpt lat="43.8045296" lon="12.5956745"><ele>204.20000000000002</ele><time>2026-04-26T09:13:17.402Z</time></trkpt><trkpt lat="43.8046137" lon="12.5956077"><ele>207.4</ele><time>2026-04-26T09:13:18.405Z</time></trkpt><trkpt lat="43.804701" lon="12.5955561"><ele>210.6</ele><time>2026-04-26T09:13:19.403Z</time></trkpt><trkpt lat="43.8047774" lon="12.595502"><ele>213.8</ele><time>2026-04-26T09:13:20.406Z</time></trkpt><trkpt lat="43.8048439" lon="12.5954297"><ele>217.0</ele><time>2026-04-26T09:13:21.404Z</time></trkpt><trkpt lat="43.8049005" lon="12.5953251"><ele>218.5</ele><time>2026-04-26T09:13:22.411Z</time></trkpt><trkpt lat="43.8049441" lon="12.595187"><ele>220.0</ele><time>2026-04-26T09:13:23.41Z</time></trkpt><trkpt lat="43.8049782" lon="12.5950292"><ele>221.5</ele><time>2026-04-26T09:13:24.407Z</time></trkpt><trkpt lat="43.8050182" lon="12.5948305"><ele>223.0</ele><time>2026-04-26T09:13:25.402Z</time></trkpt><trkpt lat="43.8050595" lon="12.5945956"><ele>221.5</ele><time>2026-04-26T09:13:26.402Z</time></trkpt><trkpt lat="43.8050919" lon="12.594359"><ele>220.0</ele><time>2026-04-26T09:13:27.408Z</time></trkpt><trkpt lat="43.8051622" lon="12.5939635"><ele>219.5</ele><time>2026-04-26T09:13:29.406Z</time></trkpt><trkpt lat="43.8052106" lon="12.5937992"><ele>219.0</ele><time>2026-04-26T09:13:30.408Z</time></trkpt><trkpt lat="43.8052695" lon="12.5936331"><ele>218.5</ele><time>2026-04-26T09:13:31.402Z</time></trkpt><trkpt lat="43.80534" lon="12.5934601"><ele>218.0</ele><time>2026-04-26T09:13:32.407Z</time></trkpt><trkpt lat="43.805411" lon="12.5932875"><ele>218.0</ele><time>2026-04-26T09:13:33.403Z</time></trkpt><trkpt lat="43.8054822" lon="12.5930932"><ele>218.0</ele><time>2026-04-26T09:13:34.404Z</time></trkpt><trkpt lat="43.8055383" lon="12.592889"><ele>218.0</ele><time>2026-04-26T09:13:35.409Z</time></trkpt><trkpt lat="43.8055814" lon="12.5926709"><ele>219.33333333333334</ele><time>2026-04-26T09:13:36.401Z</time></trkpt><trkpt lat="43.8056191" lon="12.5924201"><ele>220.66666666666669</ele><time>2026-04-26T09:13:37.404Z</time></trkpt><trkpt lat="43.8056582" lon="12.5921366"><ele>222.0</ele><time>2026-04-26T09:13:38.403Z</time></trkpt><trkpt lat="43.8056948" lon="12.5918253"><ele>222.5</ele><time>2026-04-26T09:13:39.405Z</time></trkpt><trkpt lat="43.805723" lon="12.5915094"><ele>223.0</ele><time>2026-04-26T09:13:40.402Z</time></trkpt><trkpt lat="43.8057415" lon="12.5911937"><ele>223.0</ele><time>2026-04-26T09:13:41.403Z</time></trkpt><trkpt lat="43.8057522" lon="12.5908927"><ele>223.0</ele><time>2026-04-26T09:13:42.402Z</time></trkpt><trkpt lat="43.8057606" lon="12.5905931"><ele>223.0</ele><time>2026-04-26T09:13:43.405Z</time></trkpt><trkpt lat="43.8057632" lon="12.5902977"><ele>223.0</ele><time>2026-04-26T09:13:44.405Z</time></trkpt><trkpt lat="43.8057657" lon="12.5900094"><ele>223.0</ele><time>2026-04-26T09:13:45.407Z</time></trkpt><trkpt lat="43.8057718" lon="12.589732"><ele>223.0</ele><time>2026-04-26T09:13:46.408Z</time></trkpt><trkpt lat="43.805775" lon="12.5894768"><ele>225.0</ele><time>2026-04-26T09:13:47.41Z</time></trkpt><trkpt lat="43.8057675" lon="12.5892317"><ele>227.0</ele><time>2026-04-26T09:13:48.402Z</time></trkpt><trkpt lat="43.8056889" lon="12.5887316"><ele>228.66666666666669</ele><time>2026-04-26T09:13:50.409Z</time></trkpt><trkpt lat="43.8056407" lon="12.5884867"><ele>230.33333333333331</ele><time>2026-04-26T09:13:51.404Z</time></trkpt><trkpt lat="43.8055969" lon="12.5882502"><ele>232.0</ele><time>2026-04-26T09:13:52.405Z</time></trkpt><trkpt lat="43.8055674" lon="12.588035"><ele>234.5</ele><time>2026-04-26T09:13:53.406Z</time></trkpt><trkpt lat="43.805553" lon="12.5878432"><ele>237.0</ele><time>2026-04-26T09:13:54.408Z</time></trkpt><trkpt lat="43.8055625" lon="12.587671"><ele>239.5</ele><time>2026-04-26T09:13:55.406Z</time></trkpt><trkpt lat="43.8056" lon="12.5875164"><ele>242.0</ele><time>2026-04-26T09:13:56.41Z</time></trkpt><trkpt lat="43.805652" lon="12.587364"><ele>242.0</ele><time>2026-04-26T09:13:57.41Z</time></trkpt><trkpt lat="43.8056892" lon="12.5872179"><ele>242.0</ele><time>2026-04-26T09:13:58.401Z</time></trkpt><trkpt lat="43.8056901" lon="12.5870759"><ele>242.0</ele><time>2026-04-26T09:13:59.403Z</time></trkpt><trkpt lat="43.8056604" lon="12.5869206"><ele>242.0</ele><time>2026-04-26T09:14:00.403Z</time></trkpt><trkpt lat="43.8056283" lon="12.5867514"><ele>242.0</ele><time>2026-04-26T09:14:01.407Z</time></trkpt><trkpt lat="43.8056092" lon="12.5865821"><ele>242.0</ele><time>2026-04-26T09:14:02.403Z</time></trkpt><trkpt lat="43.805617" lon="12.5864133"><ele>242.0</ele><time>2026-04-26T09:14:03.406Z</time></trkpt><trkpt lat="43.8056613" lon="12.5862263"><ele>242.0</ele><time>2026-04-26T09:14:04.409Z</time></trkpt><trkpt lat="43.8057238" lon="12.5860269"><ele>242.0</ele><time>2026-04-26T09:14:05.408Z</time></trkpt><trkpt lat="43.8057909" lon="12.5858209"><ele>242.0</ele><time>2026-04-26T09:14:06.405Z</time></trkpt><trkpt lat="43.8058507" lon="12.5856233"><ele>242.0</ele><time>2026-04-26T09:14:07.401Z</time></trkpt><trkpt lat="43.805915" lon="12.5854216"><ele>242.5</ele><time>2026-04-26T09:14:08.407Z</time></trkpt><trkpt lat="43.8059781" lon="12.5852079"><ele>243.0</ele><time>2026-04-26T09:14:09.402Z</time></trkpt><trkpt lat="43.8060636" lon="12.5847792"><ele>237.75</ele><time>2026-04-26T09:14:11.407Z</time></trkpt><trkpt lat="43.8060721" lon="12.5845788"><ele>232.5</ele><time>2026-04-26T09:14:12.408Z</time></trkpt><trkpt lat="43.8060715" lon="12.5843948"><ele>227.25</ele><time>2026-04-26T09:14:13.405Z</time></trkpt><trkpt lat="43.8060497" lon="12.5841962"><ele>222.0</ele><time>2026-04-26T09:14:14.406Z</time></trkpt><trkpt lat="43.8060171" lon="12.5839614"><ele>227.33333333333331</ele><time>2026-04-26T09:14:15.409Z</time></trkpt><trkpt lat="43.8059797" lon="12.5837057"><ele>232.66666666666666</ele><time>2026-04-26T09:14:16.406Z</time></trkpt><trkpt lat="43.8059373" lon="12.5834481"><ele>238.0</ele><time>2026-04-26T09:14:17.41Z</time></trkpt><trkpt lat="43.805895" lon="12.5832035"><ele>238.0</ele><time>2026-04-26T09:14:18.416Z</time></trkpt><trkpt lat="43.8058574" lon="12.5829822"><ele>238.0</ele><time>2026-04-26T09:14:19.402Z</time></trkpt><trkpt lat="43.8058299" lon="12.5827755"><ele>238.0</ele><time>2026-04-26T09:14:20.403Z</time></trkpt><trkpt lat="43.8058111" lon="12.5825824"><ele>238.0</ele><time>2026-04-26T09:14:21.406Z</time></trkpt><trkpt lat="43.8057849" lon="12.5823906"><ele>238.0</ele><time>2026-04-26T09:14:22.409Z</time></trkpt><trkpt lat="43.8057348" lon="12.5821866"><ele>238.0</ele><time>2026-04-26T09:14:23.413Z</time></trkpt><trkpt lat="43.8056712" lon="12.5819404"><ele>236.33333333333331</ele><time>2026-04-26T09:14:24.409Z</time></trkpt><trkpt lat="43.8056057" lon="12.5816587"><ele>234.66666666666669</ele><time>2026-04-26T09:14:25.403Z</time></trkpt><trkpt lat="43.8055433" lon="12.5813889"><ele>233.0</ele><time>2026-04-26T09:14:26.401Z</time></trkpt><trkpt lat="43.8054877" lon="12.5811449"><ele>231.66666666666669</ele><time>2026-04-26T09:14:27.399Z</time></trkpt><trkpt lat="43.805444" lon="12.5809225"><ele>230.33333333333331</ele><time>2026-04-26T09:14:28.406Z</time></trkpt><trkpt lat="43.8054205" lon="12.580704"><ele>229.0</ele><time>2026-04-26T09:14:29.408Z</time></trkpt><trkpt lat="43.8054169" lon="12.5804959"><ele>228.75</ele><time>2026-04-26T09:14:30.406Z</time></trkpt><trkpt lat="43.805435" lon="12.5801952"><ele>228.5</ele><time>2026-04-26T09:14:32.404Z</time></trkpt><trkpt lat="43.8054475" lon="12.5800692"><ele>228.25</ele><time>2026-04-26T09:14:33.406Z</time></trkpt><trkpt lat="43.8054477" lon="12.5799486"><ele>228.0</ele><time>2026-04-26T09:14:34.403Z</time></trkpt><trkpt lat="43.8054408" lon="12.5798246"><ele>228.0</ele><time>2026-04-26T09:14:35.404Z</time></trkpt><trkpt lat="43.8053951" lon="12.5797001"><ele>228.0</ele><time>2026-04-26T09:14:36.404Z</time></trkpt><trkpt lat="43.8053263" lon="12.5795724"><ele>228.0</ele><time>2026-04-26T09:14:37.404Z</time></trkpt><trkpt lat="43.8052399" lon="12.5794488"><ele>228.0</ele><time>2026-04-26T09:14:38.408Z</time></trkpt><trkpt lat="43.8051589" lon="12.5793043"><ele>228.66666666666669</ele><time>2026-04-26T09:14:39.404Z</time></trkpt><trkpt lat="43.8050981" lon="12.5791133"><ele>229.33333333333334</ele><time>2026-04-26T09:14:40.411Z</time></trkpt><trkpt lat="43.8050704" lon="12.5788842"><ele>230.0</ele><time>2026-04-26T09:14:41.409Z</time></trkpt><trkpt lat="43.8050648" lon="12.5786239"><ele>230.0</ele><time>2026-04-26T09:14:42.404Z</time></trkpt><trkpt lat="43.8050575" lon="12.5783533"><ele>230.0</ele><time>2026-04-26T09:14:43.404Z</time></trkpt><trkpt lat="43.8050387" lon="12.5780705"><ele>230.0</ele><time>2026-04-26T09:14:44.405Z</time></trkpt><trkpt lat="43.8050003" lon="12.5777756"><ele>229.5</ele><time>2026-04-26T09:14:45.403Z</time></trkpt><trkpt lat="43.8049395" lon="12.5774745"><ele>229.0</ele><time>2026-04-26T09:14:46.403Z</time></trkpt><trkpt lat="43.8048638" lon="12.5771686"><ele>230.0</ele><time>2026-04-26T09:14:47.404Z</time></trkpt><trkpt lat="43.8047881" lon="12.5768628"><ele>231.0</ele><time>2026-04-26T09:14:48.411Z</time></trkpt><trkpt lat="43.8047151" lon="12.5765584"><ele>231.0</ele><time>2026-04-26T09:14:49.402Z</time></trkpt><trkpt lat="43.8046488" lon="12.5762594"><ele>231.0</ele><time>2026-04-26T09:14:50.402Z</time></trkpt><trkpt lat="43.8045884" lon="12.5759857"><ele>231.0</ele><time>2026-04-26T09:14:51.402Z</time></trkpt><trkpt lat="43.8044818" lon="12.5755309"><ele>234.25</ele><time>2026-04-26T09:14:53.405Z</time></trkpt><trkpt lat="43.804445" lon="12.575339"><ele>237.5</ele><time>2026-04-26T09:14:54.405Z</time></trkpt><trkpt lat="43.8044372" lon="12.5751456"><ele>240.75</ele><time>2026-04-26T09:14:55.404Z</time></trkpt><trkpt lat="43.8044554" lon="12.5749467"><ele>244.0</ele><time>2026-04-26T09:14:56.405Z</time></trkpt><trkpt lat="43.8044724" lon="12.5747408"><ele>244.0</ele><time>2026-04-26T09:14:57.4Z</time></trkpt><trkpt lat="43.8044621" lon="12.5745255"><ele>244.0</ele><time>2026-04-26T09:14:58.402Z</time></trkpt><trkpt lat="43.8044258" lon="12.5743085"><ele>244.0</ele><time>2026-04-26T09:14:59.404Z</time></trkpt><trkpt lat="43.8043786" lon="12.5740977"><ele>243.66666666666666</ele><time>2026-04-26T09:15:00.406Z</time></trkpt><trkpt lat="43.8043402" lon="12.5738752"><ele>243.33333333333331</ele><time>2026-04-26T09:15:01.406Z</time></trkpt><trkpt lat="43.8043145" lon="12.5736541"><ele>243.0</ele><time>2026-04-26T09:15:02.401Z</time></trkpt><trkpt lat="43.8042903" lon="12.5734349"><ele>243.0</ele><time>2026-04-26T09:15:03.403Z</time></trkpt><trkpt lat="43.8042694" lon="12.5732247"><ele>243.0</ele><time>2026-04-26T09:15:04.405Z</time></trkpt><trkpt lat="43.8042549" lon="12.5730278"><ele>243.0</ele><time>2026-04-26T09:15:05.401Z</time></trkpt><trkpt lat="43.8042518" lon="12.5728475"><ele>243.0</ele><time>2026-04-26T09:15:06.403Z</time></trkpt><trkpt lat="43.8042501" lon="12.572692"><ele>243.25</ele><time>2026-04-26T09:15:07.403Z</time></trkpt><trkpt lat="43.8042323" lon="12.5725505"><ele>243.5</ele><time>2026-04-26T09:15:08.404Z</time></trkpt><trkpt lat="43.8041952" lon="12.5724031"><ele>243.75</ele><time>2026-04-26T09:15:09.405Z</time></trkpt><trkpt lat="43.8041377" lon="12.5722349"><ele>244.0</ele><time>2026-04-26T09:15:10.403Z</time></trkpt><trkpt lat="43.8040671" lon="12.5720439"><ele>246.0</ele><time>2026-04-26T09:15:11.405Z</time></trkpt><trkpt lat="43.8039876" lon="12.571839"><ele>248.0</ele><time>2026-04-26T09:15:12.408Z</time></trkpt><trkpt lat="43.8038286" lon="12.5714166"><ele>248.0</ele><time>2026-04-26T09:15:14.406Z</time></trkpt><trkpt lat="43.8037749" lon="12.5712098"><ele>248.0</ele><time>2026-04-26T09:15:15.405Z</time></trkpt><trkpt lat="43.8037545" lon="12.571013"><ele>248.0</ele><time>2026-04-26T09:15:16.407Z</time></trkpt><trkpt lat="43.803782" lon="12.5708369"><ele>248.0</ele><time>2026-04-26T09:15:17.403Z</time></trkpt><trkpt lat="43.8038259" lon="12.5706743"><ele>248.25</ele><time>2026-04-26T09:15:18.402Z</time></trkpt><trkpt lat="43.8038347" lon="12.5705281"><ele>248.5</ele><time>2026-04-26T09:15:19.408Z</time></trkpt><trkpt lat="43.8037899" lon="12.5703942"><ele>248.75</ele><time>2026-04-26T09:15:20.405Z</time></trkpt><trkpt lat="43.8036892" lon="12.5702698"><ele>249.0</ele><time>2026-04-26T09:15:21.407Z</time></trkpt><trkpt lat="43.8035522" lon="12.5701464"><ele>254.33333333333331</ele><time>2026-04-26T09:15:22.404Z</time></trkpt><trkpt lat="43.8034066" lon="12.5700092"><ele>259.66666666666663</ele><time>2026-04-26T09:15:23.406Z</time></trkpt><trkpt lat="43.803262" lon="12.5698437"><ele>265.0</ele><time>2026-04-26T09:15:24.406Z</time></trkpt><trkpt lat="43.8031186" lon="12.569666"><ele>267.3333333333333</ele><time>2026-04-26T09:15:25.403Z</time></trkpt><trkpt lat="43.8029701" lon="12.5695009"><ele>269.6666666666667</ele><time>2026-04-26T09:15:26.403Z</time></trkpt><trkpt lat="43.8028231" lon="12.5693544"><ele>272.0</ele><time>2026-04-26T09:15:27.408Z</time></trkpt><trkpt lat="43.8026829" lon="12.5692086"><ele>272.33333333333337</ele><time>2026-04-26T09:15:28.401Z</time></trkpt><trkpt lat="43.8025743" lon="12.5690427"><ele>272.6666666666667</ele><time>2026-04-26T09:15:29.403Z</time></trkpt><trkpt lat="43.802487" lon="12.5688573"><ele>273.0</ele><time>2026-04-26T09:15:30.402Z</time></trkpt><trkpt lat="43.802407" lon="12.5686523"><ele>274.6666666666667</ele><time>2026-04-26T09:15:31.401Z</time></trkpt><trkpt lat="43.8023222" lon="12.5684461"><ele>276.33333333333337</ele><time>2026-04-26T09:15:32.405Z</time></trkpt><trkpt lat="43.8022293" lon="12.5682529"><ele>278.0</ele><time>2026-04-26T09:15:33.408Z</time></trkpt><trkpt lat="43.8020485" lon="12.567926"><ele>277.25</ele><time>2026-04-26T09:15:35.405Z</time></trkpt><trkpt lat="43.8019859" lon="12.5677538"><ele>276.5</ele><time>2026-04-26T09:15:36.402Z</time></trkpt><trkpt lat="43.8019499" lon="12.5675656"><ele>275.75</ele><time>2026-04-26T09:15:37.401Z</time></trkpt><trkpt lat="43.8019174" lon="12.5673791"><ele>275.0</ele><time>2026-04-26T09:15:38.402Z</time></trkpt><trkpt lat="43.8018552" lon="12.567212"><ele>275.0</ele><time>2026-04-26T09:15:39.404Z</time></trkpt><trkpt lat="43.8017462" lon="12.5670672"><ele>275.0</ele><time>2026-04-26T09:15:40.408Z</time></trkpt><trkpt lat="43.8016125" lon="12.5669358"><ele>275.0</ele><time>2026-04-26T09:15:41.403Z</time></trkpt><trkpt lat="43.8014823" lon="12.5667875"><ele>278.0</ele><time>2026-04-26T09:15:42.407Z</time></trkpt><trkpt lat="43.8013735" lon="12.5666095"><ele>281.0</ele><time>2026-04-26T09:15:43.407Z</time></trkpt><trkpt lat="43.8012769" lon="12.5664247"><ele>284.0</ele><time>2026-04-26T09:15:44.406Z</time></trkpt><trkpt lat="43.8011761" lon="12.5662672"><ele>281.33333333333337</ele><time>2026-04-26T09:15:45.403Z</time></trkpt><trkpt lat="43.8010536" lon="12.5661515"><ele>278.6666666666667</ele><time>2026-04-26T09:15:46.401Z</time></trkpt><trkpt lat="43.8008964" lon="12.5660833"><ele>276.0</ele><time>2026-04-26T09:15:47.402Z</time></trkpt><trkpt lat="43.800711" lon="12.5660663"><ele>276.0</ele><time>2026-04-26T09:15:48.402Z</time></trkpt><trkpt lat="43.8005182" lon="12.5660992"><ele>276.0</ele><time>2026-04-26T09:15:49.403Z</time></trkpt><trkpt lat="43.8003411" lon="12.5661681"><ele>276.0</ele><time>2026-04-26T09:15:50.403Z</time></trkpt><trkpt lat="43.8001882" lon="12.5662597"><ele>276.2</ele><time>2026-04-26T09:15:51.406Z</time></trkpt><trkpt lat="43.8000681" lon="12.5663315"><ele>276.40000000000003</ele><time>2026-04-26T09:15:52.408Z</time></trkpt><trkpt lat="43.7999799" lon="12.5663441"><ele>276.6</ele><time>2026-04-26T09:15:53.406Z</time></trkpt><trkpt lat="43.799928" lon="12.5662806"><ele>276.8</ele><time>2026-04-26T09:15:54.406Z</time></trkpt><trkpt lat="43.7999323" lon="12.5660648"><ele>277.0</ele><time>2026-04-26T09:15:56.402Z</time></trkpt><trkpt lat="43.799973" lon="12.5659096"><ele>279.5</ele><time>2026-04-26T09:15:57.402Z</time></trkpt><trkpt lat="43.8000054" lon="12.5657463"><ele>282.0</ele><time>2026-04-26T09:15:58.404Z</time></trkpt><trkpt lat="43.8000158" lon="12.5655916"><ele>284.5</ele><time>2026-04-26T09:15:59.398Z</time></trkpt><trkpt lat="43.7999905" lon="12.5654525"><ele>287.0</ele><time>2026-04-26T09:16:00.402Z</time></trkpt><trkpt lat="43.7999207" lon="12.5653143"><ele>287.0</ele><time>2026-04-26T09:16:01.407Z</time></trkpt><trkpt lat="43.7998168" lon="12.5651952"><ele>287.0</ele><time>2026-04-26T09:16:02.408Z</time></trkpt><trkpt lat="43.7996904" lon="12.5650972"><ele>287.0</ele><time>2026-04-26T09:16:03.408Z</time></trkpt><trkpt lat="43.79957" lon="12.565026"><ele>287.0</ele><time>2026-04-26T09:16:04.406Z</time></trkpt><trkpt lat="43.7994514" lon="12.56498"><ele>287.0</ele><time>2026-04-26T09:16:05.406Z</time></trkpt><trkpt lat="43.7993351" lon="12.5649715"><ele>287.0</ele><time>2026-04-26T09:16:06.405Z</time></trkpt><trkpt lat="43.7992207" lon="12.5650075"><ele>287.0</ele><time>2026-04-26T09:16:07.403Z</time></trkpt><trkpt lat="43.7991047" lon="12.5650873"><ele>287.0</ele><time>2026-04-26T09:16:08.403Z</time></trkpt><trkpt lat="43.79899" lon="12.5652188"><ele>290.6666666666667</ele><time>2026-04-26T09:16:09.404Z</time></trkpt><trkpt lat="43.7988806" lon="12.5653819"><ele>294.3333333333333</ele><time>2026-04-26T09:16:10.407Z</time></trkpt><trkpt lat="43.7987749" lon="12.5655414"><ele>298.0</ele><time>2026-04-26T09:16:11.404Z</time></trkpt><trkpt lat="43.7986712" lon="12.5656869"><ele>298.0</ele><time>2026-04-26T09:16:12.405Z</time></trkpt><trkpt lat="43.7985726" lon="12.5657896"><ele>298.0</ele><time>2026-04-26T09:16:13.408Z</time></trkpt><trkpt lat="43.7984722" lon="12.5658385"><ele>298.0</ele><time>2026-04-26T09:16:14.409Z</time></trkpt><trkpt lat="43.7983638" lon="12.5658398"><ele>298.0</ele><time>2026-04-26T09:16:15.413Z</time></trkpt><trkpt lat="43.7981345" lon="12.5656864"><ele>300.0</ele><time>2026-04-26T09:16:17.405Z</time></trkpt><trkpt lat="43.7980287" lon="12.5655779"><ele>302.0</ele><time>2026-04-26T09:16:18.401Z</time></trkpt><trkpt lat="43.7979321" lon="12.5654673"><ele>304.0</ele><time>2026-04-26T09:16:19.407Z</time></trkpt><trkpt lat="43.7978477" lon="12.5653605"><ele>306.0</ele><time>2026-04-26T09:16:20.409Z</time></trkpt><trkpt lat="43.7977708" lon="12.5652342"><ele>307.6666666666667</ele><time>2026-04-26T09:16:21.4Z</time></trkpt><trkpt lat="43.7976935" lon="12.5650806"><ele>309.33333333333337</ele><time>2026-04-26T09:16:22.404Z</time></trkpt><trkpt lat="43.7976153" lon="12.5648905"><ele>311.0</ele><time>2026-04-26T09:16:23.403Z</time></trkpt><trkpt lat="43.7975368" lon="12.5646721"><ele>310.25</ele><time>2026-04-26T09:16:24.404Z</time></trkpt><trkpt lat="43.7974673" lon="12.5644566"><ele>309.5</ele><time>2026-04-26T09:16:25.404Z</time></trkpt><trkpt lat="43.7974113" lon="12.564269"><ele>308.75</ele><time>2026-04-26T09:16:26.404Z</time></trkpt><trkpt lat="43.7973675" lon="12.5641122"><ele>308.0</ele><time>2026-04-26T09:16:27.407Z</time></trkpt><trkpt lat="43.7973432" lon="12.5639555"><ele>308.0</ele><time>2026-04-26T09:16:28.407Z</time></trkpt><trkpt lat="43.7973364" lon="12.5638046"><ele>308.0</ele><time>2026-04-26T09:16:29.401Z</time></trkpt><trkpt lat="43.7973596" lon="12.5636601"><ele>308.0</ele><time>2026-04-26T09:16:30.402Z</time></trkpt><trkpt lat="43.7974106" lon="12.5635058"><ele>308.0</ele><time>2026-04-26T09:16:31.408Z</time></trkpt><trkpt lat="43.7974824" lon="12.563334"><ele>308.0</ele><time>2026-04-26T09:16:32.406Z</time></trkpt><trkpt lat="43.7975608" lon="12.5631399"><ele>308.0</ele><time>2026-04-26T09:16:33.402Z</time></trkpt><trkpt lat="43.7976394" lon="12.5629296"><ele>308.0</ele><time>2026-04-26T09:16:34.406Z</time></trkpt><trkpt lat="43.7977253" lon="12.5627005"><ele>305.0</ele><time>2026-04-26T09:16:35.407Z</time></trkpt><trkpt lat="43.79781" lon="12.5624612"><ele>302.0</ele><time>2026-04-26T09:16:36.402Z</time></trkpt><trkpt lat="43.7979839" lon="12.5620187"><ele>301.25</ele><time>2026-04-26T09:16:38.406Z</time></trkpt><trkpt lat="43.798057" lon="12.5618227"><ele>300.5</ele><time>2026-04-26T09:16:39.408Z</time></trkpt><trkpt lat="43.7981103" lon="12.5616336"><ele>299.75</ele><time>2026-04-26T09:16:40.406Z</time></trkpt><trkpt lat="43.7981222" lon="12.5614437"><ele>299.0</ele><time>2026-04-26T09:16:41.401Z</time></trkpt><trkpt lat="43.7980931" lon="12.5612451"><ele>298.0</ele><time>2026-04-26T09:16:42.402Z</time></trkpt><trkpt lat="43.7980271" lon="12.5610343"><ele>297.0</ele><time>2026-04-26T09:16:43.403Z</time></trkpt><trkpt lat="43.7979271" lon="12.5608218"><ele>296.0</ele><time>2026-04-26T09:16:44.403Z</time></trkpt><trkpt lat="43.7978286" lon="12.5606221"><ele>296.0</ele><time>2026-04-26T09:16:45.402Z</time></trkpt><trkpt lat="43.7977646" lon="12.5604242"><ele>296.0</ele><time>2026-04-26T09:16:46.403Z</time></trkpt><trkpt lat="43.7977388" lon="12.5602113"><ele>296.0</ele><time>2026-04-26T09:16:47.406Z</time></trkpt><trkpt lat="43.7977464" lon="12.5599853"><ele>296.75</ele><time>2026-04-26T09:16:48.404Z</time></trkpt><trkpt lat="43.7977679" lon="12.5597683"><ele>297.5</ele><time>2026-04-26T09:16:49.406Z</time></trkpt><trkpt lat="43.797779" lon="12.5595627"><ele>298.25</ele><time>2026-04-26T09:16:50.408Z</time></trkpt><trkpt lat="43.7977617" lon="12.5593785"><ele>299.0</ele><time>2026-04-26T09:16:51.401Z</time></trkpt><trkpt lat="43.79771" lon="12.5592059"><ele>304.5</ele><time>2026-04-26T09:16:52.407Z</time></trkpt><trkpt lat="43.7976255" lon="12.5590577"><ele>310.0</ele><time>2026-04-26T09:16:53.405Z</time></trkpt><trkpt lat="43.7975214" lon="12.558932"><ele>315.5</ele><time>2026-04-26T09:16:54.406Z</time></trkpt><trkpt lat="43.797434" lon="12.5587995"><ele>321.0</ele><time>2026-04-26T09:16:55.402Z</time></trkpt><trkpt lat="43.7973793" lon="12.5586412"><ele>322.5</ele><time>2026-04-26T09:16:56.407Z</time></trkpt><trkpt lat="43.7973537" lon="12.558448"><ele>324.0</ele><time>2026-04-26T09:16:57.405Z</time></trkpt><trkpt lat="43.7973689" lon="12.5580052"><ele>325.0</ele><time>2026-04-26T09:16:59.398Z</time></trkpt><trkpt lat="43.7973468" lon="12.5578104"><ele>326.0</ele><time>2026-04-26T09:17:00.401Z</time></trkpt><trkpt lat="43.797292" lon="12.5575991"><ele>327.0</ele><time>2026-04-26T09:17:01.4Z</time></trkpt><trkpt lat="43.797224" lon="12.557384"><ele>327.0</ele><time>2026-04-26T09:17:02.41Z</time></trkpt><trkpt lat="43.7971573" lon="12.5571745"><ele>327.0</ele><time>2026-04-26T09:17:03.405Z</time></trkpt><trkpt lat="43.7970875" lon="12.5569896"><ele>327.0</ele><time>2026-04-26T09:17:04.41Z</time></trkpt><trkpt lat="43.7970006" lon="12.556828"><ele>326.6666666666667</ele><time>2026-04-26T09:17:05.403Z</time></trkpt><trkpt lat="43.7968854" lon="12.5566799"><ele>326.33333333333337</ele><time>2026-04-26T09:17:06.409Z</time></trkpt><trkpt lat="43.7967492" lon="12.5565394"><ele>326.0</ele><time>2026-04-26T09:17:07.406Z</time></trkpt><trkpt lat="43.7966289" lon="12.5564078"><ele>327.75</ele><time>2026-04-26T09:17:08.408Z</time></trkpt><trkpt lat="43.7965186" lon="12.5562702"><ele>329.5</ele><time>2026-04-26T09:17:09.405Z</time></trkpt><trkpt lat="43.7964136" lon="12.5561485"><ele>331.25</ele><time>2026-04-26T09:17:10.406Z</time></trkpt><trkpt lat="43.7963298" lon="12.5560263"><ele>333.0</ele><time>2026-04-26T09:17:11.407Z</time></trkpt><trkpt lat="43.7962815" lon="12.5558997"><ele>333.0</ele><time>2026-04-26T09:17:12.409Z</time></trkpt><trkpt lat="43.7962647" lon="12.5557629"><ele>333.0</ele><time>2026-04-26T09:17:13.409Z</time></trkpt><trkpt lat="43.7962797" lon="12.5555775"><ele>333.0</ele><time>2026-04-26T09:17:14.409Z</time></trkpt><trkpt lat="43.7963117" lon="12.5553562"><ele>333.0</ele><time>2026-04-26T09:17:15.402Z</time></trkpt><trkpt lat="43.7963548" lon="12.5551123"><ele>331.6666666666667</ele><time>2026-04-26T09:17:16.407Z</time></trkpt><trkpt lat="43.7964053" lon="12.5548729"><ele>330.33333333333337</ele><time>2026-04-26T09:17:17.402Z</time></trkpt><trkpt lat="43.796453" lon="12.5546406"><ele>329.0</ele><time>2026-04-26T09:17:18.404Z</time></trkpt><trkpt lat="43.7965336" lon="12.554213"><ele>331.25</ele><time>2026-04-26T09:17:20.406Z</time></trkpt><trkpt lat="43.7965654" lon="12.5540262"><ele>333.5</ele><time>2026-04-26T09:17:21.406Z</time></trkpt><trkpt lat="43.7965885" lon="12.5538605"><ele>335.75</ele><time>2026-04-26T09:17:22.406Z</time></trkpt><trkpt lat="43.7965687" lon="12.5536645"><ele>338.0</ele><time>2026-04-26T09:17:23.409Z</time></trkpt><trkpt lat="43.7965272" lon="12.5534344"><ele>339.33333333333337</ele><time>2026-04-26T09:17:24.402Z</time></trkpt><trkpt lat="43.7965203" lon="12.5532251"><ele>340.6666666666667</ele><time>2026-04-26T09:17:25.401Z</time></trkpt><trkpt lat="43.7965388" lon="12.5530037"><ele>342.0</ele><time>2026-04-26T09:17:26.4Z</time></trkpt><trkpt lat="43.7965825" lon="12.5527784"><ele>343.0</ele><time>2026-04-26T09:17:27.401Z</time></trkpt><trkpt lat="43.7966369" lon="12.5525513"><ele>344.0</ele><time>2026-04-26T09:17:28.409Z</time></trkpt><trkpt lat="43.7966911" lon="12.5523276"><ele>345.0</ele><time>2026-04-26T09:17:29.403Z</time></trkpt><trkpt lat="43.7967427" lon="12.552083"><ele>345.0</ele><time>2026-04-26T09:17:30.409Z</time></trkpt><trkpt lat="43.7967889" lon="12.5518135"><ele>345.0</ele><time>2026-04-26T09:17:31.4Z</time></trkpt><trkpt lat="43.7968527" lon="12.5515479"><ele>345.0</ele><time>2026-04-26T09:17:32.405Z</time></trkpt><trkpt lat="43.7969307" lon="12.5513087"><ele>344.6666666666667</ele><time>2026-04-26T09:17:33.402Z</time></trkpt><trkpt lat="43.7970062" lon="12.5510808"><ele>344.33333333333337</ele><time>2026-04-26T09:17:34.403Z</time></trkpt><trkpt lat="43.7970559" lon="12.5508478"><ele>344.0</ele><time>2026-04-26T09:17:35.403Z</time></trkpt><trkpt lat="43.7970806" lon="12.5506055"><ele>348.6666666666667</ele><time>2026-04-26T09:17:36.401Z</time></trkpt><trkpt lat="43.7970851" lon="12.5503677"><ele>353.3333333333333</ele><time>2026-04-26T09:17:37.405Z</time></trkpt><trkpt lat="43.797077" lon="12.5501369"><ele>358.0</ele><time>2026-04-26T09:17:38.403Z</time></trkpt><trkpt lat="43.7970673" lon="12.5499194"><ele>358.0</ele><time>2026-04-26T09:17:39.404Z</time></trkpt><trkpt lat="43.7970745" lon="12.549562"><ele>358.0</ele><time>2026-04-26T09:17:41.407Z</time></trkpt><trkpt lat="43.797109" lon="12.5494194"><ele>358.0</ele><time>2026-04-26T09:17:42.406Z</time></trkpt><trkpt lat="43.7971674" lon="12.5493033"><ele>356.5</ele><time>2026-04-26T09:17:43.408Z</time></trkpt><trkpt lat="43.7972472" lon="12.5492104"><ele>355.0</ele><time>2026-04-26T09:17:44.404Z</time></trkpt><trkpt lat="43.7973601" lon="12.5491359"><ele>353.5</ele><time>2026-04-26T09:17:45.403Z</time></trkpt><trkpt lat="43.7974951" lon="12.5490651"><ele>352.0</ele><time>2026-04-26T09:17:46.407Z</time></trkpt><trkpt lat="43.7976213" lon="12.5489713"><ele>350.0</ele><time>2026-04-26T09:17:47.401Z</time></trkpt><trkpt lat="43.7977311" lon="12.5488575"><ele>348.0</ele><time>2026-04-26T09:17:48.403Z</time></trkpt><trkpt lat="43.7978247" lon="12.5487042"><ele>346.0</ele><time>2026-04-26T09:17:49.409Z</time></trkpt><trkpt lat="43.79791" lon="12.5485072"><ele>344.0</ele><time>2026-04-26T09:17:50.404Z</time></trkpt><trkpt lat="43.797995" lon="12.5482797"><ele>341.6666666666667</ele><time>2026-04-26T09:17:51.405Z</time></trkpt><trkpt lat="43.7980773" lon="12.5480523"><ele>339.3333333333333</ele><time>2026-04-26T09:17:52.403Z</time></trkpt><trkpt lat="43.7981552" lon="12.547832"><ele>337.0</ele><time>2026-04-26T09:17:53.402Z</time></trkpt><trkpt lat="43.7982304" lon="12.5476262"><ele>337.0</ele><time>2026-04-26T09:17:54.401Z</time></trkpt><trkpt lat="43.7982916" lon="12.5474055"><ele>337.0</ele><time>2026-04-26T09:17:55.401Z</time></trkpt><trkpt lat="43.7983347" lon="12.5471632"><ele>337.0</ele><time>2026-04-26T09:17:56.404Z</time></trkpt><trkpt lat="43.7983593" lon="12.5469239"><ele>337.0</ele><time>2026-04-26T09:17:57.406Z</time></trkpt><trkpt lat="43.7983695" lon="12.5466992"><ele>337.0</ele><time>2026-04-26T09:17:58.408Z</time></trkpt><trkpt lat="43.7983529" lon="12.5464758"><ele>337.0</ele><time>2026-04-26T09:17:59.404Z</time></trkpt><trkpt lat="43.7983122" lon="12.5462444"><ele>340.5</ele><time>2026-04-26T09:18:00.402Z</time></trkpt><trkpt lat="43.7982138" lon="12.545819"><ele>344.0</ele><time>2026-04-26T09:18:02.409Z</time></trkpt><trkpt lat="43.7982035" lon="12.5456048"><ele>344.0</ele><time>2026-04-26T09:18:03.403Z</time></trkpt><trkpt lat="43.7982161" lon="12.5453849"><ele>344.0</ele><time>2026-04-26T09:18:04.4Z</time></trkpt><trkpt lat="43.7982166" lon="12.5451697"><ele>344.0</ele><time>2026-04-26T09:18:05.403Z</time></trkpt><trkpt lat="43.7981853" lon="12.5449424"><ele>346.33333333333337</ele><time>2026-04-26T09:18:06.401Z</time></trkpt><trkpt lat="43.7981215" lon="12.5447034"><ele>348.6666666666667</ele><time>2026-04-26T09:18:07.404Z</time></trkpt><trkpt lat="43.7980595" lon="12.5444748"><ele>351.0</ele><time>2026-04-26T09:18:08.403Z</time></trkpt><trkpt lat="43.7980194" lon="12.5442457"><ele>350.0</ele><time>2026-04-26T09:18:09.408Z</time></trkpt><trkpt lat="43.7979991" lon="12.5439979"><ele>349.0</ele><time>2026-04-26T09:18:10.405Z</time></trkpt><trkpt lat="43.7979818" lon="12.543746"><ele>348.0</ele><time>2026-04-26T09:18:11.406Z</time></trkpt><trkpt lat="43.7979662" lon="12.5435091"><ele>348.0</ele><time>2026-04-26T09:18:12.406Z</time></trkpt><trkpt lat="43.7979636" lon="12.5432697"><ele>348.0</ele><time>2026-04-26T09:18:13.404Z</time></trkpt><trkpt lat="43.7979649" lon="12.5430214"><ele>348.0</ele><time>2026-04-26T09:18:14.404Z</time></trkpt><trkpt lat="43.797961" lon="12.542771"><ele>348.0</ele><time>2026-04-26T09:18:15.402Z</time></trkpt><trkpt lat="43.7979494" lon="12.5425209"><ele>348.0</ele><time>2026-04-26T09:18:16.404Z</time></trkpt><trkpt lat="43.7979268" lon="12.5422774"><ele>348.0</ele><time>2026-04-26T09:18:17.405Z</time></trkpt><trkpt lat="43.7978838" lon="12.542046"><ele>348.6666666666667</ele><time>2026-04-26T09:18:18.405Z</time></trkpt><trkpt lat="43.7978058" lon="12.541825"><ele>349.33333333333337</ele><time>2026-04-26T09:18:19.407Z</time></trkpt><trkpt lat="43.797704" lon="12.5416244"><ele>350.0</ele><time>2026-04-26T09:18:20.406Z</time></trkpt><trkpt lat="43.797602" lon="12.541437"><ele>356.0</ele><time>2026-04-26T09:18:21.407Z</time></trkpt><trkpt lat="43.797479" lon="12.5410416"><ele>362.0</ele><time>2026-04-26T09:18:23.4Z</time></trkpt><trkpt lat="43.7974532" lon="12.5408304"><ele>362.0</ele><time>2026-04-26T09:18:24.402Z</time></trkpt><trkpt lat="43.7974266" lon="12.540603"><ele>362.0</ele><time>2026-04-26T09:18:25.402Z</time></trkpt><trkpt lat="43.7973855" lon="12.540373"><ele>362.0</ele><time>2026-04-26T09:18:26.404Z</time></trkpt><trkpt lat="43.7973258" lon="12.5401489"><ele>363.6666666666667</ele><time>2026-04-26T09:18:27.404Z</time></trkpt><trkpt lat="43.7972437" lon="12.5399381"><ele>365.3333333333333</ele><time>2026-04-26T09:18:28.406Z</time></trkpt><trkpt lat="43.7971407" lon="12.5397486"><ele>367.0</ele><time>2026-04-26T09:18:29.398Z</time></trkpt><trkpt lat="43.7970239" lon="12.5395862"><ele>368.66666666666663</ele><time>2026-04-26T09:18:30.4Z</time></trkpt><trkpt lat="43.7969003" lon="12.5394514"><ele>370.3333333333333</ele><time>2026-04-26T09:18:31.403Z</time></trkpt><trkpt lat="43.7967684" lon="12.539329"><ele>372.0</ele><time>2026-04-26T09:18:32.407Z</time></trkpt><trkpt lat="43.7966373" lon="12.5391911"><ele>372.3333333333333</ele><time>2026-04-26T09:18:33.404Z</time></trkpt><trkpt lat="43.7965203" lon="12.5390248"><ele>372.66666666666663</ele><time>2026-04-26T09:18:34.407Z</time></trkpt><trkpt lat="43.7964181" lon="12.5388538"><ele>373.0</ele><time>2026-04-26T09:18:35.402Z</time></trkpt><trkpt lat="43.7963205" lon="12.5386945"><ele>373.0</ele><time>2026-04-26T09:18:36.404Z</time></trkpt><trkpt lat="43.7962072" lon="12.5385628"><ele>373.0</ele><time>2026-04-26T09:18:37.403Z</time></trkpt><trkpt lat="43.7960549" lon="12.5384714"><ele>373.0</ele><time>2026-04-26T09:18:38.41Z</time></trkpt><trkpt lat="43.7958699" lon="12.5383923"><ele>373.0</ele><time>2026-04-26T09:18:39.409Z</time></trkpt><trkpt lat="43.7956829" lon="12.5383134"><ele>373.0</ele><time>2026-04-26T09:18:40.403Z</time></trkpt><trkpt lat="43.7955077" lon="12.5382387"><ele>373.0</ele><time>2026-04-26T09:18:41.405Z</time></trkpt><trkpt lat="43.7953579" lon="12.5381765"><ele>372.3333333333333</ele><time>2026-04-26T09:18:42.399Z</time></trkpt><trkpt lat="43.7951284" lon="12.538055"><ele>371.6666666666667</ele><time>2026-04-26T09:18:44.404Z</time></trkpt><trkpt lat="43.7950389" lon="12.5379547"><ele>371.0</ele><time>2026-04-26T09:18:45.401Z</time></trkpt><trkpt lat="43.7949733" lon="12.5378232"><ele>371.0</ele><time>2026-04-26T09:18:46.402Z</time></trkpt><trkpt lat="43.7949304" lon="12.5376646"><ele>371.0</ele><time>2026-04-26T09:18:47.404Z</time></trkpt><trkpt lat="43.7948985" lon="12.5374812"><ele>371.0</ele><time>2026-04-26T09:18:48.402Z</time></trkpt><trkpt lat="43.7948691" lon="12.5372631"><ele>371.0</ele><time>2026-04-26T09:18:49.407Z</time></trkpt><trkpt lat="43.7948411" lon="12.5370227"><ele>370.33333333333337</ele><time>2026-04-26T09:18:50.406Z</time></trkpt><trkpt lat="43.7948156" lon="12.5367873"><ele>369.6666666666667</ele><time>2026-04-26T09:18:51.4Z</time></trkpt><trkpt lat="43.7947894" lon="12.5365588"><ele>369.0</ele><time>2026-04-26T09:18:52.401Z</time></trkpt><trkpt lat="43.7947564" lon="12.5363384"><ele>366.6666666666667</ele><time>2026-04-26T09:18:53.407Z</time></trkpt><trkpt lat="43.7947092" lon="12.5361254"><ele>364.33333333333337</ele><time>2026-04-26T09:18:54.403Z</time></trkpt><trkpt lat="43.7946487" lon="12.5359314"><ele>362.0</ele><time>2026-04-26T09:18:55.402Z</time></trkpt><trkpt lat="43.7945581" lon="12.5357535"><ele>362.0</ele><time>2026-04-26T09:18:56.405Z</time></trkpt><trkpt lat="43.7944237" lon="12.535584"><ele>362.0</ele><time>2026-04-26T09:18:57.408Z</time></trkpt><trkpt lat="43.7942727" lon="12.535425"><ele>362.0</ele><time>2026-04-26T09:18:58.406Z</time></trkpt><trkpt lat="43.7941203" lon="12.5352869"><ele>362.0</ele><time>2026-04-26T09:18:59.403Z</time></trkpt><trkpt lat="43.7939623" lon="12.5351638"><ele>362.0</ele><time>2026-04-26T09:19:00.399Z</time></trkpt><trkpt lat="43.7938033" lon="12.5350489"><ele>362.0</ele><time>2026-04-26T09:19:01.402Z</time></trkpt><trkpt lat="43.7936513" lon="12.5349363"><ele>362.0</ele><time>2026-04-26T09:19:02.403Z</time></trkpt><trkpt lat="43.7935091" lon="12.5348287"><ele>362.0</ele><time>2026-04-26T09:19:03.406Z</time></trkpt><trkpt lat="43.7932593" lon="12.5346167"><ele>363.0</ele><time>2026-04-26T09:19:05.408Z</time></trkpt><trkpt lat="43.7931659" lon="12.5344883"><ele>364.0</ele><time>2026-04-26T09:19:06.409Z</time></trkpt><trkpt lat="43.7930957" lon="12.5343319"><ele>365.0</ele><time>2026-04-26T09:19:07.408Z</time></trkpt><trkpt lat="43.7930336" lon="12.5341635"><ele>366.0</ele><time>2026-04-26T09:19:08.403Z</time></trkpt><trkpt lat="43.7929509" lon="12.5339906"><ele>366.0</ele><time>2026-04-26T09:19:09.401Z</time></trkpt><trkpt lat="43.7928339" lon="12.5338207"><ele>366.0</ele><time>2026-04-26T09:19:10.403Z</time></trkpt><trkpt lat="43.7927051" lon="12.5336726"><ele>366.0</ele><time>2026-04-26T09:19:11.404Z</time></trkpt><trkpt lat="43.7925741" lon="12.5335524"><ele>364.0</ele><time>2026-04-26T09:19:12.402Z</time></trkpt><trkpt lat="43.7924338" lon="12.5334546"><ele>362.0</ele><time>2026-04-26T09:19:13.405Z</time></trkpt><trkpt lat="43.7922895" lon="12.5333738"><ele>360.0</ele><time>2026-04-26T09:19:14.405Z</time></trkpt><trkpt lat="43.7921499" lon="12.5332982"><ele>360.0</ele><time>2026-04-26T09:19:15.406Z</time></trkpt><trkpt lat="43.7920098" lon="12.5332301"><ele>360.0</ele><time>2026-04-26T09:19:16.404Z</time></trkpt><trkpt lat="43.7918723" lon="12.5331934"><ele>360.0</ele><time>2026-04-26T09:19:17.41Z</time></trkpt><trkpt lat="43.7917381" lon="12.5331911"><ele>360.0</ele><time>2026-04-26T09:19:18.409Z</time></trkpt><trkpt lat="43.7915984" lon="12.533202"><ele>359.25</ele><time>2026-04-26T09:19:19.403Z</time></trkpt><trkpt lat="43.7914622" lon="12.5331967"><ele>358.5</ele><time>2026-04-26T09:19:20.41Z</time></trkpt><trkpt lat="43.7913405" lon="12.5331534"><ele>357.75</ele><time>2026-04-26T09:19:21.409Z</time></trkpt><trkpt lat="43.7912397" lon="12.5330722"><ele>357.0</ele><time>2026-04-26T09:19:22.404Z</time></trkpt><trkpt lat="43.7911448" lon="12.5329459"><ele>358.0</ele><time>2026-04-26T09:19:23.403Z</time></trkpt><trkpt lat="43.7910495" lon="12.5327868"><ele>359.0</ele><time>2026-04-26T09:19:24.405Z</time></trkpt><trkpt lat="43.7908565" lon="12.5324208"><ele>359.0</ele><time>2026-04-26T09:19:26.406Z</time></trkpt><trkpt lat="43.7907552" lon="12.5322324"><ele>359.0</ele><time>2026-04-26T09:19:27.403Z</time></trkpt><trkpt lat="43.7906549" lon="12.5320285"><ele>359.0</ele><time>2026-04-26T09:19:28.402Z</time></trkpt><trkpt lat="43.7905488" lon="12.5318136"><ele>359.33333333333337</ele><time>2026-04-26T09:19:29.399Z</time></trkpt><trkpt lat="43.790438" lon="12.5316008"><ele>359.6666666666667</ele><time>2026-04-26T09:19:30.4Z</time></trkpt><trkpt lat="43.7903214" lon="12.5313917"><ele>360.0</ele><time>2026-04-26T09:19:31.404Z</time></trkpt><trkpt lat="43.7902125" lon="12.5311893"><ele>358.3333333333333</ele><time>2026-04-26T09:19:32.401Z</time></trkpt><trkpt lat="43.7901116" lon="12.5310051"><ele>356.66666666666663</ele><time>2026-04-26T09:19:33.41Z</time></trkpt><trkpt lat="43.7900216" lon="12.5308412"><ele>355.0</ele><time>2026-04-26T09:19:34.403Z</time></trkpt><trkpt lat="43.7899418" lon="12.5306893"><ele>355.0</ele><time>2026-04-26T09:19:35.409Z</time></trkpt><trkpt lat="43.7898681" lon="12.5305422"><ele>355.0</ele><time>2026-04-26T09:19:36.405Z</time></trkpt><trkpt lat="43.7897964" lon="12.5303946"><ele>355.0</ele><time>2026-04-26T09:19:37.41Z</time></trkpt><trkpt lat="43.7897273" lon="12.5302463"><ele>355.0</ele><time>2026-04-26T09:19:38.401Z</time></trkpt><trkpt lat="43.7896636" lon="12.5300974"><ele>353.4</ele><time>2026-04-26T09:19:39.402Z</time></trkpt><trkpt lat="43.7896105" lon="12.5299469"><ele>351.8</ele><time>2026-04-26T09:19:40.402Z</time></trkpt><trkpt lat="43.7895645" lon="12.5298013"><ele>350.20000000000005</ele><time>2026-04-26T09:19:41.404Z</time></trkpt><trkpt lat="43.7895141" lon="12.5296896"><ele>348.6</ele><time>2026-04-26T09:19:42.402Z</time></trkpt><trkpt lat="43.7894443" lon="12.5296079"><ele>347.0</ele><time>2026-04-26T09:19:43.407Z</time></trkpt><trkpt lat="43.7893512" lon="12.52956"><ele>350.0</ele><time>2026-04-26T09:19:44.405Z</time></trkpt><trkpt lat="43.7892297" lon="12.5295406"><ele>353.0</ele><time>2026-04-26T09:19:45.409Z</time></trkpt><trkpt lat="43.7889107" lon="12.5294984"><ele>356.0</ele><time>2026-04-26T09:19:47.409Z</time></trkpt><trkpt lat="43.7887413" lon="12.5294651"><ele>356.0</ele><time>2026-04-26T09:19:48.402Z</time></trkpt><trkpt lat="43.7885763" lon="12.5294467"><ele>356.0</ele><time>2026-04-26T09:19:49.402Z</time></trkpt><trkpt lat="43.788435" lon="12.5294326"><ele>356.0</ele><time>2026-04-26T09:19:50.407Z</time></trkpt><trkpt lat="43.7883151" lon="12.5294046"><ele>356.0</ele><time>2026-04-26T09:19:51.401Z</time></trkpt><trkpt lat="43.7882115" lon="12.5293365"><ele>360.6666666666667</ele><time>2026-04-26T09:19:52.402Z</time></trkpt><trkpt lat="43.7881082" lon="12.529215"><ele>365.3333333333333</ele><time>2026-04-26T09:19:53.403Z</time></trkpt><trkpt lat="43.7880025" lon="12.529063"><ele>370.0</ele><time>2026-04-26T09:19:54.407Z</time></trkpt><trkpt lat="43.7878891" lon="12.5288932"><ele>368.3333333333333</ele><time>2026-04-26T09:19:55.409Z</time></trkpt><trkpt lat="43.7877751" lon="12.5287192"><ele>366.6666666666667</ele><time>2026-04-26T09:19:56.4Z</time></trkpt><trkpt lat="43.7876755" lon="12.5285531"><ele>365.0</ele><time>2026-04-26T09:19:57.401Z</time></trkpt><trkpt lat="43.7875972" lon="12.5283856"><ele>369.0</ele><time>2026-04-26T09:19:58.405Z</time></trkpt><trkpt lat="43.787549" lon="12.528183"><ele>373.0</ele><time>2026-04-26T09:19:59.402Z</time></trkpt><trkpt lat="43.7875138" lon="12.5279763"><ele>377.0</ele><time>2026-04-26T09:20:00.402Z</time></trkpt><trkpt lat="43.7874688" lon="12.5277973"><ele>381.0</ele><time>2026-04-26T09:20:01.399Z</time></trkpt><trkpt lat="43.7873944" lon="12.5276258"><ele>383.33333333333337</ele><time>2026-04-26T09:20:02.406Z</time></trkpt><trkpt lat="43.7872994" lon="12.5274519"><ele>385.6666666666667</ele><time>2026-04-26T09:20:03.407Z</time></trkpt><trkpt lat="43.7871889" lon="12.5272697"><ele>388.0</ele><time>2026-04-26T09:20:04.403Z</time></trkpt><trkpt lat="43.7870893" lon="12.5270969"><ele>385.0</ele><time>2026-04-26T09:20:05.401Z</time></trkpt><trkpt lat="43.7869923" lon="12.5269482"><ele>382.0</ele><time>2026-04-26T09:20:06.4Z</time></trkpt><trkpt lat="43.7868186" lon="12.5267257"><ele>379.0</ele><time>2026-04-26T09:20:08.403Z</time></trkpt><trkpt lat="43.7867199" lon="12.5266659"><ele>384.75</ele><time>2026-04-26T09:20:09.403Z</time></trkpt><trkpt lat="43.7866015" lon="12.5266426"><ele>390.5</ele><time>2026-04-26T09:20:10.403Z</time></trkpt><trkpt lat="43.7864586" lon="12.5266416"><ele>396.25</ele><time>2026-04-26T09:20:11.403Z</time></trkpt><trkpt lat="43.7863312" lon="12.5266574"><ele>402.0</ele><time>2026-04-26T09:20:12.403Z</time></trkpt><trkpt lat="43.7862232" lon="12.5266959"><ele>402.0</ele><time>2026-04-26T09:20:13.404Z</time></trkpt><trkpt lat="43.7861236" lon="12.5267809"><ele>402.0</ele><time>2026-04-26T09:20:14.408Z</time></trkpt><trkpt lat="43.7860277" lon="12.5269181"><ele>402.0</ele><time>2026-04-26T09:20:15.406Z</time></trkpt><trkpt lat="43.7859326" lon="12.5271058"><ele>402.0</ele><time>2026-04-26T09:20:16.405Z</time></trkpt><trkpt lat="43.7858483" lon="12.5273006"><ele>403.25</ele><time>2026-04-26T09:20:17.402Z</time></trkpt><trkpt lat="43.7857741" lon="12.5274856"><ele>404.5</ele><time>2026-04-26T09:20:18.401Z</time></trkpt><trkpt lat="43.785695" lon="12.5276522"><ele>405.75</ele><time>2026-04-26T09:20:19.402Z</time></trkpt><trkpt lat="43.7856116" lon="12.5277964"><ele>407.0</ele><time>2026-04-26T09:20:20.407Z</time></trkpt><trkpt lat="43.7855202" lon="12.5279118"><ele>407.0</ele><time>2026-04-26T09:20:21.41Z</time></trkpt><trkpt lat="43.7854288" lon="12.5280181"><ele>407.0</ele><time>2026-04-26T09:20:22.407Z</time></trkpt><trkpt lat="43.7853099" lon="12.5280181"><ele>407.0</ele><time>2026-04-26T09:20:23.405Z</time></trkpt><trkpt lat="43.7851879" lon="12.5280065"><ele>407.0</ele><time>2026-04-26T09:20:24.408Z</time></trkpt><trkpt lat="43.7850477" lon="12.5279702"><ele>410.66666666666663</ele><time>2026-04-26T09:20:25.402Z</time></trkpt><trkpt lat="43.7849179" lon="12.5279581"><ele>414.33333333333337</ele><time>2026-04-26T09:20:26.4Z</time></trkpt><trkpt lat="43.7847983" lon="12.527965"><ele>418.0</ele><time>2026-04-26T09:20:27.4Z</time></trkpt><trkpt lat="43.7845173" lon="12.5279968"><ele>418.0</ele><time>2026-04-26T09:20:29.402Z</time></trkpt><trkpt lat="43.7843655" lon="12.5279887"><ele>418.0</ele><time>2026-04-26T09:20:30.403Z</time></trkpt><trkpt lat="43.7842197" lon="12.5279578"><ele>418.0</ele><time>2026-04-26T09:20:31.401Z</time></trkpt><trkpt lat="43.7840842" lon="12.5278917"><ele>418.0</ele><time>2026-04-26T09:20:32.405Z</time></trkpt><trkpt lat="43.783972" lon="12.527802"><ele>419.25</ele><time>2026-04-26T09:20:33.401Z</time></trkpt><trkpt lat="43.7838692" lon="12.5277324"><ele>420.5</ele><time>2026-04-26T09:20:34.403Z</time></trkpt><trkpt lat="43.7837597" lon="12.5276942"><ele>421.75</ele><time>2026-04-26T09:20:35.4Z</time></trkpt><trkpt lat="43.7836432" lon="12.5277056"><ele>423.0</ele><time>2026-04-26T09:20:36.4Z</time></trkpt><trkpt lat="43.7835323" lon="12.5277507"><ele>423.33333333333337</ele><time>2026-04-26T09:20:37.402Z</time></trkpt><trkpt lat="43.7833729" lon="12.5278518"><ele>423.6666666666667</ele><time>2026-04-26T09:20:38.404Z</time></trkpt><trkpt lat="43.7832355" lon="12.5279295"><ele>424.0</ele><time>2026-04-26T09:20:39.402Z</time></trkpt><trkpt lat="43.7830928" lon="12.5279822"><ele>427.0</ele><time>2026-04-26T09:20:40.405Z</time></trkpt><trkpt lat="43.7829488" lon="12.5280002"><ele>430.0</ele><time>2026-04-26T09:20:41.403Z</time></trkpt><trkpt lat="43.7828021" lon="12.5279767"><ele>433.0</ele><time>2026-04-26T09:20:42.4Z</time></trkpt><trkpt lat="43.7826482" lon="12.5279549"><ele>436.0</ele><time>2026-04-26T09:20:43.404Z</time></trkpt><trkpt lat="43.7824805" lon="12.5279466"><ele>439.6666666666667</ele><time>2026-04-26T09:20:44.407Z</time></trkpt><trkpt lat="43.7823018" lon="12.5279568"><ele>443.33333333333337</ele><time>2026-04-26T09:20:45.402Z</time></trkpt><trkpt lat="43.7821202" lon="12.5279819"><ele>447.0</ele><time>2026-04-26T09:20:46.401Z</time></trkpt><trkpt lat="43.7819369" lon="12.5280327"><ele>447.0</ele><time>2026-04-26T09:20:47.401Z</time></trkpt><trkpt lat="43.781767" lon="12.528072"><ele>447.0</ele><time>2026-04-26T09:20:48.401Z</time></trkpt><trkpt lat="43.7814691" lon="12.5281758"><ele>447.0</ele><time>2026-04-26T09:20:50.405Z</time></trkpt><trkpt lat="43.781324" lon="12.5282521"><ele>447.0</ele><time>2026-04-26T09:20:51.404Z</time></trkpt><trkpt lat="43.7811653" lon="12.5283355"><ele>447.0</ele><time>2026-04-26T09:20:52.405Z</time></trkpt><trkpt lat="43.7810059" lon="12.5284304"><ele>442.0</ele><time>2026-04-26T09:20:53.403Z</time></trkpt><trkpt lat="43.7808557" lon="12.5285232"><ele>437.0</ele><time>2026-04-26T09:20:54.401Z</time></trkpt><trkpt lat="43.7807132" lon="12.5286023"><ele>432.0</ele><time>2026-04-26T09:20:55.402Z</time></trkpt><trkpt lat="43.7805823" lon="12.528679"><ele>436.0</ele><time>2026-04-26T09:20:56.402Z</time></trkpt><trkpt lat="43.7804669" lon="12.5287427"><ele>440.0</ele><time>2026-04-26T09:20:57.402Z</time></trkpt><trkpt lat="43.7803725" lon="12.5288431"><ele>444.0</ele><time>2026-04-26T09:20:58.402Z</time></trkpt><trkpt lat="43.7803093" lon="12.5289627"><ele>448.0</ele><time>2026-04-26T09:20:59.4Z</time></trkpt><trkpt lat="43.7802543" lon="12.5290875"><ele>448.00000000000006</ele><time>2026-04-26T09:21:00.4Z</time></trkpt><trkpt lat="43.7802211" lon="12.5292166"><ele>448.0</ele><time>2026-04-26T09:21:01.4Z</time></trkpt><trkpt lat="43.7802078" lon="12.529341"><ele>448.0</ele><time>2026-04-26T09:21:02.399Z</time></trkpt><trkpt lat="43.7801851" lon="12.5294392"><ele>448.0</ele><time>2026-04-26T09:21:03.401Z</time></trkpt><trkpt lat="43.7801424" lon="12.5295149"><ele>448.00000000000006</ele><time>2026-04-26T09:21:04.4Z</time></trkpt><trkpt lat="43.7800767" lon="12.5295771"><ele>448.0</ele><time>2026-04-26T09:21:05.401Z</time></trkpt><trkpt lat="43.7799599" lon="12.5295027"><ele>444.75</ele><time>2026-04-26T09:21:06.401Z</time></trkpt><trkpt lat="43.7798357" lon="12.5294661"><ele>441.5</ele><time>2026-04-26T09:21:07.401Z</time></trkpt><trkpt lat="43.7797085" lon="12.5294462"><ele>438.25</ele><time>2026-04-26T09:21:08.402Z</time></trkpt><trkpt lat="43.7795781" lon="12.5294176"><ele>435.0</ele><time>2026-04-26T09:21:09.406Z</time></trkpt><trkpt lat="43.7793144" lon="12.5292625"><ele>432.0</ele><time>2026-04-26T09:21:11.405Z</time></trkpt><trkpt lat="43.7791924" lon="12.5291655"><ele>429.0</ele><time>2026-04-26T09:21:12.403Z</time></trkpt><trkpt lat="43.7790883" lon="12.5290646"><ele>426.0</ele><time>2026-04-26T09:21:13.402Z</time></trkpt><trkpt lat="43.7789869" lon="12.5289734"><ele>423.0</ele><time>2026-04-26T09:21:14.403Z</time></trkpt><trkpt lat="43.7788671" lon="12.5288983"><ele>423.0</ele><time>2026-04-26T09:21:15.405Z</time></trkpt><trkpt lat="43.7787441" lon="12.5288338"><ele>423.0</ele><time>2026-04-26T09:21:16.403Z</time></trkpt><trkpt lat="43.7786286" lon="12.5287598"><ele>423.0</ele><time>2026-04-26T09:21:17.403Z</time></trkpt><trkpt lat="43.7785125" lon="12.5286819"><ele>423.0</ele><time>2026-04-26T09:21:18.404Z</time></trkpt><trkpt lat="43.7783959" lon="12.5286067"><ele>425.6666666666667</ele><time>2026-04-26T09:21:19.408Z</time></trkpt><trkpt lat="43.7782962" lon="12.5285424"><ele>428.33333333333337</ele><time>2026-04-26T09:21:20.407Z</time></trkpt><trkpt lat="43.778228" lon="12.5284855"><ele>431.0</ele><time>2026-04-26T09:21:21.404Z</time></trkpt><trkpt lat="43.7781708" lon="12.5284358"><ele>433.6666666666667</ele><time>2026-04-26T09:21:24.404Z</time></trkpt><trkpt lat="43.7780933" lon="12.528391"><ele>436.33333333333337</ele><time>2026-04-26T09:21:26.424Z</time></trkpt><trkpt lat="43.7780358" lon="12.5283268"><ele>439.0</ele><time>2026-04-26T09:21:27.403Z</time></trkpt><trkpt lat="43.7779639" lon="12.5282383"><ele>439.0</ele><time>2026-04-26T09:21:28.408Z</time></trkpt><trkpt lat="43.7779005" lon="12.5281057"><ele>439.0</ele><time>2026-04-26T09:21:29.41Z</time></trkpt><trkpt lat="43.7778538" lon="12.5279475"><ele>439.0</ele><time>2026-04-26T09:21:30.397Z</time></trkpt><trkpt lat="43.7777777" lon="12.5275898"><ele>439.25</ele><time>2026-04-26T09:21:32.4Z</time></trkpt><trkpt lat="43.7777322" lon="12.5274257"><ele>439.5</ele><time>2026-04-26T09:21:33.401Z</time></trkpt><trkpt lat="43.777631" lon="12.5272974"><ele>439.75</ele><time>2026-04-26T09:21:34.402Z</time></trkpt><trkpt lat="43.7775103" lon="12.5271867"><ele>440.0</ele><time>2026-04-26T09:21:35.403Z</time></trkpt><trkpt lat="43.7773829" lon="12.5270952"><ele>439.5</ele><time>2026-04-26T09:21:36.402Z</time></trkpt><trkpt lat="43.7772588" lon="12.5270045"><ele>439.0</ele><time>2026-04-26T09:21:37.406Z</time></trkpt><trkpt lat="43.7771293" lon="12.526938"><ele>438.5</ele><time>2026-04-26T09:21:38.406Z</time></trkpt><trkpt lat="43.7770029" lon="12.5268894"><ele>438.0</ele><time>2026-04-26T09:21:39.41Z</time></trkpt><trkpt lat="43.7768772" lon="12.526858"><ele>435.0</ele><time>2026-04-26T09:21:40.407Z</time></trkpt><trkpt lat="43.776755" lon="12.5268452"><ele>432.0</ele><time>2026-04-26T09:21:41.403Z</time></trkpt><trkpt lat="43.7766362" lon="12.5268281"><ele>429.0</ele><time>2026-04-26T09:21:42.401Z</time></trkpt><trkpt lat="43.7765241" lon="12.5268068"><ele>426.0</ele><time>2026-04-26T09:21:43.402Z</time></trkpt><trkpt lat="43.7764201" lon="12.5267595"><ele>426.0</ele><time>2026-04-26T09:21:44.402Z</time></trkpt><trkpt lat="43.7763183" lon="12.5266479"><ele>426.0</ele><time>2026-04-26T09:21:45.405Z</time></trkpt><trkpt lat="43.7762214" lon="12.5264804"><ele>426.0</ele><time>2026-04-26T09:21:46.409Z</time></trkpt><trkpt lat="43.7761168" lon="12.5263184"><ele>426.0</ele><time>2026-04-26T09:21:47.406Z</time></trkpt><trkpt lat="43.7759796" lon="12.5262001"><ele>424.33333333333337</ele><time>2026-04-26T09:21:48.402Z</time></trkpt><trkpt lat="43.7758306" lon="12.5260895"><ele>422.6666666666667</ele><time>2026-04-26T09:21:49.402Z</time></trkpt><trkpt lat="43.7757122" lon="12.5259508"><ele>421.0</ele><time>2026-04-26T09:21:50.402Z</time></trkpt><trkpt lat="43.7756117" lon="12.5258025"><ele>421.0</ele><time>2026-04-26T09:21:51.401Z</time></trkpt><trkpt lat="43.7754165" lon="12.525565"><ele>421.0</ele><time>2026-04-26T09:21:53.402Z</time></trkpt><trkpt lat="43.7752844" lon="12.5254749"><ele>421.0</ele><time>2026-04-26T09:21:54.403Z</time></trkpt><trkpt lat="43.7751329" lon="12.52538"><ele>418.25</ele><time>2026-04-26T09:21:55.402Z</time></trkpt><trkpt lat="43.7749905" lon="12.5253105"><ele>415.5</ele><time>2026-04-26T09:21:56.402Z</time></trkpt><trkpt lat="43.7748662" lon="12.5252239"><ele>412.75</ele><time>2026-04-26T09:21:57.406Z</time></trkpt><trkpt lat="43.7747558" lon="12.5250941"><ele>410.0</ele><time>2026-04-26T09:21:58.406Z</time></trkpt><trkpt lat="43.7746448" lon="12.5249677"><ele>410.0</ele><time>2026-04-26T09:21:59.401Z</time></trkpt><trkpt lat="43.7745082" lon="12.5248828"><ele>410.0</ele><time>2026-04-26T09:22:00.399Z</time></trkpt><trkpt lat="43.774355" lon="12.5248195"><ele>410.0</ele><time>2026-04-26T09:22:01.403Z</time></trkpt><trkpt lat="43.7742106" lon="12.5247556"><ele>408.25</ele><time>2026-04-26T09:22:02.402Z</time></trkpt><trkpt lat="43.7740839" lon="12.5246561"><ele>406.5</ele><time>2026-04-26T09:22:03.401Z</time></trkpt><trkpt lat="43.7739813" lon="12.5245261"><ele>404.75</ele><time>2026-04-26T09:22:04.404Z</time></trkpt><trkpt lat="43.7738922" lon="12.5243672"><ele>403.0</ele><time>2026-04-26T09:22:05.403Z</time></trkpt><trkpt lat="43.7738086" lon="12.5242203"><ele>402.0</ele><time>2026-04-26T09:22:06.404Z</time></trkpt><trkpt lat="43.7737207" lon="12.5241016"><ele>401.0</ele><time>2026-04-26T09:22:07.403Z</time></trkpt><trkpt lat="43.7736102" lon="12.5239926"><ele>400.0</ele><time>2026-04-26T09:22:08.412Z</time></trkpt><trkpt lat="43.7734764" lon="12.5238858"><ele>399.0</ele><time>2026-04-26T09:22:09.401Z</time></trkpt><trkpt lat="43.7733741" lon="12.5237488"><ele>399.0</ele><time>2026-04-26T09:22:10.4Z</time></trkpt><trkpt lat="43.7732794" lon="12.523633"><ele>399.0</ele><time>2026-04-26T09:22:11.401Z</time></trkpt><trkpt lat="43.7731374" lon="12.5235854"><ele>399.0</ele><time>2026-04-26T09:22:12.401Z</time></trkpt><trkpt lat="43.7728621" lon="12.5234832"><ele>399.0</ele><time>2026-04-26T09:22:14.402Z</time></trkpt><trkpt lat="43.7727365" lon="12.5233973"><ele>399.0</ele><time>2026-04-26T09:22:15.401Z</time></trkpt><trkpt lat="43.7726351" lon="12.5232743"><ele>399.0</ele><time>2026-04-26T09:22:16.402Z</time></trkpt><trkpt lat="43.7725467" lon="12.5231054"><ele>399.0</ele><time>2026-04-26T09:22:17.406Z</time></trkpt><trkpt lat="43.7724875" lon="12.522916"><ele>404.25</ele><time>2026-04-26T09:22:18.402Z</time></trkpt><trkpt lat="43.7724615" lon="12.5227261"><ele>409.5</ele><time>2026-04-26T09:22:19.402Z</time></trkpt><trkpt lat="43.7724661" lon="12.5225228"><ele>414.75</ele><time>2026-04-26T09:22:20.401Z</time></trkpt><trkpt lat="43.7725114" lon="12.5223201"><ele>420.0</ele><time>2026-04-26T09:22:21.402Z</time></trkpt><trkpt lat="43.7725899" lon="12.5221193"><ele>424.0</ele><time>2026-04-26T09:22:22.402Z</time></trkpt><trkpt lat="43.7726631" lon="12.5219285"><ele>428.0</ele><time>2026-04-26T09:22:23.401Z</time></trkpt><trkpt lat="43.7727131" lon="12.52172"><ele>432.0</ele><time>2026-04-26T09:22:24.401Z</time></trkpt><trkpt lat="43.7727786" lon="12.5215202"><ele>422.25</ele><time>2026-04-26T09:22:25.407Z</time></trkpt><trkpt lat="43.7728635" lon="12.5213588"><ele>412.5</ele><time>2026-04-26T09:22:26.401Z</time></trkpt><trkpt lat="43.7729527" lon="12.521231"><ele>402.75</ele><time>2026-04-26T09:22:27.401Z</time></trkpt><trkpt lat="43.7730268" lon="12.5211056"><ele>393.0</ele><time>2026-04-26T09:22:28.402Z</time></trkpt><trkpt lat="43.773028" lon="12.5209574"><ele>393.0</ele><time>2026-04-26T09:22:29.403Z</time></trkpt><trkpt lat="43.7729967" lon="12.5208149"><ele>393.0</ele><time>2026-04-26T09:22:30.405Z</time></trkpt><trkpt lat="43.7729185" lon="12.520658"><ele>393.0</ele><time>2026-04-26T09:22:31.406Z</time></trkpt><trkpt lat="43.7728561" lon="12.5204944"><ele>393.0</ele><time>2026-04-26T09:22:32.399Z</time></trkpt><trkpt lat="43.7728047" lon="12.5203296"><ele>400.0</ele><time>2026-04-26T09:22:33.404Z</time></trkpt><trkpt lat="43.7726439" lon="12.5200478"><ele>407.0</ele><time>2026-04-26T09:22:35.401Z</time></trkpt><trkpt lat="43.7725446" lon="12.519929"><ele>414.0</ele><time>2026-04-26T09:22:36.405Z</time></trkpt><trkpt lat="43.7723962" lon="12.5199015"><ele>414.0</ele><time>2026-04-26T09:22:37.401Z</time></trkpt><trkpt lat="43.7722526" lon="12.519875"><ele>414.0</ele><time>2026-04-26T09:22:38.402Z</time></trkpt><trkpt lat="43.7721148" lon="12.5198078"><ele>414.0</ele><time>2026-04-26T09:22:39.401Z</time></trkpt><trkpt lat="43.772" lon="12.5197028"><ele>414.0</ele><time>2026-04-26T09:22:40.399Z</time></trkpt><trkpt lat="43.7719159" lon="12.5195702"><ele>414.25</ele><time>2026-04-26T09:22:41.402Z</time></trkpt><trkpt lat="43.7718504" lon="12.5193974"><ele>414.5</ele><time>2026-04-26T09:22:42.401Z</time></trkpt><trkpt lat="43.7717897" lon="12.5191986"><ele>414.75</ele><time>2026-04-26T09:22:43.404Z</time></trkpt><trkpt lat="43.7717334" lon="12.5190097"><ele>415.0</ele><time>2026-04-26T09:22:44.407Z</time></trkpt><trkpt lat="43.7717029" lon="12.5188159"><ele>412.25</ele><time>2026-04-26T09:22:45.403Z</time></trkpt><trkpt lat="43.7716826" lon="12.5186369"><ele>409.5</ele><time>2026-04-26T09:22:46.403Z</time></trkpt><trkpt lat="43.7716636" lon="12.5184849"><ele>406.75</ele><time>2026-04-26T09:22:47.403Z</time></trkpt><trkpt lat="43.7715671" lon="12.5183804"><ele>404.0</ele><time>2026-04-26T09:22:48.401Z</time></trkpt><trkpt lat="43.7714501" lon="12.518304"><ele>404.0</ele><time>2026-04-26T09:22:49.401Z</time></trkpt><trkpt lat="43.7713164" lon="12.5182341"><ele>404.0</ele><time>2026-04-26T09:22:50.404Z</time></trkpt><trkpt lat="43.7712067" lon="12.5181241"><ele>404.0</ele><time>2026-04-26T09:22:51.408Z</time></trkpt><trkpt lat="43.7711205" lon="12.5180053"><ele>404.0</ele><time>2026-04-26T09:22:52.407Z</time></trkpt><trkpt lat="43.7710245" lon="12.5179137"><ele>404.3333333333333</ele><time>2026-04-26T09:22:53.401Z</time></trkpt><trkpt lat="43.7709057" lon="12.51787"><ele>404.66666666666663</ele><time>2026-04-26T09:22:54.404Z</time></trkpt><trkpt lat="43.7706735" lon="12.5178638"><ele>405.0</ele><time>2026-04-26T09:22:56.406Z</time></trkpt><trkpt lat="43.770584" lon="12.5177836"><ele>405.0</ele><time>2026-04-26T09:22:57.402Z</time></trkpt><trkpt lat="43.7705288" lon="12.5176549"><ele>405.0</ele><time>2026-04-26T09:22:58.403Z</time></trkpt><trkpt lat="43.7704947" lon="12.5174908"><ele>405.0</ele><time>2026-04-26T09:22:59.402Z</time></trkpt><trkpt lat="43.7704666" lon="12.5172914"><ele>405.0</ele><time>2026-04-26T09:23:00.408Z</time></trkpt><trkpt lat="43.7704436" lon="12.5170961"><ele>401.25</ele><time>2026-04-26T09:23:01.403Z</time></trkpt><trkpt lat="43.7704362" lon="12.5169196"><ele>397.5</ele><time>2026-04-26T09:23:02.399Z</time></trkpt><trkpt lat="43.7704199" lon="12.5167603"><ele>393.75</ele><time>2026-04-26T09:23:03.404Z</time></trkpt><trkpt lat="43.770406" lon="12.5166155"><ele>390.0</ele><time>2026-04-26T09:23:04.403Z</time></trkpt><trkpt lat="43.7703423" lon="12.5164521"><ele>390.0</ele><time>2026-04-26T09:23:05.401Z</time></trkpt><trkpt lat="43.7702071" lon="12.5162994"><ele>390.0</ele><time>2026-04-26T09:23:06.404Z</time></trkpt><trkpt lat="43.770119" lon="12.5161361"><ele>390.0</ele><time>2026-04-26T09:23:07.402Z</time></trkpt><trkpt lat="43.770025" lon="12.5159782"><ele>395.0</ele><time>2026-04-26T09:23:08.404Z</time></trkpt><trkpt lat="43.7699461" lon="12.515802"><ele>400.0</ele><time>2026-04-26T09:23:09.404Z</time></trkpt><trkpt lat="43.7698617" lon="12.5156181"><ele>405.0</ele><time>2026-04-26T09:23:10.405Z</time></trkpt><trkpt lat="43.7697752" lon="12.5154213"><ele>405.0</ele><time>2026-04-26T09:23:11.406Z</time></trkpt><trkpt lat="43.7696902" lon="12.5152186"><ele>405.0</ele><time>2026-04-26T09:23:12.401Z</time></trkpt><trkpt lat="43.7696167" lon="12.515037"><ele>405.0</ele><time>2026-04-26T09:23:13.401Z</time></trkpt><trkpt lat="43.7695387" lon="12.5148689"><ele>405.0</ele><time>2026-04-26T09:23:14.404Z</time></trkpt><trkpt lat="43.7694816" lon="12.5146985"><ele>405.0</ele><time>2026-04-26T09:23:15.402Z</time></trkpt><trkpt lat="43.7694335" lon="12.5143251"><ele>405.0</ele><time>2026-04-26T09:23:17.407Z</time></trkpt><trkpt lat="43.7694329" lon="12.5141474"><ele>405.5</ele><time>2026-04-26T09:23:18.403Z</time></trkpt><trkpt lat="43.7694198" lon="12.5139788"><ele>406.0</ele><time>2026-04-26T09:23:19.402Z</time></trkpt><trkpt lat="43.7693952" lon="12.5138184"><ele>406.5</ele><time>2026-04-26T09:23:20.401Z</time></trkpt><trkpt lat="43.7692507" lon="12.5137075"><ele>407.0</ele><time>2026-04-26T09:23:21.402Z</time></trkpt><trkpt lat="43.7691429" lon="12.5135858"><ele>410.25</ele><time>2026-04-26T09:23:22.405Z</time></trkpt><trkpt lat="43.7690608" lon="12.5134509"><ele>413.5</ele><time>2026-04-26T09:23:23.406Z</time></trkpt><trkpt lat="43.7690288" lon="12.5132959"><ele>416.75</ele><time>2026-04-26T09:23:24.403Z</time></trkpt><trkpt lat="43.7690351" lon="12.5131185"><ele>420.0</ele><time>2026-04-26T09:23:25.403Z</time></trkpt><trkpt lat="43.7690795" lon="12.5129493"><ele>421.5</ele><time>2026-04-26T09:23:26.407Z</time></trkpt><trkpt lat="43.7691413" lon="12.5127611"><ele>423.0</ele><time>2026-04-26T09:23:27.408Z</time></trkpt><trkpt lat="43.7691953" lon="12.5125928"><ele>424.5</ele><time>2026-04-26T09:23:28.41Z</time></trkpt><trkpt lat="43.7692233" lon="12.5124261"><ele>426.0</ele><time>2026-04-26T09:23:29.411Z</time></trkpt><trkpt lat="43.7691981" lon="12.5122856"><ele>426.0</ele><time>2026-04-26T09:23:30.403Z</time></trkpt><trkpt lat="43.7691591" lon="12.5121465"><ele>426.0</ele><time>2026-04-26T09:23:31.401Z</time></trkpt><trkpt lat="43.769016" lon="12.512044"><ele>426.0</ele><time>2026-04-26T09:23:32.401Z</time></trkpt><trkpt lat="43.7688515" lon="12.5119513"><ele>426.0</ele><time>2026-04-26T09:23:33.404Z</time></trkpt><trkpt lat="43.7687037" lon="12.5118661"><ele>430.66666666666663</ele><time>2026-04-26T09:23:34.412Z</time></trkpt><trkpt lat="43.7685593" lon="12.5118227"><ele>435.3333333333333</ele><time>2026-04-26T09:23:35.41Z</time></trkpt><trkpt lat="43.7684116" lon="12.51181"><ele>440.0</ele><time>2026-04-26T09:23:36.403Z</time></trkpt><trkpt lat="43.7681317" lon="12.5118139"><ele>441.0</ele><time>2026-04-26T09:23:38.404Z</time></trkpt><trkpt lat="43.7680209" lon="12.5117909"><ele>442.0</ele><time>2026-04-26T09:23:39.403Z</time></trkpt><trkpt lat="43.7679344" lon="12.5117358"><ele>443.0</ele><time>2026-04-26T09:23:40.403Z</time></trkpt><trkpt lat="43.7678786" lon="12.511644"><ele>444.0</ele><time>2026-04-26T09:23:41.409Z</time></trkpt><trkpt lat="43.767878" lon="12.5115081"><ele>445.0</ele><time>2026-04-26T09:23:42.413Z</time></trkpt><trkpt lat="43.7678943" lon="12.5113469"><ele>444.0</ele><time>2026-04-26T09:23:43.408Z</time></trkpt><trkpt lat="43.7678944" lon="12.5111849"><ele>443.0</ele><time>2026-04-26T09:23:44.411Z</time></trkpt><trkpt lat="43.7678713" lon="12.5110525"><ele>442.0</ele><time>2026-04-26T09:23:45.403Z</time></trkpt><trkpt lat="43.7678041" lon="12.5109303"><ele>441.0</ele><time>2026-04-26T09:23:46.408Z</time></trkpt><trkpt lat="43.7677102" lon="12.5108369"><ele>440.0</ele><time>2026-04-26T09:23:47.402Z</time></trkpt><trkpt lat="43.7675892" lon="12.5107605"><ele>440.0</ele><time>2026-04-26T09:23:48.4Z</time></trkpt><trkpt lat="43.7674707" lon="12.5106935"><ele>440.0</ele><time>2026-04-26T09:23:49.406Z</time></trkpt><trkpt lat="43.7673849" lon="12.5106001"><ele>440.0</ele><time>2026-04-26T09:23:50.405Z</time></trkpt><trkpt lat="43.7673348" lon="12.5104708"><ele>440.0</ele><time>2026-04-26T09:23:51.409Z</time></trkpt><trkpt lat="43.7673274" lon="12.5103056"><ele>442.75</ele><time>2026-04-26T09:23:52.403Z</time></trkpt><trkpt lat="43.7673428" lon="12.5101141"><ele>445.5</ele><time>2026-04-26T09:23:53.409Z</time></trkpt><trkpt lat="43.7673671" lon="12.5099228"><ele>448.25</ele><time>2026-04-26T09:23:54.402Z</time></trkpt><trkpt lat="43.7673751" lon="12.5097396"><ele>451.0</ele><time>2026-04-26T09:23:55.405Z</time></trkpt><trkpt lat="43.7673467" lon="12.5095477"><ele>453.33333333333337</ele><time>2026-04-26T09:23:56.406Z</time></trkpt><trkpt lat="43.7672949" lon="12.509369"><ele>455.66666666666663</ele><time>2026-04-26T09:23:57.408Z</time></trkpt><trkpt lat="43.7672659" lon="12.5089858"><ele>458.0</ele><time>2026-04-26T09:23:59.403Z</time></trkpt><trkpt lat="43.7672819" lon="12.5087643"><ele>459.0</ele><time>2026-04-26T09:24:00.398Z</time></trkpt><trkpt lat="43.7673026" lon="12.508521"><ele>460.0</ele><time>2026-04-26T09:24:01.399Z</time></trkpt><trkpt lat="43.7673156" lon="12.5082736"><ele>461.0</ele><time>2026-04-26T09:24:02.4Z</time></trkpt><trkpt lat="43.7673366" lon="12.5080303"><ele>458.66666666666663</ele><time>2026-04-26T09:24:03.404Z</time></trkpt><trkpt lat="43.7673742" lon="12.5078116"><ele>456.33333333333337</ele><time>2026-04-26T09:24:04.4Z</time></trkpt><trkpt lat="43.7674168" lon="12.5075932"><ele>454.0</ele><time>2026-04-26T09:24:05.403Z</time></trkpt><trkpt lat="43.7674383" lon="12.5073631"><ele>454.0</ele><time>2026-04-26T09:24:06.402Z</time></trkpt><trkpt lat="43.7674515" lon="12.5071267"><ele>454.0</ele><time>2026-04-26T09:24:07.401Z</time></trkpt><trkpt lat="43.7674433" lon="12.5068902"><ele>454.0</ele><time>2026-04-26T09:24:08.404Z</time></trkpt><trkpt lat="43.7674343" lon="12.5066704"><ele>453.6666666666667</ele><time>2026-04-26T09:24:09.406Z</time></trkpt><trkpt lat="43.7674422" lon="12.5064432"><ele>453.33333333333337</ele><time>2026-04-26T09:24:10.41Z</time></trkpt><trkpt lat="43.7674685" lon="12.5062271"><ele>453.0</ele><time>2026-04-26T09:24:11.41Z</time></trkpt><trkpt lat="43.7675075" lon="12.5060041"><ele>452.5</ele><time>2026-04-26T09:24:12.41Z</time></trkpt><trkpt lat="43.7675612" lon="12.5058033"><ele>452.0</ele><time>2026-04-26T09:24:13.404Z</time></trkpt><trkpt lat="43.7676158" lon="12.5056214"><ele>451.5</ele><time>2026-04-26T09:24:14.4Z</time></trkpt><trkpt lat="43.7676773" lon="12.5054555"><ele>451.0</ele><time>2026-04-26T09:24:15.403Z</time></trkpt><trkpt lat="43.7677509" lon="12.5052799"><ele>451.0</ele><time>2026-04-26T09:24:16.4Z</time></trkpt><trkpt lat="43.7678321" lon="12.5050973"><ele>451.0</ele><time>2026-04-26T09:24:17.403Z</time></trkpt><trkpt lat="43.7679164" lon="12.5049234"><ele>451.0</ele><time>2026-04-26T09:24:18.402Z</time></trkpt><trkpt lat="43.7680939" lon="12.5046326"><ele>454.75</ele><time>2026-04-26T09:24:20.402Z</time></trkpt><trkpt lat="43.7682153" lon="12.5045382"><ele>458.5</ele><time>2026-04-26T09:24:21.411Z</time></trkpt><trkpt lat="43.7683524" lon="12.5044859"><ele>462.25</ele><time>2026-04-26T09:24:22.402Z</time></trkpt><trkpt lat="43.7684901" lon="12.5044734"><ele>466.0</ele><time>2026-04-26T09:24:23.409Z</time></trkpt><trkpt lat="43.7686302" lon="12.5045015"><ele>462.6666666666667</ele><time>2026-04-26T09:24:24.404Z</time></trkpt><trkpt lat="43.7687829" lon="12.5045574"><ele>459.33333333333337</ele><time>2026-04-26T09:24:25.4Z</time></trkpt><trkpt lat="43.7689337" lon="12.504635"><ele>456.0</ele><time>2026-04-26T09:24:26.402Z</time></trkpt><trkpt lat="43.7690916" lon="12.5047123"><ele>456.0</ele><time>2026-04-26T09:24:27.404Z</time></trkpt><trkpt lat="43.7692494" lon="12.5047939"><ele>456.0</ele><time>2026-04-26T09:24:28.411Z</time></trkpt><trkpt lat="43.7694222" lon="12.5048621"><ele>456.0</ele><time>2026-04-26T09:24:29.406Z</time></trkpt><trkpt lat="43.7695814" lon="12.5049259"><ele>454.25</ele><time>2026-04-26T09:24:30.402Z</time></trkpt><trkpt lat="43.7697227" lon="12.5050026"><ele>452.5</ele><time>2026-04-26T09:24:31.4Z</time></trkpt><trkpt lat="43.7698485" lon="12.505108"><ele>450.75</ele><time>2026-04-26T09:24:32.401Z</time></trkpt><trkpt lat="43.7699515" lon="12.5052515"><ele>449.0</ele><time>2026-04-26T09:24:33.403Z</time></trkpt><trkpt lat="43.7700242" lon="12.505414"><ele>449.0</ele><time>2026-04-26T09:24:34.405Z</time></trkpt><trkpt lat="43.7701005" lon="12.5055531"><ele>449.0</ele><time>2026-04-26T09:24:35.404Z</time></trkpt><trkpt lat="43.7701974" lon="12.5056705"><ele>449.0</ele><time>2026-04-26T09:24:36.405Z</time></trkpt><trkpt lat="43.7703012" lon="12.5057856"><ele>449.0</ele><time>2026-04-26T09:24:37.405Z</time></trkpt><trkpt lat="43.7704394" lon="12.5058361"><ele>455.0</ele><time>2026-04-26T09:24:38.409Z</time></trkpt><trkpt lat="43.7706317" lon="12.5058217"><ele>461.0</ele><time>2026-04-26T09:24:39.401Z</time></trkpt><trkpt lat="43.771" lon="12.5057939"><ele>462.0</ele><time>2026-04-26T09:24:41.408Z</time></trkpt><trkpt lat="43.7711784" lon="12.5057825"><ele>463.0</ele><time>2026-04-26T09:24:42.406Z</time></trkpt><trkpt lat="43.7713494" lon="12.5058213"><ele>464.0</ele><time>2026-04-26T09:24:43.407Z</time></trkpt><trkpt lat="43.7715256" lon="12.5058749"><ele>464.0</ele><time>2026-04-26T09:24:44.403Z</time></trkpt><trkpt lat="43.7716966" lon="12.505942"><ele>464.0</ele><time>2026-04-26T09:24:45.404Z</time></trkpt><trkpt lat="43.7718693" lon="12.5060237"><ele>464.0</ele><time>2026-04-26T09:24:46.407Z</time></trkpt><trkpt lat="43.7720464" lon="12.5061084"><ele>459.3333333333333</ele><time>2026-04-26T09:24:47.403Z</time></trkpt><trkpt lat="43.7722211" lon="12.5061844"><ele>454.66666666666663</ele><time>2026-04-26T09:24:48.403Z</time></trkpt><trkpt lat="43.7723945" lon="12.5062452"><ele>450.0</ele><time>2026-04-26T09:24:49.405Z</time></trkpt><trkpt lat="43.7725602" lon="12.5062986"><ele>450.33333333333337</ele><time>2026-04-26T09:24:50.401Z</time></trkpt><trkpt lat="43.7727197" lon="12.5063275"><ele>450.6666666666667</ele><time>2026-04-26T09:24:51.403Z</time></trkpt><trkpt lat="43.7728776" lon="12.5063252"><ele>451.0</ele><time>2026-04-26T09:24:52.406Z</time></trkpt><trkpt lat="43.773037" lon="12.506286"><ele>459.6666666666667</ele><time>2026-04-26T09:24:53.402Z</time></trkpt><trkpt lat="43.7732067" lon="12.5062269"><ele>468.33333333333337</ele><time>2026-04-26T09:24:54.409Z</time></trkpt><trkpt lat="43.7733812" lon="12.506164"><ele>477.0</ele><time>2026-04-26T09:24:55.4Z</time></trkpt><trkpt lat="43.7735461" lon="12.5061084"><ele>477.0</ele><time>2026-04-26T09:24:56.402Z</time></trkpt><trkpt lat="43.773696" lon="12.5060716"><ele>477.0</ele><time>2026-04-26T09:24:57.402Z</time></trkpt><trkpt lat="43.7738451" lon="12.5060542"><ele>477.0</ele><time>2026-04-26T09:24:58.402Z</time></trkpt><trkpt lat="43.7739965" lon="12.5060612"><ele>477.0</ele><time>2026-04-26T09:24:59.403Z</time></trkpt><trkpt lat="43.7741366" lon="12.5060945"><ele>477.0</ele><time>2026-04-26T09:25:00.4Z</time></trkpt><trkpt lat="43.7743641" lon="12.506263"><ele>477.0</ele><time>2026-04-26T09:25:02.401Z</time></trkpt><trkpt lat="43.7744568" lon="12.5064113"><ele>476.25</ele><time>2026-04-26T09:25:03.405Z</time></trkpt><trkpt lat="43.7745331" lon="12.5065961"><ele>475.5</ele><time>2026-04-26T09:25:04.405Z</time></trkpt><trkpt lat="43.7745997" lon="12.5067766"><ele>474.75</ele><time>2026-04-26T09:25:05.407Z</time></trkpt><trkpt lat="43.7746689" lon="12.5069499"><ele>474.0</ele><time>2026-04-26T09:25:06.402Z</time></trkpt><trkpt lat="43.7747395" lon="12.5071221"><ele>474.0</ele><time>2026-04-26T09:25:07.404Z</time></trkpt><trkpt lat="43.7748117" lon="12.507285"><ele>474.0</ele><time>2026-04-26T09:25:08.402Z</time></trkpt><trkpt lat="43.7748986" lon="12.5074291"><ele>474.0</ele><time>2026-04-26T09:25:09.401Z</time></trkpt><trkpt lat="43.7750028" lon="12.5075521"><ele>474.0</ele><time>2026-04-26T09:25:10.4Z</time></trkpt><trkpt lat="43.7751173" lon="12.5076568"><ele>475.0</ele><time>2026-04-26T09:25:11.403Z</time></trkpt><trkpt lat="43.7752385" lon="12.5077448"><ele>476.0</ele><time>2026-04-26T09:25:12.404Z</time></trkpt><trkpt lat="43.7753755" lon="12.5078126"><ele>477.0</ele><time>2026-04-26T09:25:13.402Z</time></trkpt><trkpt lat="43.7755131" lon="12.5078631"><ele>478.0</ele><time>2026-04-26T09:25:14.407Z</time></trkpt><trkpt lat="43.7756451" lon="12.5078907"><ele>478.0</ele><time>2026-04-26T09:25:15.401Z</time></trkpt><trkpt lat="43.775765" lon="12.507903"><ele>478.0</ele><time>2026-04-26T09:25:16.4Z</time></trkpt><trkpt lat="43.7758885" lon="12.5078804"><ele>478.0</ele><time>2026-04-26T09:25:17.4Z</time></trkpt><trkpt lat="43.7760183" lon="12.5078185"><ele>478.0</ele><time>2026-04-26T09:25:18.4Z</time></trkpt><trkpt lat="43.7761544" lon="12.5077695"><ele>473.6666666666667</ele><time>2026-04-26T09:25:19.401Z</time></trkpt><trkpt lat="43.7763081" lon="12.5077351"><ele>469.33333333333337</ele><time>2026-04-26T09:25:20.402Z</time></trkpt><trkpt lat="43.7764578" lon="12.507726"><ele>465.0</ele><time>2026-04-26T09:25:21.402Z</time></trkpt><trkpt lat="43.7767114" lon="12.5077691"><ele>465.0</ele><time>2026-04-26T09:25:23.402Z</time></trkpt><trkpt lat="43.7768201" lon="12.5078509"><ele>465.0</ele><time>2026-04-26T09:25:24.403Z</time></trkpt><trkpt lat="43.7769038" lon="12.5079808"><ele>465.0</ele><time>2026-04-26T09:25:25.408Z</time></trkpt><trkpt lat="43.7769813" lon="12.5081335"><ele>465.0</ele><time>2026-04-26T09:25:26.41Z</time></trkpt><trkpt lat="43.7770585" lon="12.5082755"><ele>458.4</ele><time>2026-04-26T09:25:27.401Z</time></trkpt><trkpt lat="43.7771373" lon="12.5083948"><ele>451.8</ele><time>2026-04-26T09:25:28.403Z</time></trkpt><trkpt lat="43.7772331" lon="12.5084391"><ele>445.20000000000005</ele><time>2026-04-26T09:25:29.403Z</time></trkpt><trkpt lat="43.7773419" lon="12.5084206"><ele>438.6</ele><time>2026-04-26T09:25:30.401Z</time></trkpt><trkpt lat="43.777451" lon="12.5083951"><ele>432.0</ele><time>2026-04-26T09:25:31.398Z</time></trkpt><trkpt lat="43.77749" lon="12.5082213"><ele>432.0</ele><time>2026-04-26T09:25:32.408Z</time></trkpt><trkpt lat="43.7775148" lon="12.5080788"><ele>432.0</ele><time>2026-04-26T09:25:33.402Z</time></trkpt><trkpt lat="43.7775018" lon="12.5079006"><ele>432.0</ele><time>2026-04-26T09:25:34.407Z</time></trkpt><trkpt lat="43.7774616" lon="12.5077031"><ele>432.0</ele><time>2026-04-26T09:25:35.403Z</time></trkpt><trkpt lat="43.7774272" lon="12.5075142"><ele>432.25</ele><time>2026-04-26T09:25:36.401Z</time></trkpt><trkpt lat="43.7774074" lon="12.5073279"><ele>432.5</ele><time>2026-04-26T09:25:37.401Z</time></trkpt><trkpt lat="43.7774072" lon="12.5071429"><ele>432.75</ele><time>2026-04-26T09:25:38.401Z</time></trkpt><trkpt lat="43.7774225" lon="12.5069436"><ele>433.0</ele><time>2026-04-26T09:25:39.403Z</time></trkpt><trkpt lat="43.7774583" lon="12.5067566"><ele>433.33333333333337</ele><time>2026-04-26T09:25:40.402Z</time></trkpt><trkpt lat="43.7774959" lon="12.5065852"><ele>433.66666666666663</ele><time>2026-04-26T09:25:41.402Z</time></trkpt><trkpt lat="43.7775538" lon="12.5064491"><ele>434.0</ele><time>2026-04-26T09:25:42.406Z</time></trkpt><trkpt lat="43.7777542" lon="12.5062951"><ele>428.25</ele><time>2026-04-26T09:25:44.401Z</time></trkpt><trkpt lat="43.7778865" lon="12.5062791"><ele>422.5</ele><time>2026-04-26T09:25:45.4Z</time></trkpt><trkpt lat="43.7780195" lon="12.5062869"><ele>416.75</ele><time>2026-04-26T09:25:46.399Z</time></trkpt><trkpt lat="43.7781471" lon="12.5063141"><ele>411.0</ele><time>2026-04-26T09:25:47.399Z</time></trkpt><trkpt lat="43.7782542" lon="12.5063218"><ele>411.0</ele><time>2026-04-26T09:25:48.402Z</time></trkpt><trkpt lat="43.778346" lon="12.5063004"><ele>411.0</ele><time>2026-04-26T09:25:49.402Z</time></trkpt><trkpt lat="43.7784424" lon="12.5062729"><ele>411.0</ele><time>2026-04-26T09:25:50.405Z</time></trkpt><trkpt lat="43.7785452" lon="12.506208"><ele>411.0</ele><time>2026-04-26T09:25:51.402Z</time></trkpt><trkpt lat="43.7784764" lon="12.5059328"><ele>411.0</ele><time>2026-04-26T09:25:52.408Z</time></trkpt><trkpt lat="43.7784908" lon="12.5057582"><ele>411.0</ele><time>2026-04-26T09:25:53.407Z</time></trkpt><trkpt lat="43.7785326" lon="12.5056012"><ele>411.0</ele><time>2026-04-26T09:25:54.401Z</time></trkpt><trkpt lat="43.7785991" lon="12.505458"><ele>411.0</ele><time>2026-04-26T09:25:55.402Z</time></trkpt><trkpt lat="43.7786946" lon="12.5053453"><ele>411.0</ele><time>2026-04-26T09:25:56.401Z</time></trkpt><trkpt lat="43.7788094" lon="12.5052402"><ele>411.0</ele><time>2026-04-26T09:25:57.403Z</time></trkpt><trkpt lat="43.7789461" lon="12.5051363"><ele>411.0</ele><time>2026-04-26T09:25:58.403Z</time></trkpt><trkpt lat="43.7790965" lon="12.5050281"><ele>411.0</ele><time>2026-04-26T09:25:59.402Z</time></trkpt><trkpt lat="43.7792442" lon="12.5049162"><ele>411.0</ele><time>2026-04-26T09:26:00.405Z</time></trkpt><trkpt lat="43.7793936" lon="12.5047929"><ele>411.0</ele><time>2026-04-26T09:26:01.402Z</time></trkpt><trkpt lat="43.77954" lon="12.5046748"><ele>407.5</ele><time>2026-04-26T09:26:02.4Z</time></trkpt><trkpt lat="43.7796787" lon="12.5045553"><ele>404.0</ele><time>2026-04-26T09:26:03.403Z</time></trkpt><trkpt lat="43.7799379" lon="12.5043132"><ele>404.0</ele><time>2026-04-26T09:26:05.4Z</time></trkpt><trkpt lat="43.7800453" lon="12.5041645"><ele>404.0</ele><time>2026-04-26T09:26:06.405Z</time></trkpt><trkpt lat="43.7801386" lon="12.5039867"><ele>404.0</ele><time>2026-04-26T09:26:07.405Z</time></trkpt><trkpt lat="43.7802326" lon="12.5037922"><ele>404.3333333333333</ele><time>2026-04-26T09:26:08.408Z</time></trkpt><trkpt lat="43.7803277" lon="12.5035952"><ele>404.66666666666663</ele><time>2026-04-26T09:26:09.403Z</time></trkpt><trkpt lat="43.7804178" lon="12.503407"><ele>405.0</ele><time>2026-04-26T09:26:10.402Z</time></trkpt><trkpt lat="43.7805074" lon="12.5032245"><ele>405.0</ele><time>2026-04-26T09:26:11.401Z</time></trkpt><trkpt lat="43.7805963" lon="12.5030489"><ele>405.0</ele><time>2026-04-26T09:26:12.404Z</time></trkpt><trkpt lat="43.7806849" lon="12.5028811"><ele>405.0</ele><time>2026-04-26T09:26:13.405Z</time></trkpt><trkpt lat="43.7807636" lon="12.5027298"><ele>405.0</ele><time>2026-04-26T09:26:14.402Z</time></trkpt><trkpt lat="43.7808159" lon="12.5025796"><ele>403.25</ele><time>2026-04-26T09:26:15.408Z</time></trkpt><trkpt lat="43.7808316" lon="12.5024331"><ele>401.5</ele><time>2026-04-26T09:26:16.403Z</time></trkpt><trkpt lat="43.7808014" lon="12.5022869"><ele>399.75</ele><time>2026-04-26T09:26:17.402Z</time></trkpt><trkpt lat="43.7807194" lon="12.502149"><ele>398.0</ele><time>2026-04-26T09:26:18.406Z</time></trkpt><trkpt lat="43.7806143" lon="12.5020157"><ele>397.75</ele><time>2026-04-26T09:26:19.405Z</time></trkpt><trkpt lat="43.7805027" lon="12.5018787"><ele>397.5</ele><time>2026-04-26T09:26:20.401Z</time></trkpt><trkpt lat="43.7803945" lon="12.5017415"><ele>397.25</ele><time>2026-04-26T09:26:21.404Z</time></trkpt><trkpt lat="43.7802929" lon="12.501599"><ele>397.0</ele><time>2026-04-26T09:26:22.401Z</time></trkpt><trkpt lat="43.7802075" lon="12.5014722"><ele>394.25</ele><time>2026-04-26T09:26:23.403Z</time></trkpt><trkpt lat="43.7801524" lon="12.5013449"><ele>391.5</ele><time>2026-04-26T09:26:24.401Z</time></trkpt><trkpt lat="43.7801743" lon="12.5010745"><ele>388.75</ele><time>2026-04-26T09:26:26.406Z</time></trkpt><trkpt lat="43.7802588" lon="12.5009465"><ele>386.0</ele><time>2026-04-26T09:26:27.404Z</time></trkpt><trkpt lat="43.7803719" lon="12.5008282"><ele>386.0</ele><time>2026-04-26T09:26:28.407Z</time></trkpt><trkpt lat="43.7804909" lon="12.5007057"><ele>386.0</ele><time>2026-04-26T09:26:29.403Z</time></trkpt><trkpt lat="43.7806165" lon="12.5006022"><ele>386.0</ele><time>2026-04-26T09:26:30.4Z</time></trkpt><trkpt lat="43.7807343" lon="12.5004957"><ele>386.0</ele><time>2026-04-26T09:26:31.401Z</time></trkpt><trkpt lat="43.7808648" lon="12.5004164"><ele>381.5</ele><time>2026-04-26T09:26:32.403Z</time></trkpt><trkpt lat="43.7810067" lon="12.5003574"><ele>377.0</ele><time>2026-04-26T09:26:33.402Z</time></trkpt><trkpt lat="43.7811576" lon="12.5003213"><ele>372.5</ele><time>2026-04-26T09:26:34.402Z</time></trkpt><trkpt lat="43.7812989" lon="12.5002897"><ele>368.0</ele><time>2026-04-26T09:26:35.401Z</time></trkpt><trkpt lat="43.7814373" lon="12.5002704"><ele>368.0</ele><time>2026-04-26T09:26:36.405Z</time></trkpt><trkpt lat="43.7815723" lon="12.5002603"><ele>368.0</ele><time>2026-04-26T09:26:37.405Z</time></trkpt><trkpt lat="43.7816954" lon="12.5002693"><ele>368.0</ele><time>2026-04-26T09:26:38.406Z</time></trkpt><trkpt lat="43.7818166" lon="12.5003426"><ele>368.0</ele><time>2026-04-26T09:26:39.402Z</time></trkpt><trkpt lat="43.7819164" lon="12.500469"><ele>366.0</ele><time>2026-04-26T09:26:40.403Z</time></trkpt><trkpt lat="43.7819945" lon="12.5006246"><ele>364.0</ele><time>2026-04-26T09:26:41.416Z</time></trkpt><trkpt lat="43.7820792" lon="12.5007718"><ele>362.0</ele><time>2026-04-26T09:26:42.402Z</time></trkpt><trkpt lat="43.7821776" lon="12.5009094"><ele>360.0</ele><time>2026-04-26T09:26:43.409Z</time></trkpt><trkpt lat="43.7822929" lon="12.5010158"><ele>360.0</ele><time>2026-04-26T09:26:44.401Z</time></trkpt><trkpt lat="43.7824244" lon="12.5011012"><ele>360.0</ele><time>2026-04-26T09:26:45.403Z</time></trkpt><trkpt lat="43.7826827" lon="12.5011866"><ele>360.0</ele><time>2026-04-26T09:26:47.405Z</time></trkpt><trkpt lat="43.782802" lon="12.5012241"><ele>358.5</ele><time>2026-04-26T09:26:48.406Z</time></trkpt><trkpt lat="43.782903" lon="12.5013029"><ele>357.0</ele><time>2026-04-26T09:26:49.4Z</time></trkpt><trkpt lat="43.7829825" lon="12.5014322"><ele>355.5</ele><time>2026-04-26T09:26:50.404Z</time></trkpt><trkpt lat="43.783052" lon="12.5016112"><ele>354.0</ele><time>2026-04-26T09:26:51.398Z</time></trkpt><trkpt lat="43.783107" lon="12.5017989"><ele>354.0</ele><time>2026-04-26T09:26:52.401Z</time></trkpt><trkpt lat="43.783159" lon="12.5019666"><ele>354.0</ele><time>2026-04-26T09:26:53.403Z</time></trkpt><trkpt lat="43.7832072" lon="12.5021109"><ele>354.0</ele><time>2026-04-26T09:26:54.402Z</time></trkpt><trkpt lat="43.7832743" lon="12.5022176"><ele>354.0</ele><time>2026-04-26T09:26:55.4Z</time></trkpt><trkpt lat="43.7833382" lon="12.5022886"><ele>354.0</ele><time>2026-04-26T09:26:56.403Z</time></trkpt><trkpt lat="43.7834073" lon="12.5022863"><ele>354.0</ele><time>2026-04-26T09:26:57.404Z</time></trkpt><trkpt lat="43.7834747" lon="12.5021987"><ele>354.0</ele><time>2026-04-26T09:26:58.402Z</time></trkpt><trkpt lat="43.7834917" lon="12.5020807"><ele>354.0</ele><time>2026-04-26T09:26:59.402Z</time></trkpt><trkpt lat="43.7834717" lon="12.5019527"><ele>354.0</ele><time>2026-04-26T09:27:00.402Z</time></trkpt><trkpt lat="43.7834121" lon="12.5018066"><ele>354.0</ele><time>2026-04-26T09:27:01.406Z</time></trkpt><trkpt lat="43.7833346" lon="12.5016418"><ele>354.0</ele><time>2026-04-26T09:27:02.4Z</time></trkpt><trkpt lat="43.7832503" lon="12.5014618"><ele>354.0</ele><time>2026-04-26T09:27:03.402Z</time></trkpt><trkpt lat="43.7831682" lon="12.5012674"><ele>354.0</ele><time>2026-04-26T09:27:04.4Z</time></trkpt><trkpt lat="43.783086" lon="12.5010814"><ele>347.5</ele><time>2026-04-26T09:27:05.401Z</time></trkpt><trkpt lat="43.7830035" lon="12.5008904"><ele>341.0</ele><time>2026-04-26T09:27:06.401Z</time></trkpt><trkpt lat="43.7828433" lon="12.5005396"><ele>343.0</ele><time>2026-04-26T09:27:08.405Z</time></trkpt><trkpt lat="43.7827672" lon="12.5003683"><ele>345.0</ele><time>2026-04-26T09:27:09.403Z</time></trkpt><trkpt lat="43.7826968" lon="12.5002004"><ele>347.0</ele><time>2026-04-26T09:27:10.399Z</time></trkpt><trkpt lat="43.7826323" lon="12.5000438"><ele>349.0</ele><time>2026-04-26T09:27:11.406Z</time></trkpt><trkpt lat="43.7825791" lon="12.4998947"><ele>349.0</ele><time>2026-04-26T09:27:12.399Z</time></trkpt><trkpt lat="43.782555" lon="12.4997335"><ele>349.0</ele><time>2026-04-26T09:27:13.4Z</time></trkpt><trkpt lat="43.7825625" lon="12.4995818"><ele>349.0</ele><time>2026-04-26T09:27:14.4Z</time></trkpt><trkpt lat="43.7825851" lon="12.4994369"><ele>349.0</ele><time>2026-04-26T09:27:15.402Z</time></trkpt><trkpt lat="43.782607" lon="12.4992944"><ele>349.0</ele><time>2026-04-26T09:27:16.4Z</time></trkpt><trkpt lat="43.7826236" lon="12.4991524"><ele>347.6</ele><time>2026-04-26T09:27:17.403Z</time></trkpt><trkpt lat="43.7826222" lon="12.4990174"><ele>346.2</ele><time>2026-04-26T09:27:18.406Z</time></trkpt><trkpt lat="43.7826024" lon="12.4988855"><ele>344.8</ele><time>2026-04-26T09:27:19.402Z</time></trkpt><trkpt lat="43.7825594" lon="12.4987751"><ele>343.40000000000003</ele><time>2026-04-26T09:27:20.407Z</time></trkpt><trkpt lat="43.7825023" lon="12.4986774"><ele>342.0</ele><time>2026-04-26T09:27:21.407Z</time></trkpt><trkpt lat="43.7824368" lon="12.4986006"><ele>341.0</ele><time>2026-04-26T09:27:22.4Z</time></trkpt><trkpt lat="43.7823637" lon="12.4985335"><ele>340.0</ele><time>2026-04-26T09:27:23.4Z</time></trkpt><trkpt lat="43.7822858" lon="12.4984764"><ele>339.0</ele><time>2026-04-26T09:27:24.399Z</time></trkpt><trkpt lat="43.7822038" lon="12.4984291"><ele>338.0</ele><time>2026-04-26T09:27:25.401Z</time></trkpt><trkpt lat="43.7821142" lon="12.4983963"><ele>337.0</ele><time>2026-04-26T09:27:26.404Z</time></trkpt><trkpt lat="43.782028" lon="12.4983707"><ele>336.0</ele><time>2026-04-26T09:27:27.403Z</time></trkpt><trkpt lat="43.7818371" lon="12.4983305"><ele>336.0</ele><time>2026-04-26T09:27:29.408Z</time></trkpt><trkpt lat="43.7817455" lon="12.4982879"><ele>336.0</ele><time>2026-04-26T09:27:30.402Z</time></trkpt><trkpt lat="43.7816573" lon="12.4982235"><ele>336.0</ele><time>2026-04-26T09:27:31.402Z</time></trkpt><trkpt lat="43.7815659" lon="12.49813"><ele>336.0</ele><time>2026-04-26T09:27:32.4Z</time></trkpt><trkpt lat="43.7814626" lon="12.4980169"><ele>336.0</ele><time>2026-04-26T09:27:33.398Z</time></trkpt><trkpt lat="43.7813608" lon="12.4979009"><ele>334.8</ele><time>2026-04-26T09:27:34.404Z</time></trkpt><trkpt lat="43.7812621" lon="12.4977848"><ele>333.6</ele><time>2026-04-26T09:27:35.403Z</time></trkpt><trkpt lat="43.7811715" lon="12.4976816"><ele>332.4</ele><time>2026-04-26T09:27:36.404Z</time></trkpt><trkpt lat="43.7810873" lon="12.4976103"><ele>331.2</ele><time>2026-04-26T09:27:37.4Z</time></trkpt><trkpt lat="43.7810034" lon="12.4975384"><ele>330.0</ele><time>2026-04-26T09:27:38.403Z</time></trkpt><trkpt lat="43.7809303" lon="12.4975041"><ele>330.0</ele><time>2026-04-26T09:27:39.401Z</time></trkpt><trkpt lat="43.7808616" lon="12.4974746"><ele>330.0</ele><time>2026-04-26T09:27:40.408Z</time></trkpt><trkpt lat="43.7807602" lon="12.4973755"><ele>330.0</ele><time>2026-04-26T09:27:42.402Z</time></trkpt><trkpt lat="43.7807225" lon="12.4971998"><ele>330.0</ele><time>2026-04-26T09:27:44.403Z</time></trkpt><trkpt lat="43.7807204" lon="12.4970832"><ele>330.0</ele><time>2026-04-26T09:27:45.405Z</time></trkpt><trkpt lat="43.7807178" lon="12.496957"><ele>328.6</ele><time>2026-04-26T09:27:46.403Z</time></trkpt><trkpt lat="43.7807179" lon="12.4968349"><ele>327.2</ele><time>2026-04-26T09:27:47.404Z</time></trkpt><trkpt lat="43.7807259" lon="12.4966126"><ele>325.79999999999995</ele><time>2026-04-26T09:27:49.407Z</time></trkpt><trkpt lat="43.7807278" lon="12.4965102"><ele>324.4</ele><time>2026-04-26T09:27:50.404Z</time></trkpt><trkpt lat="43.7807246" lon="12.4964147"><ele>323.0</ele><time>2026-04-26T09:27:51.4Z</time></trkpt><trkpt lat="43.7807273" lon="12.4963232"><ele>323.79999999999995</ele><time>2026-04-26T09:27:52.403Z</time></trkpt><trkpt lat="43.7807382" lon="12.4961726"><ele>324.6</ele><time>2026-04-26T09:27:54.405Z</time></trkpt><trkpt lat="43.7807735" lon="12.4960989"><ele>325.4</ele><time>2026-04-26T09:27:56.403Z</time></trkpt><trkpt lat="43.7808206" lon="12.4959928"><ele>326.20000000000005</ele><time>2026-04-26T09:31:28.402Z</time></trkpt><trkpt lat="43.7809842" lon="12.4959077"><ele>327.0</ele><time>2026-04-26T09:31:31.403Z</time></trkpt><trkpt lat="43.7810576" lon="12.4958547"><ele>325.0</ele><time>2026-04-26T09:31:32.4Z</time></trkpt><trkpt lat="43.7811408" lon="12.4958009"><ele>323.0</ele><time>2026-04-26T09:31:33.406Z</time></trkpt><trkpt lat="43.7812418" lon="12.4957325"><ele>321.0</ele><time>2026-04-26T09:31:34.404Z</time></trkpt><trkpt lat="43.7813439" lon="12.4956718"><ele>319.0</ele><time>2026-04-26T09:31:35.405Z</time></trkpt><trkpt lat="43.7814515" lon="12.4956247"><ele>317.0</ele><time>2026-04-26T09:31:36.401Z</time></trkpt><trkpt lat="43.7815575" lon="12.495591"><ele>317.0</ele><time>2026-04-26T09:31:37.402Z</time></trkpt><trkpt lat="43.7816632" lon="12.4955744"><ele>317.0</ele><time>2026-04-26T09:31:38.404Z</time></trkpt><trkpt lat="43.7817732" lon="12.495571"><ele>317.0</ele><time>2026-04-26T09:31:39.399Z</time></trkpt><trkpt lat="43.7818867" lon="12.4955769"><ele>317.0</ele><time>2026-04-26T09:31:40.403Z</time></trkpt><trkpt lat="43.7819955" lon="12.4955822"><ele>317.0</ele><time>2026-04-26T09:31:41.409Z</time></trkpt><trkpt lat="43.7821007" lon="12.4955806"><ele>315.8</ele><time>2026-04-26T09:31:42.402Z</time></trkpt><trkpt lat="43.7822054" lon="12.4955781"><ele>314.6</ele><time>2026-04-26T09:31:43.404Z</time></trkpt><trkpt lat="43.7823157" lon="12.4955689"><ele>313.40000000000003</ele><time>2026-04-26T09:31:44.405Z</time></trkpt><trkpt lat="43.7824215" lon="12.4955572"><ele>312.2</ele><time>2026-04-26T09:31:45.401Z</time></trkpt><trkpt lat="43.7825212" lon="12.4955493"><ele>311.0</ele><time>2026-04-26T09:31:46.404Z</time></trkpt><trkpt lat="43.782601" lon="12.4955573"><ele>311.0</ele><time>2026-04-26T09:31:47.409Z</time></trkpt><trkpt lat="43.7826762" lon="12.4955648"><ele>311.0</ele><time>2026-04-26T09:31:48.406Z</time></trkpt><trkpt lat="43.7827509" lon="12.4955906"><ele>311.0</ele><time>2026-04-26T09:31:49.405Z</time></trkpt><trkpt lat="43.7829198" lon="12.4956774"><ele>311.0</ele><time>2026-04-26T09:31:51.402Z</time></trkpt><trkpt lat="43.7829982" lon="12.495718"><ele>311.0</ele><time>2026-04-26T09:31:52.402Z</time></trkpt><trkpt lat="43.7830803" lon="12.495743"><ele>308.8</ele><time>2026-04-26T09:31:53.411Z</time></trkpt><trkpt lat="43.7831562" lon="12.4957703"><ele>306.6</ele><time>2026-04-26T09:31:54.403Z</time></trkpt><trkpt lat="43.7832337" lon="12.4957888"><ele>304.4</ele><time>2026-04-26T09:31:55.403Z</time></trkpt><trkpt lat="43.7833002" lon="12.4958041"><ele>302.2</ele><time>2026-04-26T09:31:56.403Z</time></trkpt><trkpt lat="43.7834143" lon="12.4958216"><ele>300.0</ele><time>2026-04-26T09:31:58.409Z</time></trkpt><trkpt lat="43.7835298" lon="12.4957997"><ele>296.1666666666667</ele><time>2026-04-26T09:32:00.403Z</time></trkpt><trkpt lat="43.783594" lon="12.495829"><ele>292.3333333333333</ele><time>2026-04-26T09:32:01.401Z</time></trkpt><trkpt lat="43.7836504" lon="12.4959006"><ele>288.5</ele><time>2026-04-26T09:32:02.41Z</time></trkpt><trkpt lat="43.7836922" lon="12.4959953"><ele>284.66666666666663</ele><time>2026-04-26T09:32:03.404Z</time></trkpt><trkpt lat="43.7837247" lon="12.4961009"><ele>280.8333333333333</ele><time>2026-04-26T09:32:04.398Z</time></trkpt><trkpt lat="43.7837731" lon="12.4962084"><ele>277.0</ele><time>2026-04-26T09:32:05.398Z</time></trkpt><trkpt lat="43.7838377" lon="12.4963077"><ele>277.0</ele><time>2026-04-26T09:32:06.399Z</time></trkpt><trkpt lat="43.7839172" lon="12.4963973"><ele>277.0</ele><time>2026-04-26T09:32:07.402Z</time></trkpt><trkpt lat="43.7840104" lon="12.4964809"><ele>277.0</ele><time>2026-04-26T09:32:08.401Z</time></trkpt><trkpt lat="43.7841095" lon="12.4965565"><ele>277.0</ele><time>2026-04-26T09:32:09.406Z</time></trkpt><trkpt lat="43.7842067" lon="12.4966407"><ele>277.0</ele><time>2026-04-26T09:32:10.403Z</time></trkpt><trkpt lat="43.7843709" lon="12.4968038"><ele>275.6</ele><time>2026-04-26T09:32:12.405Z</time></trkpt><trkpt lat="43.7844627" lon="12.4968683"><ele>274.2</ele><time>2026-04-26T09:32:13.402Z</time></trkpt><trkpt lat="43.7845529" lon="12.4969238"><ele>272.8</ele><time>2026-04-26T09:32:14.402Z</time></trkpt><trkpt lat="43.784644" lon="12.4969684"><ele>271.4</ele><time>2026-04-26T09:32:15.403Z</time></trkpt><trkpt lat="43.7847277" lon="12.4970109"><ele>270.0</ele><time>2026-04-26T09:32:16.404Z</time></trkpt><trkpt lat="43.7848098" lon="12.4970604"><ele>270.6666666666667</ele><time>2026-04-26T09:32:17.41Z</time></trkpt><trkpt lat="43.7848848" lon="12.4970988"><ele>271.3333333333333</ele><time>2026-04-26T09:32:18.406Z</time></trkpt><trkpt lat="43.7849593" lon="12.4971382"><ele>272.0</ele><time>2026-04-26T09:32:19.408Z</time></trkpt><trkpt lat="43.7850439" lon="12.4971384"><ele>272.66666666666663</ele><time>2026-04-26T09:32:20.407Z</time></trkpt><trkpt lat="43.7851153" lon="12.4971473"><ele>273.3333333333333</ele><time>2026-04-26T09:32:21.399Z</time></trkpt><trkpt lat="43.7851733" lon="12.4971091"><ele>274.0</ele><time>2026-04-26T09:32:22.402Z</time></trkpt><trkpt lat="43.7852426" lon="12.4970331"><ele>270.66666666666663</ele><time>2026-04-26T09:32:23.402Z</time></trkpt><trkpt lat="43.7853167" lon="12.4969741"><ele>267.3333333333333</ele><time>2026-04-26T09:32:24.403Z</time></trkpt><trkpt lat="43.7853878" lon="12.4969224"><ele>264.0</ele><time>2026-04-26T09:32:25.404Z</time></trkpt><trkpt lat="43.7854643" lon="12.4968479"><ele>260.6666666666667</ele><time>2026-04-26T09:32:26.403Z</time></trkpt><trkpt lat="43.7855374" lon="12.496821"><ele>257.33333333333337</ele><time>2026-04-26T09:32:27.405Z</time></trkpt><trkpt lat="43.7856313" lon="12.4968103"><ele>254.0</ele><time>2026-04-26T09:32:28.409Z</time></trkpt><trkpt lat="43.7857188" lon="12.4967896"><ele>254.0</ele><time>2026-04-26T09:32:29.403Z</time></trkpt><trkpt lat="43.7858275" lon="12.4967832"><ele>254.0</ele><time>2026-04-26T09:32:30.401Z</time></trkpt><trkpt lat="43.7859251" lon="12.4967639"><ele>254.0</ele><time>2026-04-26T09:32:31.4Z</time></trkpt><trkpt lat="43.7861344" lon="12.4967321"><ele>254.0</ele><time>2026-04-26T09:32:33.407Z</time></trkpt><trkpt lat="43.7862397" lon="12.4967349"><ele>252.33333333333334</ele><time>2026-04-26T09:32:34.401Z</time></trkpt><trkpt lat="43.786333" lon="12.4967503"><ele>250.66666666666669</ele><time>2026-04-26T09:32:35.399Z</time></trkpt><trkpt lat="43.7864186" lon="12.4967725"><ele>249.0</ele><time>2026-04-26T09:32:36.402Z</time></trkpt><trkpt lat="43.7865027" lon="12.4967944"><ele>247.33333333333331</ele><time>2026-04-26T09:32:37.402Z</time></trkpt><trkpt lat="43.7865689" lon="12.4968084"><ele>245.66666666666666</ele><time>2026-04-26T09:32:38.403Z</time></trkpt><trkpt lat="43.7866319" lon="12.4968236"><ele>244.0</ele><time>2026-04-26T09:32:39.401Z</time></trkpt><trkpt lat="43.7867292" lon="12.4968078"><ele>244.0</ele><time>2026-04-26T09:32:41.407Z</time></trkpt><trkpt lat="43.7867893" lon="12.4966904"><ele>243.99999999999997</ele><time>2026-04-26T09:32:43.399Z</time></trkpt><trkpt lat="43.7868375" lon="12.4965491"><ele>243.99999999999997</ele><time>2026-04-26T09:32:45.4Z</time></trkpt><trkpt lat="43.7868962" lon="12.4964028"><ele>244.0</ele><time>2026-04-26T09:32:47.401Z</time></trkpt><trkpt lat="43.7869447" lon="12.4963426"><ele>244.0</ele><time>2026-04-26T09:32:48.402Z</time></trkpt><trkpt lat="43.7870069" lon="12.4963096"><ele>244.2</ele><time>2026-04-26T09:32:49.403Z</time></trkpt><trkpt lat="43.787077" lon="12.4962874"><ele>244.39999999999998</ele><time>2026-04-26T09:32:50.41Z</time></trkpt><trkpt lat="43.7871517" lon="12.4962739"><ele>244.6</ele><time>2026-04-26T09:32:51.403Z</time></trkpt><trkpt lat="43.7872297" lon="12.4962567"><ele>244.8</ele><time>2026-04-26T09:32:52.402Z</time></trkpt><trkpt lat="43.7873964" lon="12.4962416"><ele>245.0</ele><time>2026-04-26T09:32:54.402Z</time></trkpt><trkpt lat="43.787491" lon="12.4962514"><ele>245.0</ele><time>2026-04-26T09:32:55.399Z</time></trkpt><trkpt lat="43.7876081" lon="12.4962631"><ele>245.0</ele><time>2026-04-26T09:32:56.399Z</time></trkpt><trkpt lat="43.7877261" lon="12.4962547"><ele>245.0</ele><time>2026-04-26T09:32:57.4Z</time></trkpt><trkpt lat="43.7878458" lon="12.4962429"><ele>245.0</ele><time>2026-04-26T09:32:58.401Z</time></trkpt><trkpt lat="43.7879727" lon="12.4962219"><ele>237.6</ele><time>2026-04-26T09:32:59.401Z</time></trkpt><trkpt lat="43.7880981" lon="12.496227"><ele>230.2</ele><time>2026-04-26T09:33:00.403Z</time></trkpt><trkpt lat="43.7882105" lon="12.4962246"><ele>222.8</ele><time>2026-04-26T09:33:01.4Z</time></trkpt><trkpt lat="43.7883078" lon="12.4961925"><ele>215.4</ele><time>2026-04-26T09:33:02.399Z</time></trkpt><trkpt lat="43.7883871" lon="12.4961256"><ele>208.0</ele><time>2026-04-26T09:33:03.399Z</time></trkpt><trkpt lat="43.7884564" lon="12.4960592"><ele>207.33333333333331</ele><time>2026-04-26T09:33:04.401Z</time></trkpt><trkpt lat="43.7885203" lon="12.4960002"><ele>206.66666666666666</ele><time>2026-04-26T09:33:05.399Z</time></trkpt><trkpt lat="43.7885783" lon="12.4959068"><ele>206.0</ele><time>2026-04-26T09:33:06.399Z</time></trkpt><trkpt lat="43.788634" lon="12.495815"><ele>205.33333333333331</ele><time>2026-04-26T09:33:07.402Z</time></trkpt><trkpt lat="43.788681" lon="12.4957184"><ele>204.66666666666666</ele><time>2026-04-26T09:33:08.4Z</time></trkpt><trkpt lat="43.7887316" lon="12.4956356"><ele>204.0</ele><time>2026-04-26T09:33:09.399Z</time></trkpt><trkpt lat="43.7887925" lon="12.495582"><ele>204.0</ele><time>2026-04-26T09:33:10.402Z</time></trkpt><trkpt lat="43.7888618" lon="12.4955354"><ele>204.0</ele><time>2026-04-26T09:33:11.401Z</time></trkpt><trkpt lat="43.7889306" lon="12.4955098"><ele>204.0</ele><time>2026-04-26T09:33:12.403Z</time></trkpt><trkpt lat="43.7890686" lon="12.4955173"><ele>204.0</ele><time>2026-04-26T09:33:14.407Z</time></trkpt><trkpt lat="43.7892653" lon="12.4956905"><ele>202.25</ele><time>2026-04-26T09:33:16.4Z</time></trkpt><trkpt lat="43.7893607" lon="12.4957774"><ele>200.5</ele><time>2026-04-26T09:33:17.402Z</time></trkpt><trkpt lat="43.7894662" lon="12.495856"><ele>198.75</ele><time>2026-04-26T09:33:18.406Z</time></trkpt><trkpt lat="43.789577" lon="12.4959254"><ele>197.0</ele><time>2026-04-26T09:33:19.402Z</time></trkpt><trkpt lat="43.7896833" lon="12.4959854"><ele>197.0</ele><time>2026-04-26T09:33:20.401Z</time></trkpt><trkpt lat="43.7897752" lon="12.4960234"><ele>197.0</ele><time>2026-04-26T09:33:21.401Z</time></trkpt><trkpt lat="43.7898534" lon="12.4960651"><ele>197.0</ele><time>2026-04-26T09:33:22.402Z</time></trkpt><trkpt lat="43.7899274" lon="12.4961222"><ele>197.0</ele><time>2026-04-26T09:33:23.403Z</time></trkpt><trkpt lat="43.7899961" lon="12.4962082"><ele>197.0</ele><time>2026-04-26T09:33:24.404Z</time></trkpt><trkpt lat="43.7900717" lon="12.4962931"><ele>196.6</ele><time>2026-04-26T09:33:25.403Z</time></trkpt><trkpt lat="43.790166" lon="12.4963346"><ele>196.2</ele><time>2026-04-26T09:33:26.399Z</time></trkpt><trkpt lat="43.7902605" lon="12.4963559"><ele>195.8</ele><time>2026-04-26T09:33:27.404Z</time></trkpt><trkpt lat="43.7903565" lon="12.4963677"><ele>195.4</ele><time>2026-04-26T09:33:28.401Z</time></trkpt><trkpt lat="43.7904557" lon="12.4963839"><ele>195.0</ele><time>2026-04-26T09:33:29.402Z</time></trkpt><trkpt lat="43.7905409" lon="12.4964189"><ele>195.0</ele><time>2026-04-26T09:33:30.402Z</time></trkpt><trkpt lat="43.7906267" lon="12.4964935"><ele>195.0</ele><time>2026-04-26T09:33:31.404Z</time></trkpt><trkpt lat="43.7906945" lon="12.4965803"><ele>195.0</ele><time>2026-04-26T09:33:32.399Z</time></trkpt><trkpt lat="43.7907328" lon="12.4966728"><ele>195.0</ele><time>2026-04-26T09:33:33.403Z</time></trkpt><trkpt lat="43.7907615" lon="12.4967561"><ele>195.0</ele><time>2026-04-26T09:33:34.402Z</time></trkpt><trkpt lat="43.7908299" lon="12.4968259"><ele>195.0</ele><time>2026-04-26T09:33:36.409Z</time></trkpt><trkpt lat="43.790933" lon="12.4965748"><ele>195.0</ele><time>2026-04-26T09:33:40.402Z</time></trkpt><trkpt lat="43.7909651" lon="12.496476"><ele>195.0</ele><time>2026-04-26T09:33:41.402Z</time></trkpt><trkpt lat="43.7909984" lon="12.4963581"><ele>195.0</ele><time>2026-04-26T09:33:42.401Z</time></trkpt><trkpt lat="43.7910415" lon="12.4962233"><ele>195.0</ele><time>2026-04-26T09:33:43.4Z</time></trkpt><trkpt lat="43.7910884" lon="12.4960748"><ele>195.0</ele><time>2026-04-26T09:33:44.4Z</time></trkpt><trkpt lat="43.791147" lon="12.4959308"><ele>195.5</ele><time>2026-04-26T09:33:45.399Z</time></trkpt><trkpt lat="43.791195" lon="12.4957774"><ele>196.0</ele><time>2026-04-26T09:33:46.4Z</time></trkpt><trkpt lat="43.7912397" lon="12.4956262"><ele>196.5</ele><time>2026-04-26T09:33:47.4Z</time></trkpt><trkpt lat="43.7912717" lon="12.4954688"><ele>197.0</ele><time>2026-04-26T09:33:48.401Z</time></trkpt><trkpt lat="43.7912857" lon="12.4953104"><ele>197.0</ele><time>2026-04-26T09:33:49.405Z</time></trkpt><trkpt lat="43.7912828" lon="12.495158"><ele>197.0</ele><time>2026-04-26T09:33:50.403Z</time></trkpt><trkpt lat="43.7912491" lon="12.4950094"><ele>197.0</ele><time>2026-04-26T09:33:51.404Z</time></trkpt><trkpt lat="43.7911969" lon="12.494869"><ele>197.0</ele><time>2026-04-26T09:33:52.402Z</time></trkpt><trkpt lat="43.7911612" lon="12.4947222"><ele>197.0</ele><time>2026-04-26T09:33:53.405Z</time></trkpt><trkpt lat="43.7911679" lon="12.494574"><ele>199.75</ele><time>2026-04-26T09:33:54.4Z</time></trkpt><trkpt lat="43.7911953" lon="12.494412"><ele>202.5</ele><time>2026-04-26T09:33:55.406Z</time></trkpt><trkpt lat="43.7912463" lon="12.4942303"><ele>205.25</ele><time>2026-04-26T09:33:56.401Z</time></trkpt><trkpt lat="43.7912774" lon="12.4940282"><ele>208.0</ele><time>2026-04-26T09:33:57.404Z</time></trkpt><trkpt lat="43.7913231" lon="12.4936465"><ele>209.4</ele><time>2026-04-26T09:33:59.404Z</time></trkpt><trkpt lat="43.7913413" lon="12.4934961"><ele>210.8</ele><time>2026-04-26T09:34:00.405Z</time></trkpt><trkpt lat="43.7913599" lon="12.4933782"><ele>212.2</ele><time>2026-04-26T09:34:01.4Z</time></trkpt><trkpt lat="43.7913925" lon="12.4932975"><ele>213.6</ele><time>2026-04-26T09:34:02.402Z</time></trkpt><trkpt lat="43.7914962" lon="12.4932508"><ele>215.0</ele><time>2026-04-26T09:34:04.399Z</time></trkpt><trkpt lat="43.7916188" lon="12.4932851"><ele>215.00000000000003</ele><time>2026-04-26T09:34:06.405Z</time></trkpt><trkpt lat="43.79169" lon="12.4932668"><ele>215.0</ele><time>2026-04-26T09:34:07.401Z</time></trkpt><trkpt lat="43.7917445" lon="12.4932098"><ele>215.0</ele><time>2026-04-26T09:34:08.405Z</time></trkpt><trkpt lat="43.7917757" lon="12.4931332"><ele>215.0</ele><time>2026-04-26T09:34:09.401Z</time></trkpt><trkpt lat="43.7917617" lon="12.4929726"><ele>215.00000000000003</ele><time>2026-04-26T09:34:11.399Z</time></trkpt><trkpt lat="43.7917485" lon="12.4928843"><ele>215.0</ele><time>2026-04-26T09:34:12.404Z</time></trkpt><trkpt lat="43.7917412" lon="12.4927869"><ele>215.66666666666669</ele><time>2026-04-26T09:34:13.404Z</time></trkpt><trkpt lat="43.7917477" lon="12.4926768"><ele>216.33333333333334</ele><time>2026-04-26T09:34:14.401Z</time></trkpt><trkpt lat="43.7917633" lon="12.4925683"><ele>217.0</ele><time>2026-04-26T09:34:15.402Z</time></trkpt><trkpt lat="43.791798" lon="12.4924739"><ele>217.66666666666669</ele><time>2026-04-26T09:34:16.405Z</time></trkpt><trkpt lat="43.7918591" lon="12.4924002"><ele>218.33333333333334</ele><time>2026-04-26T09:34:17.406Z</time></trkpt><trkpt lat="43.7919366" lon="12.4923654"><ele>219.0</ele><time>2026-04-26T09:34:18.404Z</time></trkpt><trkpt lat="43.7921119" lon="12.4923681"><ele>219.0</ele><time>2026-04-26T09:34:20.401Z</time></trkpt><trkpt lat="43.7921888" lon="12.4923807"><ele>218.99999999999997</ele><time>2026-04-26T09:34:21.399Z</time></trkpt><trkpt lat="43.7922558" lon="12.4923928"><ele>218.99999999999997</ele><time>2026-04-26T09:34:22.4Z</time></trkpt><trkpt lat="43.7923224" lon="12.4924554"><ele>219.0</ele><time>2026-04-26T09:34:24.4Z</time></trkpt><trkpt lat="43.7922951" lon="12.4925564"><ele>219.0</ele><time>2026-04-26T09:34:27.404Z</time></trkpt><trkpt lat="43.792248" lon="12.4928789"><ele>219.0</ele><time>2026-04-26T09:37:28.408Z</time></trkpt><trkpt lat="43.7923107" lon="12.4929181"><ele>218.99999999999997</ele><time>2026-04-26T09:37:31.406Z</time></trkpt><trkpt lat="43.7922604" lon="12.492667"><ele>218.99999999999997</ele><time>2026-04-26T09:48:28.399Z</time></trkpt><trkpt lat="43.7922803" lon="12.4925601"><ele>219.0</ele><time>2026-04-26T09:48:30.399Z</time></trkpt><trkpt lat="43.7923391" lon="12.4924485"><ele>219.0</ele><time>2026-04-26T09:48:32.399Z</time></trkpt><trkpt lat="43.7924463" lon="12.4923867"><ele>219.0</ele><time>2026-04-26T09:48:34.398Z</time></trkpt><trkpt lat="43.7925437" lon="12.4923933"><ele>219.0</ele><time>2026-04-26T09:48:35.399Z</time></trkpt><trkpt lat="43.7926588" lon="12.49242"><ele>219.0</ele><time>2026-04-26T09:48:36.4Z</time></trkpt><trkpt lat="43.7929515" lon="12.4924785"><ele>217.66666666666669</ele><time>2026-04-26T09:48:38.403Z</time></trkpt><trkpt lat="43.7931123" lon="12.4925104"><ele>216.33333333333334</ele><time>2026-04-26T09:48:39.407Z</time></trkpt><trkpt lat="43.7932726" lon="12.4925403"><ele>215.0</ele><time>2026-04-26T09:48:40.406Z</time></trkpt><trkpt lat="43.7934357" lon="12.4925716"><ele>213.66666666666669</ele><time>2026-04-26T09:48:41.402Z</time></trkpt><trkpt lat="43.7936063" lon="12.4926022"><ele>212.33333333333331</ele><time>2026-04-26T09:48:42.403Z</time></trkpt><trkpt lat="43.7937741" lon="12.4926323"><ele>211.0</ele><time>2026-04-26T09:48:43.404Z</time></trkpt><trkpt lat="43.7939453" lon="12.492656"><ele>211.0</ele><time>2026-04-26T09:48:44.401Z</time></trkpt><trkpt lat="43.7941125" lon="12.4926804"><ele>211.0</ele><time>2026-04-26T09:48:45.399Z</time></trkpt><trkpt lat="43.7942786" lon="12.4927084"><ele>211.0</ele><time>2026-04-26T09:48:46.403Z</time></trkpt><trkpt lat="43.7944446" lon="12.4927383"><ele>211.0</ele><time>2026-04-26T09:48:47.395Z</time></trkpt><trkpt lat="43.7946113" lon="12.4927636"><ele>211.0</ele><time>2026-04-26T09:48:48.4Z</time></trkpt><trkpt lat="43.794774" lon="12.4927928"><ele>211.0</ele><time>2026-04-26T09:48:49.399Z</time></trkpt><trkpt lat="43.7949322" lon="12.4928192"><ele>211.0</ele><time>2026-04-26T09:48:50.398Z</time></trkpt><trkpt lat="43.7950881" lon="12.4928497"><ele>211.0</ele><time>2026-04-26T09:48:51.401Z</time></trkpt><trkpt lat="43.795238" lon="12.492877"><ele>211.0</ele><time>2026-04-26T09:48:52.404Z</time></trkpt><trkpt lat="43.7953803" lon="12.4929042"><ele>210.0</ele><time>2026-04-26T09:48:53.401Z</time></trkpt><trkpt lat="43.7955123" lon="12.4929283"><ele>209.0</ele><time>2026-04-26T09:48:54.401Z</time></trkpt><trkpt lat="43.7956301" lon="12.4929494"><ele>208.0</ele><time>2026-04-26T09:48:55.405Z</time></trkpt><trkpt lat="43.795734" lon="12.4929751"><ele>207.0</ele><time>2026-04-26T09:48:56.399Z</time></trkpt><trkpt lat="43.7958239" lon="12.4930045"><ele>207.0</ele><time>2026-04-26T09:48:57.404Z</time></trkpt><trkpt lat="43.7959947" lon="12.4929995"><ele>207.0</ele><time>2026-04-26T09:48:59.403Z</time></trkpt><trkpt lat="43.7960758" lon="12.4929628"><ele>207.0</ele><time>2026-04-26T09:49:00.401Z</time></trkpt><trkpt lat="43.7961511" lon="12.4928942"><ele>207.0</ele><time>2026-04-26T09:49:01.401Z</time></trkpt><trkpt lat="43.7962281" lon="12.4927899"><ele>211.0</ele><time>2026-04-26T09:49:02.407Z</time></trkpt><trkpt lat="43.7963099" lon="12.4926701"><ele>215.0</ele><time>2026-04-26T09:49:03.41Z</time></trkpt><trkpt lat="43.7964104" lon="12.4925204"><ele>219.0</ele><time>2026-04-26T09:49:04.407Z</time></trkpt><trkpt lat="43.7965126" lon="12.4923918"><ele>223.0</ele><time>2026-04-26T09:49:05.404Z</time></trkpt><trkpt lat="43.7966276" lon="12.4922847"><ele>223.0</ele><time>2026-04-26T09:49:06.405Z</time></trkpt><trkpt lat="43.7967474" lon="12.4921918"><ele>223.0</ele><time>2026-04-26T09:49:07.402Z</time></trkpt><trkpt lat="43.7968754" lon="12.4920961"><ele>223.0</ele><time>2026-04-26T09:49:08.403Z</time></trkpt><trkpt lat="43.7970094" lon="12.4920105"><ele>223.0</ele><time>2026-04-26T09:49:09.406Z</time></trkpt><trkpt lat="43.7972982" lon="12.4918334"><ele>230.0</ele><time>2026-04-26T09:49:11.403Z</time></trkpt><trkpt lat="43.7974208" lon="12.4917495"><ele>237.0</ele><time>2026-04-26T09:49:12.405Z</time></trkpt><trkpt lat="43.797537" lon="12.4916716"><ele>244.0</ele><time>2026-04-26T09:49:13.404Z</time></trkpt><trkpt lat="43.7976439" lon="12.4916204"><ele>251.0</ele><time>2026-04-26T09:49:14.397Z</time></trkpt><trkpt lat="43.7977446" lon="12.4916074"><ele>252.4</ele><time>2026-04-26T09:49:15.4Z</time></trkpt><trkpt lat="43.7978341" lon="12.4916331"><ele>253.8</ele><time>2026-04-26T09:49:16.4Z</time></trkpt><trkpt lat="43.7979019" lon="12.4916978"><ele>255.20000000000002</ele><time>2026-04-26T09:49:17.407Z</time></trkpt><trkpt lat="43.7979486" lon="12.491794"><ele>256.6</ele><time>2026-04-26T09:49:18.407Z</time></trkpt><trkpt lat="43.7979963" lon="12.4920268"><ele>258.0</ele><time>2026-04-26T09:49:20.408Z</time></trkpt><trkpt lat="43.7980361" lon="12.492099"><ele>258.0</ele><time>2026-04-26T09:49:21.407Z</time></trkpt><trkpt lat="43.7981053" lon="12.4921455"><ele>258.0</ele><time>2026-04-26T09:49:22.4Z</time></trkpt><trkpt lat="43.7981928" lon="12.4921527"><ele>258.0</ele><time>2026-04-26T09:49:23.4Z</time></trkpt><trkpt lat="43.79829" lon="12.4921165"><ele>258.0</ele><time>2026-04-26T09:49:24.399Z</time></trkpt><trkpt lat="43.7983942" lon="12.4920561"><ele>258.0</ele><time>2026-04-26T09:49:25.398Z</time></trkpt><trkpt lat="43.798495" lon="12.4919742"><ele>259.5</ele><time>2026-04-26T09:49:26.4Z</time></trkpt><trkpt lat="43.7985948" lon="12.4918451"><ele>261.0</ele><time>2026-04-26T09:49:27.402Z</time></trkpt><trkpt lat="43.798691" lon="12.4916812"><ele>262.5</ele><time>2026-04-26T09:49:28.399Z</time></trkpt><trkpt lat="43.798788" lon="12.4915122"><ele>264.0</ele><time>2026-04-26T09:49:29.401Z</time></trkpt><trkpt lat="43.7988797" lon="12.4913403"><ele>266.5</ele><time>2026-04-26T09:49:30.402Z</time></trkpt><trkpt lat="43.7989653" lon="12.4911701"><ele>269.0</ele><time>2026-04-26T09:49:31.4Z</time></trkpt><trkpt lat="43.7990453" lon="12.4910104"><ele>271.5</ele><time>2026-04-26T09:49:32.406Z</time></trkpt><trkpt lat="43.7991176" lon="12.4908712"><ele>274.0</ele><time>2026-04-26T09:49:33.401Z</time></trkpt><trkpt lat="43.7991819" lon="12.4907561"><ele>274.0</ele><time>2026-04-26T09:49:34.399Z</time></trkpt><trkpt lat="43.799246" lon="12.4906558"><ele>274.0</ele><time>2026-04-26T09:49:35.401Z</time></trkpt><trkpt lat="43.799323" lon="12.4905671"><ele>274.0</ele><time>2026-04-26T09:49:36.4Z</time></trkpt><trkpt lat="43.7994165" lon="12.4904778"><ele>274.0</ele><time>2026-04-26T09:49:37.401Z</time></trkpt><trkpt lat="43.7995112" lon="12.4903866"><ele>274.0</ele><time>2026-04-26T09:49:38.403Z</time></trkpt><trkpt lat="43.7996189" lon="12.4902945"><ele>276.5</ele><time>2026-04-26T09:49:39.401Z</time></trkpt><trkpt lat="43.7998194" lon="12.490117"><ele>279.0</ele><time>2026-04-26T09:49:41.4Z</time></trkpt><trkpt lat="43.7998985" lon="12.4900435"><ele>281.5</ele><time>2026-04-26T09:49:42.4Z</time></trkpt><trkpt lat="43.7999619" lon="12.4899738"><ele>284.0</ele><time>2026-04-26T09:49:43.399Z</time></trkpt><trkpt lat="43.8000178" lon="12.4898418"><ele>284.0</ele><time>2026-04-26T09:49:45.403Z</time></trkpt><trkpt lat="43.800036" lon="12.4896647"><ele>284.0</ele><time>2026-04-26T09:49:47.403Z</time></trkpt><trkpt lat="43.8000608" lon="12.4895357"><ele>284.0</ele><time>2026-04-26T09:49:48.403Z</time></trkpt><trkpt lat="43.8000856" lon="12.4893891"><ele>284.0</ele><time>2026-04-26T09:49:49.401Z</time></trkpt><trkpt lat="43.8000941" lon="12.489255"><ele>284.0</ele><time>2026-04-26T09:49:50.401Z</time></trkpt><trkpt lat="43.8000934" lon="12.4891354"><ele>285.59999999999997</ele><time>2026-04-26T09:49:51.405Z</time></trkpt><trkpt lat="43.8000758" lon="12.4890231"><ele>287.2</ele><time>2026-04-26T09:49:52.408Z</time></trkpt><trkpt lat="43.8000313" lon="12.4889033"><ele>288.79999999999995</ele><time>2026-04-26T09:49:53.4Z</time></trkpt><trkpt lat="43.7999856" lon="12.4887833"><ele>290.4</ele><time>2026-04-26T09:49:54.399Z</time></trkpt><trkpt lat="43.7999222" lon="12.4886481"><ele>292.0</ele><time>2026-04-26T09:49:55.398Z</time></trkpt><trkpt lat="43.799885" lon="12.4885075"><ele>294.4</ele><time>2026-04-26T09:49:56.399Z</time></trkpt><trkpt lat="43.7998666" lon="12.4883742"><ele>296.79999999999995</ele><time>2026-04-26T09:49:57.402Z</time></trkpt><trkpt lat="43.7998556" lon="12.4882558"><ele>299.2</ele><time>2026-04-26T09:49:58.401Z</time></trkpt><trkpt lat="43.7998378" lon="12.4881655"><ele>301.59999999999997</ele><time>2026-04-26T09:49:59.398Z</time></trkpt><trkpt lat="43.7997966" lon="12.4880937"><ele>304.0</ele><time>2026-04-26T09:50:00.403Z</time></trkpt><trkpt lat="43.7996335" lon="12.4879903"><ele>304.0</ele><time>2026-04-26T09:50:02.404Z</time></trkpt><trkpt lat="43.7995419" lon="12.487958"><ele>304.0</ele><time>2026-04-26T09:50:03.396Z</time></trkpt><trkpt lat="43.7994659" lon="12.4878449"><ele>304.0</ele><time>2026-04-26T09:50:05.402Z</time></trkpt><trkpt lat="43.799446" lon="12.4877513"><ele>304.0</ele><time>2026-04-26T09:50:06.4Z</time></trkpt><trkpt lat="43.7994356" lon="12.4876418"><ele>304.0</ele><time>2026-04-26T09:50:07.401Z</time></trkpt><trkpt lat="43.7994469" lon="12.4875475"><ele>304.0</ele><time>2026-04-26T09:50:08.401Z</time></trkpt><trkpt lat="43.7994789" lon="12.4874525"><ele>307.79999999999995</ele><time>2026-04-26T09:50:09.4Z</time></trkpt><trkpt lat="43.7995422" lon="12.4873571"><ele>311.59999999999997</ele><time>2026-04-26T09:50:10.402Z</time></trkpt><trkpt lat="43.7996201" lon="12.4872671"><ele>315.4</ele><time>2026-04-26T09:50:11.398Z</time></trkpt><trkpt lat="43.7997016" lon="12.4871924"><ele>319.2</ele><time>2026-04-26T09:50:12.398Z</time></trkpt><trkpt lat="43.7997879" lon="12.4871372"><ele>323.0</ele><time>2026-04-26T09:50:13.399Z</time></trkpt><trkpt lat="43.7998757" lon="12.4871064"><ele>323.0</ele><time>2026-04-26T09:50:14.401Z</time></trkpt><trkpt lat="43.7999679" lon="12.4871048"><ele>323.0</ele><time>2026-04-26T09:50:15.399Z</time></trkpt><trkpt lat="43.8000631" lon="12.487139"><ele>323.0</ele><time>2026-04-26T09:50:16.401Z</time></trkpt><trkpt lat="43.8001516" lon="12.487198"><ele>323.0</ele><time>2026-04-26T09:50:17.401Z</time></trkpt><trkpt lat="43.8002361" lon="12.4872418"><ele>323.0</ele><time>2026-04-26T09:50:18.403Z</time></trkpt><trkpt lat="43.8002978" lon="12.487271"><ele>323.0</ele><time>2026-04-26T09:50:19.403Z</time></trkpt><trkpt lat="43.8003613" lon="12.4872799"><ele>324.25</ele><time>2026-04-26T09:50:20.409Z</time></trkpt><trkpt lat="43.8004495" lon="12.4872261"><ele>325.5</ele><time>2026-04-26T09:50:22.399Z</time></trkpt><trkpt lat="43.8004575" lon="12.4869687"><ele>326.75</ele><time>2026-04-26T09:50:25.408Z</time></trkpt><trkpt lat="43.8004269" lon="12.4868467"><ele>328.0</ele><time>2026-04-26T09:50:26.4Z</time></trkpt><trkpt lat="43.8003859" lon="12.4867179"><ele>328.0</ele><time>2026-04-26T09:50:27.398Z</time></trkpt><trkpt lat="43.8003387" lon="12.4865683"><ele>328.0</ele><time>2026-04-26T09:50:28.402Z</time></trkpt><trkpt lat="43.8003134" lon="12.4864364"><ele>328.0</ele><time>2026-04-26T09:50:29.401Z</time></trkpt><trkpt lat="43.8002934" lon="12.4862952"><ele>328.0</ele><time>2026-04-26T09:50:30.406Z</time></trkpt><trkpt lat="43.8002692" lon="12.4861378"><ele>328.0</ele><time>2026-04-26T09:50:31.398Z</time></trkpt><trkpt lat="43.8002501" lon="12.4859718"><ele>329.25</ele><time>2026-04-26T09:50:32.397Z</time></trkpt><trkpt lat="43.8002358" lon="12.4858075"><ele>330.5</ele><time>2026-04-26T09:50:33.406Z</time></trkpt><trkpt lat="43.8002107" lon="12.4856318"><ele>331.75</ele><time>2026-04-26T09:50:34.401Z</time></trkpt><trkpt lat="43.8001844" lon="12.4854615"><ele>333.0</ele><time>2026-04-26T09:50:35.404Z</time></trkpt><trkpt lat="43.8001637" lon="12.4852973"><ele>340.0</ele><time>2026-04-26T09:50:36.405Z</time></trkpt><trkpt lat="43.8001524" lon="12.4851448"><ele>347.0</ele><time>2026-04-26T09:50:37.409Z</time></trkpt><trkpt lat="43.8001513" lon="12.4850167"><ele>354.0</ele><time>2026-04-26T09:50:38.4Z</time></trkpt><trkpt lat="43.8001469" lon="12.4849039"><ele>361.0</ele><time>2026-04-26T09:50:39.399Z</time></trkpt><trkpt lat="43.8001063" lon="12.4847415"><ele>368.0</ele><time>2026-04-26T09:50:41.402Z</time></trkpt><trkpt lat="43.8000683" lon="12.4846531"><ele>371.0</ele><time>2026-04-26T09:50:42.401Z</time></trkpt><trkpt lat="43.8000255" lon="12.4845446"><ele>374.0</ele><time>2026-04-26T09:50:43.399Z</time></trkpt><trkpt lat="43.7999707" lon="12.4843037"><ele>377.0</ele><time>2026-04-26T09:50:45.404Z</time></trkpt><trkpt lat="43.7999477" lon="12.4841593"><ele>380.0</ele><time>2026-04-26T09:50:46.403Z</time></trkpt><trkpt lat="43.7999299" lon="12.483996"><ele>380.0</ele><time>2026-04-26T09:50:47.404Z</time></trkpt><trkpt lat="43.7999048" lon="12.483808"><ele>380.0</ele><time>2026-04-26T09:50:48.4Z</time></trkpt><trkpt lat="43.7998932" lon="12.4836205"><ele>380.0</ele><time>2026-04-26T09:50:49.401Z</time></trkpt><trkpt lat="43.7998748" lon="12.4834274"><ele>380.0</ele><time>2026-04-26T09:50:50.4Z</time></trkpt><trkpt lat="43.7998642" lon="12.4832523"><ele>383.6</ele><time>2026-04-26T09:50:51.4Z</time></trkpt><trkpt lat="43.7998711" lon="12.4831102"><ele>387.2</ele><time>2026-04-26T09:50:52.405Z</time></trkpt><trkpt lat="43.7998983" lon="12.4829728"><ele>390.79999999999995</ele><time>2026-04-26T09:50:53.409Z</time></trkpt><trkpt lat="43.799929" lon="12.4828416"><ele>394.4</ele><time>2026-04-26T09:50:54.405Z</time></trkpt><trkpt lat="43.7999379" lon="12.4827064"><ele>398.0</ele><time>2026-04-26T09:50:55.398Z</time></trkpt><trkpt lat="43.7999257" lon="12.4825638"><ele>400.2</ele><time>2026-04-26T09:50:56.398Z</time></trkpt><trkpt lat="43.7998968" lon="12.482408"><ele>402.4</ele><time>2026-04-26T09:50:57.399Z</time></trkpt><trkpt lat="43.7998696" lon="12.4822623"><ele>404.59999999999997</ele><time>2026-04-26T09:50:58.402Z</time></trkpt><trkpt lat="43.7998402" lon="12.4821277"><ele>406.79999999999995</ele><time>2026-04-26T09:50:59.403Z</time></trkpt><trkpt lat="43.7997891" lon="12.4819814"><ele>409.0</ele><time>2026-04-26T09:51:00.404Z</time></trkpt><trkpt lat="43.7997311" lon="12.4818453"><ele>411.75</ele><time>2026-04-26T09:51:01.402Z</time></trkpt><trkpt lat="43.7996924" lon="12.4817283"><ele>414.5</ele><time>2026-04-26T09:51:02.401Z</time></trkpt><trkpt lat="43.7996712" lon="12.4815915"><ele>417.25</ele><time>2026-04-26T09:51:03.401Z</time></trkpt><trkpt lat="43.7996637" lon="12.4814363"><ele>420.0</ele><time>2026-04-26T09:51:04.406Z</time></trkpt><trkpt lat="43.7997001" lon="12.4811417"><ele>422.0</ele><time>2026-04-26T09:51:06.399Z</time></trkpt><trkpt lat="43.7997242" lon="12.4810086"><ele>424.0</ele><time>2026-04-26T09:51:07.4Z</time></trkpt><trkpt lat="43.79973" lon="12.4809002"><ele>426.0</ele><time>2026-04-26T09:51:08.401Z</time></trkpt><trkpt lat="43.799715" lon="12.4808029"><ele>428.0</ele><time>2026-04-26T09:51:09.4Z</time></trkpt><trkpt lat="43.7996408" lon="12.4807131"><ele>430.0</ele><time>2026-04-26T09:51:10.401Z</time></trkpt><trkpt lat="43.7995756" lon="12.4806168"><ele>432.0</ele><time>2026-04-26T09:51:11.402Z</time></trkpt><trkpt lat="43.7995154" lon="12.4804924"><ele>428.75</ele><time>2026-04-26T09:51:12.401Z</time></trkpt><trkpt lat="43.7994257" lon="12.4803657"><ele>425.5</ele><time>2026-04-26T09:51:13.399Z</time></trkpt><trkpt lat="43.7993373" lon="12.48025"><ele>422.25</ele><time>2026-04-26T09:51:14.398Z</time></trkpt><trkpt lat="43.799259" lon="12.4801426"><ele>419.0</ele><time>2026-04-26T09:51:15.404Z</time></trkpt><trkpt lat="43.7991809" lon="12.4800242"><ele>419.0</ele><time>2026-04-26T09:51:16.4Z</time></trkpt><trkpt lat="43.7991014" lon="12.4798808"><ele>419.0</ele><time>2026-04-26T09:51:17.401Z</time></trkpt><trkpt lat="43.7990254" lon="12.4797453"><ele>419.0</ele><time>2026-04-26T09:51:18.4Z</time></trkpt><trkpt lat="43.7989555" lon="12.4796332"><ele>419.0</ele><time>2026-04-26T09:51:19.403Z</time></trkpt><trkpt lat="43.7988771" lon="12.4795451"><ele>423.6</ele><time>2026-04-26T09:51:20.402Z</time></trkpt><trkpt lat="43.7987895" lon="12.4794752"><ele>428.2</ele><time>2026-04-26T09:51:21.4Z</time></trkpt><trkpt lat="43.7987043" lon="12.4794095"><ele>432.80000000000007</ele><time>2026-04-26T09:51:22.405Z</time></trkpt><trkpt lat="43.7986394" lon="12.4793277"><ele>437.40000000000003</ele><time>2026-04-26T09:51:23.402Z</time></trkpt><trkpt lat="43.7985911" lon="12.4792177"><ele>442.0</ele><time>2026-04-26T09:51:24.401Z</time></trkpt><trkpt lat="43.7985604" lon="12.4790591"><ele>433.6666666666667</ele><time>2026-04-26T09:51:25.395Z</time></trkpt><trkpt lat="43.7984914" lon="12.4787223"><ele>425.33333333333337</ele><time>2026-04-26T09:51:27.395Z</time></trkpt><trkpt lat="43.7984703" lon="12.4785637"><ele>417.0</ele><time>2026-04-26T09:51:28.4Z</time></trkpt><trkpt lat="43.798464" lon="12.478413"><ele>417.0</ele><time>2026-04-26T09:51:29.398Z</time></trkpt><trkpt lat="43.7984876" lon="12.4782778"><ele>417.0</ele><time>2026-04-26T09:51:30.402Z</time></trkpt><trkpt lat="43.7985431" lon="12.4781421"><ele>417.0</ele><time>2026-04-26T09:51:31.4Z</time></trkpt><trkpt lat="43.798605" lon="12.4780035"><ele>417.0</ele><time>2026-04-26T09:51:32.402Z</time></trkpt><trkpt lat="43.7986694" lon="12.4779026"><ele>417.0</ele><time>2026-04-26T09:51:33.403Z</time></trkpt><trkpt lat="43.7987448" lon="12.47782"><ele>421.5</ele><time>2026-04-26T09:51:34.398Z</time></trkpt><trkpt lat="43.7988298" lon="12.4777728"><ele>426.0</ele><time>2026-04-26T09:51:35.401Z</time></trkpt><trkpt lat="43.7989359" lon="12.4777277"><ele>430.5</ele><time>2026-04-26T09:51:36.399Z</time></trkpt><trkpt lat="43.7990559" lon="12.4776882"><ele>435.0</ele><time>2026-04-26T09:51:37.397Z</time></trkpt><trkpt lat="43.7991811" lon="12.4776513"><ele>435.0</ele><time>2026-04-26T09:51:38.402Z</time></trkpt><trkpt lat="43.7992912" lon="12.4776173"><ele>435.0</ele><time>2026-04-26T09:51:39.4Z</time></trkpt><trkpt lat="43.7993831" lon="12.4775924"><ele>435.0</ele><time>2026-04-26T09:51:40.398Z</time></trkpt><trkpt lat="43.7994525" lon="12.4775589"><ele>435.0</ele><time>2026-04-26T09:51:41.397Z</time></trkpt><trkpt lat="43.7995333" lon="12.4774423"><ele>435.0</ele><time>2026-04-26T09:51:43.401Z</time></trkpt><trkpt lat="43.7995371" lon="12.4772774"><ele>440.75</ele><time>2026-04-26T09:51:45.402Z</time></trkpt><trkpt lat="43.7995332" lon="12.4771477"><ele>446.5</ele><time>2026-04-26T09:51:46.4Z</time></trkpt><trkpt lat="43.7995213" lon="12.4768434"><ele>452.25</ele><time>2026-04-26T09:51:48.404Z</time></trkpt><trkpt lat="43.7995212" lon="12.4766958"><ele>458.0</ele><time>2026-04-26T09:51:49.4Z</time></trkpt><trkpt lat="43.7995306" lon="12.476574"><ele>459.79999999999995</ele><time>2026-04-26T09:51:50.398Z</time></trkpt><trkpt lat="43.7995488" lon="12.476447"><ele>461.59999999999997</ele><time>2026-04-26T09:51:51.404Z</time></trkpt><trkpt lat="43.7996058" lon="12.4763181"><ele>463.40000000000003</ele><time>2026-04-26T09:51:52.402Z</time></trkpt><trkpt lat="43.7996579" lon="12.4761968"><ele>465.20000000000005</ele><time>2026-04-26T09:51:53.401Z</time></trkpt><trkpt lat="43.7997092" lon="12.4760821"><ele>467.0</ele><time>2026-04-26T09:51:54.399Z</time></trkpt><trkpt lat="43.7997558" lon="12.4759745"><ele>468.40000000000003</ele><time>2026-04-26T09:51:55.398Z</time></trkpt><trkpt lat="43.7997858" lon="12.4758887"><ele>469.80000000000007</ele><time>2026-04-26T09:51:56.401Z</time></trkpt><trkpt lat="43.7997884" lon="12.4757378"><ele>471.2</ele><time>2026-04-26T09:51:58.401Z</time></trkpt><trkpt lat="43.7997061" lon="12.4755888"><ele>472.6</ele><time>2026-04-26T09:52:00.399Z</time></trkpt><trkpt lat="43.799653" lon="12.475504"><ele>474.0</ele><time>2026-04-26T09:52:01.401Z</time></trkpt><trkpt lat="43.7995761" lon="12.4753834"><ele>472.75</ele><time>2026-04-26T09:52:02.403Z</time></trkpt><trkpt lat="43.799484" lon="12.4752511"><ele>471.5</ele><time>2026-04-26T09:52:03.397Z</time></trkpt><trkpt lat="43.7993896" lon="12.4751143"><ele>470.25</ele><time>2026-04-26T09:52:04.399Z</time></trkpt><trkpt lat="43.7993132" lon="12.4750054"><ele>469.0</ele><time>2026-04-26T09:52:05.401Z</time></trkpt><trkpt lat="43.7992422" lon="12.4749033"><ele>469.0</ele><time>2026-04-26T09:52:06.4Z</time></trkpt><trkpt lat="43.7991846" lon="12.4747971"><ele>469.0</ele><time>2026-04-26T09:52:07.403Z</time></trkpt><trkpt lat="43.7991117" lon="12.474593"><ele>469.0</ele><time>2026-04-26T09:52:09.402Z</time></trkpt><trkpt lat="43.7990908" lon="12.4745068"><ele>469.0</ele><time>2026-04-26T09:52:10.398Z</time></trkpt><trkpt lat="43.7991389" lon="12.4744162"><ele>469.0</ele><time>2026-04-26T09:52:13.4Z</time></trkpt><trkpt lat="43.7992583" lon="12.4743734"><ele>475.0</ele><time>2026-04-26T09:52:15.413Z</time></trkpt><trkpt lat="43.7993567" lon="12.4743299"><ele>481.0</ele><time>2026-04-26T09:52:16.4Z</time></trkpt><trkpt lat="43.7994717" lon="12.4742738"><ele>487.0</ele><time>2026-04-26T09:52:17.401Z</time></trkpt><trkpt lat="43.7995943" lon="12.4742124"><ele>493.0</ele><time>2026-04-26T09:52:18.399Z</time></trkpt><trkpt lat="43.7997196" lon="12.4741447"><ele>493.0</ele><time>2026-04-26T09:52:19.399Z</time></trkpt><trkpt lat="43.7998427" lon="12.4740739"><ele>493.0</ele><time>2026-04-26T09:52:20.397Z</time></trkpt><trkpt lat="43.7999585" lon="12.4740107"><ele>493.0</ele><time>2026-04-26T09:52:21.398Z</time></trkpt><trkpt lat="43.8000731" lon="12.4739531"><ele>493.0</ele><time>2026-04-26T09:52:22.398Z</time></trkpt><trkpt lat="43.8001857" lon="12.4739016"><ele>493.59999999999997</ele><time>2026-04-26T09:52:23.399Z</time></trkpt><trkpt lat="43.8002976" lon="12.4738517"><ele>494.19999999999993</ele><time>2026-04-26T09:52:24.398Z</time></trkpt><trkpt lat="43.800405" lon="12.4737999"><ele>494.8</ele><time>2026-04-26T09:52:25.398Z</time></trkpt><trkpt lat="43.8005048" lon="12.4737523"><ele>495.4</ele><time>2026-04-26T09:52:26.4Z</time></trkpt><trkpt lat="43.8005884" lon="12.4737186"><ele>496.0</ele><time>2026-04-26T09:52:27.396Z</time></trkpt><trkpt lat="43.8006508" lon="12.4736801"><ele>496.75</ele><time>2026-04-26T09:52:28.401Z</time></trkpt><trkpt lat="43.8007186" lon="12.4734043"><ele>497.5</ele><time>2026-04-26T09:52:31.401Z</time></trkpt><trkpt lat="43.8007149" lon="12.4732456"><ele>498.25</ele><time>2026-04-26T09:52:32.407Z</time></trkpt><trkpt lat="43.800714" lon="12.4730855"><ele>499.0</ele><time>2026-04-26T09:52:33.401Z</time></trkpt><trkpt lat="43.8007102" lon="12.4729195"><ele>502.0</ele><time>2026-04-26T09:52:34.4Z</time></trkpt><trkpt lat="43.80071" lon="12.4727573"><ele>505.0</ele><time>2026-04-26T09:52:35.399Z</time></trkpt><trkpt lat="43.8007051" lon="12.4725964"><ele>508.0</ele><time>2026-04-26T09:52:36.398Z</time></trkpt><trkpt lat="43.8007076" lon="12.4724487"><ele>511.0</ele><time>2026-04-26T09:52:37.404Z</time></trkpt><trkpt lat="43.8007101" lon="12.4723154"><ele>514.0</ele><time>2026-04-26T09:52:38.397Z</time></trkpt><trkpt lat="43.800713" lon="12.4721974"><ele>514.6</ele><time>2026-04-26T09:52:39.4Z</time></trkpt><trkpt lat="43.8007034" lon="12.472083"><ele>515.2</ele><time>2026-04-26T09:52:40.406Z</time></trkpt><trkpt lat="43.8006822" lon="12.4719638"><ele>515.8000000000001</ele><time>2026-04-26T09:52:41.4Z</time></trkpt><trkpt lat="43.8006591" lon="12.4718341"><ele>516.4</ele><time>2026-04-26T09:52:42.399Z</time></trkpt><trkpt lat="43.8006434" lon="12.4716809"><ele>517.0</ele><time>2026-04-26T09:52:43.401Z</time></trkpt><trkpt lat="43.8006459" lon="12.4714916"><ele>517.0</ele><time>2026-04-26T09:52:44.399Z</time></trkpt><trkpt lat="43.8006588" lon="12.4712964"><ele>517.0</ele><time>2026-04-26T09:52:45.405Z</time></trkpt><trkpt lat="43.800673" lon="12.4711036"><ele>517.0</ele><time>2026-04-26T09:52:46.4Z</time></trkpt><trkpt lat="43.8006791" lon="12.4709164"><ele>517.0</ele><time>2026-04-26T09:52:47.404Z</time></trkpt><trkpt lat="43.800687" lon="12.4707425"><ele>515.5</ele><time>2026-04-26T09:52:48.4Z</time></trkpt><trkpt lat="43.8007033" lon="12.47058"><ele>514.0</ele><time>2026-04-26T09:52:49.4Z</time></trkpt><trkpt lat="43.8007731" lon="12.4702865"><ele>512.5</ele><time>2026-04-26T09:52:51.402Z</time></trkpt><trkpt lat="43.8008238" lon="12.4701614"><ele>511.0</ele><time>2026-04-26T09:52:52.399Z</time></trkpt><trkpt lat="43.8008859" lon="12.4700499"><ele>512.2</ele><time>2026-04-26T09:52:53.398Z</time></trkpt><trkpt lat="43.8009542" lon="12.4699412"><ele>513.4000000000001</ele><time>2026-04-26T09:52:54.399Z</time></trkpt><trkpt lat="43.8010241" lon="12.4698495"><ele>514.6</ele><time>2026-04-26T09:52:55.398Z</time></trkpt><trkpt lat="43.8010875" lon="12.469751"><ele>515.8000000000001</ele><time>2026-04-26T09:52:56.4Z</time></trkpt><trkpt lat="43.8011371" lon="12.4696393"><ele>517.0</ele><time>2026-04-26T09:52:57.4Z</time></trkpt><trkpt lat="43.8011881" lon="12.4695197"><ele>513.5</ele><time>2026-04-26T09:52:58.401Z</time></trkpt><trkpt lat="43.8012267" lon="12.4693853"><ele>510.0</ele><time>2026-04-26T09:52:59.401Z</time></trkpt><trkpt lat="43.8012588" lon="12.4692352"><ele>506.5</ele><time>2026-04-26T09:53:00.409Z</time></trkpt><trkpt lat="43.8012862" lon="12.4690769"><ele>503.0</ele><time>2026-04-26T09:53:01.403Z</time></trkpt><trkpt lat="43.8013126" lon="12.4688999"><ele>501.25</ele><time>2026-04-26T09:53:02.409Z</time></trkpt><trkpt lat="43.8013317" lon="12.4687255"><ele>499.5</ele><time>2026-04-26T09:53:03.405Z</time></trkpt><trkpt lat="43.8013438" lon="12.4685557"><ele>497.75</ele><time>2026-04-26T09:53:04.405Z</time></trkpt><trkpt lat="43.801352" lon="12.4683859"><ele>496.0</ele><time>2026-04-26T09:53:05.405Z</time></trkpt><trkpt lat="43.8013619" lon="12.4682091"><ele>496.0</ele><time>2026-04-26T09:53:06.399Z</time></trkpt><trkpt lat="43.8013673" lon="12.4680291"><ele>496.0</ele><time>2026-04-26T09:53:07.402Z</time></trkpt><trkpt lat="43.8013611" lon="12.4678633"><ele>496.0</ele><time>2026-04-26T09:53:08.401Z</time></trkpt><trkpt lat="43.8013615" lon="12.4676944"><ele>496.0</ele><time>2026-04-26T09:53:09.401Z</time></trkpt><trkpt lat="43.8013621" lon="12.4675112"><ele>494.0</ele><time>2026-04-26T09:53:10.403Z</time></trkpt><trkpt lat="43.8013767" lon="12.4671396"><ele>492.0</ele><time>2026-04-26T09:53:12.41Z</time></trkpt><trkpt lat="43.801383" lon="12.46694"><ele>490.0</ele><time>2026-04-26T09:53:13.399Z</time></trkpt><trkpt lat="43.8013975" lon="12.4667277"><ele>487.33333333333337</ele><time>2026-04-26T09:53:14.399Z</time></trkpt><trkpt lat="43.8014009" lon="12.4665094"><ele>484.66666666666663</ele><time>2026-04-26T09:53:15.397Z</time></trkpt><trkpt lat="43.8013963" lon="12.4662868"><ele>482.0</ele><time>2026-04-26T09:53:16.398Z</time></trkpt><trkpt lat="43.8013778" lon="12.4660536"><ele>479.0</ele><time>2026-04-26T09:53:17.41Z</time></trkpt><trkpt lat="43.8013549" lon="12.465837"><ele>476.0</ele><time>2026-04-26T09:53:18.403Z</time></trkpt><trkpt lat="43.801319" lon="12.4656292"><ele>473.0</ele><time>2026-04-26T09:53:19.399Z</time></trkpt><trkpt lat="43.801287" lon="12.4654307"><ele>472.25</ele><time>2026-04-26T09:53:20.402Z</time></trkpt><trkpt lat="43.801258" lon="12.4652349"><ele>471.5</ele><time>2026-04-26T09:53:21.401Z</time></trkpt><trkpt lat="43.8012371" lon="12.4650402"><ele>470.75</ele><time>2026-04-26T09:53:22.406Z</time></trkpt><trkpt lat="43.8012237" lon="12.4648346"><ele>470.0</ele><time>2026-04-26T09:53:23.398Z</time></trkpt><trkpt lat="43.8012254" lon="12.4646124"><ele>470.0</ele><time>2026-04-26T09:53:24.399Z</time></trkpt><trkpt lat="43.8012496" lon="12.4643779"><ele>470.0</ele><time>2026-04-26T09:53:25.401Z</time></trkpt><trkpt lat="43.8012895" lon="12.4641269"><ele>470.0</ele><time>2026-04-26T09:53:26.401Z</time></trkpt><trkpt lat="43.8013233" lon="12.4638551"><ele>472.66666666666663</ele><time>2026-04-26T09:53:27.4Z</time></trkpt><trkpt lat="43.8013551" lon="12.463575"><ele>475.33333333333337</ele><time>2026-04-26T09:53:28.4Z</time></trkpt><trkpt lat="43.801384" lon="12.4633146"><ele>478.0</ele><time>2026-04-26T09:53:29.401Z</time></trkpt><trkpt lat="43.8014052" lon="12.4630814"><ele>479.0</ele><time>2026-04-26T09:53:30.405Z</time></trkpt><trkpt lat="43.8014139" lon="12.4628656"><ele>480.0</ele><time>2026-04-26T09:53:31.404Z</time></trkpt><trkpt lat="43.8013503" lon="12.4624652"><ele>480.0</ele><time>2026-04-26T09:53:33.402Z</time></trkpt><trkpt lat="43.8013017" lon="12.4622666"><ele>480.0</ele><time>2026-04-26T09:53:34.402Z</time></trkpt><trkpt lat="43.8012882" lon="12.4620632"><ele>480.0</ele><time>2026-04-26T09:53:35.401Z</time></trkpt><trkpt lat="43.8013109" lon="12.4618517"><ele>483.0</ele><time>2026-04-26T09:53:36.401Z</time></trkpt><trkpt lat="43.8013598" lon="12.4616333"><ele>486.0</ele><time>2026-04-26T09:53:37.399Z</time></trkpt><trkpt lat="43.8014126" lon="12.461441"><ele>489.0</ele><time>2026-04-26T09:53:38.402Z</time></trkpt><trkpt lat="43.80147" lon="12.4612381"><ele>490.66666666666663</ele><time>2026-04-26T09:53:39.403Z</time></trkpt><trkpt lat="43.8015419" lon="12.4610278"><ele>492.3333333333333</ele><time>2026-04-26T09:53:40.405Z</time></trkpt><trkpt lat="43.8016143" lon="12.4608256"><ele>494.0</ele><time>2026-04-26T09:53:41.402Z</time></trkpt><trkpt lat="43.8016901" lon="12.4606351"><ele>494.0</ele><time>2026-04-26T09:53:42.408Z</time></trkpt><trkpt lat="43.8017557" lon="12.4604563"><ele>494.0</ele><time>2026-04-26T09:53:43.404Z</time></trkpt><trkpt lat="43.8018275" lon="12.4602909"><ele>494.0</ele><time>2026-04-26T09:53:44.402Z</time></trkpt><trkpt lat="43.8019194" lon="12.4601534"><ele>494.0</ele><time>2026-04-26T09:53:45.403Z</time></trkpt><trkpt lat="43.8020346" lon="12.4600267"><ele>489.66666666666663</ele><time>2026-04-26T09:53:46.4Z</time></trkpt><trkpt lat="43.802161" lon="12.4599048"><ele>485.33333333333337</ele><time>2026-04-26T09:53:47.398Z</time></trkpt><trkpt lat="43.8022857" lon="12.4597803"><ele>481.0</ele><time>2026-04-26T09:53:48.401Z</time></trkpt><trkpt lat="43.8023957" lon="12.4596395"><ele>479.6666666666667</ele><time>2026-04-26T09:53:49.399Z</time></trkpt><trkpt lat="43.802495" lon="12.4594686"><ele>478.33333333333337</ele><time>2026-04-26T09:53:50.399Z</time></trkpt><trkpt lat="43.802582" lon="12.4592755"><ele>477.0</ele><time>2026-04-26T09:53:51.401Z</time></trkpt><trkpt lat="43.8026561" lon="12.4590751"><ele>478.0</ele><time>2026-04-26T09:53:52.402Z</time></trkpt><trkpt lat="43.8027611" lon="12.4586755"><ele>479.0</ele><time>2026-04-26T09:53:54.403Z</time></trkpt><trkpt lat="43.802771" lon="12.4584601"><ele>479.0</ele><time>2026-04-26T09:53:55.402Z</time></trkpt><trkpt lat="43.8027531" lon="12.4582164"><ele>479.0</ele><time>2026-04-26T09:53:56.397Z</time></trkpt><trkpt lat="43.8027287" lon="12.4579752"><ele>479.0</ele><time>2026-04-26T09:53:57.397Z</time></trkpt><trkpt lat="43.8027104" lon="12.4577406"><ele>482.3333333333333</ele><time>2026-04-26T09:53:58.399Z</time></trkpt><trkpt lat="43.8026961" lon="12.4575104"><ele>485.66666666666663</ele><time>2026-04-26T09:53:59.4Z</time></trkpt><trkpt lat="43.8026716" lon="12.4572954"><ele>489.0</ele><time>2026-04-26T09:54:00.4Z</time></trkpt><trkpt lat="43.8026531" lon="12.4570863"><ele>483.75</ele><time>2026-04-26T09:54:01.402Z</time></trkpt><trkpt lat="43.8026308" lon="12.4568892"><ele>478.5</ele><time>2026-04-26T09:54:02.399Z</time></trkpt><trkpt lat="43.8025928" lon="12.4567116"><ele>473.25</ele><time>2026-04-26T09:54:03.402Z</time></trkpt><trkpt lat="43.8025409" lon="12.4565616"><ele>468.0</ele><time>2026-04-26T09:54:04.402Z</time></trkpt><trkpt lat="43.8024943" lon="12.4564389"><ele>468.0</ele><time>2026-04-26T09:54:05.399Z</time></trkpt><trkpt lat="43.8024588" lon="12.4563468"><ele>468.0</ele><time>2026-04-26T09:54:06.404Z</time></trkpt><trkpt lat="43.8024293" lon="12.4562678"><ele>468.0</ele><time>2026-04-26T09:54:07.399Z</time></trkpt><trkpt lat="43.8023885" lon="12.4561392"><ele>468.0</ele><time>2026-04-26T09:54:09.408Z</time></trkpt><trkpt lat="43.8023759" lon="12.4559908"><ele>468.0</ele><time>2026-04-26T09:54:11.398Z</time></trkpt><trkpt lat="43.8024109" lon="12.4559074"><ele>468.0</ele><time>2026-04-26T09:54:12.399Z</time></trkpt><trkpt lat="43.8024842" lon="12.4558553"><ele>463.66666666666663</ele><time>2026-04-26T09:54:13.4Z</time></trkpt><trkpt lat="43.8027381" lon="12.4558143"><ele>459.3333333333333</ele><time>2026-04-26T09:54:15.402Z</time></trkpt><trkpt lat="43.8029147" lon="12.4557987"><ele>455.0</ele><time>2026-04-26T09:54:16.396Z</time></trkpt><trkpt lat="43.8030944" lon="12.4557672"><ele>455.0</ele><time>2026-04-26T09:54:17.4Z</time></trkpt><trkpt lat="43.8032819" lon="12.4557609"><ele>455.0</ele><time>2026-04-26T09:54:18.404Z</time></trkpt><trkpt lat="43.803449" lon="12.4557405"><ele>455.0</ele><time>2026-04-26T09:54:19.401Z</time></trkpt><trkpt lat="43.8035945" lon="12.4556882"><ele>456.25</ele><time>2026-04-26T09:54:20.399Z</time></trkpt><trkpt lat="43.8037286" lon="12.4556198"><ele>457.5</ele><time>2026-04-26T09:54:21.399Z</time></trkpt><trkpt lat="43.8038422" lon="12.4555223"><ele>458.75</ele><time>2026-04-26T09:54:22.402Z</time></trkpt><trkpt lat="43.8039536" lon="12.4553703"><ele>460.0</ele><time>2026-04-26T09:54:23.398Z</time></trkpt><trkpt lat="43.804045" lon="12.4551893"><ele>454.6666666666667</ele><time>2026-04-26T09:54:24.399Z</time></trkpt><trkpt lat="43.804121" lon="12.4549803"><ele>449.33333333333337</ele><time>2026-04-26T09:54:25.405Z</time></trkpt><trkpt lat="43.8041863" lon="12.4547489"><ele>444.0</ele><time>2026-04-26T09:54:26.404Z</time></trkpt><trkpt lat="43.8042498" lon="12.4545163"><ele>440.0</ele><time>2026-04-26T09:54:27.397Z</time></trkpt><trkpt lat="43.8043198" lon="12.4542884"><ele>436.0</ele><time>2026-04-26T09:54:28.396Z</time></trkpt><trkpt lat="43.8043855" lon="12.4540654"><ele>432.0</ele><time>2026-04-26T09:54:29.397Z</time></trkpt><trkpt lat="43.8044431" lon="12.4538431"><ele>428.0</ele><time>2026-04-26T09:54:30.402Z</time></trkpt><trkpt lat="43.8045018" lon="12.4536252"><ele>424.0</ele><time>2026-04-26T09:54:31.401Z</time></trkpt><trkpt lat="43.8045615" lon="12.4534121"><ele>420.0</ele><time>2026-04-26T09:54:32.401Z</time></trkpt><trkpt lat="43.8046209" lon="12.453206"><ele>420.0</ele><time>2026-04-26T09:54:33.4Z</time></trkpt><trkpt lat="43.8046999" lon="12.4530136"><ele>420.0</ele><time>2026-04-26T09:54:34.401Z</time></trkpt><trkpt lat="43.8048842" lon="12.452667"><ele>418.5</ele><time>2026-04-26T09:54:36.399Z</time></trkpt><trkpt lat="43.804965" lon="12.4525189"><ele>417.0</ele><time>2026-04-26T09:54:37.399Z</time></trkpt><trkpt lat="43.8050431" lon="12.4523933"><ele>415.5</ele><time>2026-04-26T09:54:38.399Z</time></trkpt><trkpt lat="43.8051253" lon="12.4523021"><ele>414.0</ele><time>2026-04-26T09:54:39.398Z</time></trkpt><trkpt lat="43.8052137" lon="12.4522594"><ele>410.0</ele><time>2026-04-26T09:54:40.399Z</time></trkpt><trkpt lat="43.8053116" lon="12.4522761"><ele>406.0</ele><time>2026-04-26T09:54:41.403Z</time></trkpt><trkpt lat="43.8054131" lon="12.4523606"><ele>402.0</ele><time>2026-04-26T09:54:42.399Z</time></trkpt><trkpt lat="43.8055157" lon="12.4524844"><ele>398.0</ele><time>2026-04-26T09:54:43.401Z</time></trkpt><trkpt lat="43.8056179" lon="12.4526177"><ele>398.0</ele><time>2026-04-26T09:54:44.399Z</time></trkpt><trkpt lat="43.8057321" lon="12.4527288"><ele>398.0</ele><time>2026-04-26T09:54:45.397Z</time></trkpt><trkpt lat="43.8058557" lon="12.4528044"><ele>398.0</ele><time>2026-04-26T09:54:46.404Z</time></trkpt><trkpt lat="43.8059923" lon="12.4528665"><ele>398.0</ele><time>2026-04-26T09:54:47.4Z</time></trkpt><trkpt lat="43.806124" lon="12.4529265"><ele>397.5</ele><time>2026-04-26T09:54:48.396Z</time></trkpt><trkpt lat="43.8062449" lon="12.4529869"><ele>397.0</ele><time>2026-04-26T09:54:49.4Z</time></trkpt><trkpt lat="43.8063568" lon="12.4530379"><ele>396.5</ele><time>2026-04-26T09:54:50.403Z</time></trkpt><trkpt lat="43.806464" lon="12.4530868"><ele>396.0</ele><time>2026-04-26T09:54:51.401Z</time></trkpt><trkpt lat="43.8065705" lon="12.4531153"><ele>396.0</ele><time>2026-04-26T09:54:52.399Z</time></trkpt><trkpt lat="43.8066755" lon="12.4531096"><ele>396.0</ele><time>2026-04-26T09:54:53.397Z</time></trkpt><trkpt lat="43.8067705" lon="12.4530761"><ele>396.0</ele><time>2026-04-26T09:54:54.399Z</time></trkpt><trkpt lat="43.8068689" lon="12.4529933"><ele>396.0</ele><time>2026-04-26T09:54:55.401Z</time></trkpt><trkpt lat="43.807031" lon="12.4526474"><ele>394.0</ele><time>2026-04-26T09:54:57.402Z</time></trkpt><trkpt lat="43.8071065" lon="12.4524735"><ele>392.0</ele><time>2026-04-26T09:54:58.396Z</time></trkpt><trkpt lat="43.8071849" lon="12.4523049"><ele>390.0</ele><time>2026-04-26T09:54:59.4Z</time></trkpt><trkpt lat="43.80726" lon="12.45214"><ele>388.0</ele><time>2026-04-26T09:55:00.398Z</time></trkpt><trkpt lat="43.8073248" lon="12.4519785"><ele>385.75</ele><time>2026-04-26T09:55:01.401Z</time></trkpt><trkpt lat="43.8073889" lon="12.4518186"><ele>383.5</ele><time>2026-04-26T09:55:02.405Z</time></trkpt><trkpt lat="43.8074284" lon="12.4516537"><ele>381.25</ele><time>2026-04-26T09:55:03.406Z</time></trkpt><trkpt lat="43.8074568" lon="12.4514774"><ele>379.0</ele><time>2026-04-26T09:55:04.398Z</time></trkpt><trkpt lat="43.8074551" lon="12.4512537"><ele>375.75</ele><time>2026-04-26T09:55:05.396Z</time></trkpt><trkpt lat="43.807477" lon="12.4510652"><ele>372.5</ele><time>2026-04-26T09:55:06.399Z</time></trkpt><trkpt lat="43.8075042" lon="12.4508754"><ele>369.25</ele><time>2026-04-26T09:55:07.397Z</time></trkpt><trkpt lat="43.8075417" lon="12.4507059"><ele>366.0</ele><time>2026-04-26T09:55:08.399Z</time></trkpt><trkpt lat="43.8075856" lon="12.4505355"><ele>364.75</ele><time>2026-04-26T09:55:09.397Z</time></trkpt><trkpt lat="43.8076346" lon="12.4503718"><ele>363.5</ele><time>2026-04-26T09:55:10.401Z</time></trkpt><trkpt lat="43.80767" lon="12.4501904"><ele>362.25</ele><time>2026-04-26T09:55:11.396Z</time></trkpt><trkpt lat="43.8076934" lon="12.4500127"><ele>361.0</ele><time>2026-04-26T09:55:12.397Z</time></trkpt><trkpt lat="43.8076916" lon="12.4498182"><ele>362.25</ele><time>2026-04-26T09:55:13.398Z</time></trkpt><trkpt lat="43.8076529" lon="12.449614"><ele>363.5</ele><time>2026-04-26T09:55:14.398Z</time></trkpt><trkpt lat="43.8076069" lon="12.4494156"><ele>364.75</ele><time>2026-04-26T09:55:15.402Z</time></trkpt><trkpt lat="43.8075497" lon="12.4492481"><ele>366.0</ele><time>2026-04-26T09:55:16.402Z</time></trkpt><trkpt lat="43.8073266" lon="12.4489583"><ele>366.0</ele><time>2026-04-26T09:55:18.402Z</time></trkpt><trkpt lat="43.8071999" lon="12.448869"><ele>366.0</ele><time>2026-04-26T09:55:19.404Z</time></trkpt><trkpt lat="43.8070827" lon="12.4487852"><ele>366.0</ele><time>2026-04-26T09:55:20.399Z</time></trkpt><trkpt lat="43.8069835" lon="12.4486709"><ele>366.0</ele><time>2026-04-26T09:55:21.399Z</time></trkpt><trkpt lat="43.8068834" lon="12.4485164"><ele>366.25</ele><time>2026-04-26T09:55:22.398Z</time></trkpt><trkpt lat="43.8067862" lon="12.448347"><ele>366.5</ele><time>2026-04-26T09:55:23.4Z</time></trkpt><trkpt lat="43.8066946" lon="12.4481809"><ele>366.75</ele><time>2026-04-26T09:55:24.4Z</time></trkpt><trkpt lat="43.8066139" lon="12.4480318"><ele>367.0</ele><time>2026-04-26T09:55:25.398Z</time></trkpt><trkpt lat="43.8065421" lon="12.4478881"><ele>370.25</ele><time>2026-04-26T09:55:26.395Z</time></trkpt><trkpt lat="43.8064751" lon="12.4477402"><ele>373.5</ele><time>2026-04-26T09:55:27.4Z</time></trkpt><trkpt lat="43.8064106" lon="12.4475705"><ele>376.75</ele><time>2026-04-26T09:55:28.394Z</time></trkpt><trkpt lat="43.8063428" lon="12.4473916"><ele>380.0</ele><time>2026-04-26T09:55:29.399Z</time></trkpt><trkpt lat="43.8062708" lon="12.4472051"><ele>381.0</ele><time>2026-04-26T09:55:30.4Z</time></trkpt><trkpt lat="43.8061991" lon="12.4470125"><ele>382.0</ele><time>2026-04-26T09:55:31.397Z</time></trkpt><trkpt lat="43.8061233" lon="12.4468317"><ele>383.0</ele><time>2026-04-26T09:55:32.402Z</time></trkpt><trkpt lat="43.8060571" lon="12.4466634"><ele>384.0</ele><time>2026-04-26T09:55:33.4Z</time></trkpt><trkpt lat="43.805988" lon="12.4465162"><ele>378.25</ele><time>2026-04-26T09:55:34.398Z</time></trkpt><trkpt lat="43.8059196" lon="12.4463771"><ele>372.5</ele><time>2026-04-26T09:55:35.401Z</time></trkpt><trkpt lat="43.8058551" lon="12.4462448"><ele>366.75</ele><time>2026-04-26T09:55:36.397Z</time></trkpt><trkpt lat="43.8058016" lon="12.4461349"><ele>361.0</ele><time>2026-04-26T09:55:37.398Z</time></trkpt><trkpt lat="43.8057032" lon="12.4458906"><ele>361.0</ele><time>2026-04-26T09:55:39.396Z</time></trkpt><trkpt lat="43.8056701" lon="12.4457596"><ele>361.0</ele><time>2026-04-26T09:55:40.395Z</time></trkpt><trkpt lat="43.8056448" lon="12.4456258"><ele>361.0</ele><time>2026-04-26T09:55:41.395Z</time></trkpt><trkpt lat="43.8056158" lon="12.4454912"><ele>361.0</ele><time>2026-04-26T09:55:42.399Z</time></trkpt><trkpt lat="43.8055874" lon="12.4453587"><ele>361.0</ele><time>2026-04-26T09:55:43.398Z</time></trkpt><trkpt lat="43.8055823" lon="12.4452239"><ele>359.25</ele><time>2026-04-26T09:55:44.399Z</time></trkpt><trkpt lat="43.8055946" lon="12.4450829"><ele>357.5</ele><time>2026-04-26T09:55:45.399Z</time></trkpt><trkpt lat="43.8056216" lon="12.4449205"><ele>355.75</ele><time>2026-04-26T09:55:46.398Z</time></trkpt><trkpt lat="43.8056694" lon="12.4447692"><ele>354.0</ele><time>2026-04-26T09:55:47.397Z</time></trkpt><trkpt lat="43.8057353" lon="12.4446489"><ele>352.75</ele><time>2026-04-26T09:55:48.398Z</time></trkpt><trkpt lat="43.805811" lon="12.4445282"><ele>351.5</ele><time>2026-04-26T09:55:49.398Z</time></trkpt><trkpt lat="43.8059141" lon="12.4444192"><ele>350.25</ele><time>2026-04-26T09:55:50.4Z</time></trkpt><trkpt lat="43.8060426" lon="12.4443015"><ele>349.0</ele><time>2026-04-26T09:55:51.397Z</time></trkpt><trkpt lat="43.8061899" lon="12.4441583"><ele>349.0</ele><time>2026-04-26T09:55:52.398Z</time></trkpt><trkpt lat="43.8063474" lon="12.4440029"><ele>349.0</ele><time>2026-04-26T09:55:53.401Z</time></trkpt><trkpt lat="43.8065042" lon="12.4438477"><ele>349.0</ele><time>2026-04-26T09:55:54.4Z</time></trkpt><trkpt lat="43.806664" lon="12.4437088"><ele>345.0</ele><time>2026-04-26T09:55:55.397Z</time></trkpt><trkpt lat="43.8068201" lon="12.4435891"><ele>341.0</ele><time>2026-04-26T09:55:56.399Z</time></trkpt><trkpt lat="43.8069857" lon="12.4435122"><ele>337.0</ele><time>2026-04-26T09:55:57.395Z</time></trkpt><trkpt lat="43.8071779" lon="12.4434738"><ele>337.0</ele><time>2026-04-26T09:55:58.395Z</time></trkpt><trkpt lat="43.8076099" lon="12.4434487"><ele>337.0</ele><time>2026-04-26T09:56:00.397Z</time></trkpt><trkpt lat="43.8078386" lon="12.4434406"><ele>335.5</ele><time>2026-04-26T09:56:01.404Z</time></trkpt><trkpt lat="43.8080683" lon="12.4434419"><ele>334.0</ele><time>2026-04-26T09:56:02.399Z</time></trkpt><trkpt lat="43.8083047" lon="12.4434304"><ele>334.0</ele><time>2026-04-26T09:56:03.4Z</time></trkpt><trkpt lat="43.8085313" lon="12.4434257"><ele>334.0</ele><time>2026-04-26T09:56:04.399Z</time></trkpt><trkpt lat="43.8087472" lon="12.4434297"><ele>334.0</ele><time>2026-04-26T09:56:05.405Z</time></trkpt><trkpt lat="43.8089485" lon="12.4434502"><ele>334.0</ele><time>2026-04-26T09:56:06.405Z</time></trkpt><trkpt lat="43.8090838" lon="12.4434461"><ele>334.0</ele><time>2026-04-26T09:56:07.404Z</time></trkpt><trkpt lat="43.8092087" lon="12.4434308"><ele>334.0</ele><time>2026-04-26T09:56:08.403Z</time></trkpt><trkpt lat="43.8092896" lon="12.4433527"><ele>334.0</ele><time>2026-04-26T09:56:09.398Z</time></trkpt><trkpt lat="43.8093542" lon="12.4432746"><ele>334.0</ele><time>2026-04-26T09:56:10.398Z</time></trkpt><trkpt lat="43.8094075" lon="12.4432184"><ele>335.4</ele><time>2026-04-26T09:56:11.398Z</time></trkpt><trkpt lat="43.8094808" lon="12.4431814"><ele>336.79999999999995</ele><time>2026-04-26T09:56:12.4Z</time></trkpt><trkpt lat="43.8095702" lon="12.4431672"><ele>338.20000000000005</ele><time>2026-04-26T09:56:13.402Z</time></trkpt><trkpt lat="43.8096885" lon="12.4431651"><ele>339.6</ele><time>2026-04-26T09:56:14.4Z</time></trkpt><trkpt lat="43.8098279" lon="12.4431495"><ele>341.0</ele><time>2026-04-26T09:56:15.397Z</time></trkpt><trkpt lat="43.8099835" lon="12.443133"><ele>341.0</ele><time>2026-04-26T09:56:16.394Z</time></trkpt><trkpt lat="43.8101549" lon="12.4431428"><ele>341.0</ele><time>2026-04-26T09:56:17.393Z</time></trkpt><trkpt lat="43.8103291" lon="12.4431931"><ele>341.0</ele><time>2026-04-26T09:56:18.395Z</time></trkpt><trkpt lat="43.810507" lon="12.4432532"><ele>342.0</ele><time>2026-04-26T09:56:19.397Z</time></trkpt><trkpt lat="43.8108799" lon="12.4433775"><ele>343.0</ele><time>2026-04-26T09:56:21.397Z</time></trkpt><trkpt lat="43.8110531" lon="12.443447"><ele>340.3333333333333</ele><time>2026-04-26T09:56:22.402Z</time></trkpt><trkpt lat="43.8112153" lon="12.44353"><ele>337.6666666666667</ele><time>2026-04-26T09:56:23.401Z</time></trkpt><trkpt lat="43.811379" lon="12.4436132"><ele>335.0</ele><time>2026-04-26T09:56:24.399Z</time></trkpt><trkpt lat="43.8115549" lon="12.4436823"><ele>335.0</ele><time>2026-04-26T09:56:25.4Z</time></trkpt><trkpt lat="43.8117374" lon="12.4437293"><ele>335.0</ele><time>2026-04-26T09:56:26.397Z</time></trkpt><trkpt lat="43.8119306" lon="12.443756"><ele>335.0</ele><time>2026-04-26T09:56:27.399Z</time></trkpt><trkpt lat="43.8121252" lon="12.4437744"><ele>336.6666666666667</ele><time>2026-04-26T09:56:28.398Z</time></trkpt><trkpt lat="43.8123065" lon="12.4437993"><ele>338.3333333333333</ele><time>2026-04-26T09:56:29.397Z</time></trkpt><trkpt lat="43.8124841" lon="12.4438365"><ele>340.0</ele><time>2026-04-26T09:56:30.4Z</time></trkpt><trkpt lat="43.8126568" lon="12.4438839"><ele>340.0</ele><time>2026-04-26T09:56:31.396Z</time></trkpt><trkpt lat="43.8128253" lon="12.4439323"><ele>340.0</ele><time>2026-04-26T09:56:32.403Z</time></trkpt><trkpt lat="43.8129912" lon="12.4439985"><ele>340.0</ele><time>2026-04-26T09:56:33.406Z</time></trkpt><trkpt lat="43.8131602" lon="12.4440871"><ele>340.0</ele><time>2026-04-26T09:56:34.397Z</time></trkpt><trkpt lat="43.8133284" lon="12.4442015"><ele>340.0</ele><time>2026-04-26T09:56:35.403Z</time></trkpt><trkpt lat="43.8134969" lon="12.4443251"><ele>340.0</ele><time>2026-04-26T09:56:36.401Z</time></trkpt><trkpt lat="43.8136618" lon="12.4444465"><ele>341.66666666666663</ele><time>2026-04-26T09:56:37.402Z</time></trkpt><trkpt lat="43.8138116" lon="12.4445643"><ele>343.3333333333333</ele><time>2026-04-26T09:56:38.397Z</time></trkpt><trkpt lat="43.8139512" lon="12.4446852"><ele>345.0</ele><time>2026-04-26T09:56:39.396Z</time></trkpt><trkpt lat="43.8140776" lon="12.4448322"><ele>345.0</ele><time>2026-04-26T09:56:40.402Z</time></trkpt><trkpt lat="43.814304" lon="12.4451203"><ele>345.0</ele><time>2026-04-26T09:56:42.4Z</time></trkpt><trkpt lat="43.8144014" lon="12.4452487"><ele>345.0</ele><time>2026-04-26T09:56:43.401Z</time></trkpt><trkpt lat="43.8144883" lon="12.445371"><ele>348.6</ele><time>2026-04-26T09:56:44.402Z</time></trkpt><trkpt lat="43.8145634" lon="12.4454783"><ele>352.2</ele><time>2026-04-26T09:56:45.399Z</time></trkpt><trkpt lat="43.8146298" lon="12.4455595"><ele>355.79999999999995</ele><time>2026-04-26T09:56:46.398Z</time></trkpt><trkpt lat="43.8147042" lon="12.4455884"><ele>359.4</ele><time>2026-04-26T09:56:47.405Z</time></trkpt><trkpt lat="43.8147976" lon="12.445561"><ele>363.0</ele><time>2026-04-26T09:56:48.401Z</time></trkpt><trkpt lat="43.8149151" lon="12.4455009"><ele>363.3333333333333</ele><time>2026-04-26T09:56:49.403Z</time></trkpt><trkpt lat="43.815058" lon="12.4454492"><ele>363.66666666666663</ele><time>2026-04-26T09:56:50.405Z</time></trkpt><trkpt lat="43.815217" lon="12.445398"><ele>364.0</ele><time>2026-04-26T09:56:51.397Z</time></trkpt><trkpt lat="43.8153898" lon="12.4453327"><ele>364.0</ele><time>2026-04-26T09:56:52.399Z</time></trkpt><trkpt lat="43.8155832" lon="12.4452681"><ele>364.0</ele><time>2026-04-26T09:56:53.4Z</time></trkpt><trkpt lat="43.8157456" lon="12.4451775"><ele>364.0</ele><time>2026-04-26T09:56:54.403Z</time></trkpt><trkpt lat="43.8159093" lon="12.4451085"><ele>373.3333333333333</ele><time>2026-04-26T09:56:55.399Z</time></trkpt><trkpt lat="43.8160547" lon="12.4450288"><ele>382.66666666666663</ele><time>2026-04-26T09:56:56.394Z</time></trkpt><trkpt lat="43.8161717" lon="12.444888"><ele>392.0</ele><time>2026-04-26T09:56:57.395Z</time></trkpt><trkpt lat="43.816272" lon="12.4446993"><ele>388.3333333333333</ele><time>2026-04-26T09:56:58.398Z</time></trkpt><trkpt lat="43.8163618" lon="12.444478"><ele>384.66666666666663</ele><time>2026-04-26T09:56:59.404Z</time></trkpt><trkpt lat="43.8164482" lon="12.4442599"><ele>381.0</ele><time>2026-04-26T09:57:00.4Z</time></trkpt><trkpt lat="43.8165269" lon="12.4440705"><ele>381.6666666666667</ele><time>2026-04-26T09:57:01.404Z</time></trkpt><trkpt lat="43.8167212" lon="12.4437907"><ele>382.33333333333337</ele><time>2026-04-26T09:57:03.399Z</time></trkpt><trkpt lat="43.8168397" lon="12.4436944"><ele>383.0</ele><time>2026-04-26T09:57:04.4Z</time></trkpt><trkpt lat="43.8169589" lon="12.4436087"><ele>383.0</ele><time>2026-04-26T09:57:05.402Z</time></trkpt><trkpt lat="43.8171" lon="12.4435334"><ele>383.0</ele><time>2026-04-26T09:57:06.406Z</time></trkpt><trkpt lat="43.8172572" lon="12.4434677"><ele>383.0</ele><time>2026-04-26T09:57:07.408Z</time></trkpt><trkpt lat="43.8174219" lon="12.4434089"><ele>383.0</ele><time>2026-04-26T09:57:08.397Z</time></trkpt><trkpt lat="43.8175836" lon="12.4433736"><ele>383.0</ele><time>2026-04-26T09:57:09.415Z</time></trkpt><trkpt lat="43.8177374" lon="12.4433641"><ele>383.0</ele><time>2026-04-26T09:57:10.399Z</time></trkpt><trkpt lat="43.817883" lon="12.4433703"><ele>383.33333333333337</ele><time>2026-04-26T09:57:11.398Z</time></trkpt><trkpt lat="43.8180315" lon="12.4434111"><ele>383.6666666666667</ele><time>2026-04-26T09:57:12.397Z</time></trkpt><trkpt lat="43.8181774" lon="12.4434745"><ele>384.0</ele><time>2026-04-26T09:57:13.397Z</time></trkpt><trkpt lat="43.8183271" lon="12.4435257"><ele>384.0</ele><time>2026-04-26T09:57:14.399Z</time></trkpt><trkpt lat="43.818478" lon="12.4435637"><ele>384.0</ele><time>2026-04-26T09:57:15.397Z</time></trkpt><trkpt lat="43.818626" lon="12.4435973"><ele>384.0</ele><time>2026-04-26T09:57:16.395Z</time></trkpt><trkpt lat="43.8187677" lon="12.4436565"><ele>385.66666666666663</ele><time>2026-04-26T09:57:17.399Z</time></trkpt><trkpt lat="43.8188984" lon="12.4437516"><ele>387.3333333333333</ele><time>2026-04-26T09:57:18.396Z</time></trkpt><trkpt lat="43.8190193" lon="12.4438848"><ele>389.0</ele><time>2026-04-26T09:57:19.397Z</time></trkpt><trkpt lat="43.8191485" lon="12.4440158"><ele>391.66666666666663</ele><time>2026-04-26T09:57:20.402Z</time></trkpt><trkpt lat="43.8193029" lon="12.4441091"><ele>394.33333333333337</ele><time>2026-04-26T09:57:21.4Z</time></trkpt><trkpt lat="43.8194766" lon="12.4441643"><ele>397.0</ele><time>2026-04-26T09:57:22.399Z</time></trkpt><trkpt lat="43.8198521" lon="12.4441536"><ele>398.33333333333337</ele><time>2026-04-26T09:57:24.398Z</time></trkpt><trkpt lat="43.8200384" lon="12.4441008"><ele>399.66666666666663</ele><time>2026-04-26T09:57:25.397Z</time></trkpt><trkpt lat="43.820232" lon="12.4440302"><ele>401.0</ele><time>2026-04-26T09:57:26.397Z</time></trkpt><trkpt lat="43.8204236" lon="12.443954"><ele>404.66666666666663</ele><time>2026-04-26T09:57:27.399Z</time></trkpt><trkpt lat="43.8206184" lon="12.4438847"><ele>408.33333333333337</ele><time>2026-04-26T09:57:28.406Z</time></trkpt><trkpt lat="43.8208051" lon="12.4438113"><ele>412.0</ele><time>2026-04-26T09:57:29.399Z</time></trkpt><trkpt lat="43.8209841" lon="12.4437341"><ele>416.75</ele><time>2026-04-26T09:57:30.403Z</time></trkpt><trkpt lat="43.8211436" lon="12.4436816"><ele>421.5</ele><time>2026-04-26T09:57:31.402Z</time></trkpt><trkpt lat="43.8212789" lon="12.4436624"><ele>426.25</ele><time>2026-04-26T09:57:32.4Z</time></trkpt><trkpt lat="43.8214059" lon="12.4437013"><ele>431.0</ele><time>2026-04-26T09:57:33.396Z</time></trkpt><trkpt lat="43.8215238" lon="12.4437879"><ele>429.25</ele><time>2026-04-26T09:57:34.398Z</time></trkpt><trkpt lat="43.8216282" lon="12.4439201"><ele>427.5</ele><time>2026-04-26T09:57:35.4Z</time></trkpt><trkpt lat="43.8217091" lon="12.4440822"><ele>425.75</ele><time>2026-04-26T09:57:36.4Z</time></trkpt><trkpt lat="43.8217696" lon="12.4442675"><ele>424.0</ele><time>2026-04-26T09:57:37.401Z</time></trkpt><trkpt lat="43.8217947" lon="12.4444668"><ele>425.0</ele><time>2026-04-26T09:57:38.402Z</time></trkpt><trkpt lat="43.8217888" lon="12.4446734"><ele>426.0</ele><time>2026-04-26T09:57:39.395Z</time></trkpt><trkpt lat="43.8217611" lon="12.4448794"><ele>427.0</ele><time>2026-04-26T09:57:40.406Z</time></trkpt><trkpt lat="43.8217367" lon="12.4450699"><ele>428.0</ele><time>2026-04-26T09:57:41.397Z</time></trkpt><trkpt lat="43.821721" lon="12.445234"><ele>428.0</ele><time>2026-04-26T09:57:42.4Z</time></trkpt><trkpt lat="43.8217237" lon="12.4453659"><ele>428.0</ele><time>2026-04-26T09:57:43.402Z</time></trkpt><trkpt lat="43.8218095" lon="12.4455132"><ele>428.0</ele><time>2026-04-26T09:57:46.398Z</time></trkpt><trkpt lat="43.821946" lon="12.4455086"><ele>428.0</ele><time>2026-04-26T09:57:48.403Z</time></trkpt><trkpt lat="43.8220291" lon="12.4454762"><ele>431.2</ele><time>2026-04-26T09:57:49.403Z</time></trkpt><trkpt lat="43.8221136" lon="12.445423"><ele>434.4</ele><time>2026-04-26T09:57:50.397Z</time></trkpt><trkpt lat="43.8221942" lon="12.4453735"><ele>437.59999999999997</ele><time>2026-04-26T09:57:51.397Z</time></trkpt><trkpt lat="43.8222758" lon="12.4453158"><ele>440.79999999999995</ele><time>2026-04-26T09:57:52.397Z</time></trkpt><trkpt lat="43.822367" lon="12.4452503"><ele>444.0</ele><time>2026-04-26T09:57:53.399Z</time></trkpt><trkpt lat="43.8224577" lon="12.4451834"><ele>444.0</ele><time>2026-04-26T09:57:54.403Z</time></trkpt><trkpt lat="43.8225537" lon="12.4451164"><ele>444.0</ele><time>2026-04-26T09:57:55.405Z</time></trkpt><trkpt lat="43.8226548" lon="12.4450455"><ele>444.0</ele><time>2026-04-26T09:57:56.405Z</time></trkpt><trkpt lat="43.8227619" lon="12.4449656"><ele>444.0</ele><time>2026-04-26T09:57:57.401Z</time></trkpt><trkpt lat="43.8228794" lon="12.4448832"><ele>447.75</ele><time>2026-04-26T09:57:58.4Z</time></trkpt><trkpt lat="43.8229969" lon="12.444788"><ele>451.5</ele><time>2026-04-26T09:57:59.399Z</time></trkpt><trkpt lat="43.8231233" lon="12.4446891"><ele>455.25</ele><time>2026-04-26T09:58:00.398Z</time></trkpt><trkpt lat="43.8232539" lon="12.4445848"><ele>459.0</ele><time>2026-04-26T09:58:01.4Z</time></trkpt><trkpt lat="43.823393" lon="12.4444707"><ele>463.66666666666663</ele><time>2026-04-26T09:58:02.401Z</time></trkpt><trkpt lat="43.8235476" lon="12.4443474"><ele>468.3333333333333</ele><time>2026-04-26T09:58:03.397Z</time></trkpt><trkpt lat="43.8237032" lon="12.4442183"><ele>473.0</ele><time>2026-04-26T09:58:04.408Z</time></trkpt><trkpt lat="43.8239813" lon="12.4439991"><ele>473.0</ele><time>2026-04-26T09:58:06.399Z</time></trkpt><trkpt lat="43.824116" lon="12.4438906"><ele>473.0</ele><time>2026-04-26T09:58:07.399Z</time></trkpt><trkpt lat="43.8242318" lon="12.4437687"><ele>473.0</ele><time>2026-04-26T09:58:08.399Z</time></trkpt><trkpt lat="43.8243364" lon="12.4436307"><ele>473.0</ele><time>2026-04-26T09:58:09.397Z</time></trkpt><trkpt lat="43.8244282" lon="12.4434965"><ele>474.79999999999995</ele><time>2026-04-26T09:58:10.397Z</time></trkpt><trkpt lat="43.8245052" lon="12.4433733"><ele>476.59999999999997</ele><time>2026-04-26T09:58:11.398Z</time></trkpt><trkpt lat="43.8245832" lon="12.4432704"><ele>478.40000000000003</ele><time>2026-04-26T09:58:12.401Z</time></trkpt><trkpt lat="43.8246618" lon="12.4432036"><ele>480.20000000000005</ele><time>2026-04-26T09:58:13.396Z</time></trkpt><trkpt lat="43.8247503" lon="12.4431807"><ele>482.0</ele><time>2026-04-26T09:58:14.402Z</time></trkpt><trkpt lat="43.8248525" lon="12.4431887"><ele>482.0</ele><time>2026-04-26T09:58:15.401Z</time></trkpt><trkpt lat="43.8249754" lon="12.4432366"><ele>482.00000000000006</ele><time>2026-04-26T09:58:16.406Z</time></trkpt><trkpt lat="43.825093" lon="12.4432779"><ele>482.00000000000006</ele><time>2026-04-26T09:58:17.407Z</time></trkpt><trkpt lat="43.8251832" lon="12.4433203"><ele>482.0</ele><time>2026-04-26T09:58:18.403Z</time></trkpt><trkpt lat="43.8252671" lon="12.4433543"><ele>482.0</ele><time>2026-04-26T09:58:19.396Z</time></trkpt><trkpt lat="43.8253296" lon="12.4433816"><ele>483.75</ele><time>2026-04-26T09:58:20.398Z</time></trkpt><trkpt lat="43.8254086" lon="12.4434189"><ele>485.5</ele><time>2026-04-26T09:58:22.4Z</time></trkpt><trkpt lat="43.8254676" lon="12.4432882"><ele>487.25</ele><time>2026-04-26T09:58:25.407Z</time></trkpt><trkpt lat="43.8254663" lon="12.443032"><ele>489.0</ele><time>2026-04-26T09:58:27.405Z</time></trkpt><trkpt lat="43.825499" lon="12.4428643"><ele>489.5</ele><time>2026-04-26T09:58:28.403Z</time></trkpt><trkpt lat="43.8255517" lon="12.4426885"><ele>490.0</ele><time>2026-04-26T09:58:29.394Z</time></trkpt><trkpt lat="43.8256257" lon="12.4425143"><ele>490.5</ele><time>2026-04-26T09:58:30.395Z</time></trkpt><trkpt lat="43.8257211" lon="12.442369"><ele>491.0</ele><time>2026-04-26T09:58:31.396Z</time></trkpt><trkpt lat="43.8258305" lon="12.4422303"><ele>489.66666666666663</ele><time>2026-04-26T09:58:32.397Z</time></trkpt><trkpt lat="43.8259587" lon="12.4421001"><ele>488.33333333333337</ele><time>2026-04-26T09:58:33.402Z</time></trkpt><trkpt lat="43.8261158" lon="12.4419809"><ele>487.0</ele><time>2026-04-26T09:58:34.398Z</time></trkpt><trkpt lat="43.8262763" lon="12.4418869"><ele>490.5</ele><time>2026-04-26T09:58:35.403Z</time></trkpt><trkpt lat="43.8264229" lon="12.4418052"><ele>494.0</ele><time>2026-04-26T09:58:36.399Z</time></trkpt><trkpt lat="43.8265626" lon="12.4417359"><ele>497.5</ele><time>2026-04-26T09:58:37.399Z</time></trkpt><trkpt lat="43.8266939" lon="12.4416681"><ele>501.0</ele><time>2026-04-26T09:58:38.399Z</time></trkpt><trkpt lat="43.8268204" lon="12.4415653"><ele>506.0</ele><time>2026-04-26T09:58:39.398Z</time></trkpt><trkpt lat="43.8269546" lon="12.4414278"><ele>511.0</ele><time>2026-04-26T09:58:40.399Z</time></trkpt><trkpt lat="43.8270944" lon="12.4412743"><ele>516.0</ele><time>2026-04-26T09:58:41.404Z</time></trkpt><trkpt lat="43.8272203" lon="12.4411123"><ele>516.0</ele><time>2026-04-26T09:58:42.396Z</time></trkpt><trkpt lat="43.8273337" lon="12.4409465"><ele>516.0</ele><time>2026-04-26T09:58:43.404Z</time></trkpt><trkpt lat="43.8274348" lon="12.4407645"><ele>516.0</ele><time>2026-04-26T09:58:44.397Z</time></trkpt><trkpt lat="43.827523" lon="12.4405503"><ele>514.0</ele><time>2026-04-26T09:58:45.402Z</time></trkpt><trkpt lat="43.8275869" lon="12.4403114"><ele>512.0</ele><time>2026-04-26T09:58:46.397Z</time></trkpt><trkpt lat="43.8276715" lon="12.4397989"><ele>522.3333333333333</ele><time>2026-04-26T09:58:48.399Z</time></trkpt><trkpt lat="43.8277091" lon="12.4395605"><ele>532.6666666666666</ele><time>2026-04-26T09:58:49.399Z</time></trkpt><trkpt lat="43.8277409" lon="12.4393467"><ele>543.0</ele><time>2026-04-26T09:58:50.406Z</time></trkpt><trkpt lat="43.8277634" lon="12.4391593"><ele>543.0</ele><time>2026-04-26T09:58:51.402Z</time></trkpt><trkpt lat="43.827769" lon="12.4389721"><ele>543.0</ele><time>2026-04-26T09:58:52.403Z</time></trkpt><trkpt lat="43.8277477" lon="12.4387769"><ele>543.0</ele><time>2026-04-26T09:58:53.405Z</time></trkpt><trkpt lat="43.8276498" lon="12.4385903"><ele>543.0</ele><time>2026-04-26T09:58:54.4Z</time></trkpt><trkpt lat="43.8275145" lon="12.4384111"><ele>540.6666666666666</ele><time>2026-04-26T09:58:55.402Z</time></trkpt><trkpt lat="43.8273804" lon="12.4382405"><ele>538.3333333333333</ele><time>2026-04-26T09:58:56.404Z</time></trkpt><trkpt lat="43.8272424" lon="12.4380906"><ele>536.0</ele><time>2026-04-26T09:58:57.399Z</time></trkpt><trkpt lat="43.8270996" lon="12.4379556"><ele>536.3333333333333</ele><time>2026-04-26T09:58:58.396Z</time></trkpt><trkpt lat="43.8269494" lon="12.437823"><ele>536.6666666666666</ele><time>2026-04-26T09:58:59.4Z</time></trkpt><trkpt lat="43.8268049" lon="12.4377022"><ele>537.0</ele><time>2026-04-26T09:59:00.395Z</time></trkpt><trkpt lat="43.8266735" lon="12.4375933"><ele>537.0</ele><time>2026-04-26T09:59:01.401Z</time></trkpt><trkpt lat="43.8265619" lon="12.4374763"><ele>537.0</ele><time>2026-04-26T09:59:02.399Z</time></trkpt><trkpt lat="43.8264749" lon="12.4373459"><ele>537.0</ele><time>2026-04-26T09:59:03.405Z</time></trkpt><trkpt lat="43.8264151" lon="12.4372073"><ele>537.0</ele><time>2026-04-26T09:59:04.403Z</time></trkpt><trkpt lat="43.8263874" lon="12.4370596"><ele>536.5</ele><time>2026-04-26T09:59:05.399Z</time></trkpt><trkpt lat="43.8263934" lon="12.4369106"><ele>536.0</ele><time>2026-04-26T09:59:06.399Z</time></trkpt><trkpt lat="43.8264355" lon="12.4367798"><ele>535.5</ele><time>2026-04-26T09:59:07.4Z</time></trkpt><trkpt lat="43.8266339" lon="12.4366281"><ele>535.0</ele><time>2026-04-26T09:59:09.399Z</time></trkpt><trkpt lat="43.8267918" lon="12.4365963"><ele>539.6666666666667</ele><time>2026-04-26T09:59:10.397Z</time></trkpt><trkpt lat="43.8269702" lon="12.4365774"><ele>544.3333333333334</ele><time>2026-04-26T09:59:11.4Z</time></trkpt><trkpt lat="43.8271596" lon="12.4365796"><ele>549.0</ele><time>2026-04-26T09:59:12.4Z</time></trkpt><trkpt lat="43.8273375" lon="12.4365934"><ele>549.0</ele><time>2026-04-26T09:59:13.401Z</time></trkpt><trkpt lat="43.8274936" lon="12.4365968"><ele>549.0</ele><time>2026-04-26T09:59:14.402Z</time></trkpt><trkpt lat="43.8276329" lon="12.4365713"><ele>549.0</ele><time>2026-04-26T09:59:15.396Z</time></trkpt><trkpt lat="43.8277593" lon="12.4365057"><ele>549.0</ele><time>2026-04-26T09:59:16.395Z</time></trkpt><trkpt lat="43.8278527" lon="12.4363753"><ele>554.0</ele><time>2026-04-26T09:59:17.4Z</time></trkpt><trkpt lat="43.827915" lon="12.4361938"><ele>559.0</ele><time>2026-04-26T09:59:18.399Z</time></trkpt><trkpt lat="43.8279515" lon="12.4359802"><ele>564.0</ele><time>2026-04-26T09:59:19.404Z</time></trkpt><trkpt lat="43.8279738" lon="12.4357747"><ele>564.0</ele><time>2026-04-26T09:59:20.4Z</time></trkpt><trkpt lat="43.8280155" lon="12.4356023"><ele>564.0</ele><time>2026-04-26T09:59:21.401Z</time></trkpt><trkpt lat="43.8280958" lon="12.4354527"><ele>564.0</ele><time>2026-04-26T09:59:22.399Z</time></trkpt><trkpt lat="43.8282104" lon="12.4353226"><ele>564.0</ele><time>2026-04-26T09:59:23.4Z</time></trkpt><trkpt lat="43.8283483" lon="12.4352212"><ele>566.25</ele><time>2026-04-26T09:59:24.396Z</time></trkpt><trkpt lat="43.8284937" lon="12.4351469"><ele>568.5</ele><time>2026-04-26T09:59:25.397Z</time></trkpt><trkpt lat="43.8286308" lon="12.4350978"><ele>570.75</ele><time>2026-04-26T09:59:26.401Z</time></trkpt><trkpt lat="43.8287475" lon="12.4350441"><ele>573.0</ele><time>2026-04-26T09:59:27.399Z</time></trkpt><trkpt lat="43.828835" lon="12.4349462"><ele>572.3333333333334</ele><time>2026-04-26T09:59:28.403Z</time></trkpt><trkpt lat="43.8288948" lon="12.4345976"><ele>571.6666666666667</ele><time>2026-04-26T09:59:30.398Z</time></trkpt><trkpt lat="43.8289" lon="12.4343728"><ele>571.0</ele><time>2026-04-26T09:59:31.403Z</time></trkpt><trkpt lat="43.8289115" lon="12.4341277"><ele>571.0</ele><time>2026-04-26T09:59:32.403Z</time></trkpt><trkpt lat="43.8289273" lon="12.4338663"><ele>571.0</ele><time>2026-04-26T09:59:33.402Z</time></trkpt><trkpt lat="43.8289395" lon="12.4336098"><ele>571.0</ele><time>2026-04-26T09:59:34.397Z</time></trkpt><trkpt lat="43.8289446" lon="12.4333693"><ele>572.25</ele><time>2026-04-26T09:59:35.402Z</time></trkpt><trkpt lat="43.8289494" lon="12.4331507"><ele>573.5</ele><time>2026-04-26T09:59:36.403Z</time></trkpt><trkpt lat="43.8289545" lon="12.4329589"><ele>574.75</ele><time>2026-04-26T09:59:37.402Z</time></trkpt><trkpt lat="43.8289583" lon="12.4327853"><ele>576.0</ele><time>2026-04-26T09:59:38.399Z</time></trkpt><trkpt lat="43.8289807" lon="12.4326425"><ele>576.8</ele><time>2026-04-26T09:59:39.4Z</time></trkpt><trkpt lat="43.829045" lon="12.432543"><ele>577.6</ele><time>2026-04-26T09:59:40.405Z</time></trkpt><trkpt lat="43.8291337" lon="12.4325048"><ele>578.4</ele><time>2026-04-26T09:59:41.401Z</time></trkpt><trkpt lat="43.8292292" lon="12.4325437"><ele>579.2</ele><time>2026-04-26T09:59:42.401Z</time></trkpt><trkpt lat="43.8293176" lon="12.4326526"><ele>580.0</ele><time>2026-04-26T09:59:43.399Z</time></trkpt><trkpt lat="43.829399" lon="12.4328242"><ele>583.0</ele><time>2026-04-26T09:59:44.4Z</time></trkpt><trkpt lat="43.8294867" lon="12.4330223"><ele>586.0</ele><time>2026-04-26T09:59:45.401Z</time></trkpt><trkpt lat="43.8295696" lon="12.4332036"><ele>589.0</ele><time>2026-04-26T09:59:46.402Z</time></trkpt><trkpt lat="43.8296455" lon="12.4333676"><ele>589.0</ele><time>2026-04-26T09:59:47.4Z</time></trkpt><trkpt lat="43.8297139" lon="12.4335052"><ele>589.0</ele><time>2026-04-26T09:59:48.399Z</time></trkpt><trkpt lat="43.8297745" lon="12.4336128"><ele>589.0</ele><time>2026-04-26T09:59:49.401Z</time></trkpt><trkpt lat="43.8298765" lon="12.4338359"><ele>589.0</ele><time>2026-04-26T09:59:51.407Z</time></trkpt><trkpt lat="43.8299275" lon="12.433951"><ele>588.3333333333334</ele><time>2026-04-26T09:59:52.403Z</time></trkpt><trkpt lat="43.8299795" lon="12.434044"><ele>587.6666666666667</ele><time>2026-04-26T09:59:53.405Z</time></trkpt><trkpt lat="43.8300295" lon="12.4341145"><ele>587.0</ele><time>2026-04-26T09:59:54.409Z</time></trkpt><trkpt lat="43.8300816" lon="12.4341654"><ele>586.3333333333334</ele><time>2026-04-26T09:59:55.408Z</time></trkpt><trkpt lat="43.8301855" lon="12.4341829"><ele>585.6666666666666</ele><time>2026-04-26T09:59:57.403Z</time></trkpt><trkpt lat="43.8302959" lon="12.4341307"><ele>585.0</ele><time>2026-04-26T09:59:59.395Z</time></trkpt><trkpt lat="43.830379" lon="12.4340217"><ele>583.6</ele><time>2026-04-26T10:00:01.398Z</time></trkpt><trkpt lat="43.8304301" lon="12.4339132"><ele>582.2</ele><time>2026-04-26T10:00:03.4Z</time></trkpt><trkpt lat="43.8305194" lon="12.4339322"><ele>580.8</ele><time>2026-04-26T10:00:05.408Z</time></trkpt><trkpt lat="43.830586" lon="12.4340108"><ele>579.4</ele><time>2026-04-26T10:00:06.404Z</time></trkpt><trkpt lat="43.8306607" lon="12.4340963"><ele>578.0</ele><time>2026-04-26T10:00:07.403Z</time></trkpt><trkpt lat="43.8307498" lon="12.4341965"><ele>578.0</ele><time>2026-04-26T10:00:08.402Z</time></trkpt><trkpt lat="43.8308333" lon="12.4342934"><ele>578.0</ele><time>2026-04-26T10:00:09.405Z</time></trkpt><trkpt lat="43.8309196" lon="12.4343976"><ele>578.0</ele><time>2026-04-26T10:00:10.399Z</time></trkpt><trkpt lat="43.8310813" lon="12.4346087"><ele>578.0</ele><time>2026-04-26T10:00:12.4Z</time></trkpt><trkpt lat="43.8311715" lon="12.4347152"><ele>574.25</ele><time>2026-04-26T10:00:13.401Z</time></trkpt><trkpt lat="43.8312674" lon="12.4348125"><ele>570.5</ele><time>2026-04-26T10:00:14.403Z</time></trkpt><trkpt lat="43.8313705" lon="12.4348925"><ele>566.75</ele><time>2026-04-26T10:00:15.407Z</time></trkpt><trkpt lat="43.8314821" lon="12.4349655"><ele>563.0</ele><time>2026-04-26T10:00:16.402Z</time></trkpt><trkpt lat="43.8315997" lon="12.435027"><ele>563.0</ele><time>2026-04-26T10:00:17.406Z</time></trkpt><trkpt lat="43.8317195" lon="12.4350964"><ele>563.0</ele><time>2026-04-26T10:00:18.401Z</time></trkpt><trkpt lat="43.8318413" lon="12.4351778"><ele>563.0</ele><time>2026-04-26T10:00:19.399Z</time></trkpt><trkpt lat="43.8319392" lon="12.4352625"><ele>563.0</ele><time>2026-04-26T10:00:20.4Z</time></trkpt><trkpt lat="43.8320178" lon="12.43534"><ele>562.4</ele><time>2026-04-26T10:00:21.397Z</time></trkpt><trkpt lat="43.8320783" lon="12.4354464"><ele>561.8</ele><time>2026-04-26T10:00:22.402Z</time></trkpt><trkpt lat="43.8321138" lon="12.4355896"><ele>561.2</ele><time>2026-04-26T10:00:23.399Z</time></trkpt><trkpt lat="43.8321489" lon="12.4357404"><ele>560.6</ele><time>2026-04-26T10:00:24.399Z</time></trkpt><trkpt lat="43.8321844" lon="12.4359088"><ele>560.0</ele><time>2026-04-26T10:00:25.404Z</time></trkpt><trkpt lat="43.8322173" lon="12.4360627"><ele>560.0</ele><time>2026-04-26T10:00:26.403Z</time></trkpt><trkpt lat="43.8322508" lon="12.4362302"><ele>560.0</ele><time>2026-04-26T10:00:27.408Z</time></trkpt><trkpt lat="43.8322925" lon="12.4363822"><ele>560.0</ele><time>2026-04-26T10:00:28.399Z</time></trkpt><trkpt lat="43.8323391" lon="12.4365258"><ele>560.0</ele><time>2026-04-26T10:00:29.397Z</time></trkpt><trkpt lat="43.8323916" lon="12.4366566"><ele>559.25</ele><time>2026-04-26T10:00:30.403Z</time></trkpt><trkpt lat="43.8324443" lon="12.4367757"><ele>558.5</ele><time>2026-04-26T10:00:31.398Z</time></trkpt><trkpt lat="43.8325511" lon="12.436919"><ele>557.75</ele><time>2026-04-26T10:00:34.396Z</time></trkpt><trkpt lat="43.8326182" lon="12.4369805"><ele>557.0</ele><time>2026-04-26T10:01:26.403Z</time></trkpt><trkpt lat="43.8327433" lon="12.4370913"><ele>554.2</ele><time>2026-04-26T10:01:30.401Z</time></trkpt><trkpt lat="43.8328124" lon="12.4371395"><ele>551.4000000000001</ele><time>2026-04-26T10:01:33.397Z</time></trkpt><trkpt lat="43.8328775" lon="12.4372597"><ele>548.5999999999999</ele><time>2026-04-26T10:01:35.398Z</time></trkpt><trkpt lat="43.8329632" lon="12.4373839"><ele>545.8</ele><time>2026-04-26T10:01:37.403Z</time></trkpt><trkpt lat="43.8330173" lon="12.4374533"><ele>543.0</ele><time>2026-04-26T10:01:38.399Z</time></trkpt><trkpt lat="43.8330778" lon="12.4375185"><ele>543.0</ele><time>2026-04-26T10:01:39.407Z</time></trkpt><trkpt lat="43.8331467" lon="12.4375829"><ele>543.0</ele><time>2026-04-26T10:01:40.402Z</time></trkpt><trkpt lat="43.8332103" lon="12.4376405"><ele>543.0</ele><time>2026-04-26T10:01:41.402Z</time></trkpt><trkpt lat="43.8332673" lon="12.437707"><ele>543.0</ele><time>2026-04-26T10:01:42.4Z</time></trkpt><trkpt lat="43.833326" lon="12.437774"><ele>543.0</ele><time>2026-04-26T10:01:43.401Z</time></trkpt><trkpt lat="43.8333987" lon="12.4378476"><ele>543.0</ele><time>2026-04-26T10:01:44.41Z</time></trkpt><trkpt lat="43.8334686" lon="12.4379422"><ele>539.6</ele><time>2026-04-26T10:01:45.398Z</time></trkpt><trkpt lat="43.8335329" lon="12.4380106"><ele>536.1999999999999</ele><time>2026-04-26T10:01:46.409Z</time></trkpt><trkpt lat="43.8336017" lon="12.438064"><ele>532.8</ele><time>2026-04-26T10:01:47.402Z</time></trkpt><trkpt lat="43.8337178" lon="12.4382009"><ele>529.4</ele><time>2026-04-26T10:01:49.397Z</time></trkpt><trkpt lat="43.833772" lon="12.4382777"><ele>526.0</ele><time>2026-04-26T10:01:50.398Z</time></trkpt><trkpt lat="43.8338208" lon="12.4383567"><ele>526.0</ele><time>2026-04-26T10:01:51.397Z</time></trkpt><trkpt lat="43.833842" lon="12.4384438"><ele>526.0</ele><time>2026-04-26T10:01:52.397Z</time></trkpt><trkpt lat="43.833858" lon="12.438532"><ele>526.0</ele><time>2026-04-26T10:01:53.403Z</time></trkpt><trkpt lat="43.8338546" lon="12.4386383"><ele>526.0</ele><time>2026-04-26T10:01:54.403Z</time></trkpt><trkpt lat="43.8338482" lon="12.4387484"><ele>526.0</ele><time>2026-04-26T10:01:55.401Z</time></trkpt><trkpt lat="43.833832" lon="12.4388464"><ele>526.0</ele><time>2026-04-26T10:01:56.402Z</time></trkpt><trkpt lat="43.8338104" lon="12.438938"><ele>526.0</ele><time>2026-04-26T10:01:57.396Z</time></trkpt><trkpt lat="43.833741" lon="12.4390609"><ele>524.8</ele><time>2026-04-26T10:01:59.401Z</time></trkpt><trkpt lat="43.8336715" lon="12.4391349"><ele>523.6</ele><time>2026-04-26T10:02:01.403Z</time></trkpt><trkpt lat="43.8336214" lon="12.4391907"><ele>522.4</ele><time>2026-04-26T10:02:03.402Z</time></trkpt><trkpt lat="43.8335826" lon="12.4392855"><ele>521.2</ele><time>2026-04-26T10:02:06.398Z</time></trkpt><trkpt lat="43.833584" lon="12.43938"><ele>520.0</ele><time>2026-04-26T10:02:08.4Z</time></trkpt><trkpt lat="43.8337094" lon="12.4396093"><ele>517.2</ele><time>2026-04-26T10:02:12.399Z</time></trkpt><trkpt lat="43.8337778" lon="12.4397579"><ele>514.4</ele><time>2026-04-26T10:02:14.398Z</time></trkpt><trkpt lat="43.8338147" lon="12.4398672"><ele>511.6</ele><time>2026-04-26T10:02:15.401Z</time></trkpt><trkpt lat="43.8338384" lon="12.4399833"><ele>508.8</ele><time>2026-04-26T10:02:16.404Z</time></trkpt><trkpt lat="43.8338554" lon="12.4400966"><ele>506.0</ele><time>2026-04-26T10:02:17.401Z</time></trkpt><trkpt lat="43.8338792" lon="12.4401952"><ele>506.0</ele><time>2026-04-26T10:02:18.409Z</time></trkpt><trkpt lat="43.8339265" lon="12.440286"><ele>506.0</ele><time>2026-04-26T10:02:19.404Z</time></trkpt><trkpt lat="43.8340111" lon="12.440397"><ele>506.0</ele><time>2026-04-26T10:02:20.403Z</time></trkpt><trkpt lat="43.834098" lon="12.4405084"><ele>506.0</ele><time>2026-04-26T10:02:21.404Z</time></trkpt><trkpt lat="43.8341851" lon="12.4406099"><ele>506.0</ele><time>2026-04-26T10:02:22.414Z</time></trkpt><trkpt lat="43.8342677" lon="12.440684"><ele>502.8</ele><time>2026-04-26T10:02:23.402Z</time></trkpt><trkpt lat="43.8343518" lon="12.440767"><ele>499.6</ele><time>2026-04-26T10:02:24.398Z</time></trkpt><trkpt lat="43.8344283" lon="12.4408373"><ele>496.4</ele><time>2026-04-26T10:02:25.409Z</time></trkpt><trkpt lat="43.8345002" lon="12.4409218"><ele>493.2</ele><time>2026-04-26T10:02:26.404Z</time></trkpt><trkpt lat="43.8345597" lon="12.4410111"><ele>490.0</ele><time>2026-04-26T10:02:27.402Z</time></trkpt><trkpt lat="43.8346183" lon="12.4411023"><ele>490.0</ele><time>2026-04-26T10:02:28.397Z</time></trkpt><trkpt lat="43.8346752" lon="12.4412004"><ele>490.0</ele><time>2026-04-26T10:02:29.407Z</time></trkpt><trkpt lat="43.8347925" lon="12.4413874"><ele>490.0</ele><time>2026-04-26T10:02:31.401Z</time></trkpt><trkpt lat="43.8348624" lon="12.44146"><ele>490.0</ele><time>2026-04-26T10:02:32.396Z</time></trkpt><trkpt lat="43.8349238" lon="12.4415208"><ele>490.0</ele><time>2026-04-26T10:02:33.396Z</time></trkpt><trkpt lat="43.8349773" lon="12.4415982"><ele>490.1666666666667</ele><time>2026-04-26T10:02:34.401Z</time></trkpt><trkpt lat="43.8350162" lon="12.4416808"><ele>490.33333333333337</ele><time>2026-04-26T10:02:35.401Z</time></trkpt><trkpt lat="43.8350441" lon="12.4417666"><ele>490.5</ele><time>2026-04-26T10:02:36.401Z</time></trkpt><trkpt lat="43.8350543" lon="12.4418628"><ele>490.66666666666663</ele><time>2026-04-26T10:02:37.402Z</time></trkpt><trkpt lat="43.8350938" lon="12.4420168"><ele>490.8333333333333</ele><time>2026-04-26T10:02:39.403Z</time></trkpt><trkpt lat="43.835146" lon="12.4420809"><ele>491.0</ele><time>2026-04-26T10:02:40.403Z</time></trkpt><trkpt lat="43.8351939" lon="12.4421455"><ele>488.71428571428567</ele><time>2026-04-26T10:02:41.404Z</time></trkpt><trkpt lat="43.8352351" lon="12.4422177"><ele>486.4285714285714</ele><time>2026-04-26T10:02:42.399Z</time></trkpt><trkpt lat="43.8352653" lon="12.442309"><ele>484.1428571428571</ele><time>2026-04-26T10:02:43.404Z</time></trkpt><trkpt lat="43.8352863" lon="12.4424022"><ele>481.8571428571429</ele><time>2026-04-26T10:02:44.399Z</time></trkpt><trkpt lat="43.8352928" lon="12.4424973"><ele>479.5714285714286</ele><time>2026-04-26T10:02:45.397Z</time></trkpt><trkpt lat="43.8352861" lon="12.4425924"><ele>477.28571428571433</ele><time>2026-04-26T10:02:46.402Z</time></trkpt><trkpt lat="43.8352662" lon="12.4426775"><ele>475.0</ele><time>2026-04-26T10:02:47.397Z</time></trkpt><trkpt lat="43.8352697" lon="12.4428321"><ele>475.0</ele><time>2026-04-26T10:02:49.401Z</time></trkpt><trkpt lat="43.8352773" lon="12.4429374"><ele>475.0</ele><time>2026-04-26T10:02:50.4Z</time></trkpt><trkpt lat="43.835315" lon="12.4431612"><ele>475.0</ele><time>2026-04-26T10:02:52.399Z</time></trkpt><trkpt lat="43.8353347" lon="12.4432524"><ele>475.0</ele><time>2026-04-26T10:02:53.398Z</time></trkpt><trkpt lat="43.8353528" lon="12.4433367"><ele>475.0</ele><time>2026-04-26T10:02:54.394Z</time></trkpt><trkpt lat="43.8353635" lon="12.4434473"><ele>473.83333333333337</ele><time>2026-04-26T10:02:55.399Z</time></trkpt><trkpt lat="43.8353529" lon="12.4435611"><ele>472.6666666666667</ele><time>2026-04-26T10:02:56.399Z</time></trkpt><trkpt lat="43.8353318" lon="12.4436654"><ele>471.5</ele><time>2026-04-26T10:02:57.402Z</time></trkpt><trkpt lat="43.8353208" lon="12.4437514"><ele>470.33333333333337</ele><time>2026-04-26T10:02:58.399Z</time></trkpt><trkpt lat="43.8353238" lon="12.4438576"><ele>469.1666666666667</ele><time>2026-04-26T10:02:59.402Z</time></trkpt><trkpt lat="43.8353355" lon="12.4439677"><ele>468.0</ele><time>2026-04-26T10:03:00.396Z</time></trkpt><trkpt lat="43.8353576" lon="12.4440819"><ele>466.4</ele><time>2026-04-26T10:03:01.402Z</time></trkpt><trkpt lat="43.835391" lon="12.4442004"><ele>464.79999999999995</ele><time>2026-04-26T10:03:02.401Z</time></trkpt><trkpt lat="43.8354333" lon="12.4443091"><ele>463.2</ele><time>2026-04-26T10:03:03.401Z</time></trkpt><trkpt lat="43.8354708" lon="12.4444191"><ele>461.6</ele><time>2026-04-26T10:03:04.4Z</time></trkpt><trkpt lat="43.8355202" lon="12.4445427"><ele>460.0</ele><time>2026-04-26T10:03:05.407Z</time></trkpt><trkpt lat="43.8355759" lon="12.4446663"><ele>457.5</ele><time>2026-04-26T10:03:06.398Z</time></trkpt><trkpt lat="43.8356374" lon="12.444812"><ele>455.0</ele><time>2026-04-26T10:03:07.399Z</time></trkpt><trkpt lat="43.8357046" lon="12.4449432"><ele>452.5</ele><time>2026-04-26T10:03:08.403Z</time></trkpt><trkpt lat="43.8357773" lon="12.4450606"><ele>450.0</ele><time>2026-04-26T10:03:09.4Z</time></trkpt><trkpt lat="43.8358502" lon="12.4451617"><ele>450.0</ele><time>2026-04-26T10:03:10.402Z</time></trkpt><trkpt lat="43.8359059" lon="12.4452673"><ele>450.0</ele><time>2026-04-26T10:03:11.4Z</time></trkpt><trkpt lat="43.8359658" lon="12.445537"><ele>450.0</ele><time>2026-04-26T10:03:13.404Z</time></trkpt><trkpt lat="43.8359832" lon="12.4456969"><ele>450.0</ele><time>2026-04-26T10:03:14.402Z</time></trkpt><trkpt lat="43.8359827" lon="12.445842"><ele>449.5</ele><time>2026-04-26T10:03:15.405Z</time></trkpt><trkpt lat="43.8359633" lon="12.4459661"><ele>449.0</ele><time>2026-04-26T10:03:16.398Z</time></trkpt><trkpt lat="43.8359364" lon="12.4460778"><ele>448.5</ele><time>2026-04-26T10:03:17.398Z</time></trkpt><trkpt lat="43.8359106" lon="12.4461714"><ele>448.0</ele><time>2026-04-26T10:03:18.402Z</time></trkpt><trkpt lat="43.8358994" lon="12.4462704"><ele>447.5</ele><time>2026-04-26T10:03:19.401Z</time></trkpt><trkpt lat="43.8359189" lon="12.4463813"><ele>447.0</ele><time>2026-04-26T10:03:20.4Z</time></trkpt><trkpt lat="43.8359552" lon="12.4464895"><ele>446.20000000000005</ele><time>2026-04-26T10:03:21.405Z</time></trkpt><trkpt lat="43.8359972" lon="12.4465907"><ele>445.40000000000003</ele><time>2026-04-26T10:03:22.398Z</time></trkpt><trkpt lat="43.8360493" lon="12.4467291"><ele>444.59999999999997</ele><time>2026-04-26T10:03:23.397Z</time></trkpt><trkpt lat="43.836099" lon="12.4468504"><ele>443.79999999999995</ele><time>2026-04-26T10:03:24.399Z</time></trkpt><trkpt lat="43.8361482" lon="12.4469863"><ele>443.0</ele><time>2026-04-26T10:03:25.402Z</time></trkpt><trkpt lat="43.8361972" lon="12.4471214"><ele>443.0</ele><time>2026-04-26T10:03:26.4Z</time></trkpt><trkpt lat="43.8362403" lon="12.4472512"><ele>442.99999999999994</ele><time>2026-04-26T10:03:27.402Z</time></trkpt><trkpt lat="43.8362743" lon="12.4473801"><ele>442.99999999999994</ele><time>2026-04-26T10:03:28.397Z</time></trkpt><trkpt lat="43.8362953" lon="12.4474968"><ele>443.0</ele><time>2026-04-26T10:03:29.401Z</time></trkpt><trkpt lat="43.8363029" lon="12.4476264"><ele>443.0</ele><time>2026-04-26T10:03:30.409Z</time></trkpt><trkpt lat="43.836303" lon="12.4477513"><ele>443.0</ele><time>2026-04-26T10:03:31.402Z</time></trkpt><trkpt lat="43.8363009" lon="12.4478902"><ele>442.99999999999994</ele><time>2026-04-26T10:03:32.406Z</time></trkpt><trkpt lat="43.8362927" lon="12.4481324"><ele>442.99999999999994</ele><time>2026-04-26T10:03:34.406Z</time></trkpt><trkpt lat="43.8362905" lon="12.4482435"><ele>443.0</ele><time>2026-04-26T10:03:35.4Z</time></trkpt><trkpt lat="43.8362978" lon="12.4483693"><ele>443.0</ele><time>2026-04-26T10:03:36.402Z</time></trkpt><trkpt lat="43.8363132" lon="12.4484898"><ele>442.66666666666663</ele><time>2026-04-26T10:03:37.406Z</time></trkpt><trkpt lat="43.8363266" lon="12.4486061"><ele>442.3333333333333</ele><time>2026-04-26T10:03:38.4Z</time></trkpt><trkpt lat="43.8363434" lon="12.448723"><ele>442.0</ele><time>2026-04-26T10:03:39.403Z</time></trkpt><trkpt lat="43.8363631" lon="12.4488413"><ele>441.66666666666663</ele><time>2026-04-26T10:03:40.403Z</time></trkpt><trkpt lat="43.8363822" lon="12.4489676"><ele>441.3333333333333</ele><time>2026-04-26T10:03:41.401Z</time></trkpt><trkpt lat="43.8364041" lon="12.4490858"><ele>441.0</ele><time>2026-04-26T10:03:42.398Z</time></trkpt><trkpt lat="43.8364234" lon="12.4491925"><ele>440.5</ele><time>2026-04-26T10:03:43.405Z</time></trkpt><trkpt lat="43.8364499" lon="12.4493008"><ele>440.0</ele><time>2026-04-26T10:03:44.399Z</time></trkpt><trkpt lat="43.836477" lon="12.4494184"><ele>439.5</ele><time>2026-04-26T10:03:45.4Z</time></trkpt><trkpt lat="43.8364953" lon="12.4495322"><ele>439.0</ele><time>2026-04-26T10:03:46.402Z</time></trkpt><trkpt lat="43.8365137" lon="12.4496397"><ele>438.5</ele><time>2026-04-26T10:03:47.4Z</time></trkpt><trkpt lat="43.8365269" lon="12.4497609"><ele>438.0</ele><time>2026-04-26T10:03:48.405Z</time></trkpt><trkpt lat="43.8365348" lon="12.4498756"><ele>436.0</ele><time>2026-04-26T10:03:49.402Z</time></trkpt><trkpt lat="43.8365399" lon="12.4499859"><ele>433.99999999999994</ele><time>2026-04-26T10:03:50.401Z</time></trkpt><trkpt lat="43.8365478" lon="12.4500991"><ele>431.99999999999994</ele><time>2026-04-26T10:03:51.413Z</time></trkpt><trkpt lat="43.8365584" lon="12.4502096"><ele>430.0</ele><time>2026-04-26T10:03:52.397Z</time></trkpt><trkpt lat="43.8365704" lon="12.4503309"><ele>428.0</ele><time>2026-04-26T10:03:53.393Z</time></trkpt><trkpt lat="43.8366101" lon="12.4505746"><ele>426.0</ele><time>2026-04-26T10:03:55.402Z</time></trkpt><trkpt lat="43.836649" lon="12.4507035"><ele>423.99999999999994</ele><time>2026-04-26T10:03:56.403Z</time></trkpt><trkpt lat="43.8366926" lon="12.4508213"><ele>422.0</ele><time>2026-04-26T10:03:57.404Z</time></trkpt><trkpt lat="43.836736" lon="12.4509085"><ele>420.0</ele><time>2026-04-26T10:03:58.397Z</time></trkpt><trkpt lat="43.8368136" lon="12.451026"><ele>418.0</ele><time>2026-04-26T10:04:00.399Z</time></trkpt><trkpt lat="43.8368866" lon="12.4511247"><ele>418.00000000000006</ele><time>2026-04-26T10:04:02.401Z</time></trkpt><trkpt lat="43.8369617" lon="12.4511971"><ele>418.0</ele><time>2026-04-26T10:04:04.399Z</time></trkpt><trkpt lat="43.8370426" lon="12.4512473"><ele>418.0</ele><time>2026-04-26T10:04:06.407Z</time></trkpt><trkpt lat="43.8371055" lon="12.4512673"><ele>418.0</ele><time>2026-04-26T10:04:07.4Z</time></trkpt><trkpt lat="43.837187" lon="12.4513651"><ele>418.00000000000006</ele><time>2026-04-26T10:04:09.397Z</time></trkpt><trkpt lat="43.8372096" lon="12.4514479"><ele>418.0</ele><time>2026-04-26T10:04:12.396Z</time></trkpt><trkpt lat="43.8371766" lon="12.4515728"><ele>415.0</ele><time>2026-04-26T10:04:18.406Z</time></trkpt><trkpt lat="43.8371492" lon="12.4517923"><ele>412.0</ele><time>2026-04-26T10:04:20.398Z</time></trkpt><trkpt lat="43.8371371" lon="12.4519237"><ele>409.0</ele><time>2026-04-26T10:04:21.396Z</time></trkpt><trkpt lat="43.8371154" lon="12.4520757"><ele>406.0</ele><time>2026-04-26T10:04:22.401Z</time></trkpt><trkpt lat="43.8370853" lon="12.4522496"><ele>405.0</ele><time>2026-04-26T10:04:23.4Z</time></trkpt><trkpt lat="43.8370429" lon="12.4524058"><ele>404.0</ele><time>2026-04-26T10:04:24.402Z</time></trkpt><trkpt lat="43.8370044" lon="12.452536"><ele>403.0</ele><time>2026-04-26T10:04:25.404Z</time></trkpt><trkpt lat="43.8369839" lon="12.4526597"><ele>402.0</ele><time>2026-04-26T10:04:26.403Z</time></trkpt><trkpt lat="43.8369994" lon="12.4527635"><ele>401.0</ele><time>2026-04-26T10:04:27.399Z</time></trkpt><trkpt lat="43.8370329" lon="12.4528692"><ele>400.0</ele><time>2026-04-26T10:04:28.405Z</time></trkpt><trkpt lat="43.8370827" lon="12.452992"><ele>399.0</ele><time>2026-04-26T10:04:29.398Z</time></trkpt><trkpt lat="43.8371225" lon="12.4531155"><ele>398.0</ele><time>2026-04-26T10:04:30.406Z</time></trkpt><trkpt lat="43.8371681" lon="12.4532555"><ele>397.0</ele><time>2026-04-26T10:04:31.399Z</time></trkpt><trkpt lat="43.8372134" lon="12.4533915"><ele>396.0</ele><time>2026-04-26T10:04:32.405Z</time></trkpt><trkpt lat="43.8372566" lon="12.4535263"><ele>396.0</ele><time>2026-04-26T10:04:33.397Z</time></trkpt><trkpt lat="43.8372944" lon="12.4536459"><ele>396.0</ele><time>2026-04-26T10:04:34.396Z</time></trkpt><trkpt lat="43.8373399" lon="12.4537447"><ele>396.0</ele><time>2026-04-26T10:04:35.396Z</time></trkpt><trkpt lat="43.8373986" lon="12.4538417"><ele>396.0</ele><time>2026-04-26T10:04:36.399Z</time></trkpt><trkpt lat="43.8374585" lon="12.4539372"><ele>396.0</ele><time>2026-04-26T10:04:37.4Z</time></trkpt><trkpt lat="43.8375084" lon="12.4540418"><ele>395.8</ele><time>2026-04-26T10:04:38.4Z</time></trkpt><trkpt lat="43.8375446" lon="12.4541466"><ele>395.6</ele><time>2026-04-26T10:04:39.403Z</time></trkpt><trkpt lat="43.8376104" lon="12.4543292"><ele>395.4</ele><time>2026-04-26T10:04:41.405Z</time></trkpt><trkpt lat="43.8376515" lon="12.4544297"><ele>395.2</ele><time>2026-04-26T10:04:42.395Z</time></trkpt><trkpt lat="43.837691" lon="12.45452"><ele>395.0</ele><time>2026-04-26T10:04:43.397Z</time></trkpt><trkpt lat="43.8377319" lon="12.4546033"><ele>391.8</ele><time>2026-04-26T10:04:44.401Z</time></trkpt><trkpt lat="43.8377739" lon="12.4547352"><ele>388.6</ele><time>2026-04-26T10:04:45.399Z</time></trkpt><trkpt lat="43.8378156" lon="12.4548627"><ele>385.4</ele><time>2026-04-26T10:04:46.402Z</time></trkpt><trkpt lat="43.8378532" lon="12.4550018"><ele>382.2</ele><time>2026-04-26T10:04:47.402Z</time></trkpt><trkpt lat="43.8378906" lon="12.4551545"><ele>379.0</ele><time>2026-04-26T10:04:48.407Z</time></trkpt><trkpt lat="43.8379302" lon="12.4553154"><ele>380.25</ele><time>2026-04-26T10:04:49.402Z</time></trkpt><trkpt lat="43.8379847" lon="12.4554783"><ele>381.5</ele><time>2026-04-26T10:04:50.399Z</time></trkpt><trkpt lat="43.8380494" lon="12.4556324"><ele>382.75</ele><time>2026-04-26T10:04:51.399Z</time></trkpt><trkpt lat="43.8381143" lon="12.4557755"><ele>384.0</ele><time>2026-04-26T10:04:52.397Z</time></trkpt><trkpt lat="43.838173" lon="12.4558984"><ele>384.0</ele><time>2026-04-26T10:04:53.395Z</time></trkpt><trkpt lat="43.8382282" lon="12.4560303"><ele>384.0</ele><time>2026-04-26T10:04:54.4Z</time></trkpt><trkpt lat="43.838285" lon="12.4561535"><ele>384.0</ele><time>2026-04-26T10:04:55.403Z</time></trkpt><trkpt lat="43.8383443" lon="12.4562647"><ele>384.0</ele><time>2026-04-26T10:04:56.409Z</time></trkpt><trkpt lat="43.8384034" lon="12.4563838"><ele>384.0</ele><time>2026-04-26T10:04:57.41Z</time></trkpt><trkpt lat="43.8384532" lon="12.4565105"><ele>383.0</ele><time>2026-04-26T10:04:58.4Z</time></trkpt><trkpt lat="43.8384835" lon="12.4566352"><ele>382.0</ele><time>2026-04-26T10:04:59.401Z</time></trkpt><trkpt lat="43.8385041" lon="12.4567487"><ele>381.0</ele><time>2026-04-26T10:05:00.404Z</time></trkpt><trkpt lat="43.8385246" lon="12.4569425"><ele>380.0</ele><time>2026-04-26T10:05:02.395Z</time></trkpt><trkpt lat="43.8385418" lon="12.4570792"><ele>379.0</ele><time>2026-04-26T10:05:03.397Z</time></trkpt><trkpt lat="43.8385508" lon="12.4572154"><ele>380.66666666666663</ele><time>2026-04-26T10:05:04.393Z</time></trkpt><trkpt lat="43.8385492" lon="12.4573476"><ele>382.3333333333333</ele><time>2026-04-26T10:05:05.399Z</time></trkpt><trkpt lat="43.8385337" lon="12.4574812"><ele>384.0</ele><time>2026-04-26T10:05:06.401Z</time></trkpt><trkpt lat="43.8385066" lon="12.4576049"><ele>385.66666666666663</ele><time>2026-04-26T10:05:07.402Z</time></trkpt><trkpt lat="43.8384928" lon="12.4577079"><ele>387.3333333333333</ele><time>2026-04-26T10:05:08.401Z</time></trkpt><trkpt lat="43.8384752" lon="12.4578156"><ele>389.0</ele><time>2026-04-26T10:05:09.4Z</time></trkpt><trkpt lat="43.8384628" lon="12.4579304"><ele>391.49999999999994</ele><time>2026-04-26T10:05:10.397Z</time></trkpt><trkpt lat="43.8384318" lon="12.4580363"><ele>394.0</ele><time>2026-04-26T10:05:11.398Z</time></trkpt><trkpt lat="43.8384069" lon="12.458139"><ele>396.5</ele><time>2026-04-26T10:05:12.396Z</time></trkpt><trkpt lat="43.8383919" lon="12.4582341"><ele>399.0</ele><time>2026-04-26T10:05:13.398Z</time></trkpt><trkpt lat="43.8383808" lon="12.4583268"><ele>401.49999999999994</ele><time>2026-04-26T10:05:14.405Z</time></trkpt><trkpt lat="43.8383811" lon="12.4585097"><ele>404.0</ele><time>2026-04-26T10:05:16.398Z</time></trkpt><trkpt lat="43.8383874" lon="12.4586154"><ele>404.0</ele><time>2026-04-26T10:05:17.398Z</time></trkpt><trkpt lat="43.8383933" lon="12.4587191"><ele>404.0</ele><time>2026-04-26T10:05:18.397Z</time></trkpt><trkpt lat="43.8384005" lon="12.4588153"><ele>404.0</ele><time>2026-04-26T10:05:19.396Z</time></trkpt><trkpt lat="43.8384191" lon="12.458913"><ele>404.0</ele><time>2026-04-26T10:05:20.401Z</time></trkpt><trkpt lat="43.8384492" lon="12.4590065"><ele>404.0</ele><time>2026-04-26T10:05:21.397Z</time></trkpt><trkpt lat="43.8385435" lon="12.4592503"><ele>404.2</ele><time>2026-04-26T10:05:24.396Z</time></trkpt><trkpt lat="43.8385683" lon="12.4593492"><ele>404.4</ele><time>2026-04-26T10:05:25.397Z</time></trkpt><trkpt lat="43.8386002" lon="12.4595036"><ele>404.6</ele><time>2026-04-26T10:05:27.399Z</time></trkpt><trkpt lat="43.838601" lon="12.4596734"><ele>404.8</ele><time>2026-04-26T10:05:29.396Z</time></trkpt><trkpt lat="43.8386144" lon="12.4598264"><ele>405.0</ele><time>2026-04-26T10:05:31.399Z</time></trkpt><trkpt lat="43.8386571" lon="12.460002"><ele>405.6666666666667</ele><time>2026-04-26T10:05:33.399Z</time></trkpt><trkpt lat="43.838679" lon="12.4600986"><ele>406.33333333333337</ele><time>2026-04-26T10:05:34.396Z</time></trkpt><trkpt lat="43.8387062" lon="12.46021"><ele>407.0</ele><time>2026-04-26T10:05:35.398Z</time></trkpt><trkpt lat="43.8387268" lon="12.4603279"><ele>407.6666666666667</ele><time>2026-04-26T10:05:36.396Z</time></trkpt><trkpt lat="43.8387365" lon="12.4604443"><ele>408.33333333333337</ele><time>2026-04-26T10:05:37.4Z</time></trkpt><trkpt lat="43.8387409" lon="12.4605502"><ele>409.0</ele><time>2026-04-26T10:05:38.401Z</time></trkpt><trkpt lat="43.8387492" lon="12.4606501"><ele>410.6</ele><time>2026-04-26T10:05:39.402Z</time></trkpt><trkpt lat="43.8387693" lon="12.4607555"><ele>412.2</ele><time>2026-04-26T10:05:40.401Z</time></trkpt><trkpt lat="43.8387921" lon="12.460861"><ele>413.8</ele><time>2026-04-26T10:05:41.402Z</time></trkpt><trkpt lat="43.8388151" lon="12.4609726"><ele>415.40000000000003</ele><time>2026-04-26T10:05:42.403Z</time></trkpt><trkpt lat="43.8388715" lon="12.4612049"><ele>417.0</ele><time>2026-04-26T10:05:44.401Z</time></trkpt><trkpt lat="43.8389106" lon="12.4612997"><ele>418.5</ele><time>2026-04-26T10:05:45.399Z</time></trkpt><trkpt lat="43.8389664" lon="12.4613856"><ele>420.0</ele><time>2026-04-26T10:05:46.397Z</time></trkpt><trkpt lat="43.839009" lon="12.4614832"><ele>421.5</ele><time>2026-04-26T10:05:47.399Z</time></trkpt><trkpt lat="43.8390279" lon="12.4615849"><ele>423.0</ele><time>2026-04-26T10:05:48.403Z</time></trkpt><trkpt lat="43.8390337" lon="12.4616797"><ele>424.5</ele><time>2026-04-26T10:05:49.403Z</time></trkpt><trkpt lat="43.8390416" lon="12.4617766"><ele>426.0</ele><time>2026-04-26T10:05:50.401Z</time></trkpt><trkpt lat="43.8390655" lon="12.461884"><ele>426.0</ele><time>2026-04-26T10:05:51.401Z</time></trkpt><trkpt lat="43.8391014" lon="12.4619815"><ele>426.0</ele><time>2026-04-26T10:05:52.405Z</time></trkpt><trkpt lat="43.8391414" lon="12.4620657"><ele>426.0</ele><time>2026-04-26T10:05:53.401Z</time></trkpt><trkpt lat="43.8391851" lon="12.4621402"><ele>426.0</ele><time>2026-04-26T10:05:54.404Z</time></trkpt><trkpt lat="43.83924" lon="12.462226"><ele>426.0</ele><time>2026-04-26T10:05:55.408Z</time></trkpt><trkpt lat="43.8392985" lon="12.4623102"><ele>426.0</ele><time>2026-04-26T10:05:56.397Z</time></trkpt><trkpt lat="43.8393521" lon="12.4623758"><ele>426.0</ele><time>2026-04-26T10:05:57.397Z</time></trkpt><trkpt lat="43.8393993" lon="12.4624386"><ele>426.0</ele><time>2026-04-26T10:05:58.4Z</time></trkpt><trkpt lat="43.8394467" lon="12.4625598"><ele>426.0</ele><time>2026-04-26T10:06:00.397Z</time></trkpt><trkpt lat="43.8394906" lon="12.4627462"><ele>426.0</ele><time>2026-04-26T10:06:02.397Z</time></trkpt><trkpt lat="43.8395176" lon="12.4628812"><ele>426.0</ele><time>2026-04-26T10:06:03.397Z</time></trkpt><trkpt lat="43.8395859" lon="12.4631659"><ele>427.1666666666667</ele><time>2026-04-26T10:06:05.399Z</time></trkpt><trkpt lat="43.8396102" lon="12.4632991"><ele>428.33333333333337</ele><time>2026-04-26T10:06:06.398Z</time></trkpt><trkpt lat="43.8396085" lon="12.4634388"><ele>429.5</ele><time>2026-04-26T10:06:07.397Z</time></trkpt><trkpt lat="43.8395929" lon="12.463565"><ele>430.6666666666667</ele><time>2026-04-26T10:06:08.397Z</time></trkpt><trkpt lat="43.8395847" lon="12.4636786"><ele>431.83333333333337</ele><time>2026-04-26T10:06:09.398Z</time></trkpt><trkpt lat="43.839573" lon="12.4637731"><ele>433.0</ele><time>2026-04-26T10:06:10.404Z</time></trkpt><trkpt lat="43.8395671" lon="12.4638738"><ele>433.0</ele><time>2026-04-26T10:06:11.398Z</time></trkpt><trkpt lat="43.83958" lon="12.4639828"><ele>432.99999999999994</ele><time>2026-04-26T10:06:12.401Z</time></trkpt><trkpt lat="43.8396402" lon="12.4641035"><ele>432.99999999999994</ele><time>2026-04-26T10:06:13.399Z</time></trkpt><trkpt lat="43.8397014" lon="12.4642334"><ele>433.0</ele><time>2026-04-26T10:06:14.396Z</time></trkpt><trkpt lat="43.8397467" lon="12.4643718"><ele>433.0</ele><time>2026-04-26T10:06:15.397Z</time></trkpt><trkpt lat="43.8397807" lon="12.4645182"><ele>433.5</ele><time>2026-04-26T10:06:16.4Z</time></trkpt><trkpt lat="43.8398025" lon="12.4646627"><ele>434.0</ele><time>2026-04-26T10:06:17.403Z</time></trkpt><trkpt lat="43.83983" lon="12.4648109"><ele>434.5</ele><time>2026-04-26T10:06:18.4Z</time></trkpt><trkpt lat="43.839878" lon="12.4649687"><ele>435.0</ele><time>2026-04-26T10:06:19.396Z</time></trkpt><trkpt lat="43.8399366" lon="12.4651228"><ele>435.0</ele><time>2026-04-26T10:06:20.398Z</time></trkpt><trkpt lat="43.8399915" lon="12.4652646"><ele>435.0</ele><time>2026-04-26T10:06:21.398Z</time></trkpt><trkpt lat="43.8400367" lon="12.4654029"><ele>435.0</ele><time>2026-04-26T10:06:22.397Z</time></trkpt><trkpt lat="43.8400722" lon="12.4655376"><ele>435.0</ele><time>2026-04-26T10:06:23.396Z</time></trkpt><trkpt lat="43.8400944" lon="12.4656732"><ele>435.0</ele><time>2026-04-26T10:06:24.398Z</time></trkpt><trkpt lat="43.8401014" lon="12.4659214"><ele>434.8</ele><time>2026-04-26T10:06:26.398Z</time></trkpt><trkpt lat="43.840108" lon="12.4660152"><ele>434.6</ele><time>2026-04-26T10:06:27.398Z</time></trkpt><trkpt lat="43.8401278" lon="12.466107"><ele>434.4</ele><time>2026-04-26T10:06:28.398Z</time></trkpt><trkpt lat="43.8401653" lon="12.466231"><ele>434.2</ele><time>2026-04-26T10:06:29.401Z</time></trkpt><trkpt lat="43.8402025" lon="12.4663634"><ele>434.0</ele><time>2026-04-26T10:06:30.397Z</time></trkpt><trkpt lat="43.8402422" lon="12.4665102"><ele>434.0</ele><time>2026-04-26T10:06:31.399Z</time></trkpt><trkpt lat="43.8402879" lon="12.4666579"><ele>434.0</ele><time>2026-04-26T10:06:32.404Z</time></trkpt><trkpt lat="43.8403318" lon="12.4667814"><ele>434.0</ele><time>2026-04-26T10:06:33.399Z</time></trkpt><trkpt lat="43.840377" lon="12.4669085"><ele>434.0</ele><time>2026-04-26T10:06:34.405Z</time></trkpt><trkpt lat="43.8403961" lon="12.4670249"><ele>434.0</ele><time>2026-04-26T10:06:35.403Z</time></trkpt><trkpt lat="43.840421" lon="12.4671154"><ele>434.66666666666663</ele><time>2026-04-26T10:06:36.397Z</time></trkpt><trkpt lat="43.84045" lon="12.4672048"><ele>435.3333333333333</ele><time>2026-04-26T10:06:37.398Z</time></trkpt><trkpt lat="43.840501" lon="12.4672827"><ele>436.0</ele><time>2026-04-26T10:06:38.405Z</time></trkpt><trkpt lat="43.8405519" lon="12.4673612"><ele>436.66666666666663</ele><time>2026-04-26T10:06:39.403Z</time></trkpt><trkpt lat="43.8406089" lon="12.4674383"><ele>437.3333333333333</ele><time>2026-04-26T10:06:40.401Z</time></trkpt><trkpt lat="43.8406759" lon="12.4675123"><ele>438.0</ele><time>2026-04-26T10:06:41.399Z</time></trkpt><trkpt lat="43.8407362" lon="12.4675898"><ele>438.0</ele><time>2026-04-26T10:06:42.402Z</time></trkpt><trkpt lat="43.8408034" lon="12.4676675"><ele>437.99999999999994</ele><time>2026-04-26T10:06:43.403Z</time></trkpt><trkpt lat="43.8408637" lon="12.4677462"><ele>437.99999999999994</ele><time>2026-04-26T10:06:44.4Z</time></trkpt><trkpt lat="43.8409275" lon="12.4678256"><ele>438.0</ele><time>2026-04-26T10:06:45.397Z</time></trkpt><trkpt lat="43.8410685" lon="12.4679557"><ele>438.0</ele><time>2026-04-26T10:06:47.4Z</time></trkpt><trkpt lat="43.8411437" lon="12.468008"><ele>438.3333333333333</ele><time>2026-04-26T10:06:48.401Z</time></trkpt><trkpt lat="43.8412188" lon="12.468036"><ele>438.66666666666663</ele><time>2026-04-26T10:06:49.401Z</time></trkpt><trkpt lat="43.8412878" lon="12.4680743"><ele>439.0</ele><time>2026-04-26T10:06:50.403Z</time></trkpt><trkpt lat="43.8413626" lon="12.4681268"><ele>439.3333333333333</ele><time>2026-04-26T10:06:51.403Z</time></trkpt><trkpt lat="43.8414361" lon="12.4681981"><ele>439.66666666666663</ele><time>2026-04-26T10:06:52.4Z</time></trkpt><trkpt lat="43.8415099" lon="12.4682809"><ele>440.0</ele><time>2026-04-26T10:06:53.404Z</time></trkpt><trkpt lat="43.8415751" lon="12.4683711"><ele>440.0</ele><time>2026-04-26T10:06:54.401Z</time></trkpt><trkpt lat="43.8416384" lon="12.4684439"><ele>440.0</ele><time>2026-04-26T10:06:55.398Z</time></trkpt><trkpt lat="43.8417189" lon="12.4684907"><ele>440.0</ele><time>2026-04-26T10:06:56.404Z</time></trkpt><trkpt lat="43.8418146" lon="12.4685479"><ele>440.0</ele><time>2026-04-26T10:06:57.398Z</time></trkpt><trkpt lat="43.8419076" lon="12.4686163"><ele>440.0</ele><time>2026-04-26T10:06:58.397Z</time></trkpt><trkpt lat="43.8419991" lon="12.4686777"><ele>439.49999999999994</ele><time>2026-04-26T10:06:59.396Z</time></trkpt><trkpt lat="43.8420749" lon="12.4687591"><ele>439.0</ele><time>2026-04-26T10:07:00.396Z</time></trkpt><trkpt lat="43.8421444" lon="12.468842"><ele>438.5</ele><time>2026-04-26T10:07:01.402Z</time></trkpt><trkpt lat="43.8422138" lon="12.4688921"><ele>438.0</ele><time>2026-04-26T10:07:02.404Z</time></trkpt><trkpt lat="43.8422836" lon="12.4689205"><ele>437.49999999999994</ele><time>2026-04-26T10:07:03.403Z</time></trkpt><trkpt lat="43.8423708" lon="12.4689316"><ele>437.0</ele><time>2026-04-26T10:07:04.398Z</time></trkpt><trkpt lat="43.8424557" lon="12.4689457"><ele>437.0</ele><time>2026-04-26T10:07:05.395Z</time></trkpt><trkpt lat="43.8425293" lon="12.4689855"><ele>437.00000000000006</ele><time>2026-04-26T10:07:06.396Z</time></trkpt><trkpt lat="43.8426656" lon="12.4691285"><ele>437.00000000000006</ele><time>2026-04-26T10:07:08.399Z</time></trkpt><trkpt lat="43.8427278" lon="12.4692003"><ele>437.0</ele><time>2026-04-26T10:07:09.4Z</time></trkpt><trkpt lat="43.8427919" lon="12.4692653"><ele>437.0</ele><time>2026-04-26T10:07:10.4Z</time></trkpt><trkpt lat="43.8428631" lon="12.4693338"><ele>437.16666666666663</ele><time>2026-04-26T10:07:11.395Z</time></trkpt><trkpt lat="43.8429304" lon="12.4694125"><ele>437.3333333333333</ele><time>2026-04-26T10:07:12.397Z</time></trkpt><trkpt lat="43.8429971" lon="12.4694766"><ele>437.5</ele><time>2026-04-26T10:07:13.405Z</time></trkpt><trkpt lat="43.8430612" lon="12.4695512"><ele>437.66666666666663</ele><time>2026-04-26T10:07:14.4Z</time></trkpt><trkpt lat="43.8431204" lon="12.4696181"><ele>437.8333333333333</ele><time>2026-04-26T10:07:15.399Z</time></trkpt><trkpt lat="43.843169" lon="12.4696832"><ele>438.0</ele><time>2026-04-26T10:07:16.397Z</time></trkpt><trkpt lat="43.8432563" lon="12.4697552"><ele>438.4</ele><time>2026-04-26T10:07:18.401Z</time></trkpt><trkpt lat="43.8433094" lon="12.4698529"><ele>438.79999999999995</ele><time>2026-04-26T10:07:21.397Z</time></trkpt><trkpt lat="43.8433351" lon="12.4700357"><ele>439.2</ele><time>2026-04-26T10:07:23.396Z</time></trkpt><trkpt lat="43.8433609" lon="12.4701474"><ele>439.6</ele><time>2026-04-26T10:07:24.403Z</time></trkpt><trkpt lat="43.8433951" lon="12.4702682"><ele>440.0</ele><time>2026-04-26T10:07:25.409Z</time></trkpt><trkpt lat="43.8434292" lon="12.4703937"><ele>444.0</ele><time>2026-04-26T10:07:26.401Z</time></trkpt><trkpt lat="43.843464" lon="12.470528"><ele>448.0</ele><time>2026-04-26T10:07:27.402Z</time></trkpt><trkpt lat="43.8435524" lon="12.4707847"><ele>452.0</ele><time>2026-04-26T10:07:29.406Z</time></trkpt><trkpt lat="43.8436206" lon="12.4709045"><ele>456.0</ele><time>2026-04-26T10:07:30.4Z</time></trkpt><trkpt lat="43.8437151" lon="12.4710164"><ele>456.0</ele><time>2026-04-26T10:07:31.402Z</time></trkpt><trkpt lat="43.8438164" lon="12.4711055"><ele>456.0</ele><time>2026-04-26T10:07:32.396Z</time></trkpt><trkpt lat="43.8439173" lon="12.4711771"><ele>456.0</ele><time>2026-04-26T10:07:33.402Z</time></trkpt><trkpt lat="43.8440141" lon="12.4712116"><ele>456.0</ele><time>2026-04-26T10:07:34.4Z</time></trkpt><trkpt lat="43.8441126" lon="12.4712072"><ele>456.0</ele><time>2026-04-26T10:07:35.397Z</time></trkpt><trkpt lat="43.8442068" lon="12.4711702"><ele>456.75</ele><time>2026-04-26T10:07:36.396Z</time></trkpt><trkpt lat="43.8443042" lon="12.4711063"><ele>457.5</ele><time>2026-04-26T10:07:37.403Z</time></trkpt><trkpt lat="43.8444073" lon="12.4710285"><ele>458.25</ele><time>2026-04-26T10:07:38.397Z</time></trkpt><trkpt lat="43.8445091" lon="12.4709448"><ele>459.0</ele><time>2026-04-26T10:07:39.397Z</time></trkpt><trkpt lat="43.8446069" lon="12.470863"><ele>459.0</ele><time>2026-04-26T10:07:40.4Z</time></trkpt><trkpt lat="43.8446913" lon="12.4708324"><ele>459.0</ele><time>2026-04-26T10:07:41.398Z</time></trkpt><trkpt lat="43.8447573" lon="12.4708547"><ele>459.0</ele><time>2026-04-26T10:07:42.399Z</time></trkpt><trkpt lat="43.8448138" lon="12.4709293"><ele>459.0</ele><time>2026-04-26T10:07:43.406Z</time></trkpt><trkpt lat="43.844864" lon="12.4710275"><ele>459.0</ele><time>2026-04-26T10:07:44.401Z</time></trkpt><trkpt lat="43.8449138" lon="12.4711528"><ele>459.0</ele><time>2026-04-26T10:07:45.402Z</time></trkpt><trkpt lat="43.844956" lon="12.4712911"><ele>463.0</ele><time>2026-04-26T10:07:46.402Z</time></trkpt><trkpt lat="43.845013" lon="12.4714212"><ele>467.0</ele><time>2026-04-26T10:07:47.401Z</time></trkpt><trkpt lat="43.8451065" lon="12.4715333"><ele>471.0</ele><time>2026-04-26T10:07:48.4Z</time></trkpt><trkpt lat="43.8453574" lon="12.4717443"><ele>471.0</ele><time>2026-04-26T10:07:50.4Z</time></trkpt><trkpt lat="43.8454799" lon="12.4718382"><ele>471.0</ele><time>2026-04-26T10:07:51.396Z</time></trkpt><trkpt lat="43.845599" lon="12.4719487"><ele>471.0</ele><time>2026-04-26T10:07:52.401Z</time></trkpt><trkpt lat="43.8457211" lon="12.4720191"><ele>471.0</ele><time>2026-04-26T10:07:53.404Z</time></trkpt><trkpt lat="43.8458549" lon="12.4720435"><ele>470.5</ele><time>2026-04-26T10:07:54.396Z</time></trkpt><trkpt lat="43.8459772" lon="12.4720843"><ele>470.0</ele><time>2026-04-26T10:07:55.397Z</time></trkpt><trkpt lat="43.846087" lon="12.472156"><ele>469.5</ele><time>2026-04-26T10:07:56.397Z</time></trkpt><trkpt lat="43.8461644" lon="12.4722659"><ele>469.0</ele><time>2026-04-26T10:07:57.399Z</time></trkpt><trkpt lat="43.8462186" lon="12.4723997"><ele>469.0</ele><time>2026-04-26T10:07:58.399Z</time></trkpt><trkpt lat="43.8462424" lon="12.4725604"><ele>469.0</ele><time>2026-04-26T10:07:59.399Z</time></trkpt><trkpt lat="43.8462507" lon="12.472753"><ele>469.0</ele><time>2026-04-26T10:08:00.397Z</time></trkpt><trkpt lat="43.8462747" lon="12.4729451"><ele>469.0</ele><time>2026-04-26T10:08:01.4Z</time></trkpt><trkpt lat="43.8463299" lon="12.4731315"><ele>474.0</ele><time>2026-04-26T10:08:02.402Z</time></trkpt><trkpt lat="43.8464195" lon="12.4733099"><ele>479.0</ele><time>2026-04-26T10:08:03.394Z</time></trkpt><trkpt lat="43.8465156" lon="12.47348"><ele>484.0</ele><time>2026-04-26T10:08:04.394Z</time></trkpt><trkpt lat="43.8465972" lon="12.4736611"><ele>487.0</ele><time>2026-04-26T10:08:05.394Z</time></trkpt><trkpt lat="43.8466561" lon="12.473864"><ele>490.0</ele><time>2026-04-26T10:08:06.392Z</time></trkpt><trkpt lat="43.8466951" lon="12.4740649"><ele>493.0</ele><time>2026-04-26T10:08:07.397Z</time></trkpt><trkpt lat="43.8467086" lon="12.474274"><ele>493.0</ele><time>2026-04-26T10:08:08.397Z</time></trkpt><trkpt lat="43.8466989" lon="12.4744688"><ele>493.0</ele><time>2026-04-26T10:08:09.4Z</time></trkpt><trkpt lat="43.8465547" lon="12.4747713"><ele>493.0</ele><time>2026-04-26T10:08:11.395Z</time></trkpt><trkpt lat="43.8464336" lon="12.4748785"><ele>492.33333333333337</ele><time>2026-04-26T10:08:12.399Z</time></trkpt><trkpt lat="43.8462794" lon="12.4749626"><ele>491.66666666666663</ele><time>2026-04-26T10:08:13.399Z</time></trkpt><trkpt lat="43.8461126" lon="12.4750343"><ele>491.0</ele><time>2026-04-26T10:08:14.397Z</time></trkpt><trkpt lat="43.8459564" lon="12.4750887"><ele>492.6</ele><time>2026-04-26T10:08:15.395Z</time></trkpt><trkpt lat="43.8458198" lon="12.4751521"><ele>494.20000000000005</ele><time>2026-04-26T10:08:16.396Z</time></trkpt><trkpt lat="43.8457316" lon="12.4751865"><ele>495.79999999999995</ele><time>2026-04-26T10:08:17.396Z</time></trkpt><trkpt lat="43.8456713" lon="12.4752273"><ele>497.4</ele><time>2026-04-26T10:08:18.398Z</time></trkpt><trkpt lat="43.8456469" lon="12.4753449"><ele>499.0</ele><time>2026-04-26T10:08:20.401Z</time></trkpt><trkpt lat="43.8457017" lon="12.4754908"><ele>498.4</ele><time>2026-04-26T10:08:22.404Z</time></trkpt><trkpt lat="43.8457666" lon="12.4755722"><ele>497.79999999999995</ele><time>2026-04-26T10:08:23.402Z</time></trkpt><trkpt lat="43.8458457" lon="12.4756592"><ele>497.20000000000005</ele><time>2026-04-26T10:08:24.398Z</time></trkpt><trkpt lat="43.8459218" lon="12.4757494"><ele>496.6</ele><time>2026-04-26T10:08:25.397Z</time></trkpt><trkpt lat="43.8459965" lon="12.4758488"><ele>496.0</ele><time>2026-04-26T10:08:26.4Z</time></trkpt><trkpt lat="43.8460598" lon="12.4759614"><ele>496.0</ele><time>2026-04-26T10:08:27.398Z</time></trkpt><trkpt lat="43.8461034" lon="12.4760886"><ele>496.0</ele><time>2026-04-26T10:08:28.399Z</time></trkpt><trkpt lat="43.8461494" lon="12.4762294"><ele>496.0</ele><time>2026-04-26T10:08:29.397Z</time></trkpt><trkpt lat="43.8461922" lon="12.476363"><ele>496.0</ele><time>2026-04-26T10:08:30.399Z</time></trkpt><trkpt lat="43.8462425" lon="12.476629"><ele>498.1666666666667</ele><time>2026-04-26T10:08:32.401Z</time></trkpt><trkpt lat="43.8462522" lon="12.476774"><ele>500.33333333333337</ele><time>2026-04-26T10:08:33.4Z</time></trkpt><trkpt lat="43.8462576" lon="12.4769104"><ele>502.5</ele><time>2026-04-26T10:08:34.393Z</time></trkpt><trkpt lat="43.8462588" lon="12.4770249"><ele>504.66666666666663</ele><time>2026-04-26T10:08:35.394Z</time></trkpt><trkpt lat="43.846274" lon="12.4771331"><ele>506.8333333333333</ele><time>2026-04-26T10:08:36.394Z</time></trkpt><trkpt lat="43.8462917" lon="12.4772301"><ele>509.0</ele><time>2026-04-26T10:08:37.393Z</time></trkpt><trkpt lat="43.846351" lon="12.4773197"><ele>510.6</ele><time>2026-04-26T10:08:38.398Z</time></trkpt><trkpt lat="43.846447" lon="12.477396"><ele>512.2</ele><time>2026-04-26T10:08:39.396Z</time></trkpt><trkpt lat="43.8465395" lon="12.477463"><ele>513.8000000000001</ele><time>2026-04-26T10:08:40.402Z</time></trkpt><trkpt lat="43.8466414" lon="12.4775237"><ele>515.4</ele><time>2026-04-26T10:08:41.399Z</time></trkpt><trkpt lat="43.84675" lon="12.4775561"><ele>517.0</ele><time>2026-04-26T10:08:42.397Z</time></trkpt><trkpt lat="43.8468618" lon="12.4775662"><ele>517.8000000000001</ele><time>2026-04-26T10:08:43.402Z</time></trkpt><trkpt lat="43.8469805" lon="12.4775869"><ele>518.6</ele><time>2026-04-26T10:08:44.398Z</time></trkpt><trkpt lat="43.8470962" lon="12.4776162"><ele>519.4000000000001</ele><time>2026-04-26T10:08:45.395Z</time></trkpt><trkpt lat="43.8471996" lon="12.4776061"><ele>520.2</ele><time>2026-04-26T10:08:46.399Z</time></trkpt><trkpt lat="43.8472861" lon="12.477615"><ele>521.0</ele><time>2026-04-26T10:08:47.397Z</time></trkpt><trkpt lat="43.8473582" lon="12.4776391"><ele>521.0</ele><time>2026-04-26T10:08:48.397Z</time></trkpt><trkpt lat="43.8474152" lon="12.4777011"><ele>521.0</ele><time>2026-04-26T10:08:49.397Z</time></trkpt><trkpt lat="43.8474579" lon="12.4777844"><ele>521.0</ele><time>2026-04-26T10:08:50.4Z</time></trkpt><trkpt lat="43.8474845" lon="12.4778863"><ele>521.0</ele><time>2026-04-26T10:08:51.402Z</time></trkpt><trkpt lat="43.8475443" lon="12.4781046"><ele>521.0</ele><time>2026-04-26T10:08:53.398Z</time></trkpt><trkpt lat="43.847604" lon="12.4782202"><ele>523.25</ele><time>2026-04-26T10:08:54.396Z</time></trkpt><trkpt lat="43.8476698" lon="12.4783314"><ele>525.5</ele><time>2026-04-26T10:08:55.399Z</time></trkpt><trkpt lat="43.8477452" lon="12.4784481"><ele>527.75</ele><time>2026-04-26T10:08:56.395Z</time></trkpt><trkpt lat="43.8478197" lon="12.4785628"><ele>530.0</ele><time>2026-04-26T10:08:57.399Z</time></trkpt><trkpt lat="43.847932" lon="12.478667"><ele>531.75</ele><time>2026-04-26T10:08:58.4Z</time></trkpt><trkpt lat="43.8480193" lon="12.478769"><ele>533.5</ele><time>2026-04-26T10:08:59.403Z</time></trkpt><trkpt lat="43.8480966" lon="12.4788689"><ele>535.25</ele><time>2026-04-26T10:09:00.4Z</time></trkpt><trkpt lat="43.848176" lon="12.4789825"><ele>537.0</ele><time>2026-04-26T10:09:01.401Z</time></trkpt><trkpt lat="43.8482574" lon="12.4791084"><ele>537.0</ele><time>2026-04-26T10:09:02.396Z</time></trkpt><trkpt lat="43.8483483" lon="12.4792193"><ele>537.0</ele><time>2026-04-26T10:09:03.396Z</time></trkpt><trkpt lat="43.8484587" lon="12.4793217"><ele>537.0</ele><time>2026-04-26T10:09:04.397Z</time></trkpt><trkpt lat="43.8485556" lon="12.4794079"><ele>537.0</ele><time>2026-04-26T10:09:05.398Z</time></trkpt><trkpt lat="43.848634" lon="12.4794911"><ele>538.3333333333334</ele><time>2026-04-26T10:09:06.393Z</time></trkpt><trkpt lat="43.8487106" lon="12.4795841"><ele>539.6666666666666</ele><time>2026-04-26T10:09:07.397Z</time></trkpt><trkpt lat="43.8487662" lon="12.4796681"><ele>541.0</ele><time>2026-04-26T10:09:08.398Z</time></trkpt><trkpt lat="43.8488371" lon="12.4797463"><ele>542.3333333333333</ele><time>2026-04-26T10:09:09.407Z</time></trkpt><trkpt lat="43.8488815" lon="12.4798186"><ele>543.6666666666666</ele><time>2026-04-26T10:09:10.396Z</time></trkpt><trkpt lat="43.8489532" lon="12.4799091"><ele>545.0</ele><time>2026-04-26T10:09:11.394Z</time></trkpt><trkpt lat="43.8490527" lon="12.4800125"><ele>545.0</ele><time>2026-04-26T10:09:12.395Z</time></trkpt><trkpt lat="43.8492043" lon="12.4801988"><ele>545.0</ele><time>2026-04-26T10:09:14.398Z</time></trkpt><trkpt lat="43.8492777" lon="12.4802779"><ele>545.0</ele><time>2026-04-26T10:09:15.401Z</time></trkpt><trkpt lat="43.849367" lon="12.4803726"><ele>545.0</ele><time>2026-04-26T10:09:16.398Z</time></trkpt><trkpt lat="43.8494378" lon="12.480456"><ele>546.8333333333333</ele><time>2026-04-26T10:09:17.397Z</time></trkpt><trkpt lat="43.8494809" lon="12.4805566"><ele>548.6666666666666</ele><time>2026-04-26T10:09:18.405Z</time></trkpt><trkpt lat="43.849516" lon="12.480636"><ele>550.5</ele><time>2026-04-26T10:09:19.4Z</time></trkpt><trkpt lat="43.8495604" lon="12.4806981"><ele>552.3333333333334</ele><time>2026-04-26T10:09:20.402Z</time></trkpt><trkpt lat="43.8496831" lon="12.4807862"><ele>554.1666666666667</ele><time>2026-04-26T10:09:22.399Z</time></trkpt><trkpt lat="43.8497587" lon="12.4808458"><ele>556.0</ele><time>2026-04-26T10:09:23.398Z</time></trkpt><trkpt lat="43.8498371" lon="12.4808943"><ele>556.0</ele><time>2026-04-26T10:09:24.403Z</time></trkpt><trkpt lat="43.8499119" lon="12.4809688"><ele>556.0</ele><time>2026-04-26T10:09:25.401Z</time></trkpt><trkpt lat="43.849966" lon="12.4810699"><ele>556.0</ele><time>2026-04-26T10:09:26.395Z</time></trkpt><trkpt lat="43.8500015" lon="12.4811766"><ele>556.0</ele><time>2026-04-26T10:09:27.396Z</time></trkpt><trkpt lat="43.8500214" lon="12.481292"><ele>556.0</ele><time>2026-04-26T10:09:28.4Z</time></trkpt><trkpt lat="43.8500343" lon="12.4813921"><ele>556.0</ele><time>2026-04-26T10:09:29.398Z</time></trkpt><trkpt lat="43.8500618" lon="12.4814894"><ele>555.8</ele><time>2026-04-26T10:09:30.4Z</time></trkpt><trkpt lat="43.8500989" lon="12.4815697"><ele>555.6</ele><time>2026-04-26T10:09:31.4Z</time></trkpt><trkpt lat="43.8501751" lon="12.4816243"><ele>555.4</ele><time>2026-04-26T10:09:32.397Z</time></trkpt><trkpt lat="43.8502577" lon="12.4816752"><ele>555.2</ele><time>2026-04-26T10:09:33.401Z</time></trkpt><trkpt lat="43.8503911" lon="12.4818204"><ele>555.0</ele><time>2026-04-26T10:09:35.397Z</time></trkpt><trkpt lat="43.8504644" lon="12.4818697"><ele>555.0</ele><time>2026-04-26T10:09:36.399Z</time></trkpt><trkpt lat="43.8505213" lon="12.4819073"><ele>555.0</ele><time>2026-04-26T10:09:37.397Z</time></trkpt><trkpt lat="43.8505892" lon="12.4820044"><ele>555.0</ele><time>2026-04-26T10:09:39.397Z</time></trkpt><trkpt lat="43.850566" lon="12.482156"><ele>555.0</ele><time>2026-04-26T10:09:41.403Z</time></trkpt><trkpt lat="43.8505187" lon="12.4822704"><ele>555.0</ele><time>2026-04-26T10:09:42.397Z</time></trkpt><trkpt lat="43.8504636" lon="12.4823829"><ele>549.5</ele><time>2026-04-26T10:09:43.408Z</time></trkpt><trkpt lat="43.8504072" lon="12.4825125"><ele>544.0</ele><time>2026-04-26T10:09:44.399Z</time></trkpt><trkpt lat="43.8503501" lon="12.4826605"><ele>538.5</ele><time>2026-04-26T10:09:45.403Z</time></trkpt><trkpt lat="43.8502893" lon="12.4827931"><ele>533.0</ele><time>2026-04-26T10:09:46.408Z</time></trkpt><trkpt lat="43.8502416" lon="12.482933"><ele>531.1999999999999</ele><time>2026-04-26T10:09:47.403Z</time></trkpt><trkpt lat="43.8502072" lon="12.4830833"><ele>529.4</ele><time>2026-04-26T10:09:48.396Z</time></trkpt><trkpt lat="43.8501718" lon="12.4832351"><ele>527.5999999999999</ele><time>2026-04-26T10:09:49.4Z</time></trkpt><trkpt lat="43.8501279" lon="12.4833734"><ele>525.8</ele><time>2026-04-26T10:09:50.402Z</time></trkpt><trkpt lat="43.8500854" lon="12.4835081"><ele>524.0</ele><time>2026-04-26T10:09:51.403Z</time></trkpt><trkpt lat="43.8500353" lon="12.4836403"><ele>523.75</ele><time>2026-04-26T10:09:52.399Z</time></trkpt><trkpt lat="43.8499796" lon="12.4837716"><ele>523.5</ele><time>2026-04-26T10:09:53.399Z</time></trkpt><trkpt lat="43.8499388" lon="12.4838985"><ele>523.25</ele><time>2026-04-26T10:09:54.396Z</time></trkpt><trkpt lat="43.8498897" lon="12.4841315"><ele>523.0</ele><time>2026-04-26T10:09:56.403Z</time></trkpt><trkpt lat="43.8498814" lon="12.4842829"><ele>523.0</ele><time>2026-04-26T10:09:57.402Z</time></trkpt><trkpt lat="43.8498749" lon="12.4844187"><ele>523.0</ele><time>2026-04-26T10:09:58.398Z</time></trkpt><trkpt lat="43.8498699" lon="12.4845782"><ele>523.0</ele><time>2026-04-26T10:09:59.399Z</time></trkpt><trkpt lat="43.8498627" lon="12.4847329"><ele>523.0</ele><time>2026-04-26T10:10:00.396Z</time></trkpt><trkpt lat="43.84985" lon="12.4848675"><ele>523.0</ele><time>2026-04-26T10:10:01.398Z</time></trkpt><trkpt lat="43.849839" lon="12.484994"><ele>521.6666666666667</ele><time>2026-04-26T10:10:02.408Z</time></trkpt><trkpt lat="43.8498448" lon="12.4851178"><ele>520.3333333333334</ele><time>2026-04-26T10:10:03.4Z</time></trkpt><trkpt lat="43.8498572" lon="12.4852601"><ele>519.0</ele><time>2026-04-26T10:10:04.397Z</time></trkpt><trkpt lat="43.8498619" lon="12.4853828"><ele>517.6666666666666</ele><time>2026-04-26T10:10:05.395Z</time></trkpt><trkpt lat="43.8498664" lon="12.4855017"><ele>516.3333333333333</ele><time>2026-04-26T10:10:06.396Z</time></trkpt><trkpt lat="43.8498779" lon="12.4856003"><ele>515.0</ele><time>2026-04-26T10:10:07.394Z</time></trkpt><trkpt lat="43.849891" lon="12.4857107"><ele>513.1666666666666</ele><time>2026-04-26T10:10:08.398Z</time></trkpt><trkpt lat="43.8499165" lon="12.4858327"><ele>511.3333333333333</ele><time>2026-04-26T10:10:09.397Z</time></trkpt><trkpt lat="43.8499261" lon="12.48595"><ele>509.5</ele><time>2026-04-26T10:10:10.409Z</time></trkpt><trkpt lat="43.8499398" lon="12.486063"><ele>507.66666666666663</ele><time>2026-04-26T10:10:11.4Z</time></trkpt><trkpt lat="43.8499559" lon="12.4861794"><ele>505.8333333333333</ele><time>2026-04-26T10:10:12.403Z</time></trkpt><trkpt lat="43.8499748" lon="12.4863049"><ele>504.0</ele><time>2026-04-26T10:10:13.4Z</time></trkpt><trkpt lat="43.8499909" lon="12.4864361"><ele>501.5</ele><time>2026-04-26T10:10:14.398Z</time></trkpt><trkpt lat="43.8500054" lon="12.4865631"><ele>499.0</ele><time>2026-04-26T10:10:15.395Z</time></trkpt><trkpt lat="43.8500174" lon="12.486826"><ele>496.5</ele><time>2026-04-26T10:10:17.403Z</time></trkpt><trkpt lat="43.8500262" lon="12.486939"><ele>494.0</ele><time>2026-04-26T10:10:18.398Z</time></trkpt><trkpt lat="43.8500384" lon="12.4870571"><ele>492.57142857142856</ele><time>2026-04-26T10:10:19.398Z</time></trkpt><trkpt lat="43.850032" lon="12.4871663"><ele>491.1428571428571</ele><time>2026-04-26T10:10:20.399Z</time></trkpt><trkpt lat="43.8500255" lon="12.4872816"><ele>489.71428571428567</ele><time>2026-04-26T10:10:21.401Z</time></trkpt><trkpt lat="43.8500085" lon="12.4873833"><ele>488.2857142857143</ele><time>2026-04-26T10:10:22.4Z</time></trkpt><trkpt lat="43.8499866" lon="12.4874759"><ele>486.8571428571428</ele><time>2026-04-26T10:10:23.404Z</time></trkpt><trkpt lat="43.8499472" lon="12.4875481"><ele>485.4285714285714</ele><time>2026-04-26T10:10:24.402Z</time></trkpt><trkpt lat="43.8498974" lon="12.4876019"><ele>484.0</ele><time>2026-04-26T10:10:25.398Z</time></trkpt><trkpt lat="43.8498286" lon="12.487654"><ele>484.00000000000006</ele><time>2026-04-26T10:10:26.4Z</time></trkpt><trkpt lat="43.8497553" lon="12.4877146"><ele>484.0</ele><time>2026-04-26T10:10:27.397Z</time></trkpt><trkpt lat="43.8496905" lon="12.4877748"><ele>484.0</ele><time>2026-04-26T10:10:28.4Z</time></trkpt><trkpt lat="43.849627" lon="12.4878823"><ele>484.0</ele><time>2026-04-26T10:10:30.4Z</time></trkpt><trkpt lat="43.8496096" lon="12.4880304"><ele>484.00000000000006</ele><time>2026-04-26T10:10:32.403Z</time></trkpt><trkpt lat="43.849602" lon="12.488121"><ele>484.0</ele><time>2026-04-26T10:10:33.397Z</time></trkpt><trkpt lat="43.8495984" lon="12.4882164"><ele>484.2</ele><time>2026-04-26T10:10:34.401Z</time></trkpt><trkpt lat="43.8496099" lon="12.4883216"><ele>484.4</ele><time>2026-04-26T10:10:35.4Z</time></trkpt><trkpt lat="43.8496315" lon="12.4884133"><ele>484.6</ele><time>2026-04-26T10:10:36.398Z</time></trkpt><trkpt lat="43.8497024" lon="12.4886195"><ele>484.8</ele><time>2026-04-26T10:10:38.397Z</time></trkpt><trkpt lat="43.8497334" lon="12.4887238"><ele>485.0</ele><time>2026-04-26T10:10:39.4Z</time></trkpt><trkpt lat="43.8497451" lon="12.4888211"><ele>484.99999999999994</ele><time>2026-04-26T10:10:40.398Z</time></trkpt><trkpt lat="43.8497644" lon="12.4889192"><ele>485.0</ele><time>2026-04-26T10:10:41.404Z</time></trkpt><trkpt lat="43.849809" lon="12.4890084"><ele>485.0</ele><time>2026-04-26T10:10:42.402Z</time></trkpt><trkpt lat="43.8498553" lon="12.4890822"><ele>485.0</ele><time>2026-04-26T10:10:43.395Z</time></trkpt><trkpt lat="43.8499105" lon="12.4891918"><ele>484.99999999999994</ele><time>2026-04-26T10:10:45.403Z</time></trkpt><trkpt lat="43.8499495" lon="12.4893339"><ele>485.0</ele><time>2026-04-26T10:10:47.404Z</time></trkpt><trkpt lat="43.84997" lon="12.4894331"><ele>485.0</ele><time>2026-04-26T10:10:48.404Z</time></trkpt><trkpt lat="43.8499898" lon="12.4895494"><ele>485.0</ele><time>2026-04-26T10:10:49.404Z</time></trkpt><trkpt lat="43.8500184" lon="12.4896757"><ele>485.0</ele><time>2026-04-26T10:10:50.407Z</time></trkpt><trkpt lat="43.8500535" lon="12.4898103"><ele>485.0</ele><time>2026-04-26T10:10:51.4Z</time></trkpt><trkpt lat="43.8500922" lon="12.4899575"><ele>485.0</ele><time>2026-04-26T10:10:52.402Z</time></trkpt><trkpt lat="43.85013" lon="12.4900936"><ele>483.4</ele><time>2026-04-26T10:10:53.404Z</time></trkpt><trkpt lat="43.850163" lon="12.4902237"><ele>481.8</ele><time>2026-04-26T10:10:54.404Z</time></trkpt><trkpt lat="43.8501996" lon="12.4903654"><ele>480.20000000000005</ele><time>2026-04-26T10:10:55.403Z</time></trkpt><trkpt lat="43.8502249" lon="12.4904785"><ele>478.6</ele><time>2026-04-26T10:10:56.4Z</time></trkpt><trkpt lat="43.8502539" lon="12.4905908"><ele>477.0</ele><time>2026-04-26T10:10:57.399Z</time></trkpt><trkpt lat="43.8503519" lon="12.4907955"><ele>477.0</ele><time>2026-04-26T10:10:59.399Z</time></trkpt><trkpt lat="43.8503728" lon="12.490921"><ele>477.0</ele><time>2026-04-26T10:11:00.398Z</time></trkpt><trkpt lat="43.8503889" lon="12.4910747"><ele>477.0</ele><time>2026-04-26T10:11:01.403Z</time></trkpt><trkpt lat="43.8504165" lon="12.4912535"><ele>477.0</ele><time>2026-04-26T10:11:02.406Z</time></trkpt><trkpt lat="43.8504459" lon="12.4914057"><ele>477.1666666666667</ele><time>2026-04-26T10:11:03.405Z</time></trkpt><trkpt lat="43.8504711" lon="12.4915447"><ele>477.33333333333337</ele><time>2026-04-26T10:11:04.397Z</time></trkpt><trkpt lat="43.8504802" lon="12.4916623"><ele>477.5</ele><time>2026-04-26T10:11:05.4Z</time></trkpt><trkpt lat="43.8504914" lon="12.4917542"><ele>477.6666666666667</ele><time>2026-04-26T10:11:06.4Z</time></trkpt><trkpt lat="43.8504965" lon="12.491931"><ele>477.83333333333337</ele><time>2026-04-26T10:11:08.4Z</time></trkpt><trkpt lat="43.8505167" lon="12.4920169"><ele>478.0</ele><time>2026-04-26T10:11:09.403Z</time></trkpt><trkpt lat="43.8505609" lon="12.4921183"><ele>478.79999999999995</ele><time>2026-04-26T10:11:10.403Z</time></trkpt><trkpt lat="43.8506004" lon="12.4922086"><ele>479.59999999999997</ele><time>2026-04-26T10:11:11.396Z</time></trkpt><trkpt lat="43.8506233" lon="12.4922902"><ele>480.40000000000003</ele><time>2026-04-26T10:11:12.404Z</time></trkpt><trkpt lat="43.8506617" lon="12.4924592"><ele>481.20000000000005</ele><time>2026-04-26T10:11:14.398Z</time></trkpt><trkpt lat="43.850692" lon="12.4925741"><ele>482.0</ele><time>2026-04-26T10:11:15.4Z</time></trkpt><trkpt lat="43.8507345" lon="12.4926947"><ele>482.0</ele><time>2026-04-26T10:11:16.396Z</time></trkpt><trkpt lat="43.8507703" lon="12.4927988"><ele>482.00000000000006</ele><time>2026-04-26T10:11:17.397Z</time></trkpt><trkpt lat="43.8508213" lon="12.4928973"><ele>482.00000000000006</ele><time>2026-04-26T10:11:18.403Z</time></trkpt><trkpt lat="43.8509351" lon="12.4930922"><ele>482.0</ele><time>2026-04-26T10:11:20.399Z</time></trkpt><trkpt lat="43.8509788" lon="12.4931973"><ele>482.0</ele><time>2026-04-26T10:11:21.402Z</time></trkpt><trkpt lat="43.8510108" lon="12.4933069"><ele>481.49999999999994</ele><time>2026-04-26T10:11:22.402Z</time></trkpt><trkpt lat="43.8510223" lon="12.4934173"><ele>481.0</ele><time>2026-04-26T10:11:23.399Z</time></trkpt><trkpt lat="43.8510258" lon="12.4935213"><ele>480.5</ele><time>2026-04-26T10:11:24.396Z</time></trkpt><trkpt lat="43.8510444" lon="12.4936347"><ele>480.0</ele><time>2026-04-26T10:11:25.397Z</time></trkpt><trkpt lat="43.8510748" lon="12.4937571"><ele>479.49999999999994</ele><time>2026-04-26T10:11:26.4Z</time></trkpt><trkpt lat="43.8511066" lon="12.4938694"><ele>479.0</ele><time>2026-04-26T10:11:27.395Z</time></trkpt><trkpt lat="43.851128" lon="12.4939845"><ele>478.99999999999994</ele><time>2026-04-26T10:11:28.398Z</time></trkpt><trkpt lat="43.8511452" lon="12.4940807"><ele>479.0</ele><time>2026-04-26T10:11:29.398Z</time></trkpt><trkpt lat="43.8511654" lon="12.4941752"><ele>479.0</ele><time>2026-04-26T10:11:30.396Z</time></trkpt><trkpt lat="43.8511707" lon="12.4942835"><ele>479.0</ele><time>2026-04-26T10:11:31.397Z</time></trkpt><trkpt lat="43.8511825" lon="12.4944066"><ele>478.99999999999994</ele><time>2026-04-26T10:11:32.402Z</time></trkpt><trkpt lat="43.8511961" lon="12.494544"><ele>479.0</ele><time>2026-04-26T10:11:33.397Z</time></trkpt><trkpt lat="43.8512047" lon="12.4946956"><ele>480.6</ele><time>2026-04-26T10:11:34.397Z</time></trkpt><trkpt lat="43.8512082" lon="12.4948373"><ele>482.2</ele><time>2026-04-26T10:11:35.401Z</time></trkpt><trkpt lat="43.8512205" lon="12.4949742"><ele>483.80000000000007</ele><time>2026-04-26T10:11:36.396Z</time></trkpt><trkpt lat="43.8512436" lon="12.4950892"><ele>485.40000000000003</ele><time>2026-04-26T10:11:37.398Z</time></trkpt><trkpt lat="43.8512738" lon="12.4952031"><ele>487.0</ele><time>2026-04-26T10:11:38.399Z</time></trkpt><trkpt lat="43.8513164" lon="12.4953211"><ele>488.8</ele><time>2026-04-26T10:11:39.396Z</time></trkpt><trkpt lat="43.8513976" lon="12.4955539"><ele>490.6</ele><time>2026-04-26T10:11:41.404Z</time></trkpt><trkpt lat="43.8514247" lon="12.495666"><ele>492.40000000000003</ele><time>2026-04-26T10:11:42.398Z</time></trkpt><trkpt lat="43.8514465" lon="12.4957751"><ele>494.20000000000005</ele><time>2026-04-26T10:11:43.401Z</time></trkpt><trkpt lat="43.8514689" lon="12.4958843"><ele>496.0</ele><time>2026-04-26T10:11:44.396Z</time></trkpt><trkpt lat="43.8514908" lon="12.4959916"><ele>496.0</ele><time>2026-04-26T10:11:45.395Z</time></trkpt><trkpt lat="43.8515165" lon="12.4960798"><ele>496.0</ele><time>2026-04-26T10:11:46.398Z</time></trkpt><trkpt lat="43.8515486" lon="12.4961996"><ele>496.0</ele><time>2026-04-26T10:11:48.4Z</time></trkpt><trkpt lat="43.8515316" lon="12.4963144"><ele>496.0</ele><time>2026-04-26T10:11:50.403Z</time></trkpt><trkpt lat="43.8514986" lon="12.496476"><ele>496.0</ele><time>2026-04-26T10:11:52.396Z</time></trkpt><trkpt lat="43.8514868" lon="12.4965926"><ele>497.8</ele><time>2026-04-26T10:11:53.397Z</time></trkpt><trkpt lat="43.8514902" lon="12.4967312"><ele>499.6</ele><time>2026-04-26T10:11:54.396Z</time></trkpt><trkpt lat="43.8515045" lon="12.4968912"><ele>501.4</ele><time>2026-04-26T10:11:55.399Z</time></trkpt><trkpt lat="43.8514998" lon="12.4970377"><ele>503.2</ele><time>2026-04-26T10:11:56.395Z</time></trkpt><trkpt lat="43.851484" lon="12.4971859"><ele>505.0</ele><time>2026-04-26T10:11:57.397Z</time></trkpt><trkpt lat="43.8514601" lon="12.4973106"><ele>506.2</ele><time>2026-04-26T10:11:58.397Z</time></trkpt><trkpt lat="43.8514272" lon="12.4974264"><ele>507.4</ele><time>2026-04-26T10:11:59.4Z</time></trkpt><trkpt lat="43.8514018" lon="12.4975347"><ele>508.6</ele><time>2026-04-26T10:12:00.4Z</time></trkpt><trkpt lat="43.8514215" lon="12.4977665"><ele>509.8</ele><time>2026-04-26T10:12:02.395Z</time></trkpt><trkpt lat="43.851458" lon="12.4978976"><ele>511.0</ele><time>2026-04-26T10:12:03.4Z</time></trkpt><trkpt lat="43.8514886" lon="12.4980331"><ele>513.4</ele><time>2026-04-26T10:12:04.397Z</time></trkpt><trkpt lat="43.8514983" lon="12.4981711"><ele>515.8</ele><time>2026-04-26T10:12:05.397Z</time></trkpt><trkpt lat="43.8515045" lon="12.4983261"><ele>518.1999999999999</ele><time>2026-04-26T10:12:06.396Z</time></trkpt><trkpt lat="43.8515093" lon="12.4984759"><ele>520.6</ele><time>2026-04-26T10:12:07.396Z</time></trkpt><trkpt lat="43.8515113" lon="12.4986113"><ele>523.0</ele><time>2026-04-26T10:12:08.4Z</time></trkpt><trkpt lat="43.8515196" lon="12.498729"><ele>525.6</ele><time>2026-04-26T10:12:09.402Z</time></trkpt><trkpt lat="43.8515538" lon="12.498845"><ele>528.1999999999999</ele><time>2026-04-26T10:12:10.394Z</time></trkpt><trkpt lat="43.8515987" lon="12.4989633"><ele>530.8</ele><time>2026-04-26T10:12:11.402Z</time></trkpt><trkpt lat="43.8516426" lon="12.499085"><ele>533.4</ele><time>2026-04-26T10:12:12.404Z</time></trkpt><trkpt lat="43.851668" lon="12.4992021"><ele>536.0</ele><time>2026-04-26T10:12:13.396Z</time></trkpt><trkpt lat="43.8516706" lon="12.4993298"><ele>536.0</ele><time>2026-04-26T10:12:14.4Z</time></trkpt><trkpt lat="43.8516616" lon="12.4994719"><ele>536.0</ele><time>2026-04-26T10:12:15.397Z</time></trkpt><trkpt lat="43.851642" lon="12.4996177"><ele>536.0</ele><time>2026-04-26T10:12:16.401Z</time></trkpt><trkpt lat="43.8516285" lon="12.4997922"><ele>536.0</ele><time>2026-04-26T10:12:17.403Z</time></trkpt><trkpt lat="43.8516276" lon="12.4999708"><ele>537.2</ele><time>2026-04-26T10:12:18.397Z</time></trkpt><trkpt lat="43.8516382" lon="12.5001201"><ele>538.4000000000001</ele><time>2026-04-26T10:12:19.396Z</time></trkpt><trkpt lat="43.8516497" lon="12.5002382"><ele>539.6</ele><time>2026-04-26T10:12:20.395Z</time></trkpt><trkpt lat="43.8516649" lon="12.5003409"><ele>540.8000000000001</ele><time>2026-04-26T10:12:21.399Z</time></trkpt><trkpt lat="43.8516907" lon="12.500553"><ele>542.0</ele><time>2026-04-26T10:12:23.398Z</time></trkpt><trkpt lat="43.8517008" lon="12.500643"><ele>542.0</ele><time>2026-04-26T10:12:24.398Z</time></trkpt><trkpt lat="43.8517653" lon="12.500798"><ele>542.0</ele><time>2026-04-26T10:12:26.4Z</time></trkpt><trkpt lat="43.8518272" lon="12.5008649"><ele>542.0</ele><time>2026-04-26T10:12:27.399Z</time></trkpt><trkpt lat="43.8518942" lon="12.5009351"><ele>542.0</ele><time>2026-04-26T10:12:28.399Z</time></trkpt><trkpt lat="43.8519678" lon="12.5010067"><ele>542.0</ele><time>2026-04-26T10:12:29.401Z</time></trkpt><trkpt lat="43.8520261" lon="12.5011137"><ele>541.5</ele><time>2026-04-26T10:12:30.399Z</time></trkpt><trkpt lat="43.8520826" lon="12.5012377"><ele>541.0</ele><time>2026-04-26T10:12:31.403Z</time></trkpt><trkpt lat="43.8521349" lon="12.501381"><ele>540.5</ele><time>2026-04-26T10:12:32.404Z</time></trkpt><trkpt lat="43.8521816" lon="12.5015427"><ele>540.0</ele><time>2026-04-26T10:12:33.398Z</time></trkpt><trkpt lat="43.8522363" lon="12.5017038"><ele>541.25</ele><time>2026-04-26T10:12:34.402Z</time></trkpt><trkpt lat="43.852296" lon="12.5018488"><ele>542.5</ele><time>2026-04-26T10:12:35.404Z</time></trkpt><trkpt lat="43.85236" lon="12.5019811"><ele>543.75</ele><time>2026-04-26T10:12:36.395Z</time></trkpt><trkpt lat="43.8524344" lon="12.5020994"><ele>545.0</ele><time>2026-04-26T10:12:37.397Z</time></trkpt><trkpt lat="43.8525198" lon="12.5021993"><ele>545.6</ele><time>2026-04-26T10:12:38.4Z</time></trkpt><trkpt lat="43.8526095" lon="12.5022793"><ele>546.2</ele><time>2026-04-26T10:12:39.405Z</time></trkpt><trkpt lat="43.8527004" lon="12.5023509"><ele>546.8</ele><time>2026-04-26T10:12:40.401Z</time></trkpt><trkpt lat="43.8527869" lon="12.5024276"><ele>547.4</ele><time>2026-04-26T10:12:41.396Z</time></trkpt><trkpt lat="43.8528673" lon="12.5025074"><ele>548.0</ele><time>2026-04-26T10:12:42.398Z</time></trkpt><trkpt lat="43.8530308" lon="12.5026749"><ele>549.6</ele><time>2026-04-26T10:12:44.399Z</time></trkpt><trkpt lat="43.8531125" lon="12.5027521"><ele>551.1999999999999</ele><time>2026-04-26T10:12:45.4Z</time></trkpt><trkpt lat="43.8531921" lon="12.5028376"><ele>552.8</ele><time>2026-04-26T10:12:46.398Z</time></trkpt><trkpt lat="43.8532623" lon="12.502931"><ele>554.4</ele><time>2026-04-26T10:12:47.395Z</time></trkpt><trkpt lat="43.8533158" lon="12.5030354"><ele>556.0</ele><time>2026-04-26T10:12:48.397Z</time></trkpt><trkpt lat="43.8533693" lon="12.5031292"><ele>556.3333333333334</ele><time>2026-04-26T10:12:49.398Z</time></trkpt><trkpt lat="43.8534308" lon="12.5032113"><ele>556.6666666666667</ele><time>2026-04-26T10:12:50.395Z</time></trkpt><trkpt lat="43.8534936" lon="12.5032661"><ele>557.0</ele><time>2026-04-26T10:12:51.401Z</time></trkpt><trkpt lat="43.8535642" lon="12.5032915"><ele>557.3333333333334</ele><time>2026-04-26T10:12:52.402Z</time></trkpt><trkpt lat="43.8536304" lon="12.5033006"><ele>557.6666666666666</ele><time>2026-04-26T10:12:53.4Z</time></trkpt><trkpt lat="43.8536946" lon="12.5034161"><ele>558.0</ele><time>2026-04-26T10:12:55.397Z</time></trkpt><trkpt lat="43.8536959" lon="12.5035151"><ele>559.8</ele><time>2026-04-26T10:12:56.398Z</time></trkpt><trkpt lat="43.8536874" lon="12.5036391"><ele>561.5999999999999</ele><time>2026-04-26T10:12:57.4Z</time></trkpt><trkpt lat="43.8536892" lon="12.5037873"><ele>563.4000000000001</ele><time>2026-04-26T10:12:58.4Z</time></trkpt><trkpt lat="43.853707" lon="12.5039485"><ele>565.2</ele><time>2026-04-26T10:12:59.402Z</time></trkpt><trkpt lat="43.8537495" lon="12.5041172"><ele>567.0</ele><time>2026-04-26T10:13:00.396Z</time></trkpt><trkpt lat="43.8538119" lon="12.5042757"><ele>568.0</ele><time>2026-04-26T10:13:01.398Z</time></trkpt><trkpt lat="43.8538669" lon="12.5044546"><ele>569.0</ele><time>2026-04-26T10:13:02.397Z</time></trkpt><trkpt lat="43.8539198" lon="12.5046198"><ele>570.0</ele><time>2026-04-26T10:13:03.399Z</time></trkpt><trkpt lat="43.8540193" lon="12.5049351"><ele>566.5</ele><time>2026-04-26T10:13:05.393Z</time></trkpt><trkpt lat="43.8540824" lon="12.5050849"><ele>563.0</ele><time>2026-04-26T10:13:06.395Z</time></trkpt><trkpt lat="43.8541555" lon="12.5052215"><ele>559.5</ele><time>2026-04-26T10:13:07.399Z</time></trkpt><trkpt lat="43.8542344" lon="12.5053507"><ele>556.0</ele><time>2026-04-26T10:13:08.4Z</time></trkpt><trkpt lat="43.854319" lon="12.5054683"><ele>554.5</ele><time>2026-04-26T10:13:09.402Z</time></trkpt><trkpt lat="43.8544286" lon="12.5055636"><ele>553.0</ele><time>2026-04-26T10:13:10.398Z</time></trkpt><trkpt lat="43.8545703" lon="12.5056349"><ele>551.5</ele><time>2026-04-26T10:13:11.402Z</time></trkpt><trkpt lat="43.8547268" lon="12.5056936"><ele>550.0</ele><time>2026-04-26T10:13:12.396Z</time></trkpt><trkpt lat="43.8548882" lon="12.5057397"><ele>550.0</ele><time>2026-04-26T10:13:13.397Z</time></trkpt><trkpt lat="43.8550349" lon="12.5057919"><ele>550.0</ele><time>2026-04-26T10:13:14.397Z</time></trkpt><trkpt lat="43.855176" lon="12.5058585"><ele>550.0</ele><time>2026-04-26T10:13:15.398Z</time></trkpt><trkpt lat="43.8552991" lon="12.5059516"><ele>550.0</ele><time>2026-04-26T10:13:16.397Z</time></trkpt><trkpt lat="43.8554017" lon="12.50607"><ele>548.5</ele><time>2026-04-26T10:13:17.409Z</time></trkpt><trkpt lat="43.855496" lon="12.5062035"><ele>547.0</ele><time>2026-04-26T10:13:18.399Z</time></trkpt><trkpt lat="43.8555772" lon="12.5063572"><ele>545.5</ele><time>2026-04-26T10:13:19.402Z</time></trkpt><trkpt lat="43.8556384" lon="12.506531"><ele>544.0</ele><time>2026-04-26T10:13:20.398Z</time></trkpt><trkpt lat="43.8556746" lon="12.5066866"><ele>544.0</ele><time>2026-04-26T10:13:21.396Z</time></trkpt><trkpt lat="43.8556989" lon="12.5068156"><ele>544.0</ele><time>2026-04-26T10:13:22.398Z</time></trkpt><trkpt lat="43.8557136" lon="12.5069354"><ele>544.0</ele><time>2026-04-26T10:13:23.401Z</time></trkpt><trkpt lat="43.8557343" lon="12.5070525"><ele>544.0</ele><time>2026-04-26T10:13:24.399Z</time></trkpt><trkpt lat="43.8557864" lon="12.507322"><ele>541.5</ele><time>2026-04-26T10:13:26.401Z</time></trkpt><trkpt lat="43.855817" lon="12.507483"><ele>539.0</ele><time>2026-04-26T10:13:27.401Z</time></trkpt><trkpt lat="43.8558475" lon="12.5076631"><ele>536.5</ele><time>2026-04-26T10:13:28.398Z</time></trkpt><trkpt lat="43.855882" lon="12.5078391"><ele>534.0</ele><time>2026-04-26T10:13:29.402Z</time></trkpt><trkpt lat="43.8559128" lon="12.5080061"><ele>532.6666666666666</ele><time>2026-04-26T10:13:30.398Z</time></trkpt><trkpt lat="43.8559361" lon="12.5081325"><ele>531.3333333333334</ele><time>2026-04-26T10:13:31.395Z</time></trkpt><trkpt lat="43.8559542" lon="12.5082226"><ele>530.0</ele><time>2026-04-26T10:13:32.397Z</time></trkpt><trkpt lat="43.8559689" lon="12.5083272"><ele>528.6666666666667</ele><time>2026-04-26T10:13:33.397Z</time></trkpt><trkpt lat="43.8559827" lon="12.508463"><ele>527.3333333333334</ele><time>2026-04-26T10:13:34.402Z</time></trkpt><trkpt lat="43.8560128" lon="12.5086047"><ele>526.0</ele><time>2026-04-26T10:13:35.399Z</time></trkpt><trkpt lat="43.8560511" lon="12.5087459"><ele>526.0</ele><time>2026-04-26T10:13:36.398Z</time></trkpt><trkpt lat="43.8561504" lon="12.5088617"><ele>526.0</ele><time>2026-04-26T10:13:37.399Z</time></trkpt><trkpt lat="43.8562359" lon="12.5089673"><ele>526.0</ele><time>2026-04-26T10:13:38.397Z</time></trkpt><trkpt lat="43.8563252" lon="12.5090561"><ele>526.0</ele><time>2026-04-26T10:13:39.402Z</time></trkpt><trkpt lat="43.8564206" lon="12.5091122"><ele>526.0</ele><time>2026-04-26T10:13:40.399Z</time></trkpt><trkpt lat="43.8565251" lon="12.5091243"><ele>526.0</ele><time>2026-04-26T10:13:41.399Z</time></trkpt><trkpt lat="43.8566327" lon="12.5091082"><ele>526.0</ele><time>2026-04-26T10:13:42.398Z</time></trkpt><trkpt lat="43.8567461" lon="12.5090725"><ele>526.0</ele><time>2026-04-26T10:13:43.398Z</time></trkpt><trkpt lat="43.8568588" lon="12.5090269"><ele>526.0</ele><time>2026-04-26T10:13:44.401Z</time></trkpt><trkpt lat="43.8569623" lon="12.5089675"><ele>521.0</ele><time>2026-04-26T10:13:45.398Z</time></trkpt><trkpt lat="43.8571031" lon="12.5087435"><ele>516.0</ele><time>2026-04-26T10:13:47.398Z</time></trkpt><trkpt lat="43.8571109" lon="12.5085585"><ele>511.0</ele><time>2026-04-26T10:13:48.396Z</time></trkpt><trkpt lat="43.8571133" lon="12.5083776"><ele>511.0</ele><time>2026-04-26T10:13:49.397Z</time></trkpt><trkpt lat="43.8571107" lon="12.5082041"><ele>511.0</ele><time>2026-04-26T10:13:50.399Z</time></trkpt><trkpt lat="43.8571151" lon="12.5080249"><ele>511.0</ele><time>2026-04-26T10:13:51.404Z</time></trkpt><trkpt lat="43.8571532" lon="12.5078413"><ele>511.0</ele><time>2026-04-26T10:13:52.396Z</time></trkpt><trkpt lat="43.8572223" lon="12.5076621"><ele>511.6666666666667</ele><time>2026-04-26T10:13:53.402Z</time></trkpt><trkpt lat="43.857327" lon="12.5074843"><ele>512.3333333333334</ele><time>2026-04-26T10:13:54.401Z</time></trkpt><trkpt lat="43.8574443" lon="12.5073073"><ele>513.0</ele><time>2026-04-26T10:13:55.399Z</time></trkpt><trkpt lat="43.8575592" lon="12.5071317"><ele>511.25</ele><time>2026-04-26T10:13:56.4Z</time></trkpt><trkpt lat="43.8576727" lon="12.5069756"><ele>509.5</ele><time>2026-04-26T10:13:57.403Z</time></trkpt><trkpt lat="43.8577785" lon="12.5068324"><ele>507.75</ele><time>2026-04-26T10:13:58.396Z</time></trkpt><trkpt lat="43.8579066" lon="12.5067537"><ele>506.0</ele><time>2026-04-26T10:13:59.403Z</time></trkpt><trkpt lat="43.8580495" lon="12.5067146"><ele>506.0</ele><time>2026-04-26T10:14:00.401Z</time></trkpt><trkpt lat="43.8581952" lon="12.506709"><ele>506.0</ele><time>2026-04-26T10:14:01.397Z</time></trkpt><trkpt lat="43.8583523" lon="12.5067607"><ele>506.0</ele><time>2026-04-26T10:14:02.397Z</time></trkpt><trkpt lat="43.8585018" lon="12.5067931"><ele>500.0</ele><time>2026-04-26T10:14:03.397Z</time></trkpt><trkpt lat="43.8586547" lon="12.5068051"><ele>494.0</ele><time>2026-04-26T10:14:04.399Z</time></trkpt><trkpt lat="43.8588051" lon="12.5067809"><ele>488.0</ele><time>2026-04-26T10:14:05.401Z</time></trkpt><trkpt lat="43.8589586" lon="12.5067063"><ele>488.0</ele><time>2026-04-26T10:14:06.402Z</time></trkpt><trkpt lat="43.8592698" lon="12.5064882"><ele>488.0</ele><time>2026-04-26T10:14:08.395Z</time></trkpt><trkpt lat="43.859426" lon="12.506376"><ele>485.66666666666663</ele><time>2026-04-26T10:14:09.396Z</time></trkpt><trkpt lat="43.8595822" lon="12.5062702"><ele>483.33333333333337</ele><time>2026-04-26T10:14:10.4Z</time></trkpt><trkpt lat="43.8597373" lon="12.506163"><ele>481.0</ele><time>2026-04-26T10:14:11.402Z</time></trkpt><trkpt lat="43.8598839" lon="12.50606"><ele>481.0</ele><time>2026-04-26T10:14:12.403Z</time></trkpt><trkpt lat="43.860037" lon="12.505975"><ele>481.0</ele><time>2026-04-26T10:14:13.4Z</time></trkpt><trkpt lat="43.8602038" lon="12.50591"><ele>481.0</ele><time>2026-04-26T10:14:14.398Z</time></trkpt><trkpt lat="43.8603762" lon="12.5058624"><ele>476.6666666666667</ele><time>2026-04-26T10:14:15.4Z</time></trkpt><trkpt lat="43.860545" lon="12.5058378"><ele>472.33333333333337</ele><time>2026-04-26T10:14:16.396Z</time></trkpt><trkpt lat="43.8607194" lon="12.5058291"><ele>468.0</ele><time>2026-04-26T10:14:17.398Z</time></trkpt><trkpt lat="43.8608948" lon="12.5058383"><ele>465.33333333333337</ele><time>2026-04-26T10:14:18.397Z</time></trkpt><trkpt lat="43.861076" lon="12.5058615"><ele>462.6666666666667</ele><time>2026-04-26T10:14:19.398Z</time></trkpt><trkpt lat="43.8612634" lon="12.5058823"><ele>460.0</ele><time>2026-04-26T10:14:20.398Z</time></trkpt><trkpt lat="43.8614533" lon="12.5058971"><ele>460.0</ele><time>2026-04-26T10:14:21.399Z</time></trkpt><trkpt lat="43.8616368" lon="12.5058938"><ele>460.0</ele><time>2026-04-26T10:14:22.4Z</time></trkpt><trkpt lat="43.8618149" lon="12.5058803"><ele>460.0</ele><time>2026-04-26T10:14:23.398Z</time></trkpt><trkpt lat="43.8619877" lon="12.5058661"><ele>458.33333333333337</ele><time>2026-04-26T10:14:24.399Z</time></trkpt><trkpt lat="43.8621539" lon="12.5058747"><ele>456.66666666666663</ele><time>2026-04-26T10:14:25.408Z</time></trkpt><trkpt lat="43.8623094" lon="12.5059151"><ele>455.0</ele><time>2026-04-26T10:14:26.402Z</time></trkpt><trkpt lat="43.8624445" lon="12.5059775"><ele>451.66666666666663</ele><time>2026-04-26T10:14:27.397Z</time></trkpt><trkpt lat="43.8626688" lon="12.5061368"><ele>448.33333333333337</ele><time>2026-04-26T10:14:29.398Z</time></trkpt><trkpt lat="43.8627703" lon="12.5061639"><ele>445.0</ele><time>2026-04-26T10:14:30.4Z</time></trkpt><trkpt lat="43.8628881" lon="12.5061421"><ele>445.0</ele><time>2026-04-26T10:14:31.398Z</time></trkpt><trkpt lat="43.8629993" lon="12.5061026"><ele>445.0</ele><time>2026-04-26T10:14:32.401Z</time></trkpt><trkpt lat="43.8630308" lon="12.5059216"><ele>445.0</ele><time>2026-04-26T10:14:33.397Z</time></trkpt><trkpt lat="43.8630932" lon="12.5057882"><ele>445.0</ele><time>2026-04-26T10:14:34.405Z</time></trkpt><trkpt lat="43.863155" lon="12.5056678"><ele>445.0</ele><time>2026-04-26T10:14:35.395Z</time></trkpt><trkpt lat="43.8632234" lon="12.5055586"><ele>445.0</ele><time>2026-04-26T10:14:36.399Z</time></trkpt><trkpt lat="43.8632991" lon="12.5054602"><ele>445.0</ele><time>2026-04-26T10:14:37.397Z</time></trkpt><trkpt lat="43.8633805" lon="12.5053737"><ele>445.0</ele><time>2026-04-26T10:14:38.398Z</time></trkpt><trkpt lat="43.8634688" lon="12.5052979"><ele>445.0</ele><time>2026-04-26T10:14:39.399Z</time></trkpt><trkpt lat="43.8635728" lon="12.5052515"><ele>441.5</ele><time>2026-04-26T10:14:40.404Z</time></trkpt><trkpt lat="43.8636863" lon="12.5052364"><ele>438.0</ele><time>2026-04-26T10:14:41.406Z</time></trkpt><trkpt lat="43.8638147" lon="12.5052575"><ele>434.5</ele><time>2026-04-26T10:14:42.402Z</time></trkpt><trkpt lat="43.8639639" lon="12.505297"><ele>431.0</ele><time>2026-04-26T10:14:43.403Z</time></trkpt><trkpt lat="43.8641071" lon="12.5053312"><ele>431.0</ele><time>2026-04-26T10:14:44.394Z</time></trkpt><trkpt lat="43.8642552" lon="12.5053709"><ele>431.0</ele><time>2026-04-26T10:14:45.395Z</time></trkpt><trkpt lat="43.8644131" lon="12.5054072"><ele>431.0</ele><time>2026-04-26T10:14:46.396Z</time></trkpt><trkpt lat="43.8645982" lon="12.5054426"><ele>429.0</ele><time>2026-04-26T10:14:47.399Z</time></trkpt><trkpt lat="43.8648044" lon="12.5054698"><ele>427.0</ele><time>2026-04-26T10:14:48.401Z</time></trkpt><trkpt lat="43.8651992" lon="12.5055755"><ele>425.0</ele><time>2026-04-26T10:14:50.402Z</time></trkpt><trkpt lat="43.8653673" lon="12.5056365"><ele>423.0</ele><time>2026-04-26T10:14:51.407Z</time></trkpt><trkpt lat="43.8655133" lon="12.5056953"><ele>421.0</ele><time>2026-04-26T10:14:52.398Z</time></trkpt><trkpt lat="43.8656294" lon="12.5057745"><ele>421.0</ele><time>2026-04-26T10:14:53.398Z</time></trkpt><trkpt lat="43.8657025" lon="12.5058874"><ele>421.0</ele><time>2026-04-26T10:14:54.399Z</time></trkpt><trkpt lat="43.8657354" lon="12.5060289"><ele>421.0</ele><time>2026-04-26T10:14:55.4Z</time></trkpt><trkpt lat="43.8657291" lon="12.5062116"><ele>421.0</ele><time>2026-04-26T10:14:56.402Z</time></trkpt><trkpt lat="43.8656864" lon="12.5064197"><ele>419.75</ele><time>2026-04-26T10:14:57.398Z</time></trkpt><trkpt lat="43.8656154" lon="12.5066075"><ele>418.5</ele><time>2026-04-26T10:14:58.398Z</time></trkpt><trkpt lat="43.8655551" lon="12.5067783"><ele>417.25</ele><time>2026-04-26T10:14:59.396Z</time></trkpt><trkpt lat="43.8655154" lon="12.506941"><ele>416.0</ele><time>2026-04-26T10:15:00.406Z</time></trkpt><trkpt lat="43.8655174" lon="12.5070902"><ele>412.75</ele><time>2026-04-26T10:15:01.4Z</time></trkpt><trkpt lat="43.8655329" lon="12.5072207"><ele>409.5</ele><time>2026-04-26T10:15:02.399Z</time></trkpt><trkpt lat="43.8656434" lon="12.507289"><ele>406.25</ele><time>2026-04-26T10:15:03.4Z</time></trkpt><trkpt lat="43.8657705" lon="12.5073174"><ele>403.0</ele><time>2026-04-26T10:15:04.398Z</time></trkpt><trkpt lat="43.8659052" lon="12.5073116"><ele>403.33333333333337</ele><time>2026-04-26T10:15:05.402Z</time></trkpt><trkpt lat="43.866042" lon="12.507218"><ele>403.66666666666663</ele><time>2026-04-26T10:15:06.395Z</time></trkpt><trkpt lat="43.8661571" lon="12.5070829"><ele>404.0</ele><time>2026-04-26T10:15:07.396Z</time></trkpt><trkpt lat="43.8662684" lon="12.5069174"><ele>404.0</ele><time>2026-04-26T10:15:08.398Z</time></trkpt><trkpt lat="43.8663817" lon="12.5067463"><ele>404.0</ele><time>2026-04-26T10:15:09.401Z</time></trkpt><trkpt lat="43.8665954" lon="12.5064378"><ele>404.0</ele><time>2026-04-26T10:15:11.399Z</time></trkpt><trkpt lat="43.8667004" lon="12.5062936"><ele>404.0</ele><time>2026-04-26T10:15:12.395Z</time></trkpt><trkpt lat="43.8668111" lon="12.5061745"><ele>404.0</ele><time>2026-04-26T10:15:13.396Z</time></trkpt><trkpt lat="43.8669349" lon="12.5061007"><ele>404.0</ele><time>2026-04-26T10:15:14.399Z</time></trkpt><trkpt lat="43.8670659" lon="12.5060833"><ele>402.3333333333333</ele><time>2026-04-26T10:15:15.393Z</time></trkpt><trkpt lat="43.8672104" lon="12.5061217"><ele>400.66666666666663</ele><time>2026-04-26T10:15:16.398Z</time></trkpt><trkpt lat="43.8673562" lon="12.5062037"><ele>399.0</ele><time>2026-04-26T10:15:17.399Z</time></trkpt><trkpt lat="43.8674941" lon="12.506269"><ele>395.5</ele><time>2026-04-26T10:15:18.395Z</time></trkpt><trkpt lat="43.8676198" lon="12.506307"><ele>392.0</ele><time>2026-04-26T10:15:19.398Z</time></trkpt><trkpt lat="43.8677292" lon="12.5062894"><ele>388.5</ele><time>2026-04-26T10:15:20.401Z</time></trkpt><trkpt lat="43.8678251" lon="12.5062192"><ele>385.0</ele><time>2026-04-26T10:15:21.4Z</time></trkpt><trkpt lat="43.8678882" lon="12.5060944"><ele>384.75</ele><time>2026-04-26T10:15:22.4Z</time></trkpt><trkpt lat="43.8679171" lon="12.5059143"><ele>384.5</ele><time>2026-04-26T10:15:23.396Z</time></trkpt><trkpt lat="43.8679329" lon="12.5056964"><ele>384.25</ele><time>2026-04-26T10:15:24.399Z</time></trkpt><trkpt lat="43.8679539" lon="12.5054879"><ele>384.0</ele><time>2026-04-26T10:15:25.405Z</time></trkpt><trkpt lat="43.8679814" lon="12.505292"><ele>382.6666666666667</ele><time>2026-04-26T10:15:26.4Z</time></trkpt><trkpt lat="43.868015" lon="12.505094"><ele>381.33333333333337</ele><time>2026-04-26T10:15:27.402Z</time></trkpt><trkpt lat="43.8680739" lon="12.5048961"><ele>380.0</ele><time>2026-04-26T10:15:28.401Z</time></trkpt><trkpt lat="43.8681586" lon="12.5047104"><ele>380.33333333333337</ele><time>2026-04-26T10:15:29.409Z</time></trkpt><trkpt lat="43.8682529" lon="12.5045458"><ele>380.6666666666667</ele><time>2026-04-26T10:15:30.397Z</time></trkpt><trkpt lat="43.8684131" lon="12.5042453"><ele>381.0</ele><time>2026-04-26T10:15:32.401Z</time></trkpt><trkpt lat="43.8684655" lon="12.5041008"><ele>379.6</ele><time>2026-04-26T10:15:33.397Z</time></trkpt><trkpt lat="43.8684837" lon="12.5039528"><ele>378.20000000000005</ele><time>2026-04-26T10:15:34.397Z</time></trkpt><trkpt lat="43.868458" lon="12.5038221"><ele>376.79999999999995</ele><time>2026-04-26T10:15:35.395Z</time></trkpt><trkpt lat="43.868379" lon="12.5037215"><ele>375.4</ele><time>2026-04-26T10:15:36.4Z</time></trkpt><trkpt lat="43.8682653" lon="12.5036661"><ele>374.0</ele><time>2026-04-26T10:15:37.398Z</time></trkpt><trkpt lat="43.8681168" lon="12.5036347"><ele>374.0</ele><time>2026-04-26T10:15:38.404Z</time></trkpt><trkpt lat="43.8679545" lon="12.5036014"><ele>374.0</ele><time>2026-04-26T10:15:39.402Z</time></trkpt><trkpt lat="43.8677834" lon="12.5035609"><ele>374.0</ele><time>2026-04-26T10:15:40.401Z</time></trkpt><trkpt lat="43.8676231" lon="12.5035176"><ele>374.25</ele><time>2026-04-26T10:15:41.399Z</time></trkpt><trkpt lat="43.8674812" lon="12.5034786"><ele>374.5</ele><time>2026-04-26T10:15:42.397Z</time></trkpt><trkpt lat="43.8673505" lon="12.5034547"><ele>374.75</ele><time>2026-04-26T10:15:43.401Z</time></trkpt><trkpt lat="43.8672387" lon="12.5033886"><ele>375.0</ele><time>2026-04-26T10:15:44.397Z</time></trkpt><trkpt lat="43.8671565" lon="12.5032675"><ele>375.0</ele><time>2026-04-26T10:15:45.398Z</time></trkpt><trkpt lat="43.8671018" lon="12.5031051"><ele>375.0</ele><time>2026-04-26T10:15:46.397Z</time></trkpt><trkpt lat="43.8670881" lon="12.5029157"><ele>375.0</ele><time>2026-04-26T10:15:47.395Z</time></trkpt><trkpt lat="43.8671067" lon="12.502731"><ele>375.0</ele><time>2026-04-26T10:15:48.396Z</time></trkpt><trkpt lat="43.8671542" lon="12.5025579"><ele>371.6666666666667</ele><time>2026-04-26T10:15:49.397Z</time></trkpt><trkpt lat="43.8672259" lon="12.5024021"><ele>368.33333333333337</ele><time>2026-04-26T10:15:50.396Z</time></trkpt><trkpt lat="43.8673398" lon="12.5023047"><ele>365.0</ele><time>2026-04-26T10:15:51.398Z</time></trkpt><trkpt lat="43.8676293" lon="12.5021367"><ele>361.0</ele><time>2026-04-26T10:15:53.405Z</time></trkpt><trkpt lat="43.8677912" lon="12.5020559"><ele>357.0</ele><time>2026-04-26T10:15:54.397Z</time></trkpt><trkpt lat="43.8679527" lon="12.5019752"><ele>353.0</ele><time>2026-04-26T10:15:55.394Z</time></trkpt><trkpt lat="43.86811" lon="12.5018957"><ele>353.0</ele><time>2026-04-26T10:15:56.394Z</time></trkpt><trkpt lat="43.8682719" lon="12.5018297"><ele>353.0</ele><time>2026-04-26T10:15:57.397Z</time></trkpt><trkpt lat="43.8684346" lon="12.5017758"><ele>353.0</ele><time>2026-04-26T10:15:58.395Z</time></trkpt><trkpt lat="43.8685922" lon="12.501717"><ele>351.33333333333337</ele><time>2026-04-26T10:15:59.397Z</time></trkpt><trkpt lat="43.8687499" lon="12.5016425"><ele>349.6666666666667</ele><time>2026-04-26T10:16:00.399Z</time></trkpt><trkpt lat="43.868909" lon="12.5015556"><ele>348.0</ele><time>2026-04-26T10:16:01.397Z</time></trkpt><trkpt lat="43.8690597" lon="12.5014735"><ele>348.0</ele><time>2026-04-26T10:16:02.4Z</time></trkpt><trkpt lat="43.8692069" lon="12.5013893"><ele>348.0</ele><time>2026-04-26T10:16:03.395Z</time></trkpt><trkpt lat="43.8693413" lon="12.5013149"><ele>348.0</ele><time>2026-04-26T10:16:04.398Z</time></trkpt><trkpt lat="43.8694704" lon="12.5012585"><ele>348.0</ele><time>2026-04-26T10:16:05.394Z</time></trkpt><trkpt lat="43.8696002" lon="12.5012405"><ele>344.5</ele><time>2026-04-26T10:16:06.395Z</time></trkpt><trkpt lat="43.86973" lon="12.5012764"><ele>341.0</ele><time>2026-04-26T10:16:07.396Z</time></trkpt><trkpt lat="43.8698392" lon="12.5013603"><ele>337.5</ele><time>2026-04-26T10:16:08.396Z</time></trkpt><trkpt lat="43.8699278" lon="12.5015017"><ele>334.0</ele><time>2026-04-26T10:16:09.4Z</time></trkpt><trkpt lat="43.8699913" lon="12.5016843"><ele>334.0</ele><time>2026-04-26T10:16:10.404Z</time></trkpt><trkpt lat="43.8700533" lon="12.5018792"><ele>334.0</ele><time>2026-04-26T10:16:11.405Z</time></trkpt><trkpt lat="43.8701181" lon="12.5020817"><ele>334.0</ele><time>2026-04-26T10:16:12.401Z</time></trkpt><trkpt lat="43.8702713" lon="12.5024629"><ele>329.66666666666663</ele><time>2026-04-26T10:16:14.396Z</time></trkpt><trkpt lat="43.8703783" lon="12.5026419"><ele>325.3333333333333</ele><time>2026-04-26T10:16:15.395Z</time></trkpt><trkpt lat="43.8705075" lon="12.5027938"><ele>321.0</ele><time>2026-04-26T10:16:16.396Z</time></trkpt><trkpt lat="43.8706336" lon="12.5029093"><ele>321.4</ele><time>2026-04-26T10:16:17.396Z</time></trkpt><trkpt lat="43.8707478" lon="12.503009"><ele>321.8</ele><time>2026-04-26T10:16:18.394Z</time></trkpt><trkpt lat="43.8708473" lon="12.5030839"><ele>322.2</ele><time>2026-04-26T10:16:19.4Z</time></trkpt><trkpt lat="43.8709423" lon="12.5031049"><ele>322.59999999999997</ele><time>2026-04-26T10:16:20.398Z</time></trkpt><trkpt lat="43.8710278" lon="12.5030584"><ele>323.0</ele><time>2026-04-26T10:16:21.402Z</time></trkpt><trkpt lat="43.8710848" lon="12.5029722"><ele>322.59999999999997</ele><time>2026-04-26T10:16:22.395Z</time></trkpt><trkpt lat="43.871085" lon="12.502847"><ele>322.2</ele><time>2026-04-26T10:16:23.394Z</time></trkpt><trkpt lat="43.8710483" lon="12.5027212"><ele>321.8</ele><time>2026-04-26T10:16:24.4Z</time></trkpt><trkpt lat="43.8709676" lon="12.5026021"><ele>321.4</ele><time>2026-04-26T10:16:25.399Z</time></trkpt><trkpt lat="43.8708757" lon="12.5024702"><ele>321.0</ele><time>2026-04-26T10:16:26.406Z</time></trkpt><trkpt lat="43.8708172" lon="12.5023019"><ele>321.0</ele><time>2026-04-26T10:16:27.402Z</time></trkpt><trkpt lat="43.8707931" lon="12.5021054"><ele>321.0</ele><time>2026-04-26T10:16:28.405Z</time></trkpt><trkpt lat="43.8707951" lon="12.5019005"><ele>321.0</ele><time>2026-04-26T10:16:29.4Z</time></trkpt><trkpt lat="43.8708243" lon="12.5016864"><ele>321.0</ele><time>2026-04-26T10:16:30.397Z</time></trkpt><trkpt lat="43.8708715" lon="12.5014707"><ele>318.3333333333333</ele><time>2026-04-26T10:16:31.397Z</time></trkpt><trkpt lat="43.8709208" lon="12.5012606"><ele>315.66666666666663</ele><time>2026-04-26T10:16:32.395Z</time></trkpt><trkpt lat="43.8709504" lon="12.5010584"><ele>313.0</ele><time>2026-04-26T10:16:33.398Z</time></trkpt><trkpt lat="43.8709177" lon="12.5005889"><ele>308.3333333333333</ele><time>2026-04-26T10:16:35.395Z</time></trkpt><trkpt lat="43.8708868" lon="12.5003343"><ele>303.6666666666667</ele><time>2026-04-26T10:16:36.395Z</time></trkpt><trkpt lat="43.8708439" lon="12.5000748"><ele>299.0</ele><time>2026-04-26T10:16:37.392Z</time></trkpt><trkpt lat="43.8708062" lon="12.499821"><ele>297.6666666666667</ele><time>2026-04-26T10:16:38.395Z</time></trkpt><trkpt lat="43.8707753" lon="12.4995831"><ele>296.3333333333333</ele><time>2026-04-26T10:16:39.402Z</time></trkpt><trkpt lat="43.8707568" lon="12.4993496"><ele>295.0</ele><time>2026-04-26T10:16:40.398Z</time></trkpt><trkpt lat="43.8707659" lon="12.4991441"><ele>295.0</ele><time>2026-04-26T10:16:41.399Z</time></trkpt><trkpt lat="43.8708037" lon="12.4989456"><ele>295.0</ele><time>2026-04-26T10:16:42.401Z</time></trkpt><trkpt lat="43.870869" lon="12.4987687"><ele>295.0</ele><time>2026-04-26T10:16:43.399Z</time></trkpt><trkpt lat="43.8709327" lon="12.4985908"><ele>295.0</ele><time>2026-04-26T10:16:44.4Z</time></trkpt><trkpt lat="43.8709711" lon="12.4983981"><ele>291.0</ele><time>2026-04-26T10:16:45.402Z</time></trkpt><trkpt lat="43.8709856" lon="12.4981946"><ele>287.0</ele><time>2026-04-26T10:16:46.396Z</time></trkpt><trkpt lat="43.8709754" lon="12.4979936"><ele>283.0</ele><time>2026-04-26T10:16:47.397Z</time></trkpt><trkpt lat="43.8709287" lon="12.4977831"><ele>283.0</ele><time>2026-04-26T10:16:48.397Z</time></trkpt><trkpt lat="43.8708642" lon="12.4975705"><ele>283.0</ele><time>2026-04-26T10:16:49.395Z</time></trkpt><trkpt lat="43.8707893" lon="12.4973567"><ele>283.0</ele><time>2026-04-26T10:16:50.399Z</time></trkpt><trkpt lat="43.8707205" lon="12.4971529"><ele>281.0</ele><time>2026-04-26T10:16:51.4Z</time></trkpt><trkpt lat="43.8706569" lon="12.4969694"><ele>279.0</ele><time>2026-04-26T10:16:52.395Z</time></trkpt><trkpt lat="43.8706119" lon="12.4968013"><ele>277.0</ele><time>2026-04-26T10:16:53.396Z</time></trkpt><trkpt lat="43.87059" lon="12.4966314"><ele>275.0</ele><time>2026-04-26T10:16:54.397Z</time></trkpt><trkpt lat="43.8706393" lon="12.4963469"><ele>274.0</ele><time>2026-04-26T10:16:56.397Z</time></trkpt><trkpt lat="43.8706731" lon="12.4962523"><ele>273.0</ele><time>2026-04-26T10:16:57.391Z</time></trkpt><trkpt lat="43.8707173" lon="12.4961533"><ele>272.0</ele><time>2026-04-26T10:16:58.396Z</time></trkpt><trkpt lat="43.8707767" lon="12.496058"><ele>271.0</ele><time>2026-04-26T10:16:59.403Z</time></trkpt><trkpt lat="43.8708306" lon="12.4959522"><ele>270.0</ele><time>2026-04-26T10:17:00.402Z</time></trkpt><trkpt lat="43.8708889" lon="12.4958483"><ele>269.0</ele><time>2026-04-26T10:17:01.396Z</time></trkpt><trkpt lat="43.8709479" lon="12.4957379"><ele>269.0</ele><time>2026-04-26T10:17:02.395Z</time></trkpt><trkpt lat="43.8710122" lon="12.4956252"><ele>269.0</ele><time>2026-04-26T10:17:03.397Z</time></trkpt><trkpt lat="43.8710748" lon="12.4955125"><ele>269.0</ele><time>2026-04-26T10:17:04.396Z</time></trkpt><trkpt lat="43.8711359" lon="12.4953969"><ele>269.0</ele><time>2026-04-26T10:17:05.396Z</time></trkpt><trkpt lat="43.871196" lon="12.4952803"><ele>269.0</ele><time>2026-04-26T10:17:06.399Z</time></trkpt><trkpt lat="43.8712616" lon="12.495167"><ele>269.0</ele><time>2026-04-26T10:17:07.395Z</time></trkpt><trkpt lat="43.8713263" lon="12.49506"><ele>269.0</ele><time>2026-04-26T10:17:08.398Z</time></trkpt><trkpt lat="43.8713871" lon="12.494945"><ele>269.0</ele><time>2026-04-26T10:17:09.4Z</time></trkpt><trkpt lat="43.8714497" lon="12.4948274"><ele>269.0</ele><time>2026-04-26T10:17:10.395Z</time></trkpt><trkpt lat="43.8715086" lon="12.4947072"><ele>269.0</ele><time>2026-04-26T10:17:11.397Z</time></trkpt><trkpt lat="43.8715589" lon="12.4945752"><ele>269.75</ele><time>2026-04-26T10:17:12.396Z</time></trkpt><trkpt lat="43.8716033" lon="12.4944429"><ele>270.5</ele><time>2026-04-26T10:17:13.398Z</time></trkpt><trkpt lat="43.8716392" lon="12.4943112"><ele>271.25</ele><time>2026-04-26T10:17:14.394Z</time></trkpt><trkpt lat="43.8716705" lon="12.4941938"><ele>272.0</ele><time>2026-04-26T10:17:15.4Z</time></trkpt><trkpt lat="43.8717226" lon="12.49399"><ele>272.0</ele><time>2026-04-26T10:17:17.398Z</time></trkpt><trkpt lat="43.8717582" lon="12.4938474"><ele>272.0</ele><time>2026-04-26T10:17:19.4Z</time></trkpt><trkpt lat="43.8717942" lon="12.4937753"><ele>272.0</ele><time>2026-04-26T10:17:32.402Z</time></trkpt><trkpt lat="43.8718625" lon="12.4937524"><ele>272.0</ele><time>2026-04-26T10:18:03.397Z</time></trkpt><trkpt lat="43.8719931" lon="12.4937945"><ele>272.0</ele><time>2026-04-26T10:18:05.396Z</time></trkpt><trkpt lat="43.872076" lon="12.4938301"><ele>272.0</ele><time>2026-04-26T10:18:06.393Z</time></trkpt><trkpt lat="43.8721596" lon="12.4938673"><ele>272.0</ele><time>2026-04-26T10:18:07.392Z</time></trkpt><trkpt lat="43.872263" lon="12.4939137"><ele>272.0</ele><time>2026-04-26T10:18:08.401Z</time></trkpt><trkpt lat="43.8723762" lon="12.4939714"><ele>272.0</ele><time>2026-04-26T10:18:09.403Z</time></trkpt><trkpt lat="43.8724895" lon="12.4940283"><ele>272.0</ele><time>2026-04-26T10:18:10.399Z</time></trkpt><trkpt lat="43.8726084" lon="12.4941032"><ele>276.33333333333337</ele><time>2026-04-26T10:18:11.401Z</time></trkpt><trkpt lat="43.8727407" lon="12.4941887"><ele>280.6666666666667</ele><time>2026-04-26T10:18:12.399Z</time></trkpt><trkpt lat="43.8728766" lon="12.4942828"><ele>285.0</ele><time>2026-04-26T10:18:13.402Z</time></trkpt><trkpt lat="43.8730206" lon="12.4943898"><ele>285.0</ele><time>2026-04-26T10:18:14.401Z</time></trkpt><trkpt lat="43.8731706" lon="12.4945074"><ele>285.0</ele><time>2026-04-26T10:18:15.398Z</time></trkpt><trkpt lat="43.8733198" lon="12.4946294"><ele>285.0</ele><time>2026-04-26T10:18:16.397Z</time></trkpt><trkpt lat="43.8734674" lon="12.4947496"><ele>284.6666666666667</ele><time>2026-04-26T10:18:17.395Z</time></trkpt><trkpt lat="43.8736093" lon="12.4948729"><ele>284.33333333333337</ele><time>2026-04-26T10:18:18.399Z</time></trkpt><trkpt lat="43.8737483" lon="12.4949891"><ele>284.0</ele><time>2026-04-26T10:18:19.397Z</time></trkpt><trkpt lat="43.8738794" lon="12.4951119"><ele>284.0</ele><time>2026-04-26T10:18:20.397Z</time></trkpt><trkpt lat="43.8739965" lon="12.4952599"><ele>284.0</ele><time>2026-04-26T10:18:21.398Z</time></trkpt><trkpt lat="43.8740973" lon="12.4954087"><ele>284.0</ele><time>2026-04-26T10:18:22.395Z</time></trkpt><trkpt lat="43.8741979" lon="12.4955482"><ele>284.0</ele><time>2026-04-26T10:18:23.4Z</time></trkpt><trkpt lat="43.8743101" lon="12.4956769"><ele>281.33333333333337</ele><time>2026-04-26T10:18:24.404Z</time></trkpt><trkpt lat="43.8745706" lon="12.4958585"><ele>278.6666666666667</ele><time>2026-04-26T10:18:26.397Z</time></trkpt><trkpt lat="43.8746903" lon="12.4959116"><ele>276.0</ele><time>2026-04-26T10:18:27.392Z</time></trkpt><trkpt lat="43.8747876" lon="12.495951"><ele>276.0</ele><time>2026-04-26T10:18:28.394Z</time></trkpt><trkpt lat="43.874863" lon="12.4959699"><ele>276.0</ele><time>2026-04-26T10:18:29.396Z</time></trkpt><trkpt lat="43.8749277" lon="12.495978"><ele>276.0</ele><time>2026-04-26T10:18:30.398Z</time></trkpt><trkpt lat="43.8750356" lon="12.4959514"><ele>276.0</ele><time>2026-04-26T10:18:32.397Z</time></trkpt><trkpt lat="43.8751645" lon="12.4959296"><ele>276.0</ele><time>2026-04-26T10:18:34.397Z</time></trkpt><trkpt lat="43.8752583" lon="12.4959732"><ele>276.5</ele><time>2026-04-26T10:18:35.397Z</time></trkpt><trkpt lat="43.8753639" lon="12.4960752"><ele>277.0</ele><time>2026-04-26T10:18:36.4Z</time></trkpt><trkpt lat="43.8754713" lon="12.4962206"><ele>277.5</ele><time>2026-04-26T10:18:37.399Z</time></trkpt><trkpt lat="43.8755814" lon="12.49639"><ele>278.0</ele><time>2026-04-26T10:18:38.4Z</time></trkpt><trkpt lat="43.8756905" lon="12.4965623"><ele>276.0</ele><time>2026-04-26T10:18:39.4Z</time></trkpt><trkpt lat="43.8757892" lon="12.4967292"><ele>274.0</ele><time>2026-04-26T10:18:40.4Z</time></trkpt><trkpt lat="43.8758698" lon="12.4969137"><ele>272.0</ele><time>2026-04-26T10:18:41.402Z</time></trkpt><trkpt lat="43.8759297" lon="12.4971256"><ele>275.33333333333337</ele><time>2026-04-26T10:18:42.396Z</time></trkpt><trkpt lat="43.875974" lon="12.4973635"><ele>278.6666666666667</ele><time>2026-04-26T10:18:43.395Z</time></trkpt><trkpt lat="43.8760274" lon="12.4976139"><ele>282.0</ele><time>2026-04-26T10:18:44.397Z</time></trkpt><trkpt lat="43.8760833" lon="12.4978841"><ele>277.0</ele><time>2026-04-26T10:18:45.397Z</time></trkpt><trkpt lat="43.8761862" lon="12.4984485"><ele>272.0</ele><time>2026-04-26T10:18:47.398Z</time></trkpt><trkpt lat="43.8762569" lon="12.4987355"><ele>269.5</ele><time>2026-04-26T10:18:48.403Z</time></trkpt><trkpt lat="43.8763483" lon="12.4990253"><ele>267.0</ele><time>2026-04-26T10:18:49.401Z</time></trkpt><trkpt lat="43.8764482" lon="12.4993153"><ele>266.0</ele><time>2026-04-26T10:18:50.396Z</time></trkpt><trkpt lat="43.8765509" lon="12.4995895"><ele>265.0</ele><time>2026-04-26T10:18:51.399Z</time></trkpt><trkpt lat="43.8766592" lon="12.4998556"><ele>264.0</ele><time>2026-04-26T10:18:52.395Z</time></trkpt><trkpt lat="43.8767685" lon="12.5001116"><ele>265.0</ele><time>2026-04-26T10:18:53.395Z</time></trkpt><trkpt lat="43.8768726" lon="12.5003613"><ele>266.0</ele><time>2026-04-26T10:18:54.395Z</time></trkpt><trkpt lat="43.8769733" lon="12.5006062"><ele>267.0</ele><time>2026-04-26T10:18:55.395Z</time></trkpt><trkpt lat="43.8770696" lon="12.5008519"><ele>267.0</ele><time>2026-04-26T10:18:56.398Z</time></trkpt><trkpt lat="43.877175" lon="12.5010994"><ele>267.0</ele><time>2026-04-26T10:18:57.402Z</time></trkpt><trkpt lat="43.8772846" lon="12.5013618"><ele>267.0</ele><time>2026-04-26T10:18:58.393Z</time></trkpt><trkpt lat="43.8773984" lon="12.5016351"><ele>268.0</ele><time>2026-04-26T10:18:59.395Z</time></trkpt><trkpt lat="43.8775124" lon="12.5019052"><ele>269.0</ele><time>2026-04-26T10:19:00.395Z</time></trkpt><trkpt lat="43.8776239" lon="12.5021735"><ele>270.0</ele><time>2026-04-26T10:19:01.397Z</time></trkpt><trkpt lat="43.8777331" lon="12.5024419"><ele>270.0</ele><time>2026-04-26T10:19:02.404Z</time></trkpt><trkpt lat="43.8778393" lon="12.5027108"><ele>270.0</ele><time>2026-04-26T10:19:03.399Z</time></trkpt><trkpt lat="43.8779484" lon="12.5029762"><ele>270.0</ele><time>2026-04-26T10:19:04.397Z</time></trkpt><trkpt lat="43.8780602" lon="12.5032386"><ele>267.0</ele><time>2026-04-26T10:19:05.398Z</time></trkpt><trkpt lat="43.8781753" lon="12.5034947"><ele>264.0</ele><time>2026-04-26T10:19:06.399Z</time></trkpt><trkpt lat="43.8784163" lon="12.5039929"><ele>264.6666666666667</ele><time>2026-04-26T10:19:08.4Z</time></trkpt><trkpt lat="43.8785436" lon="12.5042357"><ele>265.33333333333337</ele><time>2026-04-26T10:19:09.396Z</time></trkpt><trkpt lat="43.878676" lon="12.504474"><ele>266.0</ele><time>2026-04-26T10:19:10.397Z</time></trkpt><trkpt lat="43.878807" lon="12.5047141"><ele>264.0</ele><time>2026-04-26T10:19:11.402Z</time></trkpt><trkpt lat="43.8789305" lon="12.5049464"><ele>262.0</ele><time>2026-04-26T10:19:12.398Z</time></trkpt><trkpt lat="43.8790523" lon="12.5051676"><ele>260.0</ele><time>2026-04-26T10:19:13.401Z</time></trkpt><trkpt lat="43.879166" lon="12.5053829"><ele>261.0</ele><time>2026-04-26T10:19:14.394Z</time></trkpt><trkpt lat="43.8792771" lon="12.5055968"><ele>262.0</ele><time>2026-04-26T10:19:15.402Z</time></trkpt><trkpt lat="43.8793711" lon="12.5058401"><ele>263.0</ele><time>2026-04-26T10:19:16.4Z</time></trkpt><trkpt lat="43.8794434" lon="12.5061047"><ele>261.0</ele><time>2026-04-26T10:19:17.398Z</time></trkpt><trkpt lat="43.8795037" lon="12.5063866"><ele>259.0</ele><time>2026-04-26T10:19:18.394Z</time></trkpt><trkpt lat="43.8795704" lon="12.5066786"><ele>257.0</ele><time>2026-04-26T10:19:19.394Z</time></trkpt><trkpt lat="43.8796581" lon="12.506971"><ele>253.5</ele><time>2026-04-26T10:19:20.399Z</time></trkpt><trkpt lat="43.8797641" lon="12.5072584"><ele>250.0</ele><time>2026-04-26T10:19:21.397Z</time></trkpt><trkpt lat="43.8798776" lon="12.5075355"><ele>250.0</ele><time>2026-04-26T10:19:22.396Z</time></trkpt><trkpt lat="43.8799935" lon="12.5078104"><ele>250.0</ele><time>2026-04-26T10:19:23.401Z</time></trkpt><trkpt lat="43.8801063" lon="12.50808"><ele>251.33333333333331</ele><time>2026-04-26T10:19:24.4Z</time></trkpt><trkpt lat="43.8802196" lon="12.508345"><ele>252.66666666666669</ele><time>2026-04-26T10:19:25.401Z</time></trkpt><trkpt lat="43.8803268" lon="12.5086111"><ele>254.0</ele><time>2026-04-26T10:19:26.401Z</time></trkpt><trkpt lat="43.8804317" lon="12.5088721"><ele>254.0</ele><time>2026-04-26T10:19:27.396Z</time></trkpt><trkpt lat="43.8806459" lon="12.509399"><ele>254.0</ele><time>2026-04-26T10:19:29.394Z</time></trkpt><trkpt lat="43.8807527" lon="12.5096654"><ele>252.0</ele><time>2026-04-26T10:19:30.396Z</time></trkpt><trkpt lat="43.8808471" lon="12.5099346"><ele>250.0</ele><time>2026-04-26T10:19:31.394Z</time></trkpt><trkpt lat="43.8809339" lon="12.5102087"><ele>248.0</ele><time>2026-04-26T10:19:32.398Z</time></trkpt><trkpt lat="43.8810181" lon="12.5104898"><ele>248.0</ele><time>2026-04-26T10:19:33.399Z</time></trkpt><trkpt lat="43.8810992" lon="12.5107735"><ele>248.0</ele><time>2026-04-26T10:19:34.401Z</time></trkpt><trkpt lat="43.8811819" lon="12.5110559"><ele>248.0</ele><time>2026-04-26T10:19:35.396Z</time></trkpt><trkpt lat="43.8812576" lon="12.5113371"><ele>246.0</ele><time>2026-04-26T10:19:36.396Z</time></trkpt><trkpt lat="43.8813348" lon="12.5116177"><ele>244.0</ele><time>2026-04-26T10:19:37.395Z</time></trkpt><trkpt lat="43.8814171" lon="12.5119007"><ele>242.0</ele><time>2026-04-26T10:19:38.395Z</time></trkpt><trkpt lat="43.8814927" lon="12.5121836"><ele>241.66666666666669</ele><time>2026-04-26T10:19:39.4Z</time></trkpt><trkpt lat="43.8815533" lon="12.5124729"><ele>241.33333333333331</ele><time>2026-04-26T10:19:40.396Z</time></trkpt><trkpt lat="43.8816136" lon="12.5127693"><ele>241.0</ele><time>2026-04-26T10:19:41.403Z</time></trkpt><trkpt lat="43.8816558" lon="12.5130818"><ele>240.5</ele><time>2026-04-26T10:19:42.401Z</time></trkpt><trkpt lat="43.8816756" lon="12.5134122"><ele>240.0</ele><time>2026-04-26T10:19:43.408Z</time></trkpt><trkpt lat="43.8816911" lon="12.5137588"><ele>238.5</ele><time>2026-04-26T10:19:44.4Z</time></trkpt><trkpt lat="43.8817023" lon="12.5141149"><ele>237.0</ele><time>2026-04-26T10:19:45.396Z</time></trkpt><trkpt lat="43.8817133" lon="12.5144626"><ele>235.5</ele><time>2026-04-26T10:19:46.401Z</time></trkpt><trkpt lat="43.8817262" lon="12.5148115"><ele>234.0</ele><time>2026-04-26T10:19:47.395Z</time></trkpt><trkpt lat="43.8817532" lon="12.5151635"><ele>244.0</ele><time>2026-04-26T10:19:48.404Z</time></trkpt><trkpt lat="43.8818436" lon="12.5158811"><ele>243.0</ele><time>2026-04-26T10:19:50.408Z</time></trkpt><trkpt lat="43.8818956" lon="12.5162453"><ele>242.0</ele><time>2026-04-26T10:19:51.401Z</time></trkpt><trkpt lat="43.8819488" lon="12.5166073"><ele>242.0</ele><time>2026-04-26T10:19:52.405Z</time></trkpt><trkpt lat="43.8820018" lon="12.5169662"><ele>242.0</ele><time>2026-04-26T10:19:53.395Z</time></trkpt><trkpt lat="43.8820503" lon="12.5173207"><ele>240.5</ele><time>2026-04-26T10:19:54.405Z</time></trkpt><trkpt lat="43.8820924" lon="12.5176683"><ele>239.0</ele><time>2026-04-26T10:19:55.397Z</time></trkpt><trkpt lat="43.8821366" lon="12.5180087"><ele>236.0</ele><time>2026-04-26T10:19:56.405Z</time></trkpt><trkpt lat="43.8821837" lon="12.5183447"><ele>233.0</ele><time>2026-04-26T10:19:57.396Z</time></trkpt><trkpt lat="43.8822307" lon="12.5186795"><ele>230.5</ele><time>2026-04-26T10:19:58.398Z</time></trkpt><trkpt lat="43.8822768" lon="12.5190062"><ele>228.0</ele><time>2026-04-26T10:19:59.395Z</time></trkpt><trkpt lat="43.8823178" lon="12.5193285"><ele>226.5</ele><time>2026-04-26T10:20:00.393Z</time></trkpt><trkpt lat="43.8823474" lon="12.5196503"><ele>225.0</ele><time>2026-04-26T10:20:01.396Z</time></trkpt><trkpt lat="43.8823682" lon="12.5199657"><ele>225.0</ele><time>2026-04-26T10:20:02.397Z</time></trkpt><trkpt lat="43.8823868" lon="12.5202795"><ele>225.0</ele><time>2026-04-26T10:20:03.397Z</time></trkpt><trkpt lat="43.8824091" lon="12.520601"><ele>225.5</ele><time>2026-04-26T10:20:04.404Z</time></trkpt><trkpt lat="43.8824349" lon="12.5209225"><ele>226.0</ele><time>2026-04-26T10:20:05.4Z</time></trkpt><trkpt lat="43.882457" lon="12.5212492"><ele>228.0</ele><time>2026-04-26T10:20:06.397Z</time></trkpt><trkpt lat="43.8824776" lon="12.5215798"><ele>230.0</ele><time>2026-04-26T10:20:07.395Z</time></trkpt><trkpt lat="43.8825021" lon="12.5219073"><ele>229.0</ele><time>2026-04-26T10:20:08.394Z</time></trkpt><trkpt lat="43.8825207" lon="12.5222321"><ele>228.0</ele><time>2026-04-26T10:20:09.401Z</time></trkpt><trkpt lat="43.8825609" lon="12.5228613"><ele>228.66666666666669</ele><time>2026-04-26T10:20:11.4Z</time></trkpt><trkpt lat="43.8825843" lon="12.5231661"><ele>229.33333333333334</ele><time>2026-04-26T10:20:12.393Z</time></trkpt><trkpt lat="43.8826236" lon="12.5234627"><ele>230.0</ele><time>2026-04-26T10:20:13.399Z</time></trkpt><trkpt lat="43.8826734" lon="12.5237543"><ele>226.66666666666669</ele><time>2026-04-26T10:20:14.395Z</time></trkpt><trkpt lat="43.8827459" lon="12.5240359"><ele>223.33333333333331</ele><time>2026-04-26T10:20:15.399Z</time></trkpt><trkpt lat="43.8828324" lon="12.5243146"><ele>220.0</ele><time>2026-04-26T10:20:16.4Z</time></trkpt><trkpt lat="43.8829438" lon="12.5245863"><ele>218.0</ele><time>2026-04-26T10:20:17.402Z</time></trkpt><trkpt lat="43.8830704" lon="12.5248532"><ele>216.0</ele><time>2026-04-26T10:20:18.403Z</time></trkpt><trkpt lat="43.8832175" lon="12.5251"><ele>216.0</ele><time>2026-04-26T10:20:19.399Z</time></trkpt><trkpt lat="43.8833789" lon="12.5253246"><ele>216.0</ele><time>2026-04-26T10:20:20.402Z</time></trkpt><trkpt lat="43.8835559" lon="12.5255241"><ele>215.0</ele><time>2026-04-26T10:20:21.396Z</time></trkpt><trkpt lat="43.8837357" lon="12.5257072"><ele>214.0</ele><time>2026-04-26T10:20:22.397Z</time></trkpt><trkpt lat="43.8839144" lon="12.525889"><ele>213.0</ele><time>2026-04-26T10:20:23.396Z</time></trkpt><trkpt lat="43.8840849" lon="12.5260654"><ele>213.0</ele><time>2026-04-26T10:20:24.394Z</time></trkpt><trkpt lat="43.8842429" lon="12.5262222"><ele>213.0</ele><time>2026-04-26T10:20:25.401Z</time></trkpt><trkpt lat="43.8843904" lon="12.52636"><ele>213.0</ele><time>2026-04-26T10:20:26.396Z</time></trkpt><trkpt lat="43.8845201" lon="12.5264851"><ele>212.75</ele><time>2026-04-26T10:20:27.395Z</time></trkpt><trkpt lat="43.8846393" lon="12.5265998"><ele>212.5</ele><time>2026-04-26T10:20:28.397Z</time></trkpt><trkpt lat="43.8847397" lon="12.5267278"><ele>212.25</ele><time>2026-04-26T10:20:29.397Z</time></trkpt><trkpt lat="43.8848445" lon="12.5268506"><ele>212.0</ele><time>2026-04-26T10:20:30.396Z</time></trkpt><trkpt lat="43.8851179" lon="12.5270698"><ele>212.0</ele><time>2026-04-26T10:20:32.396Z</time></trkpt><trkpt lat="43.8852809" lon="12.5272251"><ele>212.0</ele><time>2026-04-26T10:20:33.395Z</time></trkpt><trkpt lat="43.8854501" lon="12.5274151"><ele>212.0</ele><time>2026-04-26T10:20:34.394Z</time></trkpt><trkpt lat="43.8856222" lon="12.5276182"><ele>212.0</ele><time>2026-04-26T10:20:35.397Z</time></trkpt><trkpt lat="43.8857998" lon="12.5278402"><ele>212.0</ele><time>2026-04-26T10:20:36.393Z</time></trkpt><trkpt lat="43.8859777" lon="12.5280725"><ele>214.5</ele><time>2026-04-26T10:20:37.396Z</time></trkpt><trkpt lat="43.8861528" lon="12.5283103"><ele>217.0</ele><time>2026-04-26T10:20:38.396Z</time></trkpt><trkpt lat="43.8863283" lon="12.5285457"><ele>213.5</ele><time>2026-04-26T10:20:39.398Z</time></trkpt><trkpt lat="43.8865005" lon="12.5287838"><ele>210.0</ele><time>2026-04-26T10:20:40.397Z</time></trkpt><trkpt lat="43.8866725" lon="12.5290205"><ele>214.5</ele><time>2026-04-26T10:20:41.398Z</time></trkpt><trkpt lat="43.8868459" lon="12.5292509"><ele>219.0</ele><time>2026-04-26T10:20:42.396Z</time></trkpt><trkpt lat="43.8870174" lon="12.5294795"><ele>214.5</ele><time>2026-04-26T10:20:43.396Z</time></trkpt><trkpt lat="43.8871881" lon="12.5297076"><ele>210.0</ele><time>2026-04-26T10:20:44.395Z</time></trkpt><trkpt lat="43.8873552" lon="12.5299334"><ele>210.0</ele><time>2026-04-26T10:20:45.396Z</time></trkpt><trkpt lat="43.8875209" lon="12.5301631"><ele>210.0</ele><time>2026-04-26T10:20:46.395Z</time></trkpt><trkpt lat="43.8876901" lon="12.5303891"><ele>209.5</ele><time>2026-04-26T10:20:47.402Z</time></trkpt><trkpt lat="43.8878593" lon="12.5306095"><ele>209.0</ele><time>2026-04-26T10:20:48.398Z</time></trkpt><trkpt lat="43.8880255" lon="12.530838"><ele>209.0</ele><time>2026-04-26T10:20:49.401Z</time></trkpt><trkpt lat="43.8881935" lon="12.5310661"><ele>209.0</ele><time>2026-04-26T10:20:50.394Z</time></trkpt><trkpt lat="43.888365" lon="12.5312949"><ele>213.0</ele><time>2026-04-26T10:20:51.398Z</time></trkpt><trkpt lat="43.8887242" lon="12.531735"><ele>213.0</ele><time>2026-04-26T10:20:53.401Z</time></trkpt><trkpt lat="43.8889145" lon="12.5319439"><ele>213.0</ele><time>2026-04-26T10:20:54.394Z</time></trkpt><trkpt lat="43.8891117" lon="12.5321415"><ele>208.0</ele><time>2026-04-26T10:20:55.395Z</time></trkpt><trkpt lat="43.889316" lon="12.5323313"><ele>203.0</ele><time>2026-04-26T10:20:56.398Z</time></trkpt><trkpt lat="43.8895272" lon="12.5325065"><ele>203.0</ele><time>2026-04-26T10:20:57.404Z</time></trkpt><trkpt lat="43.8897438" lon="12.53267"><ele>203.0</ele><time>2026-04-26T10:20:58.396Z</time></trkpt><trkpt lat="43.8899671" lon="12.5328264"><ele>201.0</ele><time>2026-04-26T10:20:59.399Z</time></trkpt><trkpt lat="43.8901919" lon="12.5329701"><ele>199.0</ele><time>2026-04-26T10:21:00.393Z</time></trkpt><trkpt lat="43.8904226" lon="12.5330987"><ele>199.0</ele><time>2026-04-26T10:21:01.393Z</time></trkpt><trkpt lat="43.8906581" lon="12.5332089"><ele>199.0</ele><time>2026-04-26T10:21:02.392Z</time></trkpt><trkpt lat="43.8908956" lon="12.533302"><ele>198.0</ele><time>2026-04-26T10:21:03.397Z</time></trkpt><trkpt lat="43.891133" lon="12.5333796"><ele>197.0</ele><time>2026-04-26T10:21:04.397Z</time></trkpt><trkpt lat="43.8913712" lon="12.5334392"><ele>197.0</ele><time>2026-04-26T10:21:05.396Z</time></trkpt><trkpt lat="43.8916117" lon="12.5334865"><ele>197.0</ele><time>2026-04-26T10:21:06.4Z</time></trkpt><trkpt lat="43.8918518" lon="12.533525"><ele>196.5</ele><time>2026-04-26T10:21:07.395Z</time></trkpt><trkpt lat="43.8920908" lon="12.5335622"><ele>196.0</ele><time>2026-04-26T10:21:08.397Z</time></trkpt><trkpt lat="43.892326" lon="12.5335991"><ele>196.0</ele><time>2026-04-26T10:21:09.397Z</time></trkpt><trkpt lat="43.8925594" lon="12.5336313"><ele>196.0</ele><time>2026-04-26T10:21:10.398Z</time></trkpt><trkpt lat="43.892788" lon="12.5336553"><ele>195.5</ele><time>2026-04-26T10:21:11.398Z</time></trkpt><trkpt lat="43.8930152" lon="12.5336715"><ele>195.0</ele><time>2026-04-26T10:21:12.396Z</time></trkpt><trkpt lat="43.8934768" lon="12.5336812"><ele>196.33333333333331</ele><time>2026-04-26T10:21:14.403Z</time></trkpt><trkpt lat="43.8936981" lon="12.5336661"><ele>197.66666666666666</ele><time>2026-04-26T10:21:15.399Z</time></trkpt><trkpt lat="43.8939046" lon="12.5336397"><ele>199.0</ele><time>2026-04-26T10:21:16.4Z</time></trkpt><trkpt lat="43.8940998" lon="12.5336168"><ele>199.33333333333331</ele><time>2026-04-26T10:21:17.396Z</time></trkpt><trkpt lat="43.8942888" lon="12.5335914"><ele>199.66666666666669</ele><time>2026-04-26T10:21:18.396Z</time></trkpt><trkpt lat="43.8944798" lon="12.533569"><ele>200.0</ele><time>2026-04-26T10:21:19.4Z</time></trkpt><trkpt lat="43.8946717" lon="12.5335477"><ele>200.0</ele><time>2026-04-26T10:21:20.396Z</time></trkpt><trkpt lat="43.8948639" lon="12.5335259"><ele>200.0</ele><time>2026-04-26T10:21:21.396Z</time></trkpt><trkpt lat="43.8950562" lon="12.533505"><ele>200.0</ele><time>2026-04-26T10:21:22.4Z</time></trkpt><trkpt lat="43.895243" lon="12.5334864"><ele>199.66666666666669</ele><time>2026-04-26T10:21:23.397Z</time></trkpt><trkpt lat="43.8954207" lon="12.5334683"><ele>199.33333333333331</ele><time>2026-04-26T10:21:24.397Z</time></trkpt><trkpt lat="43.8955999" lon="12.5334483"><ele>199.0</ele><time>2026-04-26T10:21:25.395Z</time></trkpt><trkpt lat="43.8957843" lon="12.5334309"><ele>199.0</ele><time>2026-04-26T10:21:26.401Z</time></trkpt><trkpt lat="43.8959662" lon="12.5334206"><ele>199.0</ele><time>2026-04-26T10:21:27.399Z</time></trkpt><trkpt lat="43.8961473" lon="12.5334108"><ele>199.0</ele><time>2026-04-26T10:21:28.401Z</time></trkpt><trkpt lat="43.8963281" lon="12.5334115"><ele>199.0</ele><time>2026-04-26T10:21:29.396Z</time></trkpt><trkpt lat="43.8965115" lon="12.5334272"><ele>199.0</ele><time>2026-04-26T10:21:30.391Z</time></trkpt><trkpt lat="43.8966859" lon="12.5334534"><ele>199.0</ele><time>2026-04-26T10:21:31.394Z</time></trkpt><trkpt lat="43.8968522" lon="12.533491"><ele>200.5</ele><time>2026-04-26T10:21:32.394Z</time></trkpt><trkpt lat="43.8970127" lon="12.5335336"><ele>202.0</ele><time>2026-04-26T10:21:33.396Z</time></trkpt><trkpt lat="43.8973256" lon="12.5336007"><ele>202.0</ele><time>2026-04-26T10:21:35.4Z</time></trkpt><trkpt lat="43.8974793" lon="12.5336289"><ele>202.0</ele><time>2026-04-26T10:21:36.398Z</time></trkpt><trkpt lat="43.8976306" lon="12.5336534"><ele>202.0</ele><time>2026-04-26T10:21:37.396Z</time></trkpt><trkpt lat="43.8977825" lon="12.5336756"><ele>203.33333333333331</ele><time>2026-04-26T10:21:38.397Z</time></trkpt><trkpt lat="43.8979341" lon="12.5336971"><ele>204.66666666666669</ele><time>2026-04-26T10:21:39.393Z</time></trkpt><trkpt lat="43.8980901" lon="12.5337214"><ele>206.0</ele><time>2026-04-26T10:21:40.397Z</time></trkpt><trkpt lat="43.8982581" lon="12.533748"><ele>200.33333333333334</ele><time>2026-04-26T10:21:41.396Z</time></trkpt><trkpt lat="43.8984332" lon="12.5337765"><ele>194.66666666666669</ele><time>2026-04-26T10:21:42.396Z</time></trkpt><trkpt lat="43.8986127" lon="12.5338047"><ele>189.0</ele><time>2026-04-26T10:21:43.397Z</time></trkpt><trkpt lat="43.8988006" lon="12.5338288"><ele>189.0</ele><time>2026-04-26T10:21:44.395Z</time></trkpt><trkpt lat="43.8990093" lon="12.5338473"><ele>189.0</ele><time>2026-04-26T10:21:45.404Z</time></trkpt><trkpt lat="43.8992359" lon="12.5338717"><ele>189.0</ele><time>2026-04-26T10:21:46.409Z</time></trkpt><trkpt lat="43.8994781" lon="12.5339064"><ele>190.0</ele><time>2026-04-26T10:21:47.398Z</time></trkpt><trkpt lat="43.8997347" lon="12.5339551"><ele>191.0</ele><time>2026-04-26T10:21:48.394Z</time></trkpt><trkpt lat="43.8999931" lon="12.5340155"><ele>196.0</ele><time>2026-04-26T10:21:49.405Z</time></trkpt><trkpt lat="43.900236" lon="12.5340804"><ele>201.0</ele><time>2026-04-26T10:21:50.399Z</time></trkpt><trkpt lat="43.9004633" lon="12.5341499"><ele>201.0</ele><time>2026-04-26T10:21:51.399Z</time></trkpt><trkpt lat="43.9006758" lon="12.5342288"><ele>201.0</ele><time>2026-04-26T10:21:52.395Z</time></trkpt><trkpt lat="43.9008714" lon="12.5343254"><ele>201.0</ele><time>2026-04-26T10:21:53.398Z</time></trkpt><trkpt lat="43.9010519" lon="12.5344424"><ele>201.5</ele><time>2026-04-26T10:21:54.397Z</time></trkpt><trkpt lat="43.9013719" lon="12.5346997"><ele>202.0</ele><time>2026-04-26T10:21:56.399Z</time></trkpt><trkpt lat="43.9015021" lon="12.5348352"><ele>202.0</ele><time>2026-04-26T10:21:57.396Z</time></trkpt><trkpt lat="43.9016069" lon="12.534959"><ele>202.0</ele><time>2026-04-26T10:21:58.394Z</time></trkpt><trkpt lat="43.9016929" lon="12.5350542"><ele>202.0</ele><time>2026-04-26T10:21:59.399Z</time></trkpt><trkpt lat="43.9017689" lon="12.5350941"><ele>202.0</ele><time>2026-04-26T10:22:00.395Z</time></trkpt><trkpt lat="43.9018502" lon="12.5351024"><ele>202.0</ele><time>2026-04-26T10:22:01.395Z</time></trkpt><trkpt lat="43.9019176" lon="12.5350632"><ele>202.0</ele><time>2026-04-26T10:22:02.395Z</time></trkpt><trkpt lat="43.9019751" lon="12.5349801"><ele>202.0</ele><time>2026-04-26T10:22:03.398Z</time></trkpt><trkpt lat="43.9020304" lon="12.5348372"><ele>202.0</ele><time>2026-04-26T10:22:04.396Z</time></trkpt><trkpt lat="43.9020843" lon="12.5346595"><ele>202.0</ele><time>2026-04-26T10:22:05.399Z</time></trkpt><trkpt lat="43.9021368" lon="12.5345075"><ele>202.6</ele><time>2026-04-26T10:22:06.398Z</time></trkpt><trkpt lat="43.9021889" lon="12.5343758"><ele>203.2</ele><time>2026-04-26T10:22:07.401Z</time></trkpt><trkpt lat="43.9022391" lon="12.5342547"><ele>203.8</ele><time>2026-04-26T10:22:08.397Z</time></trkpt><trkpt lat="43.9022864" lon="12.5341327"><ele>204.4</ele><time>2026-04-26T10:22:09.396Z</time></trkpt><trkpt lat="43.9023279" lon="12.5340196"><ele>205.0</ele><time>2026-04-26T10:22:10.401Z</time></trkpt><trkpt lat="43.9023589" lon="12.5339315"><ele>205.0</ele><time>2026-04-26T10:22:11.397Z</time></trkpt><trkpt lat="43.9023816" lon="12.5338383"><ele>205.0</ele><time>2026-04-26T10:22:13.397Z</time></trkpt><trkpt lat="43.9023045" lon="12.5337375"><ele>205.0</ele><time>2026-04-26T10:22:15.401Z</time></trkpt><trkpt lat="43.9021135" lon="12.5336126"><ele>205.0</ele><time>2026-04-26T10:22:17.4Z</time></trkpt><trkpt lat="43.9019791" lon="12.5335185"><ele>205.66666666666666</ele><time>2026-04-26T10:22:18.397Z</time></trkpt><trkpt lat="43.9018339" lon="12.5334175"><ele>206.33333333333331</ele><time>2026-04-26T10:22:19.399Z</time></trkpt><trkpt lat="43.9016925" lon="12.5333232"><ele>207.0</ele><time>2026-04-26T10:22:20.396Z</time></trkpt><trkpt lat="43.9015664" lon="12.5332303"><ele>207.0</ele><time>2026-04-26T10:22:21.4Z</time></trkpt><trkpt lat="43.9014571" lon="12.5331565"><ele>207.0</ele><time>2026-04-26T10:22:22.398Z</time></trkpt><trkpt lat="43.9013641" lon="12.533092"><ele>207.0</ele><time>2026-04-26T10:22:23.396Z</time></trkpt><trkpt lat="43.9012865" lon="12.5330631"><ele>207.0</ele><time>2026-04-26T10:22:24.4Z</time></trkpt><trkpt lat="43.9012236" lon="12.533084"><ele>207.0</ele><time>2026-04-26T10:22:25.396Z</time></trkpt><trkpt lat="43.9011795" lon="12.5331561"><ele>207.0</ele><time>2026-04-26T10:22:26.401Z</time></trkpt><trkpt lat="43.9011291" lon="12.5332615"><ele>207.0</ele><time>2026-04-26T10:22:27.394Z</time></trkpt><trkpt lat="43.9010558" lon="12.5333855"><ele>207.0</ele><time>2026-04-26T10:22:28.4Z</time></trkpt><trkpt lat="43.9009743" lon="12.5335012"><ele>207.0</ele><time>2026-04-26T10:22:29.397Z</time></trkpt><trkpt lat="43.9008886" lon="12.5336145"><ele>207.0</ele><time>2026-04-26T10:22:30.394Z</time></trkpt><trkpt lat="43.9007949" lon="12.5337214"><ele>205.8</ele><time>2026-04-26T10:22:31.393Z</time></trkpt><trkpt lat="43.9007057" lon="12.5338206"><ele>204.6</ele><time>2026-04-26T10:22:32.397Z</time></trkpt><trkpt lat="43.9006254" lon="12.5339158"><ele>203.4</ele><time>2026-04-26T10:22:33.402Z</time></trkpt><trkpt lat="43.9005538" lon="12.5339994"><ele>202.20000000000002</ele><time>2026-04-26T10:22:34.394Z</time></trkpt><trkpt lat="43.9004861" lon="12.5340795"><ele>201.0</ele><time>2026-04-26T10:22:35.397Z</time></trkpt><trkpt lat="43.9004718" lon="12.5341745"><ele>201.0</ele><time>2026-04-26T10:22:37.401Z</time></trkpt><trkpt lat="43.9006351" lon="12.5344348"><ele>201.0</ele><time>2026-04-26T10:22:40.397Z</time></trkpt><trkpt lat="43.9007517" lon="12.5344849"><ele>201.0</ele><time>2026-04-26T10:22:41.394Z</time></trkpt><trkpt lat="43.9008638" lon="12.5345215"><ele>201.20000000000002</ele><time>2026-04-26T10:22:42.395Z</time></trkpt><trkpt lat="43.900975" lon="12.5345668"><ele>201.4</ele><time>2026-04-26T10:22:43.397Z</time></trkpt><trkpt lat="43.9010723" lon="12.5346176"><ele>201.6</ele><time>2026-04-26T10:22:44.403Z</time></trkpt><trkpt lat="43.9011565" lon="12.5346693"><ele>201.8</ele><time>2026-04-26T10:22:45.396Z</time></trkpt><trkpt lat="43.9012345" lon="12.5347368"><ele>202.0</ele><time>2026-04-26T10:22:46.402Z</time></trkpt><trkpt lat="43.9013125" lon="12.5348222"><ele>202.0</ele><time>2026-04-26T10:22:47.397Z</time></trkpt><trkpt lat="43.9013866" lon="12.5349082"><ele>202.0</ele><time>2026-04-26T10:22:48.395Z</time></trkpt><trkpt lat="43.9014628" lon="12.5349924"><ele>202.0</ele><time>2026-04-26T10:22:49.395Z</time></trkpt><trkpt lat="43.9015326" lon="12.5350739"><ele>202.0</ele><time>2026-04-26T10:22:50.398Z</time></trkpt><trkpt lat="43.9015887" lon="12.5351388"><ele>202.0</ele><time>2026-04-26T10:22:51.401Z</time></trkpt><trkpt lat="43.9016529" lon="12.53524"><ele>201.99999999999997</ele><time>2026-04-26T10:22:53.399Z</time></trkpt><trkpt lat="43.901604" lon="12.5351588"><ele>202.0</ele><time>2026-04-26T10:23:05.398Z</time></trkpt><trkpt lat="43.9014802" lon="12.5350117"><ele>202.0</ele><time>2026-04-26T10:23:08.395Z</time></trkpt><trkpt lat="43.9014296" lon="12.5349527"><ele>202.0</ele><time>2026-04-26T10:23:10.395Z</time></trkpt><trkpt lat="43.9013751" lon="12.5348955"><ele>201.99999999999997</ele><time>2026-04-26T10:23:12.4Z</time></trkpt><trkpt lat="43.9013257" lon="12.5348404"><ele>202.0</ele><time>2026-04-26T10:23:14.403Z</time></trkpt><trkpt lat="43.9012665" lon="12.5347631"><ele>201.99999999999997</ele><time>2026-04-26T10:23:17.397Z</time></trkpt><trkpt lat="43.9011821" lon="12.5346572"><ele>202.0</ele><time>2026-04-26T10:23:21.398Z</time></trkpt><trkpt lat="43.9011204" lon="12.5346143"><ele>202.0</ele><time>2026-04-26T10:23:22.397Z</time></trkpt><trkpt lat="43.9010402" lon="12.5345735"><ele>202.0</ele><time>2026-04-26T10:23:23.399Z</time></trkpt><trkpt lat="43.900961" lon="12.5345481"><ele>201.99999999999997</ele><time>2026-04-26T10:23:24.397Z</time></trkpt><trkpt lat="43.9008796" lon="12.5345093"><ele>202.0</ele><time>2026-04-26T10:23:25.395Z</time></trkpt><trkpt lat="43.9007994" lon="12.5344739"><ele>201.8</ele><time>2026-04-26T10:23:26.401Z</time></trkpt><trkpt lat="43.9006246" lon="12.5344043"><ele>201.6</ele><time>2026-04-26T10:23:29.395Z</time></trkpt><trkpt lat="43.9005565" lon="12.534369"><ele>201.4</ele><time>2026-04-26T10:23:31.394Z</time></trkpt><trkpt lat="43.90049" lon="12.5343994"><ele>201.20000000000002</ele><time>2026-04-26T10:23:39.392Z</time></trkpt><trkpt lat="43.9004098" lon="12.5344557"><ele>201.0</ele><time>2026-04-26T10:23:41.398Z</time></trkpt><trkpt lat="43.9003217" lon="12.5344938"><ele>201.0</ele><time>2026-04-26T10:23:43.4Z</time></trkpt><trkpt lat="43.9002248" lon="12.5345317"><ele>201.0</ele><time>2026-04-26T10:23:45.402Z</time></trkpt><trkpt lat="43.9001284" lon="12.5345909"><ele>201.0</ele><time>2026-04-26T10:23:47.4Z</time></trkpt><trkpt lat="43.8999683" lon="12.5347753"><ele>201.0</ele><time>2026-04-26T10:23:50.399Z</time></trkpt><trkpt lat="43.8998894" lon="12.5348389"><ele>198.4</ele><time>2026-04-26T10:23:51.397Z</time></trkpt><trkpt lat="43.8998022" lon="12.5348984"><ele>195.8</ele><time>2026-04-26T10:23:52.4Z</time></trkpt><trkpt lat="43.8996997" lon="12.5349601"><ele>193.20000000000002</ele><time>2026-04-26T10:23:53.399Z</time></trkpt><trkpt lat="43.8996059" lon="12.5350236"><ele>190.60000000000002</ele><time>2026-04-26T10:23:54.398Z</time></trkpt><trkpt lat="43.8995223" lon="12.5350776"><ele>188.0</ele><time>2026-04-26T10:23:55.4Z</time></trkpt><trkpt lat="43.8994607" lon="12.5351142"><ele>188.0</ele><time>2026-04-26T10:23:56.402Z</time></trkpt><trkpt lat="43.8993877" lon="12.5351453"><ele>188.0</ele><time>2026-04-26T10:23:58.396Z</time></trkpt><trkpt lat="43.8993121" lon="12.5351779"><ele>188.0</ele><time>2026-04-26T10:24:00.393Z</time></trkpt><trkpt lat="43.8992208" lon="12.5352082"><ele>188.0</ele><time>2026-04-26T10:24:02.395Z</time></trkpt><trkpt lat="43.8991182" lon="12.5352913"><ele>188.0</ele><time>2026-04-26T10:24:04.399Z</time></trkpt><trkpt lat="43.8990523" lon="12.5353583"><ele>187.0</ele><time>2026-04-26T10:24:06.398Z</time></trkpt><trkpt lat="43.8990317" lon="12.5354746"><ele>186.0</ele><time>2026-04-26T10:24:09.396Z</time></trkpt><trkpt lat="43.899062" lon="12.5356822"><ele>185.0</ele><time>2026-04-26T10:24:14.397Z</time></trkpt><trkpt lat="43.8990895" lon="12.5358098"><ele>184.0</ele><time>2026-04-26T10:24:16.401Z</time></trkpt><trkpt lat="43.8991047" lon="12.5359151"><ele>183.0</ele><time>2026-04-26T10:24:18.396Z</time></trkpt><trkpt lat="43.8991207" lon="12.5360548"><ele>183.0</ele><time>2026-04-26T10:24:20.395Z</time></trkpt><trkpt lat="43.8991331" lon="12.5361454"><ele>183.0</ele><time>2026-04-26T10:24:21.394Z</time></trkpt><trkpt lat="43.8991354" lon="12.5362762"><ele>183.0</ele><time>2026-04-26T10:24:23.399Z</time></trkpt><trkpt lat="43.8991081" lon="12.5364023"><ele>183.0</ele><time>2026-04-26T10:24:25.399Z</time></trkpt><trkpt lat="43.8990893" lon="12.5365066"><ele>183.0</ele><time>2026-04-26T10:24:27.394Z</time></trkpt><trkpt lat="43.899021" lon="12.5365649"><ele>183.0</ele><time>2026-04-26T10:24:30.398Z</time></trkpt><trkpt lat="43.8988682" lon="12.536591"><ele>182.8</ele><time>2026-04-26T10:24:36.395Z</time></trkpt><trkpt lat="43.8988031" lon="12.5366073"><ele>182.60000000000002</ele><time>2026-04-26T10:24:40.397Z</time></trkpt><trkpt lat="43.8987324" lon="12.5366253"><ele>182.39999999999998</ele><time>2026-04-26T10:24:43.395Z</time></trkpt><trkpt lat="43.8986423" lon="12.5366523"><ele>182.2</ele><time>2026-04-26T10:24:45.393Z</time></trkpt><trkpt lat="43.8985322" lon="12.5366823"><ele>182.0</ele><time>2026-04-26T10:24:47.395Z</time></trkpt><trkpt lat="43.89843" lon="12.5367772"><ele>182.0</ele><time>2026-04-26T10:24:49.396Z</time></trkpt><trkpt lat="43.8983617" lon="12.5368673"><ele>182.0</ele><time>2026-04-26T10:24:51.402Z</time></trkpt><trkpt lat="43.8982845" lon="12.5370328"><ele>182.0</ele><time>2026-04-26T10:24:56.395Z</time></trkpt><trkpt lat="43.8983027" lon="12.5371172"><ele>182.0</ele><time>2026-04-26T10:24:58.396Z</time></trkpt><trkpt lat="43.8983656" lon="12.5372198"><ele>182.0</ele><time>2026-04-26T10:25:00.396Z</time></trkpt><trkpt lat="43.8984224" lon="12.537315"><ele>182.0</ele><time>2026-04-26T10:25:02.403Z</time></trkpt><trkpt lat="43.8984824" lon="12.5374067"><ele>182.0</ele><time>2026-04-26T10:25:05.396Z</time></trkpt><trkpt lat="43.8985108" lon="12.5375004"><ele>182.0</ele><time>2026-04-26T10:25:07.401Z</time></trkpt><trkpt lat="43.8985689" lon="12.5375883"><ele>182.0</ele><time>2026-04-26T10:25:09.396Z</time></trkpt><trkpt lat="43.8986403" lon="12.5376373"><ele>182.0</ele><time>2026-04-26T10:25:11.398Z</time></trkpt><trkpt lat="43.8986883" lon="12.5377205"><ele>182.0</ele><time>2026-04-26T10:25:13.397Z</time></trkpt><trkpt lat="43.8987899" lon="12.5379035"><ele>182.0</ele><time>2026-04-26T10:25:19.392Z</time></trkpt><trkpt lat="43.8988244" lon="12.5379936"><ele>182.0</ele><time>2026-04-26T10:25:23.396Z</time></trkpt><trkpt lat="43.8988378" lon="12.538093"><ele>182.0</ele><time>2026-04-26T10:25:38.399Z</time></trkpt><trkpt lat="43.8986757" lon="12.5383018"><ele>182.0</ele><time>2026-04-26T10:25:42.397Z</time></trkpt><trkpt lat="43.8986193" lon="12.5383668"><ele>182.0</ele><time>2026-04-26T10:25:43.398Z</time></trkpt><trkpt lat="43.8985564" lon="12.5384382"><ele>182.0</ele><time>2026-04-26T10:25:44.396Z</time></trkpt><trkpt lat="43.8984909" lon="12.5385125"><ele>182.0</ele><time>2026-04-26T10:25:45.394Z</time></trkpt><trkpt lat="43.8984232" lon="12.5385902"><ele>182.0</ele><time>2026-04-26T10:25:46.401Z</time></trkpt><trkpt lat="43.8983505" lon="12.5386766"><ele>182.0</ele><time>2026-04-26T10:25:47.398Z</time></trkpt><trkpt lat="43.8982816" lon="12.5387686"><ele>182.0</ele><time>2026-04-26T10:25:48.396Z</time></trkpt><trkpt lat="43.8982068" lon="12.5388714"><ele>182.0</ele><time>2026-04-26T10:25:49.401Z</time></trkpt><trkpt lat="43.898131" lon="12.5389764"><ele>182.0</ele><time>2026-04-26T10:25:50.398Z</time></trkpt><trkpt lat="43.8980503" lon="12.5390803"><ele>182.0</ele><time>2026-04-26T10:25:51.396Z</time></trkpt><trkpt lat="43.8979758" lon="12.53918"><ele>182.0</ele><time>2026-04-26T10:25:52.396Z</time></trkpt><trkpt lat="43.8979055" lon="12.5392802"><ele>182.0</ele><time>2026-04-26T10:25:53.397Z</time></trkpt><trkpt lat="43.8978365" lon="12.539369"><ele>182.0</ele><time>2026-04-26T10:25:54.397Z</time></trkpt><trkpt lat="43.8977731" lon="12.5394608"><ele>182.0</ele><time>2026-04-26T10:25:55.394Z</time></trkpt><trkpt lat="43.8977113" lon="12.5395413"><ele>182.0</ele><time>2026-04-26T10:25:56.395Z</time></trkpt><trkpt lat="43.8976572" lon="12.5396042"><ele>182.0</ele><time>2026-04-26T10:25:57.395Z</time></trkpt><trkpt lat="43.8975876" lon="12.5397132"><ele>182.0</ele><time>2026-04-26T10:25:59.396Z</time></trkpt><trkpt lat="43.8977078" lon="12.5398802"><ele>182.25</ele><time>2026-04-26T10:26:03.404Z</time></trkpt><trkpt lat="43.8977791" lon="12.5399379"><ele>182.5</ele><time>2026-04-26T10:26:04.398Z</time></trkpt><trkpt lat="43.8978938" lon="12.5400459"><ele>182.75</ele><time>2026-04-26T10:26:05.394Z</time></trkpt><trkpt lat="43.8980023" lon="12.5401242"><ele>183.0</ele><time>2026-04-26T10:26:06.395Z</time></trkpt><trkpt lat="43.8981146" lon="12.5402099"><ele>183.0</ele><time>2026-04-26T10:26:07.396Z</time></trkpt><trkpt lat="43.8982297" lon="12.5402871"><ele>183.0</ele><time>2026-04-26T10:26:08.4Z</time></trkpt><trkpt lat="43.8983455" lon="12.5403757"><ele>183.0</ele><time>2026-04-26T10:26:09.403Z</time></trkpt><trkpt lat="43.898462" lon="12.5404715"><ele>183.0</ele><time>2026-04-26T10:26:10.395Z</time></trkpt><trkpt lat="43.8985717" lon="12.5405623"><ele>182.5</ele><time>2026-04-26T10:26:11.395Z</time></trkpt><trkpt lat="43.8986795" lon="12.5406482"><ele>182.0</ele><time>2026-04-26T10:26:12.397Z</time></trkpt><trkpt lat="43.8987932" lon="12.5407351"><ele>181.5</ele><time>2026-04-26T10:26:13.395Z</time></trkpt><trkpt lat="43.8989145" lon="12.5408326"><ele>181.0</ele><time>2026-04-26T10:26:14.395Z</time></trkpt><trkpt lat="43.8990324" lon="12.5409351"><ele>181.0</ele><time>2026-04-26T10:26:15.399Z</time></trkpt><trkpt lat="43.8991454" lon="12.5410454"><ele>181.0</ele><time>2026-04-26T10:26:16.398Z</time></trkpt><trkpt lat="43.8992613" lon="12.5411476"><ele>181.0</ele><time>2026-04-26T10:26:17.409Z</time></trkpt><trkpt lat="43.8993783" lon="12.5412299"><ele>181.0</ele><time>2026-04-26T10:26:18.4Z</time></trkpt><trkpt lat="43.8994998" lon="12.5413056"><ele>181.33333333333334</ele><time>2026-04-26T10:26:19.404Z</time></trkpt><trkpt lat="43.8996165" lon="12.541373"><ele>181.66666666666666</ele><time>2026-04-26T10:26:20.397Z</time></trkpt><trkpt lat="43.8998036" lon="12.5415751"><ele>182.0</ele><time>2026-04-26T10:26:22.399Z</time></trkpt><trkpt lat="43.8999008" lon="12.5416926"><ele>182.0</ele><time>2026-04-26T10:26:23.399Z</time></trkpt><trkpt lat="43.9000108" lon="12.5417962"><ele>182.0</ele><time>2026-04-26T10:26:24.397Z</time></trkpt><trkpt lat="43.9001294" lon="12.5419004"><ele>182.0</ele><time>2026-04-26T10:26:25.402Z</time></trkpt><trkpt lat="43.9002531" lon="12.5420142"><ele>182.0</ele><time>2026-04-26T10:26:26.403Z</time></trkpt><trkpt lat="43.9003674" lon="12.5421355"><ele>181.5</ele><time>2026-04-26T10:26:27.396Z</time></trkpt><trkpt lat="43.9004899" lon="12.5422567"><ele>181.0</ele><time>2026-04-26T10:26:28.395Z</time></trkpt><trkpt lat="43.9006069" lon="12.5423666"><ele>180.5</ele><time>2026-04-26T10:26:29.397Z</time></trkpt><trkpt lat="43.900715" lon="12.5424606"><ele>180.0</ele><time>2026-04-26T10:26:30.397Z</time></trkpt><trkpt lat="43.9008167" lon="12.5425499"><ele>180.0</ele><time>2026-04-26T10:26:31.398Z</time></trkpt><trkpt lat="43.9009017" lon="12.5426448"><ele>180.0</ele><time>2026-04-26T10:26:32.398Z</time></trkpt><trkpt lat="43.9009791" lon="12.542753"><ele>180.0</ele><time>2026-04-26T10:26:33.398Z</time></trkpt><trkpt lat="43.9010504" lon="12.5428906"><ele>180.0</ele><time>2026-04-26T10:26:34.397Z</time></trkpt><trkpt lat="43.9011322" lon="12.5430344"><ele>178.5</ele><time>2026-04-26T10:26:35.398Z</time></trkpt><trkpt lat="43.9012242" lon="12.5431735"><ele>177.0</ele><time>2026-04-26T10:26:36.4Z</time></trkpt><trkpt lat="43.9013221" lon="12.5432986"><ele>175.5</ele><time>2026-04-26T10:26:37.401Z</time></trkpt><trkpt lat="43.901436" lon="12.5434086"><ele>174.0</ele><time>2026-04-26T10:26:38.394Z</time></trkpt><trkpt lat="43.9015748" lon="12.5434987"><ele>174.0</ele><time>2026-04-26T10:26:39.399Z</time></trkpt><trkpt lat="43.9017122" lon="12.5435667"><ele>174.0</ele><time>2026-04-26T10:26:40.395Z</time></trkpt><trkpt lat="43.9018404" lon="12.543639"><ele>174.0</ele><time>2026-04-26T10:26:41.393Z</time></trkpt><trkpt lat="43.9020374" lon="12.5438742"><ele>173.33333333333334</ele><time>2026-04-26T10:26:43.394Z</time></trkpt><trkpt lat="43.9021234" lon="12.544047"><ele>172.66666666666669</ele><time>2026-04-26T10:26:44.402Z</time></trkpt><trkpt lat="43.9022097" lon="12.5442418"><ele>172.0</ele><time>2026-04-26T10:26:45.402Z</time></trkpt><trkpt lat="43.902296" lon="12.5444281"><ele>172.5</ele><time>2026-04-26T10:26:46.398Z</time></trkpt><trkpt lat="43.9023778" lon="12.5446064"><ele>173.0</ele><time>2026-04-26T10:26:47.405Z</time></trkpt><trkpt lat="43.902441" lon="12.544786"><ele>173.5</ele><time>2026-04-26T10:26:48.4Z</time></trkpt><trkpt lat="43.9024771" lon="12.5449753"><ele>174.0</ele><time>2026-04-26T10:26:49.4Z</time></trkpt><trkpt lat="43.902488" lon="12.5451756"><ele>175.66666666666666</ele><time>2026-04-26T10:26:50.399Z</time></trkpt><trkpt lat="43.9025012" lon="12.5453893"><ele>177.33333333333331</ele><time>2026-04-26T10:26:51.397Z</time></trkpt><trkpt lat="43.9025145" lon="12.5456148"><ele>179.0</ele><time>2026-04-26T10:26:52.398Z</time></trkpt><trkpt lat="43.9025352" lon="12.5458263"><ele>179.0</ele><time>2026-04-26T10:26:53.395Z</time></trkpt><trkpt lat="43.9025725" lon="12.54603"><ele>179.0</ele><time>2026-04-26T10:26:54.394Z</time></trkpt><trkpt lat="43.9026273" lon="12.5462167"><ele>179.0</ele><time>2026-04-26T10:26:55.394Z</time></trkpt><trkpt lat="43.9026917" lon="12.5463856"><ele>179.0</ele><time>2026-04-26T10:26:56.396Z</time></trkpt><trkpt lat="43.9027557" lon="12.546561"><ele>178.79999999999998</ele><time>2026-04-26T10:26:57.396Z</time></trkpt><trkpt lat="43.9028061" lon="12.5467267"><ele>178.6</ele><time>2026-04-26T10:26:58.398Z</time></trkpt><trkpt lat="43.9028542" lon="12.5468731"><ele>178.4</ele><time>2026-04-26T10:26:59.401Z</time></trkpt><trkpt lat="43.9029082" lon="12.5469975"><ele>178.2</ele><time>2026-04-26T10:27:00.4Z</time></trkpt><trkpt lat="43.9029617" lon="12.5470775"><ele>178.0</ele><time>2026-04-26T10:27:01.399Z</time></trkpt><trkpt lat="43.9030411" lon="12.5471621"><ele>180.0</ele><time>2026-04-26T10:27:02.396Z</time></trkpt><trkpt lat="43.9032281" lon="12.5473798"><ele>182.0</ele><time>2026-04-26T10:27:04.394Z</time></trkpt><trkpt lat="43.9033046" lon="12.5475224"><ele>184.0</ele><time>2026-04-26T10:27:05.393Z</time></trkpt><trkpt lat="43.9033786" lon="12.547665"><ele>182.2</ele><time>2026-04-26T10:27:06.396Z</time></trkpt><trkpt lat="43.9034571" lon="12.5477969"><ele>180.39999999999998</ele><time>2026-04-26T10:27:07.395Z</time></trkpt><trkpt lat="43.9035369" lon="12.5479089"><ele>178.6</ele><time>2026-04-26T10:27:08.399Z</time></trkpt><trkpt lat="43.90362" lon="12.5479962"><ele>176.8</ele><time>2026-04-26T10:27:09.399Z</time></trkpt><trkpt lat="43.9037077" lon="12.5480684"><ele>175.0</ele><time>2026-04-26T10:27:10.402Z</time></trkpt><trkpt lat="43.9037886" lon="12.5481292"><ele>175.0</ele><time>2026-04-26T10:27:11.397Z</time></trkpt><trkpt lat="43.9038975" lon="12.5481846"><ele>175.0</ele><time>2026-04-26T10:27:12.395Z</time></trkpt><trkpt lat="43.9039863" lon="12.5482368"><ele>175.0</ele><time>2026-04-26T10:27:13.393Z</time></trkpt><trkpt lat="43.9040739" lon="12.5483032"><ele>175.0</ele><time>2026-04-26T10:27:14.397Z</time></trkpt><trkpt lat="43.9041164" lon="12.5484275"><ele>175.0</ele><time>2026-04-26T10:27:15.396Z</time></trkpt><trkpt lat="43.9041679" lon="12.5485747"><ele>175.0</ele><time>2026-04-26T10:27:16.395Z</time></trkpt><trkpt lat="43.9042393" lon="12.5487287"><ele>175.0</ele><time>2026-04-26T10:27:17.394Z</time></trkpt><trkpt lat="43.9043076" lon="12.5488613"><ele>175.0</ele><time>2026-04-26T10:27:18.401Z</time></trkpt><trkpt lat="43.90435" lon="12.5489903"><ele>175.0</ele><time>2026-04-26T10:27:19.398Z</time></trkpt><trkpt lat="43.904368" lon="12.5491017"><ele>175.0</ele><time>2026-04-26T10:27:20.396Z</time></trkpt><trkpt lat="43.9043606" lon="12.549222"><ele>175.0</ele><time>2026-04-26T10:27:21.396Z</time></trkpt><trkpt lat="43.9043532" lon="12.5493382"><ele>175.0</ele><time>2026-04-26T10:27:22.401Z</time></trkpt><trkpt lat="43.9043022" lon="12.5494665"><ele>175.0</ele><time>2026-04-26T10:27:23.398Z</time></trkpt><trkpt lat="43.9042856" lon="12.5497896"><ele>175.0</ele><time>2026-04-26T10:27:25.403Z</time></trkpt><trkpt lat="43.9043042" lon="12.5499985"><ele>176.25</ele><time>2026-04-26T10:27:26.404Z</time></trkpt><trkpt lat="43.9043393" lon="12.5502106"><ele>177.5</ele><time>2026-04-26T10:27:27.4Z</time></trkpt><trkpt lat="43.904377" lon="12.5504053"><ele>178.75</ele><time>2026-04-26T10:27:28.406Z</time></trkpt><trkpt lat="43.904411" lon="12.550581"><ele>180.0</ele><time>2026-04-26T10:27:29.395Z</time></trkpt><trkpt lat="43.9044554" lon="12.5507354"><ele>180.4</ele><time>2026-04-26T10:27:30.394Z</time></trkpt><trkpt lat="43.9044956" lon="12.5508788"><ele>180.8</ele><time>2026-04-26T10:27:31.394Z</time></trkpt><trkpt lat="43.9045052" lon="12.5509978"><ele>181.2</ele><time>2026-04-26T10:27:32.396Z</time></trkpt><trkpt lat="43.9044851" lon="12.5511128"><ele>181.6</ele><time>2026-04-26T10:27:33.396Z</time></trkpt><trkpt lat="43.9044357" lon="12.5512218"><ele>182.0</ele><time>2026-04-26T10:27:34.397Z</time></trkpt><trkpt lat="43.9043795" lon="12.5513277"><ele>182.6</ele><time>2026-04-26T10:27:35.395Z</time></trkpt><trkpt lat="43.9043164" lon="12.5514405"><ele>183.2</ele><time>2026-04-26T10:27:36.399Z</time></trkpt><trkpt lat="43.904259" lon="12.5515773"><ele>183.8</ele><time>2026-04-26T10:27:37.395Z</time></trkpt><trkpt lat="43.9042121" lon="12.5517088"><ele>184.4</ele><time>2026-04-26T10:27:38.398Z</time></trkpt><trkpt lat="43.9041834" lon="12.5518407"><ele>185.0</ele><time>2026-04-26T10:27:39.403Z</time></trkpt><trkpt lat="43.9041766" lon="12.5519811"><ele>184.2</ele><time>2026-04-26T10:27:40.395Z</time></trkpt><trkpt lat="43.9041999" lon="12.5521222"><ele>183.4</ele><time>2026-04-26T10:27:41.393Z</time></trkpt><trkpt lat="43.9042403" lon="12.5522473"><ele>182.60000000000002</ele><time>2026-04-26T10:27:42.394Z</time></trkpt><trkpt lat="43.9042879" lon="12.5523396"><ele>181.8</ele><time>2026-04-26T10:27:43.394Z</time></trkpt><trkpt lat="43.9043626" lon="12.5524053"><ele>181.0</ele><time>2026-04-26T10:27:44.395Z</time></trkpt><trkpt lat="43.9045165" lon="12.5523721"><ele>179.20000000000002</ele><time>2026-04-26T10:27:46.397Z</time></trkpt><trkpt lat="43.9045863" lon="12.5523019"><ele>177.4</ele><time>2026-04-26T10:27:47.405Z</time></trkpt><trkpt lat="43.9046643" lon="12.5522404"><ele>175.6</ele><time>2026-04-26T10:27:49.405Z</time></trkpt><trkpt lat="43.9047916" lon="12.5522089"><ele>173.8</ele><time>2026-04-26T10:27:51.4Z</time></trkpt><trkpt lat="43.9048737" lon="12.5521893"><ele>172.0</ele><time>2026-04-26T10:27:52.395Z</time></trkpt><trkpt lat="43.9050172" lon="12.5521962"><ele>170.75</ele><time>2026-04-26T10:27:53.394Z</time></trkpt><trkpt lat="43.9051546" lon="12.5521989"><ele>169.5</ele><time>2026-04-26T10:27:54.395Z</time></trkpt><trkpt lat="43.9052939" lon="12.5522256"><ele>168.25</ele><time>2026-04-26T10:27:55.398Z</time></trkpt><trkpt lat="43.9054371" lon="12.5522899"><ele>167.0</ele><time>2026-04-26T10:27:56.396Z</time></trkpt><trkpt lat="43.9055683" lon="12.5523211"><ele>167.0</ele><time>2026-04-26T10:27:57.395Z</time></trkpt><trkpt lat="43.9057172" lon="12.5523409"><ele>167.0</ele><time>2026-04-26T10:27:58.398Z</time></trkpt><trkpt lat="43.9058712" lon="12.5523193"><ele>167.0</ele><time>2026-04-26T10:27:59.398Z</time></trkpt><trkpt lat="43.9060314" lon="12.5522669"><ele>165.33333333333331</ele><time>2026-04-26T10:28:00.406Z</time></trkpt><trkpt lat="43.9061916" lon="12.5522118"><ele>163.66666666666666</ele><time>2026-04-26T10:28:01.397Z</time></trkpt><trkpt lat="43.9063595" lon="12.5521819"><ele>162.0</ele><time>2026-04-26T10:28:02.396Z</time></trkpt><trkpt lat="43.9065262" lon="12.5521571"><ele>162.0</ele><time>2026-04-26T10:28:03.395Z</time></trkpt><trkpt lat="43.9066888" lon="12.552157"><ele>162.0</ele><time>2026-04-26T10:28:04.393Z</time></trkpt><trkpt lat="43.9068307" lon="12.5521755"><ele>162.0</ele><time>2026-04-26T10:28:05.396Z</time></trkpt><trkpt lat="43.9070525" lon="12.5522395"><ele>161.66666666666666</ele><time>2026-04-26T10:28:07.395Z</time></trkpt><trkpt lat="43.9071507" lon="12.5522728"><ele>161.33333333333334</ele><time>2026-04-26T10:28:08.404Z</time></trkpt><trkpt lat="43.9072438" lon="12.5522979"><ele>161.0</ele><time>2026-04-26T10:28:09.398Z</time></trkpt><trkpt lat="43.9073087" lon="12.5523402"><ele>160.66666666666669</ele><time>2026-04-26T10:28:10.398Z</time></trkpt><trkpt lat="43.9073513" lon="12.5524088"><ele>160.33333333333334</ele><time>2026-04-26T10:28:11.393Z</time></trkpt><trkpt lat="43.9073848" lon="12.5525007"><ele>160.0</ele><time>2026-04-26T10:28:12.394Z</time></trkpt><trkpt lat="43.9074077" lon="12.5526297"><ele>160.0</ele><time>2026-04-26T10:28:13.4Z</time></trkpt><trkpt lat="43.9074356" lon="12.5527971"><ele>160.0</ele><time>2026-04-26T10:28:14.398Z</time></trkpt><trkpt lat="43.9074728" lon="12.5529927"><ele>160.0</ele><time>2026-04-26T10:28:15.399Z</time></trkpt><trkpt lat="43.9075173" lon="12.5532196"><ele>160.0</ele><time>2026-04-26T10:28:16.394Z</time></trkpt><trkpt lat="43.9075546" lon="12.5534317"><ele>159.66666666666669</ele><time>2026-04-26T10:28:17.404Z</time></trkpt><trkpt lat="43.9075975" lon="12.553634"><ele>159.33333333333334</ele><time>2026-04-26T10:28:18.407Z</time></trkpt><trkpt lat="43.907651" lon="12.5538389"><ele>159.0</ele><time>2026-04-26T10:28:19.398Z</time></trkpt><trkpt lat="43.9077046" lon="12.5540511"><ele>158.33333333333334</ele><time>2026-04-26T10:28:20.397Z</time></trkpt><trkpt lat="43.9077603" lon="12.554269"><ele>157.66666666666669</ele><time>2026-04-26T10:28:21.398Z</time></trkpt><trkpt lat="43.907817" lon="12.5544926"><ele>157.0</ele><time>2026-04-26T10:28:22.398Z</time></trkpt><trkpt lat="43.9078878" lon="12.5547091"><ele>156.66666666666669</ele><time>2026-04-26T10:28:23.396Z</time></trkpt><trkpt lat="43.9079276" lon="12.5549316"><ele>156.33333333333334</ele><time>2026-04-26T10:28:24.394Z</time></trkpt><trkpt lat="43.9079738" lon="12.5551309"><ele>156.0</ele><time>2026-04-26T10:28:25.395Z</time></trkpt><trkpt lat="43.9080251" lon="12.5553154"><ele>155.5</ele><time>2026-04-26T10:28:26.398Z</time></trkpt><trkpt lat="43.9081148" lon="12.5557187"><ele>155.0</ele><time>2026-04-26T10:28:28.401Z</time></trkpt><trkpt lat="43.9081532" lon="12.5559171"><ele>155.0</ele><time>2026-04-26T10:28:29.397Z</time></trkpt><trkpt lat="43.908193" lon="12.5561107"><ele>155.0</ele><time>2026-04-26T10:28:30.398Z</time></trkpt><trkpt lat="43.9082357" lon="12.5562955"><ele>155.0</ele><time>2026-04-26T10:28:31.398Z</time></trkpt><trkpt lat="43.9082745" lon="12.5564826"><ele>155.0</ele><time>2026-04-26T10:28:32.402Z</time></trkpt><trkpt lat="43.908316" lon="12.5566698"><ele>155.0</ele><time>2026-04-26T10:28:33.394Z</time></trkpt><trkpt lat="43.9083541" lon="12.5568551"><ele>155.0</ele><time>2026-04-26T10:28:34.395Z</time></trkpt><trkpt lat="43.9083887" lon="12.5570488"><ele>155.0</ele><time>2026-04-26T10:28:35.394Z</time></trkpt><trkpt lat="43.9084313" lon="12.5572437"><ele>155.0</ele><time>2026-04-26T10:28:36.396Z</time></trkpt><trkpt lat="43.9084708" lon="12.5574336"><ele>155.0</ele><time>2026-04-26T10:28:37.401Z</time></trkpt><trkpt lat="43.9085046" lon="12.5576241"><ele>155.0</ele><time>2026-04-26T10:28:38.397Z</time></trkpt><trkpt lat="43.9085442" lon="12.5578148"><ele>155.0</ele><time>2026-04-26T10:28:39.398Z</time></trkpt><trkpt lat="43.9085838" lon="12.5580034"><ele>155.0</ele><time>2026-04-26T10:28:40.396Z</time></trkpt><trkpt lat="43.9086284" lon="12.5581878"><ele>154.75</ele><time>2026-04-26T10:28:41.395Z</time></trkpt><trkpt lat="43.9086685" lon="12.5583661"><ele>154.5</ele><time>2026-04-26T10:28:42.392Z</time></trkpt><trkpt lat="43.9087039" lon="12.5585508"><ele>154.25</ele><time>2026-04-26T10:28:43.396Z</time></trkpt><trkpt lat="43.9087393" lon="12.5587343"><ele>154.0</ele><time>2026-04-26T10:28:44.392Z</time></trkpt><trkpt lat="43.9087809" lon="12.5589222"><ele>154.0</ele><time>2026-04-26T10:28:45.401Z</time></trkpt><trkpt lat="43.9088252" lon="12.5591085"><ele>154.0</ele><time>2026-04-26T10:28:46.394Z</time></trkpt><trkpt lat="43.9088738" lon="12.559266"><ele>154.0</ele><time>2026-04-26T10:28:47.4Z</time></trkpt><trkpt lat="43.9089869" lon="12.5595984"><ele>154.0</ele><time>2026-04-26T10:28:49.396Z</time></trkpt><trkpt lat="43.9090593" lon="12.5597552"><ele>154.0</ele><time>2026-04-26T10:28:50.396Z</time></trkpt><trkpt lat="43.9091333" lon="12.5598905"><ele>154.0</ele><time>2026-04-26T10:28:51.402Z</time></trkpt><trkpt lat="43.9092293" lon="12.5600267"><ele>154.0</ele><time>2026-04-26T10:28:52.395Z</time></trkpt><trkpt lat="43.909328" lon="12.5601732"><ele>153.66666666666669</ele><time>2026-04-26T10:28:53.401Z</time></trkpt><trkpt lat="43.9094251" lon="12.5603294"><ele>153.33333333333334</ele><time>2026-04-26T10:28:54.399Z</time></trkpt><trkpt lat="43.9095411" lon="12.5604994"><ele>153.0</ele><time>2026-04-26T10:28:55.396Z</time></trkpt><trkpt lat="43.9096701" lon="12.5606584"><ele>152.66666666666666</ele><time>2026-04-26T10:28:56.4Z</time></trkpt><trkpt lat="43.9097794" lon="12.5608201"><ele>152.33333333333331</ele><time>2026-04-26T10:28:57.4Z</time></trkpt><trkpt lat="43.9098858" lon="12.5609713"><ele>152.0</ele><time>2026-04-26T10:28:58.395Z</time></trkpt><trkpt lat="43.9100018" lon="12.5611192"><ele>150.66666666666666</ele><time>2026-04-26T10:28:59.398Z</time></trkpt><trkpt lat="43.9101234" lon="12.5612691"><ele>149.33333333333334</ele><time>2026-04-26T10:29:00.394Z</time></trkpt><trkpt lat="43.910239" lon="12.5614242"><ele>148.0</ele><time>2026-04-26T10:29:01.396Z</time></trkpt><trkpt lat="43.9103469" lon="12.5615748"><ele>148.0</ele><time>2026-04-26T10:29:02.394Z</time></trkpt><trkpt lat="43.9104514" lon="12.5617228"><ele>148.0</ele><time>2026-04-26T10:29:03.396Z</time></trkpt><trkpt lat="43.9105478" lon="12.5618593"><ele>148.0</ele><time>2026-04-26T10:29:04.396Z</time></trkpt><trkpt lat="43.9106548" lon="12.561977"><ele>148.0</ele><time>2026-04-26T10:29:05.403Z</time></trkpt><trkpt lat="43.9107464" lon="12.5620827"><ele>148.0</ele><time>2026-04-26T10:29:06.399Z</time></trkpt><trkpt lat="43.9108366" lon="12.5621868"><ele>148.0</ele><time>2026-04-26T10:29:07.401Z</time></trkpt><trkpt lat="43.9109053" lon="12.5622798"><ele>148.0</ele><time>2026-04-26T10:29:08.404Z</time></trkpt><trkpt lat="43.9109363" lon="12.562236"><ele>148.0</ele><time>2026-04-26T10:29:12.395Z</time></trkpt><trkpt lat="43.9109026" lon="12.5621536"><ele>148.0</ele><time>2026-04-26T10:29:14.397Z</time></trkpt><trkpt lat="43.9108199" lon="12.5620981"><ele>148.0</ele><time>2026-04-26T10:29:15.402Z</time></trkpt><trkpt lat="43.9107479" lon="12.5619951"><ele>148.0</ele><time>2026-04-26T10:29:16.398Z</time></trkpt><trkpt lat="43.910694" lon="12.5618999"><ele>148.0</ele><time>2026-04-26T10:29:17.398Z</time></trkpt><trkpt lat="43.9106559" lon="12.5618228"><ele>148.0</ele><time>2026-04-26T10:29:18.395Z</time></trkpt><trkpt lat="43.9106537" lon="12.5616983"><ele>148.0</ele><time>2026-04-26T10:29:20.398Z</time></trkpt><trkpt lat="43.910706" lon="12.56163"><ele>148.0</ele><time>2026-04-26T10:29:22.398Z</time></trkpt><trkpt lat="43.9107625" lon="12.5615737"><ele>148.0</ele><time>2026-04-26T10:29:24.396Z</time></trkpt><trkpt lat="43.9107968" lon="12.5614815"><ele>148.0</ele><time>2026-04-26T10:29:31.398Z</time></trkpt><trkpt lat="43.9108735" lon="12.5612439"><ele>148.0</ele><time>2026-04-26T10:29:36.404Z</time></trkpt><trkpt lat="43.9109356" lon="12.5611803"><ele>148.0</ele><time>2026-04-26T10:29:38.4Z</time></trkpt><trkpt lat="43.9109915" lon="12.5611162"><ele>148.0</ele><time>2026-04-26T10:29:40.395Z</time></trkpt><trkpt lat="43.9109747" lon="12.5610149"><ele>148.0</ele><time>2026-04-26T10:29:43.413Z</time></trkpt><trkpt lat="43.9110104" lon="12.5611249"><ele>148.0</ele><time>2026-04-26T10:31:57.392Z</time></trkpt><trkpt lat="43.9109383" lon="12.5613127"><ele>148.0</ele><time>2026-04-26T10:32:02.396Z</time></trkpt><trkpt lat="43.910918" lon="12.5613968"><ele>148.0</ele><time>2026-04-26T10:33:54.401Z</time></trkpt><trkpt lat="43.9108439" lon="12.5615381"><ele>148.0</ele><time>2026-04-26T10:34:10.397Z</time></trkpt><trkpt lat="43.9108275" lon="12.5614362"><ele>148.0</ele><time>2026-04-26T10:34:14.401Z</time></trkpt><trkpt lat="43.9108268" lon="12.5613474"><ele>148.0</ele><time>2026-04-26T10:34:38.394Z</time></trkpt><trkpt lat="43.9109142" lon="12.5612085"><ele>148.0</ele><time>2026-04-26T10:34:43.406Z</time></trkpt><trkpt lat="43.9109558" lon="12.5611312"><ele>148.0</ele><time>2026-04-26T10:35:34.395Z</time></trkpt><trkpt lat="43.911054" lon="12.5610541"><ele>148.0</ele><time>2026-04-26T10:38:18.395Z</time></trkpt><trkpt lat="43.9111518" lon="12.561186"><ele>148.4</ele><time>2026-04-26T10:45:24.402Z</time></trkpt><trkpt lat="43.9111347" lon="12.5610591"><ele>148.8</ele><time>2026-04-26T10:45:35.396Z</time></trkpt><trkpt lat="43.9111912" lon="12.5609242"><ele>149.2</ele><time>2026-04-26T10:45:37.403Z</time></trkpt><trkpt lat="43.9112671" lon="12.5607839"><ele>149.6</ele><time>2026-04-26T10:45:39.395Z</time></trkpt><trkpt lat="43.9113067" lon="12.5607075"><ele>150.0</ele><time>2026-04-26T10:45:40.393Z</time></trkpt><trkpt lat="43.911356" lon="12.5606314"><ele>150.0</ele><time>2026-04-26T10:45:41.395Z</time></trkpt><trkpt lat="43.9114011" lon="12.5605507"><ele>150.0</ele><time>2026-04-26T10:45:42.395Z</time></trkpt><trkpt lat="43.9114487" lon="12.5604625"><ele>150.0</ele><time>2026-04-26T10:45:43.393Z</time></trkpt><trkpt lat="43.9114996" lon="12.5603742"><ele>150.0</ele><time>2026-04-26T10:45:44.402Z</time></trkpt><trkpt lat="43.9115536" lon="12.5602798"><ele>150.0</ele><time>2026-04-26T10:45:45.399Z</time></trkpt><trkpt lat="43.9116103" lon="12.5601815"><ele>150.0</ele><time>2026-04-26T10:45:46.398Z</time></trkpt><trkpt lat="43.9116734" lon="12.5600728"><ele>150.8</ele><time>2026-04-26T10:45:47.398Z</time></trkpt><trkpt lat="43.911733" lon="12.5599569"><ele>151.6</ele><time>2026-04-26T10:45:48.392Z</time></trkpt><trkpt lat="43.9117928" lon="12.5598431"><ele>152.4</ele><time>2026-04-26T10:45:49.393Z</time></trkpt><trkpt lat="43.9118538" lon="12.5597263"><ele>153.2</ele><time>2026-04-26T10:45:50.395Z</time></trkpt><trkpt lat="43.9119148" lon="12.5596234"><ele>154.0</ele><time>2026-04-26T10:45:51.395Z</time></trkpt><trkpt lat="43.9119742" lon="12.5595205"><ele>155.66666666666669</ele><time>2026-04-26T10:45:52.395Z</time></trkpt><trkpt lat="43.9120355" lon="12.5594447"><ele>157.33333333333334</ele><time>2026-04-26T10:45:53.4Z</time></trkpt><trkpt lat="43.9121063" lon="12.5593933"><ele>159.0</ele><time>2026-04-26T10:45:54.397Z</time></trkpt><trkpt lat="43.9121849" lon="12.5593602"><ele>160.66666666666666</ele><time>2026-04-26T10:45:55.396Z</time></trkpt><trkpt lat="43.9122625" lon="12.5593346"><ele>162.33333333333331</ele><time>2026-04-26T10:45:56.398Z</time></trkpt><trkpt lat="43.9123399" lon="12.5593053"><ele>164.0</ele><time>2026-04-26T10:45:57.397Z</time></trkpt><trkpt lat="43.912497" lon="12.5592612"><ele>164.0</ele><time>2026-04-26T10:45:59.393Z</time></trkpt><trkpt lat="43.9125725" lon="12.5592327"><ele>164.0</ele><time>2026-04-26T10:46:00.392Z</time></trkpt><trkpt lat="43.9126463" lon="12.5591966"><ele>164.0</ele><time>2026-04-26T10:46:01.397Z</time></trkpt><trkpt lat="43.912712" lon="12.5591726"><ele>164.0</ele><time>2026-04-26T10:46:02.395Z</time></trkpt><trkpt lat="43.9128001" lon="12.5591408"><ele>164.0</ele><time>2026-04-26T10:46:04.397Z</time></trkpt><trkpt lat="43.9128677" lon="12.55918"><ele>164.0</ele><time>2026-04-26T10:46:06.397Z</time></trkpt><trkpt lat="43.9129175" lon="12.5592617"><ele>164.0</ele><time>2026-04-26T10:46:07.404Z</time></trkpt><trkpt lat="43.9129866" lon="12.5594028"><ele>164.0</ele><time>2026-04-26T10:46:08.394Z</time></trkpt><trkpt lat="43.913074" lon="12.5595817"><ele>164.0</ele><time>2026-04-26T10:46:09.403Z</time></trkpt><trkpt lat="43.9131736" lon="12.5597847"><ele>164.0</ele><time>2026-04-26T10:46:10.401Z</time></trkpt><trkpt lat="43.9132818" lon="12.560005"><ele>164.0</ele><time>2026-04-26T10:46:11.406Z</time></trkpt><trkpt lat="43.9133931" lon="12.5602242"><ele>164.0</ele><time>2026-04-26T10:46:12.402Z</time></trkpt><trkpt lat="43.9135039" lon="12.5604383"><ele>163.0</ele><time>2026-04-26T10:46:13.4Z</time></trkpt><trkpt lat="43.9136108" lon="12.560642"><ele>162.0</ele><time>2026-04-26T10:46:14.402Z</time></trkpt><trkpt lat="43.9137098" lon="12.5608301"><ele>161.0</ele><time>2026-04-26T10:46:15.401Z</time></trkpt><trkpt lat="43.9138029" lon="12.5610086"><ele>161.0</ele><time>2026-04-26T10:46:16.398Z</time></trkpt><trkpt lat="43.913892" lon="12.5611793"><ele>161.0</ele><time>2026-04-26T10:46:17.395Z</time></trkpt><trkpt lat="43.9139793" lon="12.5613454"><ele>161.0</ele><time>2026-04-26T10:46:18.395Z</time></trkpt><trkpt lat="43.9140695" lon="12.5615137"><ele>160.66666666666666</ele><time>2026-04-26T10:46:19.395Z</time></trkpt><trkpt lat="43.9141613" lon="12.561687"><ele>160.33333333333334</ele><time>2026-04-26T10:46:20.396Z</time></trkpt><trkpt lat="43.9142528" lon="12.5618619"><ele>160.0</ele><time>2026-04-26T10:46:21.393Z</time></trkpt><trkpt lat="43.9143471" lon="12.562038"><ele>159.66666666666669</ele><time>2026-04-26T10:46:22.392Z</time></trkpt><trkpt lat="43.9144425" lon="12.5622128"><ele>159.33333333333334</ele><time>2026-04-26T10:46:23.398Z</time></trkpt><trkpt lat="43.9145316" lon="12.5623832"><ele>159.0</ele><time>2026-04-26T10:46:24.4Z</time></trkpt><trkpt lat="43.9146218" lon="12.5625404"><ele>159.0</ele><time>2026-04-26T10:46:25.398Z</time></trkpt><trkpt lat="43.9147273" lon="12.5626742"><ele>159.0</ele><time>2026-04-26T10:46:26.395Z</time></trkpt><trkpt lat="43.9148603" lon="12.5627745"><ele>159.0</ele><time>2026-04-26T10:46:27.4Z</time></trkpt><trkpt lat="43.9150142" lon="12.5628528"><ele>159.33333333333334</ele><time>2026-04-26T10:46:28.399Z</time></trkpt><trkpt lat="43.915172" lon="12.5629145"><ele>159.66666666666669</ele><time>2026-04-26T10:46:29.399Z</time></trkpt><trkpt lat="43.9153236" lon="12.5629825"><ele>160.0</ele><time>2026-04-26T10:46:30.396Z</time></trkpt><trkpt lat="43.9154588" lon="12.5630837"><ele>160.0</ele><time>2026-04-26T10:46:31.397Z</time></trkpt><trkpt lat="43.9155662" lon="12.5632219"><ele>160.0</ele><time>2026-04-26T10:46:32.399Z</time></trkpt><trkpt lat="43.9156396" lon="12.5633958"><ele>160.0</ele><time>2026-04-26T10:46:33.395Z</time></trkpt><trkpt lat="43.9156752" lon="12.563596"><ele>160.0</ele><time>2026-04-26T10:46:34.405Z</time></trkpt><trkpt lat="43.9156717" lon="12.5638189"><ele>157.66666666666669</ele><time>2026-04-26T10:46:35.4Z</time></trkpt><trkpt lat="43.9156444" lon="12.5640688"><ele>155.33333333333334</ele><time>2026-04-26T10:46:36.4Z</time></trkpt><trkpt lat="43.9156167" lon="12.5643203"><ele>153.0</ele><time>2026-04-26T10:46:37.399Z</time></trkpt><trkpt lat="43.9155921" lon="12.5645548"><ele>151.33333333333334</ele><time>2026-04-26T10:46:38.392Z</time></trkpt><trkpt lat="43.9155857" lon="12.5649699"><ele>149.66666666666669</ele><time>2026-04-26T10:46:40.399Z</time></trkpt><trkpt lat="43.9156339" lon="12.5651486"><ele>148.0</ele><time>2026-04-26T10:46:41.397Z</time></trkpt><trkpt lat="43.9157195" lon="12.5653169"><ele>146.33333333333334</ele><time>2026-04-26T10:46:42.394Z</time></trkpt><trkpt lat="43.9158351" lon="12.5654764"><ele>144.66666666666666</ele><time>2026-04-26T10:46:43.399Z</time></trkpt><trkpt lat="43.915968" lon="12.5656317"><ele>143.0</ele><time>2026-04-26T10:46:44.399Z</time></trkpt><trkpt lat="43.9161113" lon="12.565784"><ele>142.66666666666666</ele><time>2026-04-26T10:46:45.395Z</time></trkpt><trkpt lat="43.9162584" lon="12.5659315"><ele>142.33333333333334</ele><time>2026-04-26T10:46:46.399Z</time></trkpt><trkpt lat="43.916407" lon="12.5660789"><ele>142.0</ele><time>2026-04-26T10:46:47.397Z</time></trkpt><trkpt lat="43.9165551" lon="12.5662305"><ele>142.0</ele><time>2026-04-26T10:46:48.398Z</time></trkpt><trkpt lat="43.9167042" lon="12.5663754"><ele>142.0</ele><time>2026-04-26T10:46:49.397Z</time></trkpt><trkpt lat="43.9168554" lon="12.5665101"><ele>142.0</ele><time>2026-04-26T10:46:50.394Z</time></trkpt><trkpt lat="43.9170051" lon="12.5666295"><ele>142.0</ele><time>2026-04-26T10:46:51.398Z</time></trkpt><trkpt lat="43.917151" lon="12.5667637"><ele>142.0</ele><time>2026-04-26T10:46:52.393Z</time></trkpt><trkpt lat="43.9172934" lon="12.5669013"><ele>142.0</ele><time>2026-04-26T10:46:53.397Z</time></trkpt><trkpt lat="43.9174212" lon="12.5670458"><ele>142.0</ele><time>2026-04-26T10:46:54.392Z</time></trkpt><trkpt lat="43.9175303" lon="12.567198"><ele>142.0</ele><time>2026-04-26T10:46:55.397Z</time></trkpt><trkpt lat="43.9176172" lon="12.5673701"><ele>142.0</ele><time>2026-04-26T10:46:56.395Z</time></trkpt><trkpt lat="43.9176728" lon="12.5675585"><ele>142.25</ele><time>2026-04-26T10:46:57.393Z</time></trkpt><trkpt lat="43.9176958" lon="12.5677666"><ele>142.5</ele><time>2026-04-26T10:46:58.396Z</time></trkpt><trkpt lat="43.9176971" lon="12.5679734"><ele>142.75</ele><time>2026-04-26T10:46:59.396Z</time></trkpt><trkpt lat="43.9177003" lon="12.5681592"><ele>143.0</ele><time>2026-04-26T10:47:00.398Z</time></trkpt><trkpt lat="43.9177023" lon="12.5683201"><ele>143.0</ele><time>2026-04-26T10:47:01.401Z</time></trkpt><trkpt lat="43.9177001" lon="12.5684604"><ele>143.0</ele><time>2026-04-26T10:47:02.394Z</time></trkpt><trkpt lat="43.9176993" lon="12.5685708"><ele>143.0</ele><time>2026-04-26T10:47:03.398Z</time></trkpt><trkpt lat="43.9176974" lon="12.5686583"><ele>143.0</ele><time>2026-04-26T10:47:04.396Z</time></trkpt><trkpt lat="43.9176979" lon="12.5687709"><ele>143.0</ele><time>2026-04-26T10:47:06.401Z</time></trkpt><trkpt lat="43.9177451" lon="12.5688309"><ele>143.0</ele><time>2026-04-26T10:47:08.4Z</time></trkpt><trkpt lat="43.9178133" lon="12.5688314"><ele>143.0</ele><time>2026-04-26T10:47:09.406Z</time></trkpt><trkpt lat="43.9179182" lon="12.5688179"><ele>143.0</ele><time>2026-04-26T10:47:10.395Z</time></trkpt><trkpt lat="43.9180468" lon="12.5687969"><ele>143.0</ele><time>2026-04-26T10:47:11.396Z</time></trkpt><trkpt lat="43.9181907" lon="12.5687758"><ele>143.0</ele><time>2026-04-26T10:47:12.396Z</time></trkpt><trkpt lat="43.9183392" lon="12.5687643"><ele>145.0</ele><time>2026-04-26T10:47:13.395Z</time></trkpt><trkpt lat="43.9184887" lon="12.5687614"><ele>147.0</ele><time>2026-04-26T10:47:14.396Z</time></trkpt><trkpt lat="43.9186423" lon="12.5687463"><ele>149.0</ele><time>2026-04-26T10:47:15.4Z</time></trkpt><trkpt lat="43.9188" lon="12.5687039"><ele>148.66666666666666</ele><time>2026-04-26T10:47:16.403Z</time></trkpt><trkpt lat="43.9189518" lon="12.5686424"><ele>148.33333333333334</ele><time>2026-04-26T10:47:17.399Z</time></trkpt><trkpt lat="43.9191029" lon="12.5685905"><ele>148.0</ele><time>2026-04-26T10:47:18.394Z</time></trkpt><trkpt lat="43.9192554" lon="12.5685446"><ele>150.25</ele><time>2026-04-26T10:47:19.394Z</time></trkpt><trkpt lat="43.9193997" lon="12.5684918"><ele>152.5</ele><time>2026-04-26T10:47:20.395Z</time></trkpt><trkpt lat="43.9195451" lon="12.5684379"><ele>154.75</ele><time>2026-04-26T10:47:21.399Z</time></trkpt><trkpt lat="43.9196772" lon="12.5683891"><ele>157.0</ele><time>2026-04-26T10:47:22.396Z</time></trkpt><trkpt lat="43.9197965" lon="12.5683352"><ele>157.0</ele><time>2026-04-26T10:47:23.394Z</time></trkpt><trkpt lat="43.9199012" lon="12.5682523"><ele>157.0</ele><time>2026-04-26T10:47:24.394Z</time></trkpt><trkpt lat="43.9200021" lon="12.5681517"><ele>157.0</ele><time>2026-04-26T10:47:25.401Z</time></trkpt><trkpt lat="43.9201066" lon="12.56806"><ele>157.0</ele><time>2026-04-26T10:47:26.401Z</time></trkpt><trkpt lat="43.9202131" lon="12.5679733"><ele>158.75</ele><time>2026-04-26T10:47:27.395Z</time></trkpt><trkpt lat="43.9203253" lon="12.5678956"><ele>160.5</ele><time>2026-04-26T10:47:28.393Z</time></trkpt><trkpt lat="43.9204406" lon="12.5678258"><ele>162.25</ele><time>2026-04-26T10:47:29.403Z</time></trkpt><trkpt lat="43.9205607" lon="12.5677665"><ele>164.0</ele><time>2026-04-26T10:47:30.397Z</time></trkpt><trkpt lat="43.9206747" lon="12.567705"><ele>164.75</ele><time>2026-04-26T10:47:31.395Z</time></trkpt><trkpt lat="43.9207884" lon="12.567643"><ele>165.5</ele><time>2026-04-26T10:47:32.397Z</time></trkpt><trkpt lat="43.9208975" lon="12.5675829"><ele>166.25</ele><time>2026-04-26T10:47:33.396Z</time></trkpt><trkpt lat="43.9210073" lon="12.5675209"><ele>167.0</ele><time>2026-04-26T10:47:34.394Z</time></trkpt><trkpt lat="43.9211235" lon="12.5674542"><ele>169.0</ele><time>2026-04-26T10:47:35.399Z</time></trkpt><trkpt lat="43.9212328" lon="12.5674004"><ele>171.0</ele><time>2026-04-26T10:47:36.393Z</time></trkpt><trkpt lat="43.9213348" lon="12.567342"><ele>173.0</ele><time>2026-04-26T10:47:37.396Z</time></trkpt><trkpt lat="43.921432" lon="12.5672907"><ele>175.0</ele><time>2026-04-26T10:47:38.395Z</time></trkpt><trkpt lat="43.9215095" lon="12.5672407"><ele>177.0</ele><time>2026-04-26T10:47:39.395Z</time></trkpt><trkpt lat="43.9215761" lon="12.567199"><ele>177.0</ele><time>2026-04-26T10:47:40.399Z</time></trkpt><trkpt lat="43.9216648" lon="12.5671758"><ele>177.0</ele><time>2026-04-26T10:47:42.402Z</time></trkpt><trkpt lat="43.9217673" lon="12.5672511"><ele>177.0</ele><time>2026-04-26T10:47:44.406Z</time></trkpt><trkpt lat="43.9218294" lon="12.5673128"><ele>177.0</ele><time>2026-04-26T10:47:45.399Z</time></trkpt><trkpt lat="43.9219033" lon="12.5673795"><ele>177.0</ele><time>2026-04-26T10:47:46.396Z</time></trkpt><trkpt lat="43.921977" lon="12.5674656"><ele>177.0</ele><time>2026-04-26T10:47:47.402Z</time></trkpt><trkpt lat="43.9220531" lon="12.5675699"><ele>177.0</ele><time>2026-04-26T10:47:48.395Z</time></trkpt><trkpt lat="43.9221257" lon="12.5676878"><ele>177.0</ele><time>2026-04-26T10:47:49.397Z</time></trkpt><trkpt lat="43.9221957" lon="12.5678049"><ele>177.0</ele><time>2026-04-26T10:47:50.394Z</time></trkpt><trkpt lat="43.9222765" lon="12.5679048"><ele>177.0</ele><time>2026-04-26T10:47:51.396Z</time></trkpt><trkpt lat="43.922384" lon="12.567973"><ele>177.0</ele><time>2026-04-26T10:47:52.398Z</time></trkpt><trkpt lat="43.9225137" lon="12.5680075"><ele>177.0</ele><time>2026-04-26T10:47:53.401Z</time></trkpt><trkpt lat="43.9226663" lon="12.5680188"><ele>177.0</ele><time>2026-04-26T10:47:54.393Z</time></trkpt><trkpt lat="43.9228234" lon="12.568028"><ele>177.0</ele><time>2026-04-26T10:47:55.401Z</time></trkpt><trkpt lat="43.9229821" lon="12.5680401"><ele>179.0</ele><time>2026-04-26T10:47:56.395Z</time></trkpt><trkpt lat="43.9231354" lon="12.5680485"><ele>181.0</ele><time>2026-04-26T10:47:57.399Z</time></trkpt><trkpt lat="43.9232917" lon="12.5680671"><ele>183.0</ele><time>2026-04-26T10:47:58.395Z</time></trkpt><trkpt lat="43.9234313" lon="12.5680987"><ele>185.5</ele><time>2026-04-26T10:47:59.395Z</time></trkpt><trkpt lat="43.9235385" lon="12.5681561"><ele>188.0</ele><time>2026-04-26T10:48:00.4Z</time></trkpt><trkpt lat="43.9236184" lon="12.5682633"><ele>190.5</ele><time>2026-04-26T10:48:01.399Z</time></trkpt><trkpt lat="43.9236977" lon="12.5684058"><ele>193.0</ele><time>2026-04-26T10:48:02.395Z</time></trkpt><trkpt lat="43.9237856" lon="12.5685711"><ele>193.25</ele><time>2026-04-26T10:48:03.401Z</time></trkpt><trkpt lat="43.9238853" lon="12.5687135"><ele>193.5</ele><time>2026-04-26T10:48:04.406Z</time></trkpt><trkpt lat="43.924008" lon="12.5688239"><ele>193.75</ele><time>2026-04-26T10:48:05.398Z</time></trkpt><trkpt lat="43.9241598" lon="12.5688882"><ele>194.0</ele><time>2026-04-26T10:48:06.394Z</time></trkpt><trkpt lat="43.9243244" lon="12.568934"><ele>197.0</ele><time>2026-04-26T10:48:07.394Z</time></trkpt><trkpt lat="43.9245017" lon="12.5690089"><ele>200.0</ele><time>2026-04-26T10:48:08.394Z</time></trkpt><trkpt lat="43.9246693" lon="12.5691194"><ele>203.0</ele><time>2026-04-26T10:48:09.397Z</time></trkpt><trkpt lat="43.9248263" lon="12.5692477"><ele>203.0</ele><time>2026-04-26T10:48:10.398Z</time></trkpt><trkpt lat="43.9249712" lon="12.569379"><ele>203.0</ele><time>2026-04-26T10:48:11.399Z</time></trkpt><trkpt lat="43.9251321" lon="12.5694948"><ele>203.0</ele><time>2026-04-26T10:48:12.396Z</time></trkpt><trkpt lat="43.9252948" lon="12.5695742"><ele>206.33333333333334</ele><time>2026-04-26T10:48:13.396Z</time></trkpt><trkpt lat="43.9254557" lon="12.5696361"><ele>209.66666666666669</ele><time>2026-04-26T10:48:14.397Z</time></trkpt><trkpt lat="43.9256118" lon="12.5696869"><ele>213.0</ele><time>2026-04-26T10:48:15.394Z</time></trkpt><trkpt lat="43.925767" lon="12.5697269"><ele>214.25</ele><time>2026-04-26T10:48:16.396Z</time></trkpt><trkpt lat="43.9259132" lon="12.5697485"><ele>215.5</ele><time>2026-04-26T10:48:17.397Z</time></trkpt><trkpt lat="43.9260448" lon="12.5697582"><ele>216.75</ele><time>2026-04-26T10:48:18.395Z</time></trkpt><trkpt lat="43.9261628" lon="12.5697596"><ele>218.0</ele><time>2026-04-26T10:48:19.397Z</time></trkpt><trkpt lat="43.9262565" lon="12.5697741"><ele>218.00000000000003</ele><time>2026-04-26T10:48:20.395Z</time></trkpt><trkpt lat="43.9263263" lon="12.5698167"><ele>218.0</ele><time>2026-04-26T10:48:21.398Z</time></trkpt><trkpt lat="43.9263755" lon="12.5698952"><ele>218.0</ele><time>2026-04-26T10:48:22.392Z</time></trkpt><trkpt lat="43.926387" lon="12.5699818"><ele>218.0</ele><time>2026-04-26T10:48:23.392Z</time></trkpt><trkpt lat="43.9263928" lon="12.5700769"><ele>218.00000000000003</ele><time>2026-04-26T10:48:24.394Z</time></trkpt><trkpt lat="43.9263964" lon="12.5701897"><ele>218.0</ele><time>2026-04-26T10:48:25.398Z</time></trkpt><trkpt lat="43.926384" lon="12.5703451"><ele>216.75</ele><time>2026-04-26T10:48:26.396Z</time></trkpt><trkpt lat="43.9263585" lon="12.5705298"><ele>215.5</ele><time>2026-04-26T10:48:27.398Z</time></trkpt><trkpt lat="43.9263334" lon="12.5707179"><ele>214.25</ele><time>2026-04-26T10:48:28.397Z</time></trkpt><trkpt lat="43.9263162" lon="12.5709156"><ele>213.0</ele><time>2026-04-26T10:48:29.397Z</time></trkpt><trkpt lat="43.9263035" lon="12.5711197"><ele>212.33333333333331</ele><time>2026-04-26T10:48:30.402Z</time></trkpt><trkpt lat="43.9262924" lon="12.5713334"><ele>211.66666666666666</ele><time>2026-04-26T10:48:31.394Z</time></trkpt><trkpt lat="43.9262784" lon="12.5715596"><ele>211.0</ele><time>2026-04-26T10:48:32.397Z</time></trkpt><trkpt lat="43.9262665" lon="12.5717963"><ele>211.0</ele><time>2026-04-26T10:48:33.394Z</time></trkpt><trkpt lat="43.9262553" lon="12.572041"><ele>211.0</ele><time>2026-04-26T10:48:34.393Z</time></trkpt><trkpt lat="43.9262399" lon="12.5722833"><ele>211.0</ele><time>2026-04-26T10:48:35.394Z</time></trkpt><trkpt lat="43.9262248" lon="12.5725268"><ele>211.0</ele><time>2026-04-26T10:48:36.397Z</time></trkpt><trkpt lat="43.9262082" lon="12.572757"><ele>211.0</ele><time>2026-04-26T10:48:37.394Z</time></trkpt><trkpt lat="43.9261923" lon="12.5729701"><ele>211.0</ele><time>2026-04-26T10:48:38.401Z</time></trkpt><trkpt lat="43.926179" lon="12.5731768"><ele>211.75</ele><time>2026-04-26T10:48:39.399Z</time></trkpt><trkpt lat="43.9261687" lon="12.57338"><ele>212.5</ele><time>2026-04-26T10:48:40.402Z</time></trkpt><trkpt lat="43.9261545" lon="12.5735866"><ele>213.25</ele><time>2026-04-26T10:48:41.401Z</time></trkpt><trkpt lat="43.9261405" lon="12.5737926"><ele>214.0</ele><time>2026-04-26T10:48:42.399Z</time></trkpt><trkpt lat="43.9261225" lon="12.5740124"><ele>214.66666666666666</ele><time>2026-04-26T10:48:43.402Z</time></trkpt><trkpt lat="43.9261094" lon="12.5742456"><ele>215.33333333333331</ele><time>2026-04-26T10:48:44.406Z</time></trkpt><trkpt lat="43.9261007" lon="12.5744688"><ele>216.0</ele><time>2026-04-26T10:48:45.404Z</time></trkpt><trkpt lat="43.9260965" lon="12.5746767"><ele>216.5</ele><time>2026-04-26T10:48:46.398Z</time></trkpt><trkpt lat="43.9261069" lon="12.5748776"><ele>217.0</ele><time>2026-04-26T10:48:47.405Z</time></trkpt><trkpt lat="43.9261273" lon="12.5750673"><ele>217.5</ele><time>2026-04-26T10:48:48.399Z</time></trkpt><trkpt lat="43.9261529" lon="12.5752442"><ele>218.0</ele><time>2026-04-26T10:48:49.398Z</time></trkpt><trkpt lat="43.926177" lon="12.5754141"><ele>218.25</ele><time>2026-04-26T10:48:50.397Z</time></trkpt><trkpt lat="43.9262005" lon="12.5755922"><ele>218.5</ele><time>2026-04-26T10:48:51.396Z</time></trkpt><trkpt lat="43.9262339" lon="12.5758016"><ele>218.75</ele><time>2026-04-26T10:48:52.4Z</time></trkpt><trkpt lat="43.9262648" lon="12.5760082"><ele>219.0</ele><time>2026-04-26T10:48:53.397Z</time></trkpt><trkpt lat="43.9262886" lon="12.576219"><ele>221.0</ele><time>2026-04-26T10:48:54.396Z</time></trkpt><trkpt lat="43.9263064" lon="12.5764274"><ele>223.0</ele><time>2026-04-26T10:48:55.398Z</time></trkpt><trkpt lat="43.9263195" lon="12.57664"><ele>225.0</ele><time>2026-04-26T10:48:56.396Z</time></trkpt><trkpt lat="43.9263272" lon="12.5768589"><ele>227.0</ele><time>2026-04-26T10:48:57.395Z</time></trkpt><trkpt lat="43.9263324" lon="12.5770837"><ele>229.0</ele><time>2026-04-26T10:48:58.398Z</time></trkpt><trkpt lat="43.9263295" lon="12.5773083"><ele>231.0</ele><time>2026-04-26T10:48:59.393Z</time></trkpt><trkpt lat="43.9263206" lon="12.5775326"><ele>231.0</ele><time>2026-04-26T10:49:00.398Z</time></trkpt><trkpt lat="43.9262996" lon="12.5777536"><ele>231.0</ele><time>2026-04-26T10:49:01.399Z</time></trkpt><trkpt lat="43.9262728" lon="12.5779703"><ele>231.0</ele><time>2026-04-26T10:49:02.399Z</time></trkpt><trkpt lat="43.9262477" lon="12.578187"><ele>231.0</ele><time>2026-04-26T10:49:03.403Z</time></trkpt><trkpt lat="43.9262338" lon="12.5784083"><ele>231.0</ele><time>2026-04-26T10:49:04.399Z</time></trkpt><trkpt lat="43.9262319" lon="12.5786366"><ele>231.0</ele><time>2026-04-26T10:49:05.395Z</time></trkpt><trkpt lat="43.9262353" lon="12.5788663"><ele>231.0</ele><time>2026-04-26T10:49:06.393Z</time></trkpt><trkpt lat="43.9262423" lon="12.5790866"><ele>231.0</ele><time>2026-04-26T10:49:07.397Z</time></trkpt><trkpt lat="43.9262524" lon="12.5792997"><ele>231.0</ele><time>2026-04-26T10:49:08.397Z</time></trkpt><trkpt lat="43.9262622" lon="12.579503"><ele>229.5</ele><time>2026-04-26T10:49:09.395Z</time></trkpt><trkpt lat="43.9262661" lon="12.5796912"><ele>228.0</ele><time>2026-04-26T10:49:10.395Z</time></trkpt><trkpt lat="43.926266" lon="12.5798672"><ele>226.5</ele><time>2026-04-26T10:49:11.396Z</time></trkpt><trkpt lat="43.9262618" lon="12.5800326"><ele>225.0</ele><time>2026-04-26T10:49:12.4Z</time></trkpt><trkpt lat="43.9262485" lon="12.5801846"><ele>225.0</ele><time>2026-04-26T10:49:13.399Z</time></trkpt><trkpt lat="43.9262345" lon="12.5803242"><ele>225.0</ele><time>2026-04-26T10:49:14.398Z</time></trkpt><trkpt lat="43.9262194" lon="12.5804529"><ele>225.0</ele><time>2026-04-26T10:49:15.395Z</time></trkpt><trkpt lat="43.9262042" lon="12.5805647"><ele>225.0</ele><time>2026-04-26T10:49:16.395Z</time></trkpt><trkpt lat="43.9261849" lon="12.5806617"><ele>225.0</ele><time>2026-04-26T10:49:17.397Z</time></trkpt><trkpt lat="43.9261661" lon="12.5807617"><ele>225.0</ele><time>2026-04-26T10:49:18.399Z</time></trkpt><trkpt lat="43.9261622" lon="12.5808503"><ele>224.0</ele><time>2026-04-26T10:49:19.395Z</time></trkpt><trkpt lat="43.9262194" lon="12.580942"><ele>223.0</ele><time>2026-04-26T10:49:21.398Z</time></trkpt><trkpt lat="43.926332" lon="12.580991"><ele>222.0</ele><time>2026-04-26T10:49:23.393Z</time></trkpt><trkpt lat="43.9264034" lon="12.581033"><ele>221.0</ele><time>2026-04-26T10:49:24.394Z</time></trkpt><trkpt lat="43.9264746" lon="12.5810845"><ele>220.0</ele><time>2026-04-26T10:49:25.396Z</time></trkpt><trkpt lat="43.9265487" lon="12.5811457"><ele>219.0</ele><time>2026-04-26T10:49:26.396Z</time></trkpt><trkpt lat="43.9266282" lon="12.581209"><ele>217.6</ele><time>2026-04-26T10:49:27.395Z</time></trkpt><trkpt lat="43.9267117" lon="12.5812748"><ele>216.2</ele><time>2026-04-26T10:49:28.393Z</time></trkpt><trkpt lat="43.9268018" lon="12.5813535"><ele>214.79999999999998</ele><time>2026-04-26T10:49:29.395Z</time></trkpt><trkpt lat="43.9268999" lon="12.5814274"><ele>213.39999999999998</ele><time>2026-04-26T10:49:30.395Z</time></trkpt><trkpt lat="43.9269973" lon="12.5814987"><ele>212.0</ele><time>2026-04-26T10:49:31.397Z</time></trkpt><trkpt lat="43.9270982" lon="12.5815734"><ele>210.8</ele><time>2026-04-26T10:49:32.402Z</time></trkpt><trkpt lat="43.9271971" lon="12.5816502"><ele>209.6</ele><time>2026-04-26T10:49:33.396Z</time></trkpt><trkpt lat="43.9272901" lon="12.5817399"><ele>208.4</ele><time>2026-04-26T10:49:34.396Z</time></trkpt><trkpt lat="43.9273776" lon="12.5818312"><ele>207.20000000000002</ele><time>2026-04-26T10:49:35.396Z</time></trkpt><trkpt lat="43.9274494" lon="12.5819269"><ele>206.0</ele><time>2026-04-26T10:49:36.397Z</time></trkpt><trkpt lat="43.9275065" lon="12.5820171"><ele>203.60000000000002</ele><time>2026-04-26T10:49:37.394Z</time></trkpt><trkpt lat="43.9275623" lon="12.582102"><ele>201.2</ele><time>2026-04-26T10:49:38.394Z</time></trkpt><trkpt lat="43.9276116" lon="12.5821687"><ele>198.8</ele><time>2026-04-26T10:49:39.398Z</time></trkpt><trkpt lat="43.927706" lon="12.5822313"><ele>196.39999999999998</ele><time>2026-04-26T10:49:41.394Z</time></trkpt><trkpt lat="43.9277882" lon="12.5822429"><ele>194.0</ele><time>2026-04-26T10:49:43.398Z</time></trkpt><trkpt lat="43.9279108" lon="12.5822243"><ele>194.0</ele><time>2026-04-26T10:49:45.394Z</time></trkpt><trkpt lat="43.9279879" lon="12.5822071"><ele>194.0</ele><time>2026-04-26T10:49:46.395Z</time></trkpt><trkpt lat="43.9280764" lon="12.5821937"><ele>194.0</ele><time>2026-04-26T10:49:47.399Z</time></trkpt><trkpt lat="43.9281775" lon="12.5821803"><ele>194.0</ele><time>2026-04-26T10:49:48.397Z</time></trkpt><trkpt lat="43.9282806" lon="12.5821591"><ele>194.0</ele><time>2026-04-26T10:49:49.396Z</time></trkpt><trkpt lat="43.928379" lon="12.5821301"><ele>194.2</ele><time>2026-04-26T10:49:50.397Z</time></trkpt><trkpt lat="43.9284765" lon="12.5821008"><ele>194.39999999999998</ele><time>2026-04-26T10:49:51.399Z</time></trkpt><trkpt lat="43.9285741" lon="12.5820758"><ele>194.6</ele><time>2026-04-26T10:49:52.399Z</time></trkpt><trkpt lat="43.9286608" lon="12.5820491"><ele>194.8</ele><time>2026-04-26T10:49:53.395Z</time></trkpt><trkpt lat="43.9287451" lon="12.5820208"><ele>195.0</ele><time>2026-04-26T10:49:54.394Z</time></trkpt><trkpt lat="43.9288279" lon="12.5819792"><ele>195.0</ele><time>2026-04-26T10:49:55.39Z</time></trkpt><trkpt lat="43.9289031" lon="12.581929"><ele>195.0</ele><time>2026-04-26T10:49:56.395Z</time></trkpt><trkpt lat="43.9289652" lon="12.5818966"><ele>195.0</ele><time>2026-04-26T10:49:57.394Z</time></trkpt><trkpt lat="43.929072" lon="12.5819106"><ele>195.0</ele><time>2026-04-26T10:49:59.394Z</time></trkpt><trkpt lat="43.929209" lon="12.5819699"><ele>195.0</ele><time>2026-04-26T10:50:01.395Z</time></trkpt><trkpt lat="43.9292888" lon="12.5819832"><ele>191.6</ele><time>2026-04-26T10:50:02.398Z</time></trkpt><trkpt lat="43.9293754" lon="12.5819699"><ele>188.2</ele><time>2026-04-26T10:50:03.394Z</time></trkpt><trkpt lat="43.9294663" lon="12.5819372"><ele>184.8</ele><time>2026-04-26T10:50:04.399Z</time></trkpt><trkpt lat="43.929552" lon="12.5818813"><ele>181.4</ele><time>2026-04-26T10:50:05.396Z</time></trkpt><trkpt lat="43.9296395" lon="12.5817999"><ele>178.0</ele><time>2026-04-26T10:50:06.395Z</time></trkpt><trkpt lat="43.9297335" lon="12.5817318"><ele>178.0</ele><time>2026-04-26T10:50:07.396Z</time></trkpt><trkpt lat="43.929831" lon="12.5816603"><ele>178.0</ele><time>2026-04-26T10:50:08.393Z</time></trkpt><trkpt lat="43.9299281" lon="12.5815982"><ele>178.0</ele><time>2026-04-26T10:50:09.397Z</time></trkpt><trkpt lat="43.9300345" lon="12.5815351"><ele>178.0</ele><time>2026-04-26T10:50:10.399Z</time></trkpt><trkpt lat="43.9301079" lon="12.5814411"><ele>178.0</ele><time>2026-04-26T10:50:11.396Z</time></trkpt><trkpt lat="43.9301773" lon="12.5813322"><ele>176.5</ele><time>2026-04-26T10:50:12.395Z</time></trkpt><trkpt lat="43.9302446" lon="12.5812394"><ele>175.0</ele><time>2026-04-26T10:50:13.404Z</time></trkpt><trkpt lat="43.9303086" lon="12.5811762"><ele>173.5</ele><time>2026-04-26T10:50:14.402Z</time></trkpt><trkpt lat="43.9303819" lon="12.581156"><ele>172.0</ele><time>2026-04-26T10:50:15.398Z</time></trkpt><trkpt lat="43.9304698" lon="12.5811655"><ele>170.5</ele><time>2026-04-26T10:50:16.393Z</time></trkpt><trkpt lat="43.9305653" lon="12.5811969"><ele>169.0</ele><time>2026-04-26T10:50:17.394Z</time></trkpt><trkpt lat="43.9306644" lon="12.5812323"><ele>169.0</ele><time>2026-04-26T10:50:18.398Z</time></trkpt><trkpt lat="43.9307522" lon="12.5812883"><ele>169.0</ele><time>2026-04-26T10:50:19.394Z</time></trkpt><trkpt lat="43.9308341" lon="12.581335"><ele>169.0</ele><time>2026-04-26T10:50:20.397Z</time></trkpt><trkpt lat="43.9308974" lon="12.5813753"><ele>169.0</ele><time>2026-04-26T10:50:21.397Z</time></trkpt><trkpt lat="43.9310035" lon="12.5813637"><ele>169.0</ele><time>2026-04-26T10:50:23.4Z</time></trkpt><trkpt lat="43.9310606" lon="12.5813205"><ele>169.0</ele><time>2026-04-26T10:50:24.398Z</time></trkpt><trkpt lat="43.931127" lon="12.5812477"><ele>166.39999999999998</ele><time>2026-04-26T10:50:25.393Z</time></trkpt><trkpt lat="43.9311916" lon="12.5811534"><ele>163.79999999999998</ele><time>2026-04-26T10:50:26.391Z</time></trkpt><trkpt lat="43.9312571" lon="12.5810518"><ele>161.2</ele><time>2026-04-26T10:50:27.392Z</time></trkpt><trkpt lat="43.9313213" lon="12.5809601"><ele>158.6</ele><time>2026-04-26T10:50:28.396Z</time></trkpt><trkpt lat="43.9313992" lon="12.5808965"><ele>156.0</ele><time>2026-04-26T10:50:29.394Z</time></trkpt><trkpt lat="43.9314841" lon="12.5808496"><ele>156.0</ele><time>2026-04-26T10:50:30.396Z</time></trkpt><trkpt lat="43.9315789" lon="12.5808337"><ele>156.0</ele><time>2026-04-26T10:50:31.398Z</time></trkpt><trkpt lat="43.9316823" lon="12.5808265"><ele>156.0</ele><time>2026-04-26T10:50:32.4Z</time></trkpt><trkpt lat="43.9317817" lon="12.5808226"><ele>156.0</ele><time>2026-04-26T10:50:33.4Z</time></trkpt><trkpt lat="43.9318805" lon="12.580809"><ele>156.0</ele><time>2026-04-26T10:50:34.394Z</time></trkpt><trkpt lat="43.9319618" lon="12.5807983"><ele>155.0</ele><time>2026-04-26T10:50:35.399Z</time></trkpt><trkpt lat="43.9320308" lon="12.5807875"><ele>154.0</ele><time>2026-04-26T10:50:36.394Z</time></trkpt><trkpt lat="43.9321187" lon="12.5807784"><ele>153.0</ele><time>2026-04-26T10:50:38.4Z</time></trkpt><trkpt lat="43.9322117" lon="12.5807576"><ele>152.0</ele><time>2026-04-26T10:51:09.408Z</time></trkpt><trkpt lat="43.9322823" lon="12.5807434"><ele>151.0</ele><time>2026-04-26T10:51:10.4Z</time></trkpt><trkpt lat="43.9323714" lon="12.5807309"><ele>150.0</ele><time>2026-04-26T10:51:11.401Z</time></trkpt><trkpt lat="43.9324698" lon="12.5807207"><ele>149.5</ele><time>2026-04-26T10:51:12.396Z</time></trkpt><trkpt lat="43.9325835" lon="12.5807107"><ele>149.0</ele><time>2026-04-26T10:51:13.395Z</time></trkpt><trkpt lat="43.9327023" lon="12.5807082"><ele>148.5</ele><time>2026-04-26T10:51:14.394Z</time></trkpt><trkpt lat="43.9328298" lon="12.5807113"><ele>148.0</ele><time>2026-04-26T10:51:15.392Z</time></trkpt><trkpt lat="43.9329629" lon="12.5807128"><ele>148.0</ele><time>2026-04-26T10:51:16.393Z</time></trkpt><trkpt lat="43.933099" lon="12.5807185"><ele>148.0</ele><time>2026-04-26T10:51:17.394Z</time></trkpt><trkpt lat="43.9332308" lon="12.5807217"><ele>148.0</ele><time>2026-04-26T10:51:18.397Z</time></trkpt><trkpt lat="43.9333673" lon="12.580727"><ele>148.0</ele><time>2026-04-26T10:51:19.395Z</time></trkpt><trkpt lat="43.9335029" lon="12.5807333"><ele>147.0</ele><time>2026-04-26T10:51:20.4Z</time></trkpt><trkpt lat="43.9336387" lon="12.5807428"><ele>146.0</ele><time>2026-04-26T10:51:21.403Z</time></trkpt><trkpt lat="43.933775" lon="12.580754"><ele>145.0</ele><time>2026-04-26T10:51:22.4Z</time></trkpt><trkpt lat="43.9339063" lon="12.58076"><ele>144.0</ele><time>2026-04-26T10:51:23.396Z</time></trkpt><trkpt lat="43.9340395" lon="12.5807754"><ele>144.0</ele><time>2026-04-26T10:51:24.397Z</time></trkpt><trkpt lat="43.9341627" lon="12.5807892"><ele>144.0</ele><time>2026-04-26T10:51:25.391Z</time></trkpt><trkpt lat="43.9342848" lon="12.5808028"><ele>144.0</ele><time>2026-04-26T10:51:26.398Z</time></trkpt><trkpt lat="43.9344002" lon="12.5808158"><ele>144.0</ele><time>2026-04-26T10:51:27.401Z</time></trkpt><trkpt lat="43.9345157" lon="12.5808348"><ele>142.25</ele><time>2026-04-26T10:51:28.395Z</time></trkpt><trkpt lat="43.9346263" lon="12.5808533"><ele>140.5</ele><time>2026-04-26T10:51:29.394Z</time></trkpt><trkpt lat="43.934741" lon="12.5808694"><ele>138.75</ele><time>2026-04-26T10:51:30.393Z</time></trkpt><trkpt lat="43.9348667" lon="12.5808641"><ele>137.0</ele><time>2026-04-26T10:51:31.399Z</time></trkpt><trkpt lat="43.934996" lon="12.5808359"><ele>136.66666666666666</ele><time>2026-04-26T10:51:32.397Z</time></trkpt><trkpt lat="43.9351384" lon="12.5807952"><ele>136.33333333333334</ele><time>2026-04-26T10:51:33.395Z</time></trkpt><trkpt lat="43.9352902" lon="12.5807514"><ele>136.0</ele><time>2026-04-26T10:51:34.394Z</time></trkpt><trkpt lat="43.935439" lon="12.5807122"><ele>136.0</ele><time>2026-04-26T10:51:35.398Z</time></trkpt><trkpt lat="43.9355832" lon="12.5806835"><ele>136.0</ele><time>2026-04-26T10:51:36.399Z</time></trkpt><trkpt lat="43.9357299" lon="12.5806613"><ele>136.0</ele><time>2026-04-26T10:51:37.397Z</time></trkpt><trkpt lat="43.9358748" lon="12.5806394"><ele>136.0</ele><time>2026-04-26T10:51:38.396Z</time></trkpt><trkpt lat="43.9360208" lon="12.5806158"><ele>134.66666666666669</ele><time>2026-04-26T10:51:39.398Z</time></trkpt><trkpt lat="43.9361697" lon="12.580588"><ele>133.33333333333334</ele><time>2026-04-26T10:51:40.395Z</time></trkpt><trkpt lat="43.936324" lon="12.5805562"><ele>132.0</ele><time>2026-04-26T10:51:41.397Z</time></trkpt><trkpt lat="43.9364799" lon="12.5805233"><ele>132.0</ele><time>2026-04-26T10:51:42.398Z</time></trkpt><trkpt lat="43.9366328" lon="12.5804917"><ele>132.0</ele><time>2026-04-26T10:51:43.393Z</time></trkpt><trkpt lat="43.9367774" lon="12.5804634"><ele>132.0</ele><time>2026-04-26T10:51:44.395Z</time></trkpt><trkpt lat="43.9369198" lon="12.5804301"><ele>132.0</ele><time>2026-04-26T10:51:45.399Z</time></trkpt><trkpt lat="43.9370619" lon="12.5804052"><ele>130.75</ele><time>2026-04-26T10:51:46.394Z</time></trkpt><trkpt lat="43.9372046" lon="12.5803917"><ele>129.5</ele><time>2026-04-26T10:51:47.394Z</time></trkpt><trkpt lat="43.937342" lon="12.5803943"><ele>128.25</ele><time>2026-04-26T10:51:48.397Z</time></trkpt><trkpt lat="43.9374772" lon="12.5804093"><ele>127.0</ele><time>2026-04-26T10:51:49.397Z</time></trkpt><trkpt lat="43.9376137" lon="12.5804369"><ele>126.75</ele><time>2026-04-26T10:51:50.396Z</time></trkpt><trkpt lat="43.9377496" lon="12.5804715"><ele>126.5</ele><time>2026-04-26T10:51:51.4Z</time></trkpt><trkpt lat="43.9378821" lon="12.5805039"><ele>126.25</ele><time>2026-04-26T10:51:52.403Z</time></trkpt><trkpt lat="43.9380097" lon="12.5805335"><ele>126.0</ele><time>2026-04-26T10:51:53.396Z</time></trkpt><trkpt lat="43.9381343" lon="12.5805577"><ele>126.0</ele><time>2026-04-26T10:51:54.393Z</time></trkpt><trkpt lat="43.9382557" lon="12.5805817"><ele>126.0</ele><time>2026-04-26T10:51:55.394Z</time></trkpt><trkpt lat="43.9383753" lon="12.5806164"><ele>126.0</ele><time>2026-04-26T10:51:56.398Z</time></trkpt><trkpt lat="43.9384808" lon="12.5806556"><ele>126.0</ele><time>2026-04-26T10:51:57.397Z</time></trkpt><trkpt lat="43.9385645" lon="12.580689"><ele>126.0</ele><time>2026-04-26T10:51:58.398Z</time></trkpt><trkpt lat="43.9386473" lon="12.5807315"><ele>125.0</ele><time>2026-04-26T10:52:00.397Z</time></trkpt><trkpt lat="43.9385724" lon="12.5807341"><ele>124.0</ele><time>2026-04-26T10:52:25.404Z</time></trkpt><trkpt lat="43.9385482" lon="12.580917"><ele>123.0</ele><time>2026-04-26T10:52:27.4Z</time></trkpt><trkpt lat="43.9385244" lon="12.5810252"><ele>122.0</ele><time>2026-04-26T10:52:28.397Z</time></trkpt><trkpt lat="43.9384942" lon="12.5811505"><ele>121.0</ele><time>2026-04-26T10:52:29.394Z</time></trkpt><trkpt lat="43.9384599" lon="12.5812808"><ele>121.0</ele><time>2026-04-26T10:52:30.399Z</time></trkpt><trkpt lat="43.9384264" lon="12.5814202"><ele>121.0</ele><time>2026-04-26T10:52:31.395Z</time></trkpt><trkpt lat="43.9383859" lon="12.5815651"><ele>121.0</ele><time>2026-04-26T10:52:32.396Z</time></trkpt><trkpt lat="43.9383411" lon="12.5817082"><ele>121.0</ele><time>2026-04-26T10:52:33.395Z</time></trkpt><trkpt lat="43.9383" lon="12.5818561"><ele>121.0</ele><time>2026-04-26T10:52:34.399Z</time></trkpt><trkpt lat="43.9382566" lon="12.5819981"><ele>119.4</ele><time>2026-04-26T10:52:35.4Z</time></trkpt><trkpt lat="43.9382228" lon="12.5821339"><ele>117.8</ele><time>2026-04-26T10:52:36.402Z</time></trkpt><trkpt lat="43.938184" lon="12.5822602"><ele>116.20000000000002</ele><time>2026-04-26T10:52:37.398Z</time></trkpt><trkpt lat="43.938146" lon="12.5823892"><ele>114.60000000000001</ele><time>2026-04-26T10:52:38.397Z</time></trkpt><trkpt lat="43.9381147" lon="12.5825198"><ele>113.0</ele><time>2026-04-26T10:52:39.4Z</time></trkpt><trkpt lat="43.9380794" lon="12.5826489"><ele>112.99999999999999</ele><time>2026-04-26T10:52:40.41Z</time></trkpt><trkpt lat="43.9380476" lon="12.5827702"><ele>113.0</ele><time>2026-04-26T10:52:41.398Z</time></trkpt><trkpt lat="43.9380116" lon="12.5828807"><ele>113.0</ele><time>2026-04-26T10:52:42.393Z</time></trkpt><trkpt lat="43.9379637" lon="12.5829881"><ele>113.0</ele><time>2026-04-26T10:52:43.402Z</time></trkpt><trkpt lat="43.9379138" lon="12.5830897"><ele>112.99999999999999</ele><time>2026-04-26T10:52:44.398Z</time></trkpt><trkpt lat="43.9378762" lon="12.5831836"><ele>113.0</ele><time>2026-04-26T10:52:45.393Z</time></trkpt><trkpt lat="43.9378454" lon="12.5832964"><ele>111.60000000000001</ele><time>2026-04-26T10:52:46.396Z</time></trkpt><trkpt lat="43.937823" lon="12.5834238"><ele>110.20000000000002</ele><time>2026-04-26T10:52:47.394Z</time></trkpt><trkpt lat="43.9378111" lon="12.5835606"><ele>108.8</ele><time>2026-04-26T10:52:48.393Z</time></trkpt><trkpt lat="43.9378083" lon="12.5836885"><ele>107.4</ele><time>2026-04-26T10:52:49.394Z</time></trkpt><trkpt lat="43.9378114" lon="12.5838157"><ele>106.0</ele><time>2026-04-26T10:52:50.4Z</time></trkpt><trkpt lat="43.9378161" lon="12.5839482"><ele>104.0</ele><time>2026-04-26T10:52:51.4Z</time></trkpt><trkpt lat="43.9378242" lon="12.5840741"><ele>102.0</ele><time>2026-04-26T10:52:52.392Z</time></trkpt><trkpt lat="43.9378323" lon="12.5842001"><ele>100.0</ele><time>2026-04-26T10:52:53.399Z</time></trkpt><trkpt lat="43.9378391" lon="12.5843276"><ele>98.0</ele><time>2026-04-26T10:52:54.394Z</time></trkpt><trkpt lat="43.9378353" lon="12.5844551"><ele>96.0</ele><time>2026-04-26T10:52:55.404Z</time></trkpt><trkpt lat="43.9378331" lon="12.5845755"><ele>94.85714285714285</ele><time>2026-04-26T10:52:56.394Z</time></trkpt><trkpt lat="43.9378242" lon="12.5846846"><ele>93.71428571428571</ele><time>2026-04-26T10:52:57.396Z</time></trkpt><trkpt lat="43.9378076" lon="12.5847886"><ele>92.57142857142857</ele><time>2026-04-26T10:52:58.394Z</time></trkpt><trkpt lat="43.9377906" lon="12.5848857"><ele>91.42857142857142</ele><time>2026-04-26T10:52:59.397Z</time></trkpt><trkpt lat="43.937777" lon="12.5849881"><ele>90.28571428571428</ele><time>2026-04-26T10:53:00.399Z</time></trkpt><trkpt lat="43.9377666" lon="12.5850871"><ele>89.14285714285714</ele><time>2026-04-26T10:53:01.394Z</time></trkpt><trkpt lat="43.937763" lon="12.585185"><ele>88.0</ele><time>2026-04-26T10:53:02.398Z</time></trkpt><trkpt lat="43.937772" lon="12.5852788"><ele>87.0</ele><time>2026-04-26T10:53:03.397Z</time></trkpt><trkpt lat="43.9377912" lon="12.5853685"><ele>86.0</ele><time>2026-04-26T10:53:04.394Z</time></trkpt><trkpt lat="43.937825" lon="12.5854455"><ele>85.0</ele><time>2026-04-26T10:53:05.396Z</time></trkpt><trkpt lat="43.9378773" lon="12.5855135"><ele>84.0</ele><time>2026-04-26T10:53:06.4Z</time></trkpt><trkpt lat="43.9379426" lon="12.5855897"><ele>83.0</ele><time>2026-04-26T10:53:07.401Z</time></trkpt><trkpt lat="43.9380084" lon="12.5856609"><ele>82.0</ele><time>2026-04-26T10:53:08.397Z</time></trkpt><trkpt lat="43.9380789" lon="12.5857378"><ele>82.0</ele><time>2026-04-26T10:53:09.393Z</time></trkpt><trkpt lat="43.9381547" lon="12.5858136"><ele>82.0</ele><time>2026-04-26T10:53:10.393Z</time></trkpt><trkpt lat="43.9382327" lon="12.5858967"><ele>82.0</ele><time>2026-04-26T10:53:11.396Z</time></trkpt><trkpt lat="43.9383047" lon="12.5859804"><ele>82.0</ele><time>2026-04-26T10:53:12.394Z</time></trkpt><trkpt lat="43.938376" lon="12.5860633"><ele>82.0</ele><time>2026-04-26T10:53:13.394Z</time></trkpt><trkpt lat="43.9384594" lon="12.5861508"><ele>80.6</ele><time>2026-04-26T10:53:14.395Z</time></trkpt><trkpt lat="43.9385451" lon="12.5862447"><ele>79.19999999999999</ele><time>2026-04-26T10:53:15.395Z</time></trkpt><trkpt lat="43.9386246" lon="12.5863269"><ele>77.8</ele><time>2026-04-26T10:53:16.405Z</time></trkpt><trkpt lat="43.9387023" lon="12.5864096"><ele>76.4</ele><time>2026-04-26T10:53:17.395Z</time></trkpt><trkpt lat="43.9387807" lon="12.5864982"><ele>75.0</ele><time>2026-04-26T10:53:18.396Z</time></trkpt><trkpt lat="43.9388618" lon="12.5865886"><ele>75.0</ele><time>2026-04-26T10:53:19.405Z</time></trkpt><trkpt lat="43.9389421" lon="12.586675"><ele>75.0</ele><time>2026-04-26T10:53:20.394Z</time></trkpt><trkpt lat="43.9390256" lon="12.586751"><ele>75.0</ele><time>2026-04-26T10:53:21.395Z</time></trkpt><trkpt lat="43.939117" lon="12.5868241"><ele>75.0</ele><time>2026-04-26T10:53:22.399Z</time></trkpt><trkpt lat="43.9392203" lon="12.5868929"><ele>75.0</ele><time>2026-04-26T10:53:23.41Z</time></trkpt><trkpt lat="43.9393335" lon="12.5869581"><ele>73.4</ele><time>2026-04-26T10:53:24.394Z</time></trkpt><trkpt lat="43.9394427" lon="12.5870285"><ele>71.8</ele><time>2026-04-26T10:53:25.397Z</time></trkpt><trkpt lat="43.9395554" lon="12.5871075"><ele>70.2</ele><time>2026-04-26T10:53:26.398Z</time></trkpt><trkpt lat="43.9396424" lon="12.587195"><ele>68.6</ele><time>2026-04-26T10:53:27.395Z</time></trkpt><trkpt lat="43.9397026" lon="12.587281"><ele>67.0</ele><time>2026-04-26T10:53:28.395Z</time></trkpt><trkpt lat="43.939732" lon="12.5873657"><ele>67.0</ele><time>2026-04-26T10:53:29.395Z</time></trkpt><trkpt lat="43.9396826" lon="12.5875501"><ele>67.0</ele><time>2026-04-26T10:53:31.401Z</time></trkpt><trkpt lat="43.9396044" lon="12.5876594"><ele>67.0</ele><time>2026-04-26T10:53:32.397Z</time></trkpt><trkpt lat="43.9394971" lon="12.5877696"><ele>67.0</ele><time>2026-04-26T10:53:33.398Z</time></trkpt><trkpt lat="43.9393957" lon="12.5878661"><ele>67.6</ele><time>2026-04-26T10:53:34.396Z</time></trkpt><trkpt lat="43.939307" lon="12.5879564"><ele>68.2</ele><time>2026-04-26T10:53:35.396Z</time></trkpt><trkpt lat="43.9392311" lon="12.5880507"><ele>68.8</ele><time>2026-04-26T10:53:36.396Z</time></trkpt><trkpt lat="43.9391655" lon="12.5881379"><ele>69.4</ele><time>2026-04-26T10:53:37.395Z</time></trkpt><trkpt lat="43.9391212" lon="12.5882259"><ele>70.0</ele><time>2026-04-26T10:53:38.393Z</time></trkpt><trkpt lat="43.9391052" lon="12.5883304"><ele>70.0</ele><time>2026-04-26T10:53:39.393Z</time></trkpt><trkpt lat="43.9391224" lon="12.5884437"><ele>70.0</ele><time>2026-04-26T10:53:40.396Z</time></trkpt><trkpt lat="43.9391614" lon="12.5885606"><ele>70.0</ele><time>2026-04-26T10:53:41.395Z</time></trkpt><trkpt lat="43.9392042" lon="12.5886796"><ele>70.0</ele><time>2026-04-26T10:53:42.394Z</time></trkpt><trkpt lat="43.9392497" lon="12.5888061"><ele>70.0</ele><time>2026-04-26T10:53:43.396Z</time></trkpt><trkpt lat="43.9392915" lon="12.5889418"><ele>71.25</ele><time>2026-04-26T10:53:44.4Z</time></trkpt><trkpt lat="43.9393327" lon="12.5890882"><ele>72.5</ele><time>2026-04-26T10:53:45.399Z</time></trkpt><trkpt lat="43.939384" lon="12.5892487"><ele>73.75</ele><time>2026-04-26T10:53:46.399Z</time></trkpt><trkpt lat="43.939437" lon="12.5894111"><ele>75.0</ele><time>2026-04-26T10:53:47.397Z</time></trkpt><trkpt lat="43.9394968" lon="12.5895801"><ele>76.5</ele><time>2026-04-26T10:53:48.395Z</time></trkpt><trkpt lat="43.9395594" lon="12.589762"><ele>78.0</ele><time>2026-04-26T10:53:49.397Z</time></trkpt><trkpt lat="43.9396114" lon="12.5899172"><ele>79.5</ele><time>2026-04-26T10:53:50.398Z</time></trkpt><trkpt lat="43.9396621" lon="12.5900759"><ele>81.0</ele><time>2026-04-26T10:53:51.392Z</time></trkpt><trkpt lat="43.9397211" lon="12.5902402"><ele>82.75</ele><time>2026-04-26T10:53:52.393Z</time></trkpt><trkpt lat="43.9397573" lon="12.5904018"><ele>84.5</ele><time>2026-04-26T10:53:53.398Z</time></trkpt><trkpt lat="43.9397737" lon="12.5905594"><ele>86.25</ele><time>2026-04-26T10:53:54.4Z</time></trkpt><trkpt lat="43.9397668" lon="12.5907377"><ele>88.0</ele><time>2026-04-26T10:53:55.399Z</time></trkpt><trkpt lat="43.9397599" lon="12.5909373"><ele>88.0</ele><time>2026-04-26T10:53:56.395Z</time></trkpt><trkpt lat="43.9397468" lon="12.5911667"><ele>88.0</ele><time>2026-04-26T10:53:57.394Z</time></trkpt><trkpt lat="43.9397424" lon="12.591414"><ele>88.0</ele><time>2026-04-26T10:53:58.392Z</time></trkpt><trkpt lat="43.9397361" lon="12.5916356"><ele>89.75</ele><time>2026-04-26T10:53:59.394Z</time></trkpt><trkpt lat="43.9397367" lon="12.5918308"><ele>91.5</ele><time>2026-04-26T10:54:00.395Z</time></trkpt><trkpt lat="43.9397296" lon="12.5920029"><ele>93.25</ele><time>2026-04-26T10:54:01.394Z</time></trkpt><trkpt lat="43.939698" lon="12.5921601"><ele>95.0</ele><time>2026-04-26T10:54:02.394Z</time></trkpt><trkpt lat="43.9396345" lon="12.5923032"><ele>97.0</ele><time>2026-04-26T10:54:03.397Z</time></trkpt><trkpt lat="43.9395521" lon="12.5924563"><ele>99.0</ele><time>2026-04-26T10:54:04.398Z</time></trkpt><trkpt lat="43.9394611" lon="12.5926344"><ele>101.0</ele><time>2026-04-26T10:54:05.395Z</time></trkpt><trkpt lat="43.9393815" lon="12.5927955"><ele>103.0</ele><time>2026-04-26T10:54:06.397Z</time></trkpt><trkpt lat="43.9393058" lon="12.592945"><ele>105.75</ele><time>2026-04-26T10:54:07.397Z</time></trkpt><trkpt lat="43.9392262" lon="12.5930933"><ele>108.5</ele><time>2026-04-26T10:54:08.393Z</time></trkpt><trkpt lat="43.9391464" lon="12.5932495"><ele>111.25</ele><time>2026-04-26T10:54:09.393Z</time></trkpt><trkpt lat="43.9390647" lon="12.593412"><ele>114.0</ele><time>2026-04-26T10:54:10.395Z</time></trkpt><trkpt lat="43.93899" lon="12.5935637"><ele>119.25</ele><time>2026-04-26T10:54:11.394Z</time></trkpt><trkpt lat="43.938918" lon="12.5937267"><ele>124.5</ele><time>2026-04-26T10:54:12.394Z</time></trkpt><trkpt lat="43.938852" lon="12.5938981"><ele>129.75</ele><time>2026-04-26T10:54:13.394Z</time></trkpt><trkpt lat="43.93879" lon="12.5940616"><ele>135.0</ele><time>2026-04-26T10:54:14.398Z</time></trkpt><trkpt lat="43.9387205" lon="12.5942226"><ele>135.0</ele><time>2026-04-26T10:54:15.397Z</time></trkpt><trkpt lat="43.9386583" lon="12.5943828"><ele>135.0</ele><time>2026-04-26T10:54:16.394Z</time></trkpt><trkpt lat="43.9386036" lon="12.5945287"><ele>135.0</ele><time>2026-04-26T10:54:17.392Z</time></trkpt><trkpt lat="43.9385519" lon="12.5946689"><ele>135.0</ele><time>2026-04-26T10:54:18.392Z</time></trkpt><trkpt lat="43.9385083" lon="12.5947821"><ele>135.8</ele><time>2026-04-26T10:54:19.399Z</time></trkpt><trkpt lat="43.9384734" lon="12.5948671"><ele>136.6</ele><time>2026-04-26T10:54:20.394Z</time></trkpt><trkpt lat="43.9384232" lon="12.5949737"><ele>137.4</ele><time>2026-04-26T10:54:22.395Z</time></trkpt><trkpt lat="43.9383786" lon="12.5950523"><ele>138.2</ele><time>2026-04-26T10:54:35.394Z</time></trkpt><trkpt lat="43.9383194" lon="12.5951054"><ele>139.0</ele><time>2026-04-26T10:54:37.394Z</time></trkpt><trkpt lat="43.9381713" lon="12.5950948"><ele>139.0</ele><time>2026-04-26T10:54:39.398Z</time></trkpt><trkpt lat="43.9380815" lon="12.5950916"><ele>139.0</ele><time>2026-04-26T10:54:40.394Z</time></trkpt><trkpt lat="43.9379839" lon="12.5950875"><ele>139.0</ele><time>2026-04-26T10:54:41.397Z</time></trkpt><trkpt lat="43.9378819" lon="12.5950769"><ele>139.0</ele><time>2026-04-26T10:54:42.401Z</time></trkpt><trkpt lat="43.9377901" lon="12.5950614"><ele>139.0</ele><time>2026-04-26T10:54:43.4Z</time></trkpt><trkpt lat="43.9377047" lon="12.595046"><ele>139.0</ele><time>2026-04-26T10:54:44.393Z</time></trkpt><trkpt lat="43.9376237" lon="12.5950318"><ele>139.0</ele><time>2026-04-26T10:54:45.393Z</time></trkpt><trkpt lat="43.9375416" lon="12.5950382"><ele>139.0</ele><time>2026-04-26T10:54:46.392Z</time></trkpt><trkpt lat="43.9374529" lon="12.5950428"><ele>139.0</ele><time>2026-04-26T10:54:47.393Z</time></trkpt><trkpt lat="43.9373623" lon="12.5950278"><ele>139.0</ele><time>2026-04-26T10:54:48.399Z</time></trkpt><trkpt lat="43.9372661" lon="12.5950076"><ele>139.0</ele><time>2026-04-26T10:54:49.395Z</time></trkpt><trkpt lat="43.9371681" lon="12.5949932"><ele>139.2</ele><time>2026-04-26T10:54:50.396Z</time></trkpt><trkpt lat="43.9370725" lon="12.5949885"><ele>139.4</ele><time>2026-04-26T10:54:51.397Z</time></trkpt><trkpt lat="43.9369705" lon="12.5949875"><ele>139.6</ele><time>2026-04-26T10:54:52.401Z</time></trkpt><trkpt lat="43.9368632" lon="12.594994"><ele>139.8</ele><time>2026-04-26T10:54:53.396Z</time></trkpt><trkpt lat="43.9367638" lon="12.5950003"><ele>140.0</ele><time>2026-04-26T10:54:54.393Z</time></trkpt><trkpt lat="43.9366691" lon="12.5950041"><ele>141.2</ele><time>2026-04-26T10:54:55.394Z</time></trkpt><trkpt lat="43.9365735" lon="12.5950112"><ele>142.4</ele><time>2026-04-26T10:54:56.394Z</time></trkpt><trkpt lat="43.9364718" lon="12.5950177"><ele>143.6</ele><time>2026-04-26T10:54:57.394Z</time></trkpt><trkpt lat="43.9363694" lon="12.5950205"><ele>144.8</ele><time>2026-04-26T10:54:58.395Z</time></trkpt><trkpt lat="43.9362704" lon="12.5950117"><ele>146.0</ele><time>2026-04-26T10:54:59.395Z</time></trkpt><trkpt lat="43.9361842" lon="12.5950107"><ele>146.0</ele><time>2026-04-26T10:55:00.399Z</time></trkpt><trkpt lat="43.936107" lon="12.5950098"><ele>146.0</ele><time>2026-04-26T10:55:01.398Z</time></trkpt><trkpt lat="43.9360168" lon="12.595089"><ele>146.0</ele><time>2026-04-26T10:55:03.393Z</time></trkpt><trkpt lat="43.9360195" lon="12.5952531"><ele>146.0</ele><time>2026-04-26T10:55:05.397Z</time></trkpt><trkpt lat="43.9360281" lon="12.5953663"><ele>146.0</ele><time>2026-04-26T10:55:06.393Z</time></trkpt><trkpt lat="43.936038" lon="12.5954976"><ele>145.8</ele><time>2026-04-26T10:55:07.395Z</time></trkpt><trkpt lat="43.9360506" lon="12.5956393"><ele>145.6</ele><time>2026-04-26T10:55:08.394Z</time></trkpt><trkpt lat="43.9360642" lon="12.5957799"><ele>145.4</ele><time>2026-04-26T10:55:09.395Z</time></trkpt><trkpt lat="43.9360778" lon="12.5959222"><ele>145.2</ele><time>2026-04-26T10:55:10.398Z</time></trkpt><trkpt lat="43.9360944" lon="12.5960619"><ele>145.0</ele><time>2026-04-26T10:55:11.397Z</time></trkpt><trkpt lat="43.9361115" lon="12.5962014"><ele>143.75</ele><time>2026-04-26T10:55:12.399Z</time></trkpt><trkpt lat="43.9361279" lon="12.596352"><ele>142.5</ele><time>2026-04-26T10:55:13.396Z</time></trkpt><trkpt lat="43.936134" lon="12.5965211"><ele>141.25</ele><time>2026-04-26T10:55:14.398Z</time></trkpt><trkpt lat="43.9361414" lon="12.5966947"><ele>140.0</ele><time>2026-04-26T10:55:15.398Z</time></trkpt><trkpt lat="43.9361491" lon="12.5968789"><ele>138.75</ele><time>2026-04-26T10:55:16.402Z</time></trkpt><trkpt lat="43.936162" lon="12.5970661"><ele>137.5</ele><time>2026-04-26T10:55:17.392Z</time></trkpt><trkpt lat="43.9361735" lon="12.5972591"><ele>136.25</ele><time>2026-04-26T10:55:18.396Z</time></trkpt><trkpt lat="43.9361842" lon="12.5974485"><ele>135.0</ele><time>2026-04-26T10:55:19.393Z</time></trkpt><trkpt lat="43.9361961" lon="12.5976433"><ele>133.0</ele><time>2026-04-26T10:55:20.394Z</time></trkpt><trkpt lat="43.936209" lon="12.5978393"><ele>131.0</ele><time>2026-04-26T10:55:21.393Z</time></trkpt><trkpt lat="43.9362187" lon="12.5980301"><ele>129.0</ele><time>2026-04-26T10:55:22.396Z</time></trkpt><trkpt lat="43.9362273" lon="12.5982198"><ele>127.0</ele><time>2026-04-26T10:55:23.397Z</time></trkpt><trkpt lat="43.9362383" lon="12.5984059"><ele>127.0</ele><time>2026-04-26T10:55:24.398Z</time></trkpt><trkpt lat="43.9362488" lon="12.598586"><ele>127.0</ele><time>2026-04-26T10:55:25.398Z</time></trkpt><trkpt lat="43.9362598" lon="12.5987677"><ele>127.0</ele><time>2026-04-26T10:55:26.401Z</time></trkpt><trkpt lat="43.9362719" lon="12.5989465"><ele>127.0</ele><time>2026-04-26T10:55:27.393Z</time></trkpt><trkpt lat="43.9362802" lon="12.5991263"><ele>125.75</ele><time>2026-04-26T10:55:28.394Z</time></trkpt><trkpt lat="43.9363007" lon="12.5993096"><ele>124.5</ele><time>2026-04-26T10:55:29.399Z</time></trkpt><trkpt lat="43.9363266" lon="12.5994946"><ele>123.25</ele><time>2026-04-26T10:55:30.395Z</time></trkpt><trkpt lat="43.9363563" lon="12.5996716"><ele>122.0</ele><time>2026-04-26T10:55:31.396Z</time></trkpt><trkpt lat="43.9363967" lon="12.5998466"><ele>120.5</ele><time>2026-04-26T10:55:32.406Z</time></trkpt><trkpt lat="43.9364387" lon="12.6000125"><ele>119.0</ele><time>2026-04-26T10:55:33.397Z</time></trkpt><trkpt lat="43.9364882" lon="12.6001688"><ele>117.5</ele><time>2026-04-26T10:55:34.395Z</time></trkpt><trkpt lat="43.9365298" lon="12.6003324"><ele>116.0</ele><time>2026-04-26T10:55:35.395Z</time></trkpt><trkpt lat="43.9365611" lon="12.6005006"><ele>114.0</ele><time>2026-04-26T10:55:36.395Z</time></trkpt><trkpt lat="43.9365876" lon="12.6006859"><ele>112.0</ele><time>2026-04-26T10:55:37.396Z</time></trkpt><trkpt lat="43.9366134" lon="12.6008743"><ele>110.0</ele><time>2026-04-26T10:55:38.397Z</time></trkpt><trkpt lat="43.9366377" lon="12.6010629"><ele>108.0</ele><time>2026-04-26T10:55:39.397Z</time></trkpt><trkpt lat="43.936666" lon="12.6012604"><ele>105.66666666666666</ele><time>2026-04-26T10:55:40.4Z</time></trkpt><trkpt lat="43.936688" lon="12.6014672"><ele>103.33333333333333</ele><time>2026-04-26T10:55:41.396Z</time></trkpt><trkpt lat="43.9367118" lon="12.6016751"><ele>101.0</ele><time>2026-04-26T10:55:42.392Z</time></trkpt><trkpt lat="43.9367398" lon="12.6018807"><ele>99.5</ele><time>2026-04-26T10:55:43.398Z</time></trkpt><trkpt lat="43.9367679" lon="12.6020818"><ele>98.0</ele><time>2026-04-26T10:55:44.392Z</time></trkpt><trkpt lat="43.9367945" lon="12.6022816"><ele>96.5</ele><time>2026-04-26T10:55:45.394Z</time></trkpt><trkpt lat="43.9368175" lon="12.6024707"><ele>95.0</ele><time>2026-04-26T10:55:46.396Z</time></trkpt><trkpt lat="43.9368424" lon="12.6026525"><ele>95.0</ele><time>2026-04-26T10:55:47.399Z</time></trkpt><trkpt lat="43.936863" lon="12.6028291"><ele>95.0</ele><time>2026-04-26T10:55:48.399Z</time></trkpt><trkpt lat="43.9368818" lon="12.6029963"><ele>95.0</ele><time>2026-04-26T10:55:49.4Z</time></trkpt><trkpt lat="43.9368971" lon="12.6031387"><ele>95.0</ele><time>2026-04-26T10:55:50.398Z</time></trkpt><trkpt lat="43.9369109" lon="12.6032611"><ele>95.0</ele><time>2026-04-26T10:55:51.399Z</time></trkpt><trkpt lat="43.9369256" lon="12.6033696"><ele>93.8</ele><time>2026-04-26T10:55:52.401Z</time></trkpt><trkpt lat="43.9369802" lon="12.6034931"><ele>92.6</ele><time>2026-04-26T10:55:54.393Z</time></trkpt><trkpt lat="43.9370716" lon="12.6035207"><ele>91.4</ele><time>2026-04-26T10:55:56.407Z</time></trkpt><trkpt lat="43.9371406" lon="12.6035075"><ele>90.2</ele><time>2026-04-26T10:55:57.394Z</time></trkpt><trkpt lat="43.937224" lon="12.6034695"><ele>89.0</ele><time>2026-04-26T10:55:58.396Z</time></trkpt><trkpt lat="43.937321" lon="12.603421"><ele>89.0</ele><time>2026-04-26T10:55:59.4Z</time></trkpt><trkpt lat="43.9374268" lon="12.6033725"><ele>89.0</ele><time>2026-04-26T10:56:00.397Z</time></trkpt><trkpt lat="43.9375302" lon="12.6033319"><ele>89.0</ele><time>2026-04-26T10:56:01.39Z</time></trkpt><trkpt lat="43.9376341" lon="12.6033029"><ele>89.0</ele><time>2026-04-26T10:56:02.393Z</time></trkpt><trkpt lat="43.9377351" lon="12.603282"><ele>89.0</ele><time>2026-04-26T10:56:03.395Z</time></trkpt><trkpt lat="43.9378319" lon="12.6032761"><ele>88.0</ele><time>2026-04-26T10:56:04.392Z</time></trkpt><trkpt lat="43.9379201" lon="12.6032872"><ele>87.0</ele><time>2026-04-26T10:56:05.397Z</time></trkpt><trkpt lat="43.9379988" lon="12.6033481"><ele>86.0</ele><time>2026-04-26T10:56:06.396Z</time></trkpt><trkpt lat="43.9380739" lon="12.6034492"><ele>85.0</ele><time>2026-04-26T10:56:07.397Z</time></trkpt><trkpt lat="43.938149" lon="12.6035898"><ele>84.0</ele><time>2026-04-26T10:56:08.4Z</time></trkpt><trkpt lat="43.9382222" lon="12.6037429"><ele>82.25</ele><time>2026-04-26T10:56:09.4Z</time></trkpt><trkpt lat="43.9383036" lon="12.6038934"><ele>80.5</ele><time>2026-04-26T10:56:10.4Z</time></trkpt><trkpt lat="43.9383896" lon="12.6040454"><ele>78.75</ele><time>2026-04-26T10:56:11.404Z</time></trkpt><trkpt lat="43.938466" lon="12.6041898"><ele>77.0</ele><time>2026-04-26T10:56:12.392Z</time></trkpt><trkpt lat="43.9385393" lon="12.604338"><ele>76.0</ele><time>2026-04-26T10:56:13.393Z</time></trkpt><trkpt lat="43.938606" lon="12.6044812"><ele>75.0</ele><time>2026-04-26T10:56:14.393Z</time></trkpt><trkpt lat="43.9386703" lon="12.6046293"><ele>74.0</ele><time>2026-04-26T10:56:15.395Z</time></trkpt><trkpt lat="43.9387318" lon="12.6047734"><ele>73.0</ele><time>2026-04-26T10:56:16.394Z</time></trkpt><trkpt lat="43.9387934" lon="12.604912"><ele>72.66666666666666</ele><time>2026-04-26T10:56:17.392Z</time></trkpt><trkpt lat="43.9388451" lon="12.6050303"><ele>72.33333333333333</ele><time>2026-04-26T10:56:18.401Z</time></trkpt><trkpt lat="43.9388843" lon="12.6051341"><ele>72.0</ele><time>2026-04-26T10:56:19.4Z</time></trkpt><trkpt lat="43.9389196" lon="12.6052305"><ele>71.66666666666667</ele><time>2026-04-26T10:56:20.401Z</time></trkpt><trkpt lat="43.9389617" lon="12.6053205"><ele>71.33333333333334</ele><time>2026-04-26T10:56:21.395Z</time></trkpt><trkpt lat="43.9389955" lon="12.6054016"><ele>71.0</ele><time>2026-04-26T10:56:22.399Z</time></trkpt><trkpt lat="43.9390203" lon="12.6054953"><ele>70.0</ele><time>2026-04-26T10:56:23.392Z</time></trkpt><trkpt lat="43.939045" lon="12.6056037"><ele>69.0</ele><time>2026-04-26T10:56:24.391Z</time></trkpt><trkpt lat="43.9390685" lon="12.6057323"><ele>68.0</ele><time>2026-04-26T10:56:25.393Z</time></trkpt><trkpt lat="43.9390908" lon="12.6058783"><ele>67.0</ele><time>2026-04-26T10:56:26.394Z</time></trkpt><trkpt lat="43.9391159" lon="12.606027"><ele>66.0</ele><time>2026-04-26T10:56:27.395Z</time></trkpt><trkpt lat="43.9391373" lon="12.6061805"><ele>64.5</ele><time>2026-04-26T10:56:28.398Z</time></trkpt><trkpt lat="43.9391569" lon="12.6063469"><ele>63.0</ele><time>2026-04-26T10:56:29.398Z</time></trkpt><trkpt lat="43.9391787" lon="12.6065129"><ele>61.5</ele><time>2026-04-26T10:56:30.396Z</time></trkpt><trkpt lat="43.9392072" lon="12.6066711"><ele>60.0</ele><time>2026-04-26T10:56:31.395Z</time></trkpt><trkpt lat="43.939236" lon="12.606825"><ele>59.6</ele><time>2026-04-26T10:56:32.395Z</time></trkpt><trkpt lat="43.9392649" lon="12.6069691"><ele>59.2</ele><time>2026-04-26T10:56:33.396Z</time></trkpt><trkpt lat="43.9392883" lon="12.6071129"><ele>58.8</ele><time>2026-04-26T10:56:34.394Z</time></trkpt><trkpt lat="43.9393062" lon="12.6072603"><ele>58.4</ele><time>2026-04-26T10:56:35.394Z</time></trkpt><trkpt lat="43.9393233" lon="12.6074067"><ele>58.0</ele><time>2026-04-26T10:56:36.396Z</time></trkpt><trkpt lat="43.9393391" lon="12.6075525"><ele>57.8</ele><time>2026-04-26T10:56:37.394Z</time></trkpt><trkpt lat="43.9393579" lon="12.607701"><ele>57.599999999999994</ele><time>2026-04-26T10:56:38.395Z</time></trkpt><trkpt lat="43.9393774" lon="12.607849"><ele>57.400000000000006</ele><time>2026-04-26T10:56:39.402Z</time></trkpt><trkpt lat="43.9394026" lon="12.6079979"><ele>57.2</ele><time>2026-04-26T10:56:40.399Z</time></trkpt><trkpt lat="43.9394383" lon="12.6081508"><ele>57.0</ele><time>2026-04-26T10:56:41.395Z</time></trkpt><trkpt lat="43.9394837" lon="12.6083025"><ele>57.25</ele><time>2026-04-26T10:56:42.396Z</time></trkpt><trkpt lat="43.9395501" lon="12.6084307"><ele>57.5</ele><time>2026-04-26T10:56:43.393Z</time></trkpt><trkpt lat="43.9396204" lon="12.6085687"><ele>57.75</ele><time>2026-04-26T10:56:44.392Z</time></trkpt><trkpt lat="43.9396789" lon="12.608719"><ele>58.0</ele><time>2026-04-26T10:56:45.398Z</time></trkpt><trkpt lat="43.9397295" lon="12.6088746"><ele>58.0</ele><time>2026-04-26T10:56:46.398Z</time></trkpt><trkpt lat="43.939787" lon="12.6090329"><ele>58.0</ele><time>2026-04-26T10:56:47.394Z</time></trkpt><trkpt lat="43.9398529" lon="12.6092048"><ele>58.0</ele><time>2026-04-26T10:56:48.401Z</time></trkpt><trkpt lat="43.93992" lon="12.609366"><ele>58.0</ele><time>2026-04-26T10:56:49.394Z</time></trkpt><trkpt lat="43.9399762" lon="12.6095001"><ele>58.33333333333333</ele><time>2026-04-26T10:56:50.396Z</time></trkpt><trkpt lat="43.940025" lon="12.6096188"><ele>58.666666666666664</ele><time>2026-04-26T10:56:51.393Z</time></trkpt><trkpt lat="43.9400763" lon="12.6097083"><ele>59.0</ele><time>2026-04-26T10:56:52.395Z</time></trkpt><trkpt lat="43.9401308" lon="12.6097565"><ele>59.33333333333333</ele><time>2026-04-26T10:56:53.397Z</time></trkpt><trkpt lat="43.9401988" lon="12.6097536"><ele>59.666666666666664</ele><time>2026-04-26T10:56:54.391Z</time></trkpt><trkpt lat="43.9402681" lon="12.6097429"><ele>60.0</ele><time>2026-04-26T10:56:55.395Z</time></trkpt><trkpt lat="43.9403823" lon="12.609772"><ele>59.2</ele><time>2026-04-26T10:56:57.393Z</time></trkpt><trkpt lat="43.9404295" lon="12.6098436"><ele>58.4</ele><time>2026-04-26T10:56:58.397Z</time></trkpt><trkpt lat="43.9404596" lon="12.6099601"><ele>57.599999999999994</ele><time>2026-04-26T10:56:59.394Z</time></trkpt><trkpt lat="43.940477" lon="12.6100798"><ele>56.8</ele><time>2026-04-26T10:57:00.397Z</time></trkpt><trkpt lat="43.9404939" lon="12.6102223"><ele>56.0</ele><time>2026-04-26T10:57:01.397Z</time></trkpt><trkpt lat="43.9405044" lon="12.6103711"><ele>55.199999999999996</ele><time>2026-04-26T10:57:02.396Z</time></trkpt><trkpt lat="43.94052" lon="12.6105184"><ele>54.39999999999999</ele><time>2026-04-26T10:57:03.393Z</time></trkpt><trkpt lat="43.9405318" lon="12.6106673"><ele>53.6</ele><time>2026-04-26T10:57:04.395Z</time></trkpt><trkpt lat="43.9405525" lon="12.6108208"><ele>52.8</ele><time>2026-04-26T10:57:05.395Z</time></trkpt><trkpt lat="43.9405598" lon="12.6109773"><ele>52.0</ele><time>2026-04-26T10:57:06.396Z</time></trkpt><trkpt lat="43.9405492" lon="12.611127"><ele>52.0</ele><time>2026-04-26T10:57:07.396Z</time></trkpt><trkpt lat="43.9405251" lon="12.6112742"><ele>52.0</ele><time>2026-04-26T10:57:08.397Z</time></trkpt><trkpt lat="43.9404861" lon="12.6113989"><ele>52.0</ele><time>2026-04-26T10:57:09.401Z</time></trkpt><trkpt lat="43.9404327" lon="12.6115215"><ele>52.0</ele><time>2026-04-26T10:57:10.402Z</time></trkpt><trkpt lat="43.9403664" lon="12.611632"><ele>52.0</ele><time>2026-04-26T10:57:11.397Z</time></trkpt><trkpt lat="43.9402869" lon="12.6117613"><ele>52.0</ele><time>2026-04-26T10:57:12.398Z</time></trkpt><trkpt lat="43.9401921" lon="12.6119025"><ele>52.0</ele><time>2026-04-26T10:57:13.393Z</time></trkpt><trkpt lat="43.9400953" lon="12.6120493"><ele>52.0</ele><time>2026-04-26T10:57:14.394Z</time></trkpt><trkpt lat="43.9400008" lon="12.6122009"><ele>52.0</ele><time>2026-04-26T10:57:15.398Z</time></trkpt><trkpt lat="43.939913" lon="12.6123589"><ele>52.75</ele><time>2026-04-26T10:57:16.393Z</time></trkpt><trkpt lat="43.9398278" lon="12.6125176"><ele>53.5</ele><time>2026-04-26T10:57:17.395Z</time></trkpt><trkpt lat="43.9397555" lon="12.6126835"><ele>54.25</ele><time>2026-04-26T10:57:18.399Z</time></trkpt><trkpt lat="43.9396885" lon="12.612856"><ele>55.0</ele><time>2026-04-26T10:57:19.395Z</time></trkpt><trkpt lat="43.9396331" lon="12.6130461"><ele>55.666666666666664</ele><time>2026-04-26T10:57:20.396Z</time></trkpt><trkpt lat="43.9395803" lon="12.6132469"><ele>56.33333333333333</ele><time>2026-04-26T10:57:21.395Z</time></trkpt><trkpt lat="43.939526" lon="12.61347"><ele>57.0</ele><time>2026-04-26T10:57:22.394Z</time></trkpt><trkpt lat="43.9394747" lon="12.613694"><ele>58.0</ele><time>2026-04-26T10:57:23.394Z</time></trkpt><trkpt lat="43.9394218" lon="12.6139203"><ele>59.0</ele><time>2026-04-26T10:57:24.392Z</time></trkpt><trkpt lat="43.9393694" lon="12.614129"><ele>60.0</ele><time>2026-04-26T10:57:25.393Z</time></trkpt><trkpt lat="43.9393107" lon="12.6143274"><ele>61.0</ele><time>2026-04-26T10:57:26.393Z</time></trkpt><trkpt lat="43.9392437" lon="12.6145116"><ele>62.0</ele><time>2026-04-26T10:57:27.394Z</time></trkpt><trkpt lat="43.9391609" lon="12.6146807"><ele>63.0</ele><time>2026-04-26T10:57:28.394Z</time></trkpt><trkpt lat="43.9390734" lon="12.6148274"><ele>64.0</ele><time>2026-04-26T10:57:29.394Z</time></trkpt><trkpt lat="43.9389976" lon="12.6149621"><ele>64.5</ele><time>2026-04-26T10:57:30.393Z</time></trkpt><trkpt lat="43.9389378" lon="12.615096"><ele>65.0</ele><time>2026-04-26T10:57:31.393Z</time></trkpt><trkpt lat="43.9388867" lon="12.615244"><ele>65.5</ele><time>2026-04-26T10:57:32.398Z</time></trkpt><trkpt lat="43.9388474" lon="12.6154058"><ele>66.0</ele><time>2026-04-26T10:57:33.398Z</time></trkpt><trkpt lat="43.9388174" lon="12.615555"><ele>67.39999999999999</ele><time>2026-04-26T10:57:34.393Z</time></trkpt><trkpt lat="43.9387851" lon="12.6156869"><ele>68.8</ele><time>2026-04-26T10:57:35.394Z</time></trkpt><trkpt lat="43.9387461" lon="12.6158235"><ele>70.19999999999999</ele><time>2026-04-26T10:57:36.398Z</time></trkpt><trkpt lat="43.9387015" lon="12.6159695"><ele>71.6</ele><time>2026-04-26T10:57:37.396Z</time></trkpt><trkpt lat="43.938644" lon="12.6161006"><ele>73.0</ele><time>2026-04-26T10:57:38.398Z</time></trkpt><trkpt lat="43.9385806" lon="12.6162022"><ele>74.2</ele><time>2026-04-26T10:57:39.396Z</time></trkpt><trkpt lat="43.9385258" lon="12.6162886"><ele>75.4</ele><time>2026-04-26T10:57:40.4Z</time></trkpt><trkpt lat="43.9384845" lon="12.6163811"><ele>76.60000000000001</ele><time>2026-04-26T10:57:41.393Z</time></trkpt><trkpt lat="43.9384399" lon="12.6165099"><ele>77.8</ele><time>2026-04-26T10:57:42.392Z</time></trkpt><trkpt lat="43.9383845" lon="12.6166537"><ele>79.0</ele><time>2026-04-26T10:57:43.399Z</time></trkpt><trkpt lat="43.9383281" lon="12.6167822"><ele>81.2</ele><time>2026-04-26T10:57:44.394Z</time></trkpt><trkpt lat="43.9382798" lon="12.6169019"><ele>83.4</ele><time>2026-04-26T10:57:45.393Z</time></trkpt><trkpt lat="43.9382346" lon="12.6170187"><ele>85.6</ele><time>2026-04-26T10:57:46.398Z</time></trkpt><trkpt lat="43.9381904" lon="12.6171294"><ele>87.8</ele><time>2026-04-26T10:57:47.403Z</time></trkpt><trkpt lat="43.938151" lon="12.6172319"><ele>90.0</ele><time>2026-04-26T10:57:48.394Z</time></trkpt><trkpt lat="43.9381168" lon="12.6173497"><ele>91.0</ele><time>2026-04-26T10:57:49.398Z</time></trkpt><trkpt lat="43.9380885" lon="12.6174744"><ele>92.0</ele><time>2026-04-26T10:57:50.394Z</time></trkpt><trkpt lat="43.9380698" lon="12.6176001"><ele>93.0</ele><time>2026-04-26T10:57:51.396Z</time></trkpt><trkpt lat="43.9380682" lon="12.6177286"><ele>94.0</ele><time>2026-04-26T10:57:52.397Z</time></trkpt><trkpt lat="43.9380853" lon="12.6178705"><ele>95.0</ele><time>2026-04-26T10:57:53.394Z</time></trkpt><trkpt lat="43.9381033" lon="12.6180219"><ele>96.5</ele><time>2026-04-26T10:57:54.4Z</time></trkpt><trkpt lat="43.9381148" lon="12.6181698"><ele>98.0</ele><time>2026-04-26T10:57:55.401Z</time></trkpt><trkpt lat="43.9381089" lon="12.6183277"><ele>99.5</ele><time>2026-04-26T10:57:56.393Z</time></trkpt><trkpt lat="43.9380895" lon="12.6184904"><ele>101.0</ele><time>2026-04-26T10:57:57.397Z</time></trkpt><trkpt lat="43.9380594" lon="12.6186604"><ele>101.5</ele><time>2026-04-26T10:57:58.393Z</time></trkpt><trkpt lat="43.9380237" lon="12.6188367"><ele>102.0</ele><time>2026-04-26T10:57:59.399Z</time></trkpt><trkpt lat="43.9379985" lon="12.6189965"><ele>102.5</ele><time>2026-04-26T10:58:00.393Z</time></trkpt><trkpt lat="43.9379721" lon="12.6191477"><ele>103.0</ele><time>2026-04-26T10:58:01.394Z</time></trkpt><trkpt lat="43.9379359" lon="12.6192907"><ele>103.0</ele><time>2026-04-26T10:58:02.396Z</time></trkpt><trkpt lat="43.9378988" lon="12.6194391"><ele>103.0</ele><time>2026-04-26T10:58:03.395Z</time></trkpt><trkpt lat="43.9378683" lon="12.6195998"><ele>103.0</ele><time>2026-04-26T10:58:04.396Z</time></trkpt><trkpt lat="43.9378496" lon="12.6197773"><ele>103.0</ele><time>2026-04-26T10:58:05.396Z</time></trkpt><trkpt lat="43.9378322" lon="12.6199535"><ele>105.0</ele><time>2026-04-26T10:58:06.398Z</time></trkpt><trkpt lat="43.9378163" lon="12.6201188"><ele>107.0</ele><time>2026-04-26T10:58:07.395Z</time></trkpt><trkpt lat="43.9378083" lon="12.6202769"><ele>109.0</ele><time>2026-04-26T10:58:08.393Z</time></trkpt><trkpt lat="43.9378147" lon="12.6204379"><ele>111.0</ele><time>2026-04-26T10:58:09.394Z</time></trkpt><trkpt lat="43.9378282" lon="12.6206122"><ele>113.5</ele><time>2026-04-26T10:58:10.396Z</time></trkpt><trkpt lat="43.9378358" lon="12.6207809"><ele>116.0</ele><time>2026-04-26T10:58:11.393Z</time></trkpt><trkpt lat="43.937843" lon="12.6209444"><ele>118.5</ele><time>2026-04-26T10:58:12.394Z</time></trkpt><trkpt lat="43.9378456" lon="12.6211001"><ele>121.0</ele><time>2026-04-26T10:58:13.395Z</time></trkpt><trkpt lat="43.9378363" lon="12.6212453"><ele>123.6</ele><time>2026-04-26T10:58:14.395Z</time></trkpt><trkpt lat="43.9378097" lon="12.6213759"><ele>126.19999999999999</ele><time>2026-04-26T10:58:15.394Z</time></trkpt><trkpt lat="43.9377685" lon="12.6214829"><ele>128.8</ele><time>2026-04-26T10:58:16.397Z</time></trkpt><trkpt lat="43.9377259" lon="12.6215543"><ele>131.4</ele><time>2026-04-26T10:58:17.394Z</time></trkpt><trkpt lat="43.9376502" lon="12.6216372"><ele>134.0</ele><time>2026-04-26T10:58:19.393Z</time></trkpt><trkpt lat="43.9375443" lon="12.621688"><ele>134.8</ele><time>2026-04-26T10:58:21.396Z</time></trkpt><trkpt lat="43.9374793" lon="12.6217315"><ele>135.60000000000002</ele><time>2026-04-26T10:58:22.396Z</time></trkpt><trkpt lat="43.9374075" lon="12.621817"><ele>136.4</ele><time>2026-04-26T10:58:23.4Z</time></trkpt><trkpt lat="43.9373332" lon="12.6219557"><ele>137.20000000000002</ele><time>2026-04-26T10:58:24.397Z</time></trkpt><trkpt lat="43.9372771" lon="12.6221283"><ele>138.0</ele><time>2026-04-26T10:58:25.4Z</time></trkpt><trkpt lat="43.9372553" lon="12.6222964"><ele>140.5</ele><time>2026-04-26T10:58:26.393Z</time></trkpt><trkpt lat="43.9372677" lon="12.6224737"><ele>143.0</ele><time>2026-04-26T10:58:27.392Z</time></trkpt><trkpt lat="43.9373066" lon="12.6226711"><ele>145.5</ele><time>2026-04-26T10:58:28.396Z</time></trkpt><trkpt lat="43.9373575" lon="12.6228822"><ele>148.0</ele><time>2026-04-26T10:58:29.394Z</time></trkpt><trkpt lat="43.9374087" lon="12.62309"><ele>149.0</ele><time>2026-04-26T10:58:30.396Z</time></trkpt><trkpt lat="43.937458" lon="12.6232871"><ele>150.0</ele><time>2026-04-26T10:58:31.392Z</time></trkpt><trkpt lat="43.9375077" lon="12.6234732"><ele>151.0</ele><time>2026-04-26T10:58:32.391Z</time></trkpt><trkpt lat="43.9375496" lon="12.6236525"><ele>152.0</ele><time>2026-04-26T10:58:33.392Z</time></trkpt><trkpt lat="43.9375733" lon="12.6238354"><ele>153.0</ele><time>2026-04-26T10:58:34.396Z</time></trkpt><trkpt lat="43.937567" lon="12.6240096"><ele>154.0</ele><time>2026-04-26T10:58:35.394Z</time></trkpt><trkpt lat="43.9375243" lon="12.624175"><ele>155.0</ele><time>2026-04-26T10:58:36.397Z</time></trkpt><trkpt lat="43.9374458" lon="12.6243329"><ele>156.0</ele><time>2026-04-26T10:58:37.395Z</time></trkpt><trkpt lat="43.9373349" lon="12.624467"><ele>157.66666666666666</ele><time>2026-04-26T10:58:38.395Z</time></trkpt><trkpt lat="43.9372042" lon="12.6245752"><ele>159.33333333333331</ele><time>2026-04-26T10:58:39.391Z</time></trkpt><trkpt lat="43.9370643" lon="12.6246753"><ele>161.0</ele><time>2026-04-26T10:58:40.392Z</time></trkpt><trkpt lat="43.9369286" lon="12.6247758"><ele>161.0</ele><time>2026-04-26T10:58:41.391Z</time></trkpt><trkpt lat="43.936802" lon="12.6248673"><ele>161.0</ele><time>2026-04-26T10:58:42.394Z</time></trkpt><trkpt lat="43.9366788" lon="12.6249389"><ele>161.0</ele><time>2026-04-26T10:58:43.398Z</time></trkpt><trkpt lat="43.9365574" lon="12.6249678"><ele>161.0</ele><time>2026-04-26T10:58:44.394Z</time></trkpt><trkpt lat="43.9364474" lon="12.6249611"><ele>160.20000000000002</ele><time>2026-04-26T10:58:45.397Z</time></trkpt><trkpt lat="43.9363596" lon="12.6249385"><ele>159.4</ele><time>2026-04-26T10:58:46.403Z</time></trkpt><trkpt lat="43.9362846" lon="12.6249163"><ele>158.6</ele><time>2026-04-26T10:58:47.406Z</time></trkpt><trkpt lat="43.9362058" lon="12.6248929"><ele>157.8</ele><time>2026-04-26T10:58:48.399Z</time></trkpt><trkpt lat="43.9360996" lon="12.6248629"><ele>157.0</ele><time>2026-04-26T10:58:49.391Z</time></trkpt><trkpt lat="43.9359636" lon="12.6248369"><ele>156.66666666666669</ele><time>2026-04-26T10:58:50.393Z</time></trkpt><trkpt lat="43.9358087" lon="12.6248163"><ele>156.33333333333334</ele><time>2026-04-26T10:58:51.393Z</time></trkpt><trkpt lat="43.9356425" lon="12.6247855"><ele>156.0</ele><time>2026-04-26T10:58:52.393Z</time></trkpt><trkpt lat="43.9354706" lon="12.624742"><ele>156.0</ele><time>2026-04-26T10:58:53.396Z</time></trkpt><trkpt lat="43.9353074" lon="12.6247096"><ele>156.0</ele><time>2026-04-26T10:58:54.394Z</time></trkpt><trkpt lat="43.9351561" lon="12.6247154"><ele>156.0</ele><time>2026-04-26T10:58:55.394Z</time></trkpt><trkpt lat="43.9350098" lon="12.6247401"><ele>156.5</ele><time>2026-04-26T10:58:56.394Z</time></trkpt><trkpt lat="43.934875" lon="12.6247686"><ele>157.0</ele><time>2026-04-26T10:58:57.394Z</time></trkpt><trkpt lat="43.9347353" lon="12.624798"><ele>157.5</ele><time>2026-04-26T10:58:58.393Z</time></trkpt><trkpt lat="43.9345956" lon="12.6248333"><ele>158.0</ele><time>2026-04-26T10:58:59.393Z</time></trkpt><trkpt lat="43.9344582" lon="12.6248667"><ele>158.0</ele><time>2026-04-26T10:59:00.392Z</time></trkpt><trkpt lat="43.9343231" lon="12.6249022"><ele>158.0</ele><time>2026-04-26T10:59:01.395Z</time></trkpt><trkpt lat="43.9341877" lon="12.6249348"><ele>158.0</ele><time>2026-04-26T10:59:02.393Z</time></trkpt><trkpt lat="43.9340527" lon="12.6249628"><ele>158.0</ele><time>2026-04-26T10:59:03.397Z</time></trkpt><trkpt lat="43.9339229" lon="12.6249889"><ele>159.75</ele><time>2026-04-26T10:59:04.397Z</time></trkpt><trkpt lat="43.9337953" lon="12.6250124"><ele>161.5</ele><time>2026-04-26T10:59:05.396Z</time></trkpt><trkpt lat="43.9336695" lon="12.6250222"><ele>163.25</ele><time>2026-04-26T10:59:06.4Z</time></trkpt><trkpt lat="43.9335492" lon="12.6250212"><ele>165.0</ele><time>2026-04-26T10:59:07.398Z</time></trkpt><trkpt lat="43.9334279" lon="12.6250528"><ele>166.0</ele><time>2026-04-26T10:59:08.391Z</time></trkpt><trkpt lat="43.9333214" lon="12.6251349"><ele>167.0</ele><time>2026-04-26T10:59:09.393Z</time></trkpt><trkpt lat="43.9332194" lon="12.6252517"><ele>168.0</ele><time>2026-04-26T10:59:10.393Z</time></trkpt><trkpt lat="43.9331243" lon="12.6253521"><ele>169.0</ele><time>2026-04-26T10:59:11.398Z</time></trkpt><trkpt lat="43.9330308" lon="12.6254569"><ele>169.0</ele><time>2026-04-26T10:59:12.399Z</time></trkpt><trkpt lat="43.9329378" lon="12.6255564"><ele>169.0</ele><time>2026-04-26T10:59:13.4Z</time></trkpt><trkpt lat="43.9328534" lon="12.6256513"><ele>169.0</ele><time>2026-04-26T10:59:14.392Z</time></trkpt><trkpt lat="43.9327777" lon="12.6257354"><ele>169.0</ele><time>2026-04-26T10:59:15.394Z</time></trkpt><trkpt lat="43.932708" lon="12.6258106"><ele>169.0</ele><time>2026-04-26T10:59:16.397Z</time></trkpt><trkpt lat="43.9326396" lon="12.6258788"><ele>169.6</ele><time>2026-04-26T10:59:17.395Z</time></trkpt><trkpt lat="43.9325482" lon="12.6259736"><ele>170.2</ele><time>2026-04-26T10:59:19.396Z</time></trkpt><trkpt lat="43.9324891" lon="12.6260358"><ele>170.79999999999998</ele><time>2026-04-26T10:59:21.401Z</time></trkpt><trkpt lat="43.9324288" lon="12.6260966"><ele>171.39999999999998</ele><time>2026-04-26T10:59:40.4Z</time></trkpt><trkpt lat="43.9323354" lon="12.6261877"><ele>172.0</ele><time>2026-04-26T10:59:42.408Z</time></trkpt><trkpt lat="43.9322689" lon="12.6262402"><ele>172.0</ele><time>2026-04-26T10:59:43.405Z</time></trkpt><trkpt lat="43.9321923" lon="12.6262874"><ele>172.0</ele><time>2026-04-26T10:59:44.398Z</time></trkpt><trkpt lat="43.9321108" lon="12.626332"><ele>172.0</ele><time>2026-04-26T10:59:45.394Z</time></trkpt><trkpt lat="43.9320384" lon="12.6263915"><ele>172.0</ele><time>2026-04-26T10:59:46.394Z</time></trkpt><trkpt lat="43.9319713" lon="12.6264811"><ele>172.0</ele><time>2026-04-26T10:59:47.399Z</time></trkpt><trkpt lat="43.9319218" lon="12.6265979"><ele>172.0</ele><time>2026-04-26T10:59:48.398Z</time></trkpt><trkpt lat="43.9318817" lon="12.6267356"><ele>172.0</ele><time>2026-04-26T10:59:49.397Z</time></trkpt><trkpt lat="43.9318446" lon="12.6268936"><ele>172.0</ele><time>2026-04-26T10:59:50.398Z</time></trkpt><trkpt lat="43.9318047" lon="12.6270773"><ele>172.0</ele><time>2026-04-26T10:59:51.392Z</time></trkpt><trkpt lat="43.9317671" lon="12.6272761"><ele>172.0</ele><time>2026-04-26T10:59:52.395Z</time></trkpt><trkpt lat="43.9317346" lon="12.6274754"><ele>172.0</ele><time>2026-04-26T10:59:53.396Z</time></trkpt><trkpt lat="43.9317026" lon="12.6276672"><ele>172.0</ele><time>2026-04-26T10:59:54.397Z</time></trkpt><trkpt lat="43.9316799" lon="12.6278521"><ele>172.0</ele><time>2026-04-26T10:59:55.393Z</time></trkpt><trkpt lat="43.9316564" lon="12.6280374"><ele>172.0</ele><time>2026-04-26T10:59:56.392Z</time></trkpt><trkpt lat="43.9316357" lon="12.6282213"><ele>171.75</ele><time>2026-04-26T10:59:57.394Z</time></trkpt><trkpt lat="43.9316128" lon="12.6283912"><ele>171.5</ele><time>2026-04-26T10:59:58.398Z</time></trkpt><trkpt lat="43.9315911" lon="12.6285511"><ele>171.25</ele><time>2026-04-26T10:59:59.395Z</time></trkpt><trkpt lat="43.9315699" lon="12.6287142"><ele>171.0</ele><time>2026-04-26T11:00:00.401Z</time></trkpt><trkpt lat="43.931553" lon="12.6288735"><ele>170.75</ele><time>2026-04-26T11:00:01.4Z</time></trkpt><trkpt lat="43.9315395" lon="12.6290344"><ele>170.5</ele><time>2026-04-26T11:00:02.395Z</time></trkpt><trkpt lat="43.9315265" lon="12.6291986"><ele>170.25</ele><time>2026-04-26T11:00:03.397Z</time></trkpt><trkpt lat="43.9315135" lon="12.6293657"><ele>170.0</ele><time>2026-04-26T11:00:04.396Z</time></trkpt><trkpt lat="43.9315046" lon="12.6295278"><ele>169.5</ele><time>2026-04-26T11:00:05.393Z</time></trkpt><trkpt lat="43.9314916" lon="12.6296922"><ele>169.0</ele><time>2026-04-26T11:00:06.393Z</time></trkpt><trkpt lat="43.9314788" lon="12.6298585"><ele>168.5</ele><time>2026-04-26T11:00:07.395Z</time></trkpt><trkpt lat="43.9314665" lon="12.630031"><ele>168.0</ele><time>2026-04-26T11:00:08.396Z</time></trkpt><trkpt lat="43.9314516" lon="12.6302155"><ele>167.0</ele><time>2026-04-26T11:00:09.397Z</time></trkpt><trkpt lat="43.931438" lon="12.6304091"><ele>166.0</ele><time>2026-04-26T11:00:10.393Z</time></trkpt><trkpt lat="43.9314175" lon="12.6305997"><ele>165.0</ele><time>2026-04-26T11:00:11.398Z</time></trkpt><trkpt lat="43.9314032" lon="12.630782"><ele>164.0</ele><time>2026-04-26T11:00:12.395Z</time></trkpt><trkpt lat="43.9313861" lon="12.6309439"><ele>164.0</ele><time>2026-04-26T11:00:13.397Z</time></trkpt><trkpt lat="43.9313721" lon="12.6310807"><ele>164.0</ele><time>2026-04-26T11:00:14.397Z</time></trkpt><trkpt lat="43.9313633" lon="12.6311967"><ele>164.0</ele><time>2026-04-26T11:00:15.398Z</time></trkpt><trkpt lat="43.9313565" lon="12.6313003"><ele>164.0</ele><time>2026-04-26T11:00:16.397Z</time></trkpt><trkpt lat="43.9313498" lon="12.6313952"><ele>164.0</ele><time>2026-04-26T11:00:17.392Z</time></trkpt><trkpt lat="43.931396" lon="12.6315294"><ele>164.0</ele><time>2026-04-26T11:00:19.397Z</time></trkpt><trkpt lat="43.9315067" lon="12.6315551"><ele>163.42857142857142</ele><time>2026-04-26T11:00:21.393Z</time></trkpt><trkpt lat="43.9315709" lon="12.6315603"><ele>162.85714285714286</ele><time>2026-04-26T11:00:22.394Z</time></trkpt><trkpt lat="43.9316344" lon="12.6316006"><ele>162.28571428571428</ele><time>2026-04-26T11:00:23.403Z</time></trkpt><trkpt lat="43.9316874" lon="12.6316675"><ele>161.71428571428572</ele><time>2026-04-26T11:00:24.392Z</time></trkpt><trkpt lat="43.9317283" lon="12.6317534"><ele>161.14285714285714</ele><time>2026-04-26T11:00:25.393Z</time></trkpt><trkpt lat="43.9317521" lon="12.6318428"><ele>160.57142857142856</ele><time>2026-04-26T11:00:26.394Z</time></trkpt><trkpt lat="43.9317556" lon="12.6319517"><ele>160.0</ele><time>2026-04-26T11:00:27.4Z</time></trkpt><trkpt lat="43.9317465" lon="12.6320714"><ele>159.25</ele><time>2026-04-26T11:00:28.398Z</time></trkpt><trkpt lat="43.9317217" lon="12.632209"><ele>158.5</ele><time>2026-04-26T11:00:29.397Z</time></trkpt><trkpt lat="43.9316825" lon="12.6323583"><ele>157.75</ele><time>2026-04-26T11:00:30.402Z</time></trkpt><trkpt lat="43.9316421" lon="12.6325123"><ele>157.0</ele><time>2026-04-26T11:00:31.393Z</time></trkpt><trkpt lat="43.9315922" lon="12.6326637"><ele>157.0</ele><time>2026-04-26T11:00:32.394Z</time></trkpt><trkpt lat="43.9315317" lon="12.6328003"><ele>157.0</ele><time>2026-04-26T11:00:33.391Z</time></trkpt><trkpt lat="43.9314731" lon="12.6329283"><ele>157.0</ele><time>2026-04-26T11:00:34.394Z</time></trkpt><trkpt lat="43.9314262" lon="12.6330664"><ele>157.0</ele><time>2026-04-26T11:00:35.394Z</time></trkpt><trkpt lat="43.9314045" lon="12.6332197"><ele>157.0</ele><time>2026-04-26T11:00:36.395Z</time></trkpt><trkpt lat="43.9314088" lon="12.6334079"><ele>156.0</ele><time>2026-04-26T11:00:37.397Z</time></trkpt><trkpt lat="43.9314381" lon="12.6336007"><ele>155.0</ele><time>2026-04-26T11:00:38.399Z</time></trkpt><trkpt lat="43.9314571" lon="12.6337858"><ele>154.0</ele><time>2026-04-26T11:00:39.395Z</time></trkpt><trkpt lat="43.9314699" lon="12.633954"><ele>153.0</ele><time>2026-04-26T11:00:40.399Z</time></trkpt><trkpt lat="43.9314847" lon="12.6341135"><ele>151.75</ele><time>2026-04-26T11:00:41.433Z</time></trkpt><trkpt lat="43.9314944" lon="12.634276"><ele>150.5</ele><time>2026-04-26T11:00:42.397Z</time></trkpt><trkpt lat="43.9315051" lon="12.6344365"><ele>149.25</ele><time>2026-04-26T11:00:43.395Z</time></trkpt><trkpt lat="43.9314972" lon="12.6345919"><ele>148.0</ele><time>2026-04-26T11:00:44.391Z</time></trkpt><trkpt lat="43.931475" lon="12.6347587"><ele>146.66666666666669</ele><time>2026-04-26T11:00:45.395Z</time></trkpt><trkpt lat="43.9314441" lon="12.6349503"><ele>145.33333333333334</ele><time>2026-04-26T11:00:46.396Z</time></trkpt><trkpt lat="43.9313987" lon="12.6351676"><ele>144.0</ele><time>2026-04-26T11:00:47.394Z</time></trkpt><trkpt lat="43.9313502" lon="12.6354012"><ele>142.66666666666666</ele><time>2026-04-26T11:00:48.393Z</time></trkpt><trkpt lat="43.9313129" lon="12.6356245"><ele>141.33333333333331</ele><time>2026-04-26T11:00:49.393Z</time></trkpt><trkpt lat="43.9312869" lon="12.6358509"><ele>140.0</ele><time>2026-04-26T11:00:50.393Z</time></trkpt><trkpt lat="43.9312738" lon="12.6360894"><ele>138.33333333333331</ele><time>2026-04-26T11:00:51.397Z</time></trkpt><trkpt lat="43.9312779" lon="12.6363306"><ele>136.66666666666666</ele><time>2026-04-26T11:00:52.396Z</time></trkpt><trkpt lat="43.931286" lon="12.6365652"><ele>135.0</ele><time>2026-04-26T11:00:53.397Z</time></trkpt><trkpt lat="43.9312612" lon="12.6367865"><ele>135.0</ele><time>2026-04-26T11:00:54.395Z</time></trkpt><trkpt lat="43.9312216" lon="12.6369921"><ele>135.0</ele><time>2026-04-26T11:00:55.397Z</time></trkpt><trkpt lat="43.9311937" lon="12.6371911"><ele>135.0</ele><time>2026-04-26T11:00:56.394Z</time></trkpt><trkpt lat="43.9311712" lon="12.6374132"><ele>135.0</ele><time>2026-04-26T11:00:57.395Z</time></trkpt><trkpt lat="43.9311609" lon="12.6376624"><ele>135.0</ele><time>2026-04-26T11:00:58.395Z</time></trkpt><trkpt lat="43.9311733" lon="12.6379048"><ele>135.0</ele><time>2026-04-26T11:00:59.4Z</time></trkpt><trkpt lat="43.9311985" lon="12.6381337"><ele>135.25</ele><time>2026-04-26T11:01:00.401Z</time></trkpt><trkpt lat="43.9312245" lon="12.6383368"><ele>135.5</ele><time>2026-04-26T11:01:01.393Z</time></trkpt><trkpt lat="43.9312462" lon="12.6385174"><ele>135.75</ele><time>2026-04-26T11:01:02.394Z</time></trkpt><trkpt lat="43.9312666" lon="12.6386721"><ele>136.0</ele><time>2026-04-26T11:01:03.392Z</time></trkpt><trkpt lat="43.9312965" lon="12.6388058"><ele>135.0</ele><time>2026-04-26T11:01:04.398Z</time></trkpt><trkpt lat="43.9313361" lon="12.6389197"><ele>134.0</ele><time>2026-04-26T11:01:05.397Z</time></trkpt><trkpt lat="43.9313914" lon="12.6390111"><ele>133.0</ele><time>2026-04-26T11:01:06.401Z</time></trkpt><trkpt lat="43.931463" lon="12.6390805"><ele>132.0</ele><time>2026-04-26T11:01:07.395Z</time></trkpt><trkpt lat="43.931547" lon="12.639127"><ele>131.0</ele><time>2026-04-26T11:01:08.395Z</time></trkpt><trkpt lat="43.9316355" lon="12.639155"><ele>130.0</ele><time>2026-04-26T11:01:09.399Z</time></trkpt><trkpt lat="43.9317434" lon="12.6391747"><ele>128.25</ele><time>2026-04-26T11:01:10.401Z</time></trkpt><trkpt lat="43.9318597" lon="12.639191"><ele>126.5</ele><time>2026-04-26T11:01:11.399Z</time></trkpt><trkpt lat="43.9319886" lon="12.6392028"><ele>124.75</ele><time>2026-04-26T11:01:12.394Z</time></trkpt><trkpt lat="43.9321215" lon="12.6392027"><ele>123.0</ele><time>2026-04-26T11:01:13.391Z</time></trkpt><trkpt lat="43.93227" lon="12.6392128"><ele>123.0</ele><time>2026-04-26T11:01:14.392Z</time></trkpt><trkpt lat="43.932436" lon="12.6392145"><ele>123.0</ele><time>2026-04-26T11:01:15.394Z</time></trkpt><trkpt lat="43.9325967" lon="12.6392178"><ele>123.0</ele><time>2026-04-26T11:01:16.391Z</time></trkpt><trkpt lat="43.9327551" lon="12.6392161"><ele>120.75</ele><time>2026-04-26T11:01:17.394Z</time></trkpt><trkpt lat="43.932902" lon="12.639213"><ele>118.5</ele><time>2026-04-26T11:01:18.391Z</time></trkpt><trkpt lat="43.933043" lon="12.6392129"><ele>116.25</ele><time>2026-04-26T11:01:19.396Z</time></trkpt><trkpt lat="43.9331814" lon="12.6392019"><ele>114.0</ele><time>2026-04-26T11:01:20.397Z</time></trkpt><trkpt lat="43.9333062" lon="12.6391939"><ele>112.6</ele><time>2026-04-26T11:01:21.391Z</time></trkpt><trkpt lat="43.9334218" lon="12.6391866"><ele>111.2</ele><time>2026-04-26T11:01:22.405Z</time></trkpt><trkpt lat="43.9335257" lon="12.6392032"><ele>109.79999999999998</ele><time>2026-04-26T11:01:23.397Z</time></trkpt><trkpt lat="43.9336187" lon="12.6392552"><ele>108.39999999999999</ele><time>2026-04-26T11:01:24.396Z</time></trkpt><trkpt lat="43.9336928" lon="12.6393486"><ele>107.0</ele><time>2026-04-26T11:01:25.392Z</time></trkpt><trkpt lat="43.9337502" lon="12.639477"><ele>107.0</ele><time>2026-04-26T11:01:26.391Z</time></trkpt><trkpt lat="43.9338047" lon="12.6396328"><ele>107.0</ele><time>2026-04-26T11:01:27.394Z</time></trkpt><trkpt lat="43.9338611" lon="12.63979"><ele>107.0</ele><time>2026-04-26T11:01:28.394Z</time></trkpt><trkpt lat="43.9339263" lon="12.6399366"><ele>107.0</ele><time>2026-04-26T11:01:29.396Z</time></trkpt><trkpt lat="43.9339986" lon="12.6400834"><ele>107.0</ele><time>2026-04-26T11:01:30.395Z</time></trkpt><trkpt lat="43.9340762" lon="12.6402332"><ele>107.0</ele><time>2026-04-26T11:01:31.399Z</time></trkpt><trkpt lat="43.9341553" lon="12.6403886"><ele>107.0</ele><time>2026-04-26T11:01:32.398Z</time></trkpt><trkpt lat="43.9342349" lon="12.6405491"><ele>107.0</ele><time>2026-04-26T11:01:33.396Z</time></trkpt><trkpt lat="43.9343187" lon="12.6407136"><ele>103.75</ele><time>2026-04-26T11:01:34.393Z</time></trkpt><trkpt lat="43.9344012" lon="12.6408843"><ele>100.5</ele><time>2026-04-26T11:01:35.394Z</time></trkpt><trkpt lat="43.9344792" lon="12.6410602"><ele>97.25</ele><time>2026-04-26T11:01:36.391Z</time></trkpt><trkpt lat="43.9345566" lon="12.6412402"><ele>94.0</ele><time>2026-04-26T11:01:37.393Z</time></trkpt><trkpt lat="43.9346281" lon="12.6414148"><ele>93.75</ele><time>2026-04-26T11:01:38.395Z</time></trkpt><trkpt lat="43.9346966" lon="12.641579"><ele>93.5</ele><time>2026-04-26T11:01:39.393Z</time></trkpt><trkpt lat="43.9347669" lon="12.6417364"><ele>93.25</ele><time>2026-04-26T11:01:40.395Z</time></trkpt><trkpt lat="43.9348366" lon="12.6418904"><ele>93.0</ele><time>2026-04-26T11:01:41.399Z</time></trkpt><trkpt lat="43.9349118" lon="12.6420367"><ele>92.25</ele><time>2026-04-26T11:01:42.402Z</time></trkpt><trkpt lat="43.9349941" lon="12.6421724"><ele>91.5</ele><time>2026-04-26T11:01:43.4Z</time></trkpt><trkpt lat="43.9350768" lon="12.6422968"><ele>90.75</ele><time>2026-04-26T11:01:44.392Z</time></trkpt><trkpt lat="43.9351587" lon="12.642399"><ele>90.0</ele><time>2026-04-26T11:01:45.392Z</time></trkpt><trkpt lat="43.9352334" lon="12.6424821"><ele>90.0</ele><time>2026-04-26T11:01:46.393Z</time></trkpt><trkpt lat="43.9352926" lon="12.6425588"><ele>90.0</ele><time>2026-04-26T11:01:47.393Z</time></trkpt><trkpt lat="43.9353372" lon="12.6426372"><ele>90.0</ele><time>2026-04-26T11:01:48.393Z</time></trkpt><trkpt lat="43.9353429" lon="12.6427624"><ele>90.0</ele><time>2026-04-26T11:01:50.397Z</time></trkpt><trkpt lat="43.9352613" lon="12.6428311"><ele>90.0</ele><time>2026-04-26T11:01:52.4Z</time></trkpt><trkpt lat="43.9351952" lon="12.6428507"><ele>90.0</ele><time>2026-04-26T11:01:53.399Z</time></trkpt><trkpt lat="43.9351164" lon="12.6428923"><ele>89.6</ele><time>2026-04-26T11:01:54.393Z</time></trkpt><trkpt lat="43.9350296" lon="12.6429608"><ele>89.2</ele><time>2026-04-26T11:01:55.394Z</time></trkpt><trkpt lat="43.9349364" lon="12.6430477"><ele>88.80000000000001</ele><time>2026-04-26T11:01:56.396Z</time></trkpt><trkpt lat="43.9348575" lon="12.6431435"><ele>88.4</ele><time>2026-04-26T11:01:57.397Z</time></trkpt><trkpt lat="43.9347979" lon="12.6432674"><ele>88.0</ele><time>2026-04-26T11:01:58.399Z</time></trkpt><trkpt lat="43.934739" lon="12.6434144"><ele>88.0</ele><time>2026-04-26T11:01:59.398Z</time></trkpt><trkpt lat="43.9346812" lon="12.6435584"><ele>88.0</ele><time>2026-04-26T11:02:00.397Z</time></trkpt><trkpt lat="43.934634" lon="12.643688"><ele>88.0</ele><time>2026-04-26T11:02:01.394Z</time></trkpt><trkpt lat="43.934591" lon="12.6438013"><ele>88.0</ele><time>2026-04-26T11:02:02.4Z</time></trkpt><trkpt lat="43.9345488" lon="12.6439024"><ele>88.0</ele><time>2026-04-26T11:02:03.393Z</time></trkpt><trkpt lat="43.9345061" lon="12.6439868"><ele>87.60000000000001</ele><time>2026-04-26T11:02:04.394Z</time></trkpt><trkpt lat="43.9344661" lon="12.6440547"><ele>87.2</ele><time>2026-04-26T11:02:05.393Z</time></trkpt><trkpt lat="43.9343874" lon="12.644138"><ele>86.8</ele><time>2026-04-26T11:02:07.394Z</time></trkpt><trkpt lat="43.9343166" lon="12.6442196"><ele>86.4</ele><time>2026-04-26T11:02:10.396Z</time></trkpt><trkpt lat="43.9342557" lon="12.6443156"><ele>86.0</ele><time>2026-04-26T11:02:12.406Z</time></trkpt><trkpt lat="43.934158" lon="12.6444271"><ele>85.85714285714286</ele><time>2026-04-26T11:02:14.391Z</time></trkpt><trkpt lat="43.9340959" lon="12.6444774"><ele>85.71428571428572</ele><time>2026-04-26T11:02:15.394Z</time></trkpt><trkpt lat="43.9340372" lon="12.6445303"><ele>85.57142857142858</ele><time>2026-04-26T11:02:16.395Z</time></trkpt><trkpt lat="43.9339804" lon="12.6445891"><ele>85.42857142857143</ele><time>2026-04-26T11:02:17.397Z</time></trkpt><trkpt lat="43.9339203" lon="12.6446518"><ele>85.28571428571428</ele><time>2026-04-26T11:02:18.397Z</time></trkpt><trkpt lat="43.9338684" lon="12.6447223"><ele>85.14285714285715</ele><time>2026-04-26T11:02:19.39Z</time></trkpt><trkpt lat="43.9338202" lon="12.6447978"><ele>85.0</ele><time>2026-04-26T11:02:20.39Z</time></trkpt><trkpt lat="43.9337717" lon="12.6448724"><ele>85.0</ele><time>2026-04-26T11:02:21.39Z</time></trkpt><trkpt lat="43.9337221" lon="12.6449538"><ele>85.0</ele><time>2026-04-26T11:02:22.391Z</time></trkpt><trkpt lat="43.9336683" lon="12.6450434"><ele>85.0</ele><time>2026-04-26T11:02:23.397Z</time></trkpt><trkpt lat="43.9336056" lon="12.6451431"><ele>85.0</ele><time>2026-04-26T11:02:24.393Z</time></trkpt><trkpt lat="43.9335463" lon="12.6452377"><ele>85.0</ele><time>2026-04-26T11:02:25.392Z</time></trkpt><trkpt lat="43.9334909" lon="12.6453262"><ele>85.0</ele><time>2026-04-26T11:02:26.397Z</time></trkpt><trkpt lat="43.9334395" lon="12.6454114"><ele>85.0</ele><time>2026-04-26T11:02:27.397Z</time></trkpt><trkpt lat="43.9333904" lon="12.6454982"><ele>85.0</ele><time>2026-04-26T11:02:28.395Z</time></trkpt><trkpt lat="43.9333501" lon="12.6455832"><ele>85.0</ele><time>2026-04-26T11:02:29.404Z</time></trkpt><trkpt lat="43.9333183" lon="12.6456707"><ele>85.0</ele><time>2026-04-26T11:02:30.397Z</time></trkpt><trkpt lat="43.9332931" lon="12.6457624"><ele>85.0</ele><time>2026-04-26T11:02:31.394Z</time></trkpt><trkpt lat="43.9332745" lon="12.6458594"><ele>85.0</ele><time>2026-04-26T11:02:32.393Z</time></trkpt><trkpt lat="43.9332522" lon="12.6459592"><ele>85.0</ele><time>2026-04-26T11:02:33.393Z</time></trkpt><trkpt lat="43.9332227" lon="12.6460526"><ele>84.8</ele><time>2026-04-26T11:02:34.392Z</time></trkpt><trkpt lat="43.9331913" lon="12.6461324"><ele>84.6</ele><time>2026-04-26T11:02:35.393Z</time></trkpt><trkpt lat="43.9331562" lon="12.6462057"><ele>84.4</ele><time>2026-04-26T11:02:36.394Z</time></trkpt><trkpt lat="43.9330841" lon="12.6463338"><ele>84.2</ele><time>2026-04-26T11:02:38.397Z</time></trkpt><trkpt lat="43.9329743" lon="12.6464406"><ele>84.0</ele><time>2026-04-26T11:02:40.398Z</time></trkpt><trkpt lat="43.9329024" lon="12.6464751"><ele>84.0</ele><time>2026-04-26T11:02:41.391Z</time></trkpt><trkpt lat="43.932821" lon="12.6465173"><ele>84.0</ele><time>2026-04-26T11:02:42.392Z</time></trkpt><trkpt lat="43.9327553" lon="12.646573"><ele>84.0</ele><time>2026-04-26T11:02:43.393Z</time></trkpt><trkpt lat="43.9327024" lon="12.6466366"><ele>84.0</ele><time>2026-04-26T11:02:44.395Z</time></trkpt><trkpt lat="43.9326543" lon="12.6467089"><ele>84.0</ele><time>2026-04-26T11:02:45.393Z</time></trkpt><trkpt lat="43.9326077" lon="12.6467887"><ele>84.0</ele><time>2026-04-26T11:02:46.397Z</time></trkpt><trkpt lat="43.9325602" lon="12.646871"><ele>84.57142857142857</ele><time>2026-04-26T11:02:47.396Z</time></trkpt><trkpt lat="43.9325099" lon="12.6469564"><ele>85.14285714285714</ele><time>2026-04-26T11:02:48.393Z</time></trkpt><trkpt lat="43.932461" lon="12.6470425"><ele>85.71428571428572</ele><time>2026-04-26T11:02:49.394Z</time></trkpt><trkpt lat="43.9324163" lon="12.6471192"><ele>86.28571428571428</ele><time>2026-04-26T11:02:50.389Z</time></trkpt><trkpt lat="43.9323722" lon="12.6471842"><ele>86.85714285714286</ele><time>2026-04-26T11:02:51.392Z</time></trkpt><trkpt lat="43.9323047" lon="12.6472379"><ele>87.42857142857143</ele><time>2026-04-26T11:02:53.395Z</time></trkpt><trkpt lat="43.9323082" lon="12.6473398"><ele>88.0</ele><time>2026-04-26T11:03:21.392Z</time></trkpt><trkpt lat="43.9323184" lon="12.6474386"><ele>88.0</ele><time>2026-04-26T11:03:23.393Z</time></trkpt><trkpt lat="43.9322818" lon="12.6475906"><ele>88.0</ele><time>2026-04-26T11:03:25.396Z</time></trkpt><trkpt lat="43.9321895" lon="12.647704"><ele>88.0</ele><time>2026-04-26T11:03:27.399Z</time></trkpt><trkpt lat="43.9321332" lon="12.6477445"><ele>88.0</ele><time>2026-04-26T11:03:28.397Z</time></trkpt><trkpt lat="43.9320697" lon="12.6477787"><ele>88.0</ele><time>2026-04-26T11:03:29.393Z</time></trkpt><trkpt lat="43.932006" lon="12.647812"><ele>88.0</ele><time>2026-04-26T11:03:30.393Z</time></trkpt><trkpt lat="43.9319382" lon="12.6478481"><ele>87.5</ele><time>2026-04-26T11:03:31.392Z</time></trkpt><trkpt lat="43.9318631" lon="12.6478864"><ele>87.0</ele><time>2026-04-26T11:03:32.394Z</time></trkpt><trkpt lat="43.9317905" lon="12.6479261"><ele>86.5</ele><time>2026-04-26T11:03:33.397Z</time></trkpt><trkpt lat="43.9317236" lon="12.6479709"><ele>86.0</ele><time>2026-04-26T11:03:34.392Z</time></trkpt><trkpt lat="43.9316653" lon="12.648016"><ele>85.5</ele><time>2026-04-26T11:03:35.396Z</time></trkpt><trkpt lat="43.9315664" lon="12.6480861"><ele>85.0</ele><time>2026-04-26T11:03:37.397Z</time></trkpt><trkpt lat="43.9314935" lon="12.6481463"><ele>85.83333333333333</ele><time>2026-04-26T11:03:39.4Z</time></trkpt><trkpt lat="43.9314325" lon="12.6481938"><ele>86.66666666666666</ele><time>2026-04-26T11:03:41.395Z</time></trkpt><trkpt lat="43.9313802" lon="12.6482485"><ele>87.5</ele><time>2026-04-26T11:03:43.393Z</time></trkpt><trkpt lat="43.9313352" lon="12.6483099"><ele>88.33333333333333</ele><time>2026-04-26T11:03:46.394Z</time></trkpt><trkpt lat="43.931308" lon="12.6484735"><ele>89.16666666666667</ele><time>2026-04-26T11:03:56.405Z</time></trkpt><trkpt lat="43.931291" lon="12.6485673"><ele>90.0</ele><time>2026-04-26T11:03:57.397Z</time></trkpt><trkpt lat="43.9312772" lon="12.6486758"><ele>90.0</ele><time>2026-04-26T11:03:58.398Z</time></trkpt><trkpt lat="43.9312662" lon="12.6487864"><ele>90.0</ele><time>2026-04-26T11:03:59.393Z</time></trkpt><trkpt lat="43.9312572" lon="12.6489819"><ele>90.0</ele><time>2026-04-26T11:04:01.392Z</time></trkpt><trkpt lat="43.9311895" lon="12.6491101"><ele>90.0</ele><time>2026-04-26T11:04:03.395Z</time></trkpt><trkpt lat="43.9311355" lon="12.6491683"><ele>90.0</ele><time>2026-04-26T11:04:04.394Z</time></trkpt><trkpt lat="43.9310829" lon="12.64924"><ele>90.0</ele><time>2026-04-26T11:04:05.4Z</time></trkpt><trkpt lat="43.931038" lon="12.6493101"><ele>90.0</ele><time>2026-04-26T11:04:06.397Z</time></trkpt><trkpt lat="43.930965" lon="12.6494177"><ele>90.0</ele><time>2026-04-26T11:04:08.394Z</time></trkpt><trkpt lat="43.9309178" lon="12.6494762"><ele>90.0</ele><time>2026-04-26T11:04:10.39Z</time></trkpt><trkpt lat="43.930869" lon="12.649558"><ele>90.0</ele><time>2026-04-26T11:04:11.396Z</time></trkpt><trkpt lat="43.9308157" lon="12.6496599"><ele>90.0</ele><time>2026-04-26T11:04:12.394Z</time></trkpt><trkpt lat="43.93076" lon="12.6497525"><ele>90.6</ele><time>2026-04-26T11:04:13.393Z</time></trkpt><trkpt lat="43.9307022" lon="12.6498282"><ele>91.2</ele><time>2026-04-26T11:04:14.393Z</time></trkpt><trkpt lat="43.9306402" lon="12.6499081"><ele>91.80000000000001</ele><time>2026-04-26T11:04:15.392Z</time></trkpt><trkpt lat="43.9305786" lon="12.650007"><ele>92.4</ele><time>2026-04-26T11:04:16.4Z</time></trkpt><trkpt lat="43.9305179" lon="12.6501204"><ele>93.0</ele><time>2026-04-26T11:04:17.399Z</time></trkpt><trkpt lat="43.9304556" lon="12.65024"><ele>92.0</ele><time>2026-04-26T11:04:18.399Z</time></trkpt><trkpt lat="43.9303927" lon="12.650356"><ele>91.0</ele><time>2026-04-26T11:04:19.394Z</time></trkpt><trkpt lat="43.9303324" lon="12.6504793"><ele>90.0</ele><time>2026-04-26T11:04:20.396Z</time></trkpt><trkpt lat="43.9302713" lon="12.650608"><ele>89.0</ele><time>2026-04-26T11:04:21.392Z</time></trkpt><trkpt lat="43.9302113" lon="12.6507309"><ele>88.0</ele><time>2026-04-26T11:04:22.392Z</time></trkpt><trkpt lat="43.9301466" lon="12.6508388"><ele>88.0</ele><time>2026-04-26T11:04:23.394Z</time></trkpt><trkpt lat="43.9300921" lon="12.6509272"><ele>88.0</ele><time>2026-04-26T11:04:24.395Z</time></trkpt><trkpt lat="43.9300472" lon="12.6510031"><ele>88.0</ele><time>2026-04-26T11:04:25.395Z</time></trkpt><trkpt lat="43.9299876" lon="12.6511372"><ele>88.0</ele><time>2026-04-26T11:04:27.4Z</time></trkpt><trkpt lat="43.9299846" lon="12.6512378"><ele>88.0</ele><time>2026-04-26T11:04:29.395Z</time></trkpt><trkpt lat="43.9300509" lon="12.6513273"><ele>88.0</ele><time>2026-04-26T11:04:30.403Z</time></trkpt><trkpt lat="43.9301301" lon="12.6514054"><ele>86.60000000000001</ele><time>2026-04-26T11:04:31.394Z</time></trkpt><trkpt lat="43.9302223" lon="12.651482"><ele>85.2</ele><time>2026-04-26T11:04:32.394Z</time></trkpt><trkpt lat="43.9303149" lon="12.651573"><ele>83.8</ele><time>2026-04-26T11:04:33.392Z</time></trkpt><trkpt lat="43.9304093" lon="12.6516633"><ele>82.4</ele><time>2026-04-26T11:04:34.394Z</time></trkpt><trkpt lat="43.9304961" lon="12.6517388"><ele>81.0</ele><time>2026-04-26T11:04:35.395Z</time></trkpt><trkpt lat="43.9305804" lon="12.6518074"><ele>81.0</ele><time>2026-04-26T11:04:36.391Z</time></trkpt><trkpt lat="43.9306465" lon="12.6518842"><ele>81.0</ele><time>2026-04-26T11:04:37.392Z</time></trkpt><trkpt lat="43.9306847" lon="12.6519827"><ele>81.0</ele><time>2026-04-26T11:04:38.399Z</time></trkpt><trkpt lat="43.9306853" lon="12.6520899"><ele>81.0</ele><time>2026-04-26T11:04:39.392Z</time></trkpt><trkpt lat="43.9306431" lon="12.6521885"><ele>81.0</ele><time>2026-04-26T11:04:40.394Z</time></trkpt><trkpt lat="43.9305772" lon="12.6522764"><ele>81.0</ele><time>2026-04-26T11:04:41.391Z</time></trkpt><trkpt lat="43.9305153" lon="12.6523726"><ele>80.16666666666667</ele><time>2026-04-26T11:04:42.392Z</time></trkpt><trkpt lat="43.9304611" lon="12.6524731"><ele>79.33333333333333</ele><time>2026-04-26T11:04:43.397Z</time></trkpt><trkpt lat="43.9304123" lon="12.6525649"><ele>78.5</ele><time>2026-04-26T11:04:44.392Z</time></trkpt><trkpt lat="43.9303914" lon="12.6527014"><ele>77.66666666666666</ele><time>2026-04-26T11:04:46.4Z</time></trkpt><trkpt lat="43.9304151" lon="12.6527987"><ele>76.83333333333333</ele><time>2026-04-26T11:04:47.397Z</time></trkpt><trkpt lat="43.9304788" lon="12.6528935"><ele>76.0</ele><time>2026-04-26T11:04:48.398Z</time></trkpt><trkpt lat="43.9305844" lon="12.6529859"><ele>75.5</ele><time>2026-04-26T11:04:49.394Z</time></trkpt><trkpt lat="43.9307032" lon="12.6530904"><ele>75.0</ele><time>2026-04-26T11:04:50.394Z</time></trkpt><trkpt lat="43.9308103" lon="12.6532128"><ele>74.5</ele><time>2026-04-26T11:04:51.392Z</time></trkpt><trkpt lat="43.9309247" lon="12.6533299"><ele>74.0</ele><time>2026-04-26T11:04:52.392Z</time></trkpt><trkpt lat="43.9310391" lon="12.6534516"><ele>74.0</ele><time>2026-04-26T11:04:53.394Z</time></trkpt><trkpt lat="43.9311501" lon="12.6535653"><ele>74.0</ele><time>2026-04-26T11:04:54.394Z</time></trkpt><trkpt lat="43.9312575" lon="12.653673"><ele>74.0</ele><time>2026-04-26T11:04:55.391Z</time></trkpt><trkpt lat="43.9313566" lon="12.6537724"><ele>74.0</ele><time>2026-04-26T11:04:56.395Z</time></trkpt><trkpt lat="43.9314484" lon="12.6538668"><ele>74.33333333333334</ele><time>2026-04-26T11:04:57.394Z</time></trkpt><trkpt lat="43.9315249" lon="12.6539559"><ele>74.66666666666667</ele><time>2026-04-26T11:04:58.393Z</time></trkpt><trkpt lat="43.9315907" lon="12.6540354"><ele>75.0</ele><time>2026-04-26T11:04:59.398Z</time></trkpt><trkpt lat="43.9316507" lon="12.6541574"><ele>75.33333333333333</ele><time>2026-04-26T11:05:01.392Z</time></trkpt><trkpt lat="43.9316447" lon="12.6542761"><ele>75.66666666666666</ele><time>2026-04-26T11:05:03.398Z</time></trkpt><trkpt lat="43.931589" lon="12.6543265"><ele>76.0</ele><time>2026-04-26T11:05:04.398Z</time></trkpt><trkpt lat="43.9315321" lon="12.654367"><ele>76.0</ele><time>2026-04-26T11:05:05.397Z</time></trkpt><trkpt lat="43.9314559" lon="12.6544258"><ele>76.0</ele><time>2026-04-26T11:05:06.404Z</time></trkpt><trkpt lat="43.9313549" lon="12.6545314"><ele>76.0</ele><time>2026-04-26T11:05:07.393Z</time></trkpt><trkpt lat="43.9312485" lon="12.6546494"><ele>76.0</ele><time>2026-04-26T11:05:08.393Z</time></trkpt><trkpt lat="43.9311524" lon="12.6547529"><ele>76.39999999999999</ele><time>2026-04-26T11:05:09.394Z</time></trkpt><trkpt lat="43.9310682" lon="12.6548502"><ele>76.8</ele><time>2026-04-26T11:05:10.392Z</time></trkpt><trkpt lat="43.931025" lon="12.6549623"><ele>77.19999999999999</ele><time>2026-04-26T11:05:11.4Z</time></trkpt><trkpt lat="43.9310117" lon="12.6551001"><ele>77.6</ele><time>2026-04-26T11:05:12.395Z</time></trkpt><trkpt lat="43.9309748" lon="12.6552423"><ele>78.0</ele><time>2026-04-26T11:05:13.392Z</time></trkpt><trkpt lat="43.9308998" lon="12.6553714"><ele>77.4</ele><time>2026-04-26T11:05:14.394Z</time></trkpt><trkpt lat="43.9308162" lon="12.6554857"><ele>76.8</ele><time>2026-04-26T11:05:15.396Z</time></trkpt><trkpt lat="43.9307467" lon="12.6555913"><ele>76.2</ele><time>2026-04-26T11:05:16.397Z</time></trkpt><trkpt lat="43.9306783" lon="12.6556752"><ele>75.6</ele><time>2026-04-26T11:05:17.395Z</time></trkpt><trkpt lat="43.9306077" lon="12.6557504"><ele>75.0</ele><time>2026-04-26T11:05:18.4Z</time></trkpt><trkpt lat="43.9305603" lon="12.6558486"><ele>75.0</ele><time>2026-04-26T11:05:19.398Z</time></trkpt><trkpt lat="43.9305231" lon="12.6559648"><ele>75.0</ele><time>2026-04-26T11:05:20.396Z</time></trkpt><trkpt lat="43.9304782" lon="12.6560881"><ele>75.0</ele><time>2026-04-26T11:05:21.394Z</time></trkpt><trkpt lat="43.9304196" lon="12.6561832"><ele>75.0</ele><time>2026-04-26T11:05:22.402Z</time></trkpt><trkpt lat="43.9303649" lon="12.6562811"><ele>75.0</ele><time>2026-04-26T11:05:23.399Z</time></trkpt><trkpt lat="43.9303206" lon="12.6563705"><ele>75.0</ele><time>2026-04-26T11:05:24.394Z</time></trkpt><trkpt lat="43.9302737" lon="12.6564741"><ele>74.8</ele><time>2026-04-26T11:05:25.396Z</time></trkpt><trkpt lat="43.9302187" lon="12.6565809"><ele>74.6</ele><time>2026-04-26T11:05:26.395Z</time></trkpt><trkpt lat="43.9301619" lon="12.6566941"><ele>74.4</ele><time>2026-04-26T11:05:27.394Z</time></trkpt><trkpt lat="43.9301036" lon="12.6568106"><ele>74.2</ele><time>2026-04-26T11:05:28.401Z</time></trkpt><trkpt lat="43.9300462" lon="12.6569331"><ele>74.0</ele><time>2026-04-26T11:05:29.397Z</time></trkpt><trkpt lat="43.9299846" lon="12.6570597"><ele>73.75</ele><time>2026-04-26T11:05:30.397Z</time></trkpt><trkpt lat="43.929923" lon="12.6571867"><ele>73.5</ele><time>2026-04-26T11:05:31.398Z</time></trkpt><trkpt lat="43.9298565" lon="12.657319"><ele>73.25</ele><time>2026-04-26T11:05:32.398Z</time></trkpt><trkpt lat="43.9297904" lon="12.6574553"><ele>73.0</ele><time>2026-04-26T11:05:33.393Z</time></trkpt><trkpt lat="43.9297224" lon="12.6575877"><ele>73.0</ele><time>2026-04-26T11:05:34.393Z</time></trkpt><trkpt lat="43.9296547" lon="12.6577132"><ele>73.0</ele><time>2026-04-26T11:05:35.4Z</time></trkpt><trkpt lat="43.9295889" lon="12.6578449"><ele>73.0</ele><time>2026-04-26T11:05:36.394Z</time></trkpt><trkpt lat="43.9295295" lon="12.6579695"><ele>73.0</ele><time>2026-04-26T11:05:37.399Z</time></trkpt><trkpt lat="43.929473" lon="12.6580824"><ele>73.0</ele><time>2026-04-26T11:05:38.393Z</time></trkpt><trkpt lat="43.9294218" lon="12.6581946"><ele>72.6</ele><time>2026-04-26T11:05:39.393Z</time></trkpt><trkpt lat="43.9293691" lon="12.6583158"><ele>72.19999999999999</ele><time>2026-04-26T11:05:40.397Z</time></trkpt><trkpt lat="43.9293101" lon="12.6584321"><ele>71.8</ele><time>2026-04-26T11:05:41.394Z</time></trkpt><trkpt lat="43.9292486" lon="12.6585527"><ele>71.39999999999999</ele><time>2026-04-26T11:05:42.394Z</time></trkpt><trkpt lat="43.9291842" lon="12.658681"><ele>71.0</ele><time>2026-04-26T11:05:43.394Z</time></trkpt><trkpt lat="43.9291305" lon="12.658808"><ele>71.0</ele><time>2026-04-26T11:05:44.397Z</time></trkpt><trkpt lat="43.9290977" lon="12.6589365"><ele>71.0</ele><time>2026-04-26T11:05:45.398Z</time></trkpt><trkpt lat="43.9290908" lon="12.659064"><ele>71.0</ele><time>2026-04-26T11:05:46.402Z</time></trkpt><trkpt lat="43.9291153" lon="12.6591915"><ele>71.0</ele><time>2026-04-26T11:05:47.393Z</time></trkpt><trkpt lat="43.9291618" lon="12.6593291"><ele>71.0</ele><time>2026-04-26T11:05:48.393Z</time></trkpt><trkpt lat="43.9291874" lon="12.659452"><ele>71.0</ele><time>2026-04-26T11:05:49.398Z</time></trkpt><trkpt lat="43.9291821" lon="12.6595587"><ele>71.0</ele><time>2026-04-26T11:05:50.397Z</time></trkpt><trkpt lat="43.9291327" lon="12.6596479"><ele>71.0</ele><time>2026-04-26T11:05:51.394Z</time></trkpt><trkpt lat="43.9290545" lon="12.6597298"><ele>71.0</ele><time>2026-04-26T11:05:52.391Z</time></trkpt><trkpt lat="43.9289697" lon="12.6598273"><ele>71.0</ele><time>2026-04-26T11:05:53.395Z</time></trkpt><trkpt lat="43.9288813" lon="12.6599389"><ele>71.0</ele><time>2026-04-26T11:05:54.397Z</time></trkpt><trkpt lat="43.9287894" lon="12.6600553"><ele>71.0</ele><time>2026-04-26T11:05:55.399Z</time></trkpt><trkpt lat="43.9286968" lon="12.6601612"><ele>71.0</ele><time>2026-04-26T11:05:56.398Z</time></trkpt><trkpt lat="43.9286045" lon="12.6602627"><ele>71.0</ele><time>2026-04-26T11:05:57.4Z</time></trkpt><trkpt lat="43.9285226" lon="12.6603604"><ele>70.6</ele><time>2026-04-26T11:05:58.396Z</time></trkpt><trkpt lat="43.9284429" lon="12.6604544"><ele>70.19999999999999</ele><time>2026-04-26T11:05:59.394Z</time></trkpt><trkpt lat="43.9283598" lon="12.660551"><ele>69.80000000000001</ele><time>2026-04-26T11:06:00.391Z</time></trkpt><trkpt lat="43.9282779" lon="12.6606529"><ele>69.4</ele><time>2026-04-26T11:06:01.391Z</time></trkpt><trkpt lat="43.9281973" lon="12.6607499"><ele>69.0</ele><time>2026-04-26T11:06:02.393Z</time></trkpt><trkpt lat="43.9281154" lon="12.6608284"><ele>68.33333333333333</ele><time>2026-04-26T11:06:03.393Z</time></trkpt><trkpt lat="43.9280243" lon="12.6608673"><ele>67.66666666666667</ele><time>2026-04-26T11:06:04.395Z</time></trkpt><trkpt lat="43.9279335" lon="12.6608563"><ele>67.0</ele><time>2026-04-26T11:06:05.396Z</time></trkpt><trkpt lat="43.9278538" lon="12.6608656"><ele>66.33333333333334</ele><time>2026-04-26T11:06:06.396Z</time></trkpt><trkpt lat="43.927793" lon="12.6609234"><ele>65.66666666666667</ele><time>2026-04-26T11:06:07.392Z</time></trkpt><trkpt lat="43.9277548" lon="12.6610217"><ele>65.0</ele><time>2026-04-26T11:06:08.394Z</time></trkpt><trkpt lat="43.9277375" lon="12.6611311"><ele>63.8</ele><time>2026-04-26T11:06:09.398Z</time></trkpt><trkpt lat="43.9277985" lon="12.6612304"><ele>62.6</ele><time>2026-04-26T11:06:10.394Z</time></trkpt><trkpt lat="43.9278728" lon="12.6613224"><ele>61.400000000000006</ele><time>2026-04-26T11:06:11.393Z</time></trkpt><trkpt lat="43.9279526" lon="12.6614147"><ele>60.2</ele><time>2026-04-26T11:06:12.393Z</time></trkpt><trkpt lat="43.9280266" lon="12.6615176"><ele>59.0</ele><time>2026-04-26T11:06:13.395Z</time></trkpt><trkpt lat="43.928082" lon="12.6616468"><ele>59.0</ele><time>2026-04-26T11:06:14.395Z</time></trkpt><trkpt lat="43.9281304" lon="12.6617962"><ele>59.0</ele><time>2026-04-26T11:06:15.4Z</time></trkpt><trkpt lat="43.9281869" lon="12.6619659"><ele>59.0</ele><time>2026-04-26T11:06:16.397Z</time></trkpt><trkpt lat="43.9282486" lon="12.6621539"><ele>59.0</ele><time>2026-04-26T11:06:17.394Z</time></trkpt><trkpt lat="43.9283119" lon="12.6623517"><ele>58.333333333333336</ele><time>2026-04-26T11:06:18.392Z</time></trkpt><trkpt lat="43.9283784" lon="12.6625532"><ele>57.66666666666667</ele><time>2026-04-26T11:06:19.399Z</time></trkpt><trkpt lat="43.9284559" lon="12.6627564"><ele>57.0</ele><time>2026-04-26T11:06:20.393Z</time></trkpt><trkpt lat="43.9285374" lon="12.6629632"><ele>57.0</ele><time>2026-04-26T11:06:21.392Z</time></trkpt><trkpt lat="43.9286237" lon="12.6631621"><ele>57.0</ele><time>2026-04-26T11:06:22.393Z</time></trkpt><trkpt lat="43.9287138" lon="12.6633479"><ele>57.0</ele><time>2026-04-26T11:06:23.391Z</time></trkpt><trkpt lat="43.9288127" lon="12.6635284"><ele>56.33333333333333</ele><time>2026-04-26T11:06:24.392Z</time></trkpt><trkpt lat="43.9289134" lon="12.6637077"><ele>55.666666666666664</ele><time>2026-04-26T11:06:25.395Z</time></trkpt><trkpt lat="43.9290154" lon="12.6638815"><ele>55.0</ele><time>2026-04-26T11:06:26.393Z</time></trkpt><trkpt lat="43.92912" lon="12.6640483"><ele>55.0</ele><time>2026-04-26T11:06:27.403Z</time></trkpt><trkpt lat="43.9292281" lon="12.6642101"><ele>55.0</ele><time>2026-04-26T11:06:28.392Z</time></trkpt><trkpt lat="43.9293363" lon="12.6643678"><ele>55.0</ele><time>2026-04-26T11:06:29.395Z</time></trkpt><trkpt lat="43.9294372" lon="12.6645138"><ele>55.0</ele><time>2026-04-26T11:06:30.394Z</time></trkpt><trkpt lat="43.9295363" lon="12.664655"><ele>55.0</ele><time>2026-04-26T11:06:31.394Z</time></trkpt><trkpt lat="43.9296337" lon="12.6647952"><ele>55.0</ele><time>2026-04-26T11:06:32.392Z</time></trkpt><trkpt lat="43.9297257" lon="12.6649341"><ele>55.0</ele><time>2026-04-26T11:06:33.395Z</time></trkpt><trkpt lat="43.9298042" lon="12.6650763"><ele>55.0</ele><time>2026-04-26T11:06:34.397Z</time></trkpt><trkpt lat="43.9298542" lon="12.6652347"><ele>55.0</ele><time>2026-04-26T11:06:35.394Z</time></trkpt><trkpt lat="43.9298816" lon="12.6654083"><ele>55.0</ele><time>2026-04-26T11:06:36.403Z</time></trkpt><trkpt lat="43.9299001" lon="12.6655853"><ele>55.0</ele><time>2026-04-26T11:06:37.394Z</time></trkpt><trkpt lat="43.929886" lon="12.6657693"><ele>54.75</ele><time>2026-04-26T11:06:38.395Z</time></trkpt><trkpt lat="43.9298443" lon="12.6659497"><ele>54.5</ele><time>2026-04-26T11:06:39.398Z</time></trkpt><trkpt lat="43.9297857" lon="12.6661399"><ele>54.25</ele><time>2026-04-26T11:06:40.397Z</time></trkpt><trkpt lat="43.9297084" lon="12.6663344"><ele>54.0</ele><time>2026-04-26T11:06:41.394Z</time></trkpt><trkpt lat="43.9296106" lon="12.6665478"><ele>54.0</ele><time>2026-04-26T11:06:42.399Z</time></trkpt><trkpt lat="43.929493" lon="12.6667744"><ele>54.0</ele><time>2026-04-26T11:06:43.4Z</time></trkpt><trkpt lat="43.9293601" lon="12.6670007"><ele>54.0</ele><time>2026-04-26T11:06:44.395Z</time></trkpt><trkpt lat="43.9292127" lon="12.6672096"><ele>53.66666666666667</ele><time>2026-04-26T11:06:45.392Z</time></trkpt><trkpt lat="43.929051" lon="12.6673994"><ele>53.333333333333336</ele><time>2026-04-26T11:06:46.397Z</time></trkpt><trkpt lat="43.9288666" lon="12.6675942"><ele>53.0</ele><time>2026-04-26T11:06:47.392Z</time></trkpt><trkpt lat="43.9286611" lon="12.6677813"><ele>52.0</ele><time>2026-04-26T11:06:48.403Z</time></trkpt><trkpt lat="43.9284426" lon="12.6679589"><ele>51.0</ele><time>2026-04-26T11:06:49.398Z</time></trkpt><trkpt lat="43.9282183" lon="12.6681362"><ele>50.5</ele><time>2026-04-26T11:06:50.397Z</time></trkpt><trkpt lat="43.927994" lon="12.6682996"><ele>50.0</ele><time>2026-04-26T11:06:51.393Z</time></trkpt><trkpt lat="43.9277818" lon="12.6684667"><ele>50.5</ele><time>2026-04-26T11:06:52.396Z</time></trkpt><trkpt lat="43.9275902" lon="12.668644"><ele>51.0</ele><time>2026-04-26T11:06:53.389Z</time></trkpt><trkpt lat="43.9274146" lon="12.6688354"><ele>49.0</ele><time>2026-04-26T11:06:54.392Z</time></trkpt><trkpt lat="43.9272444" lon="12.669036"><ele>47.0</ele><time>2026-04-26T11:06:55.392Z</time></trkpt><trkpt lat="43.927069" lon="12.6692386"><ele>46.5</ele><time>2026-04-26T11:06:56.399Z</time></trkpt><trkpt lat="43.9268958" lon="12.6694482"><ele>46.0</ele><time>2026-04-26T11:06:57.398Z</time></trkpt><trkpt lat="43.9267248" lon="12.6696574"><ele>45.333333333333336</ele><time>2026-04-26T11:06:58.398Z</time></trkpt><trkpt lat="43.9265607" lon="12.6698666"><ele>44.666666666666664</ele><time>2026-04-26T11:06:59.399Z</time></trkpt><trkpt lat="43.9263989" lon="12.6700666"><ele>44.0</ele><time>2026-04-26T11:07:00.394Z</time></trkpt><trkpt lat="43.9262465" lon="12.6702553"><ele>43.666666666666664</ele><time>2026-04-26T11:07:01.393Z</time></trkpt><trkpt lat="43.9260897" lon="12.6704458"><ele>43.333333333333336</ele><time>2026-04-26T11:07:02.396Z</time></trkpt><trkpt lat="43.9259382" lon="12.6706358"><ele>43.0</ele><time>2026-04-26T11:07:03.398Z</time></trkpt><trkpt lat="43.9257894" lon="12.6708255"><ele>42.333333333333336</ele><time>2026-04-26T11:07:04.395Z</time></trkpt><trkpt lat="43.9256395" lon="12.6710097"><ele>41.666666666666664</ele><time>2026-04-26T11:07:05.393Z</time></trkpt><trkpt lat="43.9254886" lon="12.6711947"><ele>41.0</ele><time>2026-04-26T11:07:06.396Z</time></trkpt><trkpt lat="43.9253448" lon="12.6713721"><ele>41.0</ele><time>2026-04-26T11:07:07.392Z</time></trkpt><trkpt lat="43.9252059" lon="12.6715492"><ele>41.0</ele><time>2026-04-26T11:07:08.399Z</time></trkpt><trkpt lat="43.9250668" lon="12.6717288"><ele>41.0</ele><time>2026-04-26T11:07:09.392Z</time></trkpt><trkpt lat="43.9249257" lon="12.6719068"><ele>43.33333333333333</ele><time>2026-04-26T11:07:10.397Z</time></trkpt><trkpt lat="43.9247872" lon="12.6720814"><ele>45.666666666666664</ele><time>2026-04-26T11:07:11.393Z</time></trkpt><trkpt lat="43.9246514" lon="12.6722633"><ele>48.0</ele><time>2026-04-26T11:07:12.398Z</time></trkpt><trkpt lat="43.924522" lon="12.6724629"><ele>48.0</ele><time>2026-04-26T11:07:13.394Z</time></trkpt><trkpt lat="43.9244021" lon="12.6726791"><ele>48.0</ele><time>2026-04-26T11:07:14.392Z</time></trkpt><trkpt lat="43.9242932" lon="12.6729035"><ele>48.0</ele><time>2026-04-26T11:07:15.393Z</time></trkpt><trkpt lat="43.9241923" lon="12.6731278"><ele>48.66666666666667</ele><time>2026-04-26T11:07:16.395Z</time></trkpt><trkpt lat="43.9241001" lon="12.6733379"><ele>49.333333333333336</ele><time>2026-04-26T11:07:17.393Z</time></trkpt><trkpt lat="43.9240109" lon="12.6735221"><ele>50.0</ele><time>2026-04-26T11:07:18.395Z</time></trkpt><trkpt lat="43.9239194" lon="12.6736647"><ele>50.0</ele><time>2026-04-26T11:07:19.394Z</time></trkpt><trkpt lat="43.9238167" lon="12.6737658"><ele>50.0</ele><time>2026-04-26T11:07:20.394Z</time></trkpt><trkpt lat="43.9237268" lon="12.6738551"><ele>50.0</ele><time>2026-04-26T11:07:21.395Z</time></trkpt><trkpt lat="43.9236711" lon="12.6739659"><ele>50.0</ele><time>2026-04-26T11:07:22.394Z</time></trkpt><trkpt lat="43.9236606" lon="12.6740881"><ele>50.0</ele><time>2026-04-26T11:07:23.388Z</time></trkpt><trkpt lat="43.9237014" lon="12.6742013"><ele>50.0</ele><time>2026-04-26T11:07:24.397Z</time></trkpt><trkpt lat="43.9237909" lon="12.6742935"><ele>50.0</ele><time>2026-04-26T11:07:25.398Z</time></trkpt><trkpt lat="43.9239143" lon="12.6743625"><ele>50.0</ele><time>2026-04-26T11:07:26.398Z</time></trkpt><trkpt lat="43.9240337" lon="12.6744499"><ele>50.0</ele><time>2026-04-26T11:07:27.396Z</time></trkpt><trkpt lat="43.9241448" lon="12.674608"><ele>49.0</ele><time>2026-04-26T11:07:28.392Z</time></trkpt><trkpt lat="43.9242696" lon="12.6748003"><ele>48.0</ele><time>2026-04-26T11:07:29.394Z</time></trkpt><trkpt lat="43.9244028" lon="12.6749945"><ele>47.0</ele><time>2026-04-26T11:07:30.395Z</time></trkpt><trkpt lat="43.9245329" lon="12.6751913"><ele>47.666666666666664</ele><time>2026-04-26T11:07:31.401Z</time></trkpt><trkpt lat="43.924662" lon="12.6753883"><ele>48.33333333333333</ele><time>2026-04-26T11:07:32.394Z</time></trkpt><trkpt lat="43.9247912" lon="12.6755885"><ele>49.0</ele><time>2026-04-26T11:07:33.396Z</time></trkpt><trkpt lat="43.9249169" lon="12.6757877"><ele>49.0</ele><time>2026-04-26T11:07:34.398Z</time></trkpt><trkpt lat="43.9250395" lon="12.6759875"><ele>49.0</ele><time>2026-04-26T11:07:35.393Z</time></trkpt><trkpt lat="43.9251629" lon="12.6761867"><ele>49.0</ele><time>2026-04-26T11:07:36.396Z</time></trkpt><trkpt lat="43.9252845" lon="12.6763828"><ele>48.666666666666664</ele><time>2026-04-26T11:07:37.393Z</time></trkpt><trkpt lat="43.9254082" lon="12.6765821"><ele>48.33333333333333</ele><time>2026-04-26T11:07:38.391Z</time></trkpt><trkpt lat="43.9255324" lon="12.676783"><ele>48.0</ele><time>2026-04-26T11:07:39.394Z</time></trkpt><trkpt lat="43.9256529" lon="12.6769876"><ele>48.0</ele><time>2026-04-26T11:07:40.396Z</time></trkpt><trkpt lat="43.9257728" lon="12.6771972"><ele>48.0</ele><time>2026-04-26T11:07:41.395Z</time></trkpt><trkpt lat="43.925886" lon="12.677403"><ele>48.0</ele><time>2026-04-26T11:07:42.399Z</time></trkpt><trkpt lat="43.9259995" lon="12.6776093"><ele>48.0</ele><time>2026-04-26T11:07:43.392Z</time></trkpt><trkpt lat="43.9261097" lon="12.6778122"><ele>48.0</ele><time>2026-04-26T11:07:44.388Z</time></trkpt><trkpt lat="43.9262177" lon="12.6780124"><ele>48.0</ele><time>2026-04-26T11:07:45.395Z</time></trkpt><trkpt lat="43.9263217" lon="12.6782129"><ele>48.0</ele><time>2026-04-26T11:07:46.391Z</time></trkpt><trkpt lat="43.9264253" lon="12.6784088"><ele>48.0</ele><time>2026-04-26T11:07:47.391Z</time></trkpt><trkpt lat="43.9265262" lon="12.6785982"><ele>48.0</ele><time>2026-04-26T11:07:48.395Z</time></trkpt><trkpt lat="43.9266232" lon="12.6787889"><ele>48.0</ele><time>2026-04-26T11:07:49.393Z</time></trkpt><trkpt lat="43.9267192" lon="12.6789786"><ele>48.0</ele><time>2026-04-26T11:07:50.396Z</time></trkpt><trkpt lat="43.9268175" lon="12.6791707"><ele>48.0</ele><time>2026-04-26T11:07:51.396Z</time></trkpt><trkpt lat="43.9269197" lon="12.679361"><ele>48.0</ele><time>2026-04-26T11:07:52.392Z</time></trkpt><trkpt lat="43.9270224" lon="12.6795577"><ele>48.0</ele><time>2026-04-26T11:07:53.391Z</time></trkpt><trkpt lat="43.927126" lon="12.6797577"><ele>48.0</ele><time>2026-04-26T11:07:54.398Z</time></trkpt><trkpt lat="43.9272314" lon="12.6799633"><ele>48.0</ele><time>2026-04-26T11:07:55.391Z</time></trkpt><trkpt lat="43.9273401" lon="12.680173"><ele>48.0</ele><time>2026-04-26T11:07:56.39Z</time></trkpt><trkpt lat="43.927453" lon="12.6803861"><ele>48.0</ele><time>2026-04-26T11:07:57.394Z</time></trkpt><trkpt lat="43.9275712" lon="12.6805909"><ele>48.66666666666667</ele><time>2026-04-26T11:07:58.393Z</time></trkpt><trkpt lat="43.9276947" lon="12.6807925"><ele>49.333333333333336</ele><time>2026-04-26T11:07:59.397Z</time></trkpt><trkpt lat="43.9278222" lon="12.6809909"><ele>50.0</ele><time>2026-04-26T11:08:00.397Z</time></trkpt><trkpt lat="43.9279527" lon="12.6811914"><ele>50.0</ele><time>2026-04-26T11:08:01.399Z</time></trkpt><trkpt lat="43.9280874" lon="12.6813904"><ele>50.0</ele><time>2026-04-26T11:08:02.401Z</time></trkpt><trkpt lat="43.9282231" lon="12.6815902"><ele>50.0</ele><time>2026-04-26T11:08:03.399Z</time></trkpt><trkpt lat="43.9283619" lon="12.6817882"><ele>49.333333333333336</ele><time>2026-04-26T11:08:04.403Z</time></trkpt><trkpt lat="43.9285021" lon="12.6819806"><ele>48.66666666666667</ele><time>2026-04-26T11:08:05.398Z</time></trkpt><trkpt lat="43.9286441" lon="12.6821625"><ele>48.0</ele><time>2026-04-26T11:08:06.398Z</time></trkpt><trkpt lat="43.9287859" lon="12.6823454"><ele>48.0</ele><time>2026-04-26T11:08:07.395Z</time></trkpt><trkpt lat="43.928927" lon="12.6825202"><ele>48.0</ele><time>2026-04-26T11:08:08.396Z</time></trkpt><trkpt lat="43.9290601" lon="12.6826884"><ele>48.0</ele><time>2026-04-26T11:08:09.393Z</time></trkpt><trkpt lat="43.929178" lon="12.6828359"><ele>48.0</ele><time>2026-04-26T11:08:10.392Z</time></trkpt><trkpt lat="43.9292816" lon="12.682963"><ele>48.0</ele><time>2026-04-26T11:08:11.396Z</time></trkpt><trkpt lat="43.9293758" lon="12.683082"><ele>48.0</ele><time>2026-04-26T11:08:12.393Z</time></trkpt><trkpt lat="43.929467" lon="12.6831914"><ele>48.0</ele><time>2026-04-26T11:08:13.4Z</time></trkpt><trkpt lat="43.929556" lon="12.6832976"><ele>48.0</ele><time>2026-04-26T11:08:14.394Z</time></trkpt><trkpt lat="43.9296503" lon="12.6834111"><ele>48.0</ele><time>2026-04-26T11:08:15.395Z</time></trkpt><trkpt lat="43.9297506" lon="12.6835305"><ele>48.0</ele><time>2026-04-26T11:08:16.393Z</time></trkpt><trkpt lat="43.9298555" lon="12.6836548"><ele>48.0</ele><time>2026-04-26T11:08:17.398Z</time></trkpt><trkpt lat="43.929965" lon="12.6837826"><ele>47.75</ele><time>2026-04-26T11:08:18.397Z</time></trkpt><trkpt lat="43.9300737" lon="12.683916"><ele>47.5</ele><time>2026-04-26T11:08:19.397Z</time></trkpt><trkpt lat="43.9301781" lon="12.6840503"><ele>47.25</ele><time>2026-04-26T11:08:20.392Z</time></trkpt><trkpt lat="43.9302831" lon="12.6841839"><ele>47.0</ele><time>2026-04-26T11:08:21.395Z</time></trkpt><trkpt lat="43.9303918" lon="12.6843152"><ele>47.0</ele><time>2026-04-26T11:08:22.391Z</time></trkpt><trkpt lat="43.9304945" lon="12.6844425"><ele>47.0</ele><time>2026-04-26T11:08:23.396Z</time></trkpt><trkpt lat="43.9305978" lon="12.6845659"><ele>47.0</ele><time>2026-04-26T11:08:24.398Z</time></trkpt><trkpt lat="43.9307008" lon="12.684693"><ele>47.0</ele><time>2026-04-26T11:08:25.394Z</time></trkpt><trkpt lat="43.9308012" lon="12.6848193"><ele>47.0</ele><time>2026-04-26T11:08:26.394Z</time></trkpt><trkpt lat="43.930901" lon="12.6849446"><ele>47.0</ele><time>2026-04-26T11:08:27.393Z</time></trkpt><trkpt lat="43.9310007" lon="12.6850696"><ele>47.0</ele><time>2026-04-26T11:08:28.394Z</time></trkpt><trkpt lat="43.931099" lon="12.6851943"><ele>47.0</ele><time>2026-04-26T11:08:29.396Z</time></trkpt><trkpt lat="43.9311979" lon="12.6853226"><ele>47.0</ele><time>2026-04-26T11:08:30.394Z</time></trkpt><trkpt lat="43.9312988" lon="12.6854527"><ele>47.0</ele><time>2026-04-26T11:08:31.395Z</time></trkpt><trkpt lat="43.9314042" lon="12.6855791"><ele>47.0</ele><time>2026-04-26T11:08:32.392Z</time></trkpt><trkpt lat="43.9315083" lon="12.6857126"><ele>47.0</ele><time>2026-04-26T11:08:33.394Z</time></trkpt><trkpt lat="43.9316109" lon="12.6858491"><ele>47.0</ele><time>2026-04-26T11:08:34.392Z</time></trkpt><trkpt lat="43.9317121" lon="12.6859811"><ele>47.0</ele><time>2026-04-26T11:08:35.39Z</time></trkpt><trkpt lat="43.9318065" lon="12.6861215"><ele>47.0</ele><time>2026-04-26T11:08:36.391Z</time></trkpt><trkpt lat="43.9318859" lon="12.6862787"><ele>47.0</ele><time>2026-04-26T11:08:37.395Z</time></trkpt><trkpt lat="43.9319538" lon="12.686446"><ele>46.5</ele><time>2026-04-26T11:08:38.394Z</time></trkpt><trkpt lat="43.9320027" lon="12.6866237"><ele>46.0</ele><time>2026-04-26T11:08:39.393Z</time></trkpt><trkpt lat="43.9320427" lon="12.6867958"><ele>45.5</ele><time>2026-04-26T11:08:40.402Z</time></trkpt><trkpt lat="43.9320754" lon="12.6869632"><ele>45.0</ele><time>2026-04-26T11:08:41.391Z</time></trkpt><trkpt lat="43.9320776" lon="12.6871384"><ele>44.666666666666664</ele><time>2026-04-26T11:08:42.395Z</time></trkpt><trkpt lat="43.932028" lon="12.6873197"><ele>44.33333333333333</ele><time>2026-04-26T11:08:43.391Z</time></trkpt><trkpt lat="43.9319413" lon="12.6875057"><ele>44.0</ele><time>2026-04-26T11:08:44.396Z</time></trkpt><trkpt lat="43.9318493" lon="12.6876737"><ele>44.0</ele><time>2026-04-26T11:08:45.391Z</time></trkpt><trkpt lat="43.9317621" lon="12.6878373"><ele>44.0</ele><time>2026-04-26T11:08:46.392Z</time></trkpt><trkpt lat="43.931669" lon="12.688"><ele>44.0</ele><time>2026-04-26T11:08:47.397Z</time></trkpt><trkpt lat="43.9315663" lon="12.6881571"><ele>44.0</ele><time>2026-04-26T11:08:48.397Z</time></trkpt><trkpt lat="43.9314638" lon="12.6883124"><ele>44.0</ele><time>2026-04-26T11:08:49.396Z</time></trkpt><trkpt lat="43.9313519" lon="12.6884669"><ele>44.0</ele><time>2026-04-26T11:08:50.396Z</time></trkpt><trkpt lat="43.9312344" lon="12.6886244"><ele>44.0</ele><time>2026-04-26T11:08:51.392Z</time></trkpt><trkpt lat="43.9311131" lon="12.6887761"><ele>44.0</ele><time>2026-04-26T11:08:52.391Z</time></trkpt><trkpt lat="43.9309919" lon="12.6889244"><ele>44.0</ele><time>2026-04-26T11:08:53.392Z</time></trkpt><trkpt lat="43.9308644" lon="12.6890673"><ele>44.0</ele><time>2026-04-26T11:08:54.392Z</time></trkpt><trkpt lat="43.9307311" lon="12.6892131"><ele>44.0</ele><time>2026-04-26T11:08:55.394Z</time></trkpt><trkpt lat="43.9306003" lon="12.6893627"><ele>44.0</ele><time>2026-04-26T11:08:56.396Z</time></trkpt><trkpt lat="43.930468" lon="12.6895046"><ele>44.0</ele><time>2026-04-26T11:08:57.393Z</time></trkpt><trkpt lat="43.9303422" lon="12.6896423"><ele>44.0</ele><time>2026-04-26T11:08:58.396Z</time></trkpt><trkpt lat="43.9302221" lon="12.6897736"><ele>44.0</ele><time>2026-04-26T11:08:59.399Z</time></trkpt><trkpt lat="43.9301086" lon="12.6898934"><ele>44.0</ele><time>2026-04-26T11:09:00.392Z</time></trkpt><trkpt lat="43.9300025" lon="12.690011"><ele>44.0</ele><time>2026-04-26T11:09:01.395Z</time></trkpt><trkpt lat="43.9298999" lon="12.6901291"><ele>44.0</ele><time>2026-04-26T11:09:02.392Z</time></trkpt><trkpt lat="43.9297983" lon="12.6902396"><ele>44.0</ele><time>2026-04-26T11:09:03.396Z</time></trkpt><trkpt lat="43.9297047" lon="12.6903363"><ele>44.0</ele><time>2026-04-26T11:09:04.393Z</time></trkpt><trkpt lat="43.9296061" lon="12.690399"><ele>44.0</ele><time>2026-04-26T11:09:05.395Z</time></trkpt><trkpt lat="43.9295034" lon="12.6903983"><ele>44.0</ele><time>2026-04-26T11:09:06.394Z</time></trkpt><trkpt lat="43.9294111" lon="12.6903393"><ele>44.0</ele><time>2026-04-26T11:09:07.395Z</time></trkpt><trkpt lat="43.929329" lon="12.6902095"><ele>44.0</ele><time>2026-04-26T11:09:08.398Z</time></trkpt><trkpt lat="43.9292444" lon="12.6900454"><ele>44.0</ele><time>2026-04-26T11:09:09.395Z</time></trkpt><trkpt lat="43.9291511" lon="12.6899067"><ele>44.5</ele><time>2026-04-26T11:09:10.391Z</time></trkpt><trkpt lat="43.9290607" lon="12.6897703"><ele>45.0</ele><time>2026-04-26T11:09:11.398Z</time></trkpt><trkpt lat="43.92896" lon="12.6896248"><ele>45.5</ele><time>2026-04-26T11:09:12.39Z</time></trkpt><trkpt lat="43.9288487" lon="12.689492"><ele>46.0</ele><time>2026-04-26T11:09:13.393Z</time></trkpt><trkpt lat="43.9287348" lon="12.6893644"><ele>46.0</ele><time>2026-04-26T11:09:14.394Z</time></trkpt><trkpt lat="43.9286274" lon="12.6892415"><ele>46.0</ele><time>2026-04-26T11:09:15.393Z</time></trkpt><trkpt lat="43.9285236" lon="12.6891282"><ele>46.0</ele><time>2026-04-26T11:09:16.396Z</time></trkpt><trkpt lat="43.9284278" lon="12.6890205"><ele>46.0</ele><time>2026-04-26T11:09:17.397Z</time></trkpt><trkpt lat="43.9283365" lon="12.6889249"><ele>46.199999999999996</ele><time>2026-04-26T11:09:18.398Z</time></trkpt><trkpt lat="43.9282502" lon="12.6888276"><ele>46.4</ele><time>2026-04-26T11:09:19.394Z</time></trkpt><trkpt lat="43.9281692" lon="12.6887257"><ele>46.6</ele><time>2026-04-26T11:09:20.396Z</time></trkpt><trkpt lat="43.928083" lon="12.6886225"><ele>46.8</ele><time>2026-04-26T11:09:21.391Z</time></trkpt><trkpt lat="43.9279967" lon="12.6885253"><ele>47.0</ele><time>2026-04-26T11:09:22.392Z</time></trkpt><trkpt lat="43.9279133" lon="12.6884295"><ele>47.0</ele><time>2026-04-26T11:09:23.392Z</time></trkpt><trkpt lat="43.9278334" lon="12.6883412"><ele>47.0</ele><time>2026-04-26T11:09:24.392Z</time></trkpt><trkpt lat="43.9277601" lon="12.6882571"><ele>47.0</ele><time>2026-04-26T11:09:25.397Z</time></trkpt><trkpt lat="43.9276876" lon="12.6881635"><ele>47.0</ele><time>2026-04-26T11:09:26.397Z</time></trkpt><trkpt lat="43.927617" lon="12.6880633"><ele>47.0</ele><time>2026-04-26T11:09:27.4Z</time></trkpt><trkpt lat="43.9275508" lon="12.687955"><ele>47.0</ele><time>2026-04-26T11:09:28.398Z</time></trkpt><trkpt lat="43.92749" lon="12.6878389"><ele>47.0</ele><time>2026-04-26T11:09:29.394Z</time></trkpt><trkpt lat="43.9274305" lon="12.6877145"><ele>47.0</ele><time>2026-04-26T11:09:30.392Z</time></trkpt><trkpt lat="43.9273721" lon="12.6875868"><ele>47.0</ele><time>2026-04-26T11:09:31.393Z</time></trkpt><trkpt lat="43.9273098" lon="12.6874558"><ele>47.0</ele><time>2026-04-26T11:09:32.394Z</time></trkpt><trkpt lat="43.9272442" lon="12.6873219"><ele>47.400000000000006</ele><time>2026-04-26T11:09:33.397Z</time></trkpt><trkpt lat="43.927182" lon="12.6871965"><ele>47.800000000000004</ele><time>2026-04-26T11:09:34.396Z</time></trkpt><trkpt lat="43.9271284" lon="12.6870764"><ele>48.2</ele><time>2026-04-26T11:09:35.397Z</time></trkpt><trkpt lat="43.9270753" lon="12.6869584"><ele>48.6</ele><time>2026-04-26T11:09:36.395Z</time></trkpt><trkpt lat="43.9270227" lon="12.6868397"><ele>49.0</ele><time>2026-04-26T11:09:37.39Z</time></trkpt><trkpt lat="43.9269614" lon="12.6867211"><ele>49.0</ele><time>2026-04-26T11:09:38.392Z</time></trkpt><trkpt lat="43.9268996" lon="12.6866065"><ele>49.0</ele><time>2026-04-26T11:09:39.394Z</time></trkpt><trkpt lat="43.9268336" lon="12.6864849"><ele>49.0</ele><time>2026-04-26T11:09:40.39Z</time></trkpt><trkpt lat="43.9267464" lon="12.6863618"><ele>49.0</ele><time>2026-04-26T11:09:41.391Z</time></trkpt><trkpt lat="43.9266494" lon="12.6862354"><ele>49.0</ele><time>2026-04-26T11:09:42.395Z</time></trkpt><trkpt lat="43.9265465" lon="12.6861116"><ele>49.0</ele><time>2026-04-26T11:09:43.393Z</time></trkpt><trkpt lat="43.9264352" lon="12.6859923"><ele>49.0</ele><time>2026-04-26T11:09:44.398Z</time></trkpt><trkpt lat="43.9263207" lon="12.685872"><ele>49.0</ele><time>2026-04-26T11:09:45.393Z</time></trkpt><trkpt lat="43.92621" lon="12.6857525"><ele>49.25</ele><time>2026-04-26T11:09:46.396Z</time></trkpt><trkpt lat="43.9260952" lon="12.6856341"><ele>49.5</ele><time>2026-04-26T11:09:47.394Z</time></trkpt><trkpt lat="43.9259813" lon="12.6855124"><ele>49.75</ele><time>2026-04-26T11:09:48.392Z</time></trkpt><trkpt lat="43.9258659" lon="12.685391"><ele>50.0</ele><time>2026-04-26T11:09:49.39Z</time></trkpt><trkpt lat="43.9257497" lon="12.6852683"><ele>50.0</ele><time>2026-04-26T11:09:50.392Z</time></trkpt><trkpt lat="43.9256319" lon="12.6851496"><ele>50.0</ele><time>2026-04-26T11:09:51.394Z</time></trkpt><trkpt lat="43.9255156" lon="12.6850303"><ele>50.0</ele><time>2026-04-26T11:09:52.391Z</time></trkpt><trkpt lat="43.9253999" lon="12.6849069"><ele>50.0</ele><time>2026-04-26T11:09:53.391Z</time></trkpt><trkpt lat="43.9252853" lon="12.6847827"><ele>50.0</ele><time>2026-04-26T11:09:54.393Z</time></trkpt><trkpt lat="43.9251707" lon="12.6846563"><ele>50.0</ele><time>2026-04-26T11:09:55.392Z</time></trkpt><trkpt lat="43.9250607" lon="12.6845244"><ele>50.0</ele><time>2026-04-26T11:09:56.396Z</time></trkpt><trkpt lat="43.9249585" lon="12.6843816"><ele>50.0</ele><time>2026-04-26T11:09:57.399Z</time></trkpt><trkpt lat="43.9248602" lon="12.684227"><ele>50.66666666666667</ele><time>2026-04-26T11:09:58.396Z</time></trkpt><trkpt lat="43.9247721" lon="12.684063"><ele>51.33333333333333</ele><time>2026-04-26T11:09:59.391Z</time></trkpt><trkpt lat="43.9246934" lon="12.6838822"><ele>52.0</ele><time>2026-04-26T11:10:00.395Z</time></trkpt><trkpt lat="43.9246153" lon="12.6836999"><ele>52.0</ele><time>2026-04-26T11:10:01.39Z</time></trkpt><trkpt lat="43.9245276" lon="12.6834979"><ele>52.0</ele><time>2026-04-26T11:10:02.391Z</time></trkpt><trkpt lat="43.9244371" lon="12.683281"><ele>52.0</ele><time>2026-04-26T11:10:03.396Z</time></trkpt><trkpt lat="43.9243492" lon="12.6830635"><ele>52.0</ele><time>2026-04-26T11:10:04.391Z</time></trkpt><trkpt lat="43.9242634" lon="12.6828593"><ele>52.0</ele><time>2026-04-26T11:10:05.392Z</time></trkpt><trkpt lat="43.9241843" lon="12.6826652"><ele>52.0</ele><time>2026-04-26T11:10:06.397Z</time></trkpt><trkpt lat="43.9241061" lon="12.6824842"><ele>52.0</ele><time>2026-04-26T11:10:07.393Z</time></trkpt><trkpt lat="43.9240346" lon="12.6823117"><ele>52.0</ele><time>2026-04-26T11:10:08.397Z</time></trkpt><trkpt lat="43.9239655" lon="12.6821402"><ele>52.0</ele><time>2026-04-26T11:10:09.388Z</time></trkpt><trkpt lat="43.9238924" lon="12.6819677"><ele>52.0</ele><time>2026-04-26T11:10:10.387Z</time></trkpt><trkpt lat="43.9238194" lon="12.6817897"><ele>51.75</ele><time>2026-04-26T11:10:11.39Z</time></trkpt><trkpt lat="43.9237487" lon="12.6816238"><ele>51.5</ele><time>2026-04-26T11:10:12.391Z</time></trkpt><trkpt lat="43.9236863" lon="12.6814655"><ele>51.25</ele><time>2026-04-26T11:10:13.394Z</time></trkpt><trkpt lat="43.9236283" lon="12.681314"><ele>51.0</ele><time>2026-04-26T11:10:14.395Z</time></trkpt><trkpt lat="43.9235771" lon="12.6811729"><ele>51.333333333333336</ele><time>2026-04-26T11:10:15.395Z</time></trkpt><trkpt lat="43.9235344" lon="12.6810508"><ele>51.66666666666667</ele><time>2026-04-26T11:10:16.397Z</time></trkpt><trkpt lat="43.9234857" lon="12.6809558"><ele>52.0</ele><time>2026-04-26T11:10:17.392Z</time></trkpt><trkpt lat="43.9234193" lon="12.6809159"><ele>52.333333333333336</ele><time>2026-04-26T11:10:18.394Z</time></trkpt><trkpt lat="43.923343" lon="12.6809235"><ele>52.66666666666667</ele><time>2026-04-26T11:10:19.395Z</time></trkpt><trkpt lat="43.9232643" lon="12.6809638"><ele>53.0</ele><time>2026-04-26T11:10:20.397Z</time></trkpt><trkpt lat="43.9231817" lon="12.6810086"><ele>53.0</ele><time>2026-04-26T11:10:21.392Z</time></trkpt><trkpt lat="43.923094" lon="12.6810632"><ele>53.0</ele><time>2026-04-26T11:10:22.393Z</time></trkpt><trkpt lat="43.9229983" lon="12.6811167"><ele>53.0</ele><time>2026-04-26T11:10:23.4Z</time></trkpt><trkpt lat="43.9229012" lon="12.6811701"><ele>53.0</ele><time>2026-04-26T11:10:24.395Z</time></trkpt><trkpt lat="43.9227989" lon="12.6812288"><ele>53.0</ele><time>2026-04-26T11:10:25.393Z</time></trkpt><trkpt lat="43.9226994" lon="12.6812894"><ele>53.0</ele><time>2026-04-26T11:10:26.397Z</time></trkpt><trkpt lat="43.9226004" lon="12.6813531"><ele>53.0</ele><time>2026-04-26T11:10:27.393Z</time></trkpt><trkpt lat="43.9225083" lon="12.6814101"><ele>53.0</ele><time>2026-04-26T11:10:28.392Z</time></trkpt><trkpt lat="43.9224261" lon="12.681462"><ele>53.0</ele><time>2026-04-26T11:10:29.394Z</time></trkpt><trkpt lat="43.9223431" lon="12.6815184"><ele>53.0</ele><time>2026-04-26T11:10:30.392Z</time></trkpt><trkpt lat="43.9222571" lon="12.6815758"><ele>52.8</ele><time>2026-04-26T11:10:31.39Z</time></trkpt><trkpt lat="43.9221676" lon="12.6816301"><ele>52.599999999999994</ele><time>2026-04-26T11:10:32.391Z</time></trkpt><trkpt lat="43.9220808" lon="12.681683"><ele>52.400000000000006</ele><time>2026-04-26T11:10:33.392Z</time></trkpt><trkpt lat="43.9219953" lon="12.6817333"><ele>52.2</ele><time>2026-04-26T11:10:34.394Z</time></trkpt><trkpt lat="43.9219073" lon="12.6817771"><ele>52.0</ele><time>2026-04-26T11:10:35.393Z</time></trkpt><trkpt lat="43.9218133" lon="12.6818265"><ele>52.0</ele><time>2026-04-26T11:10:36.398Z</time></trkpt><trkpt lat="43.9217205" lon="12.6818795"><ele>52.0</ele><time>2026-04-26T11:10:37.401Z</time></trkpt><trkpt lat="43.9216334" lon="12.6819356"><ele>52.0</ele><time>2026-04-26T11:10:38.395Z</time></trkpt><trkpt lat="43.9215382" lon="12.6820019"><ele>52.0</ele><time>2026-04-26T11:10:39.393Z</time></trkpt><trkpt lat="43.9214437" lon="12.6820608"><ele>52.0</ele><time>2026-04-26T11:10:40.395Z</time></trkpt><trkpt lat="43.9213515" lon="12.6821222"><ele>51.8</ele><time>2026-04-26T11:10:41.393Z</time></trkpt><trkpt lat="43.9212461" lon="12.6821809"><ele>51.6</ele><time>2026-04-26T11:10:42.403Z</time></trkpt><trkpt lat="43.9211467" lon="12.6822332"><ele>51.4</ele><time>2026-04-26T11:10:43.393Z</time></trkpt><trkpt lat="43.9210511" lon="12.6822974"><ele>51.199999999999996</ele><time>2026-04-26T11:10:44.397Z</time></trkpt><trkpt lat="43.9209497" lon="12.6823601"><ele>51.0</ele><time>2026-04-26T11:10:45.393Z</time></trkpt><trkpt lat="43.9208474" lon="12.6824077"><ele>51.0</ele><time>2026-04-26T11:10:46.394Z</time></trkpt><trkpt lat="43.9207541" lon="12.6824484"><ele>51.0</ele><time>2026-04-26T11:10:47.394Z</time></trkpt><trkpt lat="43.9206726" lon="12.6824915"><ele>51.0</ele><time>2026-04-26T11:10:48.391Z</time></trkpt><trkpt lat="43.9206081" lon="12.6825386"><ele>51.0</ele><time>2026-04-26T11:10:49.396Z</time></trkpt><trkpt lat="43.9205535" lon="12.6826011"><ele>51.0</ele><time>2026-04-26T11:10:50.393Z</time></trkpt><trkpt lat="43.9205243" lon="12.6826957"><ele>51.0</ele><time>2026-04-26T11:10:51.39Z</time></trkpt><trkpt lat="43.9205367" lon="12.6828275"><ele>50.199999999999996</ele><time>2026-04-26T11:10:52.39Z</time></trkpt><trkpt lat="43.9205432" lon="12.6829646"><ele>49.4</ele><time>2026-04-26T11:10:53.389Z</time></trkpt><trkpt lat="43.9205307" lon="12.6831141"><ele>48.6</ele><time>2026-04-26T11:10:54.398Z</time></trkpt><trkpt lat="43.9205259" lon="12.683243"><ele>47.8</ele><time>2026-04-26T11:10:55.399Z</time></trkpt><trkpt lat="43.9204959" lon="12.6833521"><ele>47.0</ele><time>2026-04-26T11:10:56.394Z</time></trkpt><trkpt lat="43.9204391" lon="12.683425"><ele>47.0</ele><time>2026-04-26T11:10:57.395Z</time></trkpt><trkpt lat="43.9203516" lon="12.6834715"><ele>47.0</ele><time>2026-04-26T11:10:58.401Z</time></trkpt><trkpt lat="43.9202339" lon="12.6835276"><ele>47.0</ele><time>2026-04-26T11:10:59.391Z</time></trkpt><trkpt lat="43.9201047" lon="12.6836135"><ele>47.0</ele><time>2026-04-26T11:11:00.393Z</time></trkpt><trkpt lat="43.9199792" lon="12.6837482"><ele>47.666666666666664</ele><time>2026-04-26T11:11:01.394Z</time></trkpt><trkpt lat="43.9198836" lon="12.6839427"><ele>48.33333333333333</ele><time>2026-04-26T11:11:02.394Z</time></trkpt><trkpt lat="43.9198159" lon="12.6841706"><ele>49.0</ele><time>2026-04-26T11:11:03.397Z</time></trkpt><trkpt lat="43.9197538" lon="12.6844095"><ele>50.0</ele><time>2026-04-26T11:11:04.394Z</time></trkpt><trkpt lat="43.919682" lon="12.6846097"><ele>51.0</ele><time>2026-04-26T11:11:05.394Z</time></trkpt><trkpt lat="43.9196136" lon="12.6847805"><ele>52.0</ele><time>2026-04-26T11:11:06.39Z</time></trkpt><trkpt lat="43.9195665" lon="12.6849353"><ele>53.0</ele><time>2026-04-26T11:11:07.393Z</time></trkpt><trkpt lat="43.9195352" lon="12.6850861"><ele>53.0</ele><time>2026-04-26T11:11:08.393Z</time></trkpt><trkpt lat="43.9195026" lon="12.6852445"><ele>53.0</ele><time>2026-04-26T11:11:09.394Z</time></trkpt><trkpt lat="43.9194691" lon="12.6854056"><ele>53.0</ele><time>2026-04-26T11:11:10.391Z</time></trkpt><trkpt lat="43.9194379" lon="12.6855705"><ele>53.0</ele><time>2026-04-26T11:11:11.394Z</time></trkpt><trkpt lat="43.9194111" lon="12.6857258"><ele>53.0</ele><time>2026-04-26T11:11:12.396Z</time></trkpt><trkpt lat="43.9193759" lon="12.6858796"><ele>53.0</ele><time>2026-04-26T11:11:13.394Z</time></trkpt><trkpt lat="43.9193403" lon="12.6860341"><ele>53.0</ele><time>2026-04-26T11:11:14.397Z</time></trkpt><trkpt lat="43.9193049" lon="12.6861814"><ele>53.0</ele><time>2026-04-26T11:11:15.398Z</time></trkpt><trkpt lat="43.9192686" lon="12.6863262"><ele>53.75</ele><time>2026-04-26T11:11:16.397Z</time></trkpt><trkpt lat="43.9192389" lon="12.6864703"><ele>54.5</ele><time>2026-04-26T11:11:17.392Z</time></trkpt><trkpt lat="43.9192232" lon="12.6866206"><ele>55.25</ele><time>2026-04-26T11:11:18.393Z</time></trkpt><trkpt lat="43.9192298" lon="12.6867853"><ele>56.0</ele><time>2026-04-26T11:11:19.401Z</time></trkpt><trkpt lat="43.9192536" lon="12.6869609"><ele>58.25</ele><time>2026-04-26T11:11:20.398Z</time></trkpt><trkpt lat="43.9192829" lon="12.6871354"><ele>60.5</ele><time>2026-04-26T11:11:21.391Z</time></trkpt><trkpt lat="43.9193218" lon="12.6873094"><ele>62.75</ele><time>2026-04-26T11:11:22.389Z</time></trkpt><trkpt lat="43.9193615" lon="12.6874901"><ele>65.0</ele><time>2026-04-26T11:11:23.391Z</time></trkpt><trkpt lat="43.9194027" lon="12.6876742"><ele>67.0</ele><time>2026-04-26T11:11:24.39Z</time></trkpt><trkpt lat="43.9194258" lon="12.687863"><ele>69.0</ele><time>2026-04-26T11:11:25.392Z</time></trkpt><trkpt lat="43.9194408" lon="12.688053"><ele>71.0</ele><time>2026-04-26T11:11:26.394Z</time></trkpt><trkpt lat="43.919453" lon="12.6882364"><ele>73.0</ele><time>2026-04-26T11:11:27.393Z</time></trkpt><trkpt lat="43.9194643" lon="12.6884201"><ele>76.33333333333333</ele><time>2026-04-26T11:11:28.395Z</time></trkpt><trkpt lat="43.9194875" lon="12.6886243"><ele>79.66666666666667</ele><time>2026-04-26T11:11:29.402Z</time></trkpt><trkpt lat="43.9195226" lon="12.6888408"><ele>83.0</ele><time>2026-04-26T11:11:30.394Z</time></trkpt><trkpt lat="43.9195586" lon="12.6890764"><ele>83.0</ele><time>2026-04-26T11:11:31.402Z</time></trkpt><trkpt lat="43.9195928" lon="12.6892992"><ele>83.0</ele><time>2026-04-26T11:11:32.393Z</time></trkpt><trkpt lat="43.9196181" lon="12.6895041"><ele>83.0</ele><time>2026-04-26T11:11:33.399Z</time></trkpt><trkpt lat="43.9196434" lon="12.6896994"><ele>85.0</ele><time>2026-04-26T11:11:34.392Z</time></trkpt><trkpt lat="43.9196647" lon="12.6898878"><ele>87.0</ele><time>2026-04-26T11:11:35.393Z</time></trkpt><trkpt lat="43.9196869" lon="12.6900786"><ele>89.0</ele><time>2026-04-26T11:11:36.394Z</time></trkpt><trkpt lat="43.9197061" lon="12.6902616"><ele>91.0</ele><time>2026-04-26T11:11:37.394Z</time></trkpt><trkpt lat="43.9197248" lon="12.6904395"><ele>93.0</ele><time>2026-04-26T11:11:38.399Z</time></trkpt><trkpt lat="43.9197537" lon="12.6906111"><ele>95.0</ele><time>2026-04-26T11:11:39.395Z</time></trkpt><trkpt lat="43.9197836" lon="12.6907703"><ele>97.0</ele><time>2026-04-26T11:11:40.394Z</time></trkpt><trkpt lat="43.9198114" lon="12.6909224"><ele>99.0</ele><time>2026-04-26T11:11:41.391Z</time></trkpt><trkpt lat="43.9198396" lon="12.6910786"><ele>100.4</ele><time>2026-04-26T11:11:42.392Z</time></trkpt><trkpt lat="43.9198587" lon="12.6912303"><ele>101.80000000000001</ele><time>2026-04-26T11:11:43.395Z</time></trkpt><trkpt lat="43.9198789" lon="12.6913764"><ele>103.19999999999999</ele><time>2026-04-26T11:11:44.394Z</time></trkpt><trkpt lat="43.9199024" lon="12.6915186"><ele>104.6</ele><time>2026-04-26T11:11:45.396Z</time></trkpt><trkpt lat="43.9199288" lon="12.6916706"><ele>106.0</ele><time>2026-04-26T11:11:46.395Z</time></trkpt><trkpt lat="43.9199609" lon="12.6918222"><ele>108.25</ele><time>2026-04-26T11:11:47.396Z</time></trkpt><trkpt lat="43.919992" lon="12.6919809"><ele>110.5</ele><time>2026-04-26T11:11:48.396Z</time></trkpt><trkpt lat="43.9200241" lon="12.6921377"><ele>112.75</ele><time>2026-04-26T11:11:49.391Z</time></trkpt><trkpt lat="43.9200583" lon="12.6922929"><ele>115.0</ele><time>2026-04-26T11:11:50.392Z</time></trkpt><trkpt lat="43.9200896" lon="12.6924566"><ele>116.0</ele><time>2026-04-26T11:11:51.392Z</time></trkpt><trkpt lat="43.9201178" lon="12.6926297"><ele>117.0</ele><time>2026-04-26T11:11:52.389Z</time></trkpt><trkpt lat="43.9201482" lon="12.6928068"><ele>118.0</ele><time>2026-04-26T11:11:53.391Z</time></trkpt><trkpt lat="43.9201802" lon="12.6929796"><ele>119.0</ele><time>2026-04-26T11:11:54.393Z</time></trkpt><trkpt lat="43.9202132" lon="12.693148"><ele>118.80000000000001</ele><time>2026-04-26T11:11:55.39Z</time></trkpt><trkpt lat="43.9202437" lon="12.6933078"><ele>118.60000000000001</ele><time>2026-04-26T11:11:56.398Z</time></trkpt><trkpt lat="43.9202684" lon="12.6934505"><ele>118.4</ele><time>2026-04-26T11:11:57.394Z</time></trkpt><trkpt lat="43.9202943" lon="12.6935792"><ele>118.2</ele><time>2026-04-26T11:11:58.403Z</time></trkpt><trkpt lat="43.9203168" lon="12.6937023"><ele>118.0</ele><time>2026-04-26T11:11:59.395Z</time></trkpt><trkpt lat="43.9203356" lon="12.6938241"><ele>118.00000000000001</ele><time>2026-04-26T11:12:00.398Z</time></trkpt><trkpt lat="43.9203485" lon="12.6939285"><ele>118.0</ele><time>2026-04-26T11:12:01.395Z</time></trkpt><trkpt lat="43.9203708" lon="12.6940142"><ele>118.0</ele><time>2026-04-26T11:12:03.393Z</time></trkpt><trkpt lat="43.9204682" lon="12.6940808"><ele>118.0</ele><time>2026-04-26T11:12:05.402Z</time></trkpt><trkpt lat="43.9205474" lon="12.6941202"><ele>118.00000000000001</ele><time>2026-04-26T11:12:06.39Z</time></trkpt><trkpt lat="43.9206427" lon="12.6941593"><ele>118.0</ele><time>2026-04-26T11:12:07.39Z</time></trkpt><trkpt lat="43.9207524" lon="12.6942016"><ele>118.0</ele><time>2026-04-26T11:12:08.393Z</time></trkpt><trkpt lat="43.9208744" lon="12.6942456"><ele>118.0</ele><time>2026-04-26T11:12:09.393Z</time></trkpt><trkpt lat="43.9210034" lon="12.6942991"><ele>118.0</ele><time>2026-04-26T11:12:10.396Z</time></trkpt><trkpt lat="43.9211401" lon="12.694357"><ele>118.0</ele><time>2026-04-26T11:12:11.401Z</time></trkpt><trkpt lat="43.9212773" lon="12.6944206"><ele>114.33333333333334</ele><time>2026-04-26T11:12:12.395Z</time></trkpt><trkpt lat="43.9214194" lon="12.6944909"><ele>110.66666666666666</ele><time>2026-04-26T11:12:13.397Z</time></trkpt><trkpt lat="43.9215588" lon="12.6945666"><ele>107.0</ele><time>2026-04-26T11:12:14.393Z</time></trkpt><trkpt lat="43.9216976" lon="12.6946425"><ele>108.0</ele><time>2026-04-26T11:12:15.396Z</time></trkpt><trkpt lat="43.9218346" lon="12.6947215"><ele>109.0</ele><time>2026-04-26T11:12:16.4Z</time></trkpt><trkpt lat="43.9219703" lon="12.6947977"><ele>110.0</ele><time>2026-04-26T11:12:17.393Z</time></trkpt><trkpt lat="43.9221026" lon="12.6948697"><ele>111.0</ele><time>2026-04-26T11:12:18.393Z</time></trkpt><trkpt lat="43.9222294" lon="12.6949565"><ele>111.0</ele><time>2026-04-26T11:12:19.392Z</time></trkpt><trkpt lat="43.9223386" lon="12.6950673"><ele>111.0</ele><time>2026-04-26T11:12:20.393Z</time></trkpt><trkpt lat="43.9224374" lon="12.6951998"><ele>111.0</ele><time>2026-04-26T11:12:21.392Z</time></trkpt><trkpt lat="43.9225298" lon="12.6953352"><ele>111.0</ele><time>2026-04-26T11:12:22.397Z</time></trkpt><trkpt lat="43.9226238" lon="12.6954661"><ele>110.5</ele><time>2026-04-26T11:12:23.389Z</time></trkpt><trkpt lat="43.9227237" lon="12.6955874"><ele>110.0</ele><time>2026-04-26T11:12:24.389Z</time></trkpt><trkpt lat="43.9228293" lon="12.6956908"><ele>109.5</ele><time>2026-04-26T11:12:25.393Z</time></trkpt><trkpt lat="43.9229404" lon="12.6957813"><ele>109.0</ele><time>2026-04-26T11:12:26.393Z</time></trkpt><trkpt lat="43.9230567" lon="12.6958642"><ele>109.0</ele><time>2026-04-26T11:12:27.394Z</time></trkpt><trkpt lat="43.9231794" lon="12.6959525"><ele>109.0</ele><time>2026-04-26T11:12:28.395Z</time></trkpt><trkpt lat="43.9233052" lon="12.6960376"><ele>109.0</ele><time>2026-04-26T11:12:29.394Z</time></trkpt><trkpt lat="43.9234336" lon="12.6961247"><ele>109.0</ele><time>2026-04-26T11:12:30.397Z</time></trkpt><trkpt lat="43.9235668" lon="12.6962119"><ele>109.0</ele><time>2026-04-26T11:12:31.392Z</time></trkpt><trkpt lat="43.9237032" lon="12.6963051"><ele>109.0</ele><time>2026-04-26T11:12:32.398Z</time></trkpt><trkpt lat="43.9238411" lon="12.696393"><ele>109.0</ele><time>2026-04-26T11:12:33.398Z</time></trkpt><trkpt lat="43.9239772" lon="12.6964861"><ele>109.0</ele><time>2026-04-26T11:12:34.391Z</time></trkpt><trkpt lat="43.9241132" lon="12.6965849"><ele>109.0</ele><time>2026-04-26T11:12:35.394Z</time></trkpt><trkpt lat="43.924246" lon="12.6966885"><ele>109.0</ele><time>2026-04-26T11:12:36.392Z</time></trkpt><trkpt lat="43.9243685" lon="12.6968112"><ele>109.0</ele><time>2026-04-26T11:12:37.393Z</time></trkpt><trkpt lat="43.9244833" lon="12.696951"><ele>109.0</ele><time>2026-04-26T11:12:38.395Z</time></trkpt><trkpt lat="43.924585" lon="12.6971125"><ele>109.0</ele><time>2026-04-26T11:12:39.395Z</time></trkpt><trkpt lat="43.9246747" lon="12.6972856"><ele>109.0</ele><time>2026-04-26T11:12:40.399Z</time></trkpt><trkpt lat="43.9247517" lon="12.6974761"><ele>109.0</ele><time>2026-04-26T11:12:41.395Z</time></trkpt><trkpt lat="43.9248223" lon="12.6976781"><ele>109.0</ele><time>2026-04-26T11:12:42.392Z</time></trkpt><trkpt lat="43.9248912" lon="12.697889"><ele>109.33333333333334</ele><time>2026-04-26T11:12:43.391Z</time></trkpt><trkpt lat="43.9249557" lon="12.6981074"><ele>109.66666666666666</ele><time>2026-04-26T11:12:44.393Z</time></trkpt><trkpt lat="43.9250124" lon="12.6983364"><ele>110.0</ele><time>2026-04-26T11:12:45.404Z</time></trkpt><trkpt lat="43.9250767" lon="12.6985622"><ele>107.33333333333333</ele><time>2026-04-26T11:12:46.403Z</time></trkpt><trkpt lat="43.9251427" lon="12.6987864"><ele>104.66666666666666</ele><time>2026-04-26T11:12:47.395Z</time></trkpt><trkpt lat="43.9252178" lon="12.6990098"><ele>102.0</ele><time>2026-04-26T11:12:48.392Z</time></trkpt><trkpt lat="43.9253033" lon="12.6992224"><ele>104.0</ele><time>2026-04-26T11:12:49.392Z</time></trkpt><trkpt lat="43.9253975" lon="12.6994218"><ele>106.0</ele><time>2026-04-26T11:12:50.392Z</time></trkpt><trkpt lat="43.925495" lon="12.6996149"><ele>108.0</ele><time>2026-04-26T11:12:51.395Z</time></trkpt><trkpt lat="43.9255862" lon="12.6998051"><ele>108.0</ele><time>2026-04-26T11:12:52.392Z</time></trkpt><trkpt lat="43.9256712" lon="12.6999998"><ele>108.0</ele><time>2026-04-26T11:12:53.391Z</time></trkpt><trkpt lat="43.9257478" lon="12.7002063"><ele>108.0</ele><time>2026-04-26T11:12:54.392Z</time></trkpt><trkpt lat="43.9258198" lon="12.7004091"><ele>110.0</ele><time>2026-04-26T11:12:55.391Z</time></trkpt><trkpt lat="43.9258865" lon="12.7006101"><ele>112.0</ele><time>2026-04-26T11:12:56.391Z</time></trkpt><trkpt lat="43.925952" lon="12.7008093"><ele>114.0</ele><time>2026-04-26T11:12:57.391Z</time></trkpt><trkpt lat="43.9260182" lon="12.7010054"><ele>112.5</ele><time>2026-04-26T11:12:58.393Z</time></trkpt><trkpt lat="43.926081" lon="12.7011901"><ele>111.0</ele><time>2026-04-26T11:12:59.394Z</time></trkpt><trkpt lat="43.926152" lon="12.7013549"><ele>109.5</ele><time>2026-04-26T11:13:00.402Z</time></trkpt><trkpt lat="43.9262402" lon="12.7015048"><ele>108.0</ele><time>2026-04-26T11:13:01.393Z</time></trkpt><trkpt lat="43.9263494" lon="12.7016479"><ele>108.0</ele><time>2026-04-26T11:13:02.399Z</time></trkpt><trkpt lat="43.9264608" lon="12.7017908"><ele>108.0</ele><time>2026-04-26T11:13:03.398Z</time></trkpt><trkpt lat="43.9265854" lon="12.7019355"><ele>108.0</ele><time>2026-04-26T11:13:04.395Z</time></trkpt><trkpt lat="43.92671" lon="12.7020782"><ele>106.0</ele><time>2026-04-26T11:13:05.393Z</time></trkpt><trkpt lat="43.9268368" lon="12.7022153"><ele>104.0</ele><time>2026-04-26T11:13:06.394Z</time></trkpt><trkpt lat="43.9269729" lon="12.7023472"><ele>102.0</ele><time>2026-04-26T11:13:07.397Z</time></trkpt><trkpt lat="43.927108" lon="12.7024662"><ele>102.0</ele><time>2026-04-26T11:13:08.394Z</time></trkpt><trkpt lat="43.9272396" lon="12.7025911"><ele>102.0</ele><time>2026-04-26T11:13:09.392Z</time></trkpt><trkpt lat="43.9273687" lon="12.7027212"><ele>102.0</ele><time>2026-04-26T11:13:10.395Z</time></trkpt><trkpt lat="43.9274922" lon="12.7028679"><ele>100.0</ele><time>2026-04-26T11:13:11.394Z</time></trkpt><trkpt lat="43.9276178" lon="12.703026"><ele>98.0</ele><time>2026-04-26T11:13:12.395Z</time></trkpt><trkpt lat="43.9277302" lon="12.703188"><ele>96.0</ele><time>2026-04-26T11:13:13.393Z</time></trkpt><trkpt lat="43.9278435" lon="12.7033485"><ele>96.0</ele><time>2026-04-26T11:13:14.392Z</time></trkpt><trkpt lat="43.9279517" lon="12.7034913"><ele>96.0</ele><time>2026-04-26T11:13:15.392Z</time></trkpt><trkpt lat="43.9280603" lon="12.703628"><ele>96.0</ele><time>2026-04-26T11:13:16.4Z</time></trkpt><trkpt lat="43.9281687" lon="12.7037499"><ele>96.0</ele><time>2026-04-26T11:13:17.4Z</time></trkpt><trkpt lat="43.9282756" lon="12.7038635"><ele>96.33333333333334</ele><time>2026-04-26T11:13:18.394Z</time></trkpt><trkpt lat="43.9283919" lon="12.7039736"><ele>96.66666666666667</ele><time>2026-04-26T11:13:19.391Z</time></trkpt><trkpt lat="43.928527" lon="12.704091"><ele>97.0</ele><time>2026-04-26T11:13:20.392Z</time></trkpt><trkpt lat="43.92867" lon="12.7042114"><ele>97.33333333333334</ele><time>2026-04-26T11:13:21.392Z</time></trkpt><trkpt lat="43.9288119" lon="12.7043363"><ele>97.66666666666666</ele><time>2026-04-26T11:13:22.389Z</time></trkpt><trkpt lat="43.9289455" lon="12.7044635"><ele>98.0</ele><time>2026-04-26T11:13:23.397Z</time></trkpt><trkpt lat="43.9290658" lon="12.704601"><ele>98.0</ele><time>2026-04-26T11:13:24.393Z</time></trkpt><trkpt lat="43.929163" lon="12.7047668"><ele>98.0</ele><time>2026-04-26T11:13:25.397Z</time></trkpt><trkpt lat="43.9292444" lon="12.7049742"><ele>98.0</ele><time>2026-04-26T11:13:26.394Z</time></trkpt><trkpt lat="43.9293176" lon="12.705192"><ele>98.33333333333333</ele><time>2026-04-26T11:13:27.399Z</time></trkpt><trkpt lat="43.9293969" lon="12.7053927"><ele>98.66666666666666</ele><time>2026-04-26T11:13:28.395Z</time></trkpt><trkpt lat="43.9294822" lon="12.7055848"><ele>99.0</ele><time>2026-04-26T11:13:29.39Z</time></trkpt><trkpt lat="43.9295965" lon="12.7057743"><ele>99.0</ele><time>2026-04-26T11:13:30.391Z</time></trkpt><trkpt lat="43.9297315" lon="12.7059604"><ele>99.0</ele><time>2026-04-26T11:13:31.392Z</time></trkpt><trkpt lat="43.929857" lon="12.706141"><ele>99.0</ele><time>2026-04-26T11:13:32.396Z</time></trkpt><trkpt lat="43.9299756" lon="12.7063072"><ele>96.75</ele><time>2026-04-26T11:13:33.394Z</time></trkpt><trkpt lat="43.9300811" lon="12.7064564"><ele>94.5</ele><time>2026-04-26T11:13:34.397Z</time></trkpt><trkpt lat="43.9301842" lon="12.7065928"><ele>92.25</ele><time>2026-04-26T11:13:35.397Z</time></trkpt><trkpt lat="43.9302969" lon="12.7066979"><ele>90.0</ele><time>2026-04-26T11:13:36.395Z</time></trkpt><trkpt lat="43.9304201" lon="12.7067825"><ele>90.0</ele><time>2026-04-26T11:13:37.393Z</time></trkpt><trkpt lat="43.9305501" lon="12.7068416"><ele>90.0</ele><time>2026-04-26T11:13:38.399Z</time></trkpt><trkpt lat="43.9306795" lon="12.7069049"><ele>90.0</ele><time>2026-04-26T11:13:39.397Z</time></trkpt><trkpt lat="43.9307996" lon="12.7070211"><ele>90.0</ele><time>2026-04-26T11:13:40.393Z</time></trkpt><trkpt lat="43.9309089" lon="12.7071723"><ele>88.5</ele><time>2026-04-26T11:13:41.391Z</time></trkpt><trkpt lat="43.9310083" lon="12.7073244"><ele>87.0</ele><time>2026-04-26T11:13:42.393Z</time></trkpt><trkpt lat="43.9311181" lon="12.7074569"><ele>85.5</ele><time>2026-04-26T11:13:43.394Z</time></trkpt><trkpt lat="43.9312432" lon="12.7075552"><ele>84.0</ele><time>2026-04-26T11:13:44.392Z</time></trkpt><trkpt lat="43.9313892" lon="12.7076412"><ele>84.0</ele><time>2026-04-26T11:13:45.395Z</time></trkpt><trkpt lat="43.931529" lon="12.7077368"><ele>84.0</ele><time>2026-04-26T11:13:46.395Z</time></trkpt><trkpt lat="43.9316621" lon="12.7078388"><ele>84.0</ele><time>2026-04-26T11:13:47.395Z</time></trkpt><trkpt lat="43.9317898" lon="12.7079557"><ele>82.33333333333333</ele><time>2026-04-26T11:13:48.393Z</time></trkpt><trkpt lat="43.931917" lon="12.7080965"><ele>80.66666666666666</ele><time>2026-04-26T11:13:49.392Z</time></trkpt><trkpt lat="43.9320386" lon="12.7082484"><ele>79.0</ele><time>2026-04-26T11:13:50.392Z</time></trkpt><trkpt lat="43.9321596" lon="12.7083854"><ele>79.0</ele><time>2026-04-26T11:13:51.391Z</time></trkpt><trkpt lat="43.9322807" lon="12.7085137"><ele>79.0</ele><time>2026-04-26T11:13:52.394Z</time></trkpt><trkpt lat="43.932408" lon="12.7086367"><ele>79.0</ele><time>2026-04-26T11:13:53.392Z</time></trkpt><trkpt lat="43.9325397" lon="12.7087658"><ele>73.66666666666666</ele><time>2026-04-26T11:13:54.395Z</time></trkpt><trkpt lat="43.9326705" lon="12.7089049"><ele>68.33333333333333</ele><time>2026-04-26T11:13:55.394Z</time></trkpt><trkpt lat="43.9328027" lon="12.7090493"><ele>63.0</ele><time>2026-04-26T11:13:56.393Z</time></trkpt><trkpt lat="43.932936" lon="12.709183"><ele>63.0</ele><time>2026-04-26T11:13:57.395Z</time></trkpt><trkpt lat="43.9330637" lon="12.7093154"><ele>63.0</ele><time>2026-04-26T11:13:58.401Z</time></trkpt><trkpt lat="43.9331791" lon="12.7094593"><ele>63.0</ele><time>2026-04-26T11:13:59.392Z</time></trkpt><trkpt lat="43.9332794" lon="12.7096321"><ele>65.0</ele><time>2026-04-26T11:14:00.396Z</time></trkpt><trkpt lat="43.9333818" lon="12.7098079"><ele>67.0</ele><time>2026-04-26T11:14:01.392Z</time></trkpt><trkpt lat="43.9334802" lon="12.7099952"><ele>69.0</ele><time>2026-04-26T11:14:02.391Z</time></trkpt><trkpt lat="43.9335706" lon="12.7101696"><ele>66.5</ele><time>2026-04-26T11:14:03.393Z</time></trkpt><trkpt lat="43.933657" lon="12.7103365"><ele>64.0</ele><time>2026-04-26T11:14:04.396Z</time></trkpt><trkpt lat="43.9337446" lon="12.710499"><ele>61.5</ele><time>2026-04-26T11:14:05.393Z</time></trkpt><trkpt lat="43.933824" lon="12.7106648"><ele>59.0</ele><time>2026-04-26T11:14:06.401Z</time></trkpt><trkpt lat="43.9338608" lon="12.7108591"><ele>59.0</ele><time>2026-04-26T11:14:07.399Z</time></trkpt><trkpt lat="43.9338973" lon="12.7110487"><ele>59.0</ele><time>2026-04-26T11:14:08.391Z</time></trkpt><trkpt lat="43.9339371" lon="12.7112303"><ele>59.0</ele><time>2026-04-26T11:14:09.392Z</time></trkpt><trkpt lat="43.9339646" lon="12.7114081"><ele>59.0</ele><time>2026-04-26T11:14:10.391Z</time></trkpt><trkpt lat="43.9339711" lon="12.7115895"><ele>58.333333333333336</ele><time>2026-04-26T11:14:11.39Z</time></trkpt><trkpt lat="43.9339577" lon="12.7117695"><ele>57.66666666666667</ele><time>2026-04-26T11:14:12.396Z</time></trkpt><trkpt lat="43.9339057" lon="12.7119726"><ele>57.0</ele><time>2026-04-26T11:14:13.395Z</time></trkpt><trkpt lat="43.9338373" lon="12.7121872"><ele>55.33333333333333</ele><time>2026-04-26T11:14:14.397Z</time></trkpt><trkpt lat="43.9337766" lon="12.7123897"><ele>53.666666666666664</ele><time>2026-04-26T11:14:15.392Z</time></trkpt><trkpt lat="43.9337239" lon="12.7126004"><ele>52.0</ele><time>2026-04-26T11:14:16.394Z</time></trkpt><trkpt lat="43.9337045" lon="12.7128246"><ele>50.666666666666664</ele><time>2026-04-26T11:14:17.4Z</time></trkpt><trkpt lat="43.933706" lon="12.7130462"><ele>49.33333333333333</ele><time>2026-04-26T11:14:18.392Z</time></trkpt><trkpt lat="43.9337242" lon="12.7132737"><ele>48.0</ele><time>2026-04-26T11:14:19.393Z</time></trkpt><trkpt lat="43.9337669" lon="12.7134998"><ele>49.0</ele><time>2026-04-26T11:14:20.398Z</time></trkpt><trkpt lat="43.9338145" lon="12.7137109"><ele>50.0</ele><time>2026-04-26T11:14:21.4Z</time></trkpt><trkpt lat="43.9338635" lon="12.7139142"><ele>51.0</ele><time>2026-04-26T11:14:22.397Z</time></trkpt><trkpt lat="43.9339212" lon="12.7140995"><ele>51.0</ele><time>2026-04-26T11:14:23.39Z</time></trkpt><trkpt lat="43.9339774" lon="12.7142792"><ele>51.0</ele><time>2026-04-26T11:14:24.391Z</time></trkpt><trkpt lat="43.9340262" lon="12.7144529"><ele>51.0</ele><time>2026-04-26T11:14:25.393Z</time></trkpt><trkpt lat="43.9340674" lon="12.7146243"><ele>51.0</ele><time>2026-04-26T11:14:26.394Z</time></trkpt><trkpt lat="43.9340852" lon="12.7148055"><ele>51.25</ele><time>2026-04-26T11:14:27.399Z</time></trkpt><trkpt lat="43.934064" lon="12.7149913"><ele>51.5</ele><time>2026-04-26T11:14:28.394Z</time></trkpt><trkpt lat="43.9340247" lon="12.7151679"><ele>51.75</ele><time>2026-04-26T11:14:29.399Z</time></trkpt><trkpt lat="43.9339803" lon="12.7153443"><ele>52.0</ele><time>2026-04-26T11:14:30.396Z</time></trkpt><trkpt lat="43.9339454" lon="12.7155205"><ele>51.2</ele><time>2026-04-26T11:14:31.394Z</time></trkpt><trkpt lat="43.9339345" lon="12.7156878"><ele>50.400000000000006</ele><time>2026-04-26T11:14:32.403Z</time></trkpt><trkpt lat="43.9339573" lon="12.715843"><ele>49.599999999999994</ele><time>2026-04-26T11:14:33.398Z</time></trkpt><trkpt lat="43.9340149" lon="12.7159582"><ele>48.8</ele><time>2026-04-26T11:14:34.399Z</time></trkpt><trkpt lat="43.9341098" lon="12.7160095"><ele>48.0</ele><time>2026-04-26T11:14:35.394Z</time></trkpt><trkpt lat="43.9342104" lon="12.7160022"><ele>45.8</ele><time>2026-04-26T11:14:36.393Z</time></trkpt><trkpt lat="43.9343013" lon="12.715938"><ele>43.599999999999994</ele><time>2026-04-26T11:14:37.391Z</time></trkpt><trkpt lat="43.9343739" lon="12.7158271"><ele>41.400000000000006</ele><time>2026-04-26T11:14:38.391Z</time></trkpt><trkpt lat="43.934423" lon="12.7156891"><ele>39.2</ele><time>2026-04-26T11:14:39.392Z</time></trkpt><trkpt lat="43.9344515" lon="12.7155175"><ele>37.0</ele><time>2026-04-26T11:14:40.394Z</time></trkpt><trkpt lat="43.9344728" lon="12.7153308"><ele>37.25</ele><time>2026-04-26T11:14:41.397Z</time></trkpt><trkpt lat="43.9345106" lon="12.7151734"><ele>37.5</ele><time>2026-04-26T11:14:42.401Z</time></trkpt><trkpt lat="43.9345325" lon="12.7149967"><ele>37.75</ele><time>2026-04-26T11:14:43.393Z</time></trkpt><trkpt lat="43.9345501" lon="12.7148279"><ele>38.0</ele><time>2026-04-26T11:14:44.398Z</time></trkpt><trkpt lat="43.9345667" lon="12.7146677"><ele>38.0</ele><time>2026-04-26T11:14:45.393Z</time></trkpt><trkpt lat="43.9345901" lon="12.7145353"><ele>38.0</ele><time>2026-04-26T11:14:46.392Z</time></trkpt><trkpt lat="43.934628" lon="12.7144374"><ele>38.0</ele><time>2026-04-26T11:14:47.393Z</time></trkpt><trkpt lat="43.9346942" lon="12.7143975"><ele>38.0</ele><time>2026-04-26T11:14:48.39Z</time></trkpt><trkpt lat="43.9347607" lon="12.7144276"><ele>38.0</ele><time>2026-04-26T11:14:49.393Z</time></trkpt><trkpt lat="43.9348117" lon="12.7145052"><ele>38.0</ele><time>2026-04-26T11:14:50.392Z</time></trkpt><trkpt lat="43.9348514" lon="12.7146042"><ele>38.0</ele><time>2026-04-26T11:14:51.393Z</time></trkpt><trkpt lat="43.9349058" lon="12.7147141"><ele>38.0</ele><time>2026-04-26T11:14:52.391Z</time></trkpt><trkpt lat="43.9349581" lon="12.7148206"><ele>38.0</ele><time>2026-04-26T11:14:53.396Z</time></trkpt><trkpt lat="43.9350521" lon="12.7149007"><ele>38.0</ele><time>2026-04-26T11:14:54.393Z</time></trkpt><trkpt lat="43.9351545" lon="12.7149499"><ele>38.0</ele><time>2026-04-26T11:14:55.395Z</time></trkpt><trkpt lat="43.9352695" lon="12.7149656"><ele>36.5</ele><time>2026-04-26T11:14:56.389Z</time></trkpt><trkpt lat="43.9353851" lon="12.7149668"><ele>35.0</ele><time>2026-04-26T11:14:57.389Z</time></trkpt><trkpt lat="43.9355066" lon="12.7149746"><ele>33.5</ele><time>2026-04-26T11:14:58.399Z</time></trkpt><trkpt lat="43.9356296" lon="12.7149819"><ele>32.0</ele><time>2026-04-26T11:14:59.393Z</time></trkpt><trkpt lat="43.9357495" lon="12.7149861"><ele>32.0</ele><time>2026-04-26T11:15:00.392Z</time></trkpt><trkpt lat="43.9358531" lon="12.7149895"><ele>32.0</ele><time>2026-04-26T11:15:01.398Z</time></trkpt><trkpt lat="43.9359467" lon="12.7149892"><ele>32.0</ele><time>2026-04-26T11:15:02.395Z</time></trkpt><trkpt lat="43.9360275" lon="12.7149943"><ele>32.0</ele><time>2026-04-26T11:15:03.394Z</time></trkpt><trkpt lat="43.9360979" lon="12.7149943"><ele>32.0</ele><time>2026-04-26T11:15:04.396Z</time></trkpt><trkpt lat="43.9362093" lon="12.7150023"><ele>31.666666666666664</ele><time>2026-04-26T11:15:06.392Z</time></trkpt><trkpt lat="43.9362841" lon="12.7150358"><ele>31.333333333333332</ele><time>2026-04-26T11:15:08.393Z</time></trkpt><trkpt lat="43.9363544" lon="12.7150621"><ele>31.0</ele><time>2026-04-26T11:15:16.393Z</time></trkpt><trkpt lat="43.9364535" lon="12.7150902"><ele>30.666666666666664</ele><time>2026-04-26T11:15:18.399Z</time></trkpt><trkpt lat="43.9365147" lon="12.7151323"><ele>30.333333333333332</ele><time>2026-04-26T11:15:19.393Z</time></trkpt><trkpt lat="43.9365744" lon="12.7152047"><ele>30.0</ele><time>2026-04-26T11:15:20.395Z</time></trkpt><trkpt lat="43.9366237" lon="12.7152976"><ele>30.0</ele><time>2026-04-26T11:15:21.396Z</time></trkpt><trkpt lat="43.9366681" lon="12.7153835"><ele>30.0</ele><time>2026-04-26T11:15:22.407Z</time></trkpt><trkpt lat="43.9367052" lon="12.7154698"><ele>30.0</ele><time>2026-04-26T11:15:23.402Z</time></trkpt><trkpt lat="43.9367207" lon="12.7155598"><ele>30.0</ele><time>2026-04-26T11:15:24.397Z</time></trkpt><trkpt lat="43.9367013" lon="12.715663"><ele>30.0</ele><time>2026-04-26T11:15:25.395Z</time></trkpt><trkpt lat="43.93666" lon="12.7157504"><ele>30.0</ele><time>2026-04-26T11:15:26.392Z</time></trkpt><trkpt lat="43.9366074" lon="12.7158296"><ele>30.0</ele><time>2026-04-26T11:15:27.392Z</time></trkpt><trkpt lat="43.9365475" lon="12.7159109"><ele>30.0</ele><time>2026-04-26T11:15:28.397Z</time></trkpt><trkpt lat="43.9364857" lon="12.7159958"><ele>30.0</ele><time>2026-04-26T11:15:29.395Z</time></trkpt><trkpt lat="43.93642" lon="12.716088"><ele>30.0</ele><time>2026-04-26T11:15:30.396Z</time></trkpt><trkpt lat="43.9363522" lon="12.7161828"><ele>30.0</ele><time>2026-04-26T11:15:31.396Z</time></trkpt><trkpt lat="43.9362761" lon="12.7162649"><ele>30.0</ele><time>2026-04-26T11:15:32.395Z</time></trkpt><trkpt lat="43.9361966" lon="12.7163519"><ele>29.8</ele><time>2026-04-26T11:15:33.397Z</time></trkpt><trkpt lat="43.9361199" lon="12.7164486"><ele>29.6</ele><time>2026-04-26T11:15:34.393Z</time></trkpt><trkpt lat="43.9360445" lon="12.7165501"><ele>29.4</ele><time>2026-04-26T11:15:35.396Z</time></trkpt><trkpt lat="43.9359673" lon="12.7166624"><ele>29.2</ele><time>2026-04-26T11:15:36.388Z</time></trkpt><trkpt lat="43.935884" lon="12.7167772"><ele>29.0</ele><time>2026-04-26T11:15:37.391Z</time></trkpt><trkpt lat="43.9357994" lon="12.7168956"><ele>29.0</ele><time>2026-04-26T11:15:38.393Z</time></trkpt><trkpt lat="43.9357209" lon="12.717008"><ele>29.0</ele><time>2026-04-26T11:15:39.393Z</time></trkpt><trkpt lat="43.9356406" lon="12.7171094"><ele>29.0</ele><time>2026-04-26T11:15:40.4Z</time></trkpt><trkpt lat="43.9355746" lon="12.7171914"><ele>29.0</ele><time>2026-04-26T11:15:41.398Z</time></trkpt><trkpt lat="43.935521" lon="12.717259"><ele>29.0</ele><time>2026-04-26T11:15:42.396Z</time></trkpt><trkpt lat="43.9354254" lon="12.7172958"><ele>28.999999999999996</ele><time>2026-04-26T11:15:44.397Z</time></trkpt><trkpt lat="43.9353483" lon="12.717265"><ele>29.0</ele><time>2026-04-26T11:15:45.392Z</time></trkpt><trkpt lat="43.9352568" lon="12.7172127"><ele>29.0</ele><time>2026-04-26T11:15:46.393Z</time></trkpt><trkpt lat="43.9351658" lon="12.7171521"><ele>29.0</ele><time>2026-04-26T11:15:47.395Z</time></trkpt><trkpt lat="43.9350919" lon="12.7170867"><ele>28.999999999999996</ele><time>2026-04-26T11:15:48.396Z</time></trkpt><trkpt lat="43.9350343" lon="12.7170415"><ele>29.0</ele><time>2026-04-26T11:15:49.397Z</time></trkpt><trkpt lat="43.9349726" lon="12.7170138"><ele>29.25</ele><time>2026-04-26T11:15:51.396Z</time></trkpt><trkpt lat="43.9348478" lon="12.7171104"><ele>29.5</ele><time>2026-04-26T11:15:53.391Z</time></trkpt><trkpt lat="43.9347619" lon="12.7172409"><ele>29.75</ele><time>2026-04-26T11:15:54.393Z</time></trkpt><trkpt lat="43.9346521" lon="12.7174092"><ele>30.0</ele><time>2026-04-26T11:15:55.391Z</time></trkpt><trkpt lat="43.9345192" lon="12.7176077"><ele>29.666666666666664</ele><time>2026-04-26T11:15:56.393Z</time></trkpt><trkpt lat="43.9343764" lon="12.717832"><ele>29.333333333333332</ele><time>2026-04-26T11:15:57.393Z</time></trkpt><trkpt lat="43.9342361" lon="12.7180589"><ele>29.0</ele><time>2026-04-26T11:15:58.396Z</time></trkpt><trkpt lat="43.934103" lon="12.7182713"><ele>29.0</ele><time>2026-04-26T11:15:59.392Z</time></trkpt><trkpt lat="43.9339757" lon="12.718466"><ele>29.0</ele><time>2026-04-26T11:16:00.391Z</time></trkpt><trkpt lat="43.9338626" lon="12.718649"><ele>29.0</ele><time>2026-04-26T11:16:01.399Z</time></trkpt><trkpt lat="43.9337619" lon="12.7188192"><ele>28.75</ele><time>2026-04-26T11:16:02.39Z</time></trkpt><trkpt lat="43.9336689" lon="12.7189718"><ele>28.5</ele><time>2026-04-26T11:16:03.391Z</time></trkpt><trkpt lat="43.9335817" lon="12.7191123"><ele>28.25</ele><time>2026-04-26T11:16:04.391Z</time></trkpt><trkpt lat="43.9335036" lon="12.7192417"><ele>28.0</ele><time>2026-04-26T11:16:05.398Z</time></trkpt><trkpt lat="43.9334425" lon="12.7193557"><ele>27.799999999999997</ele><time>2026-04-26T11:16:06.394Z</time></trkpt><trkpt lat="43.9333988" lon="12.7194611"><ele>27.599999999999998</ele><time>2026-04-26T11:16:07.395Z</time></trkpt><trkpt lat="43.9333921" lon="12.7195544"><ele>27.400000000000002</ele><time>2026-04-26T11:16:08.396Z</time></trkpt><trkpt lat="43.9334277" lon="12.7196388"><ele>27.200000000000003</ele><time>2026-04-26T11:16:09.398Z</time></trkpt><trkpt lat="43.9335074" lon="12.7197425"><ele>27.0</ele><time>2026-04-26T11:16:10.396Z</time></trkpt><trkpt lat="43.9335939" lon="12.719864"><ele>27.0</ele><time>2026-04-26T11:16:11.391Z</time></trkpt><trkpt lat="43.9336766" lon="12.7200125"><ele>27.0</ele><time>2026-04-26T11:16:12.39Z</time></trkpt><trkpt lat="43.9337725" lon="12.7201621"><ele>27.0</ele><time>2026-04-26T11:16:13.391Z</time></trkpt><trkpt lat="43.9338744" lon="12.7203091"><ele>27.0</ele><time>2026-04-26T11:16:14.393Z</time></trkpt><trkpt lat="43.9339685" lon="12.7204479"><ele>26.75</ele><time>2026-04-26T11:16:15.391Z</time></trkpt><trkpt lat="43.9340604" lon="12.7205839"><ele>26.5</ele><time>2026-04-26T11:16:16.395Z</time></trkpt><trkpt lat="43.9341508" lon="12.7207152"><ele>26.25</ele><time>2026-04-26T11:16:17.395Z</time></trkpt><trkpt lat="43.9342407" lon="12.7208511"><ele>26.0</ele><time>2026-04-26T11:16:18.395Z</time></trkpt><trkpt lat="43.9343265" lon="12.7209947"><ele>25.5</ele><time>2026-04-26T11:16:19.398Z</time></trkpt><trkpt lat="43.9344112" lon="12.7211415"><ele>25.0</ele><time>2026-04-26T11:16:20.4Z</time></trkpt><trkpt lat="43.934497" lon="12.7212921"><ele>24.5</ele><time>2026-04-26T11:16:21.4Z</time></trkpt><trkpt lat="43.9345782" lon="12.7214491"><ele>24.0</ele><time>2026-04-26T11:16:22.393Z</time></trkpt><trkpt lat="43.9346612" lon="12.7216055"><ele>24.0</ele><time>2026-04-26T11:16:23.391Z</time></trkpt><trkpt lat="43.9347481" lon="12.7217631"><ele>24.0</ele><time>2026-04-26T11:16:24.392Z</time></trkpt><trkpt lat="43.9348354" lon="12.7219218"><ele>24.0</ele><time>2026-04-26T11:16:25.393Z</time></trkpt><trkpt lat="43.9349232" lon="12.7220824"><ele>24.0</ele><time>2026-04-26T11:16:26.397Z</time></trkpt><trkpt lat="43.9350067" lon="12.7222375"><ele>24.0</ele><time>2026-04-26T11:16:27.394Z</time></trkpt><trkpt lat="43.9350921" lon="12.7223882"><ele>24.0</ele><time>2026-04-26T11:16:28.397Z</time></trkpt><trkpt lat="43.9351752" lon="12.7225315"><ele>24.0</ele><time>2026-04-26T11:16:29.399Z</time></trkpt><trkpt lat="43.9352561" lon="12.7226659"><ele>24.0</ele><time>2026-04-26T11:16:30.395Z</time></trkpt><trkpt lat="43.9353287" lon="12.7228007"><ele>24.0</ele><time>2026-04-26T11:16:31.392Z</time></trkpt><trkpt lat="43.9353989" lon="12.7229327"><ele>24.0</ele><time>2026-04-26T11:16:32.398Z</time></trkpt><trkpt lat="43.9354727" lon="12.7230672"><ele>24.0</ele><time>2026-04-26T11:16:33.394Z</time></trkpt><trkpt lat="43.9355589" lon="12.723202"><ele>24.0</ele><time>2026-04-26T11:16:34.394Z</time></trkpt><trkpt lat="43.9356559" lon="12.7233296"><ele>24.0</ele><time>2026-04-26T11:16:35.397Z</time></trkpt><trkpt lat="43.9357587" lon="12.7234474"><ele>24.0</ele><time>2026-04-26T11:16:36.391Z</time></trkpt><trkpt lat="43.9358686" lon="12.7235656"><ele>24.0</ele><time>2026-04-26T11:16:37.393Z</time></trkpt><trkpt lat="43.9359736" lon="12.7236908"><ele>24.0</ele><time>2026-04-26T11:16:38.399Z</time></trkpt><trkpt lat="43.9360697" lon="12.7238201"><ele>24.25</ele><time>2026-04-26T11:16:39.394Z</time></trkpt><trkpt lat="43.9361588" lon="12.7239623"><ele>24.5</ele><time>2026-04-26T11:16:40.396Z</time></trkpt><trkpt lat="43.9362313" lon="12.7241174"><ele>24.75</ele><time>2026-04-26T11:16:41.391Z</time></trkpt><trkpt lat="43.9362918" lon="12.7242869"><ele>25.0</ele><time>2026-04-26T11:16:42.391Z</time></trkpt><trkpt lat="43.9363409" lon="12.7244598"><ele>24.5</ele><time>2026-04-26T11:16:43.393Z</time></trkpt><trkpt lat="43.9363827" lon="12.72463"><ele>24.0</ele><time>2026-04-26T11:16:44.393Z</time></trkpt><trkpt lat="43.93642" lon="12.7248079"><ele>23.5</ele><time>2026-04-26T11:16:45.399Z</time></trkpt><trkpt lat="43.9364598" lon="12.7249912"><ele>23.0</ele><time>2026-04-26T11:16:46.394Z</time></trkpt><trkpt lat="43.9365067" lon="12.7251704"><ele>23.25</ele><time>2026-04-26T11:16:47.399Z</time></trkpt><trkpt lat="43.9365652" lon="12.7253471"><ele>23.5</ele><time>2026-04-26T11:16:48.387Z</time></trkpt><trkpt lat="43.9366319" lon="12.7255212"><ele>23.75</ele><time>2026-04-26T11:16:49.39Z</time></trkpt><trkpt lat="43.9367002" lon="12.7256873"><ele>24.0</ele><time>2026-04-26T11:16:50.387Z</time></trkpt><trkpt lat="43.9367684" lon="12.7258524"><ele>24.0</ele><time>2026-04-26T11:16:51.391Z</time></trkpt><trkpt lat="43.9368394" lon="12.7260205"><ele>24.0</ele><time>2026-04-26T11:16:52.392Z</time></trkpt><trkpt lat="43.9369027" lon="12.7261894"><ele>24.0</ele><time>2026-04-26T11:16:53.394Z</time></trkpt><trkpt lat="43.9369642" lon="12.7263515"><ele>24.0</ele><time>2026-04-26T11:16:54.394Z</time></trkpt><trkpt lat="43.9370284" lon="12.726511"><ele>23.5</ele><time>2026-04-26T11:16:55.396Z</time></trkpt><trkpt lat="43.9370938" lon="12.726669"><ele>23.0</ele><time>2026-04-26T11:16:56.395Z</time></trkpt><trkpt lat="43.9371617" lon="12.7268253"><ele>22.5</ele><time>2026-04-26T11:16:57.395Z</time></trkpt><trkpt lat="43.9372312" lon="12.7269755"><ele>22.0</ele><time>2026-04-26T11:16:58.397Z</time></trkpt><trkpt lat="43.9372996" lon="12.7271244"><ele>22.0</ele><time>2026-04-26T11:16:59.394Z</time></trkpt><trkpt lat="43.9373684" lon="12.7272736"><ele>22.0</ele><time>2026-04-26T11:17:00.391Z</time></trkpt><trkpt lat="43.9374439" lon="12.7274141"><ele>22.0</ele><time>2026-04-26T11:17:01.392Z</time></trkpt><trkpt lat="43.9375196" lon="12.7275492"><ele>22.0</ele><time>2026-04-26T11:17:02.398Z</time></trkpt><trkpt lat="43.9375832" lon="12.7276814"><ele>21.833333333333332</ele><time>2026-04-26T11:17:03.392Z</time></trkpt><trkpt lat="43.9376342" lon="12.7278053"><ele>21.666666666666664</ele><time>2026-04-26T11:17:04.399Z</time></trkpt><trkpt lat="43.937675" lon="12.7279117"><ele>21.5</ele><time>2026-04-26T11:17:05.401Z</time></trkpt><trkpt lat="43.9377284" lon="12.7279823"><ele>21.333333333333332</ele><time>2026-04-26T11:17:06.393Z</time></trkpt><trkpt lat="43.9378024" lon="12.7280055"><ele>21.166666666666668</ele><time>2026-04-26T11:17:07.392Z</time></trkpt><trkpt lat="43.9378834" lon="12.7279656"><ele>21.0</ele><time>2026-04-26T11:17:08.389Z</time></trkpt><trkpt lat="43.9379793" lon="12.7278707"><ele>21.0</ele><time>2026-04-26T11:17:09.391Z</time></trkpt><trkpt lat="43.9380844" lon="12.7277485"><ele>21.0</ele><time>2026-04-26T11:17:10.39Z</time></trkpt><trkpt lat="43.9382" lon="12.7276335"><ele>21.0</ele><time>2026-04-26T11:17:11.392Z</time></trkpt><trkpt lat="43.938324" lon="12.727511"><ele>21.0</ele><time>2026-04-26T11:17:12.395Z</time></trkpt><trkpt lat="43.938457" lon="12.7273825"><ele>21.0</ele><time>2026-04-26T11:17:13.393Z</time></trkpt><trkpt lat="43.9385823" lon="12.7272497"><ele>21.0</ele><time>2026-04-26T11:17:14.399Z</time></trkpt><trkpt lat="43.9386979" lon="12.7271152"><ele>21.0</ele><time>2026-04-26T11:17:15.394Z</time></trkpt><trkpt lat="43.9387909" lon="12.7269673"><ele>21.666666666666668</ele><time>2026-04-26T11:17:16.399Z</time></trkpt><trkpt lat="43.9388655" lon="12.7267993"><ele>22.333333333333336</ele><time>2026-04-26T11:17:17.398Z</time></trkpt><trkpt lat="43.9389295" lon="12.7266097"><ele>23.0</ele><time>2026-04-26T11:17:18.393Z</time></trkpt><trkpt lat="43.9389915" lon="12.726406"><ele>23.0</ele><time>2026-04-26T11:17:19.392Z</time></trkpt><trkpt lat="43.9390616" lon="12.7262007"><ele>23.0</ele><time>2026-04-26T11:17:20.393Z</time></trkpt><trkpt lat="43.9391383" lon="12.7260031"><ele>23.0</ele><time>2026-04-26T11:17:21.392Z</time></trkpt><trkpt lat="43.9392128" lon="12.725808"><ele>22.5</ele><time>2026-04-26T11:17:22.393Z</time></trkpt><trkpt lat="43.9392858" lon="12.7256176"><ele>22.0</ele><time>2026-04-26T11:17:23.393Z</time></trkpt><trkpt lat="43.9393676" lon="12.7254502"><ele>21.5</ele><time>2026-04-26T11:17:24.396Z</time></trkpt><trkpt lat="43.9394619" lon="12.7253017"><ele>21.0</ele><time>2026-04-26T11:17:25.392Z</time></trkpt><trkpt lat="43.9395718" lon="12.7251804"><ele>21.0</ele><time>2026-04-26T11:17:26.396Z</time></trkpt><trkpt lat="43.939694" lon="12.7250528"><ele>21.0</ele><time>2026-04-26T11:17:27.399Z</time></trkpt><trkpt lat="43.9398207" lon="12.724928"><ele>21.0</ele><time>2026-04-26T11:17:28.392Z</time></trkpt><trkpt lat="43.9399446" lon="12.7248068"><ele>21.0</ele><time>2026-04-26T11:17:29.392Z</time></trkpt><trkpt lat="43.9400626" lon="12.7246843"><ele>21.0</ele><time>2026-04-26T11:17:30.393Z</time></trkpt><trkpt lat="43.9401642" lon="12.7245657"><ele>21.0</ele><time>2026-04-26T11:17:31.396Z</time></trkpt><trkpt lat="43.9402504" lon="12.7244384"><ele>21.0</ele><time>2026-04-26T11:17:32.393Z</time></trkpt><trkpt lat="43.9403149" lon="12.7242932"><ele>21.0</ele><time>2026-04-26T11:17:33.397Z</time></trkpt><trkpt lat="43.9403693" lon="12.7241381"><ele>21.0</ele><time>2026-04-26T11:17:34.395Z</time></trkpt><trkpt lat="43.9404162" lon="12.7239588"><ele>21.0</ele><time>2026-04-26T11:17:35.395Z</time></trkpt><trkpt lat="43.9404683" lon="12.7237996"><ele>21.0</ele><time>2026-04-26T11:17:36.395Z</time></trkpt><trkpt lat="43.9405248" lon="12.7236536"><ele>21.0</ele><time>2026-04-26T11:17:37.392Z</time></trkpt><trkpt lat="43.940585" lon="12.7235252"><ele>21.0</ele><time>2026-04-26T11:17:38.393Z</time></trkpt><trkpt lat="43.9406509" lon="12.7234067"><ele>21.0</ele><time>2026-04-26T11:17:39.394Z</time></trkpt><trkpt lat="43.9407216" lon="12.7232911"><ele>21.0</ele><time>2026-04-26T11:17:40.393Z</time></trkpt><trkpt lat="43.9407979" lon="12.723194"><ele>21.0</ele><time>2026-04-26T11:17:41.392Z</time></trkpt><trkpt lat="43.9408775" lon="12.7231148"><ele>21.333333333333332</ele><time>2026-04-26T11:17:42.395Z</time></trkpt><trkpt lat="43.9409577" lon="12.7230465"><ele>21.666666666666668</ele><time>2026-04-26T11:17:43.393Z</time></trkpt><trkpt lat="43.9410246" lon="12.7230022"><ele>22.0</ele><time>2026-04-26T11:17:44.392Z</time></trkpt><trkpt lat="43.9410851" lon="12.7229587"><ele>22.333333333333336</ele><time>2026-04-26T11:17:45.391Z</time></trkpt><trkpt lat="43.9411424" lon="12.7229016"><ele>22.666666666666668</ele><time>2026-04-26T11:17:46.391Z</time></trkpt><trkpt lat="43.941217" lon="12.7229074"><ele>23.0</ele><time>2026-04-26T11:17:48.395Z</time></trkpt><trkpt lat="43.9411656" lon="12.7230421"><ele>23.0</ele><time>2026-04-26T11:17:51.401Z</time></trkpt><trkpt lat="43.9410638" lon="12.7231508"><ele>23.0</ele><time>2026-04-26T11:17:53.397Z</time></trkpt><trkpt lat="43.9410076" lon="12.7232113"><ele>23.0</ele><time>2026-04-26T11:17:54.394Z</time></trkpt><trkpt lat="43.9409539" lon="12.7232723"><ele>23.0</ele><time>2026-04-26T11:17:55.395Z</time></trkpt><trkpt lat="43.9409004" lon="12.723341"><ele>23.0</ele><time>2026-04-26T11:17:56.396Z</time></trkpt><trkpt lat="43.9408522" lon="12.7234143"><ele>23.0</ele><time>2026-04-26T11:17:57.395Z</time></trkpt><trkpt lat="43.9408035" lon="12.7234862"><ele>22.666666666666668</ele><time>2026-04-26T11:17:58.392Z</time></trkpt><trkpt lat="43.9407496" lon="12.7235497"><ele>22.333333333333336</ele><time>2026-04-26T11:17:59.399Z</time></trkpt><trkpt lat="43.9406971" lon="12.7236119"><ele>22.0</ele><time>2026-04-26T11:18:00.396Z</time></trkpt><trkpt lat="43.9406485" lon="12.7236711"><ele>21.666666666666668</ele><time>2026-04-26T11:18:01.392Z</time></trkpt><trkpt lat="43.9405991" lon="12.7237303"><ele>21.333333333333332</ele><time>2026-04-26T11:18:02.391Z</time></trkpt><trkpt lat="43.9405567" lon="12.7238538"><ele>21.0</ele><time>2026-04-26T11:18:04.395Z</time></trkpt><trkpt lat="43.940567" lon="12.7239699"><ele>21.0</ele><time>2026-04-26T11:18:06.393Z</time></trkpt><trkpt lat="43.9406184" lon="12.7241085"><ele>21.0</ele><time>2026-04-26T11:18:08.394Z</time></trkpt><trkpt lat="43.9406911" lon="12.7242252"><ele>21.0</ele><time>2026-04-26T11:18:09.393Z</time></trkpt><trkpt lat="43.940759" lon="12.7243304"><ele>21.0</ele><time>2026-04-26T11:18:10.395Z</time></trkpt><trkpt lat="43.9408305" lon="12.7244481"><ele>21.0</ele><time>2026-04-26T11:18:11.39Z</time></trkpt><trkpt lat="43.9409014" lon="12.7245644"><ele>21.25</ele><time>2026-04-26T11:18:12.394Z</time></trkpt><trkpt lat="43.9409767" lon="12.7246989"><ele>21.5</ele><time>2026-04-26T11:18:13.391Z</time></trkpt><trkpt lat="43.9410587" lon="12.7248353"><ele>21.75</ele><time>2026-04-26T11:18:14.39Z</time></trkpt><trkpt lat="43.9411422" lon="12.7249648"><ele>22.0</ele><time>2026-04-26T11:18:15.393Z</time></trkpt><trkpt lat="43.9412164" lon="12.7250845"><ele>22.0</ele><time>2026-04-26T11:18:16.391Z</time></trkpt><trkpt lat="43.9412872" lon="12.725198"><ele>22.0</ele><time>2026-04-26T11:18:17.392Z</time></trkpt><trkpt lat="43.9413627" lon="12.7253112"><ele>22.0</ele><time>2026-04-26T11:18:18.393Z</time></trkpt><trkpt lat="43.9414281" lon="12.7254163"><ele>22.0</ele><time>2026-04-26T11:18:19.394Z</time></trkpt><trkpt lat="43.9414898" lon="12.7255158"><ele>22.0</ele><time>2026-04-26T11:18:20.397Z</time></trkpt><trkpt lat="43.9415464" lon="12.7256235"><ele>22.0</ele><time>2026-04-26T11:18:21.393Z</time></trkpt><trkpt lat="43.9416015" lon="12.7257256"><ele>22.0</ele><time>2026-04-26T11:18:22.393Z</time></trkpt><trkpt lat="43.941645" lon="12.7258071"><ele>22.0</ele><time>2026-04-26T11:18:23.389Z</time></trkpt><trkpt lat="43.9416981" lon="12.7259323"><ele>22.0</ele><time>2026-04-26T11:18:25.393Z</time></trkpt><trkpt lat="43.9417803" lon="12.7260484"><ele>22.0</ele><time>2026-04-26T11:18:27.39Z</time></trkpt><trkpt lat="43.9417865" lon="12.7261933"><ele>21.5</ele><time>2026-04-26T11:18:29.4Z</time></trkpt><trkpt lat="43.9417951" lon="12.7262904"><ele>21.0</ele><time>2026-04-26T11:18:30.399Z</time></trkpt><trkpt lat="43.9418366" lon="12.7264236"><ele>20.5</ele><time>2026-04-26T11:18:31.397Z</time></trkpt><trkpt lat="43.9419186" lon="12.726565"><ele>20.0</ele><time>2026-04-26T11:18:32.394Z</time></trkpt><trkpt lat="43.9420302" lon="12.7267408"><ele>20.0</ele><time>2026-04-26T11:18:33.391Z</time></trkpt><trkpt lat="43.9421623" lon="12.7269503"><ele>20.0</ele><time>2026-04-26T11:18:34.396Z</time></trkpt><trkpt lat="43.9422947" lon="12.7271846"><ele>20.0</ele><time>2026-04-26T11:18:35.395Z</time></trkpt><trkpt lat="43.9424169" lon="12.72742"><ele>20.0</ele><time>2026-04-26T11:18:36.391Z</time></trkpt><trkpt lat="43.9425308" lon="12.7276466"><ele>20.0</ele><time>2026-04-26T11:18:37.394Z</time></trkpt><trkpt lat="43.9426412" lon="12.7278612"><ele>20.0</ele><time>2026-04-26T11:18:38.393Z</time></trkpt><trkpt lat="43.9427623" lon="12.7280729"><ele>20.0</ele><time>2026-04-26T11:18:39.395Z</time></trkpt><trkpt lat="43.9428873" lon="12.7282855"><ele>20.0</ele><time>2026-04-26T11:18:40.403Z</time></trkpt><trkpt lat="43.9430024" lon="12.72848"><ele>20.0</ele><time>2026-04-26T11:18:41.393Z</time></trkpt><trkpt lat="43.9431128" lon="12.7286706"><ele>20.0</ele><time>2026-04-26T11:18:42.392Z</time></trkpt><trkpt lat="43.9432158" lon="12.7288534"><ele>20.0</ele><time>2026-04-26T11:18:43.393Z</time></trkpt><trkpt lat="43.9433234" lon="12.7290378"><ele>20.0</ele><time>2026-04-26T11:18:44.391Z</time></trkpt><trkpt lat="43.943429" lon="12.729226"><ele>17.666666666666668</ele><time>2026-04-26T11:18:45.391Z</time></trkpt><trkpt lat="43.9435352" lon="12.7294146"><ele>15.333333333333332</ele><time>2026-04-26T11:18:46.391Z</time></trkpt><trkpt lat="43.9436422" lon="12.7296002"><ele>13.0</ele><time>2026-04-26T11:18:47.394Z</time></trkpt><trkpt lat="43.943751" lon="12.7297876"><ele>13.0</ele><time>2026-04-26T11:18:48.39Z</time></trkpt><trkpt lat="43.9438619" lon="12.7299778"><ele>13.0</ele><time>2026-04-26T11:18:49.391Z</time></trkpt><trkpt lat="43.9439749" lon="12.7301663"><ele>13.0</ele><time>2026-04-26T11:18:50.391Z</time></trkpt><trkpt lat="43.9440862" lon="12.7303591"><ele>13.333333333333332</ele><time>2026-04-26T11:18:51.392Z</time></trkpt><trkpt lat="43.9441963" lon="12.7305433"><ele>13.666666666666668</ele><time>2026-04-26T11:18:52.391Z</time></trkpt><trkpt lat="43.944301" lon="12.7307143"><ele>14.0</ele><time>2026-04-26T11:18:53.394Z</time></trkpt><trkpt lat="43.9444016" lon="12.7308646"><ele>14.75</ele><time>2026-04-26T11:18:54.393Z</time></trkpt><trkpt lat="43.9445007" lon="12.7309983"><ele>15.5</ele><time>2026-04-26T11:18:55.393Z</time></trkpt><trkpt lat="43.9445957" lon="12.7311086"><ele>16.25</ele><time>2026-04-26T11:18:56.395Z</time></trkpt><trkpt lat="43.9446994" lon="12.7312007"><ele>17.0</ele><time>2026-04-26T11:18:57.393Z</time></trkpt><trkpt lat="43.9447969" lon="12.7312976"><ele>17.25</ele><time>2026-04-26T11:18:58.398Z</time></trkpt><trkpt lat="43.9448955" lon="12.731402"><ele>17.5</ele><time>2026-04-26T11:18:59.395Z</time></trkpt><trkpt lat="43.9449971" lon="12.7315134"><ele>17.75</ele><time>2026-04-26T11:19:00.393Z</time></trkpt><trkpt lat="43.9450977" lon="12.7316224"><ele>18.0</ele><time>2026-04-26T11:19:01.391Z</time></trkpt><trkpt lat="43.945196" lon="12.7317341"><ele>18.0</ele><time>2026-04-26T11:19:02.395Z</time></trkpt><trkpt lat="43.9452942" lon="12.7318447"><ele>18.0</ele><time>2026-04-26T11:19:03.39Z</time></trkpt><trkpt lat="43.945385" lon="12.7319551"><ele>18.0</ele><time>2026-04-26T11:19:04.394Z</time></trkpt><trkpt lat="43.9454725" lon="12.7320558"><ele>18.0</ele><time>2026-04-26T11:19:05.392Z</time></trkpt><trkpt lat="43.945548" lon="12.7321443"><ele>18.2</ele><time>2026-04-26T11:19:06.395Z</time></trkpt><trkpt lat="43.9456182" lon="12.7322267"><ele>18.4</ele><time>2026-04-26T11:19:07.391Z</time></trkpt><trkpt lat="43.9456981" lon="12.7322928"><ele>18.599999999999998</ele><time>2026-04-26T11:19:08.398Z</time></trkpt><trkpt lat="43.9457956" lon="12.7323307"><ele>18.8</ele><time>2026-04-26T11:19:09.399Z</time></trkpt><trkpt lat="43.9458976" lon="12.7323558"><ele>19.0</ele><time>2026-04-26T11:19:10.398Z</time></trkpt><trkpt lat="43.9459966" lon="12.7323885"><ele>19.0</ele><time>2026-04-26T11:19:11.392Z</time></trkpt><trkpt lat="43.9460802" lon="12.7324495"><ele>19.0</ele><time>2026-04-26T11:19:12.392Z</time></trkpt><trkpt lat="43.9461723" lon="12.7325324"><ele>19.0</ele><time>2026-04-26T11:19:13.393Z</time></trkpt><trkpt lat="43.9462683" lon="12.7326236"><ele>19.0</ele><time>2026-04-26T11:19:14.391Z</time></trkpt><trkpt lat="43.9463561" lon="12.7327207"><ele>19.0</ele><time>2026-04-26T11:19:15.393Z</time></trkpt><trkpt lat="43.9464358" lon="12.7328161"><ele>18.833333333333332</ele><time>2026-04-26T11:19:16.396Z</time></trkpt><trkpt lat="43.9465085" lon="12.7328998"><ele>18.666666666666664</ele><time>2026-04-26T11:19:17.396Z</time></trkpt><trkpt lat="43.9465773" lon="12.7329641"><ele>18.5</ele><time>2026-04-26T11:19:18.396Z</time></trkpt><trkpt lat="43.9466418" lon="12.7330001"><ele>18.333333333333332</ele><time>2026-04-26T11:19:19.397Z</time></trkpt><trkpt lat="43.9467514" lon="12.7330168"><ele>18.166666666666668</ele><time>2026-04-26T11:19:21.389Z</time></trkpt><trkpt lat="43.9468163" lon="12.7330004"><ele>18.0</ele><time>2026-04-26T11:19:22.389Z</time></trkpt><trkpt lat="43.9468959" lon="12.7329768"><ele>17.666666666666668</ele><time>2026-04-26T11:19:23.395Z</time></trkpt><trkpt lat="43.946983" lon="12.7329539"><ele>17.333333333333332</ele><time>2026-04-26T11:19:24.394Z</time></trkpt><trkpt lat="43.9470663" lon="12.7329204"><ele>17.0</ele><time>2026-04-26T11:19:25.391Z</time></trkpt><trkpt lat="43.9471358" lon="12.7328781"><ele>16.666666666666664</ele><time>2026-04-26T11:19:26.395Z</time></trkpt><trkpt lat="43.9472009" lon="12.7328685"><ele>16.333333333333332</ele><time>2026-04-26T11:19:27.398Z</time></trkpt><trkpt lat="43.9472711" lon="12.7329543"><ele>16.0</ele><time>2026-04-26T11:19:29.396Z</time></trkpt><trkpt lat="43.9472616" lon="12.733048"><ele>16.0</ele><time>2026-04-26T11:19:30.395Z</time></trkpt><trkpt lat="43.9472473" lon="12.7331729"><ele>16.0</ele><time>2026-04-26T11:19:31.391Z</time></trkpt><trkpt lat="43.9472253" lon="12.7333176"><ele>16.0</ele><time>2026-04-26T11:19:32.4Z</time></trkpt><trkpt lat="43.9472026" lon="12.7334749"><ele>16.0</ele><time>2026-04-26T11:19:33.392Z</time></trkpt><trkpt lat="43.9471841" lon="12.7336277"><ele>16.0</ele><time>2026-04-26T11:19:34.388Z</time></trkpt><trkpt lat="43.9471771" lon="12.7337721"><ele>16.0</ele><time>2026-04-26T11:19:35.393Z</time></trkpt><trkpt lat="43.9472001" lon="12.7339367"><ele>16.0</ele><time>2026-04-26T11:19:36.397Z</time></trkpt><trkpt lat="43.9472646" lon="12.7341063"><ele>16.0</ele><time>2026-04-26T11:19:37.401Z</time></trkpt><trkpt lat="43.9473384" lon="12.7342597"><ele>16.0</ele><time>2026-04-26T11:19:38.394Z</time></trkpt><trkpt lat="43.9474056" lon="12.7344037"><ele>16.0</ele><time>2026-04-26T11:19:39.394Z</time></trkpt><trkpt lat="43.9474569" lon="12.7345569"><ele>16.0</ele><time>2026-04-26T11:19:40.391Z</time></trkpt><trkpt lat="43.9474934" lon="12.7347106"><ele>16.0</ele><time>2026-04-26T11:19:41.391Z</time></trkpt><trkpt lat="43.947512" lon="12.7348619"><ele>16.0</ele><time>2026-04-26T11:19:42.391Z</time></trkpt><trkpt lat="43.9475122" lon="12.735011"><ele>16.0</ele><time>2026-04-26T11:19:43.391Z</time></trkpt><trkpt lat="43.9474773" lon="12.735149"><ele>16.0</ele><time>2026-04-26T11:19:44.393Z</time></trkpt><trkpt lat="43.947409" lon="12.7352612"><ele>16.0</ele><time>2026-04-26T11:19:45.393Z</time></trkpt><trkpt lat="43.9472975" lon="12.7353508"><ele>16.0</ele><time>2026-04-26T11:19:46.394Z</time></trkpt><trkpt lat="43.9471672" lon="12.7354145"><ele>16.0</ele><time>2026-04-26T11:19:47.392Z</time></trkpt><trkpt lat="43.94707" lon="12.7354615"><ele>16.0</ele><time>2026-04-26T11:19:48.4Z</time></trkpt><trkpt lat="43.9470073" lon="12.7355226"><ele>16.0</ele><time>2026-04-26T11:19:49.398Z</time></trkpt><trkpt lat="43.9470163" lon="12.7357122"><ele>16.0</ele><time>2026-04-26T11:19:51.395Z</time></trkpt><trkpt lat="43.9470857" lon="12.7358453"><ele>16.0</ele><time>2026-04-26T11:19:52.393Z</time></trkpt><trkpt lat="43.9471484" lon="12.7360148"><ele>15.666666666666666</ele><time>2026-04-26T11:19:53.392Z</time></trkpt><trkpt lat="43.9472189" lon="12.7362193"><ele>15.333333333333332</ele><time>2026-04-26T11:19:54.395Z</time></trkpt><trkpt lat="43.9472821" lon="12.7364187"><ele>15.0</ele><time>2026-04-26T11:19:55.389Z</time></trkpt><trkpt lat="43.9473429" lon="12.7366173"><ele>15.0</ele><time>2026-04-26T11:19:56.393Z</time></trkpt><trkpt lat="43.9474086" lon="12.7368152"><ele>15.0</ele><time>2026-04-26T11:19:57.391Z</time></trkpt><trkpt lat="43.9474763" lon="12.7370111"><ele>15.0</ele><time>2026-04-26T11:19:58.396Z</time></trkpt><trkpt lat="43.9475477" lon="12.7372069"><ele>14.333333333333332</ele><time>2026-04-26T11:19:59.394Z</time></trkpt><trkpt lat="43.9476139" lon="12.7373995"><ele>13.666666666666666</ele><time>2026-04-26T11:20:00.391Z</time></trkpt><trkpt lat="43.9476821" lon="12.7375909"><ele>13.0</ele><time>2026-04-26T11:20:01.397Z</time></trkpt><trkpt lat="43.9477494" lon="12.7377711"><ele>13.0</ele><time>2026-04-26T11:20:02.393Z</time></trkpt><trkpt lat="43.9478199" lon="12.7379522"><ele>13.0</ele><time>2026-04-26T11:20:03.391Z</time></trkpt><trkpt lat="43.9478833" lon="12.738128"><ele>13.0</ele><time>2026-04-26T11:20:04.393Z</time></trkpt><trkpt lat="43.947948" lon="12.7383066"><ele>13.0</ele><time>2026-04-26T11:20:05.391Z</time></trkpt><trkpt lat="43.9480117" lon="12.7384858"><ele>13.666666666666666</ele><time>2026-04-26T11:20:06.397Z</time></trkpt><trkpt lat="43.9480807" lon="12.7386667"><ele>14.333333333333332</ele><time>2026-04-26T11:20:07.398Z</time></trkpt><trkpt lat="43.948151" lon="12.7388534"><ele>15.0</ele><time>2026-04-26T11:20:08.395Z</time></trkpt><trkpt lat="43.9482209" lon="12.7390437"><ele>15.0</ele><time>2026-04-26T11:20:09.393Z</time></trkpt><trkpt lat="43.9482902" lon="12.7392424"><ele>15.0</ele><time>2026-04-26T11:20:10.39Z</time></trkpt><trkpt lat="43.9483629" lon="12.7394358"><ele>15.0</ele><time>2026-04-26T11:20:11.394Z</time></trkpt><trkpt lat="43.9484362" lon="12.7396275"><ele>15.666666666666668</ele><time>2026-04-26T11:20:12.392Z</time></trkpt><trkpt lat="43.9485018" lon="12.7398226"><ele>16.333333333333336</ele><time>2026-04-26T11:20:13.392Z</time></trkpt><trkpt lat="43.9485692" lon="12.7400167"><ele>17.0</ele><time>2026-04-26T11:20:14.392Z</time></trkpt><trkpt lat="43.9486416" lon="12.7402121"><ele>17.333333333333336</ele><time>2026-04-26T11:20:15.391Z</time></trkpt><trkpt lat="43.9487103" lon="12.7404095"><ele>17.666666666666668</ele><time>2026-04-26T11:20:16.392Z</time></trkpt><trkpt lat="43.94878" lon="12.7406107"><ele>18.0</ele><time>2026-04-26T11:20:17.394Z</time></trkpt><trkpt lat="43.9488451" lon="12.7408124"><ele>18.0</ele><time>2026-04-26T11:20:18.393Z</time></trkpt><trkpt lat="43.948906" lon="12.7410122"><ele>18.0</ele><time>2026-04-26T11:20:19.394Z</time></trkpt><trkpt lat="43.9489712" lon="12.7412126"><ele>18.0</ele><time>2026-04-26T11:20:20.392Z</time></trkpt><trkpt lat="43.9490414" lon="12.7414103"><ele>18.0</ele><time>2026-04-26T11:20:21.392Z</time></trkpt><trkpt lat="43.9491124" lon="12.7416028"><ele>18.0</ele><time>2026-04-26T11:20:22.39Z</time></trkpt><trkpt lat="43.9491779" lon="12.7417779"><ele>18.0</ele><time>2026-04-26T11:20:23.391Z</time></trkpt><trkpt lat="43.9492429" lon="12.7419227"><ele>18.0</ele><time>2026-04-26T11:20:24.392Z</time></trkpt><trkpt lat="43.949292" lon="12.742048"><ele>17.5</ele><time>2026-04-26T11:20:25.396Z</time></trkpt><trkpt lat="43.9493152" lon="12.7421588"><ele>17.0</ele><time>2026-04-26T11:20:26.393Z</time></trkpt><trkpt lat="43.9493004" lon="12.7422694"><ele>16.5</ele><time>2026-04-26T11:20:27.398Z</time></trkpt><trkpt lat="43.9492878" lon="12.7423861"><ele>16.0</ele><time>2026-04-26T11:20:28.393Z</time></trkpt><trkpt lat="43.9493178" lon="12.7424876"><ele>15.5</ele><time>2026-04-26T11:20:29.396Z</time></trkpt><trkpt lat="43.9493855" lon="12.7425507"><ele>15.0</ele><time>2026-04-26T11:20:30.394Z</time></trkpt><trkpt lat="43.9494845" lon="12.7426125"><ele>15.0</ele><time>2026-04-26T11:20:31.392Z</time></trkpt><trkpt lat="43.9495859" lon="12.7427058"><ele>15.0</ele><time>2026-04-26T11:20:32.395Z</time></trkpt><trkpt lat="43.9496955" lon="12.7428354"><ele>15.0</ele><time>2026-04-26T11:20:33.392Z</time></trkpt><trkpt lat="43.9498159" lon="12.7429785"><ele>15.0</ele><time>2026-04-26T11:20:34.393Z</time></trkpt><trkpt lat="43.9499441" lon="12.7431293"><ele>15.0</ele><time>2026-04-26T11:20:35.394Z</time></trkpt><trkpt lat="43.9500717" lon="12.7432933"><ele>15.0</ele><time>2026-04-26T11:20:36.389Z</time></trkpt><trkpt lat="43.9502031" lon="12.7434593"><ele>15.0</ele><time>2026-04-26T11:20:37.391Z</time></trkpt><trkpt lat="43.9503377" lon="12.7436209"><ele>13.666666666666666</ele><time>2026-04-26T11:20:38.39Z</time></trkpt><trkpt lat="43.9504692" lon="12.7437865"><ele>12.333333333333332</ele><time>2026-04-26T11:20:39.39Z</time></trkpt><trkpt lat="43.950598" lon="12.743941"><ele>11.0</ele><time>2026-04-26T11:20:40.39Z</time></trkpt><trkpt lat="43.9507209" lon="12.7440982"><ele>11.0</ele><time>2026-04-26T11:20:41.393Z</time></trkpt><trkpt lat="43.9508357" lon="12.7442481"><ele>11.0</ele><time>2026-04-26T11:20:42.39Z</time></trkpt><trkpt lat="43.9509499" lon="12.7443894"><ele>11.0</ele><time>2026-04-26T11:20:43.393Z</time></trkpt><trkpt lat="43.95106" lon="12.744524"><ele>11.200000000000001</ele><time>2026-04-26T11:20:44.393Z</time></trkpt><trkpt lat="43.9511611" lon="12.7446494"><ele>11.4</ele><time>2026-04-26T11:20:45.397Z</time></trkpt><trkpt lat="43.9512483" lon="12.7447573"><ele>11.6</ele><time>2026-04-26T11:20:46.39Z</time></trkpt><trkpt lat="43.9513" lon="12.744843"><ele>11.8</ele><time>2026-04-26T11:20:47.395Z</time></trkpt><trkpt lat="43.9513348" lon="12.744927"><ele>12.0</ele><time>2026-04-26T11:20:48.401Z</time></trkpt><trkpt lat="43.9512951" lon="12.7450287"><ele>12.0</ele><time>2026-04-26T11:20:49.392Z</time></trkpt><trkpt lat="43.9512518" lon="12.7451456"><ele>12.0</ele><time>2026-04-26T11:20:50.397Z</time></trkpt><trkpt lat="43.9511654" lon="12.7452967"><ele>12.0</ele><time>2026-04-26T11:20:51.395Z</time></trkpt><trkpt lat="43.9511029" lon="12.7454386"><ele>12.0</ele><time>2026-04-26T11:20:52.393Z</time></trkpt><trkpt lat="43.9510501" lon="12.7455708"><ele>12.0</ele><time>2026-04-26T11:20:53.393Z</time></trkpt><trkpt lat="43.9510142" lon="12.7456825"><ele>12.0</ele><time>2026-04-26T11:20:54.392Z</time></trkpt><trkpt lat="43.9510172" lon="12.7457765"><ele>12.0</ele><time>2026-04-26T11:20:55.396Z</time></trkpt><trkpt lat="43.9510552" lon="12.7458508"><ele>12.0</ele><time>2026-04-26T11:20:56.392Z</time></trkpt><trkpt lat="43.9511397" lon="12.7459214"><ele>12.0</ele><time>2026-04-26T11:20:57.392Z</time></trkpt><trkpt lat="43.9512404" lon="12.7459797"><ele>12.0</ele><time>2026-04-26T11:20:58.391Z</time></trkpt><trkpt lat="43.9513448" lon="12.7460434"><ele>11.5</ele><time>2026-04-26T11:20:59.392Z</time></trkpt><trkpt lat="43.9514549" lon="12.7461045"><ele>11.0</ele><time>2026-04-26T11:21:00.392Z</time></trkpt><trkpt lat="43.9515694" lon="12.7461672"><ele>10.5</ele><time>2026-04-26T11:21:01.393Z</time></trkpt><trkpt lat="43.9516857" lon="12.7462296"><ele>10.0</ele><time>2026-04-26T11:21:02.391Z</time></trkpt><trkpt lat="43.9518034" lon="12.7462818"><ele>9.8</ele><time>2026-04-26T11:21:03.391Z</time></trkpt><trkpt lat="43.9519143" lon="12.7463218"><ele>9.6</ele><time>2026-04-26T11:21:04.393Z</time></trkpt><trkpt lat="43.9520161" lon="12.7463642"><ele>9.4</ele><time>2026-04-26T11:21:05.391Z</time></trkpt><trkpt lat="43.9521174" lon="12.7464023"><ele>9.2</ele><time>2026-04-26T11:21:06.399Z</time></trkpt><trkpt lat="43.9522142" lon="12.7464539"><ele>9.0</ele><time>2026-04-26T11:21:07.39Z</time></trkpt><trkpt lat="43.952298" lon="12.7465225"><ele>9.0</ele><time>2026-04-26T11:21:08.392Z</time></trkpt><trkpt lat="43.9523739" lon="12.7466141"><ele>9.0</ele><time>2026-04-26T11:21:09.391Z</time></trkpt><trkpt lat="43.9524429" lon="12.7467239"><ele>9.0</ele><time>2026-04-26T11:21:10.392Z</time></trkpt><trkpt lat="43.9525005" lon="12.746847"><ele>9.0</ele><time>2026-04-26T11:21:11.392Z</time></trkpt><trkpt lat="43.9525393" lon="12.7469784"><ele>9.0</ele><time>2026-04-26T11:21:12.39Z</time></trkpt><trkpt lat="43.9525535" lon="12.7471265"><ele>9.4</ele><time>2026-04-26T11:21:13.394Z</time></trkpt><trkpt lat="43.9525621" lon="12.7472746"><ele>9.8</ele><time>2026-04-26T11:21:14.398Z</time></trkpt><trkpt lat="43.9525971" lon="12.7474026"><ele>10.200000000000001</ele><time>2026-04-26T11:21:15.396Z</time></trkpt><trkpt lat="43.9526634" lon="12.7475013"><ele>10.600000000000001</ele><time>2026-04-26T11:21:16.39Z</time></trkpt><trkpt lat="43.9527543" lon="12.7475978"><ele>11.0</ele><time>2026-04-26T11:21:17.39Z</time></trkpt><trkpt lat="43.9528602" lon="12.7476474"><ele>11.0</ele><time>2026-04-26T11:21:18.395Z</time></trkpt><trkpt lat="43.9529916" lon="12.7476934"><ele>11.0</ele><time>2026-04-26T11:21:19.391Z</time></trkpt><trkpt lat="43.9531558" lon="12.7477508"><ele>11.0</ele><time>2026-04-26T11:21:20.392Z</time></trkpt><trkpt lat="43.9533151" lon="12.7477765"><ele>11.0</ele><time>2026-04-26T11:21:21.396Z</time></trkpt><trkpt lat="43.9533854" lon="12.7478977"><ele>11.0</ele><time>2026-04-26T11:21:22.396Z</time></trkpt><trkpt lat="43.9534593" lon="12.7480055"><ele>11.0</ele><time>2026-04-26T11:21:23.396Z</time></trkpt><trkpt lat="43.9535465" lon="12.7480845"><ele>11.0</ele><time>2026-04-26T11:21:24.397Z</time></trkpt><trkpt lat="43.9536311" lon="12.7481592"><ele>11.0</ele><time>2026-04-26T11:21:25.398Z</time></trkpt><trkpt lat="43.9537207" lon="12.7482392"><ele>11.0</ele><time>2026-04-26T11:21:26.391Z</time></trkpt><trkpt lat="43.953816" lon="12.7483207"><ele>11.0</ele><time>2026-04-26T11:21:27.397Z</time></trkpt><trkpt lat="43.9539116" lon="12.7484123"><ele>11.0</ele><time>2026-04-26T11:21:28.395Z</time></trkpt><trkpt lat="43.9540115" lon="12.7484989"><ele>11.0</ele><time>2026-04-26T11:21:29.39Z</time></trkpt><trkpt lat="43.9541191" lon="12.748596"><ele>11.0</ele><time>2026-04-26T11:21:30.394Z</time></trkpt><trkpt lat="43.9542247" lon="12.7486981"><ele>11.0</ele><time>2026-04-26T11:21:31.398Z</time></trkpt><trkpt lat="43.9543202" lon="12.7488175"><ele>11.0</ele><time>2026-04-26T11:21:32.39Z</time></trkpt><trkpt lat="43.9544264" lon="12.7489551"><ele>11.0</ele><time>2026-04-26T11:21:33.4Z</time></trkpt><trkpt lat="43.9545435" lon="12.7491143"><ele>11.0</ele><time>2026-04-26T11:21:34.391Z</time></trkpt><trkpt lat="43.9546693" lon="12.7492723"><ele>11.0</ele><time>2026-04-26T11:21:35.389Z</time></trkpt><trkpt lat="43.9547859" lon="12.7494179"><ele>11.0</ele><time>2026-04-26T11:21:36.389Z</time></trkpt><trkpt lat="43.9548873" lon="12.7495535"><ele>10.8</ele><time>2026-04-26T11:21:37.391Z</time></trkpt><trkpt lat="43.9549842" lon="12.7496675"><ele>10.600000000000001</ele><time>2026-04-26T11:21:38.4Z</time></trkpt><trkpt lat="43.9550698" lon="12.7497592"><ele>10.4</ele><time>2026-04-26T11:21:39.391Z</time></trkpt><trkpt lat="43.9551636" lon="12.7498097"><ele>10.2</ele><time>2026-04-26T11:21:40.393Z</time></trkpt><trkpt lat="43.9552612" lon="12.7498093"><ele>10.0</ele><time>2026-04-26T11:21:41.39Z</time></trkpt><trkpt lat="43.9553514" lon="12.7497567"><ele>10.0</ele><time>2026-04-26T11:21:42.39Z</time></trkpt><trkpt lat="43.9554254" lon="12.7496593"><ele>10.0</ele><time>2026-04-26T11:21:43.396Z</time></trkpt><trkpt lat="43.9554841" lon="12.7495216"><ele>10.0</ele><time>2026-04-26T11:21:44.402Z</time></trkpt><trkpt lat="43.9555494" lon="12.7493569"><ele>10.0</ele><time>2026-04-26T11:21:45.394Z</time></trkpt><trkpt lat="43.9556201" lon="12.7491847"><ele>10.0</ele><time>2026-04-26T11:21:46.398Z</time></trkpt><trkpt lat="43.9556946" lon="12.7490142"><ele>10.0</ele><time>2026-04-26T11:21:47.391Z</time></trkpt><trkpt lat="43.9557682" lon="12.7488528"><ele>10.0</ele><time>2026-04-26T11:21:48.391Z</time></trkpt><trkpt lat="43.9558406" lon="12.7486868"><ele>10.0</ele><time>2026-04-26T11:21:49.392Z</time></trkpt><trkpt lat="43.9559154" lon="12.7485332"><ele>10.25</ele><time>2026-04-26T11:21:50.392Z</time></trkpt><trkpt lat="43.9559953" lon="12.7483951"><ele>10.5</ele><time>2026-04-26T11:21:51.391Z</time></trkpt><trkpt lat="43.9560851" lon="12.7482855"><ele>10.75</ele><time>2026-04-26T11:21:52.395Z</time></trkpt><trkpt lat="43.9561771" lon="12.748202"><ele>11.0</ele><time>2026-04-26T11:21:53.393Z</time></trkpt><trkpt lat="43.9562667" lon="12.748141"><ele>11.0</ele><time>2026-04-26T11:21:54.395Z</time></trkpt><trkpt lat="43.9563721" lon="12.7481045"><ele>11.0</ele><time>2026-04-26T11:21:55.392Z</time></trkpt><trkpt lat="43.956473" lon="12.748119"><ele>11.0</ele><time>2026-04-26T11:21:56.394Z</time></trkpt><trkpt lat="43.9565726" lon="12.7481814"><ele>11.0</ele><time>2026-04-26T11:21:57.392Z</time></trkpt><trkpt lat="43.9566852" lon="12.7482939"><ele>11.0</ele><time>2026-04-26T11:21:58.391Z</time></trkpt><trkpt lat="43.9568118" lon="12.7484196"><ele>11.0</ele><time>2026-04-26T11:21:59.392Z</time></trkpt><trkpt lat="43.956934" lon="12.7485442"><ele>11.0</ele><time>2026-04-26T11:22:00.392Z</time></trkpt><trkpt lat="43.9570491" lon="12.7486577"><ele>11.0</ele><time>2026-04-26T11:22:01.39Z</time></trkpt><trkpt lat="43.9571593" lon="12.7487751"><ele>10.5</ele><time>2026-04-26T11:22:02.391Z</time></trkpt><trkpt lat="43.9572713" lon="12.7489003"><ele>10.0</ele><time>2026-04-26T11:22:03.393Z</time></trkpt><trkpt lat="43.9573792" lon="12.749034"><ele>9.5</ele><time>2026-04-26T11:22:04.399Z</time></trkpt><trkpt lat="43.9574862" lon="12.7491823"><ele>9.0</ele><time>2026-04-26T11:22:05.393Z</time></trkpt><trkpt lat="43.9575923" lon="12.7493345"><ele>8.333333333333334</ele><time>2026-04-26T11:22:06.391Z</time></trkpt><trkpt lat="43.9577073" lon="12.7494826"><ele>7.666666666666667</ele><time>2026-04-26T11:22:07.389Z</time></trkpt><trkpt lat="43.9578395" lon="12.7496247"><ele>7.0</ele><time>2026-04-26T11:22:08.391Z</time></trkpt><trkpt lat="43.9579884" lon="12.7497634"><ele>7.0</ele><time>2026-04-26T11:22:09.392Z</time></trkpt><trkpt lat="43.9581393" lon="12.7498943"><ele>7.0</ele><time>2026-04-26T11:22:10.392Z</time></trkpt><trkpt lat="43.9582736" lon="12.7500047"><ele>7.0</ele><time>2026-04-26T11:22:11.393Z</time></trkpt><trkpt lat="43.9583884" lon="12.750104"><ele>7.0</ele><time>2026-04-26T11:22:12.393Z</time></trkpt><trkpt lat="43.9584857" lon="12.7502004"><ele>6.999999999999999</ele><time>2026-04-26T11:22:13.395Z</time></trkpt><trkpt lat="43.9585638" lon="12.7502717"><ele>6.999999999999999</ele><time>2026-04-26T11:22:14.39Z</time></trkpt><trkpt lat="43.9586362" lon="12.7503102"><ele>7.0</ele><time>2026-04-26T11:22:15.394Z</time></trkpt><trkpt lat="43.9587062" lon="12.7503237"><ele>7.0</ele><time>2026-04-26T11:22:16.388Z</time></trkpt><trkpt lat="43.9587854" lon="12.7502521"><ele>7.0</ele><time>2026-04-26T11:22:17.388Z</time></trkpt><trkpt lat="43.9588858" lon="12.7502262"><ele>7.0</ele><time>2026-04-26T11:22:18.393Z</time></trkpt><trkpt lat="43.959025" lon="12.7502411"><ele>7.0</ele><time>2026-04-26T11:22:19.397Z</time></trkpt><trkpt lat="43.9591701" lon="12.7502763"><ele>7.0</ele><time>2026-04-26T11:22:20.396Z</time></trkpt><trkpt lat="43.9593191" lon="12.7503213"><ele>7.75</ele><time>2026-04-26T11:22:21.39Z</time></trkpt><trkpt lat="43.9594484" lon="12.7503794"><ele>8.5</ele><time>2026-04-26T11:22:22.392Z</time></trkpt><trkpt lat="43.9595741" lon="12.7504128"><ele>9.25</ele><time>2026-04-26T11:22:23.391Z</time></trkpt><trkpt lat="43.9596879" lon="12.7504257"><ele>10.0</ele><time>2026-04-26T11:22:24.394Z</time></trkpt><trkpt lat="43.9597788" lon="12.7504164"><ele>10.0</ele><time>2026-04-26T11:22:25.394Z</time></trkpt><trkpt lat="43.9598474" lon="12.7503885"><ele>10.0</ele><time>2026-04-26T11:22:26.393Z</time></trkpt><trkpt lat="43.9599145" lon="12.7503771"><ele>10.0</ele><time>2026-04-26T11:22:27.392Z</time></trkpt><trkpt lat="43.9599846" lon="12.7503886"><ele>10.0</ele><time>2026-04-26T11:22:28.398Z</time></trkpt><trkpt lat="43.9600736" lon="12.7504073"><ele>10.0</ele><time>2026-04-26T11:22:30.39Z</time></trkpt><trkpt lat="43.9601061" lon="12.7505041"><ele>10.0</ele><time>2026-04-26T11:22:34.388Z</time></trkpt><trkpt lat="43.9601413" lon="12.7506106"><ele>9.8</ele><time>2026-04-26T11:22:36.392Z</time></trkpt><trkpt lat="43.9602238" lon="12.7507118"><ele>9.6</ele><time>2026-04-26T11:22:38.397Z</time></trkpt><trkpt lat="43.9602998" lon="12.7507466"><ele>9.4</ele><time>2026-04-26T11:22:39.392Z</time></trkpt><trkpt lat="43.9603979" lon="12.750776"><ele>9.2</ele><time>2026-04-26T11:22:40.397Z</time></trkpt><trkpt lat="43.9605134" lon="12.7508132"><ele>9.0</ele><time>2026-04-26T11:22:41.391Z</time></trkpt><trkpt lat="43.9606409" lon="12.7508421"><ele>9.0</ele><time>2026-04-26T11:22:42.389Z</time></trkpt><trkpt lat="43.960781" lon="12.750863"><ele>9.0</ele><time>2026-04-26T11:22:43.39Z</time></trkpt><trkpt lat="43.9609174" lon="12.7508783"><ele>9.0</ele><time>2026-04-26T11:22:44.401Z</time></trkpt><trkpt lat="43.9610472" lon="12.7508934"><ele>9.0</ele><time>2026-04-26T11:22:45.391Z</time></trkpt><trkpt lat="43.961169" lon="12.7509378"><ele>9.0</ele><time>2026-04-26T11:22:46.39Z</time></trkpt><trkpt lat="43.9612726" lon="12.7510136"><ele>9.0</ele><time>2026-04-26T11:22:47.392Z</time></trkpt><trkpt lat="43.9613824" lon="12.7511395"><ele>9.0</ele><time>2026-04-26T11:22:48.392Z</time></trkpt><trkpt lat="43.9615121" lon="12.7512605"><ele>9.0</ele><time>2026-04-26T11:22:49.391Z</time></trkpt><trkpt lat="43.9616453" lon="12.7513666"><ele>9.0</ele><time>2026-04-26T11:22:50.396Z</time></trkpt><trkpt lat="43.9617722" lon="12.7514836"><ele>9.0</ele><time>2026-04-26T11:22:51.391Z</time></trkpt><trkpt lat="43.9619031" lon="12.7516066"><ele>9.0</ele><time>2026-04-26T11:22:52.393Z</time></trkpt><trkpt lat="43.9620294" lon="12.7517238"><ele>9.0</ele><time>2026-04-26T11:22:53.399Z</time></trkpt><trkpt lat="43.9621562" lon="12.7518421"><ele>9.0</ele><time>2026-04-26T11:22:54.394Z</time></trkpt><trkpt lat="43.9622835" lon="12.7519527"><ele>9.0</ele><time>2026-04-26T11:22:55.394Z</time></trkpt><trkpt lat="43.9624013" lon="12.7520561"><ele>9.0</ele><time>2026-04-26T11:22:56.391Z</time></trkpt><trkpt lat="43.9625178" lon="12.7521505"><ele>9.0</ele><time>2026-04-26T11:22:57.391Z</time></trkpt><trkpt lat="43.9626139" lon="12.7522342"><ele>9.0</ele><time>2026-04-26T11:22:58.396Z</time></trkpt><trkpt lat="43.9627044" lon="12.7523165"><ele>9.0</ele><time>2026-04-26T11:22:59.394Z</time></trkpt><trkpt lat="43.9628056" lon="12.7524036"><ele>9.0</ele><time>2026-04-26T11:23:00.394Z</time></trkpt><trkpt lat="43.9629237" lon="12.7525051"><ele>9.0</ele><time>2026-04-26T11:23:01.397Z</time></trkpt><trkpt lat="43.963038" lon="12.7526085"><ele>9.0</ele><time>2026-04-26T11:23:02.389Z</time></trkpt><trkpt lat="43.9631539" lon="12.7527113"><ele>9.0</ele><time>2026-04-26T11:23:03.391Z</time></trkpt><trkpt lat="43.9632479" lon="12.7528"><ele>9.0</ele><time>2026-04-26T11:23:04.387Z</time></trkpt><trkpt lat="43.9633295" lon="12.7528814"><ele>8.75</ele><time>2026-04-26T11:23:05.396Z</time></trkpt><trkpt lat="43.9634012" lon="12.7529561"><ele>8.5</ele><time>2026-04-26T11:23:06.393Z</time></trkpt><trkpt lat="43.9634909" lon="12.7530318"><ele>8.25</ele><time>2026-04-26T11:23:07.394Z</time></trkpt><trkpt lat="43.9635911" lon="12.7531233"><ele>8.0</ele><time>2026-04-26T11:23:08.392Z</time></trkpt><trkpt lat="43.9637131" lon="12.7532249"><ele>8.0</ele><time>2026-04-26T11:23:09.393Z</time></trkpt><trkpt lat="43.9638343" lon="12.7533358"><ele>8.0</ele><time>2026-04-26T11:23:10.393Z</time></trkpt><trkpt lat="43.9639516" lon="12.7534505"><ele>8.0</ele><time>2026-04-26T11:23:11.393Z</time></trkpt><trkpt lat="43.9640713" lon="12.7535538"><ele>8.0</ele><time>2026-04-26T11:23:12.394Z</time></trkpt><trkpt lat="43.9641866" lon="12.7536555"><ele>6.75</ele><time>2026-04-26T11:23:13.391Z</time></trkpt><trkpt lat="43.964297" lon="12.7537594"><ele>5.5</ele><time>2026-04-26T11:23:14.399Z</time></trkpt><trkpt lat="43.9643959" lon="12.7538592"><ele>4.25</ele><time>2026-04-26T11:23:15.394Z</time></trkpt><trkpt lat="43.9645092" lon="12.7539592"><ele>3.0</ele><time>2026-04-26T11:23:16.397Z</time></trkpt><trkpt lat="43.9646371" lon="12.754071"><ele>3.0</ele><time>2026-04-26T11:23:17.392Z</time></trkpt><trkpt lat="43.9647673" lon="12.7541867"><ele>3.0</ele><time>2026-04-26T11:23:18.393Z</time></trkpt><trkpt lat="43.964889" lon="12.7543182"><ele>3.0</ele><time>2026-04-26T11:23:19.396Z</time></trkpt><trkpt lat="43.9649969" lon="12.7544629"><ele>4.25</ele><time>2026-04-26T11:23:20.392Z</time></trkpt><trkpt lat="43.9650936" lon="12.7546072"><ele>5.5</ele><time>2026-04-26T11:23:21.392Z</time></trkpt><trkpt lat="43.965189" lon="12.7547358"><ele>6.75</ele><time>2026-04-26T11:23:22.393Z</time></trkpt><trkpt lat="43.9652953" lon="12.7548545"><ele>8.0</ele><time>2026-04-26T11:23:23.397Z</time></trkpt><trkpt lat="43.9654144" lon="12.7549746"><ele>8.0</ele><time>2026-04-26T11:23:24.395Z</time></trkpt><trkpt lat="43.9655515" lon="12.7550985"><ele>8.0</ele><time>2026-04-26T11:23:25.396Z</time></trkpt><trkpt lat="43.9656841" lon="12.7552165"><ele>8.0</ele><time>2026-04-26T11:23:26.412Z</time></trkpt><trkpt lat="43.9658064" lon="12.7553248"><ele>7.75</ele><time>2026-04-26T11:23:27.39Z</time></trkpt><trkpt lat="43.9659302" lon="12.75543"><ele>7.5</ele><time>2026-04-26T11:23:28.395Z</time></trkpt><trkpt lat="43.9660343" lon="12.7555194"><ele>7.25</ele><time>2026-04-26T11:23:29.39Z</time></trkpt><trkpt lat="43.9661274" lon="12.7556188"><ele>7.0</ele><time>2026-04-26T11:23:30.391Z</time></trkpt><trkpt lat="43.9662236" lon="12.7557132"><ele>7.0</ele><time>2026-04-26T11:23:31.393Z</time></trkpt><trkpt lat="43.9663341" lon="12.7558124"><ele>7.0</ele><time>2026-04-26T11:23:32.392Z</time></trkpt><trkpt lat="43.9664465" lon="12.7559045"><ele>7.0</ele><time>2026-04-26T11:23:33.39Z</time></trkpt><trkpt lat="43.9665569" lon="12.7559848"><ele>7.0</ele><time>2026-04-26T11:23:34.394Z</time></trkpt><trkpt lat="43.9666486" lon="12.7560621"><ele>6.3999999999999995</ele><time>2026-04-26T11:23:35.389Z</time></trkpt><trkpt lat="43.9667159" lon="12.7561431"><ele>5.799999999999999</ele><time>2026-04-26T11:23:36.394Z</time></trkpt><trkpt lat="43.9667607" lon="12.7562542"><ele>5.2</ele><time>2026-04-26T11:23:37.392Z</time></trkpt><trkpt lat="43.9667627" lon="12.7563897"><ele>4.6</ele><time>2026-04-26T11:23:38.393Z</time></trkpt><trkpt lat="43.9667418" lon="12.7565446"><ele>4.0</ele><time>2026-04-26T11:23:39.393Z</time></trkpt><trkpt lat="43.966712" lon="12.7566985"><ele>5.0</ele><time>2026-04-26T11:23:40.393Z</time></trkpt><trkpt lat="43.9666738" lon="12.756845"><ele>6.0</ele><time>2026-04-26T11:23:41.392Z</time></trkpt><trkpt lat="43.9666365" lon="12.7569841"><ele>7.0</ele><time>2026-04-26T11:23:42.389Z</time></trkpt><trkpt lat="43.966604" lon="12.7571235"><ele>8.0</ele><time>2026-04-26T11:23:43.393Z</time></trkpt><trkpt lat="43.9665644" lon="12.7572659"><ele>9.0</ele><time>2026-04-26T11:23:44.39Z</time></trkpt><trkpt lat="43.9665259" lon="12.7574116"><ele>9.0</ele><time>2026-04-26T11:23:45.39Z</time></trkpt><trkpt lat="43.9664825" lon="12.7575656"><ele>9.0</ele><time>2026-04-26T11:23:46.395Z</time></trkpt><trkpt lat="43.9664468" lon="12.7577125"><ele>9.0</ele><time>2026-04-26T11:23:47.395Z</time></trkpt><trkpt lat="43.966413" lon="12.7578529"><ele>9.0</ele><time>2026-04-26T11:23:48.395Z</time></trkpt><trkpt lat="43.9663782" lon="12.757985"><ele>9.0</ele><time>2026-04-26T11:23:49.394Z</time></trkpt><trkpt lat="43.966351" lon="12.7581175"><ele>9.0</ele><time>2026-04-26T11:23:50.4Z</time></trkpt><trkpt lat="43.9663172" lon="12.7582396"><ele>9.0</ele><time>2026-04-26T11:23:51.393Z</time></trkpt><trkpt lat="43.9662828" lon="12.7583438"><ele>9.0</ele><time>2026-04-26T11:23:52.39Z</time></trkpt><trkpt lat="43.9662544" lon="12.7584366"><ele>9.0</ele><time>2026-04-26T11:23:53.391Z</time></trkpt><trkpt lat="43.9662352" lon="12.7585284"><ele>9.0</ele><time>2026-04-26T11:23:54.391Z</time></trkpt><trkpt lat="43.9662474" lon="12.7586793"><ele>9.0</ele><time>2026-04-26T11:23:56.389Z</time></trkpt><trkpt lat="43.9663465" lon="12.7587542"><ele>8.833333333333334</ele><time>2026-04-26T11:23:58.398Z</time></trkpt><trkpt lat="43.9664193" lon="12.7587871"><ele>8.666666666666666</ele><time>2026-04-26T11:23:59.39Z</time></trkpt><trkpt lat="43.9664907" lon="12.7588214"><ele>8.5</ele><time>2026-04-26T11:24:00.39Z</time></trkpt><trkpt lat="43.9665534" lon="12.7588401"><ele>8.333333333333332</ele><time>2026-04-26T11:24:01.392Z</time></trkpt><trkpt lat="43.9666207" lon="12.7589261"><ele>8.166666666666666</ele><time>2026-04-26T11:24:03.391Z</time></trkpt><trkpt lat="43.9666081" lon="12.7590613"><ele>8.0</ele><time>2026-04-26T11:24:05.391Z</time></trkpt><trkpt lat="43.9665807" lon="12.7591966"><ele>8.0</ele><time>2026-04-26T11:24:07.401Z</time></trkpt><trkpt lat="43.9665526" lon="12.7593453"><ele>8.0</ele><time>2026-04-26T11:24:09.392Z</time></trkpt><trkpt lat="43.9665214" lon="12.7594939"><ele>8.0</ele><time>2026-04-26T11:24:11.393Z</time></trkpt><trkpt lat="43.9664884" lon="12.7596121"><ele>8.0</ele><time>2026-04-26T11:24:13.392Z</time></trkpt><trkpt lat="43.9664604" lon="12.7597264"><ele>8.0</ele><time>2026-04-26T11:24:15.4Z</time></trkpt><trkpt lat="43.9664374" lon="12.7598673"><ele>7.4</ele><time>2026-04-26T11:24:17.393Z</time></trkpt><trkpt lat="43.9663969" lon="12.7600173"><ele>6.800000000000001</ele><time>2026-04-26T11:24:19.39Z</time></trkpt><trkpt lat="43.966356" lon="12.7601669"><ele>6.2</ele><time>2026-04-26T11:24:21.387Z</time></trkpt><trkpt lat="43.9663114" lon="12.7603175"><ele>5.6</ele><time>2026-04-26T11:24:23.391Z</time></trkpt><trkpt lat="43.9662846" lon="12.7603971"><ele>5.0</ele><time>2026-04-26T11:24:24.391Z</time></trkpt><trkpt lat="43.9662362" lon="12.7605562"><ele>4.857142857142857</ele><time>2026-04-26T11:24:26.393Z</time></trkpt><trkpt lat="43.9662158" lon="12.7606416"><ele>4.714285714285714</ele><time>2026-04-26T11:24:27.394Z</time></trkpt><trkpt lat="43.9661924" lon="12.7607285"><ele>4.571428571428571</ele><time>2026-04-26T11:24:28.398Z</time></trkpt><trkpt lat="43.966165" lon="12.7608194"><ele>4.428571428571429</ele><time>2026-04-26T11:24:29.398Z</time></trkpt><trkpt lat="43.9661352" lon="12.7609139"><ele>4.285714285714286</ele><time>2026-04-26T11:24:30.397Z</time></trkpt><trkpt lat="43.9661067" lon="12.7610033"><ele>4.142857142857142</ele><time>2026-04-26T11:24:31.396Z</time></trkpt><trkpt lat="43.9660819" lon="12.7610925"><ele>4.0</ele><time>2026-04-26T11:24:32.393Z</time></trkpt><trkpt lat="43.9660566" lon="12.761188"><ele>3.8000000000000003</ele><time>2026-04-26T11:24:33.392Z</time></trkpt><trkpt lat="43.9660306" lon="12.761284"><ele>3.6000000000000005</ele><time>2026-04-26T11:24:34.394Z</time></trkpt><trkpt lat="43.9659972" lon="12.7614374"><ele>3.4</ele><time>2026-04-26T11:24:36.39Z</time></trkpt><trkpt lat="43.9659867" lon="12.7615662"><ele>3.2</ele><time>2026-04-26T11:24:38.393Z</time></trkpt><trkpt lat="43.9660069" lon="12.7616928"><ele>3.0</ele><time>2026-04-26T11:24:40.396Z</time></trkpt><trkpt lat="43.9660045" lon="12.7618683"><ele>2.9999999999999996</ele><time>2026-04-26T11:24:42.396Z</time></trkpt><trkpt lat="43.966007" lon="12.7619633"><ele>3.0</ele><time>2026-04-26T11:24:43.392Z</time></trkpt><trkpt lat="43.9660231" lon="12.762061"><ele>3.0</ele><time>2026-04-26T11:24:44.395Z</time></trkpt><trkpt lat="43.9660497" lon="12.7621497"><ele>3.0</ele><time>2026-04-26T11:24:45.391Z</time></trkpt><trkpt lat="43.9660875" lon="12.7622367"><ele>3.0</ele><time>2026-04-26T11:24:46.391Z</time></trkpt><trkpt lat="43.9661267" lon="12.7623317"><ele>2.9999999999999996</ele><time>2026-04-26T11:24:47.399Z</time></trkpt><trkpt lat="43.966165" lon="12.7624299"><ele>3.0</ele><time>2026-04-26T11:24:48.391Z</time></trkpt><trkpt lat="43.9661871" lon="12.7625297"><ele>3.0</ele><time>2026-04-26T11:24:49.39Z</time></trkpt><trkpt lat="43.9661877" lon="12.7626697"><ele>3.0</ele><time>2026-04-26T11:24:51.39Z</time></trkpt><trkpt lat="43.9661872" lon="12.7627831"><ele>3.0</ele><time>2026-04-26T11:24:59.392Z</time></trkpt><trkpt lat="43.9661713" lon="12.7629358"><ele>3.0</ele><time>2026-04-26T11:25:01.392Z</time></trkpt><trkpt lat="43.9661486" lon="12.7630478"><ele>3.0</ele><time>2026-04-26T11:25:03.391Z</time></trkpt><trkpt lat="43.9661472" lon="12.7631582"><ele>2.0</ele><time>2026-04-26T11:25:06.395Z</time></trkpt></trkseg></trk></gpx>